<?xml version='1.0' encoding='UTF-8'?><gpx version="1.1" creator="JPX - https://github.com/jenetics/jpx" xmlns="http://www.topografix.com/GPX/1/1"><trk><trkseg><trkpt lat="36.917885" lon="14.7319133"><ele>484.0</ele><time>2026-04-25T07:03:14.93Z</time></trkpt><trkpt lat="36.9179817" lon="14.73191"><ele>484.0</ele><time>2026-04-25T07:03:18.93Z</time></trkpt><trkpt lat="36.9180767" lon="14.7319417"><ele>484.0</ele><time>2026-04-25T07:03:20.929Z</time></trkpt><trkpt lat="36.918175" lon="14.7320483"><ele>484.0</ele><time>2026-04-25T07:03:22.93Z</time></trkpt><trkpt lat="36.91823" lon="14.73212"><ele>484.0</ele><time>2026-04-25T07:03:23.929Z</time></trkpt><trkpt lat="36.9182833" lon="14.7322033"><ele>484.00000000000006</ele><time>2026-04-25T07:03:24.929Z</time></trkpt><trkpt lat="36.9183383" lon="14.73228"><ele>484.0</ele><time>2026-04-25T07:03:25.93Z</time></trkpt><trkpt lat="36.9183983" lon="14.7323467"><ele>484.0</ele><time>2026-04-25T07:03:26.93Z</time></trkpt><trkpt lat="36.9184583" lon="14.7324067"><ele>484.0</ele><time>2026-04-25T07:03:27.93Z</time></trkpt><trkpt lat="36.9185217" lon="14.7324683"><ele>484.00000000000006</ele><time>2026-04-25T07:03:28.93Z</time></trkpt><trkpt lat="36.91859" lon="14.73253"><ele>484.0</ele><time>2026-04-25T07:03:29.929Z</time></trkpt><trkpt lat="36.9186583" lon="14.7325767"><ele>483.0</ele><time>2026-04-25T07:03:30.93Z</time></trkpt><trkpt lat="36.9187383" lon="14.73261"><ele>482.0</ele><time>2026-04-25T07:03:31.93Z</time></trkpt><trkpt lat="36.918825" lon="14.732635"><ele>481.0</ele><time>2026-04-25T07:03:32.929Z</time></trkpt><trkpt lat="36.9189167" lon="14.732665"><ele>480.0</ele><time>2026-04-25T07:03:33.93Z</time></trkpt><trkpt lat="36.919005" lon="14.73271"><ele>479.0</ele><time>2026-04-25T07:03:34.929Z</time></trkpt><trkpt lat="36.91909" lon="14.7327617"><ele>479.0</ele><time>2026-04-25T07:03:35.929Z</time></trkpt><trkpt lat="36.91917" lon="14.7328267"><ele>479.0</ele><time>2026-04-25T07:03:36.93Z</time></trkpt><trkpt lat="36.9192417" lon="14.7329067"><ele>479.0</ele><time>2026-04-25T07:03:37.93Z</time></trkpt><trkpt lat="36.919315" lon="14.7329983"><ele>479.0</ele><time>2026-04-25T07:03:38.93Z</time></trkpt><trkpt lat="36.919385" lon="14.73309"><ele>479.0</ele><time>2026-04-25T07:03:39.929Z</time></trkpt><trkpt lat="36.91946" lon="14.7331767"><ele>477.79999999999995</ele><time>2026-04-25T07:03:40.93Z</time></trkpt><trkpt lat="36.919535" lon="14.7332633"><ele>476.59999999999997</ele><time>2026-04-25T07:03:41.93Z</time></trkpt><trkpt lat="36.9196083" lon="14.7333483"><ele>475.4</ele><time>2026-04-25T07:03:42.93Z</time></trkpt><trkpt lat="36.9196767" lon="14.7334433"><ele>474.2</ele><time>2026-04-25T07:03:43.929Z</time></trkpt><trkpt lat="36.9197383" lon="14.7335433"><ele>473.0</ele><time>2026-04-25T07:03:44.93Z</time></trkpt><trkpt lat="36.9197933" lon="14.7336517"><ele>473.0</ele><time>2026-04-25T07:03:45.929Z</time></trkpt><trkpt lat="36.9198533" lon="14.7337583"><ele>472.99999999999994</ele><time>2026-04-25T07:03:46.93Z</time></trkpt><trkpt lat="36.91992" lon="14.7338533"><ele>472.99999999999994</ele><time>2026-04-25T07:03:47.929Z</time></trkpt><trkpt lat="36.9199883" lon="14.7339417"><ele>473.0</ele><time>2026-04-25T07:03:48.93Z</time></trkpt><trkpt lat="36.9200733" lon="14.734005"><ele>473.0</ele><time>2026-04-25T07:03:49.93Z</time></trkpt><trkpt lat="36.920165" lon="14.73405"><ele>471.2</ele><time>2026-04-25T07:03:50.93Z</time></trkpt><trkpt lat="36.9202733" lon="14.7340667"><ele>469.4</ele><time>2026-04-25T07:03:51.929Z</time></trkpt><trkpt lat="36.920385" lon="14.7340517"><ele>467.59999999999997</ele><time>2026-04-25T07:03:52.93Z</time></trkpt><trkpt lat="36.920485" lon="14.73403"><ele>465.79999999999995</ele><time>2026-04-25T07:03:53.93Z</time></trkpt><trkpt lat="36.9205883" lon="14.734005"><ele>464.0</ele><time>2026-04-25T07:03:54.929Z</time></trkpt><trkpt lat="36.9206933" lon="14.7339783"><ele>464.0</ele><time>2026-04-25T07:03:55.929Z</time></trkpt><trkpt lat="36.9208017" lon="14.7339667"><ele>464.0</ele><time>2026-04-25T07:03:56.929Z</time></trkpt><trkpt lat="36.9209183" lon="14.7339617"><ele>464.0</ele><time>2026-04-25T07:03:57.93Z</time></trkpt><trkpt lat="36.9210367" lon="14.73395"><ele>464.0</ele><time>2026-04-25T07:03:58.929Z</time></trkpt><trkpt lat="36.9211583" lon="14.7339467"><ele>461.5</ele><time>2026-04-25T07:03:59.93Z</time></trkpt><trkpt lat="36.9212833" lon="14.73396"><ele>459.0</ele><time>2026-04-25T07:04:00.93Z</time></trkpt><trkpt lat="36.9214133" lon="14.7339783"><ele>456.5</ele><time>2026-04-25T07:04:01.93Z</time></trkpt><trkpt lat="36.9215383" lon="14.7340083"><ele>454.0</ele><time>2026-04-25T07:04:02.929Z</time></trkpt><trkpt lat="36.9216683" lon="14.7340317"><ele>446.75</ele><time>2026-04-25T07:04:03.929Z</time></trkpt><trkpt lat="36.9217983" lon="14.7340667"><ele>439.5</ele><time>2026-04-25T07:04:04.929Z</time></trkpt><trkpt lat="36.9219083" lon="14.73414"><ele>432.25</ele><time>2026-04-25T07:04:05.93Z</time></trkpt><trkpt lat="36.9220167" lon="14.73421"><ele>425.0</ele><time>2026-04-25T07:04:06.929Z</time></trkpt><trkpt lat="36.9221167" lon="14.734305"><ele>430.5</ele><time>2026-04-25T07:04:07.93Z</time></trkpt><trkpt lat="36.9222167" lon="14.7344017"><ele>436.0</ele><time>2026-04-25T07:04:08.929Z</time></trkpt><trkpt lat="36.92231" lon="14.7345067"><ele>441.5</ele><time>2026-04-25T07:04:09.929Z</time></trkpt><trkpt lat="36.9224017" lon="14.734615"><ele>447.0</ele><time>2026-04-25T07:04:10.93Z</time></trkpt><trkpt lat="36.9224967" lon="14.73472"><ele>439.0</ele><time>2026-04-25T07:04:11.93Z</time></trkpt><trkpt lat="36.922595" lon="14.7348317"><ele>431.0</ele><time>2026-04-25T07:04:12.93Z</time></trkpt><trkpt lat="36.9227" lon="14.7349383"><ele>423.0</ele><time>2026-04-25T07:04:13.929Z</time></trkpt><trkpt lat="36.9227967" lon="14.73505"><ele>415.0</ele><time>2026-04-25T07:04:14.93Z</time></trkpt><trkpt lat="36.9228883" lon="14.7351667"><ele>418.25</ele><time>2026-04-25T07:04:15.93Z</time></trkpt><trkpt lat="36.922985" lon="14.7352767"><ele>421.5</ele><time>2026-04-25T07:04:16.929Z</time></trkpt><trkpt lat="36.923075" lon="14.73539"><ele>424.75</ele><time>2026-04-25T07:04:17.93Z</time></trkpt><trkpt lat="36.92316" lon="14.735505"><ele>428.0</ele><time>2026-04-25T07:04:18.93Z</time></trkpt><trkpt lat="36.9232383" lon="14.7356333"><ele>428.0</ele><time>2026-04-25T07:04:19.93Z</time></trkpt><trkpt lat="36.9233083" lon="14.73577"><ele>428.0</ele><time>2026-04-25T07:04:20.93Z</time></trkpt><trkpt lat="36.9233667" lon="14.73592"><ele>428.0</ele><time>2026-04-25T07:04:21.929Z</time></trkpt><trkpt lat="36.9234067" lon="14.7360767"><ele>428.0</ele><time>2026-04-25T07:04:22.93Z</time></trkpt><trkpt lat="36.92344" lon="14.736225"><ele>422.25</ele><time>2026-04-25T07:04:23.929Z</time></trkpt><trkpt lat="36.92349" lon="14.736355"><ele>416.5</ele><time>2026-04-25T07:04:24.929Z</time></trkpt><trkpt lat="36.9235517" lon="14.7364783"><ele>410.75</ele><time>2026-04-25T07:04:25.93Z</time></trkpt><trkpt lat="36.9236283" lon="14.7365883"><ele>405.0</ele><time>2026-04-25T07:04:26.93Z</time></trkpt><trkpt lat="36.9237217" lon="14.7366867"><ele>405.0</ele><time>2026-04-25T07:04:27.93Z</time></trkpt><trkpt lat="36.92382" lon="14.73677"><ele>405.0</ele><time>2026-04-25T07:04:28.93Z</time></trkpt><trkpt lat="36.9239217" lon="14.73685"><ele>405.0</ele><time>2026-04-25T07:04:29.929Z</time></trkpt><trkpt lat="36.9240483" lon="14.73691"><ele>405.0</ele><time>2026-04-25T07:04:30.93Z</time></trkpt><trkpt lat="36.924175" lon="14.7369417"><ele>405.75</ele><time>2026-04-25T07:04:31.929Z</time></trkpt><trkpt lat="36.9242983" lon="14.7369517"><ele>406.5</ele><time>2026-04-25T07:04:32.93Z</time></trkpt><trkpt lat="36.9244333" lon="14.73695"><ele>407.25</ele><time>2026-04-25T07:04:33.93Z</time></trkpt><trkpt lat="36.9245617" lon="14.7369583"><ele>408.0</ele><time>2026-04-25T07:04:34.93Z</time></trkpt><trkpt lat="36.924685" lon="14.7369783"><ele>408.0</ele><time>2026-04-25T07:04:35.929Z</time></trkpt><trkpt lat="36.9247917" lon="14.7370183"><ele>408.0</ele><time>2026-04-25T07:04:36.93Z</time></trkpt><trkpt lat="36.9248817" lon="14.737085"><ele>408.0</ele><time>2026-04-25T07:04:37.93Z</time></trkpt><trkpt lat="36.92496" lon="14.737165"><ele>408.0</ele><time>2026-04-25T07:04:38.93Z</time></trkpt><trkpt lat="36.9250417" lon="14.7372633"><ele>408.0</ele><time>2026-04-25T07:04:39.93Z</time></trkpt><trkpt lat="36.9251183" lon="14.7373633"><ele>404.1666666666667</ele><time>2026-04-25T07:04:40.93Z</time></trkpt><trkpt lat="36.92515" lon="14.737445"><ele>400.33333333333337</ele><time>2026-04-25T07:04:41.93Z</time></trkpt><trkpt lat="36.9251817" lon="14.737535"><ele>396.5</ele><time>2026-04-25T07:04:42.93Z</time></trkpt><trkpt lat="36.92518" lon="14.73763"><ele>392.6666666666667</ele><time>2026-04-25T07:04:43.929Z</time></trkpt><trkpt lat="36.9251383" lon="14.7377167"><ele>388.83333333333337</ele><time>2026-04-25T07:04:44.93Z</time></trkpt><trkpt lat="36.925075" lon="14.7377867"><ele>385.0</ele><time>2026-04-25T07:04:45.93Z</time></trkpt><trkpt lat="36.924975" lon="14.7378333"><ele>385.0</ele><time>2026-04-25T07:04:46.93Z</time></trkpt><trkpt lat="36.9248783" lon="14.737885"><ele>385.0</ele><time>2026-04-25T07:04:47.93Z</time></trkpt><trkpt lat="36.9247683" lon="14.73794"><ele>385.0</ele><time>2026-04-25T07:04:48.93Z</time></trkpt><trkpt lat="36.924665" lon="14.7379883"><ele>385.0</ele><time>2026-04-25T07:04:49.93Z</time></trkpt><trkpt lat="36.9245583" lon="14.7380383"><ele>385.0</ele><time>2026-04-25T07:04:50.93Z</time></trkpt><trkpt lat="36.9244533" lon="14.7381"><ele>385.0</ele><time>2026-04-25T07:04:51.929Z</time></trkpt><trkpt lat="36.9243467" lon="14.7381633"><ele>385.0</ele><time>2026-04-25T07:04:52.929Z</time></trkpt><trkpt lat="36.9242433" lon="14.738225"><ele>385.0</ele><time>2026-04-25T07:04:53.93Z</time></trkpt><trkpt lat="36.9241433" lon="14.7382867"><ele>385.0</ele><time>2026-04-25T07:04:54.93Z</time></trkpt><trkpt lat="36.9240433" lon="14.7383417"><ele>384.4</ele><time>2026-04-25T07:04:55.929Z</time></trkpt><trkpt lat="36.9239683" lon="14.7384267"><ele>383.8</ele><time>2026-04-25T07:04:56.93Z</time></trkpt><trkpt lat="36.9239083" lon="14.7385433"><ele>383.20000000000005</ele><time>2026-04-25T07:04:57.93Z</time></trkpt><trkpt lat="36.9238617" lon="14.73866"><ele>382.6</ele><time>2026-04-25T07:04:58.93Z</time></trkpt><trkpt lat="36.92383" lon="14.73879"><ele>382.0</ele><time>2026-04-25T07:04:59.93Z</time></trkpt><trkpt lat="36.9238033" lon="14.7389383"><ele>382.0</ele><time>2026-04-25T07:05:00.93Z</time></trkpt><trkpt lat="36.92377" lon="14.7390917"><ele>382.0</ele><time>2026-04-25T07:05:01.93Z</time></trkpt><trkpt lat="36.9237267" lon="14.73924"><ele>382.0</ele><time>2026-04-25T07:05:02.93Z</time></trkpt><trkpt lat="36.9236717" lon="14.739395"><ele>382.0</ele><time>2026-04-25T07:05:03.93Z</time></trkpt><trkpt lat="36.923605" lon="14.73954"><ele>386.25</ele><time>2026-04-25T07:05:04.93Z</time></trkpt><trkpt lat="36.923525" lon="14.73967"><ele>390.5</ele><time>2026-04-25T07:05:05.929Z</time></trkpt><trkpt lat="36.9234333" lon="14.7397767"><ele>394.75</ele><time>2026-04-25T07:05:06.929Z</time></trkpt><trkpt lat="36.923325" lon="14.7398783"><ele>399.0</ele><time>2026-04-25T07:05:07.929Z</time></trkpt><trkpt lat="36.9232233" lon="14.7399767"><ele>399.0</ele><time>2026-04-25T07:05:08.93Z</time></trkpt><trkpt lat="36.9231267" lon="14.7400817"><ele>399.0</ele><time>2026-04-25T07:05:09.929Z</time></trkpt><trkpt lat="36.923035" lon="14.7401967"><ele>399.0</ele><time>2026-04-25T07:05:10.93Z</time></trkpt><trkpt lat="36.922945" lon="14.7403133"><ele>399.0</ele><time>2026-04-25T07:05:11.93Z</time></trkpt><trkpt lat="36.9228633" lon="14.7404433"><ele>392.75</ele><time>2026-04-25T07:05:12.93Z</time></trkpt><trkpt lat="36.9227933" lon="14.7405833"><ele>386.5</ele><time>2026-04-25T07:05:13.929Z</time></trkpt><trkpt lat="36.92274" lon="14.7407367"><ele>380.25</ele><time>2026-04-25T07:05:14.93Z</time></trkpt><trkpt lat="36.922695" lon="14.7408983"><ele>374.0</ele><time>2026-04-25T07:05:15.93Z</time></trkpt><trkpt lat="36.9226617" lon="14.7410633"><ele>374.0</ele><time>2026-04-25T07:05:16.929Z</time></trkpt><trkpt lat="36.92265" lon="14.7412467"><ele>374.0</ele><time>2026-04-25T07:05:17.93Z</time></trkpt><trkpt lat="36.92266" lon="14.74142"><ele>374.0</ele><time>2026-04-25T07:05:18.929Z</time></trkpt><trkpt lat="36.922695" lon="14.7415917"><ele>374.0</ele><time>2026-04-25T07:05:19.929Z</time></trkpt><trkpt lat="36.922745" lon="14.7417467"><ele>376.75</ele><time>2026-04-25T07:05:20.929Z</time></trkpt><trkpt lat="36.9228083" lon="14.7418983"><ele>379.5</ele><time>2026-04-25T07:05:21.93Z</time></trkpt><trkpt lat="36.9228917" lon="14.74204"><ele>382.25</ele><time>2026-04-25T07:05:22.93Z</time></trkpt><trkpt lat="36.9229683" lon="14.742175"><ele>385.0</ele><time>2026-04-25T07:05:23.93Z</time></trkpt><trkpt lat="36.9230433" lon="14.7423083"><ele>385.0</ele><time>2026-04-25T07:05:24.929Z</time></trkpt><trkpt lat="36.92312" lon="14.7424383"><ele>385.0</ele><time>2026-04-25T07:05:25.93Z</time></trkpt><trkpt lat="36.9231883" lon="14.742585"><ele>385.0</ele><time>2026-04-25T07:05:26.93Z</time></trkpt><trkpt lat="36.9232283" lon="14.7427183"><ele>385.0</ele><time>2026-04-25T07:05:27.93Z</time></trkpt><trkpt lat="36.9232817" lon="14.7428617"><ele>386.25</ele><time>2026-04-25T07:05:28.929Z</time></trkpt><trkpt lat="36.9233217" lon="14.7429933"><ele>387.5</ele><time>2026-04-25T07:05:29.93Z</time></trkpt><trkpt lat="36.9233483" lon="14.74314"><ele>388.75</ele><time>2026-04-25T07:05:30.93Z</time></trkpt><trkpt lat="36.92336" lon="14.7432783"><ele>390.0</ele><time>2026-04-25T07:05:31.929Z</time></trkpt><trkpt lat="36.923355" lon="14.743415"><ele>390.0</ele><time>2026-04-25T07:05:32.929Z</time></trkpt><trkpt lat="36.9233283" lon="14.7435433"><ele>390.0</ele><time>2026-04-25T07:05:33.929Z</time></trkpt><trkpt lat="36.9232867" lon="14.7436817"><ele>390.0</ele><time>2026-04-25T07:05:34.929Z</time></trkpt><trkpt lat="36.9232283" lon="14.7438033"><ele>390.0</ele><time>2026-04-25T07:05:35.93Z</time></trkpt><trkpt lat="36.9231517" lon="14.7439067"><ele>387.0</ele><time>2026-04-25T07:05:36.929Z</time></trkpt><trkpt lat="36.923085" lon="14.744"><ele>384.0</ele><time>2026-04-25T07:05:37.93Z</time></trkpt><trkpt lat="36.9230117" lon="14.7440483"><ele>381.0</ele><time>2026-04-25T07:05:38.929Z</time></trkpt><trkpt lat="36.9229383" lon="14.7440683"><ele>378.0</ele><time>2026-04-25T07:05:39.93Z</time></trkpt><trkpt lat="36.92285" lon="14.7440683"><ele>375.0</ele><time>2026-04-25T07:05:40.93Z</time></trkpt><trkpt lat="36.9227467" lon="14.7440233"><ele>375.0</ele><time>2026-04-25T07:05:41.93Z</time></trkpt><trkpt lat="36.9226217" lon="14.74397"><ele>375.0</ele><time>2026-04-25T07:05:42.929Z</time></trkpt><trkpt lat="36.92249" lon="14.7439367"><ele>375.0</ele><time>2026-04-25T07:05:43.93Z</time></trkpt><trkpt lat="36.9223667" lon="14.7439233"><ele>375.0</ele><time>2026-04-25T07:05:44.929Z</time></trkpt><trkpt lat="36.92225" lon="14.743945"><ele>373.0</ele><time>2026-04-25T07:05:45.929Z</time></trkpt><trkpt lat="36.9221533" lon="14.7439967"><ele>371.0</ele><time>2026-04-25T07:05:46.929Z</time></trkpt><trkpt lat="36.9220783" lon="14.7440683"><ele>369.0</ele><time>2026-04-25T07:05:47.93Z</time></trkpt><trkpt lat="36.9220183" lon="14.7441783"><ele>367.0</ele><time>2026-04-25T07:05:48.929Z</time></trkpt><trkpt lat="36.9219867" lon="14.7443083"><ele>365.0</ele><time>2026-04-25T07:05:49.93Z</time></trkpt><trkpt lat="36.9219717" lon="14.74445"><ele>365.0</ele><time>2026-04-25T07:05:50.929Z</time></trkpt><trkpt lat="36.9219633" lon="14.744605"><ele>365.0</ele><time>2026-04-25T07:05:51.929Z</time></trkpt><trkpt lat="36.921965" lon="14.7447617"><ele>365.0</ele><time>2026-04-25T07:05:52.93Z</time></trkpt><trkpt lat="36.9219567" lon="14.74493"><ele>365.0</ele><time>2026-04-25T07:05:53.93Z</time></trkpt><trkpt lat="36.9219467" lon="14.7451083"><ele>362.75</ele><time>2026-04-25T07:05:54.93Z</time></trkpt><trkpt lat="36.921935" lon="14.74528"><ele>360.5</ele><time>2026-04-25T07:05:55.93Z</time></trkpt><trkpt lat="36.9219317" lon="14.745455"><ele>358.25</ele><time>2026-04-25T07:05:56.93Z</time></trkpt><trkpt lat="36.9219317" lon="14.7456317"><ele>356.0</ele><time>2026-04-25T07:05:57.929Z</time></trkpt><trkpt lat="36.9219433" lon="14.745795"><ele>356.0</ele><time>2026-04-25T07:05:58.93Z</time></trkpt><trkpt lat="36.9219617" lon="14.745965"><ele>356.0</ele><time>2026-04-25T07:05:59.93Z</time></trkpt><trkpt lat="36.92197" lon="14.746125"><ele>356.0</ele><time>2026-04-25T07:06:00.929Z</time></trkpt><trkpt lat="36.9219733" lon="14.7462917"><ele>356.0</ele><time>2026-04-25T07:06:01.93Z</time></trkpt><trkpt lat="36.9219867" lon="14.7464567"><ele>356.0</ele><time>2026-04-25T07:06:02.929Z</time></trkpt><trkpt lat="36.9220033" lon="14.7466267"><ele>356.0</ele><time>2026-04-25T07:06:03.929Z</time></trkpt><trkpt lat="36.9220167" lon="14.7467933"><ele>356.0</ele><time>2026-04-25T07:06:04.93Z</time></trkpt><trkpt lat="36.9220367" lon="14.7469617"><ele>356.0</ele><time>2026-04-25T07:06:05.929Z</time></trkpt><trkpt lat="36.92206" lon="14.74713"><ele>356.0</ele><time>2026-04-25T07:06:06.929Z</time></trkpt><trkpt lat="36.9220983" lon="14.7472917"><ele>356.0</ele><time>2026-04-25T07:06:07.929Z</time></trkpt><trkpt lat="36.922125" lon="14.747455"><ele>356.0</ele><time>2026-04-25T07:06:08.929Z</time></trkpt><trkpt lat="36.922145" lon="14.7476117"><ele>356.0</ele><time>2026-04-25T07:06:09.93Z</time></trkpt><trkpt lat="36.9221567" lon="14.7477767"><ele>357.25</ele><time>2026-04-25T07:06:10.93Z</time></trkpt><trkpt lat="36.9221783" lon="14.7479267"><ele>358.5</ele><time>2026-04-25T07:06:11.93Z</time></trkpt><trkpt lat="36.9221817" lon="14.74808"><ele>359.75</ele><time>2026-04-25T07:06:12.929Z</time></trkpt><trkpt lat="36.922185" lon="14.7482217"><ele>361.0</ele><time>2026-04-25T07:06:13.93Z</time></trkpt><trkpt lat="36.922175" lon="14.74834"><ele>361.0</ele><time>2026-04-25T07:06:14.93Z</time></trkpt><trkpt lat="36.922155" lon="14.7484433"><ele>361.0</ele><time>2026-04-25T07:06:15.93Z</time></trkpt><trkpt lat="36.92212" lon="14.7485167"><ele>361.0</ele><time>2026-04-25T07:06:16.93Z</time></trkpt><trkpt lat="36.9220617" lon="14.7485667"><ele>361.0</ele><time>2026-04-25T07:06:17.93Z</time></trkpt><trkpt lat="36.9219383" lon="14.7486067"><ele>361.0</ele><time>2026-04-25T07:06:19.929Z</time></trkpt><trkpt lat="36.921865" lon="14.7485867"><ele>361.0</ele><time>2026-04-25T07:06:20.93Z</time></trkpt><trkpt lat="36.92177" lon="14.7485217"><ele>365.0</ele><time>2026-04-25T07:06:21.93Z</time></trkpt><trkpt lat="36.9216767" lon="14.7484217"><ele>369.0</ele><time>2026-04-25T07:06:22.929Z</time></trkpt><trkpt lat="36.9215767" lon="14.7483033"><ele>373.0</ele><time>2026-04-25T07:06:23.929Z</time></trkpt><trkpt lat="36.92147" lon="14.7481983"><ele>377.0</ele><time>2026-04-25T07:06:24.93Z</time></trkpt><trkpt lat="36.921365" lon="14.7480933"><ele>377.0</ele><time>2026-04-25T07:06:25.929Z</time></trkpt><trkpt lat="36.92126" lon="14.747985"><ele>377.0</ele><time>2026-04-25T07:06:26.93Z</time></trkpt><trkpt lat="36.9211433" lon="14.7478883"><ele>377.0</ele><time>2026-04-25T07:06:27.929Z</time></trkpt><trkpt lat="36.9210183" lon="14.7478017"><ele>377.0</ele><time>2026-04-25T07:06:28.929Z</time></trkpt><trkpt lat="36.9208967" lon="14.7477283"><ele>378.75</ele><time>2026-04-25T07:06:29.93Z</time></trkpt><trkpt lat="36.9207767" lon="14.747655"><ele>380.5</ele><time>2026-04-25T07:06:30.929Z</time></trkpt><trkpt lat="36.9206633" lon="14.74759"><ele>382.25</ele><time>2026-04-25T07:06:31.929Z</time></trkpt><trkpt lat="36.9205517" lon="14.7475233"><ele>384.0</ele><time>2026-04-25T07:06:32.93Z</time></trkpt><trkpt lat="36.9204483" lon="14.7474683"><ele>384.0</ele><time>2026-04-25T07:06:33.93Z</time></trkpt><trkpt lat="36.920355" lon="14.7474167"><ele>384.0</ele><time>2026-04-25T07:06:34.929Z</time></trkpt><trkpt lat="36.9202667" lon="14.74737"><ele>384.0</ele><time>2026-04-25T07:06:35.929Z</time></trkpt><trkpt lat="36.9201833" lon="14.7473333"><ele>384.0</ele><time>2026-04-25T07:06:36.93Z</time></trkpt><trkpt lat="36.9201033" lon="14.747325"><ele>384.0</ele><time>2026-04-25T07:06:37.929Z</time></trkpt><trkpt lat="36.9200367" lon="14.747345"><ele>384.0</ele><time>2026-04-25T07:06:38.93Z</time></trkpt><trkpt lat="36.9199783" lon="14.747395"><ele>383.0</ele><time>2026-04-25T07:06:39.929Z</time></trkpt><trkpt lat="36.9199267" lon="14.7475367"><ele>382.0</ele><time>2026-04-25T07:06:41.929Z</time></trkpt><trkpt lat="36.9199467" lon="14.7476367"><ele>381.0</ele><time>2026-04-25T07:06:42.929Z</time></trkpt><trkpt lat="36.9199817" lon="14.74774"><ele>380.0</ele><time>2026-04-25T07:06:43.929Z</time></trkpt><trkpt lat="36.92005" lon="14.7478483"><ele>379.0</ele><time>2026-04-25T07:06:44.93Z</time></trkpt><trkpt lat="36.9201217" lon="14.74797"><ele>375.4</ele><time>2026-04-25T07:06:45.93Z</time></trkpt><trkpt lat="36.9201767" lon="14.74808"><ele>371.79999999999995</ele><time>2026-04-25T07:06:46.929Z</time></trkpt><trkpt lat="36.9202267" lon="14.7481967"><ele>368.20000000000005</ele><time>2026-04-25T07:06:47.93Z</time></trkpt><trkpt lat="36.92026" lon="14.748315"><ele>364.6</ele><time>2026-04-25T07:06:48.929Z</time></trkpt><trkpt lat="36.92028" lon="14.7484367"><ele>361.0</ele><time>2026-04-25T07:06:49.93Z</time></trkpt><trkpt lat="36.9202917" lon="14.748565"><ele>357.4</ele><time>2026-04-25T07:06:50.93Z</time></trkpt><trkpt lat="36.9202717" lon="14.7487"><ele>353.8</ele><time>2026-04-25T07:06:51.93Z</time></trkpt><trkpt lat="36.9202417" lon="14.74882"><ele>350.2</ele><time>2026-04-25T07:06:52.929Z</time></trkpt><trkpt lat="36.9202067" lon="14.7489433"><ele>346.59999999999997</ele><time>2026-04-25T07:06:53.93Z</time></trkpt><trkpt lat="36.9201583" lon="14.74906"><ele>343.0</ele><time>2026-04-25T07:06:54.93Z</time></trkpt><trkpt lat="36.9200983" lon="14.74914"><ele>346.0</ele><time>2026-04-25T07:06:55.929Z</time></trkpt><trkpt lat="36.9200183" lon="14.7491983"><ele>349.0</ele><time>2026-04-25T07:06:56.93Z</time></trkpt><trkpt lat="36.9199267" lon="14.7492283"><ele>352.0</ele><time>2026-04-25T07:06:57.929Z</time></trkpt><trkpt lat="36.9198233" lon="14.74922"><ele>355.0</ele><time>2026-04-25T07:06:58.93Z</time></trkpt><trkpt lat="36.9197133" lon="14.7491917"><ele>358.0</ele><time>2026-04-25T07:06:59.93Z</time></trkpt><trkpt lat="36.9195933" lon="14.7491283"><ele>358.0</ele><time>2026-04-25T07:07:00.93Z</time></trkpt><trkpt lat="36.91946" lon="14.749065"><ele>358.0</ele><time>2026-04-25T07:07:01.93Z</time></trkpt><trkpt lat="36.9193217" lon="14.7490133"><ele>358.0</ele><time>2026-04-25T07:07:02.929Z</time></trkpt><trkpt lat="36.9191817" lon="14.7489467"><ele>358.0</ele><time>2026-04-25T07:07:03.93Z</time></trkpt><trkpt lat="36.91904" lon="14.7488933"><ele>356.25</ele><time>2026-04-25T07:07:04.929Z</time></trkpt><trkpt lat="36.9189017" lon="14.7488433"><ele>354.5</ele><time>2026-04-25T07:07:05.93Z</time></trkpt><trkpt lat="36.9187667" lon="14.7488"><ele>352.75</ele><time>2026-04-25T07:07:06.929Z</time></trkpt><trkpt lat="36.9186333" lon="14.7487383"><ele>351.0</ele><time>2026-04-25T07:07:07.93Z</time></trkpt><trkpt lat="36.9184967" lon="14.7486883"><ele>346.75</ele><time>2026-04-25T07:07:08.929Z</time></trkpt><trkpt lat="36.91837" lon="14.7486433"><ele>342.5</ele><time>2026-04-25T07:07:09.93Z</time></trkpt><trkpt lat="36.9182633" lon="14.7485833"><ele>338.25</ele><time>2026-04-25T07:07:10.929Z</time></trkpt><trkpt lat="36.918155" lon="14.7485183"><ele>334.0</ele><time>2026-04-25T07:07:11.93Z</time></trkpt><trkpt lat="36.9180433" lon="14.7484467"><ele>343.25</ele><time>2026-04-25T07:07:12.929Z</time></trkpt><trkpt lat="36.9179383" lon="14.7483783"><ele>352.5</ele><time>2026-04-25T07:07:13.93Z</time></trkpt><trkpt lat="36.91782" lon="14.7483267"><ele>361.75</ele><time>2026-04-25T07:07:14.93Z</time></trkpt><trkpt lat="36.9176967" lon="14.7482567"><ele>371.0</ele><time>2026-04-25T07:07:15.93Z</time></trkpt><trkpt lat="36.91757" lon="14.74819"><ele>363.33333333333337</ele><time>2026-04-25T07:07:16.93Z</time></trkpt><trkpt lat="36.91743" lon="14.7481317"><ele>355.6666666666667</ele><time>2026-04-25T07:07:17.93Z</time></trkpt><trkpt lat="36.9172867" lon="14.748065"><ele>348.0</ele><time>2026-04-25T07:07:18.93Z</time></trkpt><trkpt lat="36.9171317" lon="14.74802"><ele>348.0</ele><time>2026-04-25T07:07:19.93Z</time></trkpt><trkpt lat="36.9169667" lon="14.7479833"><ele>348.0</ele><time>2026-04-25T07:07:20.929Z</time></trkpt><trkpt lat="36.9168117" lon="14.74796"><ele>348.0</ele><time>2026-04-25T07:07:21.93Z</time></trkpt><trkpt lat="36.9166533" lon="14.747935"><ele>341.6666666666667</ele><time>2026-04-25T07:07:22.929Z</time></trkpt><trkpt lat="36.9164917" lon="14.7479"><ele>335.33333333333337</ele><time>2026-04-25T07:07:23.93Z</time></trkpt><trkpt lat="36.91633" lon="14.7478617"><ele>329.0</ele><time>2026-04-25T07:07:24.929Z</time></trkpt><trkpt lat="36.9161667" lon="14.7478167"><ele>329.0</ele><time>2026-04-25T07:07:25.929Z</time></trkpt><trkpt lat="36.9160083" lon="14.7477817"><ele>329.0</ele><time>2026-04-25T07:07:26.93Z</time></trkpt><trkpt lat="36.9158517" lon="14.7477483"><ele>329.0</ele><time>2026-04-25T07:07:27.93Z</time></trkpt><trkpt lat="36.915695" lon="14.74772"><ele>336.0</ele><time>2026-04-25T07:07:28.929Z</time></trkpt><trkpt lat="36.9155483" lon="14.7476967"><ele>343.0</ele><time>2026-04-25T07:07:29.93Z</time></trkpt><trkpt lat="36.9154033" lon="14.7476683"><ele>350.0</ele><time>2026-04-25T07:07:30.93Z</time></trkpt><trkpt lat="36.9152617" lon="14.74764"><ele>357.0</ele><time>2026-04-25T07:07:31.929Z</time></trkpt><trkpt lat="36.9151167" lon="14.7476217"><ele>354.75</ele><time>2026-04-25T07:07:32.929Z</time></trkpt><trkpt lat="36.9149783" lon="14.7476183"><ele>352.5</ele><time>2026-04-25T07:07:33.929Z</time></trkpt><trkpt lat="36.9148517" lon="14.747605"><ele>350.25</ele><time>2026-04-25T07:07:34.929Z</time></trkpt><trkpt lat="36.914715" lon="14.7475833"><ele>348.0</ele><time>2026-04-25T07:07:35.93Z</time></trkpt><trkpt lat="36.914575" lon="14.7475617"><ele>348.0</ele><time>2026-04-25T07:07:36.929Z</time></trkpt><trkpt lat="36.914435" lon="14.7475467"><ele>348.0</ele><time>2026-04-25T07:07:37.929Z</time></trkpt><trkpt lat="36.9143" lon="14.74751"><ele>348.0</ele><time>2026-04-25T07:07:38.93Z</time></trkpt><trkpt lat="36.914175" lon="14.747475"><ele>348.0</ele><time>2026-04-25T07:07:39.929Z</time></trkpt><trkpt lat="36.9140483" lon="14.7474317"><ele>345.0</ele><time>2026-04-25T07:07:40.93Z</time></trkpt><trkpt lat="36.9139317" lon="14.7473917"><ele>342.0</ele><time>2026-04-25T07:07:41.929Z</time></trkpt><trkpt lat="36.9138117" lon="14.7473467"><ele>339.0</ele><time>2026-04-25T07:07:42.929Z</time></trkpt><trkpt lat="36.91371" lon="14.7473033"><ele>336.0</ele><time>2026-04-25T07:07:43.929Z</time></trkpt><trkpt lat="36.91362" lon="14.747265"><ele>333.0</ele><time>2026-04-25T07:07:44.93Z</time></trkpt><trkpt lat="36.9135517" lon="14.74723"><ele>333.0</ele><time>2026-04-25T07:07:45.93Z</time></trkpt><trkpt lat="36.91346" lon="14.7472317"><ele>333.0</ele><time>2026-04-25T07:07:47.929Z</time></trkpt><trkpt lat="36.9134917" lon="14.74735"><ele>333.0</ele><time>2026-04-25T07:07:50.93Z</time></trkpt><trkpt lat="36.9135533" lon="14.7473917"><ele>333.0</ele><time>2026-04-25T07:07:51.93Z</time></trkpt><trkpt lat="36.9136383" lon="14.7474383"><ele>333.0</ele><time>2026-04-25T07:07:52.929Z</time></trkpt><trkpt lat="36.9137317" lon="14.7474883"><ele>333.0</ele><time>2026-04-25T07:07:53.93Z</time></trkpt><trkpt lat="36.9138283" lon="14.7475433"><ele>333.0</ele><time>2026-04-25T07:07:54.929Z</time></trkpt><trkpt lat="36.9139383" lon="14.7476067"><ele>333.0</ele><time>2026-04-25T07:07:55.93Z</time></trkpt><trkpt lat="36.9140583" lon="14.7476667"><ele>333.0</ele><time>2026-04-25T07:07:56.93Z</time></trkpt><trkpt lat="36.9141833" lon="14.747735"><ele>328.25</ele><time>2026-04-25T07:07:57.93Z</time></trkpt><trkpt lat="36.9143067" lon="14.7478033"><ele>323.5</ele><time>2026-04-25T07:07:58.93Z</time></trkpt><trkpt lat="36.91444" lon="14.74786"><ele>318.75</ele><time>2026-04-25T07:07:59.93Z</time></trkpt><trkpt lat="36.9145783" lon="14.7479083"><ele>314.0</ele><time>2026-04-25T07:08:00.93Z</time></trkpt><trkpt lat="36.914725" lon="14.74795"><ele>314.0</ele><time>2026-04-25T07:08:01.929Z</time></trkpt><trkpt lat="36.9148767" lon="14.747995"><ele>314.0</ele><time>2026-04-25T07:08:02.929Z</time></trkpt><trkpt lat="36.91503" lon="14.7480367"><ele>314.0</ele><time>2026-04-25T07:08:03.93Z</time></trkpt><trkpt lat="36.91519" lon="14.748085"><ele>315.6666666666667</ele><time>2026-04-25T07:08:04.929Z</time></trkpt><trkpt lat="36.9153467" lon="14.7481417"><ele>317.3333333333333</ele><time>2026-04-25T07:08:05.929Z</time></trkpt><trkpt lat="36.915505" lon="14.7481933"><ele>319.0</ele><time>2026-04-25T07:08:06.93Z</time></trkpt><trkpt lat="36.91567" lon="14.7482367"><ele>319.0</ele><time>2026-04-25T07:08:07.929Z</time></trkpt><trkpt lat="36.9158433" lon="14.748285"><ele>319.0</ele><time>2026-04-25T07:08:08.929Z</time></trkpt><trkpt lat="36.916015" lon="14.74832"><ele>319.0</ele><time>2026-04-25T07:08:09.93Z</time></trkpt><trkpt lat="36.916185" lon="14.748365"><ele>322.3333333333333</ele><time>2026-04-25T07:08:10.929Z</time></trkpt><trkpt lat="36.9163533" lon="14.7484267"><ele>325.6666666666667</ele><time>2026-04-25T07:08:11.929Z</time></trkpt><trkpt lat="36.91651" lon="14.7485017"><ele>329.0</ele><time>2026-04-25T07:08:12.93Z</time></trkpt><trkpt lat="36.916655" lon="14.74858"><ele>324.6666666666667</ele><time>2026-04-25T07:08:13.929Z</time></trkpt><trkpt lat="36.916805" lon="14.74866"><ele>320.3333333333333</ele><time>2026-04-25T07:08:14.929Z</time></trkpt><trkpt lat="36.9169583" lon="14.748745"><ele>316.0</ele><time>2026-04-25T07:08:15.929Z</time></trkpt><trkpt lat="36.9171083" lon="14.7488317"><ele>316.0</ele><time>2026-04-25T07:08:16.93Z</time></trkpt><trkpt lat="36.9172483" lon="14.7489233"><ele>316.0</ele><time>2026-04-25T07:08:17.93Z</time></trkpt><trkpt lat="36.9173867" lon="14.7490183"><ele>316.0</ele><time>2026-04-25T07:08:18.93Z</time></trkpt><trkpt lat="36.917525" lon="14.7491083"><ele>310.66666666666663</ele><time>2026-04-25T07:08:19.93Z</time></trkpt><trkpt lat="36.917665" lon="14.7492017"><ele>305.3333333333333</ele><time>2026-04-25T07:08:20.929Z</time></trkpt><trkpt lat="36.9178083" lon="14.7493033"><ele>300.0</ele><time>2026-04-25T07:08:21.929Z</time></trkpt><trkpt lat="36.917945" lon="14.7493917"><ele>300.0</ele><time>2026-04-25T07:08:22.929Z</time></trkpt><trkpt lat="36.9180833" lon="14.7494733"><ele>300.0</ele><time>2026-04-25T07:08:23.929Z</time></trkpt><trkpt lat="36.91822" lon="14.749545"><ele>300.0</ele><time>2026-04-25T07:08:24.929Z</time></trkpt><trkpt lat="36.918355" lon="14.749625"><ele>306.0</ele><time>2026-04-25T07:08:25.93Z</time></trkpt><trkpt lat="36.9184917" lon="14.7497083"><ele>312.0</ele><time>2026-04-25T07:08:26.93Z</time></trkpt><trkpt lat="36.91863" lon="14.7497917"><ele>318.0</ele><time>2026-04-25T07:08:27.929Z</time></trkpt><trkpt lat="36.918775" lon="14.74988"><ele>318.0</ele><time>2026-04-25T07:08:28.93Z</time></trkpt><trkpt lat="36.9189117" lon="14.7499683"><ele>318.0</ele><time>2026-04-25T07:08:29.93Z</time></trkpt><trkpt lat="36.919055" lon="14.7500517"><ele>318.0</ele><time>2026-04-25T07:08:30.93Z</time></trkpt><trkpt lat="36.9192" lon="14.7501367"><ele>314.3333333333333</ele><time>2026-04-25T07:08:31.929Z</time></trkpt><trkpt lat="36.919345" lon="14.7502283"><ele>310.66666666666663</ele><time>2026-04-25T07:08:32.929Z</time></trkpt><trkpt lat="36.9194867" lon="14.7503317"><ele>307.0</ele><time>2026-04-25T07:08:33.93Z</time></trkpt><trkpt lat="36.91962" lon="14.7504383"><ele>307.0</ele><time>2026-04-25T07:08:34.929Z</time></trkpt><trkpt lat="36.919745" lon="14.7505467"><ele>307.0</ele><time>2026-04-25T07:08:35.929Z</time></trkpt><trkpt lat="36.9198683" lon="14.7506517"><ele>307.0</ele><time>2026-04-25T07:08:36.93Z</time></trkpt><trkpt lat="36.9199933" lon="14.750745"><ele>307.0</ele><time>2026-04-25T07:08:37.93Z</time></trkpt><trkpt lat="36.9201133" lon="14.750835"><ele>307.75</ele><time>2026-04-25T07:08:38.929Z</time></trkpt><trkpt lat="36.9202333" lon="14.750905"><ele>308.5</ele><time>2026-04-25T07:08:39.93Z</time></trkpt><trkpt lat="36.920345" lon="14.75095"><ele>309.25</ele><time>2026-04-25T07:08:40.93Z</time></trkpt><trkpt lat="36.9204483" lon="14.7509517"><ele>310.0</ele><time>2026-04-25T07:08:41.93Z</time></trkpt><trkpt lat="36.9205683" lon="14.750915"><ele>310.0</ele><time>2026-04-25T07:08:42.929Z</time></trkpt><trkpt lat="36.9206733" lon="14.7508733"><ele>310.0</ele><time>2026-04-25T07:08:43.93Z</time></trkpt><trkpt lat="36.9207783" lon="14.7508367"><ele>310.0</ele><time>2026-04-25T07:08:44.93Z</time></trkpt><trkpt lat="36.9208683" lon="14.7508483"><ele>310.0</ele><time>2026-04-25T07:08:45.93Z</time></trkpt><trkpt lat="36.9209333" lon="14.7509067"><ele>310.0</ele><time>2026-04-25T07:08:46.93Z</time></trkpt><trkpt lat="36.9210033" lon="14.75099"><ele>309.8</ele><time>2026-04-25T07:08:47.93Z</time></trkpt><trkpt lat="36.9210683" lon="14.7510883"><ele>309.6</ele><time>2026-04-25T07:08:48.93Z</time></trkpt><trkpt lat="36.92113" lon="14.7512033"><ele>309.4</ele><time>2026-04-25T07:08:49.93Z</time></trkpt><trkpt lat="36.921195" lon="14.7513217"><ele>309.2</ele><time>2026-04-25T07:08:50.929Z</time></trkpt><trkpt lat="36.9212533" lon="14.75144"><ele>309.0</ele><time>2026-04-25T07:08:51.93Z</time></trkpt><trkpt lat="36.9213167" lon="14.751565"><ele>309.0</ele><time>2026-04-25T07:08:52.93Z</time></trkpt><trkpt lat="36.9214" lon="14.751675"><ele>309.0</ele><time>2026-04-25T07:08:53.929Z</time></trkpt><trkpt lat="36.9215017" lon="14.7517717"><ele>309.0</ele><time>2026-04-25T07:08:54.93Z</time></trkpt><trkpt lat="36.9216167" lon="14.7518383"><ele>309.0</ele><time>2026-04-25T07:08:55.93Z</time></trkpt><trkpt lat="36.92175" lon="14.75189"><ele>306.75</ele><time>2026-04-25T07:08:56.93Z</time></trkpt><trkpt lat="36.9218967" lon="14.7519317"><ele>304.5</ele><time>2026-04-25T07:08:57.929Z</time></trkpt><trkpt lat="36.9220417" lon="14.7519717"><ele>302.25</ele><time>2026-04-25T07:08:58.929Z</time></trkpt><trkpt lat="36.922185" lon="14.7520117"><ele>300.0</ele><time>2026-04-25T07:08:59.929Z</time></trkpt><trkpt lat="36.9223283" lon="14.7520583"><ele>300.0</ele><time>2026-04-25T07:09:00.93Z</time></trkpt><trkpt lat="36.922475" lon="14.75211"><ele>300.0</ele><time>2026-04-25T07:09:01.93Z</time></trkpt><trkpt lat="36.9226233" lon="14.7521633"><ele>300.0</ele><time>2026-04-25T07:09:02.93Z</time></trkpt><trkpt lat="36.9227717" lon="14.75221"><ele>301.25</ele><time>2026-04-25T07:09:03.93Z</time></trkpt><trkpt lat="36.9229133" lon="14.752255"><ele>302.5</ele><time>2026-04-25T07:09:04.93Z</time></trkpt><trkpt lat="36.9230517" lon="14.7522883"><ele>303.75</ele><time>2026-04-25T07:09:05.93Z</time></trkpt><trkpt lat="36.9231917" lon="14.7523033"><ele>305.0</ele><time>2026-04-25T07:09:06.929Z</time></trkpt><trkpt lat="36.923315" lon="14.7522933"><ele>302.25</ele><time>2026-04-25T07:09:07.93Z</time></trkpt><trkpt lat="36.92344" lon="14.7522517"><ele>299.5</ele><time>2026-04-25T07:09:08.93Z</time></trkpt><trkpt lat="36.9235533" lon="14.752185"><ele>296.75</ele><time>2026-04-25T07:09:09.929Z</time></trkpt><trkpt lat="36.923665" lon="14.752095"><ele>294.0</ele><time>2026-04-25T07:09:10.929Z</time></trkpt><trkpt lat="36.92377" lon="14.75199"><ele>294.0</ele><time>2026-04-25T07:09:11.929Z</time></trkpt><trkpt lat="36.9238483" lon="14.75188"><ele>294.0</ele><time>2026-04-25T07:09:12.93Z</time></trkpt><trkpt lat="36.9238817" lon="14.751745"><ele>294.0</ele><time>2026-04-25T07:09:13.929Z</time></trkpt><trkpt lat="36.9238867" lon="14.75159"><ele>294.0</ele><time>2026-04-25T07:09:14.93Z</time></trkpt><trkpt lat="36.923875" lon="14.7514317"><ele>295.5</ele><time>2026-04-25T07:09:15.93Z</time></trkpt><trkpt lat="36.9238433" lon="14.751255"><ele>297.0</ele><time>2026-04-25T07:09:16.93Z</time></trkpt><trkpt lat="36.9237983" lon="14.7510767"><ele>298.5</ele><time>2026-04-25T07:09:17.93Z</time></trkpt><trkpt lat="36.9237567" lon="14.7509"><ele>300.0</ele><time>2026-04-25T07:09:18.93Z</time></trkpt><trkpt lat="36.9237117" lon="14.7507067"><ele>301.0</ele><time>2026-04-25T07:09:19.929Z</time></trkpt><trkpt lat="36.9236783" lon="14.75052"><ele>302.0</ele><time>2026-04-25T07:09:20.929Z</time></trkpt><trkpt lat="36.9236417" lon="14.7503433"><ele>303.0</ele><time>2026-04-25T07:09:21.93Z</time></trkpt><trkpt lat="36.923595" lon="14.7501467"><ele>306.0</ele><time>2026-04-25T07:09:22.929Z</time></trkpt><trkpt lat="36.9235317" lon="14.7499567"><ele>309.0</ele><time>2026-04-25T07:09:23.93Z</time></trkpt><trkpt lat="36.9234633" lon="14.7497683"><ele>312.0</ele><time>2026-04-25T07:09:24.93Z</time></trkpt><trkpt lat="36.9233917" lon="14.749585"><ele>313.0</ele><time>2026-04-25T07:09:25.93Z</time></trkpt><trkpt lat="36.923325" lon="14.7494233"><ele>314.0</ele><time>2026-04-25T07:09:26.93Z</time></trkpt><trkpt lat="36.923255" lon="14.7492667"><ele>315.0</ele><time>2026-04-25T07:09:27.93Z</time></trkpt><trkpt lat="36.9232067" lon="14.7491017"><ele>316.0</ele><time>2026-04-25T07:09:28.93Z</time></trkpt><trkpt lat="36.923155" lon="14.748925"><ele>316.0</ele><time>2026-04-25T07:09:29.93Z</time></trkpt><trkpt lat="36.92312" lon="14.7487417"><ele>316.0</ele><time>2026-04-25T07:09:30.93Z</time></trkpt><trkpt lat="36.9230917" lon="14.7485517"><ele>316.0</ele><time>2026-04-25T07:09:31.929Z</time></trkpt><trkpt lat="36.9230817" lon="14.7483733"><ele>316.0</ele><time>2026-04-25T07:09:32.93Z</time></trkpt><trkpt lat="36.9230717" lon="14.748175"><ele>316.25</ele><time>2026-04-25T07:09:33.93Z</time></trkpt><trkpt lat="36.9230533" lon="14.74799"><ele>316.5</ele><time>2026-04-25T07:09:34.93Z</time></trkpt><trkpt lat="36.9230383" lon="14.7478083"><ele>316.75</ele><time>2026-04-25T07:09:35.929Z</time></trkpt><trkpt lat="36.9230233" lon="14.7476283"><ele>317.0</ele><time>2026-04-25T07:09:36.93Z</time></trkpt><trkpt lat="36.9229983" lon="14.747455"><ele>317.75</ele><time>2026-04-25T07:09:37.93Z</time></trkpt><trkpt lat="36.9229633" lon="14.7472983"><ele>318.5</ele><time>2026-04-25T07:09:38.929Z</time></trkpt><trkpt lat="36.9229217" lon="14.7471317"><ele>319.25</ele><time>2026-04-25T07:09:39.929Z</time></trkpt><trkpt lat="36.92288" lon="14.74698"><ele>320.0</ele><time>2026-04-25T07:09:40.93Z</time></trkpt><trkpt lat="36.9228433" lon="14.7468433"><ele>320.8</ele><time>2026-04-25T07:09:41.93Z</time></trkpt><trkpt lat="36.92281" lon="14.7467117"><ele>321.6</ele><time>2026-04-25T07:09:42.93Z</time></trkpt><trkpt lat="36.9228133" lon="14.7465933"><ele>322.4</ele><time>2026-04-25T07:09:43.929Z</time></trkpt><trkpt lat="36.9228383" lon="14.7464767"><ele>323.2</ele><time>2026-04-25T07:09:44.929Z</time></trkpt><trkpt lat="36.9228933" lon="14.746395"><ele>324.0</ele><time>2026-04-25T07:09:45.929Z</time></trkpt><trkpt lat="36.9229667" lon="14.74634"><ele>324.0</ele><time>2026-04-25T07:09:46.93Z</time></trkpt><trkpt lat="36.9230517" lon="14.74631"><ele>324.0</ele><time>2026-04-25T07:09:47.929Z</time></trkpt><trkpt lat="36.9231433" lon="14.7463183"><ele>324.0</ele><time>2026-04-25T07:09:48.93Z</time></trkpt><trkpt lat="36.9232467" lon="14.746345"><ele>324.0</ele><time>2026-04-25T07:09:49.929Z</time></trkpt><trkpt lat="36.92334" lon="14.7463933"><ele>324.0</ele><time>2026-04-25T07:09:50.929Z</time></trkpt><trkpt lat="36.9234183" lon="14.74647"><ele>330.25</ele><time>2026-04-25T07:09:51.93Z</time></trkpt><trkpt lat="36.9234767" lon="14.74657"><ele>336.5</ele><time>2026-04-25T07:09:52.929Z</time></trkpt><trkpt lat="36.92352" lon="14.7467017"><ele>342.75</ele><time>2026-04-25T07:09:53.93Z</time></trkpt><trkpt lat="36.9235617" lon="14.7468433"><ele>349.0</ele><time>2026-04-25T07:09:54.93Z</time></trkpt><trkpt lat="36.9236067" lon="14.7469867"><ele>349.0</ele><time>2026-04-25T07:09:55.929Z</time></trkpt><trkpt lat="36.9236567" lon="14.7471417"><ele>349.0</ele><time>2026-04-25T07:09:56.93Z</time></trkpt><trkpt lat="36.9237067" lon="14.7473"><ele>349.0</ele><time>2026-04-25T07:09:57.93Z</time></trkpt><trkpt lat="36.9237483" lon="14.7474567"><ele>349.0</ele><time>2026-04-25T07:09:58.929Z</time></trkpt><trkpt lat="36.92379" lon="14.7476133"><ele>346.0</ele><time>2026-04-25T07:09:59.93Z</time></trkpt><trkpt lat="36.9238367" lon="14.7477683"><ele>343.0</ele><time>2026-04-25T07:10:00.93Z</time></trkpt><trkpt lat="36.9238817" lon="14.7479283"><ele>340.0</ele><time>2026-04-25T07:10:01.93Z</time></trkpt><trkpt lat="36.9239267" lon="14.7480917"><ele>337.0</ele><time>2026-04-25T07:10:02.93Z</time></trkpt><trkpt lat="36.9239667" lon="14.74825"><ele>337.0</ele><time>2026-04-25T07:10:03.929Z</time></trkpt><trkpt lat="36.924015" lon="14.7484033"><ele>337.0</ele><time>2026-04-25T07:10:04.929Z</time></trkpt><trkpt lat="36.9240817" lon="14.7485517"><ele>337.0</ele><time>2026-04-25T07:10:05.93Z</time></trkpt><trkpt lat="36.9241567" lon="14.7486933"><ele>337.0</ele><time>2026-04-25T07:10:06.929Z</time></trkpt><trkpt lat="36.92424" lon="14.74883"><ele>343.25</ele><time>2026-04-25T07:10:07.929Z</time></trkpt><trkpt lat="36.92432" lon="14.7489617"><ele>349.5</ele><time>2026-04-25T07:10:08.93Z</time></trkpt><trkpt lat="36.9244" lon="14.7490983"><ele>355.75</ele><time>2026-04-25T07:10:09.93Z</time></trkpt><trkpt lat="36.9244633" lon="14.7492183"><ele>362.0</ele><time>2026-04-25T07:10:10.93Z</time></trkpt><trkpt lat="36.92452" lon="14.7493283"><ele>357.8</ele><time>2026-04-25T07:10:11.93Z</time></trkpt><trkpt lat="36.9245733" lon="14.7494283"><ele>353.6</ele><time>2026-04-25T07:10:12.929Z</time></trkpt><trkpt lat="36.924615" lon="14.7495333"><ele>349.40000000000003</ele><time>2026-04-25T07:10:13.93Z</time></trkpt><trkpt lat="36.9246233" lon="14.7496383"><ele>345.20000000000005</ele><time>2026-04-25T07:10:14.929Z</time></trkpt><trkpt lat="36.924635" lon="14.7497567"><ele>341.0</ele><time>2026-04-25T07:10:15.929Z</time></trkpt><trkpt lat="36.924675" lon="14.749885"><ele>341.0</ele><time>2026-04-25T07:10:16.93Z</time></trkpt><trkpt lat="36.9247183" lon="14.750025"><ele>341.0</ele><time>2026-04-25T07:10:17.93Z</time></trkpt><trkpt lat="36.92477" lon="14.7501683"><ele>341.0</ele><time>2026-04-25T07:10:18.93Z</time></trkpt><trkpt lat="36.9248367" lon="14.7503217"><ele>341.0</ele><time>2026-04-25T07:10:19.93Z</time></trkpt><trkpt lat="36.924905" lon="14.7504683"><ele>339.5</ele><time>2026-04-25T07:10:20.93Z</time></trkpt><trkpt lat="36.924965" lon="14.75063"><ele>338.0</ele><time>2026-04-25T07:10:21.93Z</time></trkpt><trkpt lat="36.92502" lon="14.7507967"><ele>336.5</ele><time>2026-04-25T07:10:22.929Z</time></trkpt><trkpt lat="36.925075" lon="14.750945"><ele>335.0</ele><time>2026-04-25T07:10:23.93Z</time></trkpt><trkpt lat="36.92514" lon="14.751085"><ele>329.75</ele><time>2026-04-25T07:10:24.93Z</time></trkpt><trkpt lat="36.9252067" lon="14.7512133"><ele>324.5</ele><time>2026-04-25T07:10:25.93Z</time></trkpt><trkpt lat="36.9252833" lon="14.7513233"><ele>319.25</ele><time>2026-04-25T07:10:26.93Z</time></trkpt><trkpt lat="36.9253817" lon="14.7514017"><ele>314.0</ele><time>2026-04-25T07:10:27.93Z</time></trkpt><trkpt lat="36.9254867" lon="14.7514283"><ele>314.0</ele><time>2026-04-25T07:10:28.929Z</time></trkpt><trkpt lat="36.9256117" lon="14.7514083"><ele>314.0</ele><time>2026-04-25T07:10:29.929Z</time></trkpt><trkpt lat="36.925745" lon="14.751365"><ele>314.0</ele><time>2026-04-25T07:10:30.93Z</time></trkpt><trkpt lat="36.925875" lon="14.7513183"><ele>314.0</ele><time>2026-04-25T07:10:31.929Z</time></trkpt><trkpt lat="36.9260117" lon="14.7512417"><ele>312.0</ele><time>2026-04-25T07:10:32.93Z</time></trkpt><trkpt lat="36.9261483" lon="14.75118"><ele>310.0</ele><time>2026-04-25T07:10:33.93Z</time></trkpt><trkpt lat="36.9262917" lon="14.75112"><ele>308.0</ele><time>2026-04-25T07:10:34.93Z</time></trkpt><trkpt lat="36.9264233" lon="14.75105"><ele>306.0</ele><time>2026-04-25T07:10:35.93Z</time></trkpt><trkpt lat="36.926555" lon="14.7509917"><ele>307.3333333333333</ele><time>2026-04-25T07:10:36.93Z</time></trkpt><trkpt lat="36.9266983" lon="14.7509283"><ele>308.66666666666663</ele><time>2026-04-25T07:10:37.93Z</time></trkpt><trkpt lat="36.92684" lon="14.7508733"><ele>310.0</ele><time>2026-04-25T07:10:38.93Z</time></trkpt><trkpt lat="36.9269883" lon="14.75081"><ele>310.0</ele><time>2026-04-25T07:10:39.929Z</time></trkpt><trkpt lat="36.927135" lon="14.750745"><ele>310.0</ele><time>2026-04-25T07:10:40.929Z</time></trkpt><trkpt lat="36.9272817" lon="14.75068"><ele>310.0</ele><time>2026-04-25T07:10:41.929Z</time></trkpt><trkpt lat="36.92741" lon="14.7506217"><ele>310.0</ele><time>2026-04-25T07:10:42.93Z</time></trkpt><trkpt lat="36.9275367" lon="14.75056"><ele>308.5</ele><time>2026-04-25T07:10:43.929Z</time></trkpt><trkpt lat="36.9276483" lon="14.7504733"><ele>307.0</ele><time>2026-04-25T07:10:44.929Z</time></trkpt><trkpt lat="36.9277733" lon="14.7503433"><ele>305.5</ele><time>2026-04-25T07:10:45.93Z</time></trkpt><trkpt lat="36.92787" lon="14.7502233"><ele>304.0</ele><time>2026-04-25T07:10:46.929Z</time></trkpt><trkpt lat="36.9279633" lon="14.7501083"><ele>304.0</ele><time>2026-04-25T07:10:47.93Z</time></trkpt><trkpt lat="36.92805" lon="14.74999"><ele>304.0</ele><time>2026-04-25T07:10:48.93Z</time></trkpt><trkpt lat="36.9281217" lon="14.74986"><ele>304.0</ele><time>2026-04-25T07:10:49.93Z</time></trkpt><trkpt lat="36.9281667" lon="14.74971"><ele>304.0</ele><time>2026-04-25T07:10:50.93Z</time></trkpt><trkpt lat="36.9281933" lon="14.7495567"><ele>304.0</ele><time>2026-04-25T07:10:51.93Z</time></trkpt><trkpt lat="36.9282233" lon="14.7494133"><ele>304.0</ele><time>2026-04-25T07:10:52.929Z</time></trkpt><trkpt lat="36.9282567" lon="14.749255"><ele>304.0</ele><time>2026-04-25T07:10:53.93Z</time></trkpt><trkpt lat="36.9282967" lon="14.7491067"><ele>304.0</ele><time>2026-04-25T07:10:54.93Z</time></trkpt><trkpt lat="36.9283667" lon="14.74898"><ele>304.4</ele><time>2026-04-25T07:10:55.93Z</time></trkpt><trkpt lat="36.9284467" lon="14.7488783"><ele>304.79999999999995</ele><time>2026-04-25T07:10:56.93Z</time></trkpt><trkpt lat="36.92854" lon="14.748785"><ele>305.20000000000005</ele><time>2026-04-25T07:10:57.929Z</time></trkpt><trkpt lat="36.9286367" lon="14.7487533"><ele>305.6</ele><time>2026-04-25T07:10:58.929Z</time></trkpt><trkpt lat="36.928725" lon="14.7487583"><ele>306.0</ele><time>2026-04-25T07:10:59.929Z</time></trkpt><trkpt lat="36.9288167" lon="14.74879"><ele>306.0</ele><time>2026-04-25T07:11:00.929Z</time></trkpt><trkpt lat="36.9289217" lon="14.74885"><ele>306.0</ele><time>2026-04-25T07:11:01.929Z</time></trkpt><trkpt lat="36.9290167" lon="14.748905"><ele>306.0</ele><time>2026-04-25T07:11:02.93Z</time></trkpt><trkpt lat="36.9291017" lon="14.7489683"><ele>306.0</ele><time>2026-04-25T07:11:03.93Z</time></trkpt><trkpt lat="36.92917" lon="14.7490467"><ele>306.0</ele><time>2026-04-25T07:11:04.929Z</time></trkpt><trkpt lat="36.9292333" lon="14.7491583"><ele>306.0</ele><time>2026-04-25T07:11:05.93Z</time></trkpt><trkpt lat="36.9292767" lon="14.74928"><ele>306.0</ele><time>2026-04-25T07:11:06.93Z</time></trkpt><trkpt lat="36.929325" lon="14.7494017"><ele>306.0</ele><time>2026-04-25T07:11:07.93Z</time></trkpt><trkpt lat="36.92939" lon="14.749525"><ele>306.0</ele><time>2026-04-25T07:11:08.93Z</time></trkpt><trkpt lat="36.9294783" lon="14.7496433"><ele>306.0</ele><time>2026-04-25T07:11:09.929Z</time></trkpt><trkpt lat="36.9295733" lon="14.7497433"><ele>306.0</ele><time>2026-04-25T07:11:10.93Z</time></trkpt><trkpt lat="36.9296867" lon="14.749835"><ele>306.0</ele><time>2026-04-25T07:11:11.93Z</time></trkpt><trkpt lat="36.9298017" lon="14.7499333"><ele>306.0</ele><time>2026-04-25T07:11:12.929Z</time></trkpt><trkpt lat="36.929925" lon="14.750025"><ele>306.0</ele><time>2026-04-25T07:11:13.93Z</time></trkpt><trkpt lat="36.9300467" lon="14.7501067"><ele>306.0</ele><time>2026-04-25T07:11:14.93Z</time></trkpt><trkpt lat="36.93017" lon="14.75019"><ele>306.0</ele><time>2026-04-25T07:11:15.929Z</time></trkpt><trkpt lat="36.930285" lon="14.7502283"><ele>306.0</ele><time>2026-04-25T07:11:16.929Z</time></trkpt><trkpt lat="36.9303933" lon="14.7502267"><ele>305.0</ele><time>2026-04-25T07:11:17.929Z</time></trkpt><trkpt lat="36.9305017" lon="14.7502217"><ele>304.0</ele><time>2026-04-25T07:11:18.929Z</time></trkpt><trkpt lat="36.9306283" lon="14.7502517"><ele>303.0</ele><time>2026-04-25T07:11:19.93Z</time></trkpt><trkpt lat="36.9307583" lon="14.7503"><ele>302.0</ele><time>2026-04-25T07:11:20.929Z</time></trkpt><trkpt lat="36.9308967" lon="14.7503583"><ele>304.0</ele><time>2026-04-25T07:11:21.93Z</time></trkpt><trkpt lat="36.9310333" lon="14.750415"><ele>306.0</ele><time>2026-04-25T07:11:22.93Z</time></trkpt><trkpt lat="36.9311667" lon="14.7504867"><ele>308.0</ele><time>2026-04-25T07:11:23.929Z</time></trkpt><trkpt lat="36.9312983" lon="14.7505783"><ele>310.0</ele><time>2026-04-25T07:11:24.93Z</time></trkpt><trkpt lat="36.9314267" lon="14.750695"><ele>310.0</ele><time>2026-04-25T07:11:25.929Z</time></trkpt><trkpt lat="36.9315417" lon="14.7508217"><ele>310.0</ele><time>2026-04-25T07:11:26.93Z</time></trkpt><trkpt lat="36.9316533" lon="14.7509467"><ele>310.0</ele><time>2026-04-25T07:11:27.929Z</time></trkpt><trkpt lat="36.9317733" lon="14.7510667"><ele>310.0</ele><time>2026-04-25T07:11:28.93Z</time></trkpt><trkpt lat="36.9318967" lon="14.751175"><ele>310.0</ele><time>2026-04-25T07:11:29.93Z</time></trkpt><trkpt lat="36.932025" lon="14.7512667"><ele>310.0</ele><time>2026-04-25T07:11:30.93Z</time></trkpt><trkpt lat="36.9321617" lon="14.75136"><ele>310.0</ele><time>2026-04-25T07:11:31.929Z</time></trkpt><trkpt lat="36.9322867" lon="14.7514617"><ele>310.0</ele><time>2026-04-25T07:11:32.93Z</time></trkpt><trkpt lat="36.932405" lon="14.7515817"><ele>310.0</ele><time>2026-04-25T07:11:33.93Z</time></trkpt><trkpt lat="36.9325083" lon="14.751715"><ele>310.0</ele><time>2026-04-25T07:11:34.929Z</time></trkpt><trkpt lat="36.9326033" lon="14.751845"><ele>310.0</ele><time>2026-04-25T07:11:35.929Z</time></trkpt><trkpt lat="36.9326967" lon="14.751975"><ele>310.0</ele><time>2026-04-25T07:11:36.93Z</time></trkpt><trkpt lat="36.9327833" lon="14.7520917"><ele>310.0</ele><time>2026-04-25T07:11:37.93Z</time></trkpt><trkpt lat="36.93284" lon="14.7521983"><ele>310.0</ele><time>2026-04-25T07:11:38.929Z</time></trkpt><trkpt lat="36.9328817" lon="14.7523133"><ele>310.0</ele><time>2026-04-25T07:11:39.929Z</time></trkpt><trkpt lat="36.9329117" lon="14.752425"><ele>310.0</ele><time>2026-04-25T07:11:40.93Z</time></trkpt><trkpt lat="36.9329367" lon="14.7525267"><ele>310.0</ele><time>2026-04-25T07:11:41.93Z</time></trkpt><trkpt lat="36.9329917" lon="14.7526167"><ele>310.0</ele><time>2026-04-25T07:11:42.93Z</time></trkpt><trkpt lat="36.93308" lon="14.75267"><ele>308.25</ele><time>2026-04-25T07:11:43.93Z</time></trkpt><trkpt lat="36.9331767" lon="14.752755"><ele>306.5</ele><time>2026-04-25T07:11:44.93Z</time></trkpt><trkpt lat="36.9332783" lon="14.752855"><ele>304.75</ele><time>2026-04-25T07:11:45.93Z</time></trkpt><trkpt lat="36.93338" lon="14.75297"><ele>303.0</ele><time>2026-04-25T07:11:46.929Z</time></trkpt><trkpt lat="36.9334833" lon="14.753085"><ele>303.75</ele><time>2026-04-25T07:11:47.93Z</time></trkpt><trkpt lat="36.933585" lon="14.75321"><ele>304.5</ele><time>2026-04-25T07:11:48.93Z</time></trkpt><trkpt lat="36.9336817" lon="14.7533467"><ele>305.25</ele><time>2026-04-25T07:11:49.929Z</time></trkpt><trkpt lat="36.933785" lon="14.7534817"><ele>306.0</ele><time>2026-04-25T07:11:50.93Z</time></trkpt><trkpt lat="36.93389" lon="14.753615"><ele>306.0</ele><time>2026-04-25T07:11:51.929Z</time></trkpt><trkpt lat="36.933995" lon="14.7537533"><ele>306.0</ele><time>2026-04-25T07:11:52.93Z</time></trkpt><trkpt lat="36.9341" lon="14.7538933"><ele>306.0</ele><time>2026-04-25T07:11:53.929Z</time></trkpt><trkpt lat="36.934205" lon="14.7540317"><ele>305.25</ele><time>2026-04-25T07:11:54.93Z</time></trkpt><trkpt lat="36.934315" lon="14.7541667"><ele>304.5</ele><time>2026-04-25T07:11:55.93Z</time></trkpt><trkpt lat="36.9344233" lon="14.75429"><ele>303.75</ele><time>2026-04-25T07:11:56.93Z</time></trkpt><trkpt lat="36.9345383" lon="14.754405"><ele>303.0</ele><time>2026-04-25T07:11:57.93Z</time></trkpt><trkpt lat="36.9346583" lon="14.75451"><ele>303.0</ele><time>2026-04-25T07:11:58.93Z</time></trkpt><trkpt lat="36.9347833" lon="14.7545983"><ele>303.0</ele><time>2026-04-25T07:11:59.93Z</time></trkpt><trkpt lat="36.9349267" lon="14.7546733"><ele>303.0</ele><time>2026-04-25T07:12:00.929Z</time></trkpt><trkpt lat="36.935075" lon="14.7547483"><ele>308.0</ele><time>2026-04-25T07:12:01.929Z</time></trkpt><trkpt lat="36.9352217" lon="14.75483"><ele>313.0</ele><time>2026-04-25T07:12:02.929Z</time></trkpt><trkpt lat="36.9353667" lon="14.754925"><ele>318.0</ele><time>2026-04-25T07:12:03.929Z</time></trkpt><trkpt lat="36.935515" lon="14.75502"><ele>318.0</ele><time>2026-04-25T07:12:04.93Z</time></trkpt><trkpt lat="36.9356667" lon="14.75512"><ele>318.0</ele><time>2026-04-25T07:12:05.93Z</time></trkpt><trkpt lat="36.9358133" lon="14.7552117"><ele>318.0</ele><time>2026-04-25T07:12:06.93Z</time></trkpt><trkpt lat="36.9359683" lon="14.755305"><ele>316.0</ele><time>2026-04-25T07:12:07.93Z</time></trkpt><trkpt lat="36.9361267" lon="14.7554"><ele>314.0</ele><time>2026-04-25T07:12:08.93Z</time></trkpt><trkpt lat="36.9362733" lon="14.7554817"><ele>312.0</ele><time>2026-04-25T07:12:09.93Z</time></trkpt><trkpt lat="36.936425" lon="14.7555767"><ele>312.0</ele><time>2026-04-25T07:12:10.93Z</time></trkpt><trkpt lat="36.9365767" lon="14.75568"><ele>312.0</ele><time>2026-04-25T07:12:11.929Z</time></trkpt><trkpt lat="36.9367317" lon="14.7557933"><ele>312.0</ele><time>2026-04-25T07:12:12.93Z</time></trkpt><trkpt lat="36.9368867" lon="14.7559083"><ele>309.3333333333333</ele><time>2026-04-25T07:12:13.93Z</time></trkpt><trkpt lat="36.9370517" lon="14.7560133"><ele>306.66666666666663</ele><time>2026-04-25T07:12:14.93Z</time></trkpt><trkpt lat="36.9372133" lon="14.7561183"><ele>304.0</ele><time>2026-04-25T07:12:15.93Z</time></trkpt><trkpt lat="36.9373767" lon="14.7562317"><ele>304.0</ele><time>2026-04-25T07:12:16.93Z</time></trkpt><trkpt lat="36.9375433" lon="14.7563483"><ele>304.0</ele><time>2026-04-25T07:12:17.929Z</time></trkpt><trkpt lat="36.9376917" lon="14.7564533"><ele>304.0</ele><time>2026-04-25T07:12:18.929Z</time></trkpt><trkpt lat="36.9378417" lon="14.756565"><ele>304.3333333333333</ele><time>2026-04-25T07:12:19.929Z</time></trkpt><trkpt lat="36.93798" lon="14.75667"><ele>304.6666666666667</ele><time>2026-04-25T07:12:20.93Z</time></trkpt><trkpt lat="36.9381067" lon="14.7567783"><ele>305.0</ele><time>2026-04-25T07:12:21.93Z</time></trkpt><trkpt lat="36.9382217" lon="14.7568883"><ele>305.0</ele><time>2026-04-25T07:12:22.93Z</time></trkpt><trkpt lat="36.9383433" lon="14.756995"><ele>305.0</ele><time>2026-04-25T07:12:23.929Z</time></trkpt><trkpt lat="36.9384667" lon="14.757095"><ele>305.0</ele><time>2026-04-25T07:12:24.929Z</time></trkpt><trkpt lat="36.9385983" lon="14.7571567"><ele>305.0</ele><time>2026-04-25T07:12:25.93Z</time></trkpt><trkpt lat="36.9387383" lon="14.757195"><ele>305.25</ele><time>2026-04-25T07:12:26.929Z</time></trkpt><trkpt lat="36.9388683" lon="14.75722"><ele>305.5</ele><time>2026-04-25T07:12:27.929Z</time></trkpt><trkpt lat="36.9389983" lon="14.75725"><ele>305.75</ele><time>2026-04-25T07:12:28.929Z</time></trkpt><trkpt lat="36.9391067" lon="14.757285"><ele>306.0</ele><time>2026-04-25T07:12:29.929Z</time></trkpt><trkpt lat="36.9391933" lon="14.7573267"><ele>306.0</ele><time>2026-04-25T07:12:30.93Z</time></trkpt><trkpt lat="36.939255" lon="14.7574"><ele>306.0</ele><time>2026-04-25T07:12:31.929Z</time></trkpt><trkpt lat="36.9392983" lon="14.7574983"><ele>306.0</ele><time>2026-04-25T07:12:32.93Z</time></trkpt><trkpt lat="36.9393433" lon="14.7576033"><ele>306.0</ele><time>2026-04-25T07:12:33.929Z</time></trkpt><trkpt lat="36.9393983" lon="14.75772"><ele>306.0</ele><time>2026-04-25T07:12:34.929Z</time></trkpt><trkpt lat="36.9394483" lon="14.757845"><ele>306.40000000000003</ele><time>2026-04-25T07:12:35.93Z</time></trkpt><trkpt lat="36.939505" lon="14.7579617"><ele>306.8</ele><time>2026-04-25T07:12:36.93Z</time></trkpt><trkpt lat="36.939555" lon="14.7580867"><ele>307.20000000000005</ele><time>2026-04-25T07:12:37.93Z</time></trkpt><trkpt lat="36.9396017" lon="14.7582033"><ele>307.6</ele><time>2026-04-25T07:12:38.929Z</time></trkpt><trkpt lat="36.93966" lon="14.7583017"><ele>308.0</ele><time>2026-04-25T07:12:39.93Z</time></trkpt><trkpt lat="36.9397367" lon="14.7583767"><ele>308.0</ele><time>2026-04-25T07:12:40.93Z</time></trkpt><trkpt lat="36.9398267" lon="14.75845"><ele>308.0</ele><time>2026-04-25T07:12:41.93Z</time></trkpt><trkpt lat="36.9399317" lon="14.7585167"><ele>308.0</ele><time>2026-04-25T07:12:42.93Z</time></trkpt><trkpt lat="36.94002" lon="14.758585"><ele>308.0</ele><time>2026-04-25T07:12:43.929Z</time></trkpt><trkpt lat="36.9401433" lon="14.7586667"><ele>308.5</ele><time>2026-04-25T07:12:44.929Z</time></trkpt><trkpt lat="36.9402567" lon="14.758745"><ele>309.0</ele><time>2026-04-25T07:12:45.93Z</time></trkpt><trkpt lat="36.94037" lon="14.7588183"><ele>309.5</ele><time>2026-04-25T07:12:46.93Z</time></trkpt><trkpt lat="36.94049" lon="14.7589"><ele>310.0</ele><time>2026-04-25T07:12:47.929Z</time></trkpt><trkpt lat="36.940605" lon="14.7589933"><ele>310.0</ele><time>2026-04-25T07:12:48.929Z</time></trkpt><trkpt lat="36.94072" lon="14.7590967"><ele>310.0</ele><time>2026-04-25T07:12:49.929Z</time></trkpt><trkpt lat="36.940835" lon="14.7591933"><ele>310.0</ele><time>2026-04-25T07:12:50.93Z</time></trkpt><trkpt lat="36.940955" lon="14.7592783"><ele>310.0</ele><time>2026-04-25T07:12:51.93Z</time></trkpt><trkpt lat="36.9410683" lon="14.7593583"><ele>309.0</ele><time>2026-04-25T07:12:52.93Z</time></trkpt><trkpt lat="36.941205" lon="14.7594217"><ele>308.0</ele><time>2026-04-25T07:12:53.93Z</time></trkpt><trkpt lat="36.9413383" lon="14.7594567"><ele>307.0</ele><time>2026-04-25T07:12:54.93Z</time></trkpt><trkpt lat="36.941475" lon="14.7594767"><ele>306.0</ele><time>2026-04-25T07:12:55.93Z</time></trkpt><trkpt lat="36.9416083" lon="14.7594983"><ele>306.25</ele><time>2026-04-25T07:12:56.929Z</time></trkpt><trkpt lat="36.94175" lon="14.759515"><ele>306.5</ele><time>2026-04-25T07:12:57.93Z</time></trkpt><trkpt lat="36.9418917" lon="14.7595367"><ele>306.75</ele><time>2026-04-25T07:12:58.93Z</time></trkpt><trkpt lat="36.9420283" lon="14.759555"><ele>307.0</ele><time>2026-04-25T07:12:59.93Z</time></trkpt><trkpt lat="36.942175" lon="14.7595667"><ele>307.0</ele><time>2026-04-25T07:13:00.93Z</time></trkpt><trkpt lat="36.9423233" lon="14.7595833"><ele>307.0</ele><time>2026-04-25T07:13:01.93Z</time></trkpt><trkpt lat="36.9424767" lon="14.7595883"><ele>307.0</ele><time>2026-04-25T07:13:02.929Z</time></trkpt><trkpt lat="36.942635" lon="14.7596067"><ele>307.0</ele><time>2026-04-25T07:13:03.929Z</time></trkpt><trkpt lat="36.9428" lon="14.7596117"><ele>307.0</ele><time>2026-04-25T07:13:04.929Z</time></trkpt><trkpt lat="36.9429583" lon="14.7596017"><ele>307.0</ele><time>2026-04-25T07:13:05.929Z</time></trkpt><trkpt lat="36.9431183" lon="14.7595783"><ele>307.0</ele><time>2026-04-25T07:13:06.93Z</time></trkpt><trkpt lat="36.943275" lon="14.7595483"><ele>307.0</ele><time>2026-04-25T07:13:07.93Z</time></trkpt><trkpt lat="36.9434317" lon="14.7595217"><ele>307.0</ele><time>2026-04-25T07:13:08.93Z</time></trkpt><trkpt lat="36.94359" lon="14.759505"><ele>307.3333333333333</ele><time>2026-04-25T07:13:09.93Z</time></trkpt><trkpt lat="36.9437383" lon="14.7594617"><ele>307.6666666666667</ele><time>2026-04-25T07:13:10.929Z</time></trkpt><trkpt lat="36.9438867" lon="14.7594067"><ele>308.0</ele><time>2026-04-25T07:13:11.93Z</time></trkpt><trkpt lat="36.9440417" lon="14.75935"><ele>311.6666666666667</ele><time>2026-04-25T07:13:12.93Z</time></trkpt><trkpt lat="36.9441867" lon="14.7592983"><ele>315.3333333333333</ele><time>2026-04-25T07:13:13.929Z</time></trkpt><trkpt lat="36.944345" lon="14.759255"><ele>319.0</ele><time>2026-04-25T07:13:14.929Z</time></trkpt><trkpt lat="36.944505" lon="14.759235"><ele>319.0</ele><time>2026-04-25T07:13:15.929Z</time></trkpt><trkpt lat="36.9446733" lon="14.7592133"><ele>319.0</ele><time>2026-04-25T07:13:16.929Z</time></trkpt><trkpt lat="36.9448317" lon="14.7592017"><ele>319.0</ele><time>2026-04-25T07:13:17.93Z</time></trkpt><trkpt lat="36.9449983" lon="14.75919"><ele>317.66666666666663</ele><time>2026-04-25T07:13:18.929Z</time></trkpt><trkpt lat="36.9451733" lon="14.7591717"><ele>316.3333333333333</ele><time>2026-04-25T07:13:19.93Z</time></trkpt><trkpt lat="36.9453367" lon="14.7591617"><ele>315.0</ele><time>2026-04-25T07:13:20.929Z</time></trkpt><trkpt lat="36.9455183" lon="14.75916"><ele>315.0</ele><time>2026-04-25T07:13:21.93Z</time></trkpt><trkpt lat="36.9456883" lon="14.7591417"><ele>315.0</ele><time>2026-04-25T07:13:22.93Z</time></trkpt><trkpt lat="36.94585" lon="14.7591333"><ele>315.0</ele><time>2026-04-25T07:13:23.929Z</time></trkpt><trkpt lat="36.9460117" lon="14.7591267"><ele>314.5</ele><time>2026-04-25T07:13:24.93Z</time></trkpt><trkpt lat="36.9461517" lon="14.7590867"><ele>314.0</ele><time>2026-04-25T07:13:25.929Z</time></trkpt><trkpt lat="36.946275" lon="14.75905"><ele>313.5</ele><time>2026-04-25T07:13:26.93Z</time></trkpt><trkpt lat="36.9464017" lon="14.758995"><ele>313.0</ele><time>2026-04-25T07:13:27.93Z</time></trkpt><trkpt lat="36.9464883" lon="14.7589783"><ele>313.0</ele><time>2026-04-25T07:13:28.929Z</time></trkpt><trkpt lat="36.9465767" lon="14.7589967"><ele>313.0</ele><time>2026-04-25T07:13:29.929Z</time></trkpt><trkpt lat="36.9466567" lon="14.75905"><ele>313.0</ele><time>2026-04-25T07:13:30.93Z</time></trkpt><trkpt lat="36.946745" lon="14.7591167"><ele>313.0</ele><time>2026-04-25T07:13:31.93Z</time></trkpt><trkpt lat="36.9468267" lon="14.7591933"><ele>313.0</ele><time>2026-04-25T07:13:32.93Z</time></trkpt><trkpt lat="36.9468783" lon="14.7593017"><ele>314.5</ele><time>2026-04-25T07:13:33.93Z</time></trkpt><trkpt lat="36.9469117" lon="14.759425"><ele>316.0</ele><time>2026-04-25T07:13:34.93Z</time></trkpt><trkpt lat="36.946945" lon="14.7595583"><ele>317.5</ele><time>2026-04-25T07:13:35.929Z</time></trkpt><trkpt lat="36.9469917" lon="14.7596817"><ele>319.0</ele><time>2026-04-25T07:13:36.93Z</time></trkpt><trkpt lat="36.9470583" lon="14.7598183"><ele>319.0</ele><time>2026-04-25T07:13:37.93Z</time></trkpt><trkpt lat="36.9471417" lon="14.759955"><ele>319.0</ele><time>2026-04-25T07:13:38.93Z</time></trkpt><trkpt lat="36.9471967" lon="14.7600667"><ele>319.0</ele><time>2026-04-25T07:13:39.929Z</time></trkpt><trkpt lat="36.9473167" lon="14.7602033"><ele>319.0</ele><time>2026-04-25T07:13:40.929Z</time></trkpt><trkpt lat="36.9474233" lon="14.7603467"><ele>317.0</ele><time>2026-04-25T07:13:41.93Z</time></trkpt><trkpt lat="36.9475233" lon="14.760495"><ele>315.0</ele><time>2026-04-25T07:13:42.93Z</time></trkpt><trkpt lat="36.94762" lon="14.7606467"><ele>313.0</ele><time>2026-04-25T07:13:43.929Z</time></trkpt><trkpt lat="36.947715" lon="14.7607967"><ele>315.3333333333333</ele><time>2026-04-25T07:13:44.93Z</time></trkpt><trkpt lat="36.9478183" lon="14.76095"><ele>317.6666666666667</ele><time>2026-04-25T07:13:45.93Z</time></trkpt><trkpt lat="36.9479133" lon="14.7611033"><ele>320.0</ele><time>2026-04-25T07:13:46.93Z</time></trkpt><trkpt lat="36.9480217" lon="14.761265"><ele>320.0</ele><time>2026-04-25T07:13:47.929Z</time></trkpt><trkpt lat="36.9481367" lon="14.7614217"><ele>320.0</ele><time>2026-04-25T07:13:48.93Z</time></trkpt><trkpt lat="36.948245" lon="14.7615817"><ele>320.0</ele><time>2026-04-25T07:13:49.929Z</time></trkpt><trkpt lat="36.9483667" lon="14.7617517"><ele>323.0</ele><time>2026-04-25T07:13:50.929Z</time></trkpt><trkpt lat="36.94848" lon="14.761915"><ele>326.0</ele><time>2026-04-25T07:13:51.93Z</time></trkpt><trkpt lat="36.9485983" lon="14.7620717"><ele>329.0</ele><time>2026-04-25T07:13:52.93Z</time></trkpt><trkpt lat="36.9487133" lon="14.7622233"><ele>329.0</ele><time>2026-04-25T07:13:53.93Z</time></trkpt><trkpt lat="36.9488217" lon="14.7623733"><ele>329.0</ele><time>2026-04-25T07:13:54.929Z</time></trkpt><trkpt lat="36.9489183" lon="14.7625233"><ele>329.0</ele><time>2026-04-25T07:13:55.93Z</time></trkpt><trkpt lat="36.9490167" lon="14.76267"><ele>328.75</ele><time>2026-04-25T07:13:56.93Z</time></trkpt><trkpt lat="36.94912" lon="14.7628067"><ele>328.5</ele><time>2026-04-25T07:13:57.929Z</time></trkpt><trkpt lat="36.94922" lon="14.7629417"><ele>328.25</ele><time>2026-04-25T07:13:58.93Z</time></trkpt><trkpt lat="36.949325" lon="14.7630617"><ele>328.0</ele><time>2026-04-25T07:13:59.93Z</time></trkpt><trkpt lat="36.9494517" lon="14.7631583"><ele>328.0</ele><time>2026-04-25T07:14:00.93Z</time></trkpt><trkpt lat="36.9495867" lon="14.7632367"><ele>328.0</ele><time>2026-04-25T07:14:01.93Z</time></trkpt><trkpt lat="36.9497267" lon="14.7633117"><ele>328.0</ele><time>2026-04-25T07:14:02.929Z</time></trkpt><trkpt lat="36.949875" lon="14.7633817"><ele>328.0</ele><time>2026-04-25T07:14:03.93Z</time></trkpt><trkpt lat="36.950025" lon="14.763455"><ele>328.0</ele><time>2026-04-25T07:14:04.929Z</time></trkpt><trkpt lat="36.9501833" lon="14.7635417"><ele>328.0</ele><time>2026-04-25T07:14:05.93Z</time></trkpt><trkpt lat="36.9503367" lon="14.7636283"><ele>324.3333333333333</ele><time>2026-04-25T07:14:06.93Z</time></trkpt><trkpt lat="36.9505033" lon="14.7637083"><ele>320.6666666666667</ele><time>2026-04-25T07:14:07.93Z</time></trkpt><trkpt lat="36.950665" lon="14.763795"><ele>317.0</ele><time>2026-04-25T07:14:08.93Z</time></trkpt><trkpt lat="36.95084" lon="14.7638767"><ele>319.6666666666667</ele><time>2026-04-25T07:14:09.93Z</time></trkpt><trkpt lat="36.951015" lon="14.7639683"><ele>322.3333333333333</ele><time>2026-04-25T07:14:10.93Z</time></trkpt><trkpt lat="36.9511817" lon="14.7640567"><ele>325.0</ele><time>2026-04-25T07:14:11.929Z</time></trkpt><trkpt lat="36.9513517" lon="14.76414"><ele>325.0</ele><time>2026-04-25T07:14:12.928Z</time></trkpt><trkpt lat="36.9515167" lon="14.7642083"><ele>325.0</ele><time>2026-04-25T07:14:13.928Z</time></trkpt><trkpt lat="36.9516867" lon="14.76427"><ele>325.0</ele><time>2026-04-25T07:14:14.929Z</time></trkpt><trkpt lat="36.9518583" lon="14.7643317"><ele>323.0</ele><time>2026-04-25T07:14:15.928Z</time></trkpt><trkpt lat="36.95203" lon="14.76439"><ele>321.0</ele><time>2026-04-25T07:14:16.929Z</time></trkpt><trkpt lat="36.9522" lon="14.7644483"><ele>319.0</ele><time>2026-04-25T07:14:17.928Z</time></trkpt><trkpt lat="36.9523717" lon="14.764495"><ele>320.3333333333333</ele><time>2026-04-25T07:14:18.929Z</time></trkpt><trkpt lat="36.9525417" lon="14.76452"><ele>321.6666666666667</ele><time>2026-04-25T07:14:19.929Z</time></trkpt><trkpt lat="36.9527217" lon="14.76454"><ele>323.0</ele><time>2026-04-25T07:14:20.929Z</time></trkpt><trkpt lat="36.9528883" lon="14.7645633"><ele>323.0</ele><time>2026-04-25T07:14:21.928Z</time></trkpt><trkpt lat="36.9530517" lon="14.7645967"><ele>323.0</ele><time>2026-04-25T07:14:22.929Z</time></trkpt><trkpt lat="36.953195" lon="14.7646467"><ele>323.0</ele><time>2026-04-25T07:14:23.929Z</time></trkpt><trkpt lat="36.953345" lon="14.764715"><ele>327.0</ele><time>2026-04-25T07:14:24.929Z</time></trkpt><trkpt lat="36.953495" lon="14.7647967"><ele>331.0</ele><time>2026-04-25T07:14:25.929Z</time></trkpt><trkpt lat="36.9536417" lon="14.7648767"><ele>335.0</ele><time>2026-04-25T07:14:26.928Z</time></trkpt><trkpt lat="36.9537933" lon="14.7649583"><ele>335.0</ele><time>2026-04-25T07:14:27.928Z</time></trkpt><trkpt lat="36.9539333" lon="14.7650483"><ele>335.0</ele><time>2026-04-25T07:14:28.929Z</time></trkpt><trkpt lat="36.9540683" lon="14.7651533"><ele>335.0</ele><time>2026-04-25T07:14:29.929Z</time></trkpt><trkpt lat="36.9542017" lon="14.765245"><ele>333.0</ele><time>2026-04-25T07:14:30.929Z</time></trkpt><trkpt lat="36.9543317" lon="14.7653467"><ele>331.0</ele><time>2026-04-25T07:14:31.929Z</time></trkpt><trkpt lat="36.954485" lon="14.7654533"><ele>329.0</ele><time>2026-04-25T07:14:32.928Z</time></trkpt><trkpt lat="36.9546333" lon="14.7655683"><ele>329.0</ele><time>2026-04-25T07:14:33.929Z</time></trkpt><trkpt lat="36.9547767" lon="14.765695"><ele>329.0</ele><time>2026-04-25T07:14:34.928Z</time></trkpt><trkpt lat="36.9549217" lon="14.7658183"><ele>329.0</ele><time>2026-04-25T07:14:35.929Z</time></trkpt><trkpt lat="36.9550717" lon="14.76593"><ele>328.6666666666667</ele><time>2026-04-25T07:14:36.929Z</time></trkpt><trkpt lat="36.955235" lon="14.7660333"><ele>328.3333333333333</ele><time>2026-04-25T07:14:37.929Z</time></trkpt><trkpt lat="36.9553933" lon="14.766115"><ele>328.0</ele><time>2026-04-25T07:14:38.928Z</time></trkpt><trkpt lat="36.9555533" lon="14.7662067"><ele>328.0</ele><time>2026-04-25T07:14:39.929Z</time></trkpt><trkpt lat="36.9557117" lon="14.7663083"><ele>328.0</ele><time>2026-04-25T07:14:40.929Z</time></trkpt><trkpt lat="36.9558767" lon="14.7664133"><ele>328.0</ele><time>2026-04-25T07:14:41.928Z</time></trkpt><trkpt lat="36.9560467" lon="14.76652"><ele>331.3333333333333</ele><time>2026-04-25T07:14:42.929Z</time></trkpt><trkpt lat="36.956215" lon="14.766625"><ele>334.6666666666667</ele><time>2026-04-25T07:14:43.928Z</time></trkpt><trkpt lat="36.9563817" lon="14.7667317"><ele>338.0</ele><time>2026-04-25T07:14:44.928Z</time></trkpt><trkpt lat="36.95655" lon="14.7668367"><ele>336.0</ele><time>2026-04-25T07:14:45.929Z</time></trkpt><trkpt lat="36.9567117" lon="14.7669367"><ele>334.0</ele><time>2026-04-25T07:14:46.928Z</time></trkpt><trkpt lat="36.95688" lon="14.76704"><ele>332.0</ele><time>2026-04-25T07:14:47.929Z</time></trkpt><trkpt lat="36.9570483" lon="14.767145"><ele>332.0</ele><time>2026-04-25T07:14:48.929Z</time></trkpt><trkpt lat="36.9572083" lon="14.7672467"><ele>332.0</ele><time>2026-04-25T07:14:49.928Z</time></trkpt><trkpt lat="36.95738" lon="14.76735"><ele>332.0</ele><time>2026-04-25T07:14:50.929Z</time></trkpt><trkpt lat="36.9575517" lon="14.7674567"><ele>331.6666666666667</ele><time>2026-04-25T07:14:51.928Z</time></trkpt><trkpt lat="36.9577183" lon="14.7675633"><ele>331.3333333333333</ele><time>2026-04-25T07:14:52.928Z</time></trkpt><trkpt lat="36.9578767" lon="14.767665"><ele>331.0</ele><time>2026-04-25T07:14:53.929Z</time></trkpt><trkpt lat="36.958035" lon="14.7677667"><ele>331.0</ele><time>2026-04-25T07:14:54.929Z</time></trkpt><trkpt lat="36.9581917" lon="14.7678633"><ele>331.0</ele><time>2026-04-25T07:14:55.929Z</time></trkpt><trkpt lat="36.95834" lon="14.7679583"><ele>331.0</ele><time>2026-04-25T07:14:56.929Z</time></trkpt><trkpt lat="36.95848" lon="14.768055"><ele>333.3333333333333</ele><time>2026-04-25T07:14:57.928Z</time></trkpt><trkpt lat="36.9586183" lon="14.7681683"><ele>335.6666666666667</ele><time>2026-04-25T07:14:58.929Z</time></trkpt><trkpt lat="36.9587417" lon="14.7682933"><ele>338.0</ele><time>2026-04-25T07:14:59.928Z</time></trkpt><trkpt lat="36.9588583" lon="14.7684317"><ele>337.6666666666667</ele><time>2026-04-25T07:15:00.929Z</time></trkpt><trkpt lat="36.9589817" lon="14.7685783"><ele>337.3333333333333</ele><time>2026-04-25T07:15:01.929Z</time></trkpt><trkpt lat="36.9591183" lon="14.76872"><ele>337.0</ele><time>2026-04-25T07:15:02.929Z</time></trkpt><trkpt lat="36.95927" lon="14.7688433"><ele>337.0</ele><time>2026-04-25T07:15:03.929Z</time></trkpt><trkpt lat="36.9594333" lon="14.7689617"><ele>337.0</ele><time>2026-04-25T07:15:04.928Z</time></trkpt><trkpt lat="36.9596" lon="14.769075"><ele>337.0</ele><time>2026-04-25T07:15:05.929Z</time></trkpt><trkpt lat="36.9597583" lon="14.7691783"><ele>337.0</ele><time>2026-04-25T07:15:06.928Z</time></trkpt><trkpt lat="36.9599217" lon="14.7692833"><ele>337.0</ele><time>2026-04-25T07:15:07.929Z</time></trkpt><trkpt lat="36.9600833" lon="14.7693867"><ele>337.0</ele><time>2026-04-25T07:15:08.929Z</time></trkpt><trkpt lat="36.9602483" lon="14.76948"><ele>336.0</ele><time>2026-04-25T07:15:09.928Z</time></trkpt><trkpt lat="36.9604117" lon="14.7695717"><ele>335.0</ele><time>2026-04-25T07:15:10.928Z</time></trkpt><trkpt lat="36.96058" lon="14.7696633"><ele>334.0</ele><time>2026-04-25T07:15:11.929Z</time></trkpt><trkpt lat="36.9607533" lon="14.76975"><ele>335.3333333333333</ele><time>2026-04-25T07:15:12.929Z</time></trkpt><trkpt lat="36.9609283" lon="14.7698383"><ele>336.6666666666667</ele><time>2026-04-25T07:15:13.929Z</time></trkpt><trkpt lat="36.9611033" lon="14.7699283"><ele>338.0</ele><time>2026-04-25T07:15:14.929Z</time></trkpt><trkpt lat="36.96127" lon="14.7700267"><ele>338.0</ele><time>2026-04-25T07:15:15.928Z</time></trkpt><trkpt lat="36.961435" lon="14.7701217"><ele>338.0</ele><time>2026-04-25T07:15:16.929Z</time></trkpt><trkpt lat="36.96161" lon="14.7702133"><ele>338.0</ele><time>2026-04-25T07:15:17.929Z</time></trkpt><trkpt lat="36.9617817" lon="14.7702733"><ele>337.0</ele><time>2026-04-25T07:15:18.928Z</time></trkpt><trkpt lat="36.96195" lon="14.770325"><ele>336.0</ele><time>2026-04-25T07:15:19.929Z</time></trkpt><trkpt lat="36.962115" lon="14.7703967"><ele>335.0</ele><time>2026-04-25T07:15:20.928Z</time></trkpt><trkpt lat="36.9622783" lon="14.7704683"><ele>335.0</ele><time>2026-04-25T07:15:21.928Z</time></trkpt><trkpt lat="36.9624483" lon="14.7705517"><ele>335.0</ele><time>2026-04-25T07:15:22.928Z</time></trkpt><trkpt lat="36.9625917" lon="14.7706283"><ele>335.0</ele><time>2026-04-25T07:15:23.929Z</time></trkpt><trkpt lat="36.9627383" lon="14.77071"><ele>335.25</ele><time>2026-04-25T07:15:24.928Z</time></trkpt><trkpt lat="36.96287" lon="14.770785"><ele>335.5</ele><time>2026-04-25T07:15:25.929Z</time></trkpt><trkpt lat="36.962985" lon="14.770845"><ele>335.75</ele><time>2026-04-25T07:15:26.928Z</time></trkpt><trkpt lat="36.9630733" lon="14.7709033"><ele>336.0</ele><time>2026-04-25T07:15:27.928Z</time></trkpt><trkpt lat="36.9631567" lon="14.7709317"><ele>336.0</ele><time>2026-04-25T07:15:28.929Z</time></trkpt><trkpt lat="36.9632317" lon="14.7709217"><ele>336.0</ele><time>2026-04-25T07:15:29.929Z</time></trkpt><trkpt lat="36.963295" lon="14.770875"><ele>336.0</ele><time>2026-04-25T07:15:30.928Z</time></trkpt><trkpt lat="36.96337" lon="14.7708"><ele>336.0</ele><time>2026-04-25T07:15:31.929Z</time></trkpt><trkpt lat="36.9634617" lon="14.7707017"><ele>336.0</ele><time>2026-04-25T07:15:32.929Z</time></trkpt><trkpt lat="36.9635533" lon="14.77058"><ele>337.3333333333333</ele><time>2026-04-25T07:15:33.929Z</time></trkpt><trkpt lat="36.9636417" lon="14.77043"><ele>338.66666666666663</ele><time>2026-04-25T07:15:34.929Z</time></trkpt><trkpt lat="36.9637217" lon="14.7702733"><ele>340.0</ele><time>2026-04-25T07:15:35.929Z</time></trkpt><trkpt lat="36.9637833" lon="14.7700883"><ele>342.66666666666663</ele><time>2026-04-25T07:15:36.929Z</time></trkpt><trkpt lat="36.96384" lon="14.7699"><ele>345.3333333333333</ele><time>2026-04-25T07:15:37.929Z</time></trkpt><trkpt lat="36.9639067" lon="14.7697167"><ele>348.0</ele><time>2026-04-25T07:15:38.928Z</time></trkpt><trkpt lat="36.96399" lon="14.7695367"><ele>349.0</ele><time>2026-04-25T07:15:39.929Z</time></trkpt><trkpt lat="36.9640733" lon="14.7693517"><ele>350.0</ele><time>2026-04-25T07:15:40.929Z</time></trkpt><trkpt lat="36.9641583" lon="14.76916"><ele>351.0</ele><time>2026-04-25T07:15:41.928Z</time></trkpt><trkpt lat="36.9642433" lon="14.768965"><ele>357.0</ele><time>2026-04-25T07:15:42.928Z</time></trkpt><trkpt lat="36.96433" lon="14.768765"><ele>363.0</ele><time>2026-04-25T07:15:43.929Z</time></trkpt><trkpt lat="36.9644233" lon="14.7685683"><ele>369.0</ele><time>2026-04-25T07:15:44.929Z</time></trkpt><trkpt lat="36.9645217" lon="14.7683733"><ele>370.0</ele><time>2026-04-25T07:15:45.929Z</time></trkpt><trkpt lat="36.9646217" lon="14.7681633"><ele>371.0</ele><time>2026-04-25T07:15:46.928Z</time></trkpt><trkpt lat="36.9647233" lon="14.7679583"><ele>372.0</ele><time>2026-04-25T07:15:47.928Z</time></trkpt><trkpt lat="36.9648167" lon="14.767755"><ele>370.3333333333333</ele><time>2026-04-25T07:15:48.928Z</time></trkpt><trkpt lat="36.964915" lon="14.7675517"><ele>368.66666666666663</ele><time>2026-04-25T07:15:49.928Z</time></trkpt><trkpt lat="36.9650033" lon="14.76735"><ele>367.0</ele><time>2026-04-25T07:15:50.929Z</time></trkpt><trkpt lat="36.9650983" lon="14.7671383"><ele>376.66666666666663</ele><time>2026-04-25T07:15:51.929Z</time></trkpt><trkpt lat="36.9651933" lon="14.7669233"><ele>386.3333333333333</ele><time>2026-04-25T07:15:52.929Z</time></trkpt><trkpt lat="36.9652967" lon="14.7667117"><ele>396.0</ele><time>2026-04-25T07:15:53.929Z</time></trkpt><trkpt lat="36.9653967" lon="14.7665033"><ele>396.0</ele><time>2026-04-25T07:15:54.929Z</time></trkpt><trkpt lat="36.965495" lon="14.76629"><ele>396.0</ele><time>2026-04-25T07:15:55.928Z</time></trkpt><trkpt lat="36.9655933" lon="14.7660867"><ele>396.0</ele><time>2026-04-25T07:15:56.929Z</time></trkpt><trkpt lat="36.96569" lon="14.7658783"><ele>390.6666666666667</ele><time>2026-04-25T07:15:57.928Z</time></trkpt><trkpt lat="36.9657933" lon="14.765665"><ele>385.33333333333337</ele><time>2026-04-25T07:15:58.929Z</time></trkpt><trkpt lat="36.9658917" lon="14.7654617"><ele>380.0</ele><time>2026-04-25T07:15:59.929Z</time></trkpt><trkpt lat="36.9659783" lon="14.765255"><ele>388.33333333333337</ele><time>2026-04-25T07:16:00.929Z</time></trkpt><trkpt lat="36.9660583" lon="14.76505"><ele>396.6666666666667</ele><time>2026-04-25T07:16:01.929Z</time></trkpt><trkpt lat="36.9661333" lon="14.764835"><ele>405.0</ele><time>2026-04-25T07:16:02.929Z</time></trkpt><trkpt lat="36.9662033" lon="14.7646183"><ele>405.0</ele><time>2026-04-25T07:16:03.928Z</time></trkpt><trkpt lat="36.96628" lon="14.76441"><ele>405.0</ele><time>2026-04-25T07:16:04.928Z</time></trkpt><trkpt lat="36.9663633" lon="14.7641967"><ele>405.0</ele><time>2026-04-25T07:16:05.929Z</time></trkpt><trkpt lat="36.9664567" lon="14.7639883"><ele>407.0</ele><time>2026-04-25T07:16:06.929Z</time></trkpt><trkpt lat="36.9665483" lon="14.7637883"><ele>409.0</ele><time>2026-04-25T07:16:07.929Z</time></trkpt><trkpt lat="36.966645" lon="14.7635883"><ele>411.0</ele><time>2026-04-25T07:16:08.928Z</time></trkpt><trkpt lat="36.9667533" lon="14.7633883"><ele>411.0</ele><time>2026-04-25T07:16:09.929Z</time></trkpt><trkpt lat="36.9668667" lon="14.76321"><ele>411.0</ele><time>2026-04-25T07:16:10.929Z</time></trkpt><trkpt lat="36.9669933" lon="14.763035"><ele>411.0</ele><time>2026-04-25T07:16:11.928Z</time></trkpt><trkpt lat="36.9671283" lon="14.762865"><ele>411.0</ele><time>2026-04-25T07:16:12.929Z</time></trkpt><trkpt lat="36.96726" lon="14.7627233"><ele>411.0</ele><time>2026-04-25T07:16:13.929Z</time></trkpt><trkpt lat="36.967395" lon="14.76259"><ele>411.0</ele><time>2026-04-25T07:16:14.928Z</time></trkpt><trkpt lat="36.9675467" lon="14.762465"><ele>408.66666666666663</ele><time>2026-04-25T07:16:15.928Z</time></trkpt><trkpt lat="36.9677067" lon="14.7623533"><ele>406.3333333333333</ele><time>2026-04-25T07:16:16.928Z</time></trkpt><trkpt lat="36.9678767" lon="14.7622583"><ele>404.0</ele><time>2026-04-25T07:16:17.928Z</time></trkpt><trkpt lat="36.96805" lon="14.7621667"><ele>404.0</ele><time>2026-04-25T07:16:18.929Z</time></trkpt><trkpt lat="36.9682267" lon="14.7620917"><ele>404.0</ele><time>2026-04-25T07:16:19.928Z</time></trkpt><trkpt lat="36.968415" lon="14.7620483"><ele>404.0</ele><time>2026-04-25T07:16:20.928Z</time></trkpt><trkpt lat="36.9686117" lon="14.7620167"><ele>402.3333333333333</ele><time>2026-04-25T07:16:21.929Z</time></trkpt><trkpt lat="36.9688017" lon="14.7619917"><ele>400.66666666666663</ele><time>2026-04-25T07:16:22.929Z</time></trkpt><trkpt lat="36.96899" lon="14.7619933"><ele>399.0</ele><time>2026-04-25T07:16:23.929Z</time></trkpt><trkpt lat="36.9691833" lon="14.761995"><ele>397.66666666666663</ele><time>2026-04-25T07:16:24.929Z</time></trkpt><trkpt lat="36.9693717" lon="14.7620283"><ele>396.3333333333333</ele><time>2026-04-25T07:16:25.928Z</time></trkpt><trkpt lat="36.96957" lon="14.762075"><ele>395.0</ele><time>2026-04-25T07:16:26.929Z</time></trkpt><trkpt lat="36.9697517" lon="14.762135"><ele>395.0</ele><time>2026-04-25T07:16:27.928Z</time></trkpt><trkpt lat="36.9699417" lon="14.7622083"><ele>395.0</ele><time>2026-04-25T07:16:28.929Z</time></trkpt><trkpt lat="36.9701217" lon="14.7622933"><ele>395.0</ele><time>2026-04-25T07:16:29.929Z</time></trkpt><trkpt lat="36.9702933" lon="14.7624"><ele>396.0</ele><time>2026-04-25T07:16:30.929Z</time></trkpt><trkpt lat="36.97047" lon="14.7625217"><ele>397.0</ele><time>2026-04-25T07:16:31.928Z</time></trkpt><trkpt lat="36.970645" lon="14.7626517"><ele>398.0</ele><time>2026-04-25T07:16:32.928Z</time></trkpt><trkpt lat="36.97082" lon="14.7627817"><ele>399.3333333333333</ele><time>2026-04-25T07:16:33.928Z</time></trkpt><trkpt lat="36.9709867" lon="14.7629183"><ele>400.66666666666663</ele><time>2026-04-25T07:16:34.928Z</time></trkpt><trkpt lat="36.9711517" lon="14.7630417"><ele>402.0</ele><time>2026-04-25T07:16:35.928Z</time></trkpt><trkpt lat="36.971315" lon="14.7631667"><ele>402.0</ele><time>2026-04-25T07:16:36.928Z</time></trkpt><trkpt lat="36.9714767" lon="14.7632917"><ele>402.0</ele><time>2026-04-25T07:16:37.928Z</time></trkpt><trkpt lat="36.9716433" lon="14.7634183"><ele>402.0</ele><time>2026-04-25T07:16:38.929Z</time></trkpt><trkpt lat="36.9718117" lon="14.7635433"><ele>401.66666666666663</ele><time>2026-04-25T07:16:39.929Z</time></trkpt><trkpt lat="36.9719733" lon="14.7636717"><ele>401.3333333333333</ele><time>2026-04-25T07:16:40.928Z</time></trkpt><trkpt lat="36.97213" lon="14.7637933"><ele>401.0</ele><time>2026-04-25T07:16:41.929Z</time></trkpt><trkpt lat="36.9722733" lon="14.76391"><ele>401.0</ele><time>2026-04-25T07:16:42.929Z</time></trkpt><trkpt lat="36.9724133" lon="14.76402"><ele>401.0</ele><time>2026-04-25T07:16:43.929Z</time></trkpt><trkpt lat="36.9725467" lon="14.764125"><ele>401.0</ele><time>2026-04-25T07:16:44.929Z</time></trkpt><trkpt lat="36.9726667" lon="14.7642167"><ele>399.5</ele><time>2026-04-25T07:16:45.929Z</time></trkpt><trkpt lat="36.9727717" lon="14.764295"><ele>398.0</ele><time>2026-04-25T07:16:46.928Z</time></trkpt><trkpt lat="36.97288" lon="14.7643833"><ele>396.5</ele><time>2026-04-25T07:16:47.929Z</time></trkpt><trkpt lat="36.9729883" lon="14.76448"><ele>395.0</ele><time>2026-04-25T07:16:48.928Z</time></trkpt><trkpt lat="36.973095" lon="14.7645867"><ele>395.0</ele><time>2026-04-25T07:16:49.928Z</time></trkpt><trkpt lat="36.9732067" lon="14.7647133"><ele>395.0</ele><time>2026-04-25T07:16:50.928Z</time></trkpt><trkpt lat="36.97332" lon="14.7648583"><ele>395.0</ele><time>2026-04-25T07:16:51.929Z</time></trkpt><trkpt lat="36.9734433" lon="14.7649917"><ele>392.3333333333333</ele><time>2026-04-25T07:16:52.929Z</time></trkpt><trkpt lat="36.9735733" lon="14.7651367"><ele>389.66666666666663</ele><time>2026-04-25T07:16:53.928Z</time></trkpt><trkpt lat="36.97371" lon="14.76528"><ele>387.0</ele><time>2026-04-25T07:16:54.929Z</time></trkpt><trkpt lat="36.9738417" lon="14.7654267"><ele>385.3333333333333</ele><time>2026-04-25T07:16:55.929Z</time></trkpt><trkpt lat="36.9739767" lon="14.765565"><ele>383.66666666666663</ele><time>2026-04-25T07:16:56.929Z</time></trkpt><trkpt lat="36.9741183" lon="14.7657117"><ele>382.0</ele><time>2026-04-25T07:16:57.928Z</time></trkpt><trkpt lat="36.9742517" lon="14.7658517"><ele>387.0</ele><time>2026-04-25T07:16:58.929Z</time></trkpt><trkpt lat="36.974385" lon="14.765995"><ele>392.0</ele><time>2026-04-25T07:16:59.929Z</time></trkpt><trkpt lat="36.9745217" lon="14.7661433"><ele>397.0</ele><time>2026-04-25T07:17:00.929Z</time></trkpt><trkpt lat="36.9746533" lon="14.76628"><ele>399.0</ele><time>2026-04-25T07:17:01.929Z</time></trkpt><trkpt lat="36.9747883" lon="14.766415"><ele>401.0</ele><time>2026-04-25T07:17:02.929Z</time></trkpt><trkpt lat="36.97493" lon="14.7665567"><ele>403.0</ele><time>2026-04-25T07:17:03.929Z</time></trkpt><trkpt lat="36.9750683" lon="14.7666967"><ele>406.6666666666667</ele><time>2026-04-25T07:17:04.929Z</time></trkpt><trkpt lat="36.9752017" lon="14.7668467"><ele>410.33333333333337</ele><time>2026-04-25T07:17:05.929Z</time></trkpt><trkpt lat="36.9753483" lon="14.766995"><ele>414.0</ele><time>2026-04-25T07:17:06.929Z</time></trkpt><trkpt lat="36.9754883" lon="14.767145"><ele>414.0</ele><time>2026-04-25T07:17:07.928Z</time></trkpt><trkpt lat="36.9756367" lon="14.7672933"><ele>414.0</ele><time>2026-04-25T07:17:08.928Z</time></trkpt><trkpt lat="36.9757733" lon="14.7674417"><ele>414.0</ele><time>2026-04-25T07:17:09.929Z</time></trkpt><trkpt lat="36.975915" lon="14.76759"><ele>414.0</ele><time>2026-04-25T07:17:10.928Z</time></trkpt><trkpt lat="36.9760567" lon="14.7677367"><ele>414.0</ele><time>2026-04-25T07:17:11.929Z</time></trkpt><trkpt lat="36.9761883" lon="14.7678767"><ele>414.0</ele><time>2026-04-25T07:17:12.929Z</time></trkpt><trkpt lat="36.9763117" lon="14.7680133"><ele>414.0</ele><time>2026-04-25T07:17:13.928Z</time></trkpt><trkpt lat="36.976425" lon="14.7681433"><ele>414.0</ele><time>2026-04-25T07:17:14.928Z</time></trkpt><trkpt lat="36.9765367" lon="14.7682667"><ele>414.0</ele><time>2026-04-25T07:17:15.929Z</time></trkpt><trkpt lat="36.9766467" lon="14.7683817"><ele>414.0</ele><time>2026-04-25T07:17:16.929Z</time></trkpt><trkpt lat="36.976755" lon="14.7684833"><ele>412.75</ele><time>2026-04-25T07:17:17.929Z</time></trkpt><trkpt lat="36.97686" lon="14.768575"><ele>411.5</ele><time>2026-04-25T07:17:18.929Z</time></trkpt><trkpt lat="36.9769583" lon="14.7686633"><ele>410.25</ele><time>2026-04-25T07:17:19.929Z</time></trkpt><trkpt lat="36.9770467" lon="14.7687567"><ele>409.0</ele><time>2026-04-25T07:17:20.928Z</time></trkpt><trkpt lat="36.9771267" lon="14.7688517"><ele>409.00000000000006</ele><time>2026-04-25T07:17:21.929Z</time></trkpt><trkpt lat="36.9772033" lon="14.7689383"><ele>409.0</ele><time>2026-04-25T07:17:22.929Z</time></trkpt><trkpt lat="36.97728" lon="14.7690117"><ele>409.0</ele><time>2026-04-25T07:17:23.929Z</time></trkpt><trkpt lat="36.9773417" lon="14.7690817"><ele>409.0</ele><time>2026-04-25T07:17:24.929Z</time></trkpt><trkpt lat="36.9774" lon="14.769135"><ele>409.00000000000006</ele><time>2026-04-25T07:17:25.929Z</time></trkpt><trkpt lat="36.977445" lon="14.7691967"><ele>409.0</ele><time>2026-04-25T07:17:26.928Z</time></trkpt><trkpt lat="36.977515" lon="14.7692783"><ele>409.6666666666667</ele><time>2026-04-25T07:17:28.929Z</time></trkpt><trkpt lat="36.9775717" lon="14.7693433"><ele>410.33333333333337</ele><time>2026-04-25T07:17:31.928Z</time></trkpt><trkpt lat="36.9776317" lon="14.7694117"><ele>411.0</ele><time>2026-04-25T07:17:50.929Z</time></trkpt><trkpt lat="36.9776833" lon="14.7694733"><ele>411.66666666666663</ele><time>2026-04-25T07:17:51.929Z</time></trkpt><trkpt lat="36.97774" lon="14.769545"><ele>412.3333333333333</ele><time>2026-04-25T07:17:52.929Z</time></trkpt><trkpt lat="36.9777983" lon="14.76963"><ele>413.0</ele><time>2026-04-25T07:17:53.929Z</time></trkpt><trkpt lat="36.97786" lon="14.7697133"><ele>410.4</ele><time>2026-04-25T07:17:54.929Z</time></trkpt><trkpt lat="36.97793" lon="14.7697983"><ele>407.79999999999995</ele><time>2026-04-25T07:17:55.928Z</time></trkpt><trkpt lat="36.9779983" lon="14.7699"><ele>405.2</ele><time>2026-04-25T07:17:56.929Z</time></trkpt><trkpt lat="36.9780733" lon="14.77"><ele>402.6</ele><time>2026-04-25T07:17:57.928Z</time></trkpt><trkpt lat="36.9781533" lon="14.770105"><ele>400.0</ele><time>2026-04-25T07:17:58.928Z</time></trkpt><trkpt lat="36.978235" lon="14.7702167"><ele>397.75</ele><time>2026-04-25T07:17:59.929Z</time></trkpt><trkpt lat="36.9783167" lon="14.7703233"><ele>395.5</ele><time>2026-04-25T07:18:00.929Z</time></trkpt><trkpt lat="36.9783917" lon="14.7704433"><ele>393.25</ele><time>2026-04-25T07:18:01.929Z</time></trkpt><trkpt lat="36.9784683" lon="14.7705767"><ele>391.0</ele><time>2026-04-25T07:18:02.929Z</time></trkpt><trkpt lat="36.9785467" lon="14.7707083"><ele>391.25</ele><time>2026-04-25T07:18:03.929Z</time></trkpt><trkpt lat="36.9786317" lon="14.7708383"><ele>391.5</ele><time>2026-04-25T07:18:04.929Z</time></trkpt><trkpt lat="36.978715" lon="14.770975"><ele>391.75</ele><time>2026-04-25T07:18:05.929Z</time></trkpt><trkpt lat="36.9787983" lon="14.7711183"><ele>392.0</ele><time>2026-04-25T07:18:06.929Z</time></trkpt><trkpt lat="36.9788833" lon="14.7712633"><ele>392.0</ele><time>2026-04-25T07:18:07.929Z</time></trkpt><trkpt lat="36.978965" lon="14.7714133"><ele>392.0</ele><time>2026-04-25T07:18:08.928Z</time></trkpt><trkpt lat="36.9790533" lon="14.771565"><ele>392.0</ele><time>2026-04-25T07:18:09.929Z</time></trkpt><trkpt lat="36.979145" lon="14.7717167"><ele>392.0</ele><time>2026-04-25T07:18:10.929Z</time></trkpt><trkpt lat="36.97924" lon="14.7718683"><ele>398.3333333333333</ele><time>2026-04-25T07:18:11.929Z</time></trkpt><trkpt lat="36.9793367" lon="14.77201"><ele>404.66666666666663</ele><time>2026-04-25T07:18:12.929Z</time></trkpt><trkpt lat="36.97943" lon="14.772165"><ele>411.0</ele><time>2026-04-25T07:18:13.929Z</time></trkpt><trkpt lat="36.979525" lon="14.77232"><ele>411.0</ele><time>2026-04-25T07:18:14.929Z</time></trkpt><trkpt lat="36.9796233" lon="14.7724783"><ele>411.0</ele><time>2026-04-25T07:18:15.928Z</time></trkpt><trkpt lat="36.97973" lon="14.7726333"><ele>411.0</ele><time>2026-04-25T07:18:16.929Z</time></trkpt><trkpt lat="36.9798467" lon="14.77278"><ele>407.66666666666663</ele><time>2026-04-25T07:18:17.929Z</time></trkpt><trkpt lat="36.97998" lon="14.77291"><ele>404.3333333333333</ele><time>2026-04-25T07:18:18.929Z</time></trkpt><trkpt lat="36.9801117" lon="14.7730467"><ele>401.0</ele><time>2026-04-25T07:18:19.929Z</time></trkpt><trkpt lat="36.98026" lon="14.7731567"><ele>401.0</ele><time>2026-04-25T07:18:20.929Z</time></trkpt><trkpt lat="36.9804133" lon="14.7732633"><ele>401.0</ele><time>2026-04-25T07:18:21.929Z</time></trkpt><trkpt lat="36.9805683" lon="14.7733433"><ele>401.0</ele><time>2026-04-25T07:18:22.929Z</time></trkpt><trkpt lat="36.9807317" lon="14.77343"><ele>402.3333333333333</ele><time>2026-04-25T07:18:23.928Z</time></trkpt><trkpt lat="36.9809017" lon="14.773495"><ele>403.66666666666663</ele><time>2026-04-25T07:18:24.929Z</time></trkpt><trkpt lat="36.9810667" lon="14.77356"><ele>405.0</ele><time>2026-04-25T07:18:25.928Z</time></trkpt><trkpt lat="36.9812383" lon="14.77362"><ele>405.0</ele><time>2026-04-25T07:18:26.928Z</time></trkpt><trkpt lat="36.9814067" lon="14.7736967"><ele>405.0</ele><time>2026-04-25T07:18:27.929Z</time></trkpt><trkpt lat="36.98155" lon="14.773795"><ele>405.0</ele><time>2026-04-25T07:18:28.928Z</time></trkpt><trkpt lat="36.98168" lon="14.7739233"><ele>405.0</ele><time>2026-04-25T07:18:29.929Z</time></trkpt><trkpt lat="36.9818067" lon="14.7740733"><ele>405.0</ele><time>2026-04-25T07:18:30.928Z</time></trkpt><trkpt lat="36.9819283" lon="14.774225"><ele>405.0</ele><time>2026-04-25T07:18:31.928Z</time></trkpt><trkpt lat="36.98205" lon="14.7743667"><ele>405.0</ele><time>2026-04-25T07:18:32.929Z</time></trkpt><trkpt lat="36.98218" lon="14.7745017"><ele>405.0</ele><time>2026-04-25T07:18:33.929Z</time></trkpt><trkpt lat="36.982305" lon="14.7746367"><ele>405.0</ele><time>2026-04-25T07:18:34.929Z</time></trkpt><trkpt lat="36.9824383" lon="14.7747767"><ele>402.66666666666663</ele><time>2026-04-25T07:18:35.928Z</time></trkpt><trkpt lat="36.9825733" lon="14.7749117"><ele>400.3333333333333</ele><time>2026-04-25T07:18:36.929Z</time></trkpt><trkpt lat="36.98271" lon="14.77505"><ele>398.0</ele><time>2026-04-25T07:18:37.929Z</time></trkpt><trkpt lat="36.9828567" lon="14.775185"><ele>399.0</ele><time>2026-04-25T07:18:38.929Z</time></trkpt><trkpt lat="36.98301" lon="14.7753217"><ele>400.0</ele><time>2026-04-25T07:18:39.929Z</time></trkpt><trkpt lat="36.98317" lon="14.775445"><ele>401.0</ele><time>2026-04-25T07:18:40.928Z</time></trkpt><trkpt lat="36.9833283" lon="14.775575"><ele>397.66666666666663</ele><time>2026-04-25T07:18:41.929Z</time></trkpt><trkpt lat="36.9834883" lon="14.7757067"><ele>394.33333333333337</ele><time>2026-04-25T07:18:42.929Z</time></trkpt><trkpt lat="36.9836467" lon="14.7758433"><ele>391.0</ele><time>2026-04-25T07:18:43.929Z</time></trkpt><trkpt lat="36.9838167" lon="14.77599"><ele>390.6666666666667</ele><time>2026-04-25T07:18:44.929Z</time></trkpt><trkpt lat="36.9839817" lon="14.7761367"><ele>390.33333333333337</ele><time>2026-04-25T07:18:45.929Z</time></trkpt><trkpt lat="36.9841467" lon="14.7762783"><ele>390.0</ele><time>2026-04-25T07:18:46.928Z</time></trkpt><trkpt lat="36.9843133" lon="14.7764217"><ele>391.0</ele><time>2026-04-25T07:18:47.929Z</time></trkpt><trkpt lat="36.9844717" lon="14.7765567"><ele>392.0</ele><time>2026-04-25T07:18:48.929Z</time></trkpt><trkpt lat="36.9846367" lon="14.776695"><ele>393.0</ele><time>2026-04-25T07:18:49.928Z</time></trkpt><trkpt lat="36.9847983" lon="14.7768233"><ele>395.0</ele><time>2026-04-25T07:18:50.928Z</time></trkpt><trkpt lat="36.98496" lon="14.7769467"><ele>397.0</ele><time>2026-04-25T07:18:51.928Z</time></trkpt><trkpt lat="36.9851217" lon="14.7770583"><ele>399.0</ele><time>2026-04-25T07:18:52.928Z</time></trkpt><trkpt lat="36.985285" lon="14.77716"><ele>399.0</ele><time>2026-04-25T07:18:53.929Z</time></trkpt><trkpt lat="36.9854433" lon="14.7772533"><ele>399.0</ele><time>2026-04-25T07:18:54.929Z</time></trkpt><trkpt lat="36.9856033" lon="14.7773583"><ele>399.0</ele><time>2026-04-25T07:18:55.928Z</time></trkpt><trkpt lat="36.98575" lon="14.77748"><ele>397.66666666666663</ele><time>2026-04-25T07:18:56.928Z</time></trkpt><trkpt lat="36.98589" lon="14.7776133"><ele>396.3333333333333</ele><time>2026-04-25T07:18:57.929Z</time></trkpt><trkpt lat="36.9860333" lon="14.7777567"><ele>395.0</ele><time>2026-04-25T07:18:58.929Z</time></trkpt><trkpt lat="36.986175" lon="14.777895"><ele>393.0</ele><time>2026-04-25T07:18:59.929Z</time></trkpt><trkpt lat="36.9863267" lon="14.7780283"><ele>391.0</ele><time>2026-04-25T07:19:00.929Z</time></trkpt><trkpt lat="36.9864917" lon="14.7781433"><ele>389.0</ele><time>2026-04-25T07:19:01.928Z</time></trkpt><trkpt lat="36.9866617" lon="14.778245"><ele>386.66666666666663</ele><time>2026-04-25T07:19:02.929Z</time></trkpt><trkpt lat="36.986845" lon="14.7783317"><ele>384.3333333333333</ele><time>2026-04-25T07:19:03.928Z</time></trkpt><trkpt lat="36.98703" lon="14.7783817"><ele>382.0</ele><time>2026-04-25T07:19:04.928Z</time></trkpt><trkpt lat="36.9872217" lon="14.7783967"><ele>382.0</ele><time>2026-04-25T07:19:05.929Z</time></trkpt><trkpt lat="36.9874083" lon="14.778385"><ele>382.0</ele><time>2026-04-25T07:19:06.928Z</time></trkpt><trkpt lat="36.9876" lon="14.7783783"><ele>382.0</ele><time>2026-04-25T07:19:07.928Z</time></trkpt><trkpt lat="36.9877917" lon="14.7783767"><ele>383.66666666666663</ele><time>2026-04-25T07:19:08.929Z</time></trkpt><trkpt lat="36.9879817" lon="14.77837"><ele>385.3333333333333</ele><time>2026-04-25T07:19:09.929Z</time></trkpt><trkpt lat="36.9881733" lon="14.77836"><ele>387.0</ele><time>2026-04-25T07:19:10.929Z</time></trkpt><trkpt lat="36.9883717" lon="14.7783567"><ele>388.66666666666663</ele><time>2026-04-25T07:19:11.929Z</time></trkpt><trkpt lat="36.988565" lon="14.7783433"><ele>390.3333333333333</ele><time>2026-04-25T07:19:12.929Z</time></trkpt><trkpt lat="36.9887567" lon="14.7783317"><ele>392.0</ele><time>2026-04-25T07:19:13.928Z</time></trkpt><trkpt lat="36.98894" lon="14.7782967"><ele>392.0</ele><time>2026-04-25T07:19:14.928Z</time></trkpt><trkpt lat="36.9891183" lon="14.7782317"><ele>392.0</ele><time>2026-04-25T07:19:15.929Z</time></trkpt><trkpt lat="36.9892833" lon="14.77816"><ele>392.0</ele><time>2026-04-25T07:19:16.929Z</time></trkpt><trkpt lat="36.98944" lon="14.7780733"><ele>390.0</ele><time>2026-04-25T07:19:17.929Z</time></trkpt><trkpt lat="36.9895967" lon="14.7779633"><ele>388.0</ele><time>2026-04-25T07:19:18.928Z</time></trkpt><trkpt lat="36.98975" lon="14.77783"><ele>386.0</ele><time>2026-04-25T07:19:19.929Z</time></trkpt><trkpt lat="36.9898933" lon="14.7776833"><ele>385.3333333333333</ele><time>2026-04-25T07:19:20.929Z</time></trkpt><trkpt lat="36.990035" lon="14.777535"><ele>384.66666666666663</ele><time>2026-04-25T07:19:21.929Z</time></trkpt><trkpt lat="36.9901667" lon="14.7773833"><ele>384.0</ele><time>2026-04-25T07:19:22.928Z</time></trkpt><trkpt lat="36.9903067" lon="14.7772317"><ele>384.0</ele><time>2026-04-25T07:19:23.929Z</time></trkpt><trkpt lat="36.9904433" lon="14.7770833"><ele>384.0</ele><time>2026-04-25T07:19:24.929Z</time></trkpt><trkpt lat="36.9905883" lon="14.77694"><ele>384.0</ele><time>2026-04-25T07:19:25.929Z</time></trkpt><trkpt lat="36.9907417" lon="14.7767967"><ele>385.33333333333337</ele><time>2026-04-25T07:19:26.929Z</time></trkpt><trkpt lat="36.9908933" lon="14.77667"><ele>386.6666666666667</ele><time>2026-04-25T07:19:27.928Z</time></trkpt><trkpt lat="36.9910483" lon="14.7765533"><ele>388.0</ele><time>2026-04-25T07:19:28.929Z</time></trkpt><trkpt lat="36.9912167" lon="14.7764583"><ele>388.0</ele><time>2026-04-25T07:19:29.928Z</time></trkpt><trkpt lat="36.9913867" lon="14.7763567"><ele>388.0</ele><time>2026-04-25T07:19:30.928Z</time></trkpt><trkpt lat="36.9915633" lon="14.77627"><ele>388.0</ele><time>2026-04-25T07:19:31.929Z</time></trkpt><trkpt lat="36.9917533" lon="14.7761983"><ele>387.0</ele><time>2026-04-25T07:19:32.928Z</time></trkpt><trkpt lat="36.9919483" lon="14.7761533"><ele>386.0</ele><time>2026-04-25T07:19:33.928Z</time></trkpt><trkpt lat="36.99214" lon="14.7761417"><ele>385.0</ele><time>2026-04-25T07:19:34.929Z</time></trkpt><trkpt lat="36.9923467" lon="14.7761383"><ele>385.33333333333337</ele><time>2026-04-25T07:19:35.929Z</time></trkpt><trkpt lat="36.9925567" lon="14.7761483"><ele>385.66666666666663</ele><time>2026-04-25T07:19:36.929Z</time></trkpt><trkpt lat="36.9927617" lon="14.7761667"><ele>386.0</ele><time>2026-04-25T07:19:37.929Z</time></trkpt><trkpt lat="36.99297" lon="14.7761867"><ele>386.0</ele><time>2026-04-25T07:19:38.928Z</time></trkpt><trkpt lat="36.9931767" lon="14.7761933"><ele>386.0</ele><time>2026-04-25T07:19:39.929Z</time></trkpt><trkpt lat="36.9933883" lon="14.7762083"><ele>386.0</ele><time>2026-04-25T07:19:40.928Z</time></trkpt><trkpt lat="36.9936017" lon="14.77622"><ele>386.3333333333333</ele><time>2026-04-25T07:19:41.929Z</time></trkpt><trkpt lat="36.9938117" lon="14.7762333"><ele>386.66666666666663</ele><time>2026-04-25T07:19:42.928Z</time></trkpt><trkpt lat="36.9940217" lon="14.7762417"><ele>387.0</ele><time>2026-04-25T07:19:43.928Z</time></trkpt><trkpt lat="36.994225" lon="14.7762517"><ele>387.33333333333337</ele><time>2026-04-25T07:19:44.929Z</time></trkpt><trkpt lat="36.9944283" lon="14.7762633"><ele>387.6666666666667</ele><time>2026-04-25T07:19:45.929Z</time></trkpt><trkpt lat="36.9946317" lon="14.776285"><ele>388.0</ele><time>2026-04-25T07:19:46.929Z</time></trkpt><trkpt lat="36.9948417" lon="14.7763017"><ele>387.6666666666667</ele><time>2026-04-25T07:19:47.928Z</time></trkpt><trkpt lat="36.99504" lon="14.7763167"><ele>387.33333333333337</ele><time>2026-04-25T07:19:48.928Z</time></trkpt><trkpt lat="36.99524" lon="14.7763267"><ele>387.0</ele><time>2026-04-25T07:19:49.929Z</time></trkpt><trkpt lat="36.9954333" lon="14.7763367"><ele>387.0</ele><time>2026-04-25T07:19:50.929Z</time></trkpt><trkpt lat="36.9956317" lon="14.7763533"><ele>387.0</ele><time>2026-04-25T07:19:51.928Z</time></trkpt><trkpt lat="36.9958283" lon="14.7763733"><ele>387.0</ele><time>2026-04-25T07:19:52.929Z</time></trkpt><trkpt lat="36.99603" lon="14.7764167"><ele>388.33333333333337</ele><time>2026-04-25T07:19:53.928Z</time></trkpt><trkpt lat="36.9962217" lon="14.77647"><ele>389.6666666666667</ele><time>2026-04-25T07:19:54.929Z</time></trkpt><trkpt lat="36.996405" lon="14.77654"><ele>391.0</ele><time>2026-04-25T07:19:55.929Z</time></trkpt><trkpt lat="36.9965933" lon="14.7766183"><ele>391.0</ele><time>2026-04-25T07:19:56.929Z</time></trkpt><trkpt lat="36.9967717" lon="14.7767117"><ele>391.0</ele><time>2026-04-25T07:19:57.929Z</time></trkpt><trkpt lat="36.996945" lon="14.776825"><ele>391.0</ele><time>2026-04-25T07:19:58.929Z</time></trkpt><trkpt lat="36.9971067" lon="14.7769633"><ele>391.0</ele><time>2026-04-25T07:19:59.928Z</time></trkpt><trkpt lat="36.99726" lon="14.7771033"><ele>391.0</ele><time>2026-04-25T07:20:00.929Z</time></trkpt><trkpt lat="36.997405" lon="14.7772667"><ele>391.0</ele><time>2026-04-25T07:20:01.928Z</time></trkpt><trkpt lat="36.9975367" lon="14.7774467"><ele>391.0</ele><time>2026-04-25T07:20:02.929Z</time></trkpt><trkpt lat="36.9976717" lon="14.7776367"><ele>391.0</ele><time>2026-04-25T07:20:03.928Z</time></trkpt><trkpt lat="36.99779" lon="14.7778233"><ele>391.0</ele><time>2026-04-25T07:20:04.929Z</time></trkpt><trkpt lat="36.9979083" lon="14.7780083"><ele>391.33333333333337</ele><time>2026-04-25T07:20:05.929Z</time></trkpt><trkpt lat="36.99803" lon="14.7782017"><ele>391.66666666666663</ele><time>2026-04-25T07:20:06.928Z</time></trkpt><trkpt lat="36.9981533" lon="14.7783883"><ele>392.0</ele><time>2026-04-25T07:20:07.928Z</time></trkpt><trkpt lat="36.9982767" lon="14.7785817"><ele>392.66666666666663</ele><time>2026-04-25T07:20:08.928Z</time></trkpt><trkpt lat="36.9984017" lon="14.778775"><ele>393.33333333333337</ele><time>2026-04-25T07:20:09.929Z</time></trkpt><trkpt lat="36.9985217" lon="14.7789633"><ele>394.0</ele><time>2026-04-25T07:20:10.929Z</time></trkpt><trkpt lat="36.9986383" lon="14.779135"><ele>394.0</ele><time>2026-04-25T07:20:11.928Z</time></trkpt><trkpt lat="36.9987633" lon="14.7792767"><ele>394.0</ele><time>2026-04-25T07:20:12.929Z</time></trkpt><trkpt lat="36.998915" lon="14.779385"><ele>394.0</ele><time>2026-04-25T07:20:13.929Z</time></trkpt><trkpt lat="36.9990833" lon="14.7794867"><ele>396.33333333333337</ele><time>2026-04-25T07:20:14.929Z</time></trkpt><trkpt lat="36.99925" lon="14.7795733"><ele>398.66666666666663</ele><time>2026-04-25T07:20:15.929Z</time></trkpt><trkpt lat="36.9994283" lon="14.7796633"><ele>401.0</ele><time>2026-04-25T07:20:16.929Z</time></trkpt><trkpt lat="36.99959" lon="14.7797533"><ele>401.0</ele><time>2026-04-25T07:20:17.928Z</time></trkpt><trkpt lat="36.99974" lon="14.77985"><ele>401.0</ele><time>2026-04-25T07:20:18.929Z</time></trkpt><trkpt lat="36.99988" lon="14.779955"><ele>401.0</ele><time>2026-04-25T07:20:19.929Z</time></trkpt><trkpt lat="37.0000167" lon="14.7800717"><ele>408.3333333333333</ele><time>2026-04-25T07:20:20.929Z</time></trkpt><trkpt lat="37.0001433" lon="14.7802183"><ele>415.66666666666663</ele><time>2026-04-25T07:20:21.928Z</time></trkpt><trkpt lat="37.00028" lon="14.78036"><ele>423.0</ele><time>2026-04-25T07:20:22.928Z</time></trkpt><trkpt lat="37.0004417" lon="14.7804783"><ele>423.0</ele><time>2026-04-25T07:20:23.929Z</time></trkpt><trkpt lat="37.0006067" lon="14.7805833"><ele>423.0</ele><time>2026-04-25T07:20:24.928Z</time></trkpt><trkpt lat="37.0007783" lon="14.780685"><ele>423.0</ele><time>2026-04-25T07:20:25.929Z</time></trkpt><trkpt lat="37.0009467" lon="14.7807683"><ele>417.0</ele><time>2026-04-25T07:20:26.928Z</time></trkpt><trkpt lat="37.0011167" lon="14.7808317"><ele>411.0</ele><time>2026-04-25T07:20:27.929Z</time></trkpt><trkpt lat="37.0012917" lon="14.7808867"><ele>405.0</ele><time>2026-04-25T07:20:28.928Z</time></trkpt><trkpt lat="37.0014533" lon="14.7809383"><ele>409.0</ele><time>2026-04-25T07:20:29.929Z</time></trkpt><trkpt lat="37.001605" lon="14.7810167"><ele>413.0</ele><time>2026-04-25T07:20:30.928Z</time></trkpt><trkpt lat="37.0017483" lon="14.7811083"><ele>417.0</ele><time>2026-04-25T07:20:31.929Z</time></trkpt><trkpt lat="37.0018767" lon="14.78122"><ele>417.0</ele><time>2026-04-25T07:20:32.928Z</time></trkpt><trkpt lat="37.001995" lon="14.7813417"><ele>417.0</ele><time>2026-04-25T07:20:33.929Z</time></trkpt><trkpt lat="37.0020967" lon="14.7814783"><ele>417.0</ele><time>2026-04-25T07:20:34.928Z</time></trkpt><trkpt lat="37.00218" lon="14.7816333"><ele>417.0</ele><time>2026-04-25T07:20:35.929Z</time></trkpt><trkpt lat="37.0022333" lon="14.7817967"><ele>417.0</ele><time>2026-04-25T07:20:36.929Z</time></trkpt><trkpt lat="37.0022517" lon="14.7819833"><ele>417.0</ele><time>2026-04-25T07:20:37.929Z</time></trkpt><trkpt lat="37.00227" lon="14.782165"><ele>417.0</ele><time>2026-04-25T07:20:38.928Z</time></trkpt><trkpt lat="37.0023083" lon="14.7823483"><ele>423.0</ele><time>2026-04-25T07:20:39.928Z</time></trkpt><trkpt lat="37.0023517" lon="14.7825433"><ele>429.0</ele><time>2026-04-25T07:20:40.929Z</time></trkpt><trkpt lat="37.002415" lon="14.7827267"><ele>435.0</ele><time>2026-04-25T07:20:41.929Z</time></trkpt><trkpt lat="37.00247" lon="14.7829283"><ele>429.66666666666663</ele><time>2026-04-25T07:20:42.928Z</time></trkpt><trkpt lat="37.0025267" lon="14.7831083"><ele>424.3333333333333</ele><time>2026-04-25T07:20:43.929Z</time></trkpt><trkpt lat="37.00258" lon="14.7833033"><ele>419.0</ele><time>2026-04-25T07:20:44.929Z</time></trkpt><trkpt lat="37.00262" lon="14.783505"><ele>420.66666666666663</ele><time>2026-04-25T07:20:45.929Z</time></trkpt><trkpt lat="37.0026467" lon="14.7837167"><ele>422.33333333333337</ele><time>2026-04-25T07:20:46.928Z</time></trkpt><trkpt lat="37.00267" lon="14.7839183"><ele>424.0</ele><time>2026-04-25T07:20:47.929Z</time></trkpt><trkpt lat="37.0026833" lon="14.78413"><ele>424.6666666666667</ele><time>2026-04-25T07:20:48.929Z</time></trkpt><trkpt lat="37.0026967" lon="14.7843467"><ele>425.33333333333337</ele><time>2026-04-25T07:20:49.929Z</time></trkpt><trkpt lat="37.0027067" lon="14.7845617"><ele>426.0</ele><time>2026-04-25T07:20:50.928Z</time></trkpt><trkpt lat="37.002725" lon="14.7847817"><ele>426.0</ele><time>2026-04-25T07:20:51.929Z</time></trkpt><trkpt lat="37.0027583" lon="14.785"><ele>426.0</ele><time>2026-04-25T07:20:52.929Z</time></trkpt><trkpt lat="37.0028067" lon="14.785215"><ele>426.0</ele><time>2026-04-25T07:20:53.929Z</time></trkpt><trkpt lat="37.0028633" lon="14.785425"><ele>426.66666666666663</ele><time>2026-04-25T07:20:54.928Z</time></trkpt><trkpt lat="37.002925" lon="14.785635"><ele>427.3333333333333</ele><time>2026-04-25T07:20:55.929Z</time></trkpt><trkpt lat="37.00299" lon="14.7858417"><ele>428.0</ele><time>2026-04-25T07:20:56.928Z</time></trkpt><trkpt lat="37.003065" lon="14.786035"><ele>426.3333333333333</ele><time>2026-04-25T07:20:57.929Z</time></trkpt><trkpt lat="37.003155" lon="14.7862133"><ele>424.66666666666663</ele><time>2026-04-25T07:20:58.929Z</time></trkpt><trkpt lat="37.0032517" lon="14.786385"><ele>423.0</ele><time>2026-04-25T07:20:59.928Z</time></trkpt><trkpt lat="37.003345" lon="14.78655"><ele>423.0</ele><time>2026-04-25T07:21:00.929Z</time></trkpt><trkpt lat="37.0034317" lon="14.78672"><ele>423.0</ele><time>2026-04-25T07:21:01.928Z</time></trkpt><trkpt lat="37.0035067" lon="14.7868567"><ele>423.0</ele><time>2026-04-25T07:21:02.929Z</time></trkpt><trkpt lat="37.0035667" lon="14.7869783"><ele>423.0</ele><time>2026-04-25T07:21:03.929Z</time></trkpt><trkpt lat="37.0036467" lon="14.7870633"><ele>424.0</ele><time>2026-04-25T07:21:04.929Z</time></trkpt><trkpt lat="37.0037467" lon="14.7871"><ele>425.0</ele><time>2026-04-25T07:21:05.928Z</time></trkpt><trkpt lat="37.0038667" lon="14.787115"><ele>426.0</ele><time>2026-04-25T07:21:06.929Z</time></trkpt><trkpt lat="37.0039883" lon="14.7871683"><ele>427.0</ele><time>2026-04-25T07:21:07.929Z</time></trkpt><trkpt lat="37.0041" lon="14.7872617"><ele>426.25</ele><time>2026-04-25T07:21:08.929Z</time></trkpt><trkpt lat="37.004215" lon="14.7873483"><ele>425.5</ele><time>2026-04-25T07:21:09.928Z</time></trkpt><trkpt lat="37.0043567" lon="14.7874017"><ele>424.75</ele><time>2026-04-25T07:21:10.929Z</time></trkpt><trkpt lat="37.0045117" lon="14.7874283"><ele>424.0</ele><time>2026-04-25T07:21:11.929Z</time></trkpt><trkpt lat="37.00466" lon="14.78745"><ele>424.0</ele><time>2026-04-25T07:21:12.928Z</time></trkpt><trkpt lat="37.0048033" lon="14.7874817"><ele>424.0</ele><time>2026-04-25T07:21:13.928Z</time></trkpt><trkpt lat="37.0049533" lon="14.787535"><ele>424.0</ele><time>2026-04-25T07:21:14.929Z</time></trkpt><trkpt lat="37.0051017" lon="14.7876183"><ele>427.0</ele><time>2026-04-25T07:21:15.929Z</time></trkpt><trkpt lat="37.0052517" lon="14.7877133"><ele>430.0</ele><time>2026-04-25T07:21:16.929Z</time></trkpt><trkpt lat="37.0053867" lon="14.787825"><ele>433.0</ele><time>2026-04-25T07:21:17.929Z</time></trkpt><trkpt lat="37.005515" lon="14.787955"><ele>433.0</ele><time>2026-04-25T07:21:18.929Z</time></trkpt><trkpt lat="37.005645" lon="14.7880933"><ele>433.0</ele><time>2026-04-25T07:21:19.928Z</time></trkpt><trkpt lat="37.005785" lon="14.7882267"><ele>433.0</ele><time>2026-04-25T07:21:20.928Z</time></trkpt><trkpt lat="37.00593" lon="14.78836"><ele>432.0</ele><time>2026-04-25T07:21:21.929Z</time></trkpt><trkpt lat="37.0060733" lon="14.7884867"><ele>431.0</ele><time>2026-04-25T07:21:22.929Z</time></trkpt><trkpt lat="37.006215" lon="14.7886117"><ele>430.0</ele><time>2026-04-25T07:21:23.928Z</time></trkpt><trkpt lat="37.0063567" lon="14.7887233"><ele>431.6666666666667</ele><time>2026-04-25T07:21:24.929Z</time></trkpt><trkpt lat="37.006495" lon="14.7888367"><ele>433.33333333333337</ele><time>2026-04-25T07:21:25.928Z</time></trkpt><trkpt lat="37.00663" lon="14.788945"><ele>435.0</ele><time>2026-04-25T07:21:26.929Z</time></trkpt><trkpt lat="37.00677" lon="14.789045"><ele>435.0</ele><time>2026-04-25T07:21:27.928Z</time></trkpt><trkpt lat="37.00691" lon="14.7891467"><ele>435.0</ele><time>2026-04-25T07:21:28.929Z</time></trkpt><trkpt lat="37.0070567" lon="14.7892233"><ele>435.0</ele><time>2026-04-25T07:21:29.929Z</time></trkpt><trkpt lat="37.0071967" lon="14.7893233"><ele>435.66666666666663</ele><time>2026-04-25T07:21:30.929Z</time></trkpt><trkpt lat="37.0073333" lon="14.7894333"><ele>436.3333333333333</ele><time>2026-04-25T07:21:31.929Z</time></trkpt><trkpt lat="37.0074633" lon="14.7895617"><ele>437.0</ele><time>2026-04-25T07:21:32.929Z</time></trkpt><trkpt lat="37.0075683" lon="14.789695"><ele>437.0</ele><time>2026-04-25T07:21:33.929Z</time></trkpt><trkpt lat="37.0076583" lon="14.7898183"><ele>437.0</ele><time>2026-04-25T07:21:34.928Z</time></trkpt><trkpt lat="37.0077433" lon="14.78992"><ele>437.0</ele><time>2026-04-25T07:21:35.929Z</time></trkpt><trkpt lat="37.0078417" lon="14.7899817"><ele>437.0</ele><time>2026-04-25T07:21:36.929Z</time></trkpt><trkpt lat="37.0079533" lon="14.7899933"><ele>437.0</ele><time>2026-04-25T07:21:37.928Z</time></trkpt><trkpt lat="37.0080667" lon="14.78996"><ele>437.0</ele><time>2026-04-25T07:21:38.929Z</time></trkpt><trkpt lat="37.0081967" lon="14.7899083"><ele>437.0</ele><time>2026-04-25T07:21:39.928Z</time></trkpt><trkpt lat="37.0083333" lon="14.78985"><ele>437.0</ele><time>2026-04-25T07:21:40.928Z</time></trkpt><trkpt lat="37.0084833" lon="14.78978"><ele>436.0</ele><time>2026-04-25T07:21:41.929Z</time></trkpt><trkpt lat="37.0086367" lon="14.7897183"><ele>435.0</ele><time>2026-04-25T07:21:42.929Z</time></trkpt><trkpt lat="37.0087883" lon="14.78966"><ele>434.0</ele><time>2026-04-25T07:21:43.929Z</time></trkpt><trkpt lat="37.00896" lon="14.7895833"><ele>434.0</ele><time>2026-04-25T07:21:44.929Z</time></trkpt><trkpt lat="37.0091317" lon="14.7895183"><ele>434.0</ele><time>2026-04-25T07:21:45.928Z</time></trkpt><trkpt lat="37.0092883" lon="14.7894633"><ele>434.0</ele><time>2026-04-25T07:21:46.928Z</time></trkpt><trkpt lat="37.009445" lon="14.7894167"><ele>434.3333333333333</ele><time>2026-04-25T07:21:47.928Z</time></trkpt><trkpt lat="37.0096017" lon="14.7893717"><ele>434.66666666666663</ele><time>2026-04-25T07:21:48.929Z</time></trkpt><trkpt lat="37.0097517" lon="14.7893417"><ele>435.0</ele><time>2026-04-25T07:21:49.929Z</time></trkpt><trkpt lat="37.0099" lon="14.7893417"><ele>432.66666666666663</ele><time>2026-04-25T07:21:50.928Z</time></trkpt><trkpt lat="37.0100533" lon="14.7893767"><ele>430.3333333333333</ele><time>2026-04-25T07:21:51.928Z</time></trkpt><trkpt lat="37.01021" lon="14.7894383"><ele>428.0</ele><time>2026-04-25T07:21:52.928Z</time></trkpt><trkpt lat="37.0103667" lon="14.78953"><ele>428.0</ele><time>2026-04-25T07:21:53.929Z</time></trkpt><trkpt lat="37.010535" lon="14.7896217"><ele>428.0</ele><time>2026-04-25T07:21:54.929Z</time></trkpt><trkpt lat="37.01071" lon="14.7897117"><ele>428.0</ele><time>2026-04-25T07:21:55.929Z</time></trkpt><trkpt lat="37.0108783" lon="14.7898133"><ele>428.3333333333333</ele><time>2026-04-25T07:21:56.929Z</time></trkpt><trkpt lat="37.0110433" lon="14.7899117"><ele>428.66666666666663</ele><time>2026-04-25T07:21:57.928Z</time></trkpt><trkpt lat="37.0112083" lon="14.7900133"><ele>429.0</ele><time>2026-04-25T07:21:58.929Z</time></trkpt><trkpt lat="37.01137" lon="14.7901033"><ele>429.66666666666663</ele><time>2026-04-25T07:21:59.929Z</time></trkpt><trkpt lat="37.011525" lon="14.79018"><ele>430.3333333333333</ele><time>2026-04-25T07:22:00.928Z</time></trkpt><trkpt lat="37.0116733" lon="14.7902283"><ele>431.0</ele><time>2026-04-25T07:22:01.928Z</time></trkpt><trkpt lat="37.011825" lon="14.7902533"><ele>431.3333333333333</ele><time>2026-04-25T07:22:02.928Z</time></trkpt><trkpt lat="37.011995" lon="14.7902483"><ele>431.66666666666663</ele><time>2026-04-25T07:22:03.928Z</time></trkpt><trkpt lat="37.0121667" lon="14.7902283"><ele>432.0</ele><time>2026-04-25T07:22:04.928Z</time></trkpt><trkpt lat="37.0123467" lon="14.7901833"><ele>432.33333333333337</ele><time>2026-04-25T07:22:05.929Z</time></trkpt><trkpt lat="37.0125133" lon="14.7901367"><ele>432.6666666666667</ele><time>2026-04-25T07:22:06.929Z</time></trkpt><trkpt lat="37.01267" lon="14.7900883"><ele>433.0</ele><time>2026-04-25T07:22:07.928Z</time></trkpt><trkpt lat="37.0128383" lon="14.7900283"><ele>433.0</ele><time>2026-04-25T07:22:08.928Z</time></trkpt><trkpt lat="37.0130183" lon="14.7899867"><ele>433.0</ele><time>2026-04-25T07:22:09.929Z</time></trkpt><trkpt lat="37.01319" lon="14.78996"><ele>433.0</ele><time>2026-04-25T07:22:10.929Z</time></trkpt><trkpt lat="37.01336" lon="14.7899583"><ele>433.33333333333337</ele><time>2026-04-25T07:22:11.928Z</time></trkpt><trkpt lat="37.01354" lon="14.789965"><ele>433.66666666666663</ele><time>2026-04-25T07:22:12.929Z</time></trkpt><trkpt lat="37.0137067" lon="14.7899917"><ele>434.0</ele><time>2026-04-25T07:22:13.929Z</time></trkpt><trkpt lat="37.01388" lon="14.7900167"><ele>434.0</ele><time>2026-04-25T07:22:14.928Z</time></trkpt><trkpt lat="37.0140517" lon="14.7900517"><ele>434.0</ele><time>2026-04-25T07:22:15.929Z</time></trkpt><trkpt lat="37.0142217" lon="14.7901033"><ele>434.0</ele><time>2026-04-25T07:22:16.929Z</time></trkpt><trkpt lat="37.0143783" lon="14.7901583"><ele>434.3333333333333</ele><time>2026-04-25T07:22:17.929Z</time></trkpt><trkpt lat="37.0145383" lon="14.7902117"><ele>434.66666666666663</ele><time>2026-04-25T07:22:18.929Z</time></trkpt><trkpt lat="37.0147083" lon="14.7902517"><ele>435.0</ele><time>2026-04-25T07:22:19.929Z</time></trkpt><trkpt lat="37.0148683" lon="14.7902867"><ele>435.33333333333337</ele><time>2026-04-25T07:22:20.928Z</time></trkpt><trkpt lat="37.01503" lon="14.790305"><ele>435.6666666666667</ele><time>2026-04-25T07:22:21.929Z</time></trkpt><trkpt lat="37.01519" lon="14.7903017"><ele>436.0</ele><time>2026-04-25T07:22:22.929Z</time></trkpt><trkpt lat="37.0153433" lon="14.79028"><ele>436.0</ele><time>2026-04-25T07:22:23.928Z</time></trkpt><trkpt lat="37.0155083" lon="14.7902567"><ele>436.0</ele><time>2026-04-25T07:22:24.928Z</time></trkpt><trkpt lat="37.0156767" lon="14.7902467"><ele>436.0</ele><time>2026-04-25T07:22:25.929Z</time></trkpt><trkpt lat="37.0158533" lon="14.79027"><ele>437.0</ele><time>2026-04-25T07:22:26.928Z</time></trkpt><trkpt lat="37.0160317" lon="14.7903133"><ele>438.0</ele><time>2026-04-25T07:22:27.928Z</time></trkpt><trkpt lat="37.016195" lon="14.7903583"><ele>439.0</ele><time>2026-04-25T07:22:28.929Z</time></trkpt><trkpt lat="37.0163533" lon="14.79039"><ele>439.0</ele><time>2026-04-25T07:22:29.928Z</time></trkpt><trkpt lat="37.0165233" lon="14.7903833"><ele>439.0</ele><time>2026-04-25T07:22:30.929Z</time></trkpt><trkpt lat="37.0166817" lon="14.7903633"><ele>439.0</ele><time>2026-04-25T07:22:31.929Z</time></trkpt><trkpt lat="37.0168467" lon="14.7903417"><ele>439.33333333333337</ele><time>2026-04-25T07:22:32.928Z</time></trkpt><trkpt lat="37.01701" lon="14.790335"><ele>439.66666666666663</ele><time>2026-04-25T07:22:33.929Z</time></trkpt><trkpt lat="37.0171733" lon="14.7903583"><ele>440.0</ele><time>2026-04-25T07:22:34.929Z</time></trkpt><trkpt lat="37.01735" lon="14.7904167"><ele>440.0</ele><time>2026-04-25T07:22:35.929Z</time></trkpt><trkpt lat="37.0175217" lon="14.790485"><ele>440.0</ele><time>2026-04-25T07:22:36.929Z</time></trkpt><trkpt lat="37.0176967" lon="14.7905533"><ele>440.0</ele><time>2026-04-25T07:22:37.929Z</time></trkpt><trkpt lat="37.01787" lon="14.7906367"><ele>440.0</ele><time>2026-04-25T07:22:38.928Z</time></trkpt><trkpt lat="37.0180317" lon="14.790725"><ele>440.0</ele><time>2026-04-25T07:22:39.929Z</time></trkpt><trkpt lat="37.018195" lon="14.7908167"><ele>440.0</ele><time>2026-04-25T07:22:40.929Z</time></trkpt><trkpt lat="37.0183533" lon="14.7908967"><ele>440.3333333333333</ele><time>2026-04-25T07:22:41.928Z</time></trkpt><trkpt lat="37.018515" lon="14.79097"><ele>440.66666666666663</ele><time>2026-04-25T07:22:42.928Z</time></trkpt><trkpt lat="37.0186817" lon="14.79104"><ele>441.0</ele><time>2026-04-25T07:22:43.929Z</time></trkpt><trkpt lat="37.0188567" lon="14.7910917"><ele>441.0</ele><time>2026-04-25T07:22:44.929Z</time></trkpt><trkpt lat="37.0190333" lon="14.7911233"><ele>441.0</ele><time>2026-04-25T07:22:45.928Z</time></trkpt><trkpt lat="37.0192083" lon="14.79114"><ele>441.0</ele><time>2026-04-25T07:22:46.928Z</time></trkpt><trkpt lat="37.0193883" lon="14.79114"><ele>442.0</ele><time>2026-04-25T07:22:47.929Z</time></trkpt><trkpt lat="37.0195717" lon="14.7911333"><ele>443.0</ele><time>2026-04-25T07:22:48.929Z</time></trkpt><trkpt lat="37.0197533" lon="14.7911317"><ele>444.0</ele><time>2026-04-25T07:22:49.928Z</time></trkpt><trkpt lat="37.0199283" lon="14.7911483"><ele>444.33333333333337</ele><time>2026-04-25T07:22:50.929Z</time></trkpt><trkpt lat="37.0201067" lon="14.791155"><ele>444.6666666666667</ele><time>2026-04-25T07:22:51.928Z</time></trkpt><trkpt lat="37.0202883" lon="14.7911767"><ele>445.0</ele><time>2026-04-25T07:22:52.928Z</time></trkpt><trkpt lat="37.0204667" lon="14.7912117"><ele>445.0</ele><time>2026-04-25T07:22:53.929Z</time></trkpt><trkpt lat="37.0206517" lon="14.79125"><ele>445.0</ele><time>2026-04-25T07:22:54.928Z</time></trkpt><trkpt lat="37.02083" lon="14.7913083"><ele>445.0</ele><time>2026-04-25T07:22:55.929Z</time></trkpt><trkpt lat="37.02101" lon="14.7913783"><ele>445.0</ele><time>2026-04-25T07:22:56.928Z</time></trkpt><trkpt lat="37.0211917" lon="14.791455"><ele>445.0</ele><time>2026-04-25T07:22:57.929Z</time></trkpt><trkpt lat="37.0213833" lon="14.7915317"><ele>445.0</ele><time>2026-04-25T07:22:58.928Z</time></trkpt><trkpt lat="37.021555" lon="14.7916267"><ele>445.0</ele><time>2026-04-25T07:22:59.929Z</time></trkpt><trkpt lat="37.0217233" lon="14.7917217"><ele>445.0</ele><time>2026-04-25T07:23:00.928Z</time></trkpt><trkpt lat="37.021885" lon="14.791805"><ele>445.0</ele><time>2026-04-25T07:23:01.928Z</time></trkpt><trkpt lat="37.022055" lon="14.79186"><ele>445.0</ele><time>2026-04-25T07:23:02.929Z</time></trkpt><trkpt lat="37.0222017" lon="14.7918783"><ele>445.0</ele><time>2026-04-25T07:23:03.929Z</time></trkpt><trkpt lat="37.022345" lon="14.7918533"><ele>445.0</ele><time>2026-04-25T07:23:04.929Z</time></trkpt><trkpt lat="37.0224667" lon="14.7917683"><ele>445.0</ele><time>2026-04-25T07:23:05.929Z</time></trkpt><trkpt lat="37.0225783" lon="14.7916467"><ele>446.33333333333337</ele><time>2026-04-25T07:23:06.929Z</time></trkpt><trkpt lat="37.02269" lon="14.7915167"><ele>447.66666666666663</ele><time>2026-04-25T07:23:07.929Z</time></trkpt><trkpt lat="37.022825" lon="14.7914033"><ele>449.0</ele><time>2026-04-25T07:23:08.928Z</time></trkpt><trkpt lat="37.0229717" lon="14.7913083"><ele>449.0</ele><time>2026-04-25T07:23:09.928Z</time></trkpt><trkpt lat="37.02312" lon="14.7912233"><ele>449.0</ele><time>2026-04-25T07:23:10.929Z</time></trkpt><trkpt lat="37.0232617" lon="14.7911483"><ele>449.0</ele><time>2026-04-25T07:23:11.929Z</time></trkpt><trkpt lat="37.0234033" lon="14.791105"><ele>449.0</ele><time>2026-04-25T07:23:12.928Z</time></trkpt><trkpt lat="37.0235633" lon="14.7910833"><ele>449.0</ele><time>2026-04-25T07:23:13.928Z</time></trkpt><trkpt lat="37.0237317" lon="14.7910783"><ele>449.0</ele><time>2026-04-25T07:23:14.928Z</time></trkpt><trkpt lat="37.0239083" lon="14.7910833"><ele>449.0</ele><time>2026-04-25T07:23:15.929Z</time></trkpt><trkpt lat="37.0240867" lon="14.7911033"><ele>449.0</ele><time>2026-04-25T07:23:16.928Z</time></trkpt><trkpt lat="37.0242683" lon="14.7911183"><ele>449.0</ele><time>2026-04-25T07:23:17.928Z</time></trkpt><trkpt lat="37.0244433" lon="14.791135"><ele>448.66666666666663</ele><time>2026-04-25T07:23:18.929Z</time></trkpt><trkpt lat="37.0246233" lon="14.7911517"><ele>448.33333333333337</ele><time>2026-04-25T07:23:19.928Z</time></trkpt><trkpt lat="37.0248" lon="14.7911783"><ele>448.0</ele><time>2026-04-25T07:23:20.928Z</time></trkpt><trkpt lat="37.0249833" lon="14.7912"><ele>447.6666666666667</ele><time>2026-04-25T07:23:21.929Z</time></trkpt><trkpt lat="37.02516" lon="14.7912117"><ele>447.33333333333337</ele><time>2026-04-25T07:23:22.929Z</time></trkpt><trkpt lat="37.0253083" lon="14.7912517"><ele>447.0</ele><time>2026-04-25T07:23:23.929Z</time></trkpt><trkpt lat="37.025455" lon="14.7913133"><ele>447.0</ele><time>2026-04-25T07:23:24.929Z</time></trkpt><trkpt lat="37.0256017" lon="14.7913967"><ele>447.0</ele><time>2026-04-25T07:23:25.928Z</time></trkpt><trkpt lat="37.0257383" lon="14.791515"><ele>447.0</ele><time>2026-04-25T07:23:26.929Z</time></trkpt><trkpt lat="37.0258767" lon="14.7916417"><ele>447.0</ele><time>2026-04-25T07:23:27.929Z</time></trkpt><trkpt lat="37.0260233" lon="14.7917683"><ele>447.0</ele><time>2026-04-25T07:23:28.928Z</time></trkpt><trkpt lat="37.0261683" lon="14.7919017"><ele>447.0</ele><time>2026-04-25T07:23:29.929Z</time></trkpt><trkpt lat="37.0263267" lon="14.7920433"><ele>447.0</ele><time>2026-04-25T07:23:30.928Z</time></trkpt><trkpt lat="37.026475" lon="14.7921867"><ele>447.0</ele><time>2026-04-25T07:23:31.929Z</time></trkpt><trkpt lat="37.026635" lon="14.7923317"><ele>447.0</ele><time>2026-04-25T07:23:32.928Z</time></trkpt><trkpt lat="37.026795" lon="14.7924733"><ele>447.66666666666663</ele><time>2026-04-25T07:23:33.929Z</time></trkpt><trkpt lat="37.02696" lon="14.7926183"><ele>448.3333333333333</ele><time>2026-04-25T07:23:34.928Z</time></trkpt><trkpt lat="37.0271217" lon="14.792765"><ele>449.0</ele><time>2026-04-25T07:23:35.929Z</time></trkpt><trkpt lat="37.027275" lon="14.7929183"><ele>449.0</ele><time>2026-04-25T07:23:36.928Z</time></trkpt><trkpt lat="37.0274383" lon="14.7930717"><ele>449.0</ele><time>2026-04-25T07:23:37.929Z</time></trkpt><trkpt lat="37.0276033" lon="14.7932217"><ele>449.0</ele><time>2026-04-25T07:23:38.928Z</time></trkpt><trkpt lat="37.0277683" lon="14.79337"><ele>450.66666666666663</ele><time>2026-04-25T07:23:39.929Z</time></trkpt><trkpt lat="37.0279283" lon="14.7935083"><ele>452.33333333333337</ele><time>2026-04-25T07:23:40.928Z</time></trkpt><trkpt lat="37.0280783" lon="14.7936567"><ele>454.0</ele><time>2026-04-25T07:23:41.928Z</time></trkpt><trkpt lat="37.0282267" lon="14.7937917"><ele>453.6666666666667</ele><time>2026-04-25T07:23:42.928Z</time></trkpt><trkpt lat="37.02837" lon="14.7939267"><ele>453.33333333333337</ele><time>2026-04-25T07:23:43.929Z</time></trkpt><trkpt lat="37.0285133" lon="14.794055"><ele>453.0</ele><time>2026-04-25T07:23:44.929Z</time></trkpt><trkpt lat="37.0286617" lon="14.794175"><ele>453.0</ele><time>2026-04-25T07:23:45.928Z</time></trkpt><trkpt lat="37.02881" lon="14.7942883"><ele>453.0</ele><time>2026-04-25T07:23:46.928Z</time></trkpt><trkpt lat="37.0289717" lon="14.79438"><ele>453.0</ele><time>2026-04-25T07:23:47.929Z</time></trkpt><trkpt lat="37.029145" lon="14.79444"><ele>454.66666666666663</ele><time>2026-04-25T07:23:48.929Z</time></trkpt><trkpt lat="37.0293333" lon="14.7944633"><ele>456.3333333333333</ele><time>2026-04-25T07:23:49.928Z</time></trkpt><trkpt lat="37.02952" lon="14.7944833"><ele>458.0</ele><time>2026-04-25T07:23:50.928Z</time></trkpt><trkpt lat="37.0297067" lon="14.794505"><ele>458.0</ele><time>2026-04-25T07:23:51.929Z</time></trkpt><trkpt lat="37.0298967" lon="14.7945283"><ele>458.0</ele><time>2026-04-25T07:23:52.928Z</time></trkpt><trkpt lat="37.0300867" lon="14.7945517"><ele>458.0</ele><time>2026-04-25T07:23:53.928Z</time></trkpt><trkpt lat="37.0302733" lon="14.7945767"><ele>457.66666666666663</ele><time>2026-04-25T07:23:54.929Z</time></trkpt><trkpt lat="37.0304733" lon="14.794595"><ele>457.33333333333337</ele><time>2026-04-25T07:23:55.929Z</time></trkpt><trkpt lat="37.0306633" lon="14.7946267"><ele>457.0</ele><time>2026-04-25T07:23:56.928Z</time></trkpt><trkpt lat="37.0308517" lon="14.7946567"><ele>457.6666666666667</ele><time>2026-04-25T07:23:57.928Z</time></trkpt><trkpt lat="37.03105" lon="14.7946817"><ele>458.33333333333337</ele><time>2026-04-25T07:23:58.929Z</time></trkpt><trkpt lat="37.03125" lon="14.794705"><ele>459.0</ele><time>2026-04-25T07:23:59.929Z</time></trkpt><trkpt lat="37.0314483" lon="14.79473"><ele>458.0</ele><time>2026-04-25T07:24:00.929Z</time></trkpt><trkpt lat="37.031645" lon="14.794755"><ele>457.0</ele><time>2026-04-25T07:24:01.928Z</time></trkpt><trkpt lat="37.031845" lon="14.794775"><ele>456.0</ele><time>2026-04-25T07:24:02.928Z</time></trkpt><trkpt lat="37.03204" lon="14.7947967"><ele>456.0</ele><time>2026-04-25T07:24:03.928Z</time></trkpt><trkpt lat="37.0322283" lon="14.794825"><ele>456.0</ele><time>2026-04-25T07:24:04.929Z</time></trkpt><trkpt lat="37.0324067" lon="14.7948533"><ele>456.0</ele><time>2026-04-25T07:24:05.928Z</time></trkpt><trkpt lat="37.0325917" lon="14.7948767"><ele>456.33333333333337</ele><time>2026-04-25T07:24:06.928Z</time></trkpt><trkpt lat="37.0327733" lon="14.794905"><ele>456.6666666666667</ele><time>2026-04-25T07:24:07.929Z</time></trkpt><trkpt lat="37.03295" lon="14.7949267"><ele>457.0</ele><time>2026-04-25T07:24:08.928Z</time></trkpt><trkpt lat="37.033125" lon="14.79495"><ele>457.0</ele><time>2026-04-25T07:24:09.929Z</time></trkpt><trkpt lat="37.0333033" lon="14.7949733"><ele>457.0</ele><time>2026-04-25T07:24:10.928Z</time></trkpt><trkpt lat="37.0334767" lon="14.79499"><ele>457.0</ele><time>2026-04-25T07:24:11.929Z</time></trkpt><trkpt lat="37.0336417" lon="14.7950083"><ele>457.33333333333337</ele><time>2026-04-25T07:24:12.928Z</time></trkpt><trkpt lat="37.0338117" lon="14.795025"><ele>457.66666666666663</ele><time>2026-04-25T07:24:13.928Z</time></trkpt><trkpt lat="37.0339817" lon="14.795025"><ele>458.0</ele><time>2026-04-25T07:24:14.929Z</time></trkpt><trkpt lat="37.0341467" lon="14.7949967"><ele>458.3333333333333</ele><time>2026-04-25T07:24:15.929Z</time></trkpt><trkpt lat="37.034305" lon="14.794945"><ele>458.66666666666663</ele><time>2026-04-25T07:24:16.929Z</time></trkpt><trkpt lat="37.034475" lon="14.7948783"><ele>459.0</ele><time>2026-04-25T07:24:17.928Z</time></trkpt><trkpt lat="37.034655" lon="14.7948117"><ele>459.0</ele><time>2026-04-25T07:24:18.928Z</time></trkpt><trkpt lat="37.0348333" lon="14.79475"><ele>459.0</ele><time>2026-04-25T07:24:19.928Z</time></trkpt><trkpt lat="37.0350033" lon="14.7946933"><ele>459.0</ele><time>2026-04-25T07:24:20.928Z</time></trkpt><trkpt lat="37.0351817" lon="14.79465"><ele>459.33333333333337</ele><time>2026-04-25T07:24:21.929Z</time></trkpt><trkpt lat="37.0353633" lon="14.7946117"><ele>459.6666666666667</ele><time>2026-04-25T07:24:22.929Z</time></trkpt><trkpt lat="37.03555" lon="14.7945883"><ele>460.0</ele><time>2026-04-25T07:24:23.928Z</time></trkpt><trkpt lat="37.0357467" lon="14.7945667"><ele>460.6666666666667</ele><time>2026-04-25T07:24:24.929Z</time></trkpt><trkpt lat="37.0359367" lon="14.7945483"><ele>461.33333333333337</ele><time>2026-04-25T07:24:25.929Z</time></trkpt><trkpt lat="37.0361167" lon="14.794535"><ele>462.0</ele><time>2026-04-25T07:24:26.929Z</time></trkpt><trkpt lat="37.0362767" lon="14.7945233"><ele>462.0</ele><time>2026-04-25T07:24:27.928Z</time></trkpt><trkpt lat="37.0364267" lon="14.7945117"><ele>462.0</ele><time>2026-04-25T07:24:28.929Z</time></trkpt><trkpt lat="37.03656" lon="14.7944967"><ele>462.0</ele><time>2026-04-25T07:24:29.928Z</time></trkpt><trkpt lat="37.0366917" lon="14.794495"><ele>462.0</ele><time>2026-04-25T07:24:30.929Z</time></trkpt><trkpt lat="37.0368283" lon="14.7944983"><ele>463.66666666666663</ele><time>2026-04-25T07:24:31.929Z</time></trkpt><trkpt lat="37.0369767" lon="14.7945167"><ele>465.3333333333333</ele><time>2026-04-25T07:24:32.928Z</time></trkpt><trkpt lat="37.0371267" lon="14.794555"><ele>467.0</ele><time>2026-04-25T07:24:33.929Z</time></trkpt><trkpt lat="37.0372717" lon="14.7946067"><ele>467.0</ele><time>2026-04-25T07:24:34.929Z</time></trkpt><trkpt lat="37.0374167" lon="14.7946683"><ele>467.0</ele><time>2026-04-25T07:24:35.929Z</time></trkpt><trkpt lat="37.0375617" lon="14.79474"><ele>467.0</ele><time>2026-04-25T07:24:36.928Z</time></trkpt><trkpt lat="37.0376917" lon="14.7948367"><ele>468.5</ele><time>2026-04-25T07:24:37.929Z</time></trkpt><trkpt lat="37.03781" lon="14.7949467"><ele>470.0</ele><time>2026-04-25T07:24:38.929Z</time></trkpt><trkpt lat="37.037925" lon="14.7950433"><ele>471.5</ele><time>2026-04-25T07:24:39.929Z</time></trkpt><trkpt lat="37.0380267" lon="14.7951533"><ele>473.0</ele><time>2026-04-25T07:24:40.929Z</time></trkpt><trkpt lat="37.0381217" lon="14.7952517"><ele>472.99999999999994</ele><time>2026-04-25T07:24:41.928Z</time></trkpt><trkpt lat="37.0382067" lon="14.7953417"><ele>473.0</ele><time>2026-04-25T07:24:42.928Z</time></trkpt><trkpt lat="37.038295" lon="14.795395"><ele>473.0</ele><time>2026-04-25T07:24:43.929Z</time></trkpt><trkpt lat="37.0383783" lon="14.7954067"><ele>473.0</ele><time>2026-04-25T07:24:44.929Z</time></trkpt><trkpt lat="37.038445" lon="14.7953767"><ele>472.99999999999994</ele><time>2026-04-25T07:24:45.928Z</time></trkpt><trkpt lat="37.0385" lon="14.7953033"><ele>473.0</ele><time>2026-04-25T07:24:46.929Z</time></trkpt><trkpt lat="37.038545" lon="14.7952133"><ele>472.2</ele><time>2026-04-25T07:24:47.929Z</time></trkpt><trkpt lat="37.038575" lon="14.7950933"><ele>471.4</ele><time>2026-04-25T07:24:48.928Z</time></trkpt><trkpt lat="37.0385933" lon="14.7949467"><ele>470.59999999999997</ele><time>2026-04-25T07:24:49.929Z</time></trkpt><trkpt lat="37.0386183" lon="14.7948117"><ele>469.79999999999995</ele><time>2026-04-25T07:24:50.929Z</time></trkpt><trkpt lat="37.03867" lon="14.794685"><ele>469.0</ele><time>2026-04-25T07:24:51.928Z</time></trkpt><trkpt lat="37.0387433" lon="14.79459"><ele>469.0</ele><time>2026-04-25T07:24:52.929Z</time></trkpt><trkpt lat="37.0388367" lon="14.7945317"><ele>469.0</ele><time>2026-04-25T07:24:53.928Z</time></trkpt><trkpt lat="37.038945" lon="14.7945067"><ele>469.0</ele><time>2026-04-25T07:24:54.928Z</time></trkpt><trkpt lat="37.0390617" lon="14.7945283"><ele>469.0</ele><time>2026-04-25T07:24:55.929Z</time></trkpt><trkpt lat="37.039195" lon="14.7945717"><ele>469.0</ele><time>2026-04-25T07:24:56.929Z</time></trkpt><trkpt lat="37.0393367" lon="14.7946183"><ele>469.0</ele><time>2026-04-25T07:24:57.929Z</time></trkpt><trkpt lat="37.0394667" lon="14.7946917"><ele>469.0</ele><time>2026-04-25T07:24:58.929Z</time></trkpt><trkpt lat="37.039625" lon="14.7947117"><ele>469.0</ele><time>2026-04-25T07:24:59.929Z</time></trkpt><trkpt lat="37.0397867" lon="14.794745"><ele>469.0</ele><time>2026-04-25T07:25:00.928Z</time></trkpt><trkpt lat="37.039955" lon="14.7947867"><ele>469.0</ele><time>2026-04-25T07:25:01.928Z</time></trkpt><trkpt lat="37.0401267" lon="14.7948283"><ele>469.0</ele><time>2026-04-25T07:25:02.928Z</time></trkpt><trkpt lat="37.0402933" lon="14.79487"><ele>470.33333333333337</ele><time>2026-04-25T07:25:03.928Z</time></trkpt><trkpt lat="37.0404617" lon="14.7949183"><ele>471.66666666666663</ele><time>2026-04-25T07:25:04.929Z</time></trkpt><trkpt lat="37.0406283" lon="14.7949767"><ele>473.0</ele><time>2026-04-25T07:25:05.929Z</time></trkpt><trkpt lat="37.0408033" lon="14.79502"><ele>474.3333333333333</ele><time>2026-04-25T07:25:06.929Z</time></trkpt><trkpt lat="37.0409717" lon="14.7950717"><ele>475.66666666666663</ele><time>2026-04-25T07:25:07.929Z</time></trkpt><trkpt lat="37.0411333" lon="14.7951183"><ele>477.0</ele><time>2026-04-25T07:25:08.929Z</time></trkpt><trkpt lat="37.0413" lon="14.7951683"><ele>477.0</ele><time>2026-04-25T07:25:09.928Z</time></trkpt><trkpt lat="37.0414567" lon="14.7951983"><ele>477.0</ele><time>2026-04-25T07:25:10.929Z</time></trkpt><trkpt lat="37.041595" lon="14.7952333"><ele>477.0</ele><time>2026-04-25T07:25:11.929Z</time></trkpt><trkpt lat="37.0417267" lon="14.795265"><ele>477.0</ele><time>2026-04-25T07:25:12.929Z</time></trkpt><trkpt lat="37.041865" lon="14.7952817"><ele>478.0</ele><time>2026-04-25T07:25:13.929Z</time></trkpt><trkpt lat="37.042005" lon="14.79528"><ele>479.0</ele><time>2026-04-25T07:25:14.928Z</time></trkpt><trkpt lat="37.0421467" lon="14.79527"><ele>480.0</ele><time>2026-04-25T07:25:15.928Z</time></trkpt><trkpt lat="37.0423017" lon="14.7952167"><ele>481.0</ele><time>2026-04-25T07:25:16.929Z</time></trkpt><trkpt lat="37.0424667" lon="14.795165"><ele>484.33333333333337</ele><time>2026-04-25T07:25:17.929Z</time></trkpt><trkpt lat="37.04262" lon="14.7951217"><ele>487.66666666666663</ele><time>2026-04-25T07:25:18.929Z</time></trkpt><trkpt lat="37.042785" lon="14.7950767"><ele>491.0</ele><time>2026-04-25T07:25:19.929Z</time></trkpt><trkpt lat="37.0429583" lon="14.7950317"><ele>491.0</ele><time>2026-04-25T07:25:20.929Z</time></trkpt><trkpt lat="37.0431283" lon="14.7949867"><ele>491.0</ele><time>2026-04-25T07:25:21.928Z</time></trkpt><trkpt lat="37.0433" lon="14.7949367"><ele>491.0</ele><time>2026-04-25T07:25:22.929Z</time></trkpt><trkpt lat="37.0434683" lon="14.7948817"><ele>492.0</ele><time>2026-04-25T07:25:23.929Z</time></trkpt><trkpt lat="37.0436383" lon="14.7948317"><ele>493.0</ele><time>2026-04-25T07:25:24.929Z</time></trkpt><trkpt lat="37.0438067" lon="14.79479"><ele>494.0</ele><time>2026-04-25T07:25:25.929Z</time></trkpt><trkpt lat="37.0439717" lon="14.7947517"><ele>496.66666666666663</ele><time>2026-04-25T07:25:26.927Z</time></trkpt><trkpt lat="37.0441317" lon="14.7947"><ele>499.33333333333337</ele><time>2026-04-25T07:25:27.928Z</time></trkpt><trkpt lat="37.0442983" lon="14.7946583"><ele>502.0</ele><time>2026-04-25T07:25:28.927Z</time></trkpt><trkpt lat="37.0444617" lon="14.794615"><ele>502.0</ele><time>2026-04-25T07:25:29.928Z</time></trkpt><trkpt lat="37.0446167" lon="14.7945783"><ele>502.0</ele><time>2026-04-25T07:25:30.928Z</time></trkpt><trkpt lat="37.0447617" lon="14.794545"><ele>502.0</ele><time>2026-04-25T07:25:31.927Z</time></trkpt><trkpt lat="37.0448967" lon="14.7945067"><ele>502.0</ele><time>2026-04-25T07:25:32.928Z</time></trkpt><trkpt lat="37.0450217" lon="14.7944717"><ele>503.33333333333337</ele><time>2026-04-25T07:25:33.928Z</time></trkpt><trkpt lat="37.0451383" lon="14.794445"><ele>504.6666666666667</ele><time>2026-04-25T07:25:34.927Z</time></trkpt><trkpt lat="37.04524" lon="14.79442"><ele>506.0</ele><time>2026-04-25T07:25:35.928Z</time></trkpt><trkpt lat="37.0453267" lon="14.7944067"><ele>507.33333333333337</ele><time>2026-04-25T07:25:36.927Z</time></trkpt><trkpt lat="37.0453917" lon="14.7943967"><ele>508.6666666666667</ele><time>2026-04-25T07:25:37.928Z</time></trkpt><trkpt lat="37.0454567" lon="14.79437"><ele>510.0</ele><time>2026-04-25T07:25:39.928Z</time></trkpt><trkpt lat="37.0455083" lon="14.7942967"><ele>510.0</ele><time>2026-04-25T07:26:01.928Z</time></trkpt><trkpt lat="37.0455967" lon="14.7942733"><ele>510.0</ele><time>2026-04-25T07:26:03.928Z</time></trkpt><trkpt lat="37.045715" lon="14.794255"><ele>510.0</ele><time>2026-04-25T07:26:05.927Z</time></trkpt><trkpt lat="37.04579" lon="14.7942383"><ele>510.0</ele><time>2026-04-25T07:26:06.927Z</time></trkpt><trkpt lat="37.0458633" lon="14.79422"><ele>510.0</ele><time>2026-04-25T07:26:07.927Z</time></trkpt><trkpt lat="37.0459467" lon="14.7941967"><ele>510.0</ele><time>2026-04-25T07:26:08.928Z</time></trkpt><trkpt lat="37.0460267" lon="14.79418"><ele>510.4</ele><time>2026-04-25T07:26:09.927Z</time></trkpt><trkpt lat="37.046095" lon="14.7941717"><ele>510.8</ele><time>2026-04-25T07:26:10.928Z</time></trkpt><trkpt lat="37.0461883" lon="14.7941517"><ele>511.20000000000005</ele><time>2026-04-25T07:26:12.927Z</time></trkpt><trkpt lat="37.0462617" lon="14.7941383"><ele>511.6</ele><time>2026-04-25T07:26:14.928Z</time></trkpt><trkpt lat="37.0463583" lon="14.794115"><ele>512.0</ele><time>2026-04-25T07:26:16.927Z</time></trkpt><trkpt lat="37.0464767" lon="14.7940683"><ele>512.0</ele><time>2026-04-25T07:26:18.927Z</time></trkpt><trkpt lat="37.04654" lon="14.7940417"><ele>511.99999999999994</ele><time>2026-04-25T07:26:19.927Z</time></trkpt><trkpt lat="37.046605" lon="14.7940267"><ele>512.0</ele><time>2026-04-25T07:26:20.928Z</time></trkpt><trkpt lat="37.0466683" lon="14.79401"><ele>512.0</ele><time>2026-04-25T07:26:21.928Z</time></trkpt><trkpt lat="37.04674" lon="14.7939967"><ele>511.99999999999994</ele><time>2026-04-25T07:26:22.927Z</time></trkpt><trkpt lat="37.0468067" lon="14.7939767"><ele>512.0</ele><time>2026-04-25T07:26:23.927Z</time></trkpt><trkpt lat="37.046875" lon="14.79395"><ele>512.0</ele><time>2026-04-25T07:26:24.927Z</time></trkpt><trkpt lat="37.04694" lon="14.793925"><ele>512.5714285714286</ele><time>2026-04-25T07:26:25.927Z</time></trkpt><trkpt lat="37.0470133" lon="14.7939067"><ele>513.1428571428571</ele><time>2026-04-25T07:26:26.928Z</time></trkpt><trkpt lat="37.047085" lon="14.7938883"><ele>513.7142857142857</ele><time>2026-04-25T07:26:27.928Z</time></trkpt><trkpt lat="37.0471567" lon="14.7938717"><ele>514.2857142857142</ele><time>2026-04-25T07:26:28.927Z</time></trkpt><trkpt lat="37.047225" lon="14.7938467"><ele>514.8571428571429</ele><time>2026-04-25T07:26:29.928Z</time></trkpt><trkpt lat="37.0472917" lon="14.7938233"><ele>515.4285714285713</ele><time>2026-04-25T07:26:30.927Z</time></trkpt><trkpt lat="37.0473567" lon="14.793795"><ele>516.0</ele><time>2026-04-25T07:26:31.927Z</time></trkpt><trkpt lat="37.04742" lon="14.79378"><ele>516.8333333333334</ele><time>2026-04-25T07:26:32.928Z</time></trkpt><trkpt lat="37.04748" lon="14.793755"><ele>517.6666666666666</ele><time>2026-04-25T07:26:33.928Z</time></trkpt><trkpt lat="37.0475433" lon="14.79374"><ele>518.5</ele><time>2026-04-25T07:26:34.928Z</time></trkpt><trkpt lat="37.0476083" lon="14.7937183"><ele>519.3333333333333</ele><time>2026-04-25T07:26:35.927Z</time></trkpt><trkpt lat="37.0477233" lon="14.7936933"><ele>520.1666666666666</ele><time>2026-04-25T07:26:37.927Z</time></trkpt><trkpt lat="37.0477817" lon="14.793765"><ele>521.0</ele><time>2026-04-25T07:26:39.927Z</time></trkpt><trkpt lat="37.0477967" lon="14.7938417"><ele>521.0</ele><time>2026-04-25T07:26:40.928Z</time></trkpt><trkpt lat="37.047815" lon="14.7939267"><ele>521.0</ele><time>2026-04-25T07:26:41.928Z</time></trkpt><trkpt lat="37.0478333" lon="14.79402"><ele>521.0</ele><time>2026-04-25T07:26:42.927Z</time></trkpt><trkpt lat="37.0478533" lon="14.79411"><ele>521.0</ele><time>2026-04-25T07:26:43.927Z</time></trkpt><trkpt lat="37.0478783" lon="14.794215"><ele>521.0</ele><time>2026-04-25T07:26:44.927Z</time></trkpt><trkpt lat="37.0478967" lon="14.794315"><ele>521.0</ele><time>2026-04-25T07:26:45.928Z</time></trkpt><trkpt lat="37.04791" lon="14.79441"><ele>520.5</ele><time>2026-04-25T07:26:46.927Z</time></trkpt><trkpt lat="37.04793" lon="14.7944983"><ele>520.0</ele><time>2026-04-25T07:26:47.928Z</time></trkpt><trkpt lat="37.0479483" lon="14.7946217"><ele>519.5</ele><time>2026-04-25T07:26:49.927Z</time></trkpt><trkpt lat="37.0479667" lon="14.7947217"><ele>519.0</ele><time>2026-04-25T07:26:51.927Z</time></trkpt><trkpt lat="37.0479883" lon="14.7948533"><ele>518.5</ele><time>2026-04-25T07:26:53.928Z</time></trkpt><trkpt lat="37.04801" lon="14.7949583"><ele>518.0</ele><time>2026-04-25T07:26:56.927Z</time></trkpt><trkpt lat="37.0480383" lon="14.7950517"><ele>518.0</ele><time>2026-04-25T07:27:00.928Z</time></trkpt><trkpt lat="37.0480617" lon="14.7951533"><ele>518.0</ele><time>2026-04-25T07:27:04.927Z</time></trkpt><trkpt lat="37.0480733" lon="14.7952533"><ele>518.0</ele><time>2026-04-25T07:27:06.928Z</time></trkpt><trkpt lat="37.048095" lon="14.7953583"><ele>518.0</ele><time>2026-04-25T07:27:08.928Z</time></trkpt><trkpt lat="37.04811" lon="14.7954433"><ele>518.0</ele><time>2026-04-25T07:27:09.927Z</time></trkpt><trkpt lat="37.04812" lon="14.7955367"><ele>518.0</ele><time>2026-04-25T07:27:10.927Z</time></trkpt><trkpt lat="37.048135" lon="14.79564"><ele>517.6</ele><time>2026-04-25T07:27:11.928Z</time></trkpt><trkpt lat="37.04815" lon="14.79575"><ele>517.1999999999999</ele><time>2026-04-25T07:27:12.927Z</time></trkpt><trkpt lat="37.0481683" lon="14.7958617"><ele>516.8</ele><time>2026-04-25T07:27:13.927Z</time></trkpt><trkpt lat="37.0481817" lon="14.7959767"><ele>516.4</ele><time>2026-04-25T07:27:14.928Z</time></trkpt><trkpt lat="37.0482033" lon="14.7960967"><ele>516.0</ele><time>2026-04-25T07:27:15.927Z</time></trkpt><trkpt lat="37.048225" lon="14.7962217"><ele>515.5</ele><time>2026-04-25T07:27:16.928Z</time></trkpt><trkpt lat="37.04825" lon="14.7963583"><ele>515.0</ele><time>2026-04-25T07:27:17.927Z</time></trkpt><trkpt lat="37.048275" lon="14.7965017"><ele>514.5</ele><time>2026-04-25T07:27:18.928Z</time></trkpt><trkpt lat="37.0483" lon="14.7966417"><ele>514.0</ele><time>2026-04-25T07:27:19.928Z</time></trkpt><trkpt lat="37.0483233" lon="14.7967817"><ele>514.0</ele><time>2026-04-25T07:27:20.927Z</time></trkpt><trkpt lat="37.0483533" lon="14.7969083"><ele>514.0</ele><time>2026-04-25T07:27:21.927Z</time></trkpt><trkpt lat="37.0483717" lon="14.797035"><ele>514.0</ele><time>2026-04-25T07:27:22.928Z</time></trkpt><trkpt lat="37.0483917" lon="14.79716"><ele>514.0</ele><time>2026-04-25T07:27:23.927Z</time></trkpt><trkpt lat="37.0484133" lon="14.797285"><ele>514.0</ele><time>2026-04-25T07:27:24.927Z</time></trkpt><trkpt lat="37.0484367" lon="14.79741"><ele>514.0</ele><time>2026-04-25T07:27:25.928Z</time></trkpt><trkpt lat="37.0484583" lon="14.7975367"><ele>514.0</ele><time>2026-04-25T07:27:26.927Z</time></trkpt><trkpt lat="37.048475" lon="14.7976533"><ele>514.0</ele><time>2026-04-25T07:27:27.927Z</time></trkpt><trkpt lat="37.0484917" lon="14.7977717"><ele>514.0</ele><time>2026-04-25T07:27:28.927Z</time></trkpt><trkpt lat="37.0485017" lon="14.7979017"><ele>514.0</ele><time>2026-04-25T07:27:29.927Z</time></trkpt><trkpt lat="37.048505" lon="14.7980233"><ele>513.75</ele><time>2026-04-25T07:27:30.927Z</time></trkpt><trkpt lat="37.04847" lon="14.7981567"><ele>513.5</ele><time>2026-04-25T07:27:31.928Z</time></trkpt><trkpt lat="37.0484083" lon="14.79829"><ele>513.25</ele><time>2026-04-25T07:27:32.928Z</time></trkpt><trkpt lat="37.048335" lon="14.7984083"><ele>513.0</ele><time>2026-04-25T07:27:33.928Z</time></trkpt><trkpt lat="37.0482367" lon="14.7985317"><ele>513.0</ele><time>2026-04-25T07:27:34.927Z</time></trkpt><trkpt lat="37.0481367" lon="14.7986417"><ele>513.0</ele><time>2026-04-25T07:27:35.928Z</time></trkpt><trkpt lat="37.0480283" lon="14.7987583"><ele>513.0</ele><time>2026-04-25T07:27:36.928Z</time></trkpt><trkpt lat="37.0479383" lon="14.7988767"><ele>513.0</ele><time>2026-04-25T07:27:37.928Z</time></trkpt><trkpt lat="37.0478583" lon="14.7989983"><ele>513.0</ele><time>2026-04-25T07:27:38.927Z</time></trkpt><trkpt lat="37.0478" lon="14.79912"><ele>513.0</ele><time>2026-04-25T07:27:39.928Z</time></trkpt><trkpt lat="37.0477767" lon="14.7992567"><ele>513.0</ele><time>2026-04-25T07:27:40.928Z</time></trkpt><trkpt lat="37.0477767" lon="14.7994"><ele>513.0</ele><time>2026-04-25T07:27:41.928Z</time></trkpt><trkpt lat="37.0477967" lon="14.79955"><ele>512.5</ele><time>2026-04-25T07:27:42.928Z</time></trkpt><trkpt lat="37.0478267" lon="14.7997067"><ele>512.0</ele><time>2026-04-25T07:27:43.928Z</time></trkpt><trkpt lat="37.0478633" lon="14.799875"><ele>511.5</ele><time>2026-04-25T07:27:44.928Z</time></trkpt><trkpt lat="37.0479133" lon="14.80003"><ele>511.0</ele><time>2026-04-25T07:27:45.927Z</time></trkpt><trkpt lat="37.0479883" lon="14.8001667"><ele>512.3333333333334</ele><time>2026-04-25T07:27:46.927Z</time></trkpt><trkpt lat="37.0480767" lon="14.8003067"><ele>513.6666666666666</ele><time>2026-04-25T07:27:47.927Z</time></trkpt><trkpt lat="37.0481883" lon="14.8004383"><ele>515.0</ele><time>2026-04-25T07:27:48.927Z</time></trkpt><trkpt lat="37.0483067" lon="14.8005717"><ele>515.0</ele><time>2026-04-25T07:27:49.928Z</time></trkpt><trkpt lat="37.0484233" lon="14.8007117"><ele>515.0</ele><time>2026-04-25T07:27:50.928Z</time></trkpt><trkpt lat="37.0485383" lon="14.8008533"><ele>515.0</ele><time>2026-04-25T07:27:51.928Z</time></trkpt><trkpt lat="37.0486483" lon="14.8009933"><ele>513.0</ele><time>2026-04-25T07:27:52.927Z</time></trkpt><trkpt lat="37.04874" lon="14.801135"><ele>511.0</ele><time>2026-04-25T07:27:53.927Z</time></trkpt><trkpt lat="37.0488417" lon="14.80127"><ele>509.0</ele><time>2026-04-25T07:27:54.927Z</time></trkpt><trkpt lat="37.0489317" lon="14.8014017"><ele>507.0</ele><time>2026-04-25T07:27:55.928Z</time></trkpt><trkpt lat="37.0490283" lon="14.8015283"><ele>507.0</ele><time>2026-04-25T07:27:56.928Z</time></trkpt><trkpt lat="37.04914" lon="14.8016333"><ele>507.0</ele><time>2026-04-25T07:27:57.927Z</time></trkpt><trkpt lat="37.04926" lon="14.80173"><ele>507.0</ele><time>2026-04-25T07:27:58.927Z</time></trkpt><trkpt lat="37.0493883" lon="14.8018217"><ele>507.0</ele><time>2026-04-25T07:27:59.928Z</time></trkpt><trkpt lat="37.0495217" lon="14.80191"><ele>507.0</ele><time>2026-04-25T07:28:00.928Z</time></trkpt><trkpt lat="37.0496583" lon="14.80202"><ele>507.0</ele><time>2026-04-25T07:28:01.928Z</time></trkpt><trkpt lat="37.0497867" lon="14.8021383"><ele>507.0</ele><time>2026-04-25T07:28:02.927Z</time></trkpt><trkpt lat="37.0499083" lon="14.8022683"><ele>507.0</ele><time>2026-04-25T07:28:03.927Z</time></trkpt><trkpt lat="37.050025" lon="14.8024117"><ele>507.0</ele><time>2026-04-25T07:28:04.928Z</time></trkpt><trkpt lat="37.05013" lon="14.80256"><ele>507.0</ele><time>2026-04-25T07:28:05.927Z</time></trkpt><trkpt lat="37.0502317" lon="14.8027033"><ele>507.0</ele><time>2026-04-25T07:28:06.927Z</time></trkpt><trkpt lat="37.0503233" lon="14.8028467"><ele>507.0</ele><time>2026-04-25T07:28:07.928Z</time></trkpt><trkpt lat="37.0503967" lon="14.803"><ele>507.0</ele><time>2026-04-25T07:28:08.927Z</time></trkpt><trkpt lat="37.050465" lon="14.8031567"><ele>507.0</ele><time>2026-04-25T07:28:09.928Z</time></trkpt><trkpt lat="37.0505283" lon="14.8033167"><ele>507.0</ele><time>2026-04-25T07:28:10.927Z</time></trkpt><trkpt lat="37.05059" lon="14.803475"><ele>507.0</ele><time>2026-04-25T07:28:11.927Z</time></trkpt><trkpt lat="37.0506517" lon="14.8036233"><ele>507.0</ele><time>2026-04-25T07:28:12.928Z</time></trkpt><trkpt lat="37.05071" lon="14.8037567"><ele>507.0</ele><time>2026-04-25T07:28:13.928Z</time></trkpt><trkpt lat="37.0507667" lon="14.803885"><ele>506.8</ele><time>2026-04-25T07:28:14.927Z</time></trkpt><trkpt lat="37.0508067" lon="14.8039983"><ele>506.6</ele><time>2026-04-25T07:28:15.928Z</time></trkpt><trkpt lat="37.050815" lon="14.8041133"><ele>506.40000000000003</ele><time>2026-04-25T07:28:16.927Z</time></trkpt><trkpt lat="37.05079" lon="14.8042317"><ele>506.20000000000005</ele><time>2026-04-25T07:28:17.928Z</time></trkpt><trkpt lat="37.0507267" lon="14.8043367"><ele>506.0</ele><time>2026-04-25T07:28:18.927Z</time></trkpt><trkpt lat="37.050635" lon="14.804425"><ele>508.25</ele><time>2026-04-25T07:28:19.928Z</time></trkpt><trkpt lat="37.05052" lon="14.804515"><ele>510.5</ele><time>2026-04-25T07:28:20.927Z</time></trkpt><trkpt lat="37.0504" lon="14.8046083"><ele>512.75</ele><time>2026-04-25T07:28:21.927Z</time></trkpt><trkpt lat="37.050275" lon="14.8047117"><ele>515.0</ele><time>2026-04-25T07:28:22.928Z</time></trkpt><trkpt lat="37.0501483" lon="14.8048183"><ele>515.0</ele><time>2026-04-25T07:28:23.928Z</time></trkpt><trkpt lat="37.0500217" lon="14.8049267"><ele>515.0</ele><time>2026-04-25T07:28:24.928Z</time></trkpt><trkpt lat="37.0498833" lon="14.8050283"><ele>515.0</ele><time>2026-04-25T07:28:25.928Z</time></trkpt><trkpt lat="37.04975" lon="14.8050933"><ele>515.25</ele><time>2026-04-25T07:28:26.928Z</time></trkpt><trkpt lat="37.04961" lon="14.8051383"><ele>515.5</ele><time>2026-04-25T07:28:27.928Z</time></trkpt><trkpt lat="37.0494717" lon="14.8051783"><ele>515.75</ele><time>2026-04-25T07:28:28.928Z</time></trkpt><trkpt lat="37.0493517" lon="14.8052467"><ele>516.0</ele><time>2026-04-25T07:28:29.927Z</time></trkpt><trkpt lat="37.0492483" lon="14.805345"><ele>517.75</ele><time>2026-04-25T07:28:30.927Z</time></trkpt><trkpt lat="37.049175" lon="14.805475"><ele>519.5</ele><time>2026-04-25T07:28:31.927Z</time></trkpt><trkpt lat="37.0491333" lon="14.8056333"><ele>521.25</ele><time>2026-04-25T07:28:32.927Z</time></trkpt><trkpt lat="37.04913" lon="14.8058067"><ele>523.0</ele><time>2026-04-25T07:28:33.928Z</time></trkpt><trkpt lat="37.0491533" lon="14.8059967"><ele>524.0</ele><time>2026-04-25T07:28:34.928Z</time></trkpt><trkpt lat="37.0491967" lon="14.8061867"><ele>525.0</ele><time>2026-04-25T07:28:35.928Z</time></trkpt><trkpt lat="37.049255" lon="14.8063783"><ele>526.0</ele><time>2026-04-25T07:28:36.927Z</time></trkpt><trkpt lat="37.049325" lon="14.8065767"><ele>526.0</ele><time>2026-04-25T07:28:37.928Z</time></trkpt><trkpt lat="37.0494033" lon="14.806775"><ele>526.0</ele><time>2026-04-25T07:28:38.927Z</time></trkpt><trkpt lat="37.0494833" lon="14.806965"><ele>526.0</ele><time>2026-04-25T07:28:39.927Z</time></trkpt><trkpt lat="37.0495583" lon="14.8071617"><ele>526.6666666666667</ele><time>2026-04-25T07:28:40.928Z</time></trkpt><trkpt lat="37.0496367" lon="14.8073533"><ele>527.3333333333334</ele><time>2026-04-25T07:28:41.928Z</time></trkpt><trkpt lat="37.0497233" lon="14.80754"><ele>528.0</ele><time>2026-04-25T07:28:42.928Z</time></trkpt><trkpt lat="37.0498017" lon="14.80773"><ele>528.0</ele><time>2026-04-25T07:28:43.928Z</time></trkpt><trkpt lat="37.0498867" lon="14.8079233"><ele>528.0</ele><time>2026-04-25T07:28:44.927Z</time></trkpt><trkpt lat="37.0499617" lon="14.808105"><ele>528.0</ele><time>2026-04-25T07:28:45.928Z</time></trkpt><trkpt lat="37.0500317" lon="14.8082767"><ele>528.75</ele><time>2026-04-25T07:28:46.928Z</time></trkpt><trkpt lat="37.0501" lon="14.80844"><ele>529.5</ele><time>2026-04-25T07:28:47.928Z</time></trkpt><trkpt lat="37.050165" lon="14.808575"><ele>530.25</ele><time>2026-04-25T07:28:48.928Z</time></trkpt><trkpt lat="37.0502517" lon="14.8086883"><ele>531.0</ele><time>2026-04-25T07:28:49.928Z</time></trkpt><trkpt lat="37.0503633" lon="14.8087667"><ele>531.0</ele><time>2026-04-25T07:28:50.928Z</time></trkpt><trkpt lat="37.0504917" lon="14.8088167"><ele>531.0</ele><time>2026-04-25T07:28:51.928Z</time></trkpt><trkpt lat="37.0506117" lon="14.8088533"><ele>531.0</ele><time>2026-04-25T07:28:52.928Z</time></trkpt><trkpt lat="37.05072" lon="14.8088967"><ele>531.0</ele><time>2026-04-25T07:28:53.928Z</time></trkpt><trkpt lat="37.0508117" lon="14.80895"><ele>532.0</ele><time>2026-04-25T07:28:54.927Z</time></trkpt><trkpt lat="37.0508967" lon="14.8089983"><ele>533.0</ele><time>2026-04-25T07:28:55.927Z</time></trkpt><trkpt lat="37.0509733" lon="14.80902"><ele>534.0</ele><time>2026-04-25T07:28:56.927Z</time></trkpt><trkpt lat="37.0510517" lon="14.8090067"><ele>535.0</ele><time>2026-04-25T07:28:57.927Z</time></trkpt><trkpt lat="37.0511267" lon="14.80895"><ele>536.0</ele><time>2026-04-25T07:28:58.928Z</time></trkpt><trkpt lat="37.05123" lon="14.8088683"><ele>536.0</ele><time>2026-04-25T07:28:59.928Z</time></trkpt><trkpt lat="37.0513417" lon="14.8087767"><ele>536.0</ele><time>2026-04-25T07:29:00.927Z</time></trkpt><trkpt lat="37.05147" lon="14.8086817"><ele>536.0</ele><time>2026-04-25T07:29:01.928Z</time></trkpt><trkpt lat="37.0516" lon="14.80859"><ele>536.0</ele><time>2026-04-25T07:29:02.927Z</time></trkpt><trkpt lat="37.05173" lon="14.808505"><ele>537.6666666666666</ele><time>2026-04-25T07:29:03.927Z</time></trkpt><trkpt lat="37.0518667" lon="14.8084117"><ele>539.3333333333334</ele><time>2026-04-25T07:29:04.927Z</time></trkpt><trkpt lat="37.052" lon="14.8083217"><ele>541.0</ele><time>2026-04-25T07:29:05.928Z</time></trkpt><trkpt lat="37.0521367" lon="14.8082383"><ele>541.0</ele><time>2026-04-25T07:29:06.927Z</time></trkpt><trkpt lat="37.05226" lon="14.808155"><ele>541.0</ele><time>2026-04-25T07:29:07.928Z</time></trkpt><trkpt lat="37.0523783" lon="14.8080867"><ele>541.0</ele><time>2026-04-25T07:29:08.928Z</time></trkpt><trkpt lat="37.0524867" lon="14.8080433"><ele>541.0</ele><time>2026-04-25T07:29:09.928Z</time></trkpt><trkpt lat="37.0526033" lon="14.8080417"><ele>542.25</ele><time>2026-04-25T07:29:10.927Z</time></trkpt><trkpt lat="37.0527267" lon="14.8080883"><ele>543.5</ele><time>2026-04-25T07:29:11.928Z</time></trkpt><trkpt lat="37.052845" lon="14.8081733"><ele>544.75</ele><time>2026-04-25T07:29:12.928Z</time></trkpt><trkpt lat="37.0529667" lon="14.8082683"><ele>546.0</ele><time>2026-04-25T07:29:13.928Z</time></trkpt><trkpt lat="37.0530933" lon="14.8083617"><ele>546.0</ele><time>2026-04-25T07:29:14.928Z</time></trkpt><trkpt lat="37.0532233" lon="14.8084567"><ele>546.0</ele><time>2026-04-25T07:29:15.928Z</time></trkpt><trkpt lat="37.053355" lon="14.8085467"><ele>546.0</ele><time>2026-04-25T07:29:16.927Z</time></trkpt><trkpt lat="37.053475" lon="14.8086283"><ele>546.0</ele><time>2026-04-25T07:29:17.928Z</time></trkpt><trkpt lat="37.0535933" lon="14.808715"><ele>548.25</ele><time>2026-04-25T07:29:18.927Z</time></trkpt><trkpt lat="37.0536933" lon="14.80881"><ele>550.5</ele><time>2026-04-25T07:29:19.927Z</time></trkpt><trkpt lat="37.053775" lon="14.8089267"><ele>552.75</ele><time>2026-04-25T07:29:20.928Z</time></trkpt><trkpt lat="37.0538267" lon="14.8090683"><ele>555.0</ele><time>2026-04-25T07:29:21.928Z</time></trkpt><trkpt lat="37.0538533" lon="14.8092233"><ele>556.5</ele><time>2026-04-25T07:29:22.928Z</time></trkpt><trkpt lat="37.053855" lon="14.8094"><ele>558.0</ele><time>2026-04-25T07:29:23.928Z</time></trkpt><trkpt lat="37.0538367" lon="14.8095817"><ele>559.5</ele><time>2026-04-25T07:29:24.928Z</time></trkpt><trkpt lat="37.0538283" lon="14.809755"><ele>561.0</ele><time>2026-04-25T07:29:25.927Z</time></trkpt><trkpt lat="37.0538433" lon="14.80994"><ele>561.0</ele><time>2026-04-25T07:29:26.928Z</time></trkpt><trkpt lat="37.0538883" lon="14.8101267"><ele>561.0</ele><time>2026-04-25T07:29:27.928Z</time></trkpt><trkpt lat="37.05395" lon="14.8103133"><ele>561.0</ele><time>2026-04-25T07:29:28.928Z</time></trkpt><trkpt lat="37.0540167" lon="14.810495"><ele>560.6666666666666</ele><time>2026-04-25T07:29:29.928Z</time></trkpt><trkpt lat="37.054085" lon="14.810665"><ele>560.3333333333333</ele><time>2026-04-25T07:29:30.928Z</time></trkpt><trkpt lat="37.054175" lon="14.8108267"><ele>560.0</ele><time>2026-04-25T07:29:31.928Z</time></trkpt><trkpt lat="37.05427" lon="14.8109733"><ele>564.6666666666666</ele><time>2026-04-25T07:29:32.927Z</time></trkpt><trkpt lat="37.054385" lon="14.8110983"><ele>569.3333333333334</ele><time>2026-04-25T07:29:33.928Z</time></trkpt><trkpt lat="37.0545117" lon="14.8112133"><ele>574.0</ele><time>2026-04-25T07:29:34.928Z</time></trkpt><trkpt lat="37.0546483" lon="14.8112933"><ele>574.0</ele><time>2026-04-25T07:29:35.928Z</time></trkpt><trkpt lat="37.0547833" lon="14.8113583"><ele>574.0</ele><time>2026-04-25T07:29:36.928Z</time></trkpt><trkpt lat="37.0549183" lon="14.8114217"><ele>574.0</ele><time>2026-04-25T07:29:37.927Z</time></trkpt><trkpt lat="37.05506" lon="14.8114533"><ele>574.0</ele><time>2026-04-25T07:29:38.927Z</time></trkpt><trkpt lat="37.0552067" lon="14.811485"><ele>576.6666666666667</ele><time>2026-04-25T07:29:39.928Z</time></trkpt><trkpt lat="37.0553767" lon="14.8114567"><ele>579.3333333333334</ele><time>2026-04-25T07:29:40.928Z</time></trkpt><trkpt lat="37.0555183" lon="14.8114333"><ele>582.0</ele><time>2026-04-25T07:29:41.927Z</time></trkpt><trkpt lat="37.0556517" lon="14.8113717"><ele>582.0</ele><time>2026-04-25T07:29:42.928Z</time></trkpt><trkpt lat="37.0557867" lon="14.8112867"><ele>582.0</ele><time>2026-04-25T07:29:43.928Z</time></trkpt><trkpt lat="37.0559133" lon="14.811185"><ele>582.0</ele><time>2026-04-25T07:29:44.928Z</time></trkpt><trkpt lat="37.0560433" lon="14.8110917"><ele>584.5</ele><time>2026-04-25T07:29:45.927Z</time></trkpt><trkpt lat="37.0561667" lon="14.8110217"><ele>587.0</ele><time>2026-04-25T07:29:46.928Z</time></trkpt><trkpt lat="37.05628" lon="14.8109933"><ele>589.5</ele><time>2026-04-25T07:29:47.928Z</time></trkpt><trkpt lat="37.0563933" lon="14.81099"><ele>592.0</ele><time>2026-04-25T07:29:48.927Z</time></trkpt><trkpt lat="37.056485" lon="14.81103"><ele>592.0</ele><time>2026-04-25T07:29:49.928Z</time></trkpt><trkpt lat="37.0565533" lon="14.8111033"><ele>592.0</ele><time>2026-04-25T07:29:50.928Z</time></trkpt><trkpt lat="37.056605" lon="14.8112033"><ele>592.0</ele><time>2026-04-25T07:29:51.927Z</time></trkpt><trkpt lat="37.0566" lon="14.811325"><ele>592.0</ele><time>2026-04-25T07:29:52.928Z</time></trkpt><trkpt lat="37.0565717" lon="14.8114567"><ele>592.0</ele><time>2026-04-25T07:29:53.928Z</time></trkpt><trkpt lat="37.0564967" lon="14.811585"><ele>592.0</ele><time>2026-04-25T07:29:54.927Z</time></trkpt><trkpt lat="37.056405" lon="14.81171"><ele>592.0</ele><time>2026-04-25T07:29:55.928Z</time></trkpt><trkpt lat="37.0563017" lon="14.81183"><ele>592.0</ele><time>2026-04-25T07:29:56.928Z</time></trkpt><trkpt lat="37.0561983" lon="14.8119467"><ele>592.0</ele><time>2026-04-25T07:29:57.928Z</time></trkpt><trkpt lat="37.0560933" lon="14.8120733"><ele>591.0</ele><time>2026-04-25T07:29:58.927Z</time></trkpt><trkpt lat="37.0559917" lon="14.812205"><ele>590.0</ele><time>2026-04-25T07:29:59.928Z</time></trkpt><trkpt lat="37.0558833" lon="14.8123367"><ele>589.0</ele><time>2026-04-25T07:30:00.928Z</time></trkpt><trkpt lat="37.0557717" lon="14.8124717"><ele>589.0</ele><time>2026-04-25T07:30:01.928Z</time></trkpt><trkpt lat="37.0556633" lon="14.8126017"><ele>589.0</ele><time>2026-04-25T07:30:02.928Z</time></trkpt><trkpt lat="37.0555633" lon="14.81273"><ele>589.0</ele><time>2026-04-25T07:30:03.928Z</time></trkpt><trkpt lat="37.05547" lon="14.81287"><ele>589.0</ele><time>2026-04-25T07:30:04.927Z</time></trkpt><trkpt lat="37.0553967" lon="14.813025"><ele>591.25</ele><time>2026-04-25T07:30:05.928Z</time></trkpt><trkpt lat="37.0553417" lon="14.8131967"><ele>593.5</ele><time>2026-04-25T07:30:06.927Z</time></trkpt><trkpt lat="37.055295" lon="14.813365"><ele>595.75</ele><time>2026-04-25T07:30:07.928Z</time></trkpt><trkpt lat="37.0552517" lon="14.813525"><ele>598.0</ele><time>2026-04-25T07:30:08.927Z</time></trkpt><trkpt lat="37.0552317" lon="14.813675"><ele>598.1999999999999</ele><time>2026-04-25T07:30:09.927Z</time></trkpt><trkpt lat="37.0552283" lon="14.8138217"><ele>598.4</ele><time>2026-04-25T07:30:10.927Z</time></trkpt><trkpt lat="37.0552617" lon="14.8139483"><ele>598.5999999999999</ele><time>2026-04-25T07:30:11.928Z</time></trkpt><trkpt lat="37.05532" lon="14.81407"><ele>598.8</ele><time>2026-04-25T07:30:12.928Z</time></trkpt><trkpt lat="37.0554083" lon="14.814155"><ele>599.0</ele><time>2026-04-25T07:30:13.928Z</time></trkpt><trkpt lat="37.055515" lon="14.8141983"><ele>599.0</ele><time>2026-04-25T07:30:14.927Z</time></trkpt><trkpt lat="37.05563" lon="14.8142017"><ele>599.0</ele><time>2026-04-25T07:30:15.927Z</time></trkpt><trkpt lat="37.0557483" lon="14.8141483"><ele>599.0</ele><time>2026-04-25T07:30:16.928Z</time></trkpt><trkpt lat="37.0558867" lon="14.8140633"><ele>599.0</ele><time>2026-04-25T07:30:17.927Z</time></trkpt><trkpt lat="37.0560217" lon="14.8139817"><ele>600.5</ele><time>2026-04-25T07:30:18.928Z</time></trkpt><trkpt lat="37.056155" lon="14.8139183"><ele>602.0</ele><time>2026-04-25T07:30:19.927Z</time></trkpt><trkpt lat="37.0562833" lon="14.8138783"><ele>603.5</ele><time>2026-04-25T07:30:20.927Z</time></trkpt><trkpt lat="37.0564083" lon="14.8138517"><ele>605.0</ele><time>2026-04-25T07:30:21.928Z</time></trkpt><trkpt lat="37.0565367" lon="14.8138483"><ele>606.75</ele><time>2026-04-25T07:30:22.927Z</time></trkpt><trkpt lat="37.05667" lon="14.8138867"><ele>608.5</ele><time>2026-04-25T07:30:23.928Z</time></trkpt><trkpt lat="37.0568033" lon="14.8139433"><ele>610.25</ele><time>2026-04-25T07:30:24.928Z</time></trkpt><trkpt lat="37.0569383" lon="14.81399"><ele>612.0</ele><time>2026-04-25T07:30:25.927Z</time></trkpt><trkpt lat="37.0570817" lon="14.81404"><ele>612.0</ele><time>2026-04-25T07:30:26.928Z</time></trkpt><trkpt lat="37.0572267" lon="14.8140883"><ele>612.0</ele><time>2026-04-25T07:30:27.928Z</time></trkpt><trkpt lat="37.0573667" lon="14.81414"><ele>612.0</ele><time>2026-04-25T07:30:28.928Z</time></trkpt><trkpt lat="37.0574983" lon="14.8141967"><ele>612.0</ele><time>2026-04-25T07:30:29.928Z</time></trkpt><trkpt lat="37.0576433" lon="14.8142317"><ele>613.5</ele><time>2026-04-25T07:30:30.927Z</time></trkpt><trkpt lat="37.0577867" lon="14.81424"><ele>615.0</ele><time>2026-04-25T07:30:31.927Z</time></trkpt><trkpt lat="37.0579183" lon="14.8142283"><ele>616.5</ele><time>2026-04-25T07:30:32.928Z</time></trkpt><trkpt lat="37.05804" lon="14.814165"><ele>618.0</ele><time>2026-04-25T07:30:33.928Z</time></trkpt><trkpt lat="37.0581517" lon="14.8140667"><ele>618.0</ele><time>2026-04-25T07:30:34.927Z</time></trkpt><trkpt lat="37.0582633" lon="14.813945"><ele>618.0</ele><time>2026-04-25T07:30:35.928Z</time></trkpt><trkpt lat="37.0583767" lon="14.81382"><ele>618.0</ele><time>2026-04-25T07:30:36.928Z</time></trkpt><trkpt lat="37.05849" lon="14.81368"><ele>618.3333333333334</ele><time>2026-04-25T07:30:37.928Z</time></trkpt><trkpt lat="37.0586033" lon="14.8135467"><ele>618.6666666666667</ele><time>2026-04-25T07:30:38.927Z</time></trkpt><trkpt lat="37.058705" lon="14.81341"><ele>619.0</ele><time>2026-04-25T07:30:39.928Z</time></trkpt><trkpt lat="37.05881" lon="14.8132733"><ele>620.0</ele><time>2026-04-25T07:30:40.928Z</time></trkpt><trkpt lat="37.0589117" lon="14.8131417"><ele>621.0</ele><time>2026-04-25T07:30:41.928Z</time></trkpt><trkpt lat="37.0590083" lon="14.8130133"><ele>622.0</ele><time>2026-04-25T07:30:42.928Z</time></trkpt><trkpt lat="37.059095" lon="14.812885"><ele>623.0</ele><time>2026-04-25T07:30:43.927Z</time></trkpt><trkpt lat="37.0591967" lon="14.81276"><ele>623.0</ele><time>2026-04-25T07:30:44.927Z</time></trkpt><trkpt lat="37.0593033" lon="14.81266"><ele>623.0</ele><time>2026-04-25T07:30:45.928Z</time></trkpt><trkpt lat="37.0594217" lon="14.812585"><ele>623.0</ele><time>2026-04-25T07:30:46.927Z</time></trkpt><trkpt lat="37.0595383" lon="14.8125317"><ele>623.0</ele><time>2026-04-25T07:30:47.928Z</time></trkpt><trkpt lat="37.05967" lon="14.8124767"><ele>626.25</ele><time>2026-04-25T07:30:48.927Z</time></trkpt><trkpt lat="37.0598017" lon="14.8124167"><ele>629.5</ele><time>2026-04-25T07:30:49.927Z</time></trkpt><trkpt lat="37.059935" lon="14.81236"><ele>632.75</ele><time>2026-04-25T07:30:50.928Z</time></trkpt><trkpt lat="37.0600617" lon="14.8123033"><ele>636.0</ele><time>2026-04-25T07:30:51.927Z</time></trkpt><trkpt lat="37.060195" lon="14.8122683"><ele>636.0</ele><time>2026-04-25T07:30:52.927Z</time></trkpt><trkpt lat="37.0603283" lon="14.8122467"><ele>636.0</ele><time>2026-04-25T07:30:53.927Z</time></trkpt><trkpt lat="37.0604517" lon="14.8122433"><ele>636.0</ele><time>2026-04-25T07:30:54.928Z</time></trkpt><trkpt lat="37.06057" lon="14.8122583"><ele>636.0</ele><time>2026-04-25T07:30:55.928Z</time></trkpt><trkpt lat="37.0606967" lon="14.812295"><ele>638.0</ele><time>2026-04-25T07:30:56.927Z</time></trkpt><trkpt lat="37.060815" lon="14.8123717"><ele>640.0</ele><time>2026-04-25T07:30:57.927Z</time></trkpt><trkpt lat="37.0609333" lon="14.8124633"><ele>642.0</ele><time>2026-04-25T07:30:58.928Z</time></trkpt><trkpt lat="37.061055" lon="14.812575"><ele>644.0</ele><time>2026-04-25T07:30:59.928Z</time></trkpt><trkpt lat="37.06118" lon="14.8126767"><ele>637.3333333333333</ele><time>2026-04-25T07:31:00.928Z</time></trkpt><trkpt lat="37.0613183" lon="14.8127667"><ele>630.6666666666666</ele><time>2026-04-25T07:31:01.928Z</time></trkpt><trkpt lat="37.0614633" lon="14.812845"><ele>624.0</ele><time>2026-04-25T07:31:02.927Z</time></trkpt><trkpt lat="37.0616133" lon="14.8128983"><ele>628.0</ele><time>2026-04-25T07:31:03.928Z</time></trkpt><trkpt lat="37.0617683" lon="14.812945"><ele>632.0</ele><time>2026-04-25T07:31:04.927Z</time></trkpt><trkpt lat="37.06193" lon="14.8129933"><ele>636.0</ele><time>2026-04-25T07:31:05.928Z</time></trkpt><trkpt lat="37.0620917" lon="14.8130333"><ele>636.0</ele><time>2026-04-25T07:31:06.928Z</time></trkpt><trkpt lat="37.0622583" lon="14.8130767"><ele>636.0</ele><time>2026-04-25T07:31:07.927Z</time></trkpt><trkpt lat="37.06242" lon="14.8131133"><ele>636.0</ele><time>2026-04-25T07:31:08.927Z</time></trkpt><trkpt lat="37.0625833" lon="14.8131433"><ele>641.3333333333334</ele><time>2026-04-25T07:31:09.928Z</time></trkpt><trkpt lat="37.0627467" lon="14.8131733"><ele>646.6666666666667</ele><time>2026-04-25T07:31:10.928Z</time></trkpt><trkpt lat="37.062905" lon="14.8131983"><ele>652.0</ele><time>2026-04-25T07:31:11.927Z</time></trkpt><trkpt lat="37.0630533" lon="14.8132383"><ele>652.0</ele><time>2026-04-25T07:31:12.927Z</time></trkpt><trkpt lat="37.0631833" lon="14.81329"><ele>652.0</ele><time>2026-04-25T07:31:13.927Z</time></trkpt><trkpt lat="37.0633183" lon="14.8133633"><ele>652.0</ele><time>2026-04-25T07:31:14.928Z</time></trkpt><trkpt lat="37.06345" lon="14.8134667"><ele>652.0</ele><time>2026-04-25T07:31:15.927Z</time></trkpt><trkpt lat="37.06357" lon="14.8135783"><ele>652.25</ele><time>2026-04-25T07:31:16.928Z</time></trkpt><trkpt lat="37.0636933" lon="14.8136867"><ele>652.5</ele><time>2026-04-25T07:31:17.927Z</time></trkpt><trkpt lat="37.0638017" lon="14.8138117"><ele>652.75</ele><time>2026-04-25T07:31:18.928Z</time></trkpt><trkpt lat="37.0638883" lon="14.813955"><ele>653.0</ele><time>2026-04-25T07:31:19.927Z</time></trkpt><trkpt lat="37.0639767" lon="14.81411"><ele>653.0</ele><time>2026-04-25T07:31:20.928Z</time></trkpt><trkpt lat="37.064065" lon="14.8142267"><ele>653.0</ele><time>2026-04-25T07:31:21.927Z</time></trkpt><trkpt lat="37.0641783" lon="14.81433"><ele>653.0</ele><time>2026-04-25T07:31:22.928Z</time></trkpt><trkpt lat="37.0643" lon="14.8144283"><ele>653.0</ele><time>2026-04-25T07:31:23.927Z</time></trkpt><trkpt lat="37.064425" lon="14.8145317"><ele>655.0</ele><time>2026-04-25T07:31:24.928Z</time></trkpt><trkpt lat="37.0645633" lon="14.8146367"><ele>657.0</ele><time>2026-04-25T07:31:25.928Z</time></trkpt><trkpt lat="37.0646917" lon="14.8147417"><ele>659.0</ele><time>2026-04-25T07:31:26.927Z</time></trkpt><trkpt lat="37.0648117" lon="14.8148517"><ele>659.0</ele><time>2026-04-25T07:31:27.928Z</time></trkpt><trkpt lat="37.0649267" lon="14.8149567"><ele>659.0</ele><time>2026-04-25T07:31:28.928Z</time></trkpt><trkpt lat="37.065035" lon="14.8150433"><ele>659.0</ele><time>2026-04-25T07:31:29.928Z</time></trkpt><trkpt lat="37.065155" lon="14.8150983"><ele>659.0</ele><time>2026-04-25T07:31:30.927Z</time></trkpt><trkpt lat="37.0652817" lon="14.8151167"><ele>662.75</ele><time>2026-04-25T07:31:31.928Z</time></trkpt><trkpt lat="37.0654167" lon="14.8150983"><ele>666.5</ele><time>2026-04-25T07:31:32.928Z</time></trkpt><trkpt lat="37.0655483" lon="14.815065"><ele>670.25</ele><time>2026-04-25T07:31:33.927Z</time></trkpt><trkpt lat="37.065685" lon="14.8150183"><ele>674.0</ele><time>2026-04-25T07:31:34.927Z</time></trkpt><trkpt lat="37.065825" lon="14.8149717"><ele>677.75</ele><time>2026-04-25T07:31:35.928Z</time></trkpt><trkpt lat="37.065965" lon="14.8149483"><ele>681.5</ele><time>2026-04-25T07:31:36.927Z</time></trkpt><trkpt lat="37.06611" lon="14.8149383"><ele>685.25</ele><time>2026-04-25T07:31:37.927Z</time></trkpt><trkpt lat="37.0662567" lon="14.8149467"><ele>689.0</ele><time>2026-04-25T07:31:38.928Z</time></trkpt><trkpt lat="37.0664067" lon="14.8149717"><ele>689.0</ele><time>2026-04-25T07:31:39.928Z</time></trkpt><trkpt lat="37.0665583" lon="14.815005"><ele>689.0</ele><time>2026-04-25T07:31:40.927Z</time></trkpt><trkpt lat="37.06671" lon="14.8150317"><ele>689.0</ele><time>2026-04-25T07:31:41.927Z</time></trkpt><trkpt lat="37.0668717" lon="14.8150717"><ele>692.3333333333333</ele><time>2026-04-25T07:31:42.928Z</time></trkpt><trkpt lat="37.0670267" lon="14.815105"><ele>695.6666666666666</ele><time>2026-04-25T07:31:43.928Z</time></trkpt><trkpt lat="37.0671767" lon="14.8151467"><ele>699.0</ele><time>2026-04-25T07:31:44.927Z</time></trkpt><trkpt lat="37.0673233" lon="14.815195"><ele>696.0</ele><time>2026-04-25T07:31:45.928Z</time></trkpt><trkpt lat="37.0674783" lon="14.8152483"><ele>693.0</ele><time>2026-04-25T07:31:46.927Z</time></trkpt><trkpt lat="37.067615" lon="14.8153233"><ele>690.0</ele><time>2026-04-25T07:31:47.927Z</time></trkpt><trkpt lat="37.0677433" lon="14.8154133"><ele>690.0</ele><time>2026-04-25T07:31:48.927Z</time></trkpt><trkpt lat="37.067875" lon="14.8155167"><ele>690.0</ele><time>2026-04-25T07:31:49.928Z</time></trkpt><trkpt lat="37.0679917" lon="14.81563"><ele>690.0</ele><time>2026-04-25T07:31:50.927Z</time></trkpt><trkpt lat="37.06811" lon="14.8157483"><ele>690.0</ele><time>2026-04-25T07:31:51.927Z</time></trkpt><trkpt lat="37.06824" lon="14.8158533"><ele>690.0</ele><time>2026-04-25T07:31:52.927Z</time></trkpt><trkpt lat="37.0683817" lon="14.8159633"><ele>690.0</ele><time>2026-04-25T07:31:53.927Z</time></trkpt><trkpt lat="37.0685283" lon="14.8160417"><ele>690.0</ele><time>2026-04-25T07:31:54.928Z</time></trkpt><trkpt lat="37.06868" lon="14.81612"><ele>690.0</ele><time>2026-04-25T07:31:55.928Z</time></trkpt><trkpt lat="37.06883" lon="14.8161967"><ele>690.0</ele><time>2026-04-25T07:31:56.928Z</time></trkpt><trkpt lat="37.0689833" lon="14.8162517"><ele>694.6666666666666</ele><time>2026-04-25T07:31:57.927Z</time></trkpt><trkpt lat="37.06914" lon="14.8162917"><ele>699.3333333333333</ele><time>2026-04-25T07:31:58.928Z</time></trkpt><trkpt lat="37.0693033" lon="14.8163183"><ele>704.0</ele><time>2026-04-25T07:31:59.928Z</time></trkpt><trkpt lat="37.06947" lon="14.816335"><ele>704.0</ele><time>2026-04-25T07:32:00.927Z</time></trkpt><trkpt lat="37.06963" lon="14.81636"><ele>704.0</ele><time>2026-04-25T07:32:01.928Z</time></trkpt><trkpt lat="37.0697867" lon="14.8163767"><ele>704.0</ele><time>2026-04-25T07:32:02.927Z</time></trkpt><trkpt lat="37.06994" lon="14.8163967"><ele>706.3333333333333</ele><time>2026-04-25T07:32:03.928Z</time></trkpt><trkpt lat="37.0700983" lon="14.8163983"><ele>708.6666666666666</ele><time>2026-04-25T07:32:04.928Z</time></trkpt><trkpt lat="37.07026" lon="14.816405"><ele>711.0</ele><time>2026-04-25T07:32:05.928Z</time></trkpt><trkpt lat="37.0704183" lon="14.8163967"><ele>711.0</ele><time>2026-04-25T07:32:06.928Z</time></trkpt><trkpt lat="37.0705717" lon="14.816385"><ele>711.0</ele><time>2026-04-25T07:32:07.928Z</time></trkpt><trkpt lat="37.070715" lon="14.816355"><ele>711.0</ele><time>2026-04-25T07:32:08.928Z</time></trkpt><trkpt lat="37.07086" lon="14.8163167"><ele>711.0</ele><time>2026-04-25T07:32:09.928Z</time></trkpt><trkpt lat="37.0710017" lon="14.8163033"><ele>712.0</ele><time>2026-04-25T07:32:10.927Z</time></trkpt><trkpt lat="37.07116" lon="14.8163183"><ele>713.0</ele><time>2026-04-25T07:32:11.927Z</time></trkpt><trkpt lat="37.0713167" lon="14.8163433"><ele>714.0</ele><time>2026-04-25T07:32:12.928Z</time></trkpt><trkpt lat="37.0714817" lon="14.81637"><ele>716.0</ele><time>2026-04-25T07:32:13.928Z</time></trkpt><trkpt lat="37.07164" lon="14.8163967"><ele>718.0</ele><time>2026-04-25T07:32:14.928Z</time></trkpt><trkpt lat="37.0718017" lon="14.8164233"><ele>720.0</ele><time>2026-04-25T07:32:15.928Z</time></trkpt><trkpt lat="37.071965" lon="14.8164433"><ele>720.0</ele><time>2026-04-25T07:32:16.928Z</time></trkpt><trkpt lat="37.0721283" lon="14.8164683"><ele>720.0</ele><time>2026-04-25T07:32:17.928Z</time></trkpt><trkpt lat="37.0722867" lon="14.81649"><ele>720.0</ele><time>2026-04-25T07:32:18.928Z</time></trkpt><trkpt lat="37.0724417" lon="14.816505"><ele>722.0</ele><time>2026-04-25T07:32:19.927Z</time></trkpt><trkpt lat="37.0725933" lon="14.8165283"><ele>724.0</ele><time>2026-04-25T07:32:20.927Z</time></trkpt><trkpt lat="37.0727367" lon="14.816535"><ele>726.0</ele><time>2026-04-25T07:32:21.927Z</time></trkpt><trkpt lat="37.0728783" lon="14.8165283"><ele>728.0</ele><time>2026-04-25T07:32:22.927Z</time></trkpt><trkpt lat="37.073005" lon="14.8165017"><ele>728.0</ele><time>2026-04-25T07:32:23.927Z</time></trkpt><trkpt lat="37.073125" lon="14.81647"><ele>728.0</ele><time>2026-04-25T07:32:24.928Z</time></trkpt><trkpt lat="37.0732383" lon="14.8164667"><ele>728.0</ele><time>2026-04-25T07:32:25.927Z</time></trkpt><trkpt lat="37.0733483" lon="14.8165"><ele>728.0</ele><time>2026-04-25T07:32:26.928Z</time></trkpt><trkpt lat="37.073445" lon="14.8165383"><ele>727.5999999999999</ele><time>2026-04-25T07:32:27.927Z</time></trkpt><trkpt lat="37.0735317" lon="14.8166117"><ele>727.1999999999999</ele><time>2026-04-25T07:32:28.927Z</time></trkpt><trkpt lat="37.0736033" lon="14.8167117"><ele>726.8</ele><time>2026-04-25T07:32:29.927Z</time></trkpt><trkpt lat="37.0736517" lon="14.8168383"><ele>726.4</ele><time>2026-04-25T07:32:30.927Z</time></trkpt><trkpt lat="37.0736833" lon="14.81698"><ele>726.0</ele><time>2026-04-25T07:32:31.927Z</time></trkpt><trkpt lat="37.073695" lon="14.8171283"><ele>726.0</ele><time>2026-04-25T07:32:32.927Z</time></trkpt><trkpt lat="37.0736967" lon="14.817285"><ele>726.0</ele><time>2026-04-25T07:32:33.927Z</time></trkpt><trkpt lat="37.0737" lon="14.8174367"><ele>726.0</ele><time>2026-04-25T07:32:34.927Z</time></trkpt><trkpt lat="37.0737033" lon="14.8175817"><ele>726.0</ele><time>2026-04-25T07:32:35.928Z</time></trkpt><trkpt lat="37.0737183" lon="14.8177033"><ele>726.0</ele><time>2026-04-25T07:32:36.928Z</time></trkpt><trkpt lat="37.0737467" lon="14.817795"><ele>726.0</ele><time>2026-04-25T07:32:37.927Z</time></trkpt><trkpt lat="37.073825" lon="14.8178617"><ele>726.0</ele><time>2026-04-25T07:32:39.927Z</time></trkpt><trkpt lat="37.0739033" lon="14.8177417"><ele>726.0</ele><time>2026-04-25T07:32:41.927Z</time></trkpt><trkpt lat="37.0739017" lon="14.8176067"><ele>726.0</ele><time>2026-04-25T07:32:42.928Z</time></trkpt><trkpt lat="37.0738883" lon="14.8174383"><ele>726.0</ele><time>2026-04-25T07:32:43.928Z</time></trkpt><trkpt lat="37.0738833" lon="14.8172633"><ele>726.0</ele><time>2026-04-25T07:32:44.927Z</time></trkpt><trkpt lat="37.07388" lon="14.8171"><ele>726.0</ele><time>2026-04-25T07:32:45.927Z</time></trkpt><trkpt lat="37.0738767" lon="14.8169333"><ele>726.0</ele><time>2026-04-25T07:32:46.927Z</time></trkpt><trkpt lat="37.0738783" lon="14.816775"><ele>729.0</ele><time>2026-04-25T07:32:47.928Z</time></trkpt><trkpt lat="37.0738817" lon="14.8166133"><ele>732.0</ele><time>2026-04-25T07:32:48.927Z</time></trkpt><trkpt lat="37.073885" lon="14.81645"><ele>735.0</ele><time>2026-04-25T07:32:49.927Z</time></trkpt><trkpt lat="37.0739" lon="14.816295"><ele>738.0</ele><time>2026-04-25T07:32:50.928Z</time></trkpt><trkpt lat="37.0739317" lon="14.816155"><ele>738.0</ele><time>2026-04-25T07:32:51.927Z</time></trkpt><trkpt lat="37.07397" lon="14.8160267"><ele>738.0</ele><time>2026-04-25T07:32:52.928Z</time></trkpt><trkpt lat="37.0740267" lon="14.815935"><ele>738.0</ele><time>2026-04-25T07:32:53.928Z</time></trkpt><trkpt lat="37.0740983" lon="14.815875"><ele>738.0</ele><time>2026-04-25T07:32:54.928Z</time></trkpt><trkpt lat="37.0741917" lon="14.8158467"><ele>738.0</ele><time>2026-04-25T07:32:55.928Z</time></trkpt><trkpt lat="37.074305" lon="14.8158433"><ele>741.25</ele><time>2026-04-25T07:32:56.928Z</time></trkpt><trkpt lat="37.074435" lon="14.815845"><ele>744.5</ele><time>2026-04-25T07:32:57.928Z</time></trkpt><trkpt lat="37.0745683" lon="14.8158467"><ele>747.75</ele><time>2026-04-25T07:32:58.928Z</time></trkpt><trkpt lat="37.0747083" lon="14.8158417"><ele>751.0</ele><time>2026-04-25T07:32:59.928Z</time></trkpt><trkpt lat="37.0748567" lon="14.8158333"><ele>753.3333333333334</ele><time>2026-04-25T07:33:00.928Z</time></trkpt><trkpt lat="37.075005" lon="14.8158333"><ele>755.6666666666666</ele><time>2026-04-25T07:33:01.928Z</time></trkpt><trkpt lat="37.0751617" lon="14.8158317"><ele>758.0</ele><time>2026-04-25T07:33:02.928Z</time></trkpt><trkpt lat="37.0753167" lon="14.8158317"><ele>758.0</ele><time>2026-04-25T07:33:03.928Z</time></trkpt><trkpt lat="37.0754733" lon="14.81584"><ele>758.0</ele><time>2026-04-25T07:33:04.928Z</time></trkpt><trkpt lat="37.0756267" lon="14.81585"><ele>758.0</ele><time>2026-04-25T07:33:05.927Z</time></trkpt><trkpt lat="37.0757733" lon="14.8158583"><ele>759.25</ele><time>2026-04-25T07:33:06.927Z</time></trkpt><trkpt lat="37.07591" lon="14.8158717"><ele>760.5</ele><time>2026-04-25T07:33:07.927Z</time></trkpt><trkpt lat="37.076035" lon="14.8158683"><ele>761.75</ele><time>2026-04-25T07:33:08.927Z</time></trkpt><trkpt lat="37.0761467" lon="14.815835"><ele>763.0</ele><time>2026-04-25T07:33:09.928Z</time></trkpt><trkpt lat="37.076245" lon="14.81577"><ele>763.0</ele><time>2026-04-25T07:33:10.927Z</time></trkpt><trkpt lat="37.0763283" lon="14.8156817"><ele>763.0</ele><time>2026-04-25T07:33:11.928Z</time></trkpt><trkpt lat="37.076425" lon="14.8155833"><ele>763.0</ele><time>2026-04-25T07:33:12.927Z</time></trkpt><trkpt lat="37.0765367" lon="14.8155067"><ele>763.0</ele><time>2026-04-25T07:33:13.928Z</time></trkpt><trkpt lat="37.0766517" lon="14.8154783"><ele>764.75</ele><time>2026-04-25T07:33:14.927Z</time></trkpt><trkpt lat="37.0767733" lon="14.815485"><ele>766.5</ele><time>2026-04-25T07:33:15.927Z</time></trkpt><trkpt lat="37.0768917" lon="14.8155217"><ele>768.25</ele><time>2026-04-25T07:33:16.928Z</time></trkpt><trkpt lat="37.0770083" lon="14.8155733"><ele>770.0</ele><time>2026-04-25T07:33:17.928Z</time></trkpt><trkpt lat="37.0771367" lon="14.8156217"><ele>770.0</ele><time>2026-04-25T07:33:18.927Z</time></trkpt><trkpt lat="37.0772567" lon="14.8156733"><ele>770.0</ele><time>2026-04-25T07:33:19.927Z</time></trkpt><trkpt lat="37.0773633" lon="14.8157167"><ele>770.0</ele><time>2026-04-25T07:33:20.928Z</time></trkpt><trkpt lat="37.0774667" lon="14.815745"><ele>770.0</ele><time>2026-04-25T07:33:21.927Z</time></trkpt><trkpt lat="37.0775683" lon="14.81574"><ele>770.0</ele><time>2026-04-25T07:33:22.927Z</time></trkpt><trkpt lat="37.0776483" lon="14.8156867"><ele>771.2</ele><time>2026-04-25T07:33:23.928Z</time></trkpt><trkpt lat="37.0777067" lon="14.8155867"><ele>772.4</ele><time>2026-04-25T07:33:24.928Z</time></trkpt><trkpt lat="37.0777433" lon="14.8154467"><ele>773.5999999999999</ele><time>2026-04-25T07:33:25.928Z</time></trkpt><trkpt lat="37.0777717" lon="14.8153067"><ele>774.8</ele><time>2026-04-25T07:33:26.928Z</time></trkpt><trkpt lat="37.0778233" lon="14.8151767"><ele>776.0</ele><time>2026-04-25T07:33:27.928Z</time></trkpt><trkpt lat="37.0779033" lon="14.8150583"><ele>777.25</ele><time>2026-04-25T07:33:28.928Z</time></trkpt><trkpt lat="37.0779983" lon="14.8149567"><ele>778.5</ele><time>2026-04-25T07:33:29.927Z</time></trkpt><trkpt lat="37.0781083" lon="14.8148717"><ele>779.75</ele><time>2026-04-25T07:33:30.927Z</time></trkpt><trkpt lat="37.0782283" lon="14.81482"><ele>781.0</ele><time>2026-04-25T07:33:31.927Z</time></trkpt><trkpt lat="37.0783617" lon="14.8147817"><ele>781.0</ele><time>2026-04-25T07:33:32.928Z</time></trkpt><trkpt lat="37.0784983" lon="14.8147583"><ele>781.0</ele><time>2026-04-25T07:33:33.928Z</time></trkpt><trkpt lat="37.07864" lon="14.8147317"><ele>781.0</ele><time>2026-04-25T07:33:34.928Z</time></trkpt><trkpt lat="37.07878" lon="14.8146933"><ele>781.0</ele><time>2026-04-25T07:33:35.927Z</time></trkpt><trkpt lat="37.078905" lon="14.8146367"><ele>781.0</ele><time>2026-04-25T07:33:36.928Z</time></trkpt><trkpt lat="37.0790217" lon="14.8145567"><ele>781.0</ele><time>2026-04-25T07:33:37.928Z</time></trkpt><trkpt lat="37.0791283" lon="14.8144567"><ele>781.0</ele><time>2026-04-25T07:33:38.928Z</time></trkpt><trkpt lat="37.079245" lon="14.814365"><ele>781.0</ele><time>2026-04-25T07:33:39.928Z</time></trkpt><trkpt lat="37.0793717" lon="14.8142883"><ele>781.0</ele><time>2026-04-25T07:33:40.928Z</time></trkpt><trkpt lat="37.0795133" lon="14.81425"><ele>781.0</ele><time>2026-04-25T07:33:41.928Z</time></trkpt><trkpt lat="37.0796617" lon="14.8142333"><ele>781.0</ele><time>2026-04-25T07:33:42.928Z</time></trkpt><trkpt lat="37.0798117" lon="14.8142383"><ele>781.0</ele><time>2026-04-25T07:33:43.927Z</time></trkpt><trkpt lat="37.0799683" lon="14.8142333"><ele>782.75</ele><time>2026-04-25T07:33:44.928Z</time></trkpt><trkpt lat="37.0801183" lon="14.8142317"><ele>784.5</ele><time>2026-04-25T07:33:45.928Z</time></trkpt><trkpt lat="37.08026" lon="14.81424"><ele>786.25</ele><time>2026-04-25T07:33:46.928Z</time></trkpt><trkpt lat="37.08041" lon="14.8142483"><ele>788.0</ele><time>2026-04-25T07:33:47.928Z</time></trkpt><trkpt lat="37.0805633" lon="14.81428"><ele>793.0</ele><time>2026-04-25T07:33:48.927Z</time></trkpt><trkpt lat="37.0807117" lon="14.8143383"><ele>798.0</ele><time>2026-04-25T07:33:49.928Z</time></trkpt><trkpt lat="37.0808567" lon="14.8144233"><ele>803.0</ele><time>2026-04-25T07:33:50.928Z</time></trkpt><trkpt lat="37.0809967" lon="14.8145167"><ele>804.3333333333334</ele><time>2026-04-25T07:33:51.928Z</time></trkpt><trkpt lat="37.0811417" lon="14.8146183"><ele>805.6666666666667</ele><time>2026-04-25T07:33:52.927Z</time></trkpt><trkpt lat="37.0812833" lon="14.814715"><ele>807.0</ele><time>2026-04-25T07:33:53.928Z</time></trkpt><trkpt lat="37.0814333" lon="14.8147983"><ele>807.0</ele><time>2026-04-25T07:33:54.927Z</time></trkpt><trkpt lat="37.08159" lon="14.8148783"><ele>807.0</ele><time>2026-04-25T07:33:55.927Z</time></trkpt><trkpt lat="37.0817433" lon="14.8149533"><ele>807.0</ele><time>2026-04-25T07:33:56.928Z</time></trkpt><trkpt lat="37.0818933" lon="14.81503"><ele>807.0</ele><time>2026-04-25T07:33:57.927Z</time></trkpt><trkpt lat="37.08205" lon="14.8151067"><ele>807.0</ele><time>2026-04-25T07:33:58.928Z</time></trkpt><trkpt lat="37.082205" lon="14.815185"><ele>807.0</ele><time>2026-04-25T07:33:59.927Z</time></trkpt><trkpt lat="37.0823583" lon="14.8152617"><ele>811.3333333333333</ele><time>2026-04-25T07:34:00.928Z</time></trkpt><trkpt lat="37.0825083" lon="14.815335"><ele>815.6666666666666</ele><time>2026-04-25T07:34:01.928Z</time></trkpt><trkpt lat="37.0826567" lon="14.8154"><ele>820.0</ele><time>2026-04-25T07:34:02.927Z</time></trkpt><trkpt lat="37.0827983" lon="14.815465"><ele>820.0</ele><time>2026-04-25T07:34:03.927Z</time></trkpt><trkpt lat="37.082945" lon="14.8155317"><ele>820.0</ele><time>2026-04-25T07:34:04.927Z</time></trkpt><trkpt lat="37.0830933" lon="14.815605"><ele>820.0</ele><time>2026-04-25T07:34:05.927Z</time></trkpt><trkpt lat="37.0832333" lon="14.8156917"><ele>819.6666666666666</ele><time>2026-04-25T07:34:06.927Z</time></trkpt><trkpt lat="37.0833783" lon="14.8157617"><ele>819.3333333333333</ele><time>2026-04-25T07:34:07.927Z</time></trkpt><trkpt lat="37.08352" lon="14.8158367"><ele>819.0</ele><time>2026-04-25T07:34:08.928Z</time></trkpt><trkpt lat="37.0836617" lon="14.81592"><ele>822.3333333333333</ele><time>2026-04-25T07:34:09.928Z</time></trkpt><trkpt lat="37.0838067" lon="14.8160067"><ele>825.6666666666666</ele><time>2026-04-25T07:34:10.928Z</time></trkpt><trkpt lat="37.08394" lon="14.81611"><ele>829.0</ele><time>2026-04-25T07:34:11.928Z</time></trkpt><trkpt lat="37.08406" lon="14.8162333"><ele>828.6666666666666</ele><time>2026-04-25T07:34:12.927Z</time></trkpt><trkpt lat="37.0841783" lon="14.8163533"><ele>828.3333333333333</ele><time>2026-04-25T07:34:13.928Z</time></trkpt><trkpt lat="37.0842983" lon="14.81648"><ele>828.0</ele><time>2026-04-25T07:34:14.927Z</time></trkpt><trkpt lat="37.084425" lon="14.8165933"><ele>828.0</ele><time>2026-04-25T07:34:15.927Z</time></trkpt><trkpt lat="37.0845517" lon="14.816705"><ele>828.0</ele><time>2026-04-25T07:34:16.927Z</time></trkpt><trkpt lat="37.0846783" lon="14.81682"><ele>828.0</ele><time>2026-04-25T07:34:17.927Z</time></trkpt><trkpt lat="37.084815" lon="14.8169267"><ele>831.3333333333333</ele><time>2026-04-25T07:34:18.928Z</time></trkpt><trkpt lat="37.0849617" lon="14.8170017"><ele>834.6666666666666</ele><time>2026-04-25T07:34:19.928Z</time></trkpt><trkpt lat="37.085125" lon="14.8170617"><ele>838.0</ele><time>2026-04-25T07:34:20.927Z</time></trkpt><trkpt lat="37.085295" lon="14.8171133"><ele>838.0</ele><time>2026-04-25T07:34:21.927Z</time></trkpt><trkpt lat="37.0854617" lon="14.8171817"><ele>838.0</ele><time>2026-04-25T07:34:22.928Z</time></trkpt><trkpt lat="37.0856283" lon="14.8172483"><ele>838.0</ele><time>2026-04-25T07:34:23.927Z</time></trkpt><trkpt lat="37.0857983" lon="14.8173167"><ele>837.6666666666666</ele><time>2026-04-25T07:34:24.927Z</time></trkpt><trkpt lat="37.0859667" lon="14.8173867"><ele>837.3333333333333</ele><time>2026-04-25T07:34:25.927Z</time></trkpt><trkpt lat="37.086135" lon="14.8174483"><ele>837.0</ele><time>2026-04-25T07:34:26.928Z</time></trkpt><trkpt lat="37.086295" lon="14.8175067"><ele>837.0</ele><time>2026-04-25T07:34:27.928Z</time></trkpt><trkpt lat="37.0864583" lon="14.81755"><ele>837.0</ele><time>2026-04-25T07:34:28.927Z</time></trkpt><trkpt lat="37.0866317" lon="14.8175833"><ele>837.0</ele><time>2026-04-25T07:34:29.928Z</time></trkpt><trkpt lat="37.0868067" lon="14.8175967"><ele>837.3333333333333</ele><time>2026-04-25T07:34:30.927Z</time></trkpt><trkpt lat="37.086985" lon="14.8176017"><ele>837.6666666666666</ele><time>2026-04-25T07:34:31.928Z</time></trkpt><trkpt lat="37.0871617" lon="14.817585"><ele>838.0</ele><time>2026-04-25T07:34:32.928Z</time></trkpt><trkpt lat="37.08734" lon="14.8175717"><ele>838.6666666666666</ele><time>2026-04-25T07:34:33.928Z</time></trkpt><trkpt lat="37.0875183" lon="14.8175533"><ele>839.3333333333333</ele><time>2026-04-25T07:34:34.928Z</time></trkpt><trkpt lat="37.0876967" lon="14.81754"><ele>840.0</ele><time>2026-04-25T07:34:35.928Z</time></trkpt><trkpt lat="37.087875" lon="14.8175367"><ele>840.0</ele><time>2026-04-25T07:34:36.928Z</time></trkpt><trkpt lat="37.0880567" lon="14.8175217"><ele>840.0</ele><time>2026-04-25T07:34:37.928Z</time></trkpt><trkpt lat="37.088245" lon="14.8175083"><ele>840.0</ele><time>2026-04-25T07:34:38.928Z</time></trkpt><trkpt lat="37.088425" lon="14.8175033"><ele>841.0</ele><time>2026-04-25T07:34:39.927Z</time></trkpt><trkpt lat="37.0886067" lon="14.817525"><ele>842.0</ele><time>2026-04-25T07:34:40.927Z</time></trkpt><trkpt lat="37.0887933" lon="14.8175567"><ele>843.0</ele><time>2026-04-25T07:34:41.928Z</time></trkpt><trkpt lat="37.0889817" lon="14.817595"><ele>844.0</ele><time>2026-04-25T07:34:42.927Z</time></trkpt><trkpt lat="37.0891733" lon="14.81763"><ele>845.0</ele><time>2026-04-25T07:34:43.928Z</time></trkpt><trkpt lat="37.0893567" lon="14.8176733"><ele>846.0</ele><time>2026-04-25T07:34:44.928Z</time></trkpt><trkpt lat="37.0895367" lon="14.81772"><ele>849.6666666666667</ele><time>2026-04-25T07:34:45.927Z</time></trkpt><trkpt lat="37.0897167" lon="14.8177633"><ele>853.3333333333334</ele><time>2026-04-25T07:34:46.927Z</time></trkpt><trkpt lat="37.089895" lon="14.8178083"><ele>857.0</ele><time>2026-04-25T07:34:47.928Z</time></trkpt><trkpt lat="37.090075" lon="14.81785"><ele>858.3333333333334</ele><time>2026-04-25T07:34:48.928Z</time></trkpt><trkpt lat="37.09025" lon="14.817895"><ele>859.6666666666667</ele><time>2026-04-25T07:34:49.928Z</time></trkpt><trkpt lat="37.09043" lon="14.8179317"><ele>861.0</ele><time>2026-04-25T07:34:50.927Z</time></trkpt><trkpt lat="37.09061" lon="14.8179567"><ele>861.6666666666667</ele><time>2026-04-25T07:34:51.928Z</time></trkpt><trkpt lat="37.0907983" lon="14.8179583"><ele>862.3333333333334</ele><time>2026-04-25T07:34:52.927Z</time></trkpt><trkpt lat="37.0909817" lon="14.8179483"><ele>863.0</ele><time>2026-04-25T07:34:53.927Z</time></trkpt><trkpt lat="37.0911633" lon="14.81793"><ele>863.0</ele><time>2026-04-25T07:34:54.928Z</time></trkpt><trkpt lat="37.0913417" lon="14.8179033"><ele>863.0</ele><time>2026-04-25T07:34:55.928Z</time></trkpt><trkpt lat="37.0915133" lon="14.8178817"><ele>863.0</ele><time>2026-04-25T07:34:56.928Z</time></trkpt><trkpt lat="37.09169" lon="14.8178633"><ele>864.3333333333334</ele><time>2026-04-25T07:34:57.928Z</time></trkpt><trkpt lat="37.09187" lon="14.817855"><ele>865.6666666666667</ele><time>2026-04-25T07:34:58.927Z</time></trkpt><trkpt lat="37.092035" lon="14.8178717"><ele>867.0</ele><time>2026-04-25T07:34:59.928Z</time></trkpt><trkpt lat="37.09219" lon="14.8179017"><ele>867.0</ele><time>2026-04-25T07:35:00.928Z</time></trkpt><trkpt lat="37.0923467" lon="14.8179667"><ele>867.0</ele><time>2026-04-25T07:35:01.927Z</time></trkpt><trkpt lat="37.0925" lon="14.8180433"><ele>867.0</ele><time>2026-04-25T07:35:02.927Z</time></trkpt><trkpt lat="37.09266" lon="14.8181283"><ele>867.0</ele><time>2026-04-25T07:35:03.928Z</time></trkpt><trkpt lat="37.09281" lon="14.8182"><ele>867.0</ele><time>2026-04-25T07:35:04.927Z</time></trkpt><trkpt lat="37.0929567" lon="14.8182733"><ele>867.0</ele><time>2026-04-25T07:35:05.927Z</time></trkpt><trkpt lat="37.0930933" lon="14.81835"><ele>867.0</ele><time>2026-04-25T07:35:06.927Z</time></trkpt><trkpt lat="37.09324" lon="14.8184133"><ele>867.0</ele><time>2026-04-25T07:35:07.928Z</time></trkpt><trkpt lat="37.0933933" lon="14.81846"><ele>867.0</ele><time>2026-04-25T07:35:08.928Z</time></trkpt><trkpt lat="37.093555" lon="14.8184833"><ele>866.6666666666667</ele><time>2026-04-25T07:35:09.928Z</time></trkpt><trkpt lat="37.0937283" lon="14.81848"><ele>866.3333333333334</ele><time>2026-04-25T07:35:10.928Z</time></trkpt><trkpt lat="37.0938983" lon="14.818475"><ele>866.0</ele><time>2026-04-25T07:35:11.927Z</time></trkpt><trkpt lat="37.0940733" lon="14.8184467"><ele>867.0</ele><time>2026-04-25T07:35:12.928Z</time></trkpt><trkpt lat="37.0942467" lon="14.8184"><ele>868.0</ele><time>2026-04-25T07:35:13.928Z</time></trkpt><trkpt lat="37.0944283" lon="14.8183367"><ele>869.0</ele><time>2026-04-25T07:35:14.927Z</time></trkpt><trkpt lat="37.0946117" lon="14.8182767"><ele>869.0</ele><time>2026-04-25T07:35:15.928Z</time></trkpt><trkpt lat="37.0948033" lon="14.8182083"><ele>869.0</ele><time>2026-04-25T07:35:16.927Z</time></trkpt><trkpt lat="37.0949883" lon="14.8181467"><ele>869.0</ele><time>2026-04-25T07:35:17.927Z</time></trkpt><trkpt lat="37.0951683" lon="14.8180917"><ele>871.0</ele><time>2026-04-25T07:35:18.927Z</time></trkpt><trkpt lat="37.0953517" lon="14.8180283"><ele>873.0</ele><time>2026-04-25T07:35:19.928Z</time></trkpt><trkpt lat="37.0955333" lon="14.8179667"><ele>875.0</ele><time>2026-04-25T07:35:20.927Z</time></trkpt><trkpt lat="37.0957067" lon="14.81791"><ele>877.6666666666667</ele><time>2026-04-25T07:35:21.928Z</time></trkpt><trkpt lat="37.0958867" lon="14.817855"><ele>880.3333333333333</ele><time>2026-04-25T07:35:22.927Z</time></trkpt><trkpt lat="37.096065" lon="14.817815"><ele>883.0</ele><time>2026-04-25T07:35:23.928Z</time></trkpt><trkpt lat="37.096245" lon="14.8177867"><ele>883.0</ele><time>2026-04-25T07:35:24.928Z</time></trkpt><trkpt lat="37.0964367" lon="14.8177717"><ele>883.0</ele><time>2026-04-25T07:35:25.928Z</time></trkpt><trkpt lat="37.0966217" lon="14.817765"><ele>883.0</ele><time>2026-04-25T07:35:26.928Z</time></trkpt><trkpt lat="37.0968133" lon="14.8177617"><ele>884.6666666666666</ele><time>2026-04-25T07:35:27.927Z</time></trkpt><trkpt lat="37.0970033" lon="14.8177667"><ele>886.3333333333333</ele><time>2026-04-25T07:35:28.928Z</time></trkpt><trkpt lat="37.0971983" lon="14.8177583"><ele>888.0</ele><time>2026-04-25T07:35:29.927Z</time></trkpt><trkpt lat="37.0973933" lon="14.8177417"><ele>888.6666666666667</ele><time>2026-04-25T07:35:30.928Z</time></trkpt><trkpt lat="37.0975833" lon="14.8177067"><ele>889.3333333333334</ele><time>2026-04-25T07:35:31.927Z</time></trkpt><trkpt lat="37.09777" lon="14.8176583"><ele>890.0</ele><time>2026-04-25T07:35:32.928Z</time></trkpt><trkpt lat="37.0979533" lon="14.8175983"><ele>887.3333333333334</ele><time>2026-04-25T07:35:33.928Z</time></trkpt><trkpt lat="37.0981383" lon="14.817545"><ele>884.6666666666667</ele><time>2026-04-25T07:35:34.927Z</time></trkpt><trkpt lat="37.0983183" lon="14.8174917"><ele>882.0</ele><time>2026-04-25T07:35:35.928Z</time></trkpt><trkpt lat="37.0984933" lon="14.817445"><ele>882.0</ele><time>2026-04-25T07:35:36.928Z</time></trkpt><trkpt lat="37.0986583" lon="14.8174033"><ele>882.0</ele><time>2026-04-25T07:35:37.927Z</time></trkpt><trkpt lat="37.09882" lon="14.8173617"><ele>882.0</ele><time>2026-04-25T07:35:38.927Z</time></trkpt><trkpt lat="37.0989817" lon="14.8173233"><ele>883.3333333333333</ele><time>2026-04-25T07:35:39.927Z</time></trkpt><trkpt lat="37.099145" lon="14.8173033"><ele>884.6666666666666</ele><time>2026-04-25T07:35:40.928Z</time></trkpt><trkpt lat="37.099315" lon="14.8172817"><ele>886.0</ele><time>2026-04-25T07:35:41.928Z</time></trkpt><trkpt lat="37.09949" lon="14.81725"><ele>886.0</ele><time>2026-04-25T07:35:42.928Z</time></trkpt><trkpt lat="37.0996717" lon="14.8172283"><ele>886.0</ele><time>2026-04-25T07:35:43.927Z</time></trkpt><trkpt lat="37.0998567" lon="14.817205"><ele>886.0</ele><time>2026-04-25T07:35:44.928Z</time></trkpt><trkpt lat="37.1000483" lon="14.8171917"><ele>887.3333333333333</ele><time>2026-04-25T07:35:45.928Z</time></trkpt><trkpt lat="37.10024" lon="14.8172"><ele>888.6666666666667</ele><time>2026-04-25T07:35:46.928Z</time></trkpt><trkpt lat="37.1004217" lon="14.8172217"><ele>890.0</ele><time>2026-04-25T07:35:47.928Z</time></trkpt><trkpt lat="37.1006067" lon="14.81725"><ele>890.0</ele><time>2026-04-25T07:35:48.927Z</time></trkpt><trkpt lat="37.10079" lon="14.817275"><ele>890.0</ele><time>2026-04-25T07:35:49.928Z</time></trkpt><trkpt lat="37.1009717" lon="14.8172967"><ele>890.0</ele><time>2026-04-25T07:35:50.928Z</time></trkpt><trkpt lat="37.101155" lon="14.8173133"><ele>890.0</ele><time>2026-04-25T07:35:51.927Z</time></trkpt><trkpt lat="37.1013367" lon="14.8173183"><ele>890.0</ele><time>2026-04-25T07:35:52.927Z</time></trkpt><trkpt lat="37.1015167" lon="14.8172967"><ele>890.0</ele><time>2026-04-25T07:35:53.927Z</time></trkpt><trkpt lat="37.101695" lon="14.8172683"><ele>889.3333333333334</ele><time>2026-04-25T07:35:54.928Z</time></trkpt><trkpt lat="37.1018733" lon="14.817225"><ele>888.6666666666667</ele><time>2026-04-25T07:35:55.928Z</time></trkpt><trkpt lat="37.102065" lon="14.8171767"><ele>888.0</ele><time>2026-04-25T07:35:56.928Z</time></trkpt><trkpt lat="37.102235" lon="14.81712"><ele>888.0</ele><time>2026-04-25T07:35:57.928Z</time></trkpt><trkpt lat="37.1024133" lon="14.8170633"><ele>888.0</ele><time>2026-04-25T07:35:58.928Z</time></trkpt><trkpt lat="37.1025983" lon="14.8170183"><ele>888.0</ele><time>2026-04-25T07:35:59.928Z</time></trkpt><trkpt lat="37.10279" lon="14.81698"><ele>887.6666666666667</ele><time>2026-04-25T07:36:00.928Z</time></trkpt><trkpt lat="37.1029817" lon="14.816935"><ele>887.3333333333334</ele><time>2026-04-25T07:36:01.927Z</time></trkpt><trkpt lat="37.103165" lon="14.8168883"><ele>887.0</ele><time>2026-04-25T07:36:02.928Z</time></trkpt><trkpt lat="37.1033533" lon="14.81684"><ele>891.3333333333334</ele><time>2026-04-25T07:36:03.927Z</time></trkpt><trkpt lat="37.1035417" lon="14.8167883"><ele>895.6666666666667</ele><time>2026-04-25T07:36:04.928Z</time></trkpt><trkpt lat="37.1037317" lon="14.81674"><ele>900.0</ele><time>2026-04-25T07:36:05.927Z</time></trkpt><trkpt lat="37.103915" lon="14.8166967"><ele>901.3333333333333</ele><time>2026-04-25T07:36:06.928Z</time></trkpt><trkpt lat="37.1040983" lon="14.816645"><ele>902.6666666666666</ele><time>2026-04-25T07:36:07.928Z</time></trkpt><trkpt lat="37.104285" lon="14.8165883"><ele>904.0</ele><time>2026-04-25T07:36:08.927Z</time></trkpt><trkpt lat="37.1044767" lon="14.8165383"><ele>904.0</ele><time>2026-04-25T07:36:09.927Z</time></trkpt><trkpt lat="37.104665" lon="14.8164883"><ele>904.0</ele><time>2026-04-25T07:36:10.928Z</time></trkpt><trkpt lat="37.1048517" lon="14.8164367"><ele>904.0</ele><time>2026-04-25T07:36:11.928Z</time></trkpt><trkpt lat="37.105035" lon="14.8163833"><ele>905.6666666666666</ele><time>2026-04-25T07:36:12.928Z</time></trkpt><trkpt lat="37.1052083" lon="14.81631"><ele>907.3333333333333</ele><time>2026-04-25T07:36:13.928Z</time></trkpt><trkpt lat="37.1053817" lon="14.81623"><ele>909.0</ele><time>2026-04-25T07:36:14.927Z</time></trkpt><trkpt lat="37.10555" lon="14.8161283"><ele>909.0</ele><time>2026-04-25T07:36:15.927Z</time></trkpt><trkpt lat="37.1057167" lon="14.81602"><ele>909.0</ele><time>2026-04-25T07:36:16.927Z</time></trkpt><trkpt lat="37.105885" lon="14.8159133"><ele>909.0</ele><time>2026-04-25T07:36:17.928Z</time></trkpt><trkpt lat="37.10606" lon="14.8158133"><ele>911.3333333333333</ele><time>2026-04-25T07:36:18.928Z</time></trkpt><trkpt lat="37.1062333" lon="14.8157117"><ele>913.6666666666666</ele><time>2026-04-25T07:36:19.928Z</time></trkpt><trkpt lat="37.1063983" lon="14.81561"><ele>916.0</ele><time>2026-04-25T07:36:20.928Z</time></trkpt><trkpt lat="37.1065667" lon="14.8155067"><ele>918.6666666666666</ele><time>2026-04-25T07:36:21.927Z</time></trkpt><trkpt lat="37.1067283" lon="14.8154133"><ele>921.3333333333333</ele><time>2026-04-25T07:36:22.927Z</time></trkpt><trkpt lat="37.1069033" lon="14.8153167"><ele>924.0</ele><time>2026-04-25T07:36:23.927Z</time></trkpt><trkpt lat="37.10707" lon="14.8152233"><ele>925.3333333333333</ele><time>2026-04-25T07:36:24.928Z</time></trkpt><trkpt lat="37.107235" lon="14.8151233"><ele>926.6666666666666</ele><time>2026-04-25T07:36:25.928Z</time></trkpt><trkpt lat="37.107395" lon="14.8150217"><ele>928.0</ele><time>2026-04-25T07:36:26.928Z</time></trkpt><trkpt lat="37.1075583" lon="14.8149117"><ele>928.0</ele><time>2026-04-25T07:36:27.927Z</time></trkpt><trkpt lat="37.10773" lon="14.8148067"><ele>928.0</ele><time>2026-04-25T07:36:28.927Z</time></trkpt><trkpt lat="37.1078983" lon="14.8147117"><ele>928.0</ele><time>2026-04-25T07:36:29.928Z</time></trkpt><trkpt lat="37.10807" lon="14.8146333"><ele>930.0</ele><time>2026-04-25T07:36:30.927Z</time></trkpt><trkpt lat="37.1082483" lon="14.8145717"><ele>932.0</ele><time>2026-04-25T07:36:31.927Z</time></trkpt><trkpt lat="37.1084283" lon="14.8145333"><ele>934.0</ele><time>2026-04-25T07:36:32.927Z</time></trkpt><trkpt lat="37.108615" lon="14.81451"><ele>934.0</ele><time>2026-04-25T07:36:33.928Z</time></trkpt><trkpt lat="37.1088" lon="14.8145"><ele>934.0</ele><time>2026-04-25T07:36:34.928Z</time></trkpt><trkpt lat="37.1089833" lon="14.8145067"><ele>934.0</ele><time>2026-04-25T07:36:35.928Z</time></trkpt><trkpt lat="37.1091633" lon="14.814535"><ele>936.0</ele><time>2026-04-25T07:36:36.927Z</time></trkpt><trkpt lat="37.1093433" lon="14.8145683"><ele>938.0</ele><time>2026-04-25T07:36:37.928Z</time></trkpt><trkpt lat="37.1095233" lon="14.8145983"><ele>940.0</ele><time>2026-04-25T07:36:38.927Z</time></trkpt><trkpt lat="37.1097083" lon="14.814625"><ele>940.0</ele><time>2026-04-25T07:36:39.927Z</time></trkpt><trkpt lat="37.109885" lon="14.8146467"><ele>940.0</ele><time>2026-04-25T07:36:40.928Z</time></trkpt><trkpt lat="37.110065" lon="14.814675"><ele>940.0</ele><time>2026-04-25T07:36:41.927Z</time></trkpt><trkpt lat="37.1102467" lon="14.8146967"><ele>941.3333333333333</ele><time>2026-04-25T07:36:42.927Z</time></trkpt><trkpt lat="37.11043" lon="14.81473"><ele>942.6666666666667</ele><time>2026-04-25T07:36:43.928Z</time></trkpt><trkpt lat="37.1106083" lon="14.81477"><ele>944.0</ele><time>2026-04-25T07:36:44.928Z</time></trkpt><trkpt lat="37.11079" lon="14.81482"><ele>945.3333333333334</ele><time>2026-04-25T07:36:45.927Z</time></trkpt><trkpt lat="37.1109717" lon="14.8148783"><ele>946.6666666666667</ele><time>2026-04-25T07:36:46.927Z</time></trkpt><trkpt lat="37.11115" lon="14.8149433"><ele>948.0</ele><time>2026-04-25T07:36:47.927Z</time></trkpt><trkpt lat="37.1113283" lon="14.8150133"><ele>948.0</ele><time>2026-04-25T07:36:48.928Z</time></trkpt><trkpt lat="37.1115" lon="14.81508"><ele>948.0</ele><time>2026-04-25T07:36:49.928Z</time></trkpt><trkpt lat="37.111675" lon="14.8151483"><ele>948.0</ele><time>2026-04-25T07:36:50.927Z</time></trkpt><trkpt lat="37.1118483" lon="14.815215"><ele>950.3333333333333</ele><time>2026-04-25T07:36:51.928Z</time></trkpt><trkpt lat="37.1120217" lon="14.8152967"><ele>952.6666666666666</ele><time>2026-04-25T07:36:52.928Z</time></trkpt><trkpt lat="37.1122033" lon="14.815375"><ele>955.0</ele><time>2026-04-25T07:36:53.928Z</time></trkpt><trkpt lat="37.1123817" lon="14.815445"><ele>956.6666666666666</ele><time>2026-04-25T07:36:54.928Z</time></trkpt><trkpt lat="37.1125667" lon="14.815515"><ele>958.3333333333333</ele><time>2026-04-25T07:36:55.927Z</time></trkpt><trkpt lat="37.1127483" lon="14.81559"><ele>960.0</ele><time>2026-04-25T07:36:56.928Z</time></trkpt><trkpt lat="37.1129317" lon="14.8156567"><ele>960.0</ele><time>2026-04-25T07:36:57.928Z</time></trkpt><trkpt lat="37.1131167" lon="14.8157233"><ele>960.0</ele><time>2026-04-25T07:36:58.928Z</time></trkpt><trkpt lat="37.1132983" lon="14.8157883"><ele>960.0</ele><time>2026-04-25T07:36:59.928Z</time></trkpt><trkpt lat="37.1134833" lon="14.8158617"><ele>960.0</ele><time>2026-04-25T07:37:00.928Z</time></trkpt><trkpt lat="37.113665" lon="14.8159283"><ele>960.0</ele><time>2026-04-25T07:37:01.927Z</time></trkpt><trkpt lat="37.113835" lon="14.8160033"><ele>960.0</ele><time>2026-04-25T07:37:02.928Z</time></trkpt><trkpt lat="37.114" lon="14.8160767"><ele>961.0</ele><time>2026-04-25T07:37:03.927Z</time></trkpt><trkpt lat="37.1141483" lon="14.8161517"><ele>962.0</ele><time>2026-04-25T07:37:04.928Z</time></trkpt><trkpt lat="37.114285" lon="14.81623"><ele>963.0</ele><time>2026-04-25T07:37:05.928Z</time></trkpt><trkpt lat="37.1143983" lon="14.8163333"><ele>963.0</ele><time>2026-04-25T07:37:06.927Z</time></trkpt><trkpt lat="37.1145" lon="14.8164533"><ele>963.0</ele><time>2026-04-25T07:37:07.928Z</time></trkpt><trkpt lat="37.114575" lon="14.8166033"><ele>963.0</ele><time>2026-04-25T07:37:08.927Z</time></trkpt><trkpt lat="37.1146233" lon="14.816765"><ele>963.0</ele><time>2026-04-25T07:37:09.927Z</time></trkpt><trkpt lat="37.114655" lon="14.816955"><ele>964.0</ele><time>2026-04-25T07:37:10.928Z</time></trkpt><trkpt lat="37.1146767" lon="14.8171633"><ele>965.0</ele><time>2026-04-25T07:37:11.928Z</time></trkpt><trkpt lat="37.1146967" lon="14.81738"><ele>966.0</ele><time>2026-04-25T07:37:12.928Z</time></trkpt><trkpt lat="37.114715" lon="14.817595"><ele>967.3333333333333</ele><time>2026-04-25T07:37:13.927Z</time></trkpt><trkpt lat="37.1147367" lon="14.817795"><ele>968.6666666666666</ele><time>2026-04-25T07:37:14.927Z</time></trkpt><trkpt lat="37.1147567" lon="14.817985"><ele>970.0</ele><time>2026-04-25T07:37:15.928Z</time></trkpt><trkpt lat="37.1147767" lon="14.8181683"><ele>970.0</ele><time>2026-04-25T07:37:16.928Z</time></trkpt><trkpt lat="37.114795" lon="14.8183533"><ele>970.0</ele><time>2026-04-25T07:37:17.928Z</time></trkpt><trkpt lat="37.1148183" lon="14.818535"><ele>970.0</ele><time>2026-04-25T07:37:18.927Z</time></trkpt><trkpt lat="37.1148483" lon="14.8187083"><ele>970.0</ele><time>2026-04-25T07:37:19.928Z</time></trkpt><trkpt lat="37.1148683" lon="14.8188817"><ele>971.5</ele><time>2026-04-25T07:37:20.927Z</time></trkpt><trkpt lat="37.114885" lon="14.819045"><ele>973.0</ele><time>2026-04-25T07:37:21.928Z</time></trkpt><trkpt lat="37.11489" lon="14.819205"><ele>974.5</ele><time>2026-04-25T07:37:22.928Z</time></trkpt><trkpt lat="37.1148633" lon="14.819375"><ele>976.0</ele><time>2026-04-25T07:37:23.927Z</time></trkpt><trkpt lat="37.11482" lon="14.8195417"><ele>976.75</ele><time>2026-04-25T07:37:24.926Z</time></trkpt><trkpt lat="37.1147483" lon="14.8197067"><ele>977.5</ele><time>2026-04-25T07:37:25.927Z</time></trkpt><trkpt lat="37.1146683" lon="14.8198633"><ele>978.25</ele><time>2026-04-25T07:37:26.927Z</time></trkpt><trkpt lat="37.1145933" lon="14.82001"><ele>979.0</ele><time>2026-04-25T07:37:27.926Z</time></trkpt><trkpt lat="37.1145267" lon="14.8201617"><ele>979.25</ele><time>2026-04-25T07:37:28.927Z</time></trkpt><trkpt lat="37.1144783" lon="14.8203217"><ele>979.5</ele><time>2026-04-25T07:37:29.926Z</time></trkpt><trkpt lat="37.1144417" lon="14.8204883"><ele>979.75</ele><time>2026-04-25T07:37:30.926Z</time></trkpt><trkpt lat="37.1144183" lon="14.82066"><ele>980.0</ele><time>2026-04-25T07:37:31.927Z</time></trkpt><trkpt lat="37.1144167" lon="14.8208417"><ele>980.5</ele><time>2026-04-25T07:37:32.927Z</time></trkpt><trkpt lat="37.1144267" lon="14.8210283"><ele>981.0</ele><time>2026-04-25T07:37:33.927Z</time></trkpt><trkpt lat="37.1144417" lon="14.8212183"><ele>981.5</ele><time>2026-04-25T07:37:34.926Z</time></trkpt><trkpt lat="37.1144683" lon="14.8214"><ele>982.0</ele><time>2026-04-25T07:37:35.926Z</time></trkpt><trkpt lat="37.1144883" lon="14.8215867"><ele>982.0</ele><time>2026-04-25T07:37:36.926Z</time></trkpt><trkpt lat="37.1145083" lon="14.82178"><ele>982.0</ele><time>2026-04-25T07:37:37.926Z</time></trkpt><trkpt lat="37.11453" lon="14.8219733"><ele>982.0</ele><time>2026-04-25T07:37:38.927Z</time></trkpt><trkpt lat="37.114555" lon="14.822185"><ele>981.6666666666666</ele><time>2026-04-25T07:37:39.927Z</time></trkpt><trkpt lat="37.114575" lon="14.82241"><ele>981.3333333333333</ele><time>2026-04-25T07:37:40.926Z</time></trkpt><trkpt lat="37.1146017" lon="14.8226583"><ele>981.0</ele><time>2026-04-25T07:37:41.927Z</time></trkpt><trkpt lat="37.114625" lon="14.8229267"><ele>979.6666666666667</ele><time>2026-04-25T07:37:42.927Z</time></trkpt><trkpt lat="37.1146467" lon="14.8232067"><ele>978.3333333333334</ele><time>2026-04-25T07:37:43.926Z</time></trkpt><trkpt lat="37.114675" lon="14.8234867"><ele>977.0</ele><time>2026-04-25T07:37:44.927Z</time></trkpt><trkpt lat="37.11471" lon="14.8237583"><ele>977.0</ele><time>2026-04-25T07:37:45.926Z</time></trkpt><trkpt lat="37.1147467" lon="14.8240367"><ele>977.0</ele><time>2026-04-25T07:37:46.927Z</time></trkpt><trkpt lat="37.11479" lon="14.8243033"><ele>977.0</ele><time>2026-04-25T07:37:47.926Z</time></trkpt><trkpt lat="37.1148317" lon="14.824555"><ele>976.0</ele><time>2026-04-25T07:37:48.926Z</time></trkpt><trkpt lat="37.1148733" lon="14.82481"><ele>975.0</ele><time>2026-04-25T07:37:49.926Z</time></trkpt><trkpt lat="37.11491" lon="14.8250633"><ele>974.0</ele><time>2026-04-25T07:37:50.927Z</time></trkpt><trkpt lat="37.114935" lon="14.82531"><ele>971.6666666666667</ele><time>2026-04-25T07:37:51.926Z</time></trkpt><trkpt lat="37.1149417" lon="14.8255583"><ele>969.3333333333333</ele><time>2026-04-25T07:37:52.926Z</time></trkpt><trkpt lat="37.1149333" lon="14.8257967"><ele>967.0</ele><time>2026-04-25T07:37:53.927Z</time></trkpt><trkpt lat="37.11493" lon="14.826025"><ele>967.0</ele><time>2026-04-25T07:37:54.926Z</time></trkpt><trkpt lat="37.1149267" lon="14.8262667"><ele>967.0</ele><time>2026-04-25T07:37:55.927Z</time></trkpt><trkpt lat="37.1149233" lon="14.8264883"><ele>967.0</ele><time>2026-04-25T07:37:56.927Z</time></trkpt><trkpt lat="37.1149167" lon="14.8267033"><ele>966.3333333333333</ele><time>2026-04-25T07:37:57.927Z</time></trkpt><trkpt lat="37.1149067" lon="14.8269133"><ele>965.6666666666667</ele><time>2026-04-25T07:37:58.927Z</time></trkpt><trkpt lat="37.1149067" lon="14.8271217"><ele>965.0</ele><time>2026-04-25T07:37:59.926Z</time></trkpt><trkpt lat="37.1148967" lon="14.8273317"><ele>965.0</ele><time>2026-04-25T07:38:00.927Z</time></trkpt><trkpt lat="37.1148883" lon="14.8275417"><ele>965.0</ele><time>2026-04-25T07:38:01.926Z</time></trkpt><trkpt lat="37.114865" lon="14.8277467"><ele>965.0</ele><time>2026-04-25T07:38:02.927Z</time></trkpt><trkpt lat="37.1148183" lon="14.8279517"><ele>965.0</ele><time>2026-04-25T07:38:03.927Z</time></trkpt><trkpt lat="37.1147683" lon="14.828145"><ele>965.0</ele><time>2026-04-25T07:38:04.926Z</time></trkpt><trkpt lat="37.1147033" lon="14.8283267"><ele>965.0</ele><time>2026-04-25T07:38:05.927Z</time></trkpt><trkpt lat="37.1146267" lon="14.8285017"><ele>963.3333333333334</ele><time>2026-04-25T07:38:06.927Z</time></trkpt><trkpt lat="37.114535" lon="14.8286817"><ele>961.6666666666667</ele><time>2026-04-25T07:38:07.926Z</time></trkpt><trkpt lat="37.1144283" lon="14.828875"><ele>960.0</ele><time>2026-04-25T07:38:08.926Z</time></trkpt><trkpt lat="37.114325" lon="14.8290717"><ele>960.0</ele><time>2026-04-25T07:38:09.927Z</time></trkpt><trkpt lat="37.1142167" lon="14.8292883"><ele>960.0</ele><time>2026-04-25T07:38:10.926Z</time></trkpt><trkpt lat="37.1141067" lon="14.82952"><ele>960.0</ele><time>2026-04-25T07:38:11.926Z</time></trkpt><trkpt lat="37.1139867" lon="14.8297517"><ele>959.0</ele><time>2026-04-25T07:38:12.926Z</time></trkpt><trkpt lat="37.1138717" lon="14.82998"><ele>958.0</ele><time>2026-04-25T07:38:13.926Z</time></trkpt><trkpt lat="37.11376" lon="14.8301983"><ele>957.0</ele><time>2026-04-25T07:38:14.926Z</time></trkpt><trkpt lat="37.1136533" lon="14.8304083"><ele>954.3333333333333</ele><time>2026-04-25T07:38:15.927Z</time></trkpt><trkpt lat="37.11355" lon="14.830615"><ele>951.6666666666666</ele><time>2026-04-25T07:38:16.927Z</time></trkpt><trkpt lat="37.1134583" lon="14.8308033"><ele>949.0</ele><time>2026-04-25T07:38:17.926Z</time></trkpt><trkpt lat="37.1133667" lon="14.8309833"><ele>948.3333333333333</ele><time>2026-04-25T07:38:18.927Z</time></trkpt><trkpt lat="37.11328" lon="14.8311567"><ele>947.6666666666667</ele><time>2026-04-25T07:38:19.926Z</time></trkpt><trkpt lat="37.1132067" lon="14.83132"><ele>947.0</ele><time>2026-04-25T07:38:20.926Z</time></trkpt><trkpt lat="37.1131567" lon="14.831485"><ele>947.0</ele><time>2026-04-25T07:38:21.926Z</time></trkpt><trkpt lat="37.1131317" lon="14.831645"><ele>947.0</ele><time>2026-04-25T07:38:22.927Z</time></trkpt><trkpt lat="37.113135" lon="14.8317983"><ele>947.0</ele><time>2026-04-25T07:38:23.926Z</time></trkpt><trkpt lat="37.1131667" lon="14.8319583"><ele>947.0</ele><time>2026-04-25T07:38:24.926Z</time></trkpt><trkpt lat="37.1132083" lon="14.83211"><ele>946.25</ele><time>2026-04-25T07:38:25.926Z</time></trkpt><trkpt lat="37.11326" lon="14.83227"><ele>945.5</ele><time>2026-04-25T07:38:26.927Z</time></trkpt><trkpt lat="37.1133133" lon="14.8324233"><ele>944.75</ele><time>2026-04-25T07:38:27.927Z</time></trkpt><trkpt lat="37.11332" lon="14.8325567"><ele>944.0</ele><time>2026-04-25T07:38:28.927Z</time></trkpt><trkpt lat="37.1133433" lon="14.83272"><ele>944.5</ele><time>2026-04-25T07:38:29.927Z</time></trkpt><trkpt lat="37.1133533" lon="14.8328883"><ele>945.0</ele><time>2026-04-25T07:38:30.926Z</time></trkpt><trkpt lat="37.1133333" lon="14.833065"><ele>945.5</ele><time>2026-04-25T07:38:31.927Z</time></trkpt><trkpt lat="37.113285" lon="14.8332417"><ele>946.0</ele><time>2026-04-25T07:38:32.927Z</time></trkpt><trkpt lat="37.1132283" lon="14.8334333"><ele>946.6666666666666</ele><time>2026-04-25T07:38:33.926Z</time></trkpt><trkpt lat="37.11317" lon="14.8336217"><ele>947.3333333333333</ele><time>2026-04-25T07:38:34.927Z</time></trkpt><trkpt lat="37.1131217" lon="14.8338167"><ele>948.0</ele><time>2026-04-25T07:38:35.927Z</time></trkpt><trkpt lat="37.11309" lon="14.8340183"><ele>948.0</ele><time>2026-04-25T07:38:36.926Z</time></trkpt><trkpt lat="37.11308" lon="14.8341933"><ele>948.0</ele><time>2026-04-25T07:38:37.926Z</time></trkpt><trkpt lat="37.1130933" lon="14.834375"><ele>948.0</ele><time>2026-04-25T07:38:38.927Z</time></trkpt><trkpt lat="37.1131317" lon="14.8345533"><ele>948.0</ele><time>2026-04-25T07:38:39.927Z</time></trkpt><trkpt lat="37.1131917" lon="14.8347283"><ele>947.75</ele><time>2026-04-25T07:38:40.927Z</time></trkpt><trkpt lat="37.11327" lon="14.8348883"><ele>947.5</ele><time>2026-04-25T07:38:41.926Z</time></trkpt><trkpt lat="37.1133467" lon="14.8350483"><ele>947.25</ele><time>2026-04-25T07:38:42.927Z</time></trkpt><trkpt lat="37.1134233" lon="14.8351967"><ele>947.0</ele><time>2026-04-25T07:38:43.926Z</time></trkpt><trkpt lat="37.1134983" lon="14.8353433"><ele>948.0</ele><time>2026-04-25T07:38:44.926Z</time></trkpt><trkpt lat="37.1135717" lon="14.8354933"><ele>949.0</ele><time>2026-04-25T07:38:45.927Z</time></trkpt><trkpt lat="37.1136417" lon="14.835635"><ele>950.0</ele><time>2026-04-25T07:38:46.927Z</time></trkpt><trkpt lat="37.1137083" lon="14.8357783"><ele>951.0</ele><time>2026-04-25T07:38:47.927Z</time></trkpt><trkpt lat="37.1137867" lon="14.8359367"><ele>951.25</ele><time>2026-04-25T07:38:48.927Z</time></trkpt><trkpt lat="37.1138517" lon="14.8360817"><ele>951.5</ele><time>2026-04-25T07:38:49.927Z</time></trkpt><trkpt lat="37.1138983" lon="14.8362417"><ele>951.75</ele><time>2026-04-25T07:38:50.926Z</time></trkpt><trkpt lat="37.11392" lon="14.8364133"><ele>952.0</ele><time>2026-04-25T07:38:51.927Z</time></trkpt><trkpt lat="37.1139417" lon="14.83659"><ele>952.0</ele><time>2026-04-25T07:38:52.926Z</time></trkpt><trkpt lat="37.1139717" lon="14.8367783"><ele>952.0</ele><time>2026-04-25T07:38:53.926Z</time></trkpt><trkpt lat="37.1140183" lon="14.8369633"><ele>952.0</ele><time>2026-04-25T07:38:54.926Z</time></trkpt><trkpt lat="37.1140767" lon="14.8371433"><ele>949.0</ele><time>2026-04-25T07:38:55.926Z</time></trkpt><trkpt lat="37.1141283" lon="14.8373317"><ele>946.0</ele><time>2026-04-25T07:38:56.926Z</time></trkpt><trkpt lat="37.11418" lon="14.8375117"><ele>943.0</ele><time>2026-04-25T07:38:57.926Z</time></trkpt><trkpt lat="37.1142267" lon="14.837695"><ele>943.0</ele><time>2026-04-25T07:38:58.927Z</time></trkpt><trkpt lat="37.11427" lon="14.8378733"><ele>943.0</ele><time>2026-04-25T07:38:59.927Z</time></trkpt><trkpt lat="37.1143033" lon="14.8380567"><ele>943.0</ele><time>2026-04-25T07:39:00.926Z</time></trkpt><trkpt lat="37.114335" lon="14.8382533"><ele>941.3333333333333</ele><time>2026-04-25T07:39:01.927Z</time></trkpt><trkpt lat="37.1143383" lon="14.83847"><ele>939.6666666666667</ele><time>2026-04-25T07:39:02.926Z</time></trkpt><trkpt lat="37.114335" lon="14.8386667"><ele>938.0</ele><time>2026-04-25T07:39:03.927Z</time></trkpt><trkpt lat="37.11432" lon="14.8388517"><ele>938.0</ele><time>2026-04-25T07:39:04.926Z</time></trkpt><trkpt lat="37.114285" lon="14.8390367"><ele>938.0</ele><time>2026-04-25T07:39:05.926Z</time></trkpt><trkpt lat="37.1142367" lon="14.8392117"><ele>938.0</ele><time>2026-04-25T07:39:06.927Z</time></trkpt><trkpt lat="37.1141783" lon="14.8394083"><ele>937.0</ele><time>2026-04-25T07:39:07.926Z</time></trkpt><trkpt lat="37.1141267" lon="14.8396"><ele>936.0</ele><time>2026-04-25T07:39:08.927Z</time></trkpt><trkpt lat="37.11408" lon="14.8397617"><ele>935.0</ele><time>2026-04-25T07:39:09.927Z</time></trkpt><trkpt lat="37.1140567" lon="14.8399133"><ele>934.0</ele><time>2026-04-25T07:39:10.926Z</time></trkpt><trkpt lat="37.114065" lon="14.8400667"><ele>932.25</ele><time>2026-04-25T07:39:11.927Z</time></trkpt><trkpt lat="37.1140917" lon="14.8402167"><ele>930.5</ele><time>2026-04-25T07:39:12.927Z</time></trkpt><trkpt lat="37.1141367" lon="14.8403667"><ele>928.75</ele><time>2026-04-25T07:39:13.927Z</time></trkpt><trkpt lat="37.1141933" lon="14.84052"><ele>927.0</ele><time>2026-04-25T07:39:14.926Z</time></trkpt><trkpt lat="37.1142567" lon="14.84068"><ele>927.0</ele><time>2026-04-25T07:39:15.927Z</time></trkpt><trkpt lat="37.1143283" lon="14.8408483"><ele>927.0</ele><time>2026-04-25T07:39:16.926Z</time></trkpt><trkpt lat="37.1143967" lon="14.8410133"><ele>927.0</ele><time>2026-04-25T07:39:17.927Z</time></trkpt><trkpt lat="37.1144583" lon="14.841175"><ele>927.0</ele><time>2026-04-25T07:39:18.927Z</time></trkpt><trkpt lat="37.1145217" lon="14.8413333"><ele>927.0</ele><time>2026-04-25T07:39:19.926Z</time></trkpt><trkpt lat="37.1145933" lon="14.841485"><ele>927.0</ele><time>2026-04-25T07:39:20.926Z</time></trkpt><trkpt lat="37.1146767" lon="14.841615"><ele>927.0</ele><time>2026-04-25T07:39:21.927Z</time></trkpt><trkpt lat="37.1147533" lon="14.8417317"><ele>927.0</ele><time>2026-04-25T07:39:22.926Z</time></trkpt><trkpt lat="37.1148467" lon="14.8418383"><ele>926.6</ele><time>2026-04-25T07:39:23.927Z</time></trkpt><trkpt lat="37.11494" lon="14.841915"><ele>926.2</ele><time>2026-04-25T07:39:24.927Z</time></trkpt><trkpt lat="37.1150283" lon="14.84196"><ele>925.8</ele><time>2026-04-25T07:39:25.926Z</time></trkpt><trkpt lat="37.1151133" lon="14.8419817"><ele>925.4</ele><time>2026-04-25T07:39:26.927Z</time></trkpt><trkpt lat="37.1151867" lon="14.8419767"><ele>925.0</ele><time>2026-04-25T07:39:27.927Z</time></trkpt><trkpt lat="37.1152883" lon="14.8419817"><ele>925.0</ele><time>2026-04-25T07:39:29.926Z</time></trkpt><trkpt lat="37.1153633" lon="14.8420367"><ele>925.0</ele><time>2026-04-25T07:39:31.927Z</time></trkpt><trkpt lat="37.1154933" lon="14.84208"><ele>925.0</ele><time>2026-04-25T07:39:33.927Z</time></trkpt><trkpt lat="37.115575" lon="14.8421033"><ele>925.0</ele><time>2026-04-25T07:39:34.927Z</time></trkpt><trkpt lat="37.11566" lon="14.84213"><ele>925.0</ele><time>2026-04-25T07:39:35.926Z</time></trkpt><trkpt lat="37.11574" lon="14.8421667"><ele>924.0</ele><time>2026-04-25T07:39:36.927Z</time></trkpt><trkpt lat="37.115825" lon="14.8421967"><ele>923.0</ele><time>2026-04-25T07:39:37.926Z</time></trkpt><trkpt lat="37.1159167" lon="14.842225"><ele>922.0</ele><time>2026-04-25T07:39:38.927Z</time></trkpt><trkpt lat="37.116005" lon="14.8422583"><ele>921.0</ele><time>2026-04-25T07:39:39.927Z</time></trkpt><trkpt lat="37.116095" lon="14.842305"><ele>920.0</ele><time>2026-04-25T07:39:40.926Z</time></trkpt><trkpt lat="37.11619" lon="14.8423417"><ele>920.0</ele><time>2026-04-25T07:39:41.927Z</time></trkpt><trkpt lat="37.116285" lon="14.84238"><ele>920.0</ele><time>2026-04-25T07:39:42.926Z</time></trkpt><trkpt lat="37.1163783" lon="14.8424133"><ele>920.0</ele><time>2026-04-25T07:39:43.926Z</time></trkpt><trkpt lat="37.1164617" lon="14.8424467"><ele>920.0</ele><time>2026-04-25T07:39:44.926Z</time></trkpt><trkpt lat="37.1165517" lon="14.8424833"><ele>920.0</ele><time>2026-04-25T07:39:45.927Z</time></trkpt><trkpt lat="37.1166483" lon="14.8425183"><ele>919.6</ele><time>2026-04-25T07:39:46.927Z</time></trkpt><trkpt lat="37.116745" lon="14.8425583"><ele>919.2</ele><time>2026-04-25T07:39:47.927Z</time></trkpt><trkpt lat="37.1168483" lon="14.8425967"><ele>918.8</ele><time>2026-04-25T07:39:48.927Z</time></trkpt><trkpt lat="37.1169483" lon="14.8426367"><ele>918.4</ele><time>2026-04-25T07:39:49.927Z</time></trkpt><trkpt lat="37.1170533" lon="14.84267"><ele>918.0</ele><time>2026-04-25T07:39:50.927Z</time></trkpt><trkpt lat="37.117155" lon="14.8427067"><ele>917.4</ele><time>2026-04-25T07:39:51.927Z</time></trkpt><trkpt lat="37.1172533" lon="14.8427433"><ele>916.8</ele><time>2026-04-25T07:39:52.927Z</time></trkpt><trkpt lat="37.1173517" lon="14.84278"><ele>916.2</ele><time>2026-04-25T07:39:53.927Z</time></trkpt><trkpt lat="37.1174517" lon="14.8428267"><ele>915.6</ele><time>2026-04-25T07:39:54.927Z</time></trkpt><trkpt lat="37.1175483" lon="14.8428783"><ele>915.0</ele><time>2026-04-25T07:39:55.927Z</time></trkpt><trkpt lat="37.1176517" lon="14.8429333"><ele>915.0</ele><time>2026-04-25T07:39:56.926Z</time></trkpt><trkpt lat="37.11775" lon="14.842995"><ele>915.0</ele><time>2026-04-25T07:39:57.926Z</time></trkpt><trkpt lat="37.1178533" lon="14.8430483"><ele>915.0</ele><time>2026-04-25T07:39:58.926Z</time></trkpt><trkpt lat="37.1179617" lon="14.8430983"><ele>915.0</ele><time>2026-04-25T07:39:59.927Z</time></trkpt><trkpt lat="37.1180667" lon="14.843135"><ele>915.0</ele><time>2026-04-25T07:40:00.926Z</time></trkpt><trkpt lat="37.1181767" lon="14.8431517"><ele>914.8</ele><time>2026-04-25T07:40:01.926Z</time></trkpt><trkpt lat="37.1182817" lon="14.84316"><ele>914.6</ele><time>2026-04-25T07:40:02.926Z</time></trkpt><trkpt lat="37.1183833" lon="14.8431683"><ele>914.4000000000001</ele><time>2026-04-25T07:40:03.927Z</time></trkpt><trkpt lat="37.1184883" lon="14.843175"><ele>914.2</ele><time>2026-04-25T07:40:04.927Z</time></trkpt><trkpt lat="37.1185917" lon="14.8431783"><ele>914.0</ele><time>2026-04-25T07:40:05.926Z</time></trkpt><trkpt lat="37.11869" lon="14.8431817"><ele>914.0</ele><time>2026-04-25T07:40:06.926Z</time></trkpt><trkpt lat="37.11879" lon="14.8431817"><ele>914.0000000000001</ele><time>2026-04-25T07:40:07.927Z</time></trkpt><trkpt lat="37.1188917" lon="14.8431683"><ele>914.0000000000001</ele><time>2026-04-25T07:40:08.927Z</time></trkpt><trkpt lat="37.118995" lon="14.8431467"><ele>914.0</ele><time>2026-04-25T07:40:09.926Z</time></trkpt><trkpt lat="37.1190983" lon="14.843115"><ele>914.0</ele><time>2026-04-25T07:40:10.927Z</time></trkpt><trkpt lat="37.1191917" lon="14.84308"><ele>913.4000000000001</ele><time>2026-04-25T07:40:11.927Z</time></trkpt><trkpt lat="37.1192817" lon="14.8430483"><ele>912.8000000000001</ele><time>2026-04-25T07:40:12.927Z</time></trkpt><trkpt lat="37.1193717" lon="14.8430133"><ele>912.1999999999999</ele><time>2026-04-25T07:40:13.927Z</time></trkpt><trkpt lat="37.11946" lon="14.842975"><ele>911.5999999999999</ele><time>2026-04-25T07:40:14.926Z</time></trkpt><trkpt lat="37.1195467" lon="14.8429383"><ele>911.0</ele><time>2026-04-25T07:40:15.926Z</time></trkpt><trkpt lat="37.1196333" lon="14.8428883"><ele>911.0</ele><time>2026-04-25T07:40:16.926Z</time></trkpt><trkpt lat="37.1197117" lon="14.8428333"><ele>910.9999999999999</ele><time>2026-04-25T07:40:17.927Z</time></trkpt><trkpt lat="37.1197833" lon="14.8427583"><ele>910.9999999999999</ele><time>2026-04-25T07:40:18.927Z</time></trkpt><trkpt lat="37.1198483" lon="14.84267"><ele>911.0</ele><time>2026-04-25T07:40:19.927Z</time></trkpt><trkpt lat="37.119905" lon="14.8425567"><ele>911.0</ele><time>2026-04-25T07:40:20.926Z</time></trkpt><trkpt lat="37.1199583" lon="14.842435"><ele>910.0</ele><time>2026-04-25T07:40:21.926Z</time></trkpt><trkpt lat="37.12" lon="14.8423083"><ele>908.9999999999999</ele><time>2026-04-25T07:40:22.927Z</time></trkpt><trkpt lat="37.1200367" lon="14.8421933"><ele>907.9999999999999</ele><time>2026-04-25T07:40:23.926Z</time></trkpt><trkpt lat="37.1200733" lon="14.8420817"><ele>907.0</ele><time>2026-04-25T07:40:24.926Z</time></trkpt><trkpt lat="37.1201133" lon="14.8419833"><ele>906.0</ele><time>2026-04-25T07:40:25.927Z</time></trkpt><trkpt lat="37.1201583" lon="14.84189"><ele>906.0</ele><time>2026-04-25T07:40:26.927Z</time></trkpt><trkpt lat="37.12021" lon="14.8418133"><ele>906.0</ele><time>2026-04-25T07:40:27.927Z</time></trkpt><trkpt lat="37.1202667" lon="14.8417417"><ele>906.0</ele><time>2026-04-25T07:40:28.926Z</time></trkpt><trkpt lat="37.1203317" lon="14.8416683"><ele>906.0</ele><time>2026-04-25T07:40:29.927Z</time></trkpt><trkpt lat="37.1204017" lon="14.8416167"><ele>906.0</ele><time>2026-04-25T07:40:30.927Z</time></trkpt><trkpt lat="37.1204783" lon="14.8415717"><ele>906.0</ele><time>2026-04-25T07:40:31.927Z</time></trkpt><trkpt lat="37.1205617" lon="14.84154"><ele>905.0</ele><time>2026-04-25T07:40:32.927Z</time></trkpt><trkpt lat="37.1206367" lon="14.8415233"><ele>904.0</ele><time>2026-04-25T07:40:33.926Z</time></trkpt><trkpt lat="37.1207133" lon="14.841515"><ele>903.0</ele><time>2026-04-25T07:40:34.927Z</time></trkpt><trkpt lat="37.120795" lon="14.8415117"><ele>902.0</ele><time>2026-04-25T07:40:35.926Z</time></trkpt><trkpt lat="37.1208733" lon="14.8415183"><ele>901.0</ele><time>2026-04-25T07:40:36.927Z</time></trkpt><trkpt lat="37.1209633" lon="14.841535"><ele>900.0</ele><time>2026-04-25T07:40:37.927Z</time></trkpt><trkpt lat="37.12105" lon="14.8415683"><ele>900.3333333333334</ele><time>2026-04-25T07:40:38.927Z</time></trkpt><trkpt lat="37.12113" lon="14.84161"><ele>900.6666666666667</ele><time>2026-04-25T07:40:39.926Z</time></trkpt><trkpt lat="37.1211983" lon="14.8416667"><ele>901.0</ele><time>2026-04-25T07:40:40.926Z</time></trkpt><trkpt lat="37.12126" lon="14.84173"><ele>901.3333333333334</ele><time>2026-04-25T07:40:41.927Z</time></trkpt><trkpt lat="37.1213233" lon="14.8417983"><ele>901.6666666666667</ele><time>2026-04-25T07:40:42.927Z</time></trkpt><trkpt lat="37.1213883" lon="14.8418733"><ele>902.0</ele><time>2026-04-25T07:40:43.927Z</time></trkpt><trkpt lat="37.12145" lon="14.8419467"><ele>902.0000000000001</ele><time>2026-04-25T07:40:44.927Z</time></trkpt><trkpt lat="37.1215183" lon="14.8420233"><ele>902.0</ele><time>2026-04-25T07:40:45.927Z</time></trkpt><trkpt lat="37.1215817" lon="14.8420917"><ele>902.0</ele><time>2026-04-25T07:40:46.926Z</time></trkpt><trkpt lat="37.121645" lon="14.8421617"><ele>902.0</ele><time>2026-04-25T07:40:47.926Z</time></trkpt><trkpt lat="37.121705" lon="14.8422367"><ele>902.0000000000001</ele><time>2026-04-25T07:40:48.927Z</time></trkpt><trkpt lat="37.1217633" lon="14.8423133"><ele>902.0</ele><time>2026-04-25T07:40:49.926Z</time></trkpt><trkpt lat="37.1218183" lon="14.8423867"><ele>900.5000000000001</ele><time>2026-04-25T07:40:50.927Z</time></trkpt><trkpt lat="37.12188" lon="14.8424617"><ele>899.0</ele><time>2026-04-25T07:40:51.926Z</time></trkpt><trkpt lat="37.12194" lon="14.8425333"><ele>897.5</ele><time>2026-04-25T07:40:52.927Z</time></trkpt><trkpt lat="37.122005" lon="14.84261"><ele>896.0</ele><time>2026-04-25T07:40:53.926Z</time></trkpt><trkpt lat="37.1220633" lon="14.8426867"><ele>894.5000000000001</ele><time>2026-04-25T07:40:54.927Z</time></trkpt><trkpt lat="37.12212" lon="14.8427617"><ele>893.0</ele><time>2026-04-25T07:40:55.927Z</time></trkpt><trkpt lat="37.1221767" lon="14.84284"><ele>893.0000000000001</ele><time>2026-04-25T07:40:56.927Z</time></trkpt><trkpt lat="37.1222333" lon="14.842915"><ele>893.0</ele><time>2026-04-25T07:40:57.926Z</time></trkpt><trkpt lat="37.1222867" lon="14.8429917"><ele>893.0</ele><time>2026-04-25T07:40:58.926Z</time></trkpt><trkpt lat="37.1223517" lon="14.8430617"><ele>893.0</ele><time>2026-04-25T07:40:59.926Z</time></trkpt><trkpt lat="37.1224133" lon="14.84313"><ele>893.0000000000001</ele><time>2026-04-25T07:41:00.926Z</time></trkpt><trkpt lat="37.1224783" lon="14.843195"><ele>893.0</ele><time>2026-04-25T07:41:01.926Z</time></trkpt><trkpt lat="37.1225517" lon="14.8432533"><ele>891.6666666666667</ele><time>2026-04-25T07:41:02.927Z</time></trkpt><trkpt lat="37.1226267" lon="14.843305"><ele>890.3333333333334</ele><time>2026-04-25T07:41:03.926Z</time></trkpt><trkpt lat="37.1226983" lon="14.8433583"><ele>889.0</ele><time>2026-04-25T07:41:04.927Z</time></trkpt><trkpt lat="37.1227683" lon="14.84341"><ele>887.6666666666667</ele><time>2026-04-25T07:41:05.927Z</time></trkpt><trkpt lat="37.1228433" lon="14.8434633"><ele>886.3333333333334</ele><time>2026-04-25T07:41:06.927Z</time></trkpt><trkpt lat="37.12292" lon="14.8435317"><ele>885.0</ele><time>2026-04-25T07:41:07.927Z</time></trkpt><trkpt lat="37.12299" lon="14.84358"><ele>885.0</ele><time>2026-04-25T07:41:08.927Z</time></trkpt><trkpt lat="37.12306" lon="14.8436333"><ele>885.0</ele><time>2026-04-25T07:41:09.926Z</time></trkpt><trkpt lat="37.1231333" lon="14.843685"><ele>885.0</ele><time>2026-04-25T07:41:10.927Z</time></trkpt><trkpt lat="37.1232033" lon="14.8437383"><ele>885.0</ele><time>2026-04-25T07:41:11.926Z</time></trkpt><trkpt lat="37.12327" lon="14.8437933"><ele>885.0</ele><time>2026-04-25T07:41:12.926Z</time></trkpt><trkpt lat="37.1233383" lon="14.843855"><ele>885.0</ele><time>2026-04-25T07:41:13.927Z</time></trkpt><trkpt lat="37.1234067" lon="14.8439117"><ele>883.4</ele><time>2026-04-25T07:41:14.927Z</time></trkpt><trkpt lat="37.1234733" lon="14.84398"><ele>881.8</ele><time>2026-04-25T07:41:15.926Z</time></trkpt><trkpt lat="37.123545" lon="14.8440533"><ele>880.2</ele><time>2026-04-25T07:41:16.926Z</time></trkpt><trkpt lat="37.1236117" lon="14.8441317"><ele>878.6</ele><time>2026-04-25T07:41:17.926Z</time></trkpt><trkpt lat="37.1236783" lon="14.844215"><ele>877.0</ele><time>2026-04-25T07:41:18.927Z</time></trkpt><trkpt lat="37.12375" lon="14.8443033"><ele>876.9999999999999</ele><time>2026-04-25T07:41:19.927Z</time></trkpt><trkpt lat="37.1238167" lon="14.8443833"><ele>877.0</ele><time>2026-04-25T07:41:20.926Z</time></trkpt><trkpt lat="37.1238783" lon="14.8444667"><ele>877.0</ele><time>2026-04-25T07:41:21.927Z</time></trkpt><trkpt lat="37.1239367" lon="14.84455"><ele>877.0</ele><time>2026-04-25T07:41:22.926Z</time></trkpt><trkpt lat="37.123985" lon="14.844635"><ele>876.9999999999999</ele><time>2026-04-25T07:41:23.926Z</time></trkpt><trkpt lat="37.12402" lon="14.8447333"><ele>877.0</ele><time>2026-04-25T07:41:24.927Z</time></trkpt><trkpt lat="37.12405" lon="14.8448333"><ele>873.6666666666666</ele><time>2026-04-25T07:41:25.927Z</time></trkpt><trkpt lat="37.1240767" lon="14.84493"><ele>870.3333333333333</ele><time>2026-04-25T07:41:26.926Z</time></trkpt><trkpt lat="37.1241" lon="14.8450267"><ele>867.0</ele><time>2026-04-25T07:41:27.927Z</time></trkpt><trkpt lat="37.1241133" lon="14.8451267"><ele>863.6666666666667</ele><time>2026-04-25T07:41:28.927Z</time></trkpt><trkpt lat="37.1241233" lon="14.8452283"><ele>860.3333333333334</ele><time>2026-04-25T07:41:29.927Z</time></trkpt><trkpt lat="37.1241367" lon="14.845325"><ele>857.0</ele><time>2026-04-25T07:41:30.927Z</time></trkpt><trkpt lat="37.1241583" lon="14.84541"><ele>857.0</ele><time>2026-04-25T07:41:31.927Z</time></trkpt><trkpt lat="37.1241783" lon="14.8454867"><ele>857.0</ele><time>2026-04-25T07:41:32.926Z</time></trkpt><trkpt lat="37.124215" lon="14.8455583"><ele>857.0</ele><time>2026-04-25T07:41:33.926Z</time></trkpt><trkpt lat="37.1242633" lon="14.845615"><ele>857.0</ele><time>2026-04-25T07:41:34.927Z</time></trkpt><trkpt lat="37.1243183" lon="14.845655"><ele>857.0</ele><time>2026-04-25T07:41:35.926Z</time></trkpt><trkpt lat="37.12437" lon="14.8457033"><ele>857.0</ele><time>2026-04-25T07:41:36.927Z</time></trkpt><trkpt lat="37.1244167" lon="14.8457583"><ele>857.0</ele><time>2026-04-25T07:41:37.927Z</time></trkpt><trkpt lat="37.1244517" lon="14.8458267"><ele>857.0</ele><time>2026-04-25T07:41:38.927Z</time></trkpt><trkpt lat="37.124505" lon="14.84595"><ele>857.0</ele><time>2026-04-25T07:41:40.927Z</time></trkpt><trkpt lat="37.1245017" lon="14.8461"><ele>857.0</ele><time>2026-04-25T07:41:42.926Z</time></trkpt><trkpt lat="37.1244333" lon="14.8462383"><ele>857.0</ele><time>2026-04-25T07:41:44.927Z</time></trkpt><trkpt lat="37.1243983" lon="14.846315"><ele>857.0</ele><time>2026-04-25T07:41:45.927Z</time></trkpt><trkpt lat="37.1243533" lon="14.8464"><ele>855.3333333333334</ele><time>2026-04-25T07:41:46.927Z</time></trkpt><trkpt lat="37.124315" lon="14.8464783"><ele>853.6666666666667</ele><time>2026-04-25T07:41:47.926Z</time></trkpt><trkpt lat="37.124275" lon="14.84658"><ele>852.0</ele><time>2026-04-25T07:41:48.927Z</time></trkpt><trkpt lat="37.1242533" lon="14.8467017"><ele>850.3333333333333</ele><time>2026-04-25T07:41:49.926Z</time></trkpt><trkpt lat="37.1242383" lon="14.8468167"><ele>848.6666666666666</ele><time>2026-04-25T07:41:50.926Z</time></trkpt><trkpt lat="37.12422" lon="14.846925"><ele>847.0</ele><time>2026-04-25T07:41:51.927Z</time></trkpt><trkpt lat="37.124205" lon="14.847025"><ele>843.6</ele><time>2026-04-25T07:41:52.926Z</time></trkpt><trkpt lat="37.1241867" lon="14.8471667"><ele>840.2</ele><time>2026-04-25T07:41:54.926Z</time></trkpt><trkpt lat="37.1242033" lon="14.847285"><ele>836.8</ele><time>2026-04-25T07:41:57.926Z</time></trkpt><trkpt lat="37.1241717" lon="14.847375"><ele>833.4</ele><time>2026-04-25T07:41:59.926Z</time></trkpt><trkpt lat="37.1241683" lon="14.8474833"><ele>830.0</ele><time>2026-04-25T07:42:01.926Z</time></trkpt><trkpt lat="37.1241783" lon="14.8475767"><ele>830.0000000000001</ele><time>2026-04-25T07:42:03.927Z</time></trkpt><trkpt lat="37.1242333" lon="14.8476233"><ele>830.0</ele><time>2026-04-25T07:42:06.926Z</time></trkpt><trkpt lat="37.1242983" lon="14.8476367"><ele>830.0</ele><time>2026-04-25T07:42:17.927Z</time></trkpt><trkpt lat="37.12437" lon="14.8476167"><ele>830.0</ele><time>2026-04-25T07:42:19.926Z</time></trkpt><trkpt lat="37.1244267" lon="14.8475683"><ele>830.0000000000001</ele><time>2026-04-25T07:42:21.927Z</time></trkpt><trkpt lat="37.1245117" lon="14.847495"><ele>830.0</ele><time>2026-04-25T07:42:23.927Z</time></trkpt><trkpt lat="37.124575" lon="14.8474433"><ele>830.0</ele><time>2026-04-25T07:42:24.926Z</time></trkpt><trkpt lat="37.12464" lon="14.8473733"><ele>830.0</ele><time>2026-04-25T07:42:25.927Z</time></trkpt><trkpt lat="37.1247083" lon="14.8473017"><ele>830.0</ele><time>2026-04-25T07:42:26.927Z</time></trkpt><trkpt lat="37.1247817" lon="14.84723"><ele>830.0</ele><time>2026-04-25T07:42:27.926Z</time></trkpt><trkpt lat="37.1248617" lon="14.8471567"><ele>830.0</ele><time>2026-04-25T07:42:28.926Z</time></trkpt><trkpt lat="37.12494" lon="14.8470867"><ele>827.4</ele><time>2026-04-25T07:42:29.926Z</time></trkpt><trkpt lat="37.1250183" lon="14.8470283"><ele>824.8</ele><time>2026-04-25T07:42:30.927Z</time></trkpt><trkpt lat="37.1251" lon="14.8469683"><ele>822.2</ele><time>2026-04-25T07:42:31.927Z</time></trkpt><trkpt lat="37.1251883" lon="14.8469067"><ele>819.6</ele><time>2026-04-25T07:42:32.926Z</time></trkpt><trkpt lat="37.1252717" lon="14.8468533"><ele>817.0</ele><time>2026-04-25T07:42:33.927Z</time></trkpt><trkpt lat="37.1253617" lon="14.8467917"><ele>816.8333333333333</ele><time>2026-04-25T07:42:34.926Z</time></trkpt><trkpt lat="37.1254383" lon="14.84673"><ele>816.6666666666666</ele><time>2026-04-25T07:42:35.927Z</time></trkpt><trkpt lat="37.125505" lon="14.846685"><ele>816.5</ele><time>2026-04-25T07:42:36.927Z</time></trkpt><trkpt lat="37.1255717" lon="14.846645"><ele>816.3333333333333</ele><time>2026-04-25T07:42:37.926Z</time></trkpt><trkpt lat="37.1256317" lon="14.8466017"><ele>816.1666666666666</ele><time>2026-04-25T07:42:38.927Z</time></trkpt><trkpt lat="37.12571" lon="14.8465117"><ele>816.0</ele><time>2026-04-25T07:42:40.927Z</time></trkpt><trkpt lat="37.1257667" lon="14.8464483"><ele>813.1999999999999</ele><time>2026-04-25T07:42:42.926Z</time></trkpt><trkpt lat="37.1258333" lon="14.8465067"><ele>810.4</ele><time>2026-04-25T07:42:45.927Z</time></trkpt><trkpt lat="37.12586" lon="14.8466317"><ele>807.6</ele><time>2026-04-25T07:42:47.927Z</time></trkpt><trkpt lat="37.1258767" lon="14.8467083"><ele>804.8</ele><time>2026-04-25T07:42:48.927Z</time></trkpt><trkpt lat="37.1259183" lon="14.8468667"><ele>802.0</ele><time>2026-04-25T07:42:50.927Z</time></trkpt><trkpt lat="37.12594" lon="14.84695"><ele>801.9999999999999</ele><time>2026-04-25T07:42:51.927Z</time></trkpt><trkpt lat="37.1259633" lon="14.847035"><ele>802.0</ele><time>2026-04-25T07:42:52.927Z</time></trkpt><trkpt lat="37.1259883" lon="14.847115"><ele>802.0</ele><time>2026-04-25T07:42:53.927Z</time></trkpt><trkpt lat="37.1260133" lon="14.847195"><ele>802.0</ele><time>2026-04-25T07:42:54.927Z</time></trkpt><trkpt lat="37.1260333" lon="14.84727"><ele>801.9999999999999</ele><time>2026-04-25T07:42:55.926Z</time></trkpt><trkpt lat="37.12608" lon="14.84742"><ele>802.0</ele><time>2026-04-25T07:42:57.927Z</time></trkpt><trkpt lat="37.1260983" lon="14.8475083"><ele>802.0</ele><time>2026-04-25T07:42:58.927Z</time></trkpt><trkpt lat="37.1261067" lon="14.8476017"><ele>802.0</ele><time>2026-04-25T07:42:59.927Z</time></trkpt><trkpt lat="37.126115" lon="14.8477"><ele>802.0</ele><time>2026-04-25T07:43:00.926Z</time></trkpt><trkpt lat="37.1261183" lon="14.847795"><ele>802.0</ele><time>2026-04-25T07:43:01.927Z</time></trkpt><trkpt lat="37.1261017" lon="14.8478767"><ele>802.0</ele><time>2026-04-25T07:43:02.927Z</time></trkpt><trkpt lat="37.126085" lon="14.847965"><ele>802.0</ele><time>2026-04-25T07:43:03.927Z</time></trkpt><trkpt lat="37.1260583" lon="14.8480517"><ele>802.0</ele><time>2026-04-25T07:43:04.927Z</time></trkpt><trkpt lat="37.1260333" lon="14.8481433"><ele>801.9999999999999</ele><time>2026-04-25T07:43:05.927Z</time></trkpt><trkpt lat="37.1260067" lon="14.8482283"><ele>802.0</ele><time>2026-04-25T07:43:06.926Z</time></trkpt><trkpt lat="37.1259733" lon="14.848315"><ele>802.0</ele><time>2026-04-25T07:43:07.926Z</time></trkpt><trkpt lat="37.1259383" lon="14.8484083"><ele>802.0</ele><time>2026-04-25T07:43:08.927Z</time></trkpt><trkpt lat="37.1259067" lon="14.8485067"><ele>801.9999999999999</ele><time>2026-04-25T07:43:09.927Z</time></trkpt><trkpt lat="37.12587" lon="14.848605"><ele>802.0</ele><time>2026-04-25T07:43:10.926Z</time></trkpt><trkpt lat="37.1258383" lon="14.8487067"><ele>802.0</ele><time>2026-04-25T07:43:11.927Z</time></trkpt><trkpt lat="37.1258033" lon="14.84882"><ele>802.0</ele><time>2026-04-25T07:43:12.926Z</time></trkpt><trkpt lat="37.1257667" lon="14.848935"><ele>802.0</ele><time>2026-04-25T07:43:13.927Z</time></trkpt><trkpt lat="37.1257367" lon="14.8490467"><ele>802.0</ele><time>2026-04-25T07:43:14.927Z</time></trkpt><trkpt lat="37.1257017" lon="14.8491433"><ele>802.0</ele><time>2026-04-25T07:43:15.926Z</time></trkpt><trkpt lat="37.125665" lon="14.849245"><ele>805.1666666666666</ele><time>2026-04-25T07:43:16.927Z</time></trkpt><trkpt lat="37.125635" lon="14.8493367"><ele>808.3333333333333</ele><time>2026-04-25T07:43:17.927Z</time></trkpt><trkpt lat="37.12561" lon="14.8494317"><ele>811.5</ele><time>2026-04-25T07:43:18.927Z</time></trkpt><trkpt lat="37.1255867" lon="14.8495233"><ele>814.6666666666667</ele><time>2026-04-25T07:43:19.927Z</time></trkpt><trkpt lat="37.1255567" lon="14.8496133"><ele>817.8333333333334</ele><time>2026-04-25T07:43:20.926Z</time></trkpt><trkpt lat="37.125535" lon="14.849705"><ele>821.0</ele><time>2026-04-25T07:43:21.926Z</time></trkpt><trkpt lat="37.1255217" lon="14.8498017"><ele>821.0000000000001</ele><time>2026-04-25T07:43:22.926Z</time></trkpt><trkpt lat="37.1255033" lon="14.8498917"><ele>821.0</ele><time>2026-04-25T07:43:23.926Z</time></trkpt><trkpt lat="37.12548" lon="14.849995"><ele>821.0</ele><time>2026-04-25T07:43:24.927Z</time></trkpt><trkpt lat="37.1254583" lon="14.8500883"><ele>821.0</ele><time>2026-04-25T07:43:25.926Z</time></trkpt><trkpt lat="37.1254317" lon="14.8501867"><ele>821.0000000000001</ele><time>2026-04-25T07:43:26.927Z</time></trkpt><trkpt lat="37.125405" lon="14.8502867"><ele>821.0</ele><time>2026-04-25T07:43:27.926Z</time></trkpt><trkpt lat="37.1253767" lon="14.8503917"><ele>820.0000000000001</ele><time>2026-04-25T07:43:28.926Z</time></trkpt><trkpt lat="37.1253517" lon="14.8504983"><ele>819.0</ele><time>2026-04-25T07:43:29.926Z</time></trkpt><trkpt lat="37.1253217" lon="14.8506"><ele>818.0</ele><time>2026-04-25T07:43:30.926Z</time></trkpt><trkpt lat="37.1252917" lon="14.8506967"><ele>817.0</ele><time>2026-04-25T07:43:31.927Z</time></trkpt><trkpt lat="37.12526" lon="14.8507983"><ele>816.0000000000001</ele><time>2026-04-25T07:43:32.927Z</time></trkpt><trkpt lat="37.12523" lon="14.8508917"><ele>815.0</ele><time>2026-04-25T07:43:33.926Z</time></trkpt><trkpt lat="37.1251967" lon="14.8509817"><ele>814.3333333333334</ele><time>2026-04-25T07:43:34.927Z</time></trkpt><trkpt lat="37.12517" lon="14.85109"><ele>813.6666666666667</ele><time>2026-04-25T07:43:35.927Z</time></trkpt><trkpt lat="37.1251467" lon="14.85119"><ele>813.0</ele><time>2026-04-25T07:43:36.926Z</time></trkpt><trkpt lat="37.1251233" lon="14.8512933"><ele>812.3333333333333</ele><time>2026-04-25T07:43:37.927Z</time></trkpt><trkpt lat="37.1250983" lon="14.8513933"><ele>811.6666666666666</ele><time>2026-04-25T07:43:38.926Z</time></trkpt><trkpt lat="37.1250767" lon="14.85149"><ele>811.0</ele><time>2026-04-25T07:43:39.927Z</time></trkpt><trkpt lat="37.12505" lon="14.8515867"><ele>810.9999999999999</ele><time>2026-04-25T07:43:40.927Z</time></trkpt><trkpt lat="37.125035" lon="14.851685"><ele>811.0</ele><time>2026-04-25T07:43:41.927Z</time></trkpt><trkpt lat="37.125015" lon="14.8517933"><ele>811.0</ele><time>2026-04-25T07:43:42.927Z</time></trkpt><trkpt lat="37.1249783" lon="14.8519017"><ele>811.0</ele><time>2026-04-25T07:43:43.927Z</time></trkpt><trkpt lat="37.1249617" lon="14.8520067"><ele>810.9999999999999</ele><time>2026-04-25T07:43:44.926Z</time></trkpt><trkpt lat="37.1249533" lon="14.852105"><ele>811.0</ele><time>2026-04-25T07:43:45.926Z</time></trkpt><trkpt lat="37.12494" lon="14.852195"><ele>811.6666666666666</ele><time>2026-04-25T07:43:46.926Z</time></trkpt><trkpt lat="37.12492" lon="14.8522917"><ele>812.3333333333333</ele><time>2026-04-25T07:43:47.926Z</time></trkpt><trkpt lat="37.1249033" lon="14.8523783"><ele>813.0</ele><time>2026-04-25T07:43:48.927Z</time></trkpt><trkpt lat="37.1248817" lon="14.8524717"><ele>813.6666666666667</ele><time>2026-04-25T07:43:49.927Z</time></trkpt><trkpt lat="37.1248517" lon="14.8525617"><ele>814.3333333333334</ele><time>2026-04-25T07:43:50.926Z</time></trkpt><trkpt lat="37.1248167" lon="14.8526467"><ele>815.0</ele><time>2026-04-25T07:43:51.926Z</time></trkpt><trkpt lat="37.1247717" lon="14.852735"><ele>817.1666666666667</ele><time>2026-04-25T07:43:52.927Z</time></trkpt><trkpt lat="37.12472" lon="14.85281"><ele>819.3333333333334</ele><time>2026-04-25T07:43:53.927Z</time></trkpt><trkpt lat="37.1246667" lon="14.85289"><ele>821.5</ele><time>2026-04-25T07:43:54.926Z</time></trkpt><trkpt lat="37.124615" lon="14.8529683"><ele>823.6666666666667</ele><time>2026-04-25T07:43:55.927Z</time></trkpt><trkpt lat="37.1245617" lon="14.85305"><ele>825.8333333333334</ele><time>2026-04-25T07:43:56.927Z</time></trkpt><trkpt lat="37.1245133" lon="14.8531283"><ele>828.0</ele><time>2026-04-25T07:43:57.927Z</time></trkpt><trkpt lat="37.12446" lon="14.8532117"><ele>828.0</ele><time>2026-04-25T07:43:58.926Z</time></trkpt><trkpt lat="37.1244" lon="14.8532967"><ele>828.0</ele><time>2026-04-25T07:43:59.927Z</time></trkpt><trkpt lat="37.1243417" lon="14.8533883"><ele>828.0</ele><time>2026-04-25T07:44:00.926Z</time></trkpt><trkpt lat="37.1242933" lon="14.85347"><ele>828.0</ele><time>2026-04-25T07:44:01.927Z</time></trkpt><trkpt lat="37.1242467" lon="14.8535617"><ele>828.0</ele><time>2026-04-25T07:44:02.926Z</time></trkpt><trkpt lat="37.1242067" lon="14.853655"><ele>828.0</ele><time>2026-04-25T07:44:03.926Z</time></trkpt><trkpt lat="37.1241633" lon="14.8537383"><ele>829.3333333333334</ele><time>2026-04-25T07:44:04.926Z</time></trkpt><trkpt lat="37.1241117" lon="14.8537983"><ele>830.6666666666667</ele><time>2026-04-25T07:44:05.927Z</time></trkpt><trkpt lat="37.12403" lon="14.8539167"><ele>832.0</ele><time>2026-04-25T07:44:07.926Z</time></trkpt><trkpt lat="37.12407" lon="14.8539967"><ele>833.3333333333334</ele><time>2026-04-25T07:44:10.927Z</time></trkpt><trkpt lat="37.1241483" lon="14.854"><ele>834.6666666666667</ele><time>2026-04-25T07:44:12.926Z</time></trkpt><trkpt lat="37.12421" lon="14.8539433"><ele>836.0</ele><time>2026-04-25T07:44:13.927Z</time></trkpt><trkpt lat="37.124275" lon="14.8538783"><ele>836.0</ele><time>2026-04-25T07:44:14.927Z</time></trkpt><trkpt lat="37.1243433" lon="14.8538033"><ele>836.0</ele><time>2026-04-25T07:44:15.927Z</time></trkpt><trkpt lat="37.12441" lon="14.8537083"><ele>836.0</ele><time>2026-04-25T07:44:16.926Z</time></trkpt><trkpt lat="37.124485" lon="14.8536217"><ele>836.0</ele><time>2026-04-25T07:44:17.927Z</time></trkpt><trkpt lat="37.1245617" lon="14.8535633"><ele>836.0</ele><time>2026-04-25T07:44:18.926Z</time></trkpt><trkpt lat="37.1246367" lon="14.8535317"><ele>836.0</ele><time>2026-04-25T07:44:19.927Z</time></trkpt><trkpt lat="37.1247133" lon="14.8534783"><ele>836.0</ele><time>2026-04-25T07:44:20.927Z</time></trkpt><trkpt lat="37.1248017" lon="14.8534233"><ele>836.0</ele><time>2026-04-25T07:44:21.927Z</time></trkpt><trkpt lat="37.124885" lon="14.8533883"><ele>836.0</ele><time>2026-04-25T07:44:22.927Z</time></trkpt><trkpt lat="37.12498" lon="14.853355"><ele>836.0</ele><time>2026-04-25T07:44:23.927Z</time></trkpt><trkpt lat="37.1250817" lon="14.8533317"><ele>834.1999999999999</ele><time>2026-04-25T07:44:24.927Z</time></trkpt><trkpt lat="37.1251917" lon="14.8533067"><ele>832.4</ele><time>2026-04-25T07:44:25.927Z</time></trkpt><trkpt lat="37.1252917" lon="14.8532917"><ele>830.6</ele><time>2026-04-25T07:44:26.926Z</time></trkpt><trkpt lat="37.12539" lon="14.8533"><ele>828.8</ele><time>2026-04-25T07:44:27.926Z</time></trkpt><trkpt lat="37.1254917" lon="14.8532917"><ele>827.0</ele><time>2026-04-25T07:44:28.926Z</time></trkpt><trkpt lat="37.1256" lon="14.8533217"><ele>827.0000000000001</ele><time>2026-04-25T07:44:29.927Z</time></trkpt><trkpt lat="37.1256967" lon="14.8533283"><ele>827.0</ele><time>2026-04-25T07:44:30.926Z</time></trkpt><trkpt lat="37.1257783" lon="14.85335"><ele>827.0</ele><time>2026-04-25T07:44:31.927Z</time></trkpt><trkpt lat="37.1258717" lon="14.8533417"><ele>827.0</ele><time>2026-04-25T07:44:32.927Z</time></trkpt><trkpt lat="37.125955" lon="14.8533367"><ele>827.0000000000001</ele><time>2026-04-25T07:44:33.926Z</time></trkpt><trkpt lat="37.1260283" lon="14.85335"><ele>827.0</ele><time>2026-04-25T07:44:34.926Z</time></trkpt><trkpt lat="37.1260917" lon="14.853375"><ele>828.0</ele><time>2026-04-25T07:44:35.926Z</time></trkpt><trkpt lat="37.126155" lon="14.8534067"><ele>829.0</ele><time>2026-04-25T07:44:36.926Z</time></trkpt><trkpt lat="37.126215" lon="14.85344"><ele>830.0</ele><time>2026-04-25T07:44:37.927Z</time></trkpt><trkpt lat="37.1262717" lon="14.853475"><ele>831.0</ele><time>2026-04-25T07:44:38.927Z</time></trkpt><trkpt lat="37.1263233" lon="14.853585"><ele>832.0</ele><time>2026-04-25T07:44:40.927Z</time></trkpt><trkpt lat="37.1263317" lon="14.8536717"><ele>833.0</ele><time>2026-04-25T07:44:41.927Z</time></trkpt><trkpt lat="37.1263117" lon="14.8537683"><ele>834.0</ele><time>2026-04-25T07:44:42.926Z</time></trkpt><trkpt lat="37.1262717" lon="14.8538817"><ele>835.0</ele><time>2026-04-25T07:44:43.926Z</time></trkpt><trkpt lat="37.1262217" lon="14.8540067"><ele>836.0</ele><time>2026-04-25T07:44:44.927Z</time></trkpt><trkpt lat="37.1261567" lon="14.8541383"><ele>837.0</ele><time>2026-04-25T07:44:45.926Z</time></trkpt><trkpt lat="37.12609" lon="14.8542783"><ele>838.0</ele><time>2026-04-25T07:44:46.927Z</time></trkpt><trkpt lat="37.1260317" lon="14.85442"><ele>836.0</ele><time>2026-04-25T07:44:47.927Z</time></trkpt><trkpt lat="37.125975" lon="14.85456"><ele>834.0</ele><time>2026-04-25T07:44:48.926Z</time></trkpt><trkpt lat="37.1259117" lon="14.85471"><ele>832.0</ele><time>2026-04-25T07:44:49.926Z</time></trkpt><trkpt lat="37.125855" lon="14.854865"><ele>830.0</ele><time>2026-04-25T07:44:50.926Z</time></trkpt><trkpt lat="37.1257867" lon="14.85501"><ele>835.5</ele><time>2026-04-25T07:44:51.927Z</time></trkpt><trkpt lat="37.1257233" lon="14.85516"><ele>841.0</ele><time>2026-04-25T07:44:52.927Z</time></trkpt><trkpt lat="37.1256633" lon="14.855305"><ele>846.5</ele><time>2026-04-25T07:44:53.927Z</time></trkpt><trkpt lat="37.1256183" lon="14.8554567"><ele>852.0</ele><time>2026-04-25T07:44:54.927Z</time></trkpt><trkpt lat="37.12558" lon="14.8556083"><ele>852.0</ele><time>2026-04-25T07:44:55.926Z</time></trkpt><trkpt lat="37.125575" lon="14.8557633"><ele>852.0</ele><time>2026-04-25T07:44:56.927Z</time></trkpt><trkpt lat="37.1255867" lon="14.8558983"><ele>852.0</ele><time>2026-04-25T07:44:57.926Z</time></trkpt><trkpt lat="37.1256283" lon="14.856035"><ele>852.0</ele><time>2026-04-25T07:44:58.927Z</time></trkpt><trkpt lat="37.1256917" lon="14.8561617"><ele>845.5</ele><time>2026-04-25T07:44:59.926Z</time></trkpt><trkpt lat="37.12576" lon="14.8562683"><ele>839.0</ele><time>2026-04-25T07:45:00.926Z</time></trkpt><trkpt lat="37.1258533" lon="14.85636"><ele>832.5</ele><time>2026-04-25T07:45:01.927Z</time></trkpt><trkpt lat="37.1259667" lon="14.8564333"><ele>826.0</ele><time>2026-04-25T07:45:02.927Z</time></trkpt><trkpt lat="37.1260833" lon="14.856515"><ele>826.0</ele><time>2026-04-25T07:45:03.927Z</time></trkpt><trkpt lat="37.126205" lon="14.8566017"><ele>826.0</ele><time>2026-04-25T07:45:04.926Z</time></trkpt><trkpt lat="37.1263383" lon="14.8566817"><ele>826.0</ele><time>2026-04-25T07:45:05.926Z</time></trkpt><trkpt lat="37.126465" lon="14.856765"><ele>826.0</ele><time>2026-04-25T07:45:06.926Z</time></trkpt><trkpt lat="37.12659" lon="14.8568483"><ele>824.5</ele><time>2026-04-25T07:45:07.927Z</time></trkpt><trkpt lat="37.1267167" lon="14.8569233"><ele>823.0</ele><time>2026-04-25T07:45:08.927Z</time></trkpt><trkpt lat="37.1268367" lon="14.856995"><ele>821.5</ele><time>2026-04-25T07:45:09.926Z</time></trkpt><trkpt lat="37.1269517" lon="14.85706"><ele>820.0</ele><time>2026-04-25T07:45:10.927Z</time></trkpt><trkpt lat="37.1270683" lon="14.8571233"><ele>820.0</ele><time>2026-04-25T07:45:11.926Z</time></trkpt><trkpt lat="37.12718" lon="14.857195"><ele>820.0</ele><time>2026-04-25T07:45:12.926Z</time></trkpt><trkpt lat="37.1272933" lon="14.8572833"><ele>820.0</ele><time>2026-04-25T07:45:13.927Z</time></trkpt><trkpt lat="37.1274067" lon="14.857385"><ele>820.0</ele><time>2026-04-25T07:45:14.926Z</time></trkpt><trkpt lat="37.12752" lon="14.8574833"><ele>819.5</ele><time>2026-04-25T07:45:15.927Z</time></trkpt><trkpt lat="37.127625" lon="14.8575817"><ele>819.0</ele><time>2026-04-25T07:45:16.927Z</time></trkpt><trkpt lat="37.1277317" lon="14.8576783"><ele>818.5</ele><time>2026-04-25T07:45:17.926Z</time></trkpt><trkpt lat="37.12784" lon="14.85777"><ele>818.0</ele><time>2026-04-25T07:45:18.926Z</time></trkpt><trkpt lat="37.1279467" lon="14.8578633"><ele>818.0</ele><time>2026-04-25T07:45:19.926Z</time></trkpt><trkpt lat="37.1280333" lon="14.8579667"><ele>818.0</ele><time>2026-04-25T07:45:20.926Z</time></trkpt><trkpt lat="37.1281083" lon="14.8580833"><ele>818.0</ele><time>2026-04-25T07:45:21.926Z</time></trkpt><trkpt lat="37.1281683" lon="14.8582117"><ele>818.0</ele><time>2026-04-25T07:45:22.927Z</time></trkpt><trkpt lat="37.1282067" lon="14.8583583"><ele>820.75</ele><time>2026-04-25T07:45:23.927Z</time></trkpt><trkpt lat="37.1282167" lon="14.85852"><ele>823.5</ele><time>2026-04-25T07:45:24.926Z</time></trkpt><trkpt lat="37.1282233" lon="14.8586833"><ele>826.25</ele><time>2026-04-25T07:45:25.926Z</time></trkpt><trkpt lat="37.1282267" lon="14.8588483"><ele>829.0</ele><time>2026-04-25T07:45:26.927Z</time></trkpt><trkpt lat="37.1282283" lon="14.859015"><ele>821.0</ele><time>2026-04-25T07:45:27.927Z</time></trkpt><trkpt lat="37.1282267" lon="14.8591867"><ele>813.0</ele><time>2026-04-25T07:45:28.927Z</time></trkpt><trkpt lat="37.1282267" lon="14.859345"><ele>805.0</ele><time>2026-04-25T07:45:29.926Z</time></trkpt><trkpt lat="37.12823" lon="14.8595017"><ele>797.0</ele><time>2026-04-25T07:45:30.927Z</time></trkpt><trkpt lat="37.1282317" lon="14.85965"><ele>796.8</ele><time>2026-04-25T07:45:31.926Z</time></trkpt><trkpt lat="37.1282433" lon="14.8598"><ele>796.6</ele><time>2026-04-25T07:45:32.927Z</time></trkpt><trkpt lat="37.1282683" lon="14.85994"><ele>796.4</ele><time>2026-04-25T07:45:33.927Z</time></trkpt><trkpt lat="37.1283233" lon="14.8600383"><ele>796.1999999999999</ele><time>2026-04-25T07:45:34.926Z</time></trkpt><trkpt lat="37.1284117" lon="14.8601183"><ele>796.0</ele><time>2026-04-25T07:45:35.926Z</time></trkpt><trkpt lat="37.1285133" lon="14.86016"><ele>796.4</ele><time>2026-04-25T07:45:36.927Z</time></trkpt><trkpt lat="37.1286233" lon="14.8602017"><ele>796.8</ele><time>2026-04-25T07:45:37.927Z</time></trkpt><trkpt lat="37.12873" lon="14.86025"><ele>797.1999999999999</ele><time>2026-04-25T07:45:38.927Z</time></trkpt><trkpt lat="37.1288267" lon="14.860315"><ele>797.5999999999999</ele><time>2026-04-25T07:45:39.927Z</time></trkpt><trkpt lat="37.128915" lon="14.86038"><ele>798.0</ele><time>2026-04-25T07:45:40.927Z</time></trkpt><trkpt lat="37.1289983" lon="14.8604283"><ele>795.3333333333334</ele><time>2026-04-25T07:45:41.927Z</time></trkpt><trkpt lat="37.12908" lon="14.8604417"><ele>792.6666666666667</ele><time>2026-04-25T07:45:42.926Z</time></trkpt><trkpt lat="37.1291467" lon="14.86042"><ele>790.0</ele><time>2026-04-25T07:45:43.926Z</time></trkpt><trkpt lat="37.1292067" lon="14.8603533"><ele>787.3333333333334</ele><time>2026-04-25T07:45:44.926Z</time></trkpt><trkpt lat="37.1292333" lon="14.8602667"><ele>784.6666666666667</ele><time>2026-04-25T07:45:45.927Z</time></trkpt><trkpt lat="37.1292233" lon="14.86014"><ele>782.0</ele><time>2026-04-25T07:45:46.927Z</time></trkpt><trkpt lat="37.12919" lon="14.8599867"><ele>781.5</ele><time>2026-04-25T07:45:47.926Z</time></trkpt><trkpt lat="37.1291517" lon="14.8598233"><ele>781.0</ele><time>2026-04-25T07:45:48.926Z</time></trkpt><trkpt lat="37.1291167" lon="14.859685"><ele>780.5</ele><time>2026-04-25T07:45:49.927Z</time></trkpt><trkpt lat="37.1290667" lon="14.8595617"><ele>780.0</ele><time>2026-04-25T07:45:50.927Z</time></trkpt><trkpt lat="37.128985" lon="14.859465"><ele>783.2</ele><time>2026-04-25T07:45:51.927Z</time></trkpt><trkpt lat="37.1289" lon="14.859415"><ele>786.4</ele><time>2026-04-25T07:45:52.927Z</time></trkpt><trkpt lat="37.1288083" lon="14.85936"><ele>789.5999999999999</ele><time>2026-04-25T07:45:53.926Z</time></trkpt><trkpt lat="37.1287283" lon="14.8592883"><ele>792.8</ele><time>2026-04-25T07:45:54.927Z</time></trkpt><trkpt lat="37.1286833" lon="14.859175"><ele>796.0</ele><time>2026-04-25T07:45:55.927Z</time></trkpt><trkpt lat="37.1286617" lon="14.8590433"><ele>796.25</ele><time>2026-04-25T07:45:56.926Z</time></trkpt><trkpt lat="37.128655" lon="14.8588833"><ele>796.5</ele><time>2026-04-25T07:45:57.926Z</time></trkpt><trkpt lat="37.12866" lon="14.8587217"><ele>796.75</ele><time>2026-04-25T07:45:58.926Z</time></trkpt><trkpt lat="37.1286717" lon="14.8585633"><ele>797.0</ele><time>2026-04-25T07:45:59.926Z</time></trkpt><trkpt lat="37.1286833" lon="14.8584017"><ele>796.25</ele><time>2026-04-25T07:46:00.927Z</time></trkpt><trkpt lat="37.1286917" lon="14.8582283"><ele>795.5</ele><time>2026-04-25T07:46:01.927Z</time></trkpt><trkpt lat="37.1286917" lon="14.8580417"><ele>794.75</ele><time>2026-04-25T07:46:02.926Z</time></trkpt><trkpt lat="37.1286917" lon="14.8578717"><ele>794.0</ele><time>2026-04-25T07:46:03.926Z</time></trkpt><trkpt lat="37.128695" lon="14.85771"><ele>793.0</ele><time>2026-04-25T07:46:04.927Z</time></trkpt><trkpt lat="37.12871" lon="14.8575533"><ele>792.0</ele><time>2026-04-25T07:46:05.927Z</time></trkpt><trkpt lat="37.1287133" lon="14.8573917"><ele>791.0</ele><time>2026-04-25T07:46:06.927Z</time></trkpt><trkpt lat="37.1287167" lon="14.85723"><ele>790.0</ele><time>2026-04-25T07:46:07.926Z</time></trkpt><trkpt lat="37.1287117" lon="14.857055"><ele>790.0</ele><time>2026-04-25T07:46:08.927Z</time></trkpt><trkpt lat="37.1287" lon="14.8568817"><ele>790.0</ele><time>2026-04-25T07:46:09.926Z</time></trkpt><trkpt lat="37.128665" lon="14.8567133"><ele>790.0</ele><time>2026-04-25T07:46:10.927Z</time></trkpt><trkpt lat="37.1286017" lon="14.856585"><ele>790.0</ele><time>2026-04-25T07:46:11.927Z</time></trkpt><trkpt lat="37.1285383" lon="14.8564617"><ele>788.4</ele><time>2026-04-25T07:46:12.927Z</time></trkpt><trkpt lat="37.1284967" lon="14.8563567"><ele>786.8</ele><time>2026-04-25T07:46:13.926Z</time></trkpt><trkpt lat="37.1284833" lon="14.8562367"><ele>785.2</ele><time>2026-04-25T07:46:14.927Z</time></trkpt><trkpt lat="37.12851" lon="14.8561117"><ele>783.6</ele><time>2026-04-25T07:46:15.926Z</time></trkpt><trkpt lat="37.1285667" lon="14.8559767"><ele>782.0</ele><time>2026-04-25T07:46:16.927Z</time></trkpt><trkpt lat="37.1286067" lon="14.8558383"><ele>780.75</ele><time>2026-04-25T07:46:17.926Z</time></trkpt><trkpt lat="37.12862" lon="14.8556933"><ele>779.5</ele><time>2026-04-25T07:46:18.926Z</time></trkpt><trkpt lat="37.12861" lon="14.8555367"><ele>778.25</ele><time>2026-04-25T07:46:19.927Z</time></trkpt><trkpt lat="37.1285967" lon="14.8553683"><ele>777.0</ele><time>2026-04-25T07:46:20.926Z</time></trkpt><trkpt lat="37.1285767" lon="14.8552"><ele>776.0</ele><time>2026-04-25T07:46:21.927Z</time></trkpt><trkpt lat="37.1285533" lon="14.8550383"><ele>775.0</ele><time>2026-04-25T07:46:22.927Z</time></trkpt><trkpt lat="37.1285283" lon="14.854885"><ele>774.0</ele><time>2026-04-25T07:46:23.927Z</time></trkpt><trkpt lat="37.128505" lon="14.8547433"><ele>773.0</ele><time>2026-04-25T07:46:24.926Z</time></trkpt><trkpt lat="37.1284967" lon="14.8546167"><ele>773.0000000000001</ele><time>2026-04-25T07:46:25.926Z</time></trkpt><trkpt lat="37.1284867" lon="14.8545267"><ele>773.0</ele><time>2026-04-25T07:46:26.926Z</time></trkpt><trkpt lat="37.128515" lon="14.8544317"><ele>773.0</ele><time>2026-04-25T07:46:28.926Z</time></trkpt><trkpt lat="37.128585" lon="14.8544667"><ele>773.0</ele><time>2026-04-25T07:46:30.927Z</time></trkpt><trkpt lat="37.128635" lon="14.8545667"><ele>773.0000000000001</ele><time>2026-04-25T07:46:31.927Z</time></trkpt><trkpt lat="37.1286717" lon="14.8547033"><ele>773.0</ele><time>2026-04-25T07:46:32.926Z</time></trkpt><trkpt lat="37.1286967" lon="14.8548583"><ele>773.0</ele><time>2026-04-25T07:46:33.926Z</time></trkpt><trkpt lat="37.1287183" lon="14.8550383"><ele>773.0</ele><time>2026-04-25T07:46:34.927Z</time></trkpt><trkpt lat="37.1287517" lon="14.8552217"><ele>773.0</ele><time>2026-04-25T07:46:35.927Z</time></trkpt><trkpt lat="37.128785" lon="14.8554133"><ele>774.3333333333334</ele><time>2026-04-25T07:46:36.927Z</time></trkpt><trkpt lat="37.1288167" lon="14.8556083"><ele>775.6666666666667</ele><time>2026-04-25T07:46:37.926Z</time></trkpt><trkpt lat="37.128855" lon="14.8557867"><ele>777.0</ele><time>2026-04-25T07:46:38.926Z</time></trkpt><trkpt lat="37.12889" lon="14.8559767"><ele>778.25</ele><time>2026-04-25T07:46:39.926Z</time></trkpt><trkpt lat="37.1289283" lon="14.8561383"><ele>779.5</ele><time>2026-04-25T07:46:40.927Z</time></trkpt><trkpt lat="37.128965" lon="14.8563"><ele>780.75</ele><time>2026-04-25T07:46:41.926Z</time></trkpt><trkpt lat="37.1290167" lon="14.8564517"><ele>782.0</ele><time>2026-04-25T07:46:42.926Z</time></trkpt><trkpt lat="37.1290783" lon="14.8565933"><ele>775.75</ele><time>2026-04-25T07:46:43.926Z</time></trkpt><trkpt lat="37.1291367" lon="14.8567367"><ele>769.5</ele><time>2026-04-25T07:46:44.927Z</time></trkpt><trkpt lat="37.12919" lon="14.8568883"><ele>763.25</ele><time>2026-04-25T07:46:45.927Z</time></trkpt><trkpt lat="37.12923" lon="14.8570417"><ele>757.0</ele><time>2026-04-25T07:46:46.927Z</time></trkpt><trkpt lat="37.1292517" lon="14.8572017"><ele>757.0</ele><time>2026-04-25T07:46:47.927Z</time></trkpt><trkpt lat="37.1292433" lon="14.8573617"><ele>757.0</ele><time>2026-04-25T07:46:48.927Z</time></trkpt><trkpt lat="37.1292367" lon="14.85751"><ele>757.0</ele><time>2026-04-25T07:46:49.927Z</time></trkpt><trkpt lat="37.1292617" lon="14.857655"><ele>757.0</ele><time>2026-04-25T07:46:50.927Z</time></trkpt><trkpt lat="37.129315" lon="14.8577717"><ele>758.4000000000001</ele><time>2026-04-25T07:46:51.926Z</time></trkpt><trkpt lat="37.1293933" lon="14.857845"><ele>759.8000000000001</ele><time>2026-04-25T07:46:52.926Z</time></trkpt><trkpt lat="37.1294833" lon="14.8578767"><ele>761.2</ele><time>2026-04-25T07:46:53.926Z</time></trkpt><trkpt lat="37.129585" lon="14.85786"><ele>762.6</ele><time>2026-04-25T07:46:54.927Z</time></trkpt><trkpt lat="37.1297017" lon="14.8578117"><ele>764.0</ele><time>2026-04-25T07:46:55.926Z</time></trkpt><trkpt lat="37.12982" lon="14.8577783"><ele>760.0</ele><time>2026-04-25T07:46:56.926Z</time></trkpt><trkpt lat="37.12993" lon="14.8577833"><ele>756.0</ele><time>2026-04-25T07:46:57.927Z</time></trkpt><trkpt lat="37.130035" lon="14.857835"><ele>752.0</ele><time>2026-04-25T07:46:58.927Z</time></trkpt><trkpt lat="37.1301233" lon="14.857915"><ele>748.0</ele><time>2026-04-25T07:46:59.927Z</time></trkpt><trkpt lat="37.1301833" lon="14.8580117"><ele>744.0</ele><time>2026-04-25T07:47:00.926Z</time></trkpt><trkpt lat="37.1302333" lon="14.858135"><ele>744.0</ele><time>2026-04-25T07:47:01.927Z</time></trkpt><trkpt lat="37.1302617" lon="14.85828"><ele>744.0</ele><time>2026-04-25T07:47:02.927Z</time></trkpt><trkpt lat="37.130285" lon="14.8584317"><ele>744.0</ele><time>2026-04-25T07:47:03.926Z</time></trkpt><trkpt lat="37.130305" lon="14.8585833"><ele>744.0</ele><time>2026-04-25T07:47:04.926Z</time></trkpt><trkpt lat="37.1303283" lon="14.8587417"><ele>745.0</ele><time>2026-04-25T07:47:05.926Z</time></trkpt><trkpt lat="37.1303533" lon="14.85889"><ele>746.0</ele><time>2026-04-25T07:47:06.926Z</time></trkpt><trkpt lat="37.1303933" lon="14.8590417"><ele>747.0</ele><time>2026-04-25T07:47:07.927Z</time></trkpt><trkpt lat="37.1304583" lon="14.85919"><ele>748.0</ele><time>2026-04-25T07:47:08.926Z</time></trkpt><trkpt lat="37.1305183" lon="14.8593433"><ele>748.75</ele><time>2026-04-25T07:47:09.926Z</time></trkpt><trkpt lat="37.1305833" lon="14.8594933"><ele>749.5</ele><time>2026-04-25T07:47:10.927Z</time></trkpt><trkpt lat="37.1306367" lon="14.8596483"><ele>750.25</ele><time>2026-04-25T07:47:11.926Z</time></trkpt><trkpt lat="37.1306833" lon="14.8598067"><ele>751.0</ele><time>2026-04-25T07:47:12.927Z</time></trkpt><trkpt lat="37.130715" lon="14.859965"><ele>744.0</ele><time>2026-04-25T07:47:13.926Z</time></trkpt><trkpt lat="37.1307483" lon="14.8601233"><ele>737.0</ele><time>2026-04-25T07:47:14.927Z</time></trkpt><trkpt lat="37.1308033" lon="14.86028"><ele>730.0</ele><time>2026-04-25T07:47:15.927Z</time></trkpt><trkpt lat="37.1308767" lon="14.8604083"><ele>723.0</ele><time>2026-04-25T07:47:16.926Z</time></trkpt><trkpt lat="37.1309583" lon="14.86053"><ele>723.0</ele><time>2026-04-25T07:47:17.927Z</time></trkpt><trkpt lat="37.131025" lon="14.8606467"><ele>723.0</ele><time>2026-04-25T07:47:18.926Z</time></trkpt><trkpt lat="37.1310433" lon="14.86075"><ele>723.0</ele><time>2026-04-25T07:47:19.926Z</time></trkpt><trkpt lat="37.1310267" lon="14.8608533"><ele>723.0</ele><time>2026-04-25T07:47:20.926Z</time></trkpt><trkpt lat="37.1309833" lon="14.8609483"><ele>723.0</ele><time>2026-04-25T07:47:21.927Z</time></trkpt><trkpt lat="37.130915" lon="14.861025"><ele>722.0</ele><time>2026-04-25T07:47:22.927Z</time></trkpt><trkpt lat="37.1308333" lon="14.861125"><ele>721.0</ele><time>2026-04-25T07:47:23.927Z</time></trkpt><trkpt lat="37.13076" lon="14.8612417"><ele>720.0</ele><time>2026-04-25T07:47:24.927Z</time></trkpt><trkpt lat="37.1307083" lon="14.8613833"><ele>719.0</ele><time>2026-04-25T07:47:25.927Z</time></trkpt><trkpt lat="37.1306817" lon="14.8615433"><ele>719.0</ele><time>2026-04-25T07:47:26.927Z</time></trkpt><trkpt lat="37.1306917" lon="14.861695"><ele>719.0</ele><time>2026-04-25T07:47:27.927Z</time></trkpt><trkpt lat="37.1307267" lon="14.8618483"><ele>719.0</ele><time>2026-04-25T07:47:28.927Z</time></trkpt><trkpt lat="37.13078" lon="14.8620017"><ele>719.0</ele><time>2026-04-25T07:47:29.926Z</time></trkpt><trkpt lat="37.1308433" lon="14.8621433"><ele>719.0</ele><time>2026-04-25T07:47:30.927Z</time></trkpt><trkpt lat="37.1308833" lon="14.8622817"><ele>719.0</ele><time>2026-04-25T07:47:31.926Z</time></trkpt><trkpt lat="37.1309233" lon="14.862435"><ele>719.0</ele><time>2026-04-25T07:47:32.926Z</time></trkpt><trkpt lat="37.13095" lon="14.86261"><ele>719.0</ele><time>2026-04-25T07:47:33.926Z</time></trkpt><trkpt lat="37.13096" lon="14.8627867"><ele>719.25</ele><time>2026-04-25T07:47:34.926Z</time></trkpt><trkpt lat="37.1309667" lon="14.8629583"><ele>719.5</ele><time>2026-04-25T07:47:35.926Z</time></trkpt><trkpt lat="37.1309817" lon="14.8631267"><ele>719.75</ele><time>2026-04-25T07:47:36.927Z</time></trkpt><trkpt lat="37.1310083" lon="14.8632867"><ele>720.0</ele><time>2026-04-25T07:47:37.927Z</time></trkpt><trkpt lat="37.1310417" lon="14.8634417"><ele>721.5</ele><time>2026-04-25T07:47:38.927Z</time></trkpt><trkpt lat="37.1311117" lon="14.8635967"><ele>723.0</ele><time>2026-04-25T07:47:39.926Z</time></trkpt><trkpt lat="37.1311833" lon="14.86375"><ele>724.5</ele><time>2026-04-25T07:47:40.926Z</time></trkpt><trkpt lat="37.1312517" lon="14.8639083"><ele>726.0</ele><time>2026-04-25T07:47:41.926Z</time></trkpt><trkpt lat="37.1313067" lon="14.8640633"><ele>726.0</ele><time>2026-04-25T07:47:42.927Z</time></trkpt><trkpt lat="37.1313567" lon="14.8642317"><ele>726.0</ele><time>2026-04-25T07:47:43.927Z</time></trkpt><trkpt lat="37.1314117" lon="14.8643933"><ele>726.0</ele><time>2026-04-25T07:47:44.926Z</time></trkpt><trkpt lat="37.1314817" lon="14.86454"><ele>726.0</ele><time>2026-04-25T07:47:45.927Z</time></trkpt><trkpt lat="37.13157" lon="14.8646833"><ele>722.5</ele><time>2026-04-25T07:47:46.927Z</time></trkpt><trkpt lat="37.1316533" lon="14.8648167"><ele>719.0</ele><time>2026-04-25T07:47:47.926Z</time></trkpt><trkpt lat="37.1317283" lon="14.8649633"><ele>715.5</ele><time>2026-04-25T07:47:48.926Z</time></trkpt><trkpt lat="37.1317733" lon="14.8651167"><ele>712.0</ele><time>2026-04-25T07:47:49.927Z</time></trkpt><trkpt lat="37.1318017" lon="14.86528"><ele>712.0</ele><time>2026-04-25T07:47:50.926Z</time></trkpt><trkpt lat="37.131835" lon="14.8654333"><ele>712.0</ele><time>2026-04-25T07:47:51.927Z</time></trkpt><trkpt lat="37.1318867" lon="14.8655733"><ele>712.0</ele><time>2026-04-25T07:47:52.927Z</time></trkpt><trkpt lat="37.1319533" lon="14.8657067"><ele>712.0</ele><time>2026-04-25T07:47:53.927Z</time></trkpt><trkpt lat="37.1320417" lon="14.86582"><ele>712.0</ele><time>2026-04-25T07:47:54.927Z</time></trkpt><trkpt lat="37.1321417" lon="14.8659367"><ele>712.0</ele><time>2026-04-25T07:47:55.927Z</time></trkpt><trkpt lat="37.1322467" lon="14.86605"><ele>712.0</ele><time>2026-04-25T07:47:56.926Z</time></trkpt><trkpt lat="37.132355" lon="14.86617"><ele>712.0</ele><time>2026-04-25T07:47:57.926Z</time></trkpt><trkpt lat="37.132465" lon="14.8662817"><ele>709.4000000000001</ele><time>2026-04-25T07:47:58.926Z</time></trkpt><trkpt lat="37.1325633" lon="14.866385"><ele>706.8000000000001</ele><time>2026-04-25T07:47:59.927Z</time></trkpt><trkpt lat="37.13265" lon="14.8664633"><ele>704.2</ele><time>2026-04-25T07:48:00.927Z</time></trkpt><trkpt lat="37.1327233" lon="14.8665"><ele>701.6</ele><time>2026-04-25T07:48:01.927Z</time></trkpt><trkpt lat="37.132795" lon="14.8665"><ele>699.0</ele><time>2026-04-25T07:48:02.927Z</time></trkpt><trkpt lat="37.1328583" lon="14.86638"><ele>699.0</ele><time>2026-04-25T07:48:04.926Z</time></trkpt><trkpt lat="37.1328333" lon="14.8662817"><ele>699.0</ele><time>2026-04-25T07:48:05.927Z</time></trkpt><trkpt lat="37.1327783" lon="14.8661767"><ele>699.0</ele><time>2026-04-25T07:48:06.926Z</time></trkpt><trkpt lat="37.132695" lon="14.866065"><ele>699.0</ele><time>2026-04-25T07:48:07.926Z</time></trkpt><trkpt lat="37.13261" lon="14.86597"><ele>699.0</ele><time>2026-04-25T07:48:08.927Z</time></trkpt><trkpt lat="37.1325383" lon="14.8658767"><ele>697.6666666666666</ele><time>2026-04-25T07:48:09.927Z</time></trkpt><trkpt lat="37.132485" lon="14.8657817"><ele>696.3333333333334</ele><time>2026-04-25T07:48:10.927Z</time></trkpt><trkpt lat="37.1324517" lon="14.8657133"><ele>695.0</ele><time>2026-04-25T07:48:11.927Z</time></trkpt><trkpt lat="37.1324433" lon="14.865635"><ele>693.6666666666667</ele><time>2026-04-25T07:48:12.927Z</time></trkpt><trkpt lat="37.1325217" lon="14.8655683"><ele>692.3333333333334</ele><time>2026-04-25T07:48:14.927Z</time></trkpt><trkpt lat="37.1325933" lon="14.865595"><ele>691.0</ele><time>2026-04-25T07:48:15.926Z</time></trkpt><trkpt lat="37.132675" lon="14.8656583"><ele>691.0</ele><time>2026-04-25T07:48:16.927Z</time></trkpt><trkpt lat="37.1327583" lon="14.8657417"><ele>691.0</ele><time>2026-04-25T07:48:17.926Z</time></trkpt><trkpt lat="37.1328367" lon="14.8658267"><ele>691.0</ele><time>2026-04-25T07:48:18.927Z</time></trkpt><trkpt lat="37.1329117" lon="14.8659317"><ele>691.0</ele><time>2026-04-25T07:48:19.927Z</time></trkpt><trkpt lat="37.1329817" lon="14.8660483"><ele>691.0</ele><time>2026-04-25T07:48:20.927Z</time></trkpt><trkpt lat="37.1330367" lon="14.866175"><ele>692.5999999999999</ele><time>2026-04-25T07:48:21.927Z</time></trkpt><trkpt lat="37.1330667" lon="14.8663"><ele>694.2</ele><time>2026-04-25T07:48:22.926Z</time></trkpt><trkpt lat="37.1330983" lon="14.86643"><ele>695.8</ele><time>2026-04-25T07:48:23.927Z</time></trkpt><trkpt lat="37.13314" lon="14.8665567"><ele>697.4000000000001</ele><time>2026-04-25T07:48:24.926Z</time></trkpt><trkpt lat="37.1331783" lon="14.8666817"><ele>699.0</ele><time>2026-04-25T07:48:25.926Z</time></trkpt><trkpt lat="37.1332133" lon="14.8667983"><ele>695.5</ele><time>2026-04-25T07:48:26.926Z</time></trkpt><trkpt lat="37.1332633" lon="14.8669167"><ele>692.0</ele><time>2026-04-25T07:48:27.926Z</time></trkpt><trkpt lat="37.133325" lon="14.867025"><ele>688.5</ele><time>2026-04-25T07:48:28.927Z</time></trkpt><trkpt lat="37.1333983" lon="14.8671383"><ele>685.0</ele><time>2026-04-25T07:48:29.927Z</time></trkpt><trkpt lat="37.13347" lon="14.8672617"><ele>685.0</ele><time>2026-04-25T07:48:30.927Z</time></trkpt><trkpt lat="37.1335467" lon="14.86739"><ele>685.0</ele><time>2026-04-25T07:48:31.927Z</time></trkpt><trkpt lat="37.1336317" lon="14.8675117"><ele>685.0</ele><time>2026-04-25T07:48:32.927Z</time></trkpt><trkpt lat="37.1337217" lon="14.8676217"><ele>685.0</ele><time>2026-04-25T07:48:33.927Z</time></trkpt><trkpt lat="37.1338233" lon="14.8677167"><ele>683.25</ele><time>2026-04-25T07:48:34.927Z</time></trkpt><trkpt lat="37.13392" lon="14.86782"><ele>681.5</ele><time>2026-04-25T07:48:35.927Z</time></trkpt><trkpt lat="37.1340217" lon="14.8679117"><ele>679.75</ele><time>2026-04-25T07:48:36.926Z</time></trkpt><trkpt lat="37.1341283" lon="14.868"><ele>678.0</ele><time>2026-04-25T07:48:37.927Z</time></trkpt><trkpt lat="37.13424" lon="14.8680917"><ele>678.0</ele><time>2026-04-25T07:48:38.927Z</time></trkpt><trkpt lat="37.134345" lon="14.868185"><ele>678.0</ele><time>2026-04-25T07:48:39.927Z</time></trkpt><trkpt lat="37.1344433" lon="14.8682883"><ele>678.0</ele><time>2026-04-25T07:48:40.927Z</time></trkpt><trkpt lat="37.13454" lon="14.8684017"><ele>678.0</ele><time>2026-04-25T07:48:41.927Z</time></trkpt><trkpt lat="37.1346333" lon="14.8685267"><ele>681.5</ele><time>2026-04-25T07:48:42.927Z</time></trkpt><trkpt lat="37.134715" lon="14.8686583"><ele>685.0</ele><time>2026-04-25T07:48:43.926Z</time></trkpt><trkpt lat="37.1347967" lon="14.8688017"><ele>688.5</ele><time>2026-04-25T07:48:44.927Z</time></trkpt><trkpt lat="37.134855" lon="14.868955"><ele>692.0</ele><time>2026-04-25T07:48:45.927Z</time></trkpt><trkpt lat="37.1349217" lon="14.8691017"><ele>688.0</ele><time>2026-04-25T07:48:46.927Z</time></trkpt><trkpt lat="37.13499" lon="14.8692417"><ele>684.0</ele><time>2026-04-25T07:48:47.927Z</time></trkpt><trkpt lat="37.1350667" lon="14.8693767"><ele>680.0</ele><time>2026-04-25T07:48:48.927Z</time></trkpt><trkpt lat="37.1351567" lon="14.8694917"><ele>676.0</ele><time>2026-04-25T07:48:49.927Z</time></trkpt><trkpt lat="37.1352617" lon="14.8695917"><ele>676.0</ele><time>2026-04-25T07:48:50.926Z</time></trkpt><trkpt lat="37.1353717" lon="14.8696783"><ele>676.0</ele><time>2026-04-25T07:48:51.927Z</time></trkpt><trkpt lat="37.1354867" lon="14.8697567"><ele>676.0</ele><time>2026-04-25T07:48:52.927Z</time></trkpt><trkpt lat="37.1356133" lon="14.8698317"><ele>676.0</ele><time>2026-04-25T07:48:53.926Z</time></trkpt><trkpt lat="37.1357417" lon="14.8699083"><ele>674.5</ele><time>2026-04-25T07:48:54.927Z</time></trkpt><trkpt lat="37.1358583" lon="14.869995"><ele>673.0</ele><time>2026-04-25T07:48:55.927Z</time></trkpt><trkpt lat="37.1359717" lon="14.8701017"><ele>671.5</ele><time>2026-04-25T07:48:56.927Z</time></trkpt><trkpt lat="37.1360767" lon="14.8702283"><ele>670.0</ele><time>2026-04-25T07:48:57.927Z</time></trkpt><trkpt lat="37.13616" lon="14.87037"><ele>670.0</ele><time>2026-04-25T07:48:58.927Z</time></trkpt><trkpt lat="37.1362317" lon="14.8705383"><ele>670.0</ele><time>2026-04-25T07:48:59.927Z</time></trkpt><trkpt lat="37.1363067" lon="14.8707"><ele>670.0</ele><time>2026-04-25T07:49:00.927Z</time></trkpt><trkpt lat="37.1363833" lon="14.8708767"><ele>671.3333333333334</ele><time>2026-04-25T07:49:01.926Z</time></trkpt><trkpt lat="37.13646" lon="14.8710467"><ele>672.6666666666666</ele><time>2026-04-25T07:49:02.926Z</time></trkpt><trkpt lat="37.1365333" lon="14.8712167"><ele>674.0</ele><time>2026-04-25T07:49:03.927Z</time></trkpt><trkpt lat="37.1365967" lon="14.8713817"><ele>670.0</ele><time>2026-04-25T07:49:04.926Z</time></trkpt><trkpt lat="37.1366683" lon="14.8715467"><ele>666.0</ele><time>2026-04-25T07:49:05.926Z</time></trkpt><trkpt lat="37.1367417" lon="14.8717067"><ele>662.0</ele><time>2026-04-25T07:49:06.927Z</time></trkpt><trkpt lat="37.1368133" lon="14.87187"><ele>658.0</ele><time>2026-04-25T07:49:07.927Z</time></trkpt><trkpt lat="37.1368967" lon="14.8720133"><ele>658.0</ele><time>2026-04-25T07:49:08.927Z</time></trkpt><trkpt lat="37.1369983" lon="14.8721333"><ele>658.0</ele><time>2026-04-25T07:49:09.926Z</time></trkpt><trkpt lat="37.1371117" lon="14.8722383"><ele>658.0</ele><time>2026-04-25T07:49:10.926Z</time></trkpt><trkpt lat="37.1372167" lon="14.8723467"><ele>658.0</ele><time>2026-04-25T07:49:11.926Z</time></trkpt><trkpt lat="37.1373167" lon="14.8724633"><ele>655.75</ele><time>2026-04-25T07:49:12.926Z</time></trkpt><trkpt lat="37.1374" lon="14.87261"><ele>653.5</ele><time>2026-04-25T07:49:13.927Z</time></trkpt><trkpt lat="37.1374617" lon="14.87277"><ele>651.25</ele><time>2026-04-25T07:49:14.926Z</time></trkpt><trkpt lat="37.1375183" lon="14.8729233"><ele>649.0</ele><time>2026-04-25T07:49:15.927Z</time></trkpt><trkpt lat="37.1375833" lon="14.8730667"><ele>649.0</ele><time>2026-04-25T07:49:16.927Z</time></trkpt><trkpt lat="37.1376683" lon="14.873205"><ele>649.0</ele><time>2026-04-25T07:49:17.926Z</time></trkpt><trkpt lat="37.1377733" lon="14.8733267"><ele>649.0</ele><time>2026-04-25T07:49:18.927Z</time></trkpt><trkpt lat="37.13788" lon="14.8734483"><ele>649.0</ele><time>2026-04-25T07:49:19.926Z</time></trkpt><trkpt lat="37.1379917" lon="14.8735767"><ele>652.3333333333334</ele><time>2026-04-25T07:49:20.927Z</time></trkpt><trkpt lat="37.13811" lon="14.8736967"><ele>655.6666666666666</ele><time>2026-04-25T07:49:21.926Z</time></trkpt><trkpt lat="37.1382333" lon="14.8738267"><ele>659.0</ele><time>2026-04-25T07:49:22.926Z</time></trkpt><trkpt lat="37.1383517" lon="14.8739583"><ele>654.3333333333333</ele><time>2026-04-25T07:49:23.927Z</time></trkpt><trkpt lat="37.1384767" lon="14.87409"><ele>649.6666666666666</ele><time>2026-04-25T07:49:24.927Z</time></trkpt><trkpt lat="37.1385933" lon="14.87422"><ele>645.0</ele><time>2026-04-25T07:49:25.926Z</time></trkpt><trkpt lat="37.1387167" lon="14.8743667"><ele>645.0</ele><time>2026-04-25T07:49:26.927Z</time></trkpt><trkpt lat="37.1388433" lon="14.8744983"><ele>645.0</ele><time>2026-04-25T07:49:27.927Z</time></trkpt><trkpt lat="37.1389617" lon="14.8746267"><ele>645.0</ele><time>2026-04-25T07:49:28.926Z</time></trkpt><trkpt lat="37.1390767" lon="14.874755"><ele>642.3333333333334</ele><time>2026-04-25T07:49:29.926Z</time></trkpt><trkpt lat="37.139195" lon="14.8748817"><ele>639.6666666666667</ele><time>2026-04-25T07:49:30.927Z</time></trkpt><trkpt lat="37.13931" lon="14.8750117"><ele>637.0</ele><time>2026-04-25T07:49:31.927Z</time></trkpt><trkpt lat="37.1394283" lon="14.87514"><ele>637.0</ele><time>2026-04-25T07:49:32.927Z</time></trkpt><trkpt lat="37.13955" lon="14.875265"><ele>637.0</ele><time>2026-04-25T07:49:33.927Z</time></trkpt><trkpt lat="37.1396683" lon="14.8753867"><ele>637.0</ele><time>2026-04-25T07:49:34.927Z</time></trkpt><trkpt lat="37.1397817" lon="14.875515"><ele>636.5</ele><time>2026-04-25T07:49:35.927Z</time></trkpt><trkpt lat="37.1398917" lon="14.8756433"><ele>636.0</ele><time>2026-04-25T07:49:36.927Z</time></trkpt><trkpt lat="37.14001" lon="14.87576"><ele>635.5</ele><time>2026-04-25T07:49:37.927Z</time></trkpt><trkpt lat="37.1401233" lon="14.8758717"><ele>635.0</ele><time>2026-04-25T07:49:38.926Z</time></trkpt><trkpt lat="37.140235" lon="14.875995"><ele>635.0</ele><time>2026-04-25T07:49:39.927Z</time></trkpt><trkpt lat="37.1403383" lon="14.87613"><ele>635.0</ele><time>2026-04-25T07:49:40.927Z</time></trkpt><trkpt lat="37.140435" lon="14.87627"><ele>635.0</ele><time>2026-04-25T07:49:41.926Z</time></trkpt><trkpt lat="37.1405167" lon="14.8764183"><ele>635.0</ele><time>2026-04-25T07:49:42.926Z</time></trkpt><trkpt lat="37.140595" lon="14.87656"><ele>635.0</ele><time>2026-04-25T07:49:43.926Z</time></trkpt><trkpt lat="37.1406817" lon="14.8766933"><ele>635.0</ele><time>2026-04-25T07:49:44.926Z</time></trkpt><trkpt lat="37.1407867" lon="14.8768067"><ele>635.0</ele><time>2026-04-25T07:49:45.926Z</time></trkpt><trkpt lat="37.1409067" lon="14.876905"><ele>635.0</ele><time>2026-04-25T07:49:46.926Z</time></trkpt><trkpt lat="37.14104" lon="14.8770017"><ele>632.25</ele><time>2026-04-25T07:49:47.926Z</time></trkpt><trkpt lat="37.1411617" lon="14.8771"><ele>629.5</ele><time>2026-04-25T07:49:48.927Z</time></trkpt><trkpt lat="37.141275" lon="14.8772117"><ele>626.75</ele><time>2026-04-25T07:49:49.927Z</time></trkpt><trkpt lat="37.141385" lon="14.8773367"><ele>624.0</ele><time>2026-04-25T07:49:50.926Z</time></trkpt><trkpt lat="37.141475" lon="14.8774833"><ele>621.75</ele><time>2026-04-25T07:49:51.927Z</time></trkpt><trkpt lat="37.1415567" lon="14.8776233"><ele>619.5</ele><time>2026-04-25T07:49:52.926Z</time></trkpt><trkpt lat="37.14164" lon="14.8777633"><ele>617.25</ele><time>2026-04-25T07:49:53.927Z</time></trkpt><trkpt lat="37.14171" lon="14.87791"><ele>615.0</ele><time>2026-04-25T07:49:54.927Z</time></trkpt><trkpt lat="37.1417667" lon="14.8780767"><ele>615.0</ele><time>2026-04-25T07:49:55.926Z</time></trkpt><trkpt lat="37.141815" lon="14.8782467"><ele>615.0</ele><time>2026-04-25T07:49:56.927Z</time></trkpt><trkpt lat="37.1418567" lon="14.8784117"><ele>615.0</ele><time>2026-04-25T07:49:57.927Z</time></trkpt><trkpt lat="37.141915" lon="14.8785667"><ele>615.0</ele><time>2026-04-25T07:49:58.927Z</time></trkpt><trkpt lat="37.1419917" lon="14.8786967"><ele>612.5</ele><time>2026-04-25T07:49:59.927Z</time></trkpt><trkpt lat="37.1420917" lon="14.8788117"><ele>610.0</ele><time>2026-04-25T07:50:00.926Z</time></trkpt><trkpt lat="37.1422117" lon="14.8789167"><ele>607.5</ele><time>2026-04-25T07:50:01.927Z</time></trkpt><trkpt lat="37.1423317" lon="14.879015"><ele>605.0</ele><time>2026-04-25T07:50:02.926Z</time></trkpt><trkpt lat="37.1424467" lon="14.87913"><ele>605.0</ele><time>2026-04-25T07:50:03.927Z</time></trkpt><trkpt lat="37.1425483" lon="14.87926"><ele>605.0</ele><time>2026-04-25T07:50:04.927Z</time></trkpt><trkpt lat="37.1426583" lon="14.8793867"><ele>605.0</ele><time>2026-04-25T07:50:05.926Z</time></trkpt><trkpt lat="37.14276" lon="14.8795183"><ele>605.0</ele><time>2026-04-25T07:50:06.926Z</time></trkpt><trkpt lat="37.1428683" lon="14.87964"><ele>603.75</ele><time>2026-04-25T07:50:07.926Z</time></trkpt><trkpt lat="37.1429867" lon="14.879745"><ele>602.5</ele><time>2026-04-25T07:50:08.927Z</time></trkpt><trkpt lat="37.14311" lon="14.8798267"><ele>601.25</ele><time>2026-04-25T07:50:09.927Z</time></trkpt><trkpt lat="37.14324" lon="14.87988"><ele>600.0</ele><time>2026-04-25T07:50:10.927Z</time></trkpt><trkpt lat="37.1433683" lon="14.8799333"><ele>600.0</ele><time>2026-04-25T07:50:11.927Z</time></trkpt><trkpt lat="37.1434867" lon="14.8800033"><ele>600.0</ele><time>2026-04-25T07:50:12.926Z</time></trkpt><trkpt lat="37.1435817" lon="14.8800917"><ele>600.0</ele><time>2026-04-25T07:50:13.926Z</time></trkpt><trkpt lat="37.1436783" lon="14.8801967"><ele>600.0</ele><time>2026-04-25T07:50:14.927Z</time></trkpt><trkpt lat="37.1437783" lon="14.8803133"><ele>602.5</ele><time>2026-04-25T07:50:15.926Z</time></trkpt><trkpt lat="37.143865" lon="14.8804367"><ele>605.0</ele><time>2026-04-25T07:50:16.927Z</time></trkpt><trkpt lat="37.1439367" lon="14.8805633"><ele>607.5</ele><time>2026-04-25T07:50:17.927Z</time></trkpt><trkpt lat="37.1439833" lon="14.880705"><ele>610.0</ele><time>2026-04-25T07:50:18.927Z</time></trkpt><trkpt lat="37.1439933" lon="14.8808783"><ele>610.5</ele><time>2026-04-25T07:50:19.927Z</time></trkpt><trkpt lat="37.143985" lon="14.8810583"><ele>611.0</ele><time>2026-04-25T07:50:20.927Z</time></trkpt><trkpt lat="37.1439833" lon="14.881235"><ele>611.5</ele><time>2026-04-25T07:50:21.926Z</time></trkpt><trkpt lat="37.1439967" lon="14.8814133"><ele>612.0</ele><time>2026-04-25T07:50:22.927Z</time></trkpt><trkpt lat="37.144025" lon="14.8815917"><ele>608.25</ele><time>2026-04-25T07:50:23.927Z</time></trkpt><trkpt lat="37.144065" lon="14.8817583"><ele>604.5</ele><time>2026-04-25T07:50:24.927Z</time></trkpt><trkpt lat="37.1441067" lon="14.881915"><ele>600.75</ele><time>2026-04-25T07:50:25.927Z</time></trkpt><trkpt lat="37.1441567" lon="14.882045"><ele>597.0</ele><time>2026-04-25T07:50:26.927Z</time></trkpt><trkpt lat="37.1442383" lon="14.8821633"><ele>597.0</ele><time>2026-04-25T07:50:27.926Z</time></trkpt><trkpt lat="37.1443383" lon="14.8822633"><ele>597.0</ele><time>2026-04-25T07:50:28.927Z</time></trkpt><trkpt lat="37.14446" lon="14.8823667"><ele>597.0</ele><time>2026-04-25T07:50:29.927Z</time></trkpt><trkpt lat="37.1445883" lon="14.8824767"><ele>597.0</ele><time>2026-04-25T07:50:30.927Z</time></trkpt><trkpt lat="37.1447133" lon="14.8825867"><ele>595.0</ele><time>2026-04-25T07:50:31.926Z</time></trkpt><trkpt lat="37.14485" lon="14.8826933"><ele>593.0</ele><time>2026-04-25T07:50:32.926Z</time></trkpt><trkpt lat="37.1449867" lon="14.882805"><ele>591.0</ele><time>2026-04-25T07:50:33.926Z</time></trkpt><trkpt lat="37.1451183" lon="14.8829117"><ele>591.0</ele><time>2026-04-25T07:50:34.927Z</time></trkpt><trkpt lat="37.1452517" lon="14.88301"><ele>591.0</ele><time>2026-04-25T07:50:35.926Z</time></trkpt><trkpt lat="37.1453767" lon="14.8831083"><ele>591.0</ele><time>2026-04-25T07:50:36.926Z</time></trkpt><trkpt lat="37.1454883" lon="14.8832067"><ele>591.0</ele><time>2026-04-25T07:50:37.927Z</time></trkpt><trkpt lat="37.1455883" lon="14.8833183"><ele>592.0</ele><time>2026-04-25T07:50:38.927Z</time></trkpt><trkpt lat="37.14566" lon="14.8834467"><ele>593.0</ele><time>2026-04-25T07:50:39.927Z</time></trkpt><trkpt lat="37.1457183" lon="14.8835917"><ele>594.0</ele><time>2026-04-25T07:50:40.926Z</time></trkpt><trkpt lat="37.14577" lon="14.883755"><ele>595.0</ele><time>2026-04-25T07:50:41.926Z</time></trkpt><trkpt lat="37.145825" lon="14.8839283"><ele>591.25</ele><time>2026-04-25T07:50:42.927Z</time></trkpt><trkpt lat="37.14589" lon="14.8841"><ele>587.5</ele><time>2026-04-25T07:50:43.926Z</time></trkpt><trkpt lat="37.145945" lon="14.88427"><ele>583.75</ele><time>2026-04-25T07:50:44.927Z</time></trkpt><trkpt lat="37.1460033" lon="14.8844333"><ele>580.0</ele><time>2026-04-25T07:50:45.927Z</time></trkpt><trkpt lat="37.1460533" lon="14.8845783"><ele>580.0</ele><time>2026-04-25T07:50:46.927Z</time></trkpt><trkpt lat="37.14612" lon="14.8847067"><ele>580.0</ele><time>2026-04-25T07:50:47.926Z</time></trkpt><trkpt lat="37.146205" lon="14.8848017"><ele>580.0</ele><time>2026-04-25T07:50:48.927Z</time></trkpt><trkpt lat="37.1462983" lon="14.884865"><ele>580.0</ele><time>2026-04-25T07:50:49.926Z</time></trkpt><trkpt lat="37.14641" lon="14.8849017"><ele>580.0</ele><time>2026-04-25T07:50:50.927Z</time></trkpt><trkpt lat="37.1465333" lon="14.884925"><ele>580.0</ele><time>2026-04-25T07:50:51.927Z</time></trkpt><trkpt lat="37.1466517" lon="14.8849617"><ele>580.0</ele><time>2026-04-25T07:50:52.927Z</time></trkpt><trkpt lat="37.1467683" lon="14.8850183"><ele>580.0</ele><time>2026-04-25T07:50:53.927Z</time></trkpt><trkpt lat="37.1468867" lon="14.8850917"><ele>581.0</ele><time>2026-04-25T07:50:54.927Z</time></trkpt><trkpt lat="37.1470083" lon="14.88518"><ele>582.0</ele><time>2026-04-25T07:50:55.927Z</time></trkpt><trkpt lat="37.1471367" lon="14.8852783"><ele>583.0</ele><time>2026-04-25T07:50:56.927Z</time></trkpt><trkpt lat="37.1472617" lon="14.8853817"><ele>584.0</ele><time>2026-04-25T07:50:57.926Z</time></trkpt><trkpt lat="37.1473933" lon="14.8854917"><ele>580.3333333333333</ele><time>2026-04-25T07:50:58.926Z</time></trkpt><trkpt lat="37.1475267" lon="14.8856017"><ele>576.6666666666666</ele><time>2026-04-25T07:50:59.926Z</time></trkpt><trkpt lat="37.1476567" lon="14.8857133"><ele>573.0</ele><time>2026-04-25T07:51:00.927Z</time></trkpt><trkpt lat="37.1477833" lon="14.88582"><ele>573.0</ele><time>2026-04-25T07:51:01.927Z</time></trkpt><trkpt lat="37.1478967" lon="14.88592"><ele>573.0</ele><time>2026-04-25T07:51:02.927Z</time></trkpt><trkpt lat="37.1480083" lon="14.8860333"><ele>573.0</ele><time>2026-04-25T07:51:03.926Z</time></trkpt><trkpt lat="37.1481117" lon="14.886155"><ele>573.0</ele><time>2026-04-25T07:51:04.927Z</time></trkpt><trkpt lat="37.1481983" lon="14.886295"><ele>572.5</ele><time>2026-04-25T07:51:05.927Z</time></trkpt><trkpt lat="37.1482683" lon="14.8864383"><ele>572.0</ele><time>2026-04-25T07:51:06.926Z</time></trkpt><trkpt lat="37.1483317" lon="14.8865783"><ele>571.5</ele><time>2026-04-25T07:51:07.926Z</time></trkpt><trkpt lat="37.1484033" lon="14.8867333"><ele>571.0</ele><time>2026-04-25T07:51:08.927Z</time></trkpt><trkpt lat="37.1485017" lon="14.886875"><ele>571.0</ele><time>2026-04-25T07:51:09.926Z</time></trkpt><trkpt lat="37.1486183" lon="14.8870267"><ele>571.0</ele><time>2026-04-25T07:51:10.927Z</time></trkpt><trkpt lat="37.148735" lon="14.887175"><ele>571.0</ele><time>2026-04-25T07:51:11.927Z</time></trkpt><trkpt lat="37.1488517" lon="14.88733"><ele>571.0</ele><time>2026-04-25T07:51:12.926Z</time></trkpt><trkpt lat="37.148965" lon="14.88747"><ele>571.0</ele><time>2026-04-25T07:51:13.927Z</time></trkpt><trkpt lat="37.149075" lon="14.88761"><ele>571.0</ele><time>2026-04-25T07:51:14.927Z</time></trkpt><trkpt lat="37.149175" lon="14.8877417"><ele>568.0</ele><time>2026-04-25T07:51:15.927Z</time></trkpt><trkpt lat="37.1492817" lon="14.8878583"><ele>565.0</ele><time>2026-04-25T07:51:16.926Z</time></trkpt><trkpt lat="37.1494083" lon="14.887955"><ele>562.0</ele><time>2026-04-25T07:51:17.927Z</time></trkpt><trkpt lat="37.1495483" lon="14.8880383"><ele>559.0</ele><time>2026-04-25T07:51:18.926Z</time></trkpt><trkpt lat="37.1496933" lon="14.8881067"><ele>559.0</ele><time>2026-04-25T07:51:19.926Z</time></trkpt><trkpt lat="37.1498417" lon="14.88817"><ele>559.0</ele><time>2026-04-25T07:51:20.927Z</time></trkpt><trkpt lat="37.1499783" lon="14.888245"><ele>559.0</ele><time>2026-04-25T07:51:21.927Z</time></trkpt><trkpt lat="37.1501167" lon="14.8883117"><ele>558.0</ele><time>2026-04-25T07:51:22.926Z</time></trkpt><trkpt lat="37.150255" lon="14.888375"><ele>557.0</ele><time>2026-04-25T07:51:23.927Z</time></trkpt><trkpt lat="37.1503917" lon="14.8884283"><ele>556.0</ele><time>2026-04-25T07:51:24.926Z</time></trkpt><trkpt lat="37.1505317" lon="14.88845"><ele>555.0</ele><time>2026-04-25T07:51:25.927Z</time></trkpt><trkpt lat="37.1506717" lon="14.8884467"><ele>555.0</ele><time>2026-04-25T07:51:26.927Z</time></trkpt><trkpt lat="37.1508133" lon="14.888425"><ele>555.0</ele><time>2026-04-25T07:51:27.927Z</time></trkpt><trkpt lat="37.1509633" lon="14.8884033"><ele>555.0</ele><time>2026-04-25T07:51:28.926Z</time></trkpt><trkpt lat="37.1511083" lon="14.8883867"><ele>555.0</ele><time>2026-04-25T07:51:29.926Z</time></trkpt><trkpt lat="37.151245" lon="14.8883717"><ele>555.0</ele><time>2026-04-25T07:51:30.926Z</time></trkpt><trkpt lat="37.1513717" lon="14.88836"><ele>555.0</ele><time>2026-04-25T07:51:31.927Z</time></trkpt><trkpt lat="37.1514867" lon="14.8883733"><ele>555.0</ele><time>2026-04-25T07:51:32.927Z</time></trkpt><trkpt lat="37.1515967" lon="14.8884183"><ele>555.0</ele><time>2026-04-25T07:51:33.926Z</time></trkpt><trkpt lat="37.15169" lon="14.8885033"><ele>552.0</ele><time>2026-04-25T07:51:34.926Z</time></trkpt><trkpt lat="37.1517767" lon="14.88861"><ele>549.0</ele><time>2026-04-25T07:51:35.927Z</time></trkpt><trkpt lat="37.151855" lon="14.8887367"><ele>546.0</ele><time>2026-04-25T07:51:36.927Z</time></trkpt><trkpt lat="37.1519133" lon="14.8888783"><ele>543.0</ele><time>2026-04-25T07:51:37.926Z</time></trkpt><trkpt lat="37.1519417" lon="14.8890367"><ele>543.0</ele><time>2026-04-25T07:51:38.926Z</time></trkpt><trkpt lat="37.1519633" lon="14.8892017"><ele>543.0</ele><time>2026-04-25T07:51:39.927Z</time></trkpt><trkpt lat="37.1519883" lon="14.8893683"><ele>543.0</ele><time>2026-04-25T07:51:40.927Z</time></trkpt><trkpt lat="37.1520167" lon="14.8895383"><ele>543.0</ele><time>2026-04-25T07:51:41.927Z</time></trkpt><trkpt lat="37.1520483" lon="14.8897067"><ele>539.5</ele><time>2026-04-25T07:51:42.926Z</time></trkpt><trkpt lat="37.1520833" lon="14.8898683"><ele>536.0</ele><time>2026-04-25T07:51:43.926Z</time></trkpt><trkpt lat="37.152135" lon="14.89002"><ele>532.5</ele><time>2026-04-25T07:51:44.926Z</time></trkpt><trkpt lat="37.1521917" lon="14.890175"><ele>529.0</ele><time>2026-04-25T07:51:45.926Z</time></trkpt><trkpt lat="37.152255" lon="14.8903267"><ele>529.25</ele><time>2026-04-25T07:51:46.927Z</time></trkpt><trkpt lat="37.152335" lon="14.8904667"><ele>529.5</ele><time>2026-04-25T07:51:47.927Z</time></trkpt><trkpt lat="37.15243" lon="14.8905833"><ele>529.75</ele><time>2026-04-25T07:51:48.926Z</time></trkpt><trkpt lat="37.152525" lon="14.8906733"><ele>530.0</ele><time>2026-04-25T07:51:49.926Z</time></trkpt><trkpt lat="37.1526233" lon="14.8907317"><ele>530.0</ele><time>2026-04-25T07:51:50.926Z</time></trkpt><trkpt lat="37.1527217" lon="14.89074"><ele>530.0</ele><time>2026-04-25T07:51:51.925Z</time></trkpt><trkpt lat="37.152825" lon="14.890705"><ele>530.0</ele><time>2026-04-25T07:51:52.926Z</time></trkpt><trkpt lat="37.1529283" lon="14.8906317"><ele>530.0</ele><time>2026-04-25T07:51:53.925Z</time></trkpt><trkpt lat="37.1530567" lon="14.890525"><ele>530.0</ele><time>2026-04-25T07:51:54.925Z</time></trkpt><trkpt lat="37.15319" lon="14.8904"><ele>530.0</ele><time>2026-04-25T07:51:55.925Z</time></trkpt><trkpt lat="37.1533167" lon="14.8902867"><ele>530.0</ele><time>2026-04-25T07:51:56.926Z</time></trkpt><trkpt lat="37.1534367" lon="14.8902067"><ele>528.5</ele><time>2026-04-25T07:51:57.925Z</time></trkpt><trkpt lat="37.1535533" lon="14.8901633"><ele>527.0</ele><time>2026-04-25T07:51:58.925Z</time></trkpt><trkpt lat="37.1536717" lon="14.89016"><ele>525.5</ele><time>2026-04-25T07:51:59.925Z</time></trkpt><trkpt lat="37.1538033" lon="14.8901933"><ele>524.0</ele><time>2026-04-25T07:52:00.925Z</time></trkpt><trkpt lat="37.1539217" lon="14.8902783"><ele>523.75</ele><time>2026-04-25T07:52:01.926Z</time></trkpt><trkpt lat="37.15404" lon="14.8903867"><ele>523.5</ele><time>2026-04-25T07:52:02.925Z</time></trkpt><trkpt lat="37.15415" lon="14.8905067"><ele>523.25</ele><time>2026-04-25T07:52:03.926Z</time></trkpt><trkpt lat="37.1542483" lon="14.8906367"><ele>523.0</ele><time>2026-04-25T07:52:04.925Z</time></trkpt><trkpt lat="37.1543317" lon="14.8907917"><ele>521.75</ele><time>2026-04-25T07:52:05.926Z</time></trkpt><trkpt lat="37.1543983" lon="14.8909533"><ele>520.5</ele><time>2026-04-25T07:52:06.925Z</time></trkpt><trkpt lat="37.1544683" lon="14.89111"><ele>519.25</ele><time>2026-04-25T07:52:07.926Z</time></trkpt><trkpt lat="37.1545383" lon="14.8912567"><ele>518.0</ele><time>2026-04-25T07:52:08.925Z</time></trkpt><trkpt lat="37.1546033" lon="14.891415"><ele>518.0</ele><time>2026-04-25T07:52:09.926Z</time></trkpt><trkpt lat="37.154645" lon="14.8915883"><ele>518.0</ele><time>2026-04-25T07:52:10.925Z</time></trkpt><trkpt lat="37.1546783" lon="14.89177"><ele>518.0</ele><time>2026-04-25T07:52:11.926Z</time></trkpt><trkpt lat="37.154705" lon="14.8919633"><ele>518.0</ele><time>2026-04-25T07:52:12.926Z</time></trkpt><trkpt lat="37.1547383" lon="14.8921567"><ele>516.5</ele><time>2026-04-25T07:52:13.926Z</time></trkpt><trkpt lat="37.1547567" lon="14.8923417"><ele>515.0</ele><time>2026-04-25T07:52:14.926Z</time></trkpt><trkpt lat="37.154785" lon="14.8925217"><ele>513.5</ele><time>2026-04-25T07:52:15.925Z</time></trkpt><trkpt lat="37.1548067" lon="14.8927083"><ele>512.0</ele><time>2026-04-25T07:52:16.925Z</time></trkpt><trkpt lat="37.154835" lon="14.8928833"><ele>513.25</ele><time>2026-04-25T07:52:17.926Z</time></trkpt><trkpt lat="37.1548567" lon="14.8930483"><ele>514.5</ele><time>2026-04-25T07:52:18.925Z</time></trkpt><trkpt lat="37.1548917" lon="14.8932"><ele>515.75</ele><time>2026-04-25T07:52:19.926Z</time></trkpt><trkpt lat="37.154935" lon="14.893335"><ele>517.0</ele><time>2026-04-25T07:52:20.925Z</time></trkpt><trkpt lat="37.1550067" lon="14.8934683"><ele>514.5</ele><time>2026-04-25T07:52:21.926Z</time></trkpt><trkpt lat="37.1550967" lon="14.8935833"><ele>512.0</ele><time>2026-04-25T07:52:22.925Z</time></trkpt><trkpt lat="37.1551983" lon="14.893705"><ele>509.5</ele><time>2026-04-25T07:52:23.926Z</time></trkpt><trkpt lat="37.1553133" lon="14.89382"><ele>507.0</ele><time>2026-04-25T07:52:24.925Z</time></trkpt><trkpt lat="37.1554283" lon="14.8939283"><ele>507.0</ele><time>2026-04-25T07:52:25.926Z</time></trkpt><trkpt lat="37.155545" lon="14.894035"><ele>507.0</ele><time>2026-04-25T07:52:26.926Z</time></trkpt><trkpt lat="37.1556617" lon="14.89414"><ele>507.0</ele><time>2026-04-25T07:52:27.925Z</time></trkpt><trkpt lat="37.1557917" lon="14.8942267"><ele>507.0</ele><time>2026-04-25T07:52:28.925Z</time></trkpt><trkpt lat="37.1559233" lon="14.8942983"><ele>506.66666666666663</ele><time>2026-04-25T07:52:29.925Z</time></trkpt><trkpt lat="37.15607" lon="14.8943517"><ele>506.3333333333333</ele><time>2026-04-25T07:52:30.925Z</time></trkpt><trkpt lat="37.15622" lon="14.8943967"><ele>506.0</ele><time>2026-04-25T07:52:31.926Z</time></trkpt><trkpt lat="37.1563717" lon="14.8944283"><ele>506.0</ele><time>2026-04-25T07:52:32.926Z</time></trkpt><trkpt lat="37.15652" lon="14.8944367"><ele>506.0</ele><time>2026-04-25T07:52:33.925Z</time></trkpt><trkpt lat="37.1566517" lon="14.8944283"><ele>506.0</ele><time>2026-04-25T07:52:34.925Z</time></trkpt><trkpt lat="37.156785" lon="14.8943933"><ele>506.0</ele><time>2026-04-25T07:52:35.925Z</time></trkpt><trkpt lat="37.1569183" lon="14.8943533"><ele>505.5</ele><time>2026-04-25T07:52:36.926Z</time></trkpt><trkpt lat="37.1570567" lon="14.8943133"><ele>505.0</ele><time>2026-04-25T07:52:37.925Z</time></trkpt><trkpt lat="37.1571983" lon="14.894285"><ele>504.5</ele><time>2026-04-25T07:52:38.926Z</time></trkpt><trkpt lat="37.1573317" lon="14.894275"><ele>504.0</ele><time>2026-04-25T07:52:39.926Z</time></trkpt><trkpt lat="37.1574667" lon="14.8942783"><ele>504.0</ele><time>2026-04-25T07:52:40.925Z</time></trkpt><trkpt lat="37.1575967" lon="14.8943"><ele>504.0</ele><time>2026-04-25T07:52:41.926Z</time></trkpt><trkpt lat="37.1577117" lon="14.894345"><ele>504.0</ele><time>2026-04-25T07:52:42.925Z</time></trkpt><trkpt lat="37.1578083" lon="14.8944233"><ele>504.0</ele><time>2026-04-25T07:52:43.926Z</time></trkpt><trkpt lat="37.1578883" lon="14.8945133"><ele>504.0</ele><time>2026-04-25T07:52:44.926Z</time></trkpt><trkpt lat="37.157945" lon="14.8946133"><ele>504.0</ele><time>2026-04-25T07:52:45.926Z</time></trkpt><trkpt lat="37.1579683" lon="14.8947167"><ele>504.0</ele><time>2026-04-25T07:52:46.926Z</time></trkpt><trkpt lat="37.1579433" lon="14.8948017"><ele>504.0</ele><time>2026-04-25T07:52:47.926Z</time></trkpt><trkpt lat="37.1578867" lon="14.894875"><ele>504.0</ele><time>2026-04-25T07:52:48.925Z</time></trkpt><trkpt lat="37.15781" lon="14.894945"><ele>504.0</ele><time>2026-04-25T07:52:49.925Z</time></trkpt><trkpt lat="37.1577467" lon="14.8950383"><ele>503.4</ele><time>2026-04-25T07:52:50.926Z</time></trkpt><trkpt lat="37.1577083" lon="14.8951617"><ele>502.79999999999995</ele><time>2026-04-25T07:52:51.926Z</time></trkpt><trkpt lat="37.1577017" lon="14.89529"><ele>502.20000000000005</ele><time>2026-04-25T07:52:52.926Z</time></trkpt><trkpt lat="37.1577233" lon="14.8954217"><ele>501.6</ele><time>2026-04-25T07:52:53.926Z</time></trkpt><trkpt lat="37.157765" lon="14.8955533"><ele>501.0</ele><time>2026-04-25T07:52:54.925Z</time></trkpt><trkpt lat="37.1578133" lon="14.8956983"><ele>501.0</ele><time>2026-04-25T07:52:55.925Z</time></trkpt><trkpt lat="37.1578717" lon="14.8958367"><ele>501.0</ele><time>2026-04-25T07:52:56.926Z</time></trkpt><trkpt lat="37.1579383" lon="14.8959667"><ele>501.0</ele><time>2026-04-25T07:52:57.925Z</time></trkpt><trkpt lat="37.1580167" lon="14.8960817"><ele>501.0</ele><time>2026-04-25T07:52:58.925Z</time></trkpt><trkpt lat="37.1581017" lon="14.8961717"><ele>501.0</ele><time>2026-04-25T07:52:59.926Z</time></trkpt><trkpt lat="37.1582" lon="14.89623"><ele>501.0</ele><time>2026-04-25T07:53:00.925Z</time></trkpt><trkpt lat="37.158305" lon="14.8962717"><ele>501.0</ele><time>2026-04-25T07:53:01.925Z</time></trkpt><trkpt lat="37.1584133" lon="14.8963267"><ele>501.0</ele><time>2026-04-25T07:53:02.925Z</time></trkpt><trkpt lat="37.158515" lon="14.8964017"><ele>501.0</ele><time>2026-04-25T07:53:03.926Z</time></trkpt><trkpt lat="37.1586" lon="14.8965"><ele>501.0</ele><time>2026-04-25T07:53:04.926Z</time></trkpt><trkpt lat="37.158665" lon="14.8966317"><ele>501.0</ele><time>2026-04-25T07:53:05.926Z</time></trkpt><trkpt lat="37.15872" lon="14.8967683"><ele>501.0</ele><time>2026-04-25T07:53:06.926Z</time></trkpt><trkpt lat="37.1587683" lon="14.8969167"><ele>498.75</ele><time>2026-04-25T07:53:07.926Z</time></trkpt><trkpt lat="37.1588117" lon="14.897065"><ele>496.5</ele><time>2026-04-25T07:53:08.925Z</time></trkpt><trkpt lat="37.1588417" lon="14.8972133"><ele>494.25</ele><time>2026-04-25T07:53:09.926Z</time></trkpt><trkpt lat="37.1588683" lon="14.8973617"><ele>492.0</ele><time>2026-04-25T07:53:10.925Z</time></trkpt><trkpt lat="37.1588867" lon="14.8975167"><ele>491.0</ele><time>2026-04-25T07:53:11.925Z</time></trkpt><trkpt lat="37.1589017" lon="14.8976633"><ele>490.0</ele><time>2026-04-25T07:53:12.926Z</time></trkpt><trkpt lat="37.1589267" lon="14.89781"><ele>489.0</ele><time>2026-04-25T07:53:13.926Z</time></trkpt><trkpt lat="37.1589417" lon="14.8979517"><ele>488.0</ele><time>2026-04-25T07:53:14.926Z</time></trkpt><trkpt lat="37.15897" lon="14.898085"><ele>488.0</ele><time>2026-04-25T07:53:15.926Z</time></trkpt><trkpt lat="37.1590183" lon="14.89821"><ele>487.99999999999994</ele><time>2026-04-25T07:53:16.926Z</time></trkpt><trkpt lat="37.1590933" lon="14.89831"><ele>487.99999999999994</ele><time>2026-04-25T07:53:17.925Z</time></trkpt><trkpt lat="37.1591817" lon="14.898385"><ele>488.0</ele><time>2026-04-25T07:53:18.926Z</time></trkpt><trkpt lat="37.1592833" lon="14.898425"><ele>488.0</ele><time>2026-04-25T07:53:19.926Z</time></trkpt><trkpt lat="37.15939" lon="14.8984733"><ele>488.59999999999997</ele><time>2026-04-25T07:53:20.926Z</time></trkpt><trkpt lat="37.1594783" lon="14.8985483"><ele>489.19999999999993</ele><time>2026-04-25T07:53:21.925Z</time></trkpt><trkpt lat="37.159545" lon="14.898645"><ele>489.8</ele><time>2026-04-25T07:53:22.926Z</time></trkpt><trkpt lat="37.1595933" lon="14.898765"><ele>490.4</ele><time>2026-04-25T07:53:23.926Z</time></trkpt><trkpt lat="37.1596317" lon="14.8989067"><ele>491.0</ele><time>2026-04-25T07:53:24.926Z</time></trkpt><trkpt lat="37.15965" lon="14.8990583"><ele>491.0</ele><time>2026-04-25T07:53:25.925Z</time></trkpt><trkpt lat="37.159665" lon="14.8992233"><ele>491.0</ele><time>2026-04-25T07:53:26.926Z</time></trkpt><trkpt lat="37.1596817" lon="14.8993933"><ele>491.0</ele><time>2026-04-25T07:53:27.925Z</time></trkpt><trkpt lat="37.1597017" lon="14.8995667"><ele>491.0</ele><time>2026-04-25T07:53:28.925Z</time></trkpt><trkpt lat="37.159725" lon="14.8997417"><ele>490.0</ele><time>2026-04-25T07:53:29.925Z</time></trkpt><trkpt lat="37.1597533" lon="14.8999267"><ele>489.0</ele><time>2026-04-25T07:53:30.925Z</time></trkpt><trkpt lat="37.1597767" lon="14.9001067"><ele>488.0</ele><time>2026-04-25T07:53:31.925Z</time></trkpt><trkpt lat="37.1598017" lon="14.90028"><ele>487.0</ele><time>2026-04-25T07:53:32.926Z</time></trkpt><trkpt lat="37.15981" lon="14.9004483"><ele>487.0</ele><time>2026-04-25T07:53:33.926Z</time></trkpt><trkpt lat="37.1598117" lon="14.9006167"><ele>487.0</ele><time>2026-04-25T07:53:34.926Z</time></trkpt><trkpt lat="37.1598083" lon="14.90078"><ele>487.0</ele><time>2026-04-25T07:53:35.926Z</time></trkpt><trkpt lat="37.1597833" lon="14.9009467"><ele>487.0</ele><time>2026-04-25T07:53:36.925Z</time></trkpt><trkpt lat="37.1597617" lon="14.901115"><ele>486.0</ele><time>2026-04-25T07:53:37.926Z</time></trkpt><trkpt lat="37.1597317" lon="14.901285"><ele>485.0</ele><time>2026-04-25T07:53:38.926Z</time></trkpt><trkpt lat="37.159715" lon="14.901455"><ele>484.0</ele><time>2026-04-25T07:53:39.926Z</time></trkpt><trkpt lat="37.1596933" lon="14.90163"><ele>483.0</ele><time>2026-04-25T07:53:40.925Z</time></trkpt><trkpt lat="37.15968" lon="14.9018133"><ele>482.5</ele><time>2026-04-25T07:53:41.926Z</time></trkpt><trkpt lat="37.159685" lon="14.9019933"><ele>482.0</ele><time>2026-04-25T07:53:42.925Z</time></trkpt><trkpt lat="37.159695" lon="14.902185"><ele>481.5</ele><time>2026-04-25T07:53:43.925Z</time></trkpt><trkpt lat="37.15971" lon="14.902375"><ele>481.0</ele><time>2026-04-25T07:53:44.926Z</time></trkpt><trkpt lat="37.1597267" lon="14.902565"><ele>480.0</ele><time>2026-04-25T07:53:45.925Z</time></trkpt><trkpt lat="37.15974" lon="14.9027517"><ele>479.0</ele><time>2026-04-25T07:53:46.926Z</time></trkpt><trkpt lat="37.1597533" lon="14.9029317"><ele>478.0</ele><time>2026-04-25T07:53:47.926Z</time></trkpt><trkpt lat="37.15978" lon="14.903095"><ele>477.0</ele><time>2026-04-25T07:53:48.925Z</time></trkpt><trkpt lat="37.15982" lon="14.9032583"><ele>475.75</ele><time>2026-04-25T07:53:49.926Z</time></trkpt><trkpt lat="37.1598733" lon="14.903415"><ele>474.5</ele><time>2026-04-25T07:53:50.925Z</time></trkpt><trkpt lat="37.15995" lon="14.903565"><ele>473.25</ele><time>2026-04-25T07:53:51.925Z</time></trkpt><trkpt lat="37.1600367" lon="14.9037067"><ele>472.0</ele><time>2026-04-25T07:53:52.926Z</time></trkpt><trkpt lat="37.1601267" lon="14.9038367"><ele>472.0</ele><time>2026-04-25T07:53:53.926Z</time></trkpt><trkpt lat="37.1602167" lon="14.9039983"><ele>472.0</ele><time>2026-04-25T07:53:54.926Z</time></trkpt><trkpt lat="37.1603083" lon="14.90415"><ele>472.0</ele><time>2026-04-25T07:53:55.925Z</time></trkpt><trkpt lat="37.1603917" lon="14.9043167"><ele>472.0</ele><time>2026-04-25T07:53:56.926Z</time></trkpt><trkpt lat="37.1604683" lon="14.90446"><ele>472.0</ele><time>2026-04-25T07:53:57.925Z</time></trkpt><trkpt lat="37.1605583" lon="14.9046133"><ele>472.0</ele><time>2026-04-25T07:53:58.925Z</time></trkpt><trkpt lat="37.1606333" lon="14.9047567"><ele>472.0</ele><time>2026-04-25T07:53:59.925Z</time></trkpt><trkpt lat="37.1607217" lon="14.90491"><ele>472.0</ele><time>2026-04-25T07:54:00.925Z</time></trkpt><trkpt lat="37.16082" lon="14.9050517"><ele>472.0</ele><time>2026-04-25T07:54:01.925Z</time></trkpt><trkpt lat="37.1609267" lon="14.9051933"><ele>472.0</ele><time>2026-04-25T07:54:02.925Z</time></trkpt><trkpt lat="37.1610467" lon="14.90532"><ele>466.0</ele><time>2026-04-25T07:54:03.925Z</time></trkpt><trkpt lat="37.1611617" lon="14.9054567"><ele>460.0</ele><time>2026-04-25T07:54:04.925Z</time></trkpt><trkpt lat="37.1612633" lon="14.9056083"><ele>454.0</ele><time>2026-04-25T07:54:05.925Z</time></trkpt><trkpt lat="37.1613583" lon="14.9057733"><ele>451.0</ele><time>2026-04-25T07:54:06.926Z</time></trkpt><trkpt lat="37.1614567" lon="14.9059283"><ele>448.0</ele><time>2026-04-25T07:54:07.926Z</time></trkpt><trkpt lat="37.1615467" lon="14.9060817"><ele>445.0</ele><time>2026-04-25T07:54:08.925Z</time></trkpt><trkpt lat="37.1616483" lon="14.90623"><ele>451.0</ele><time>2026-04-25T07:54:09.926Z</time></trkpt><trkpt lat="37.1617483" lon="14.90638"><ele>457.0</ele><time>2026-04-25T07:54:10.926Z</time></trkpt><trkpt lat="37.1618433" lon="14.9065317"><ele>463.0</ele><time>2026-04-25T07:54:11.926Z</time></trkpt><trkpt lat="37.1619567" lon="14.9066717"><ele>458.5</ele><time>2026-04-25T07:54:12.925Z</time></trkpt><trkpt lat="37.1620667" lon="14.9068017"><ele>454.0</ele><time>2026-04-25T07:54:13.926Z</time></trkpt><trkpt lat="37.16217" lon="14.906925"><ele>449.5</ele><time>2026-04-25T07:54:14.926Z</time></trkpt><trkpt lat="37.1622617" lon="14.9070483"><ele>445.0</ele><time>2026-04-25T07:54:15.926Z</time></trkpt><trkpt lat="37.16234" lon="14.90718"><ele>448.5</ele><time>2026-04-25T07:54:16.925Z</time></trkpt><trkpt lat="37.162395" lon="14.9073267"><ele>452.0</ele><time>2026-04-25T07:54:17.926Z</time></trkpt><trkpt lat="37.1624183" lon="14.90749"><ele>455.5</ele><time>2026-04-25T07:54:18.925Z</time></trkpt><trkpt lat="37.1624467" lon="14.9076483"><ele>459.0</ele><time>2026-04-25T07:54:19.925Z</time></trkpt><trkpt lat="37.162485" lon="14.9078033"><ele>459.0</ele><time>2026-04-25T07:54:20.926Z</time></trkpt><trkpt lat="37.1625267" lon="14.90795"><ele>459.0</ele><time>2026-04-25T07:54:21.926Z</time></trkpt><trkpt lat="37.1625833" lon="14.9081"><ele>459.0</ele><time>2026-04-25T07:54:22.926Z</time></trkpt><trkpt lat="37.1626567" lon="14.908245"><ele>459.0</ele><time>2026-04-25T07:54:23.925Z</time></trkpt><trkpt lat="37.1627367" lon="14.9083733"><ele>455.5</ele><time>2026-04-25T07:54:24.925Z</time></trkpt><trkpt lat="37.1628333" lon="14.9084967"><ele>452.0</ele><time>2026-04-25T07:54:25.925Z</time></trkpt><trkpt lat="37.1629433" lon="14.9086083"><ele>448.5</ele><time>2026-04-25T07:54:26.925Z</time></trkpt><trkpt lat="37.1630583" lon="14.908715"><ele>445.0</ele><time>2026-04-25T07:54:27.925Z</time></trkpt><trkpt lat="37.1631767" lon="14.9088317"><ele>452.0</ele><time>2026-04-25T07:54:28.925Z</time></trkpt><trkpt lat="37.1632967" lon="14.9089583"><ele>459.0</ele><time>2026-04-25T07:54:29.926Z</time></trkpt><trkpt lat="37.163415" lon="14.90909"><ele>466.0</ele><time>2026-04-25T07:54:30.926Z</time></trkpt><trkpt lat="37.1635367" lon="14.9092117"><ele>457.33333333333337</ele><time>2026-04-25T07:54:31.925Z</time></trkpt><trkpt lat="37.1636583" lon="14.9093383"><ele>448.66666666666663</ele><time>2026-04-25T07:54:32.925Z</time></trkpt><trkpt lat="37.1637867" lon="14.90947"><ele>440.0</ele><time>2026-04-25T07:54:33.925Z</time></trkpt><trkpt lat="37.16391" lon="14.909595"><ele>446.3333333333333</ele><time>2026-04-25T07:54:34.925Z</time></trkpt><trkpt lat="37.1640433" lon="14.9097033"><ele>452.66666666666663</ele><time>2026-04-25T07:54:35.926Z</time></trkpt><trkpt lat="37.1641783" lon="14.90981"><ele>459.0</ele><time>2026-04-25T07:54:36.926Z</time></trkpt><trkpt lat="37.164315" lon="14.9099117"><ele>459.0</ele><time>2026-04-25T07:54:37.925Z</time></trkpt><trkpt lat="37.1644567" lon="14.91"><ele>459.0</ele><time>2026-04-25T07:54:38.925Z</time></trkpt><trkpt lat="37.164605" lon="14.91006"><ele>459.0</ele><time>2026-04-25T07:54:39.925Z</time></trkpt><trkpt lat="37.16476" lon="14.9101083"><ele>449.0</ele><time>2026-04-25T07:54:40.926Z</time></trkpt><trkpt lat="37.16491" lon="14.9101517"><ele>439.0</ele><time>2026-04-25T07:54:41.925Z</time></trkpt><trkpt lat="37.16506" lon="14.9102"><ele>429.0</ele><time>2026-04-25T07:54:42.926Z</time></trkpt><trkpt lat="37.1652067" lon="14.910245"><ele>429.0</ele><time>2026-04-25T07:54:43.926Z</time></trkpt><trkpt lat="37.1653467" lon="14.9102867"><ele>429.0</ele><time>2026-04-25T07:54:44.926Z</time></trkpt><trkpt lat="37.1654783" lon="14.9103183"><ele>429.0</ele><time>2026-04-25T07:54:45.925Z</time></trkpt><trkpt lat="37.1656083" lon="14.9103217"><ele>429.0</ele><time>2026-04-25T07:54:46.925Z</time></trkpt><trkpt lat="37.165725" lon="14.9102917"><ele>431.75</ele><time>2026-04-25T07:54:47.926Z</time></trkpt><trkpt lat="37.1658283" lon="14.9102233"><ele>434.5</ele><time>2026-04-25T07:54:48.926Z</time></trkpt><trkpt lat="37.1659333" lon="14.9101367"><ele>437.25</ele><time>2026-04-25T07:54:49.925Z</time></trkpt><trkpt lat="37.1660483" lon="14.9100667"><ele>440.0</ele><time>2026-04-25T07:54:50.926Z</time></trkpt><trkpt lat="37.1661733" lon="14.9100183"><ele>442.75</ele><time>2026-04-25T07:54:51.925Z</time></trkpt><trkpt lat="37.166295" lon="14.9100083"><ele>445.5</ele><time>2026-04-25T07:54:52.926Z</time></trkpt><trkpt lat="37.1664267" lon="14.9100367"><ele>448.25</ele><time>2026-04-25T07:54:53.926Z</time></trkpt><trkpt lat="37.1665567" lon="14.91011"><ele>451.0</ele><time>2026-04-25T07:54:54.925Z</time></trkpt><trkpt lat="37.1666933" lon="14.9101883"><ele>451.0</ele><time>2026-04-25T07:54:55.926Z</time></trkpt><trkpt lat="37.1668367" lon="14.9102483"><ele>451.0</ele><time>2026-04-25T07:54:56.925Z</time></trkpt><trkpt lat="37.1669767" lon="14.910295"><ele>451.0</ele><time>2026-04-25T07:54:57.926Z</time></trkpt><trkpt lat="37.1671083" lon="14.910365"><ele>451.0</ele><time>2026-04-25T07:54:58.925Z</time></trkpt><trkpt lat="37.1672333" lon="14.910445"><ele>450.25</ele><time>2026-04-25T07:54:59.925Z</time></trkpt><trkpt lat="37.167365" lon="14.9105"><ele>449.5</ele><time>2026-04-25T07:55:00.925Z</time></trkpt><trkpt lat="37.1674883" lon="14.910505"><ele>448.75</ele><time>2026-04-25T07:55:01.925Z</time></trkpt><trkpt lat="37.1676117" lon="14.9104717"><ele>448.0</ele><time>2026-04-25T07:55:02.926Z</time></trkpt><trkpt lat="37.167725" lon="14.9103933"><ele>448.0</ele><time>2026-04-25T07:55:03.926Z</time></trkpt><trkpt lat="37.16782" lon="14.9102817"><ele>447.99999999999994</ele><time>2026-04-25T07:55:04.926Z</time></trkpt><trkpt lat="37.1679133" lon="14.9101967"><ele>447.99999999999994</ele><time>2026-04-25T07:55:05.926Z</time></trkpt><trkpt lat="37.1680067" lon="14.9101533"><ele>448.0</ele><time>2026-04-25T07:55:06.926Z</time></trkpt><trkpt lat="37.1681067" lon="14.9101717"><ele>448.0</ele><time>2026-04-25T07:55:07.926Z</time></trkpt><trkpt lat="37.1682183" lon="14.910225"><ele>446.25</ele><time>2026-04-25T07:55:08.926Z</time></trkpt><trkpt lat="37.1683333" lon="14.9103067"><ele>444.5</ele><time>2026-04-25T07:55:09.925Z</time></trkpt><trkpt lat="37.1684533" lon="14.9103983"><ele>442.75</ele><time>2026-04-25T07:55:10.926Z</time></trkpt><trkpt lat="37.1685717" lon="14.9105067"><ele>441.0</ele><time>2026-04-25T07:55:11.926Z</time></trkpt><trkpt lat="37.1686817" lon="14.9106167"><ele>441.0</ele><time>2026-04-25T07:55:12.926Z</time></trkpt><trkpt lat="37.168795" lon="14.91071"><ele>441.0</ele><time>2026-04-25T07:55:13.926Z</time></trkpt><trkpt lat="37.168915" lon="14.9107567"><ele>441.0</ele><time>2026-04-25T07:55:14.925Z</time></trkpt><trkpt lat="37.16902" lon="14.9107633"><ele>441.0</ele><time>2026-04-25T07:55:15.926Z</time></trkpt><trkpt lat="37.1691083" lon="14.9107283"><ele>441.0</ele><time>2026-04-25T07:55:16.925Z</time></trkpt><trkpt lat="37.1691867" lon="14.9106317"><ele>441.0</ele><time>2026-04-25T07:55:17.926Z</time></trkpt><trkpt lat="37.1692433" lon="14.9105117"><ele>441.0</ele><time>2026-04-25T07:55:18.926Z</time></trkpt><trkpt lat="37.1693033" lon="14.9104133"><ele>441.0</ele><time>2026-04-25T07:55:19.925Z</time></trkpt><trkpt lat="37.1693667" lon="14.9103533"><ele>441.0</ele><time>2026-04-25T07:55:20.926Z</time></trkpt><trkpt lat="37.1694317" lon="14.9103433"><ele>441.0</ele><time>2026-04-25T07:55:21.925Z</time></trkpt><trkpt lat="37.1695" lon="14.9103783"><ele>441.0</ele><time>2026-04-25T07:55:22.926Z</time></trkpt><trkpt lat="37.16957" lon="14.9104567"><ele>441.0</ele><time>2026-04-25T07:55:23.926Z</time></trkpt><trkpt lat="37.169645" lon="14.910555"><ele>441.0</ele><time>2026-04-25T07:55:24.925Z</time></trkpt><trkpt lat="37.1697383" lon="14.91066"><ele>441.0</ele><time>2026-04-25T07:55:25.926Z</time></trkpt><trkpt lat="37.1698567" lon="14.9107633"><ele>440.75</ele><time>2026-04-25T07:55:26.926Z</time></trkpt><trkpt lat="37.1699867" lon="14.910845"><ele>440.5</ele><time>2026-04-25T07:55:27.926Z</time></trkpt><trkpt lat="37.170115" lon="14.9109267"><ele>440.25</ele><time>2026-04-25T07:55:28.926Z</time></trkpt><trkpt lat="37.17025" lon="14.9110017"><ele>440.0</ele><time>2026-04-25T07:55:29.926Z</time></trkpt><trkpt lat="37.1703817" lon="14.91108"><ele>435.25</ele><time>2026-04-25T07:55:30.926Z</time></trkpt><trkpt lat="37.1705183" lon="14.9111567"><ele>430.5</ele><time>2026-04-25T07:55:31.926Z</time></trkpt><trkpt lat="37.1706533" lon="14.9112233"><ele>425.75</ele><time>2026-04-25T07:55:32.925Z</time></trkpt><trkpt lat="37.1707867" lon="14.9112783"><ele>421.0</ele><time>2026-04-25T07:55:33.925Z</time></trkpt><trkpt lat="37.170925" lon="14.9113183"><ele>421.0</ele><time>2026-04-25T07:55:34.926Z</time></trkpt><trkpt lat="37.171065" lon="14.9113383"><ele>421.0</ele><time>2026-04-25T07:55:35.925Z</time></trkpt><trkpt lat="37.171205" lon="14.91134"><ele>421.0</ele><time>2026-04-25T07:55:36.926Z</time></trkpt><trkpt lat="37.1713517" lon="14.9113317"><ele>421.0</ele><time>2026-04-25T07:55:37.925Z</time></trkpt><trkpt lat="37.1715017" lon="14.91134"><ele>421.5</ele><time>2026-04-25T07:55:38.925Z</time></trkpt><trkpt lat="37.1716483" lon="14.9113617"><ele>422.0</ele><time>2026-04-25T07:55:39.925Z</time></trkpt><trkpt lat="37.1717933" lon="14.911385"><ele>422.5</ele><time>2026-04-25T07:55:40.925Z</time></trkpt><trkpt lat="37.171935" lon="14.911415"><ele>423.0</ele><time>2026-04-25T07:55:41.926Z</time></trkpt><trkpt lat="37.1720767" lon="14.9114567"><ele>423.0</ele><time>2026-04-25T07:55:42.926Z</time></trkpt><trkpt lat="37.1722117" lon="14.9115233"><ele>423.0</ele><time>2026-04-25T07:55:43.926Z</time></trkpt><trkpt lat="37.1723433" lon="14.9115917"><ele>423.0</ele><time>2026-04-25T07:55:44.925Z</time></trkpt><trkpt lat="37.1724783" lon="14.9116583"><ele>423.0</ele><time>2026-04-25T07:55:45.925Z</time></trkpt><trkpt lat="37.172615" lon="14.9117183"><ele>417.5</ele><time>2026-04-25T07:55:46.925Z</time></trkpt><trkpt lat="37.1727483" lon="14.91178"><ele>412.0</ele><time>2026-04-25T07:55:47.926Z</time></trkpt><trkpt lat="37.1728817" lon="14.911855"><ele>406.5</ele><time>2026-04-25T07:55:48.925Z</time></trkpt><trkpt lat="37.1730017" lon="14.9119483"><ele>401.0</ele><time>2026-04-25T07:55:49.925Z</time></trkpt><trkpt lat="37.1731117" lon="14.9120483"><ele>402.5</ele><time>2026-04-25T07:55:50.926Z</time></trkpt><trkpt lat="37.173225" lon="14.91213"><ele>404.0</ele><time>2026-04-25T07:55:51.926Z</time></trkpt><trkpt lat="37.1733567" lon="14.9121783"><ele>405.5</ele><time>2026-04-25T07:55:52.925Z</time></trkpt><trkpt lat="37.17349" lon="14.9122"><ele>407.0</ele><time>2026-04-25T07:55:53.925Z</time></trkpt><trkpt lat="37.1736233" lon="14.9121867"><ele>407.0</ele><time>2026-04-25T07:55:54.925Z</time></trkpt><trkpt lat="37.1737467" lon="14.9121767"><ele>407.0</ele><time>2026-04-25T07:55:55.926Z</time></trkpt><trkpt lat="37.173855" lon="14.9121783"><ele>407.0</ele><time>2026-04-25T07:55:56.926Z</time></trkpt><trkpt lat="37.17395" lon="14.91223"><ele>407.0</ele><time>2026-04-25T07:55:57.926Z</time></trkpt><trkpt lat="37.17403" lon="14.91232"><ele>407.0</ele><time>2026-04-25T07:55:58.925Z</time></trkpt><trkpt lat="37.174095" lon="14.912435"><ele>409.0</ele><time>2026-04-25T07:55:59.925Z</time></trkpt><trkpt lat="37.17415" lon="14.91257"><ele>411.0</ele><time>2026-04-25T07:56:00.925Z</time></trkpt><trkpt lat="37.17421" lon="14.9126983"><ele>413.0</ele><time>2026-04-25T07:56:01.925Z</time></trkpt><trkpt lat="37.1742933" lon="14.9128067"><ele>415.0</ele><time>2026-04-25T07:56:02.925Z</time></trkpt><trkpt lat="37.1744033" lon="14.9128867"><ele>414.25</ele><time>2026-04-25T07:56:03.925Z</time></trkpt><trkpt lat="37.1745183" lon="14.9129583"><ele>413.5</ele><time>2026-04-25T07:56:04.926Z</time></trkpt><trkpt lat="37.1746417" lon="14.91301"><ele>412.75</ele><time>2026-04-25T07:56:05.926Z</time></trkpt><trkpt lat="37.1747717" lon="14.9130617"><ele>412.0</ele><time>2026-04-25T07:56:06.926Z</time></trkpt><trkpt lat="37.1748933" lon="14.9131267"><ele>412.0</ele><time>2026-04-25T07:56:07.925Z</time></trkpt><trkpt lat="37.17501" lon="14.9132133"><ele>412.0</ele><time>2026-04-25T07:56:08.925Z</time></trkpt><trkpt lat="37.17512" lon="14.9133333"><ele>412.0</ele><time>2026-04-25T07:56:09.926Z</time></trkpt><trkpt lat="37.1752333" lon="14.9134467"><ele>412.0</ele><time>2026-04-25T07:56:10.926Z</time></trkpt><trkpt lat="37.1753467" lon="14.9135783"><ele>407.0</ele><time>2026-04-25T07:56:11.926Z</time></trkpt><trkpt lat="37.175455" lon="14.9137117"><ele>402.0</ele><time>2026-04-25T07:56:12.925Z</time></trkpt><trkpt lat="37.1755633" lon="14.9138417"><ele>397.0</ele><time>2026-04-25T07:56:13.925Z</time></trkpt><trkpt lat="37.1756683" lon="14.9139817"><ele>395.0</ele><time>2026-04-25T07:56:14.925Z</time></trkpt><trkpt lat="37.1757683" lon="14.9141333"><ele>393.0</ele><time>2026-04-25T07:56:15.926Z</time></trkpt><trkpt lat="37.1758683" lon="14.91429"><ele>391.0</ele><time>2026-04-25T07:56:16.925Z</time></trkpt><trkpt lat="37.17597" lon="14.9144433"><ele>391.0</ele><time>2026-04-25T07:56:17.925Z</time></trkpt><trkpt lat="37.1760767" lon="14.9145867"><ele>391.0</ele><time>2026-04-25T07:56:18.925Z</time></trkpt><trkpt lat="37.176185" lon="14.9147133"><ele>391.0</ele><time>2026-04-25T07:56:19.926Z</time></trkpt><trkpt lat="37.1763" lon="14.914825"><ele>391.0</ele><time>2026-04-25T07:56:20.925Z</time></trkpt><trkpt lat="37.1764117" lon="14.91493"><ele>391.0</ele><time>2026-04-25T07:56:21.926Z</time></trkpt><trkpt lat="37.1765367" lon="14.9150133"><ele>391.0</ele><time>2026-04-25T07:56:22.925Z</time></trkpt><trkpt lat="37.1766633" lon="14.915065"><ele>391.0</ele><time>2026-04-25T07:56:23.925Z</time></trkpt><trkpt lat="37.1768117" lon="14.9151017"><ele>393.5</ele><time>2026-04-25T07:56:24.925Z</time></trkpt><trkpt lat="37.17695" lon="14.915135"><ele>396.0</ele><time>2026-04-25T07:56:25.926Z</time></trkpt><trkpt lat="37.177085" lon="14.9151417"><ele>398.5</ele><time>2026-04-25T07:56:26.926Z</time></trkpt><trkpt lat="37.1772" lon="14.9151183"><ele>401.0</ele><time>2026-04-25T07:56:27.926Z</time></trkpt><trkpt lat="37.177305" lon="14.9150617"><ele>400.0</ele><time>2026-04-25T07:56:28.926Z</time></trkpt><trkpt lat="37.1774117" lon="14.9149683"><ele>399.0</ele><time>2026-04-25T07:56:29.926Z</time></trkpt><trkpt lat="37.1775167" lon="14.9148783"><ele>398.0</ele><time>2026-04-25T07:56:30.925Z</time></trkpt><trkpt lat="37.17762" lon="14.9148067"><ele>397.0</ele><time>2026-04-25T07:56:31.926Z</time></trkpt><trkpt lat="37.1777233" lon="14.9147683"><ele>397.0</ele><time>2026-04-25T07:56:32.925Z</time></trkpt><trkpt lat="37.17782" lon="14.914775"><ele>397.0</ele><time>2026-04-25T07:56:33.925Z</time></trkpt><trkpt lat="37.1779117" lon="14.91483"><ele>397.0</ele><time>2026-04-25T07:56:34.926Z</time></trkpt><trkpt lat="37.1779933" lon="14.9149233"><ele>397.0</ele><time>2026-04-25T07:56:35.926Z</time></trkpt><trkpt lat="37.1780617" lon="14.9150333"><ele>397.0</ele><time>2026-04-25T07:56:36.925Z</time></trkpt><trkpt lat="37.1781183" lon="14.9151617"><ele>394.75</ele><time>2026-04-25T07:56:37.925Z</time></trkpt><trkpt lat="37.1781833" lon="14.915295"><ele>392.5</ele><time>2026-04-25T07:56:38.926Z</time></trkpt><trkpt lat="37.1782533" lon="14.915435"><ele>390.25</ele><time>2026-04-25T07:56:39.926Z</time></trkpt><trkpt lat="37.17833" lon="14.9155633"><ele>388.0</ele><time>2026-04-25T07:56:40.926Z</time></trkpt><trkpt lat="37.1784183" lon="14.9156667"><ele>388.0</ele><time>2026-04-25T07:56:41.926Z</time></trkpt><trkpt lat="37.1785283" lon="14.9157467"><ele>388.0</ele><time>2026-04-25T07:56:42.926Z</time></trkpt><trkpt lat="37.1786633" lon="14.9157933"><ele>388.0</ele><time>2026-04-25T07:56:43.925Z</time></trkpt><trkpt lat="37.1787933" lon="14.9158317"><ele>388.0</ele><time>2026-04-25T07:56:44.926Z</time></trkpt><trkpt lat="37.1789217" lon="14.9158683"><ele>389.25</ele><time>2026-04-25T07:56:45.925Z</time></trkpt><trkpt lat="37.1790417" lon="14.9158983"><ele>390.5</ele><time>2026-04-25T07:56:46.926Z</time></trkpt><trkpt lat="37.1791667" lon="14.9159267"><ele>391.75</ele><time>2026-04-25T07:56:47.925Z</time></trkpt><trkpt lat="37.179295" lon="14.915935"><ele>393.0</ele><time>2026-04-25T07:56:48.926Z</time></trkpt><trkpt lat="37.1794233" lon="14.9159267"><ele>393.0</ele><time>2026-04-25T07:56:49.926Z</time></trkpt><trkpt lat="37.17955" lon="14.915885"><ele>393.0</ele><time>2026-04-25T07:56:50.925Z</time></trkpt><trkpt lat="37.179685" lon="14.9158717"><ele>393.0</ele><time>2026-04-25T07:56:51.926Z</time></trkpt><trkpt lat="37.179825" lon="14.9158733"><ele>393.0</ele><time>2026-04-25T07:56:52.926Z</time></trkpt><trkpt lat="37.17995" lon="14.9158867"><ele>391.25</ele><time>2026-04-25T07:56:53.925Z</time></trkpt><trkpt lat="37.1800683" lon="14.9158817"><ele>389.5</ele><time>2026-04-25T07:56:54.926Z</time></trkpt><trkpt lat="37.1801883" lon="14.9158517"><ele>387.75</ele><time>2026-04-25T07:56:55.926Z</time></trkpt><trkpt lat="37.1803033" lon="14.915785"><ele>386.0</ele><time>2026-04-25T07:56:56.926Z</time></trkpt><trkpt lat="37.1804283" lon="14.9156983"><ele>386.0</ele><time>2026-04-25T07:56:57.925Z</time></trkpt><trkpt lat="37.180545" lon="14.9156033"><ele>386.0</ele><time>2026-04-25T07:56:58.926Z</time></trkpt><trkpt lat="37.1806667" lon="14.9155233"><ele>386.0</ele><time>2026-04-25T07:56:59.926Z</time></trkpt><trkpt lat="37.180785" lon="14.91547"><ele>386.0</ele><time>2026-04-25T07:57:00.925Z</time></trkpt><trkpt lat="37.1809083" lon="14.9154483"><ele>383.25</ele><time>2026-04-25T07:57:01.925Z</time></trkpt><trkpt lat="37.18104" lon="14.9154367"><ele>380.5</ele><time>2026-04-25T07:57:02.925Z</time></trkpt><trkpt lat="37.18118" lon="14.9154333"><ele>377.75</ele><time>2026-04-25T07:57:03.925Z</time></trkpt><trkpt lat="37.181315" lon="14.915435"><ele>375.0</ele><time>2026-04-25T07:57:04.926Z</time></trkpt><trkpt lat="37.181455" lon="14.91544"><ele>373.75</ele><time>2026-04-25T07:57:05.925Z</time></trkpt><trkpt lat="37.18159" lon="14.91545"><ele>372.5</ele><time>2026-04-25T07:57:06.926Z</time></trkpt><trkpt lat="37.1817317" lon="14.9154717"><ele>371.25</ele><time>2026-04-25T07:57:07.925Z</time></trkpt><trkpt lat="37.1818767" lon="14.9155117"><ele>370.0</ele><time>2026-04-25T07:57:08.926Z</time></trkpt><trkpt lat="37.1820033" lon="14.91559"><ele>370.0</ele><time>2026-04-25T07:57:09.926Z</time></trkpt><trkpt lat="37.1821283" lon="14.915675"><ele>370.0</ele><time>2026-04-25T07:57:10.926Z</time></trkpt><trkpt lat="37.1822217" lon="14.9157633"><ele>370.0</ele><time>2026-04-25T07:57:11.925Z</time></trkpt><trkpt lat="37.1823567" lon="14.9158183"><ele>370.0</ele><time>2026-04-25T07:57:12.925Z</time></trkpt><trkpt lat="37.1824833" lon="14.915865"><ele>371.5</ele><time>2026-04-25T07:57:13.926Z</time></trkpt><trkpt lat="37.1826167" lon="14.915895"><ele>373.0</ele><time>2026-04-25T07:57:14.925Z</time></trkpt><trkpt lat="37.18275" lon="14.9159233"><ele>374.5</ele><time>2026-04-25T07:57:15.926Z</time></trkpt><trkpt lat="37.1828833" lon="14.9159183"><ele>376.0</ele><time>2026-04-25T07:57:16.926Z</time></trkpt><trkpt lat="37.183015" lon="14.9158933"><ele>376.0</ele><time>2026-04-25T07:57:17.926Z</time></trkpt><trkpt lat="37.1831533" lon="14.9158567"><ele>376.0</ele><time>2026-04-25T07:57:18.925Z</time></trkpt><trkpt lat="37.18329" lon="14.9158"><ele>376.0</ele><time>2026-04-25T07:57:19.926Z</time></trkpt><trkpt lat="37.183425" lon="14.915755"><ele>376.0</ele><time>2026-04-25T07:57:20.925Z</time></trkpt><trkpt lat="37.1835667" lon="14.91571"><ele>374.25</ele><time>2026-04-25T07:57:21.925Z</time></trkpt><trkpt lat="37.1837083" lon="14.9156833"><ele>372.5</ele><time>2026-04-25T07:57:22.925Z</time></trkpt><trkpt lat="37.1838367" lon="14.915655"><ele>370.75</ele><time>2026-04-25T07:57:23.925Z</time></trkpt><trkpt lat="37.183965" lon="14.9156083"><ele>369.0</ele><time>2026-04-25T07:57:24.925Z</time></trkpt><trkpt lat="37.1840783" lon="14.9155317"><ele>367.75</ele><time>2026-04-25T07:57:25.926Z</time></trkpt><trkpt lat="37.1841767" lon="14.915425"><ele>366.5</ele><time>2026-04-25T07:57:26.925Z</time></trkpt><trkpt lat="37.1842567" lon="14.9152917"><ele>365.25</ele><time>2026-04-25T07:57:27.925Z</time></trkpt><trkpt lat="37.1843183" lon="14.91514"><ele>364.0</ele><time>2026-04-25T07:57:28.925Z</time></trkpt><trkpt lat="37.1843533" lon="14.9149683"><ele>364.0</ele><time>2026-04-25T07:57:29.926Z</time></trkpt><trkpt lat="37.1843817" lon="14.91479"><ele>364.0</ele><time>2026-04-25T07:57:30.926Z</time></trkpt><trkpt lat="37.1843967" lon="14.9146183"><ele>364.0</ele><time>2026-04-25T07:57:31.926Z</time></trkpt><trkpt lat="37.1844117" lon="14.9144367"><ele>364.0</ele><time>2026-04-25T07:57:32.925Z</time></trkpt><trkpt lat="37.1844333" lon="14.9142567"><ele>364.0</ele><time>2026-04-25T07:57:33.926Z</time></trkpt><trkpt lat="37.1844633" lon="14.91408"><ele>364.0</ele><time>2026-04-25T07:57:34.926Z</time></trkpt><trkpt lat="37.1845017" lon="14.913905"><ele>364.0</ele><time>2026-04-25T07:57:35.926Z</time></trkpt><trkpt lat="37.1845433" lon="14.913735"><ele>364.0</ele><time>2026-04-25T07:57:36.926Z</time></trkpt><trkpt lat="37.1845833" lon="14.91357"><ele>364.0</ele><time>2026-04-25T07:57:37.925Z</time></trkpt><trkpt lat="37.1846317" lon="14.9134117"><ele>364.0</ele><time>2026-04-25T07:57:38.925Z</time></trkpt><trkpt lat="37.1846817" lon="14.91326"><ele>364.0</ele><time>2026-04-25T07:57:39.926Z</time></trkpt><trkpt lat="37.1847467" lon="14.91312"><ele>364.0</ele><time>2026-04-25T07:57:40.925Z</time></trkpt><trkpt lat="37.1848233" lon="14.9129933"><ele>361.5</ele><time>2026-04-25T07:57:41.925Z</time></trkpt><trkpt lat="37.1849167" lon="14.912885"><ele>359.0</ele><time>2026-04-25T07:57:42.926Z</time></trkpt><trkpt lat="37.185025" lon="14.9127983"><ele>356.5</ele><time>2026-04-25T07:57:43.926Z</time></trkpt><trkpt lat="37.1851267" lon="14.9127233"><ele>354.0</ele><time>2026-04-25T07:57:44.925Z</time></trkpt><trkpt lat="37.185205" lon="14.91263"><ele>354.25</ele><time>2026-04-25T07:57:45.926Z</time></trkpt><trkpt lat="37.185255" lon="14.9125083"><ele>354.5</ele><time>2026-04-25T07:57:46.925Z</time></trkpt><trkpt lat="37.1852783" lon="14.91236"><ele>354.75</ele><time>2026-04-25T07:57:47.926Z</time></trkpt><trkpt lat="37.1852833" lon="14.9122033"><ele>355.0</ele><time>2026-04-25T07:57:48.925Z</time></trkpt><trkpt lat="37.185275" lon="14.912035"><ele>355.0</ele><time>2026-04-25T07:57:49.926Z</time></trkpt><trkpt lat="37.1852533" lon="14.9118633"><ele>355.0</ele><time>2026-04-25T07:57:50.925Z</time></trkpt><trkpt lat="37.1852317" lon="14.9116883"><ele>355.0</ele><time>2026-04-25T07:57:51.925Z</time></trkpt><trkpt lat="37.1852183" lon="14.91151"><ele>355.0</ele><time>2026-04-25T07:57:52.926Z</time></trkpt><trkpt lat="37.1852" lon="14.9113417"><ele>354.25</ele><time>2026-04-25T07:57:53.925Z</time></trkpt><trkpt lat="37.185175" lon="14.9111767"><ele>353.5</ele><time>2026-04-25T07:57:54.926Z</time></trkpt><trkpt lat="37.1851717" lon="14.91102"><ele>352.75</ele><time>2026-04-25T07:57:55.925Z</time></trkpt><trkpt lat="37.18518" lon="14.910875"><ele>352.0</ele><time>2026-04-25T07:57:56.926Z</time></trkpt><trkpt lat="37.1852017" lon="14.9107467"><ele>351.40000000000003</ele><time>2026-04-25T07:57:57.925Z</time></trkpt><trkpt lat="37.1852367" lon="14.9106333"><ele>350.8</ele><time>2026-04-25T07:57:58.925Z</time></trkpt><trkpt lat="37.1853133" lon="14.91054"><ele>350.2</ele><time>2026-04-25T07:57:59.925Z</time></trkpt><trkpt lat="37.1854117" lon="14.910485"><ele>349.6</ele><time>2026-04-25T07:58:00.925Z</time></trkpt><trkpt lat="37.185525" lon="14.9104617"><ele>349.0</ele><time>2026-04-25T07:58:01.926Z</time></trkpt><trkpt lat="37.1856433" lon="14.9104717"><ele>347.0</ele><time>2026-04-25T07:58:02.925Z</time></trkpt><trkpt lat="37.1857567" lon="14.9105133"><ele>345.0</ele><time>2026-04-25T07:58:03.926Z</time></trkpt><trkpt lat="37.185875" lon="14.9105833"><ele>343.0</ele><time>2026-04-25T07:58:04.925Z</time></trkpt><trkpt lat="37.185995" lon="14.9106683"><ele>341.0</ele><time>2026-04-25T07:58:05.925Z</time></trkpt><trkpt lat="37.1861083" lon="14.9107517"><ele>341.0</ele><time>2026-04-25T07:58:06.925Z</time></trkpt><trkpt lat="37.1862367" lon="14.9108167"><ele>341.0</ele><time>2026-04-25T07:58:07.926Z</time></trkpt><trkpt lat="37.1863817" lon="14.9108533"><ele>341.0</ele><time>2026-04-25T07:58:08.925Z</time></trkpt><trkpt lat="37.1865183" lon="14.910875"><ele>341.0</ele><time>2026-04-25T07:58:09.926Z</time></trkpt><trkpt lat="37.186625" lon="14.9109033"><ele>339.8</ele><time>2026-04-25T07:58:10.925Z</time></trkpt><trkpt lat="37.18672" lon="14.9109683"><ele>338.6</ele><time>2026-04-25T07:58:11.925Z</time></trkpt><trkpt lat="37.1868017" lon="14.9110533"><ele>337.4</ele><time>2026-04-25T07:58:12.926Z</time></trkpt><trkpt lat="37.186855" lon="14.911165"><ele>336.2</ele><time>2026-04-25T07:58:13.926Z</time></trkpt><trkpt lat="37.1868717" lon="14.9113083"><ele>335.0</ele><time>2026-04-25T07:58:14.926Z</time></trkpt><trkpt lat="37.1868733" lon="14.91146"><ele>335.0</ele><time>2026-04-25T07:58:15.926Z</time></trkpt><trkpt lat="37.1868733" lon="14.91162"><ele>335.0</ele><time>2026-04-25T07:58:16.925Z</time></trkpt><trkpt lat="37.18688" lon="14.911775"><ele>335.0</ele><time>2026-04-25T07:58:17.925Z</time></trkpt><trkpt lat="37.1868983" lon="14.911925"><ele>335.0</ele><time>2026-04-25T07:58:18.926Z</time></trkpt><trkpt lat="37.1869283" lon="14.91208"><ele>335.0</ele><time>2026-04-25T07:58:19.925Z</time></trkpt><trkpt lat="37.186975" lon="14.9122317"><ele>335.0</ele><time>2026-04-25T07:58:20.925Z</time></trkpt><trkpt lat="37.1870317" lon="14.9123783"><ele>335.0</ele><time>2026-04-25T07:58:21.926Z</time></trkpt><trkpt lat="37.18709" lon="14.9125183"><ele>335.0</ele><time>2026-04-25T07:58:22.926Z</time></trkpt><trkpt lat="37.1871633" lon="14.9126633"><ele>335.5</ele><time>2026-04-25T07:58:23.925Z</time></trkpt><trkpt lat="37.187235" lon="14.9128083"><ele>336.0</ele><time>2026-04-25T07:58:24.925Z</time></trkpt><trkpt lat="37.187325" lon="14.9129467"><ele>336.5</ele><time>2026-04-25T07:58:25.925Z</time></trkpt><trkpt lat="37.1874233" lon="14.9130667"><ele>337.0</ele><time>2026-04-25T07:58:26.925Z</time></trkpt><trkpt lat="37.187525" lon="14.9131633"><ele>334.75</ele><time>2026-04-25T07:58:27.925Z</time></trkpt><trkpt lat="37.1876417" lon="14.91323"><ele>332.5</ele><time>2026-04-25T07:58:28.926Z</time></trkpt><trkpt lat="37.1877767" lon="14.9132733"><ele>330.25</ele><time>2026-04-25T07:58:29.926Z</time></trkpt><trkpt lat="37.1878983" lon="14.9133133"><ele>328.0</ele><time>2026-04-25T07:58:30.926Z</time></trkpt><trkpt lat="37.1880317" lon="14.9133317"><ele>328.0</ele><time>2026-04-25T07:58:31.925Z</time></trkpt><trkpt lat="37.1881683" lon="14.9133233"><ele>328.0</ele><time>2026-04-25T07:58:32.926Z</time></trkpt><trkpt lat="37.1883033" lon="14.913285"><ele>328.0</ele><time>2026-04-25T07:58:33.926Z</time></trkpt><trkpt lat="37.1884417" lon="14.91323"><ele>328.0</ele><time>2026-04-25T07:58:34.926Z</time></trkpt><trkpt lat="37.1885817" lon="14.91317"><ele>327.0</ele><time>2026-04-25T07:58:35.925Z</time></trkpt><trkpt lat="37.188725" lon="14.913115"><ele>326.0</ele><time>2026-04-25T07:58:36.926Z</time></trkpt><trkpt lat="37.1888733" lon="14.9130483"><ele>325.0</ele><time>2026-04-25T07:58:37.926Z</time></trkpt><trkpt lat="37.1890267" lon="14.91298"><ele>324.0</ele><time>2026-04-25T07:58:38.925Z</time></trkpt><trkpt lat="37.18918" lon="14.91292"><ele>323.0</ele><time>2026-04-25T07:58:39.926Z</time></trkpt><trkpt lat="37.1893333" lon="14.9128583"><ele>322.0</ele><time>2026-04-25T07:58:40.926Z</time></trkpt><trkpt lat="37.1894833" lon="14.9127933"><ele>322.0</ele><time>2026-04-25T07:58:41.925Z</time></trkpt><trkpt lat="37.1896317" lon="14.9127233"><ele>322.0</ele><time>2026-04-25T07:58:42.925Z</time></trkpt><trkpt lat="37.1897833" lon="14.9126567"><ele>322.0</ele><time>2026-04-25T07:58:43.925Z</time></trkpt><trkpt lat="37.1899383" lon="14.9125817"><ele>321.0</ele><time>2026-04-25T07:58:44.925Z</time></trkpt><trkpt lat="37.1900883" lon="14.912515"><ele>320.0</ele><time>2026-04-25T07:58:45.926Z</time></trkpt><trkpt lat="37.19024" lon="14.9124433"><ele>319.0</ele><time>2026-04-25T07:58:46.926Z</time></trkpt><trkpt lat="37.1903933" lon="14.912375"><ele>319.0</ele><time>2026-04-25T07:58:47.926Z</time></trkpt><trkpt lat="37.1905467" lon="14.912295"><ele>319.0</ele><time>2026-04-25T07:58:48.925Z</time></trkpt><trkpt lat="37.1907033" lon="14.9122217"><ele>319.0</ele><time>2026-04-25T07:58:49.925Z</time></trkpt><trkpt lat="37.1908617" lon="14.9121433"><ele>318.0</ele><time>2026-04-25T07:58:50.926Z</time></trkpt><trkpt lat="37.1910167" lon="14.91206"><ele>317.0</ele><time>2026-04-25T07:58:51.925Z</time></trkpt><trkpt lat="37.1911717" lon="14.9119883"><ele>316.0</ele><time>2026-04-25T07:58:52.925Z</time></trkpt><trkpt lat="37.1913233" lon="14.9119133"><ele>316.0</ele><time>2026-04-25T07:58:53.926Z</time></trkpt><trkpt lat="37.191485" lon="14.9118383"><ele>316.0</ele><time>2026-04-25T07:58:54.925Z</time></trkpt><trkpt lat="37.19164" lon="14.911765"><ele>316.0</ele><time>2026-04-25T07:58:55.926Z</time></trkpt><trkpt lat="37.1918067" lon="14.911685"><ele>314.3333333333333</ele><time>2026-04-25T07:58:56.925Z</time></trkpt><trkpt lat="37.19197" lon="14.9116033"><ele>312.6666666666667</ele><time>2026-04-25T07:58:57.926Z</time></trkpt><trkpt lat="37.1921367" lon="14.9115267"><ele>311.0</ele><time>2026-04-25T07:58:58.926Z</time></trkpt><trkpt lat="37.19229" lon="14.9114517"><ele>310.33333333333337</ele><time>2026-04-25T07:58:59.926Z</time></trkpt><trkpt lat="37.1924517" lon="14.9113733"><ele>309.6666666666667</ele><time>2026-04-25T07:59:00.926Z</time></trkpt><trkpt lat="37.1926017" lon="14.9112983"><ele>309.0</ele><time>2026-04-25T07:59:01.926Z</time></trkpt><trkpt lat="37.1927533" lon="14.911225"><ele>309.0</ele><time>2026-04-25T07:59:02.925Z</time></trkpt><trkpt lat="37.1929" lon="14.9111483"><ele>309.0</ele><time>2026-04-25T07:59:03.925Z</time></trkpt><trkpt lat="37.1930433" lon="14.9110733"><ele>309.0</ele><time>2026-04-25T07:59:04.926Z</time></trkpt><trkpt lat="37.1931817" lon="14.9109917"><ele>308.0</ele><time>2026-04-25T07:59:05.926Z</time></trkpt><trkpt lat="37.193315" lon="14.9108967"><ele>307.0</ele><time>2026-04-25T07:59:06.925Z</time></trkpt><trkpt lat="37.1934333" lon="14.9107783"><ele>306.0</ele><time>2026-04-25T07:59:07.926Z</time></trkpt><trkpt lat="37.1935367" lon="14.9106433"><ele>306.0</ele><time>2026-04-25T07:59:08.925Z</time></trkpt><trkpt lat="37.1936367" lon="14.91047"><ele>306.0</ele><time>2026-04-25T07:59:09.926Z</time></trkpt><trkpt lat="37.19372" lon="14.9102867"><ele>306.0</ele><time>2026-04-25T07:59:10.925Z</time></trkpt><trkpt lat="37.1937867" lon="14.9101117"><ele>305.0</ele><time>2026-04-25T07:59:11.926Z</time></trkpt><trkpt lat="37.1938333" lon="14.9099367"><ele>304.0</ele><time>2026-04-25T07:59:12.925Z</time></trkpt><trkpt lat="37.1938667" lon="14.9097467"><ele>303.0</ele><time>2026-04-25T07:59:13.926Z</time></trkpt><trkpt lat="37.193885" lon="14.909555"><ele>303.0</ele><time>2026-04-25T07:59:14.925Z</time></trkpt><trkpt lat="37.1939" lon="14.9093783"><ele>303.0</ele><time>2026-04-25T07:59:15.925Z</time></trkpt><trkpt lat="37.1939283" lon="14.9092183"><ele>303.0</ele><time>2026-04-25T07:59:16.926Z</time></trkpt><trkpt lat="37.1939617" lon="14.9090367"><ele>303.0</ele><time>2026-04-25T07:59:17.925Z</time></trkpt><trkpt lat="37.1940067" lon="14.9088567"><ele>302.6666666666667</ele><time>2026-04-25T07:59:18.926Z</time></trkpt><trkpt lat="37.1940817" lon="14.9086817"><ele>302.33333333333337</ele><time>2026-04-25T07:59:19.926Z</time></trkpt><trkpt lat="37.1941583" lon="14.9085083"><ele>302.0</ele><time>2026-04-25T07:59:20.926Z</time></trkpt><trkpt lat="37.194245" lon="14.90833"><ele>300.6666666666667</ele><time>2026-04-25T07:59:21.926Z</time></trkpt><trkpt lat="37.19431" lon="14.9081483"><ele>299.3333333333333</ele><time>2026-04-25T07:59:22.926Z</time></trkpt><trkpt lat="37.1943533" lon="14.9079567"><ele>298.0</ele><time>2026-04-25T07:59:23.926Z</time></trkpt><trkpt lat="37.19437" lon="14.9077883"><ele>298.0</ele><time>2026-04-25T07:59:24.926Z</time></trkpt><trkpt lat="37.194365" lon="14.9075883"><ele>298.0</ele><time>2026-04-25T07:59:25.925Z</time></trkpt><trkpt lat="37.1943633" lon="14.90738"><ele>298.0</ele><time>2026-04-25T07:59:26.926Z</time></trkpt><trkpt lat="37.1943567" lon="14.907175"><ele>295.3333333333333</ele><time>2026-04-25T07:59:27.926Z</time></trkpt><trkpt lat="37.194365" lon="14.9069767"><ele>292.6666666666667</ele><time>2026-04-25T07:59:28.926Z</time></trkpt><trkpt lat="37.1943783" lon="14.906785"><ele>290.0</ele><time>2026-04-25T07:59:29.926Z</time></trkpt><trkpt lat="37.194395" lon="14.9065967"><ele>287.6666666666667</ele><time>2026-04-25T07:59:30.925Z</time></trkpt><trkpt lat="37.1944333" lon="14.906235"><ele>285.3333333333333</ele><time>2026-04-25T07:59:32.926Z</time></trkpt><trkpt lat="37.194445" lon="14.9060533"><ele>283.0</ele><time>2026-04-25T07:59:33.926Z</time></trkpt><trkpt lat="37.194445" lon="14.9058833"><ele>282.0</ele><time>2026-04-25T07:59:34.925Z</time></trkpt><trkpt lat="37.1944517" lon="14.9057267"><ele>281.0</ele><time>2026-04-25T07:59:35.925Z</time></trkpt><trkpt lat="37.1944783" lon="14.9055783"><ele>280.0</ele><time>2026-04-25T07:59:36.926Z</time></trkpt><trkpt lat="37.1945117" lon="14.9054517"><ele>279.0</ele><time>2026-04-25T07:59:37.926Z</time></trkpt><trkpt lat="37.1945633" lon="14.905325"><ele>279.0</ele><time>2026-04-25T07:59:38.925Z</time></trkpt><trkpt lat="37.1946133" lon="14.905195"><ele>279.0</ele><time>2026-04-25T07:59:39.925Z</time></trkpt><trkpt lat="37.19466" lon="14.9050733"><ele>279.0</ele><time>2026-04-25T07:59:40.926Z</time></trkpt><trkpt lat="37.19471" lon="14.9049583"><ele>279.0</ele><time>2026-04-25T07:59:41.925Z</time></trkpt><trkpt lat="37.1948267" lon="14.9047317"><ele>278.4</ele><time>2026-04-25T07:59:43.925Z</time></trkpt><trkpt lat="37.1948717" lon="14.9046217"><ele>277.79999999999995</ele><time>2026-04-25T07:59:44.925Z</time></trkpt><trkpt lat="37.1949267" lon="14.9045067"><ele>277.20000000000005</ele><time>2026-04-25T07:59:45.925Z</time></trkpt><trkpt lat="37.1949767" lon="14.9043883"><ele>276.6</ele><time>2026-04-25T07:59:46.925Z</time></trkpt><trkpt lat="37.1950267" lon="14.9042683"><ele>276.0</ele><time>2026-04-25T07:59:47.926Z</time></trkpt><trkpt lat="37.1950917" lon="14.904155"><ele>276.0</ele><time>2026-04-25T07:59:48.925Z</time></trkpt><trkpt lat="37.19515" lon="14.9040567"><ele>276.0</ele><time>2026-04-25T07:59:49.925Z</time></trkpt><trkpt lat="37.19522" lon="14.90397"><ele>276.0</ele><time>2026-04-25T07:59:50.925Z</time></trkpt><trkpt lat="37.1952933" lon="14.9038917"><ele>276.0</ele><time>2026-04-25T07:59:51.926Z</time></trkpt><trkpt lat="37.1953783" lon="14.9038133"><ele>276.0</ele><time>2026-04-25T07:59:52.925Z</time></trkpt><trkpt lat="37.1954633" lon="14.903735"><ele>276.0</ele><time>2026-04-25T07:59:53.926Z</time></trkpt><trkpt lat="37.1955417" lon="14.9036617"><ele>276.0</ele><time>2026-04-25T07:59:54.925Z</time></trkpt><trkpt lat="37.1956233" lon="14.9035867"><ele>276.0</ele><time>2026-04-25T07:59:55.926Z</time></trkpt><trkpt lat="37.19571" lon="14.9035117"><ele>276.0</ele><time>2026-04-25T07:59:56.926Z</time></trkpt><trkpt lat="37.1957983" lon="14.9034317"><ele>276.0</ele><time>2026-04-25T07:59:57.926Z</time></trkpt><trkpt lat="37.195885" lon="14.90336"><ele>275.8</ele><time>2026-04-25T07:59:58.925Z</time></trkpt><trkpt lat="37.1959767" lon="14.9032983"><ele>275.6</ele><time>2026-04-25T07:59:59.925Z</time></trkpt><trkpt lat="37.1960617" lon="14.9032367"><ele>275.4</ele><time>2026-04-25T08:00:00.925Z</time></trkpt><trkpt lat="37.19615" lon="14.90319"><ele>275.2</ele><time>2026-04-25T08:00:01.926Z</time></trkpt><trkpt lat="37.19624" lon="14.9031533"><ele>275.0</ele><time>2026-04-25T08:00:02.926Z</time></trkpt><trkpt lat="37.19633" lon="14.9031333"><ele>275.0</ele><time>2026-04-25T08:00:03.925Z</time></trkpt><trkpt lat="37.19642" lon="14.9031033"><ele>275.0</ele><time>2026-04-25T08:00:04.925Z</time></trkpt><trkpt lat="37.196505" lon="14.903075"><ele>275.0</ele><time>2026-04-25T08:00:05.925Z</time></trkpt><trkpt lat="37.1965867" lon="14.9030333"><ele>275.0</ele><time>2026-04-25T08:00:06.926Z</time></trkpt><trkpt lat="37.1966683" lon="14.9029767"><ele>275.0</ele><time>2026-04-25T08:00:07.926Z</time></trkpt><trkpt lat="37.1967483" lon="14.9029083"><ele>276.5</ele><time>2026-04-25T08:00:08.925Z</time></trkpt><trkpt lat="37.1968183" lon="14.9028267"><ele>278.0</ele><time>2026-04-25T08:00:09.926Z</time></trkpt><trkpt lat="37.1968683" lon="14.9027333"><ele>279.5</ele><time>2026-04-25T08:00:10.925Z</time></trkpt><trkpt lat="37.1969183" lon="14.9026383"><ele>281.0</ele><time>2026-04-25T08:00:11.926Z</time></trkpt><trkpt lat="37.196965" lon="14.9025467"><ele>282.5</ele><time>2026-04-25T08:00:12.925Z</time></trkpt><trkpt lat="37.19701" lon="14.9024533"><ele>284.0</ele><time>2026-04-25T08:00:13.926Z</time></trkpt><trkpt lat="37.1970433" lon="14.9023633"><ele>283.6666666666667</ele><time>2026-04-25T08:00:14.926Z</time></trkpt><trkpt lat="37.1970783" lon="14.902265"><ele>283.33333333333337</ele><time>2026-04-25T08:00:15.926Z</time></trkpt><trkpt lat="37.1971283" lon="14.9021683"><ele>283.0</ele><time>2026-04-25T08:00:16.926Z</time></trkpt><trkpt lat="37.1971817" lon="14.9020717"><ele>282.6666666666667</ele><time>2026-04-25T08:00:17.926Z</time></trkpt><trkpt lat="37.197245" lon="14.9019917"><ele>282.3333333333333</ele><time>2026-04-25T08:00:18.926Z</time></trkpt><trkpt lat="37.19731" lon="14.901925"><ele>282.0</ele><time>2026-04-25T08:00:19.925Z</time></trkpt><trkpt lat="37.1974067" lon="14.9018867"><ele>282.0</ele><time>2026-04-25T08:00:20.926Z</time></trkpt><trkpt lat="37.1975" lon="14.9018883"><ele>282.0</ele><time>2026-04-25T08:00:21.926Z</time></trkpt><trkpt lat="37.1975883" lon="14.9019383"><ele>282.0</ele><time>2026-04-25T08:00:22.925Z</time></trkpt><trkpt lat="37.1976883" lon="14.902005"><ele>282.0</ele><time>2026-04-25T08:00:23.925Z</time></trkpt><trkpt lat="37.1978983" lon="14.9020983"><ele>282.0</ele><time>2026-04-25T08:00:25.925Z</time></trkpt><trkpt lat="37.198005" lon="14.90212"><ele>282.0</ele><time>2026-04-25T08:00:26.926Z</time></trkpt><trkpt lat="37.1980933" lon="14.9021633"><ele>282.0</ele><time>2026-04-25T08:00:27.925Z</time></trkpt><trkpt lat="37.1981783" lon="14.9022383"><ele>282.0</ele><time>2026-04-25T08:00:28.926Z</time></trkpt><trkpt lat="37.1982433" lon="14.9023183"><ele>282.0</ele><time>2026-04-25T08:00:29.926Z</time></trkpt><trkpt lat="37.1982983" lon="14.902395"><ele>279.3333333333333</ele><time>2026-04-25T08:00:30.926Z</time></trkpt><trkpt lat="37.1983433" lon="14.9024817"><ele>276.6666666666667</ele><time>2026-04-25T08:00:31.925Z</time></trkpt><trkpt lat="37.1983633" lon="14.9025767"><ele>274.0</ele><time>2026-04-25T08:00:32.926Z</time></trkpt><trkpt lat="37.19836" lon="14.902675"><ele>271.33333333333337</ele><time>2026-04-25T08:00:33.925Z</time></trkpt><trkpt lat="37.1983417" lon="14.902775"><ele>268.6666666666667</ele><time>2026-04-25T08:00:34.926Z</time></trkpt><trkpt lat="37.1983067" lon="14.9028883"><ele>266.0</ele><time>2026-04-25T08:00:35.925Z</time></trkpt><trkpt lat="37.198265" lon="14.9029933"><ele>266.0</ele><time>2026-04-25T08:00:36.926Z</time></trkpt><trkpt lat="37.198205" lon="14.9030917"><ele>266.0</ele><time>2026-04-25T08:00:37.926Z</time></trkpt><trkpt lat="37.1981383" lon="14.9031767"><ele>266.0</ele><time>2026-04-25T08:00:38.926Z</time></trkpt><trkpt lat="37.1980733" lon="14.9032383"><ele>266.0</ele><time>2026-04-25T08:00:39.926Z</time></trkpt><trkpt lat="37.1980017" lon="14.90331"><ele>266.0</ele><time>2026-04-25T08:00:40.926Z</time></trkpt><trkpt lat="37.1979267" lon="14.90338"><ele>269.0</ele><time>2026-04-25T08:00:41.926Z</time></trkpt><trkpt lat="37.1978617" lon="14.9034583"><ele>272.0</ele><time>2026-04-25T08:00:42.926Z</time></trkpt><trkpt lat="37.19782" lon="14.903535"><ele>275.0</ele><time>2026-04-25T08:00:43.926Z</time></trkpt><trkpt lat="37.1978067" lon="14.9036233"><ele>278.0</ele><time>2026-04-25T08:00:44.926Z</time></trkpt><trkpt lat="37.1978167" lon="14.90372"><ele>281.0</ele><time>2026-04-25T08:00:45.926Z</time></trkpt><trkpt lat="37.1978633" lon="14.9038067"><ele>284.0</ele><time>2026-04-25T08:00:46.926Z</time></trkpt><trkpt lat="37.1979183" lon="14.9038617"><ele>284.0</ele><time>2026-04-25T08:00:47.925Z</time></trkpt><trkpt lat="37.1979967" lon="14.9038817"><ele>284.0</ele><time>2026-04-25T08:00:48.926Z</time></trkpt><trkpt lat="37.1980917" lon="14.9038433"><ele>284.0</ele><time>2026-04-25T08:00:49.925Z</time></trkpt><trkpt lat="37.1982" lon="14.9037717"><ele>284.0</ele><time>2026-04-25T08:00:50.925Z</time></trkpt><trkpt lat="37.198325" lon="14.9036817"><ele>284.0</ele><time>2026-04-25T08:00:51.926Z</time></trkpt><trkpt lat="37.19845" lon="14.9036167"><ele>283.0</ele><time>2026-04-25T08:00:52.926Z</time></trkpt><trkpt lat="37.1985583" lon="14.9035617"><ele>282.0</ele><time>2026-04-25T08:00:53.926Z</time></trkpt><trkpt lat="37.198665" lon="14.903495"><ele>281.0</ele><time>2026-04-25T08:00:54.926Z</time></trkpt><trkpt lat="37.198775" lon="14.9034183"><ele>280.0</ele><time>2026-04-25T08:00:55.926Z</time></trkpt><trkpt lat="37.1988817" lon="14.9033433"><ele>276.5</ele><time>2026-04-25T08:00:56.925Z</time></trkpt><trkpt lat="37.198985" lon="14.9032783"><ele>273.0</ele><time>2026-04-25T08:00:57.926Z</time></trkpt><trkpt lat="37.199095" lon="14.9032233"><ele>269.5</ele><time>2026-04-25T08:00:58.926Z</time></trkpt><trkpt lat="37.1991983" lon="14.9031883"><ele>266.0</ele><time>2026-04-25T08:00:59.926Z</time></trkpt><trkpt lat="37.1993117" lon="14.9031783"><ele>265.25</ele><time>2026-04-25T08:01:00.926Z</time></trkpt><trkpt lat="37.199435" lon="14.9031833"><ele>264.5</ele><time>2026-04-25T08:01:01.926Z</time></trkpt><trkpt lat="37.19956" lon="14.9031933"><ele>263.75</ele><time>2026-04-25T08:01:02.925Z</time></trkpt><trkpt lat="37.1996833" lon="14.9032017"><ele>263.0</ele><time>2026-04-25T08:01:03.925Z</time></trkpt><trkpt lat="37.1999067" lon="14.9032617"><ele>261.2</ele><time>2026-04-25T08:01:05.926Z</time></trkpt><trkpt lat="37.1999983" lon="14.9033233"><ele>259.4</ele><time>2026-04-25T08:01:06.926Z</time></trkpt><trkpt lat="37.2000783" lon="14.903405"><ele>257.59999999999997</ele><time>2026-04-25T08:01:07.925Z</time></trkpt><trkpt lat="37.2001383" lon="14.9035"><ele>255.79999999999998</ele><time>2026-04-25T08:01:08.926Z</time></trkpt><trkpt lat="37.20021" lon="14.9035833"><ele>254.0</ele><time>2026-04-25T08:01:09.925Z</time></trkpt><trkpt lat="37.2002917" lon="14.9036383"><ele>256.59999999999997</ele><time>2026-04-25T08:01:10.926Z</time></trkpt><trkpt lat="37.2003833" lon="14.9036683"><ele>259.2</ele><time>2026-04-25T08:01:11.926Z</time></trkpt><trkpt lat="37.2004867" lon="14.9036517"><ele>261.79999999999995</ele><time>2026-04-25T08:01:12.926Z</time></trkpt><trkpt lat="37.200605" lon="14.9036067"><ele>264.4</ele><time>2026-04-25T08:01:13.926Z</time></trkpt><trkpt lat="37.2007217" lon="14.90357"><ele>267.0</ele><time>2026-04-25T08:01:14.925Z</time></trkpt><trkpt lat="37.2008383" lon="14.9035517"><ele>267.0</ele><time>2026-04-25T08:01:15.925Z</time></trkpt><trkpt lat="37.20095" lon="14.90356"><ele>267.0</ele><time>2026-04-25T08:01:16.925Z</time></trkpt><trkpt lat="37.201055" lon="14.9035933"><ele>267.0</ele><time>2026-04-25T08:01:17.926Z</time></trkpt><trkpt lat="37.2011667" lon="14.9036583"><ele>267.0</ele><time>2026-04-25T08:01:18.926Z</time></trkpt><trkpt lat="37.201275" lon="14.90374"><ele>267.0</ele><time>2026-04-25T08:01:19.925Z</time></trkpt><trkpt lat="37.20139" lon="14.9038217"><ele>267.0</ele><time>2026-04-25T08:01:20.926Z</time></trkpt><trkpt lat="37.2015067" lon="14.9038867"><ele>267.0</ele><time>2026-04-25T08:01:21.925Z</time></trkpt><trkpt lat="37.2016267" lon="14.9039417"><ele>267.0</ele><time>2026-04-25T08:01:22.926Z</time></trkpt><trkpt lat="37.20175" lon="14.90398"><ele>264.0</ele><time>2026-04-25T08:01:23.925Z</time></trkpt><trkpt lat="37.2018817" lon="14.9040083"><ele>261.0</ele><time>2026-04-25T08:01:24.925Z</time></trkpt><trkpt lat="37.2020217" lon="14.90402"><ele>258.0</ele><time>2026-04-25T08:01:25.925Z</time></trkpt><trkpt lat="37.20217" lon="14.9040283"><ele>255.0</ele><time>2026-04-25T08:01:26.926Z</time></trkpt><trkpt lat="37.20231" lon="14.9040433"><ele>252.75</ele><time>2026-04-25T08:01:27.926Z</time></trkpt><trkpt lat="37.2024467" lon="14.9040417"><ele>250.5</ele><time>2026-04-25T08:01:28.925Z</time></trkpt><trkpt lat="37.2025833" lon="14.904035"><ele>248.25</ele><time>2026-04-25T08:01:29.925Z</time></trkpt><trkpt lat="37.20272" lon="14.9040233"><ele>246.0</ele><time>2026-04-25T08:01:30.926Z</time></trkpt><trkpt lat="37.2028483" lon="14.9040133"><ele>246.0</ele><time>2026-04-25T08:01:31.925Z</time></trkpt><trkpt lat="37.2029767" lon="14.9039867"><ele>246.0</ele><time>2026-04-25T08:01:32.925Z</time></trkpt><trkpt lat="37.2031083" lon="14.90398"><ele>246.0</ele><time>2026-04-25T08:01:33.926Z</time></trkpt><trkpt lat="37.2032433" lon="14.903985"><ele>246.0</ele><time>2026-04-25T08:01:34.925Z</time></trkpt><trkpt lat="37.20338" lon="14.903995"><ele>244.25</ele><time>2026-04-25T08:01:35.926Z</time></trkpt><trkpt lat="37.203515" lon="14.9040067"><ele>242.5</ele><time>2026-04-25T08:01:36.925Z</time></trkpt><trkpt lat="37.2036467" lon="14.9040267"><ele>240.75</ele><time>2026-04-25T08:01:37.926Z</time></trkpt><trkpt lat="37.20378" lon="14.9040667"><ele>239.0</ele><time>2026-04-25T08:01:38.926Z</time></trkpt><trkpt lat="37.203905" lon="14.9041183"><ele>238.25</ele><time>2026-04-25T08:01:39.925Z</time></trkpt><trkpt lat="37.2040067" lon="14.9041983"><ele>237.5</ele><time>2026-04-25T08:01:40.926Z</time></trkpt><trkpt lat="37.2041017" lon="14.9043067"><ele>236.75</ele><time>2026-04-25T08:01:41.926Z</time></trkpt><trkpt lat="37.2041933" lon="14.90444"><ele>236.0</ele><time>2026-04-25T08:01:42.925Z</time></trkpt><trkpt lat="37.2042733" lon="14.90457"><ele>236.0</ele><time>2026-04-25T08:01:43.925Z</time></trkpt><trkpt lat="37.20434" lon="14.9047083"><ele>236.0</ele><time>2026-04-25T08:01:44.926Z</time></trkpt><trkpt lat="37.2043917" lon="14.9048483"><ele>236.0</ele><time>2026-04-25T08:01:45.925Z</time></trkpt><trkpt lat="37.2044083" lon="14.9050017"><ele>236.0</ele><time>2026-04-25T08:01:46.925Z</time></trkpt><trkpt lat="37.20439" lon="14.905155"><ele>234.75</ele><time>2026-04-25T08:01:47.926Z</time></trkpt><trkpt lat="37.2043483" lon="14.9052933"><ele>233.5</ele><time>2026-04-25T08:01:48.925Z</time></trkpt><trkpt lat="37.2042917" lon="14.905405"><ele>232.25</ele><time>2026-04-25T08:01:49.926Z</time></trkpt><trkpt lat="37.204205" lon="14.905505"><ele>231.0</ele><time>2026-04-25T08:01:50.926Z</time></trkpt><trkpt lat="37.204095" lon="14.9055833"><ele>233.5</ele><time>2026-04-25T08:01:51.926Z</time></trkpt><trkpt lat="37.2039667" lon="14.9056433"><ele>236.0</ele><time>2026-04-25T08:01:52.926Z</time></trkpt><trkpt lat="37.2038417" lon="14.9057083"><ele>238.5</ele><time>2026-04-25T08:01:53.926Z</time></trkpt><trkpt lat="37.2037233" lon="14.90577"><ele>241.0</ele><time>2026-04-25T08:01:54.925Z</time></trkpt><trkpt lat="37.2036167" lon="14.9058333"><ele>241.0</ele><time>2026-04-25T08:01:55.925Z</time></trkpt><trkpt lat="37.203525" lon="14.9058883"><ele>241.00000000000003</ele><time>2026-04-25T08:01:56.926Z</time></trkpt><trkpt lat="37.2034733" lon="14.9059567"><ele>241.00000000000003</ele><time>2026-04-25T08:01:57.926Z</time></trkpt><trkpt lat="37.2034617" lon="14.9060867"><ele>241.0</ele><time>2026-04-25T08:01:59.925Z</time></trkpt><trkpt lat="37.2035667" lon="14.9061533"><ele>241.0</ele><time>2026-04-25T08:02:01.925Z</time></trkpt><trkpt lat="37.2036583" lon="14.9061367"><ele>241.60000000000002</ele><time>2026-04-25T08:02:02.925Z</time></trkpt><trkpt lat="37.2037733" lon="14.9061033"><ele>242.20000000000002</ele><time>2026-04-25T08:02:03.925Z</time></trkpt><trkpt lat="37.2038733" lon="14.906075"><ele>242.79999999999998</ele><time>2026-04-25T08:02:04.926Z</time></trkpt><trkpt lat="37.203965" lon="14.906055"><ele>243.39999999999998</ele><time>2026-04-25T08:02:05.926Z</time></trkpt><trkpt lat="37.204055" lon="14.90605"><ele>244.0</ele><time>2026-04-25T08:02:06.926Z</time></trkpt><trkpt lat="37.2041483" lon="14.9060517"><ele>244.0</ele><time>2026-04-25T08:02:07.926Z</time></trkpt><trkpt lat="37.2042417" lon="14.9060733"><ele>243.99999999999997</ele><time>2026-04-25T08:02:08.926Z</time></trkpt><trkpt lat="37.2043433" lon="14.9060917"><ele>243.99999999999997</ele><time>2026-04-25T08:02:09.925Z</time></trkpt><trkpt lat="37.2044433" lon="14.906115"><ele>244.0</ele><time>2026-04-25T08:02:10.926Z</time></trkpt><trkpt lat="37.20454" lon="14.906155"><ele>244.0</ele><time>2026-04-25T08:02:11.926Z</time></trkpt><trkpt lat="37.2046383" lon="14.906215"><ele>244.0</ele><time>2026-04-25T08:02:12.925Z</time></trkpt><trkpt lat="37.2047483" lon="14.90629"><ele>244.0</ele><time>2026-04-25T08:02:13.926Z</time></trkpt><trkpt lat="37.20487" lon="14.9063667"><ele>244.0</ele><time>2026-04-25T08:02:14.925Z</time></trkpt><trkpt lat="37.2049917" lon="14.9064467"><ele>244.0</ele><time>2026-04-25T08:02:15.924Z</time></trkpt><trkpt lat="37.2051083" lon="14.90653"><ele>245.0</ele><time>2026-04-25T08:02:16.924Z</time></trkpt><trkpt lat="37.2052067" lon="14.9066133"><ele>246.0</ele><time>2026-04-25T08:02:17.925Z</time></trkpt><trkpt lat="37.205335" lon="14.90667"><ele>247.0</ele><time>2026-04-25T08:02:18.925Z</time></trkpt><trkpt lat="37.2054583" lon="14.9067267"><ele>248.0</ele><time>2026-04-25T08:02:19.924Z</time></trkpt><trkpt lat="37.2055867" lon="14.906775"><ele>246.0</ele><time>2026-04-25T08:02:20.925Z</time></trkpt><trkpt lat="37.20571" lon="14.9068167"><ele>244.0</ele><time>2026-04-25T08:02:21.925Z</time></trkpt><trkpt lat="37.2058383" lon="14.906845"><ele>242.0</ele><time>2026-04-25T08:02:22.924Z</time></trkpt><trkpt lat="37.2059717" lon="14.9068683"><ele>240.0</ele><time>2026-04-25T08:02:23.924Z</time></trkpt><trkpt lat="37.2060883" lon="14.90689"><ele>240.0</ele><time>2026-04-25T08:02:24.925Z</time></trkpt><trkpt lat="37.2061967" lon="14.9068967"><ele>240.0</ele><time>2026-04-25T08:02:25.925Z</time></trkpt><trkpt lat="37.2063067" lon="14.9068717"><ele>240.0</ele><time>2026-04-25T08:02:26.925Z</time></trkpt><trkpt lat="37.206425" lon="14.9068317"><ele>240.0</ele><time>2026-04-25T08:02:27.924Z</time></trkpt><trkpt lat="37.2065417" lon="14.9067867"><ele>239.5</ele><time>2026-04-25T08:02:28.925Z</time></trkpt><trkpt lat="37.206665" lon="14.906745"><ele>239.0</ele><time>2026-04-25T08:02:29.925Z</time></trkpt><trkpt lat="37.2067983" lon="14.906705"><ele>238.5</ele><time>2026-04-25T08:02:30.925Z</time></trkpt><trkpt lat="37.2069367" lon="14.906675"><ele>238.0</ele><time>2026-04-25T08:02:31.925Z</time></trkpt><trkpt lat="37.207075" lon="14.90665"><ele>233.75</ele><time>2026-04-25T08:02:32.925Z</time></trkpt><trkpt lat="37.2072133" lon="14.9066217"><ele>229.5</ele><time>2026-04-25T08:02:33.925Z</time></trkpt><trkpt lat="37.207355" lon="14.9065967"><ele>225.25</ele><time>2026-04-25T08:02:34.925Z</time></trkpt><trkpt lat="37.2074933" lon="14.9065717"><ele>221.0</ele><time>2026-04-25T08:02:35.925Z</time></trkpt><trkpt lat="37.20764" lon="14.9065283"><ele>221.0</ele><time>2026-04-25T08:02:36.925Z</time></trkpt><trkpt lat="37.2077783" lon="14.9064817"><ele>221.0</ele><time>2026-04-25T08:02:37.925Z</time></trkpt><trkpt lat="37.2079167" lon="14.9064217"><ele>221.0</ele><time>2026-04-25T08:02:38.925Z</time></trkpt><trkpt lat="37.2080483" lon="14.90635"><ele>221.0</ele><time>2026-04-25T08:02:39.924Z</time></trkpt><trkpt lat="37.2083017" lon="14.90615"><ele>222.0</ele><time>2026-04-25T08:02:41.925Z</time></trkpt><trkpt lat="37.2084067" lon="14.9060517"><ele>223.0</ele><time>2026-04-25T08:02:42.925Z</time></trkpt><trkpt lat="37.2084967" lon="14.90594"><ele>224.0</ele><time>2026-04-25T08:02:43.925Z</time></trkpt><trkpt lat="37.2085783" lon="14.9058183"><ele>225.0</ele><time>2026-04-25T08:02:44.925Z</time></trkpt><trkpt lat="37.2086483" lon="14.905695"><ele>222.8</ele><time>2026-04-25T08:02:45.925Z</time></trkpt><trkpt lat="37.2087217" lon="14.9055817"><ele>220.6</ele><time>2026-04-25T08:02:46.925Z</time></trkpt><trkpt lat="37.2088033" lon="14.9055117"><ele>218.39999999999998</ele><time>2026-04-25T08:02:47.925Z</time></trkpt><trkpt lat="37.2089067" lon="14.9054717"><ele>216.2</ele><time>2026-04-25T08:02:48.925Z</time></trkpt><trkpt lat="37.2090167" lon="14.9054617"><ele>214.0</ele><time>2026-04-25T08:02:49.924Z</time></trkpt><trkpt lat="37.2091317" lon="14.9054767"><ele>214.0</ele><time>2026-04-25T08:02:50.925Z</time></trkpt><trkpt lat="37.209255" lon="14.9055083"><ele>214.0</ele><time>2026-04-25T08:02:51.925Z</time></trkpt><trkpt lat="37.209375" lon="14.9055683"><ele>214.0</ele><time>2026-04-25T08:02:52.925Z</time></trkpt><trkpt lat="37.209495" lon="14.9056383"><ele>214.0</ele><time>2026-04-25T08:02:53.924Z</time></trkpt><trkpt lat="37.2096" lon="14.9057133"><ele>214.0</ele><time>2026-04-25T08:02:54.924Z</time></trkpt><trkpt lat="37.2097217" lon="14.9057833"><ele>214.0</ele><time>2026-04-25T08:02:55.924Z</time></trkpt><trkpt lat="37.2098517" lon="14.9058333"><ele>214.0</ele><time>2026-04-25T08:02:56.925Z</time></trkpt><trkpt lat="37.2099933" lon="14.9058883"><ele>214.0</ele><time>2026-04-25T08:02:57.925Z</time></trkpt><trkpt lat="37.2101417" lon="14.9059267"><ele>216.75</ele><time>2026-04-25T08:02:58.925Z</time></trkpt><trkpt lat="37.2102883" lon="14.905955"><ele>219.5</ele><time>2026-04-25T08:02:59.925Z</time></trkpt><trkpt lat="37.2104267" lon="14.9059783"><ele>222.25</ele><time>2026-04-25T08:03:00.924Z</time></trkpt><trkpt lat="37.2105683" lon="14.9059983"><ele>225.0</ele><time>2026-04-25T08:03:01.925Z</time></trkpt><trkpt lat="37.2107083" lon="14.906005"><ele>225.0</ele><time>2026-04-25T08:03:02.924Z</time></trkpt><trkpt lat="37.2108517" lon="14.9059867"><ele>225.0</ele><time>2026-04-25T08:03:03.925Z</time></trkpt><trkpt lat="37.211" lon="14.9059483"><ele>225.0</ele><time>2026-04-25T08:03:04.925Z</time></trkpt><trkpt lat="37.2111467" lon="14.9059"><ele>225.0</ele><time>2026-04-25T08:03:05.925Z</time></trkpt><trkpt lat="37.21129" lon="14.9058567"><ele>219.75</ele><time>2026-04-25T08:03:06.924Z</time></trkpt><trkpt lat="37.2114133" lon="14.9058267"><ele>214.5</ele><time>2026-04-25T08:03:07.925Z</time></trkpt><trkpt lat="37.2115333" lon="14.905795"><ele>209.25</ele><time>2026-04-25T08:03:08.925Z</time></trkpt><trkpt lat="37.211645" lon="14.9057567"><ele>204.0</ele><time>2026-04-25T08:03:09.924Z</time></trkpt><trkpt lat="37.21174" lon="14.905675"><ele>204.0</ele><time>2026-04-25T08:03:10.925Z</time></trkpt><trkpt lat="37.2118317" lon="14.9055733"><ele>204.0</ele><time>2026-04-25T08:03:11.924Z</time></trkpt><trkpt lat="37.2119133" lon="14.905445"><ele>204.0</ele><time>2026-04-25T08:03:12.925Z</time></trkpt><trkpt lat="37.2119783" lon="14.9052967"><ele>204.0</ele><time>2026-04-25T08:03:13.925Z</time></trkpt><trkpt lat="37.21202" lon="14.9051317"><ele>199.0</ele><time>2026-04-25T08:03:14.925Z</time></trkpt><trkpt lat="37.2120567" lon="14.904975"><ele>194.0</ele><time>2026-04-25T08:03:15.925Z</time></trkpt><trkpt lat="37.2120883" lon="14.904815"><ele>189.0</ele><time>2026-04-25T08:03:16.925Z</time></trkpt><trkpt lat="37.2121233" lon="14.904675"><ele>184.0</ele><time>2026-04-25T08:03:17.925Z</time></trkpt><trkpt lat="37.2121683" lon="14.9045433"><ele>184.0</ele><time>2026-04-25T08:03:18.925Z</time></trkpt><trkpt lat="37.2122217" lon="14.9044383"><ele>184.0</ele><time>2026-04-25T08:03:19.924Z</time></trkpt><trkpt lat="37.212285" lon="14.9043683"><ele>184.0</ele><time>2026-04-25T08:03:20.925Z</time></trkpt><trkpt lat="37.2123633" lon="14.9043317"><ele>184.0</ele><time>2026-04-25T08:03:21.925Z</time></trkpt><trkpt lat="37.212455" lon="14.9043217"><ele>184.0</ele><time>2026-04-25T08:03:22.924Z</time></trkpt><trkpt lat="37.2125783" lon="14.9043317"><ele>184.0</ele><time>2026-04-25T08:03:23.925Z</time></trkpt><trkpt lat="37.212715" lon="14.90433"><ele>184.0</ele><time>2026-04-25T08:03:24.925Z</time></trkpt><trkpt lat="37.2128417" lon="14.9043067"><ele>184.0</ele><time>2026-04-25T08:03:25.924Z</time></trkpt><trkpt lat="37.2129533" lon="14.90427"><ele>184.0</ele><time>2026-04-25T08:03:26.925Z</time></trkpt><trkpt lat="37.2130633" lon="14.90423"><ele>184.0</ele><time>2026-04-25T08:03:27.925Z</time></trkpt><trkpt lat="37.213155" lon="14.9042167"><ele>184.0</ele><time>2026-04-25T08:03:28.925Z</time></trkpt><trkpt lat="37.213245" lon="14.9042417"><ele>184.0</ele><time>2026-04-25T08:03:29.925Z</time></trkpt><trkpt lat="37.21332" lon="14.904305"><ele>184.0</ele><time>2026-04-25T08:03:30.924Z</time></trkpt><trkpt lat="37.2133867" lon="14.904395"><ele>184.0</ele><time>2026-04-25T08:03:31.925Z</time></trkpt><trkpt lat="37.2134517" lon="14.9045067"><ele>188.25</ele><time>2026-04-25T08:03:32.925Z</time></trkpt><trkpt lat="37.21351" lon="14.9046333"><ele>192.5</ele><time>2026-04-25T08:03:33.924Z</time></trkpt><trkpt lat="37.21358" lon="14.9047733"><ele>196.75</ele><time>2026-04-25T08:03:34.925Z</time></trkpt><trkpt lat="37.213645" lon="14.9049117"><ele>201.0</ele><time>2026-04-25T08:03:35.925Z</time></trkpt><trkpt lat="37.213715" lon="14.9050483"><ele>198.75</ele><time>2026-04-25T08:03:36.925Z</time></trkpt><trkpt lat="37.2137883" lon="14.9051883"><ele>196.5</ele><time>2026-04-25T08:03:37.925Z</time></trkpt><trkpt lat="37.2138683" lon="14.9053117"><ele>194.25</ele><time>2026-04-25T08:03:38.924Z</time></trkpt><trkpt lat="37.213955" lon="14.9054317"><ele>192.0</ele><time>2026-04-25T08:03:39.925Z</time></trkpt><trkpt lat="37.214055" lon="14.9055433"><ele>192.0</ele><time>2026-04-25T08:03:40.925Z</time></trkpt><trkpt lat="37.2141567" lon="14.9056483"><ele>192.0</ele><time>2026-04-25T08:03:41.925Z</time></trkpt><trkpt lat="37.2142683" lon="14.9057533"><ele>192.0</ele><time>2026-04-25T08:03:42.924Z</time></trkpt><trkpt lat="37.2143833" lon="14.9058483"><ele>192.0</ele><time>2026-04-25T08:03:43.925Z</time></trkpt><trkpt lat="37.2144967" lon="14.9059333"><ele>192.8</ele><time>2026-04-25T08:03:44.924Z</time></trkpt><trkpt lat="37.2145933" lon="14.9060117"><ele>193.6</ele><time>2026-04-25T08:03:45.924Z</time></trkpt><trkpt lat="37.2146883" lon="14.9060883"><ele>194.4</ele><time>2026-04-25T08:03:46.925Z</time></trkpt><trkpt lat="37.2147817" lon="14.9061383"><ele>195.20000000000002</ele><time>2026-04-25T08:03:47.924Z</time></trkpt><trkpt lat="37.214875" lon="14.9061667"><ele>196.0</ele><time>2026-04-25T08:03:48.925Z</time></trkpt><trkpt lat="37.2149817" lon="14.90614"><ele>196.0</ele><time>2026-04-25T08:03:49.925Z</time></trkpt><trkpt lat="37.2150983" lon="14.90608"><ele>196.0</ele><time>2026-04-25T08:03:50.925Z</time></trkpt><trkpt lat="37.2152283" lon="14.9060333"><ele>196.0</ele><time>2026-04-25T08:03:51.924Z</time></trkpt><trkpt lat="37.2153483" lon="14.9060267"><ele>196.0</ele><time>2026-04-25T08:03:52.925Z</time></trkpt><trkpt lat="37.2154817" lon="14.90602"><ele>196.0</ele><time>2026-04-25T08:03:53.924Z</time></trkpt><trkpt lat="37.215605" lon="14.90603"><ele>196.0</ele><time>2026-04-25T08:03:54.924Z</time></trkpt><trkpt lat="37.215725" lon="14.9060517"><ele>196.0</ele><time>2026-04-25T08:03:55.925Z</time></trkpt><trkpt lat="37.2158333" lon="14.9060983"><ele>196.0</ele><time>2026-04-25T08:03:56.925Z</time></trkpt><trkpt lat="37.215925" lon="14.9061717"><ele>192.8</ele><time>2026-04-25T08:03:57.925Z</time></trkpt><trkpt lat="37.2159817" lon="14.9062817"><ele>189.60000000000002</ele><time>2026-04-25T08:03:58.924Z</time></trkpt><trkpt lat="37.2160517" lon="14.906395"><ele>186.4</ele><time>2026-04-25T08:03:59.925Z</time></trkpt><trkpt lat="37.2160933" lon="14.9065183"><ele>183.2</ele><time>2026-04-25T08:04:00.924Z</time></trkpt><trkpt lat="37.2161067" lon="14.9066633"><ele>180.0</ele><time>2026-04-25T08:04:01.925Z</time></trkpt><trkpt lat="37.2161083" lon="14.9068133"><ele>180.0</ele><time>2026-04-25T08:04:02.925Z</time></trkpt><trkpt lat="37.2160983" lon="14.90697"><ele>180.0</ele><time>2026-04-25T08:04:03.925Z</time></trkpt><trkpt lat="37.2160933" lon="14.907135"><ele>180.0</ele><time>2026-04-25T08:04:04.924Z</time></trkpt><trkpt lat="37.2160983" lon="14.9072867"><ele>180.0</ele><time>2026-04-25T08:04:05.925Z</time></trkpt><trkpt lat="37.216135" lon="14.90742"><ele>180.0</ele><time>2026-04-25T08:04:06.925Z</time></trkpt><trkpt lat="37.2162067" lon="14.90753"><ele>180.0</ele><time>2026-04-25T08:04:07.925Z</time></trkpt><trkpt lat="37.216305" lon="14.9076167"><ele>180.0</ele><time>2026-04-25T08:04:08.925Z</time></trkpt><trkpt lat="37.2164333" lon="14.90769"><ele>180.0</ele><time>2026-04-25T08:04:09.925Z</time></trkpt><trkpt lat="37.2165717" lon="14.9077683"><ele>177.25</ele><time>2026-04-25T08:04:10.925Z</time></trkpt><trkpt lat="37.2167117" lon="14.90785"><ele>174.5</ele><time>2026-04-25T08:04:11.925Z</time></trkpt><trkpt lat="37.21684" lon="14.9079483"><ele>171.75</ele><time>2026-04-25T08:04:12.925Z</time></trkpt><trkpt lat="37.2169617" lon="14.9080383"><ele>169.0</ele><time>2026-04-25T08:04:13.925Z</time></trkpt><trkpt lat="37.2170967" lon="14.9081167"><ele>169.0</ele><time>2026-04-25T08:04:14.925Z</time></trkpt><trkpt lat="37.2172383" lon="14.908175"><ele>169.0</ele><time>2026-04-25T08:04:15.924Z</time></trkpt><trkpt lat="37.2173717" lon="14.90822"><ele>169.0</ele><time>2026-04-25T08:04:16.925Z</time></trkpt><trkpt lat="37.21749" lon="14.90829"><ele>169.0</ele><time>2026-04-25T08:04:17.925Z</time></trkpt><trkpt lat="37.2175917" lon="14.9083817"><ele>168.0</ele><time>2026-04-25T08:04:18.925Z</time></trkpt><trkpt lat="37.217685" lon="14.9085167"><ele>167.0</ele><time>2026-04-25T08:04:19.924Z</time></trkpt><trkpt lat="37.2177633" lon="14.9086667"><ele>166.0</ele><time>2026-04-25T08:04:20.925Z</time></trkpt><trkpt lat="37.2178367" lon="14.9088317"><ele>165.0</ele><time>2026-04-25T08:04:21.925Z</time></trkpt><trkpt lat="37.2179017" lon="14.9089983"><ele>165.0</ele><time>2026-04-25T08:04:22.925Z</time></trkpt><trkpt lat="37.21797" lon="14.90917"><ele>165.0</ele><time>2026-04-25T08:04:23.925Z</time></trkpt><trkpt lat="37.2180567" lon="14.9093283"><ele>165.0</ele><time>2026-04-25T08:04:24.925Z</time></trkpt><trkpt lat="37.2181567" lon="14.9094733"><ele>162.5</ele><time>2026-04-25T08:04:25.925Z</time></trkpt><trkpt lat="37.2182633" lon="14.9096067"><ele>160.0</ele><time>2026-04-25T08:04:26.924Z</time></trkpt><trkpt lat="37.2183667" lon="14.9097233"><ele>157.5</ele><time>2026-04-25T08:04:27.925Z</time></trkpt><trkpt lat="37.2184717" lon="14.9098383"><ele>155.0</ele><time>2026-04-25T08:04:28.924Z</time></trkpt><trkpt lat="37.2185583" lon="14.9099583"><ele>155.75</ele><time>2026-04-25T08:04:29.925Z</time></trkpt><trkpt lat="37.2186367" lon="14.9100833"><ele>156.5</ele><time>2026-04-25T08:04:30.925Z</time></trkpt><trkpt lat="37.21869" lon="14.9102217"><ele>157.25</ele><time>2026-04-25T08:04:31.925Z</time></trkpt><trkpt lat="37.2187433" lon="14.9103717"><ele>158.0</ele><time>2026-04-25T08:04:32.925Z</time></trkpt><trkpt lat="37.2188033" lon="14.91052"><ele>158.0</ele><time>2026-04-25T08:04:33.924Z</time></trkpt><trkpt lat="37.218865" lon="14.9106783"><ele>158.0</ele><time>2026-04-25T08:04:34.925Z</time></trkpt><trkpt lat="37.2189117" lon="14.9108333"><ele>158.0</ele><time>2026-04-25T08:04:35.925Z</time></trkpt><trkpt lat="37.2189467" lon="14.9110017"><ele>158.0</ele><time>2026-04-25T08:04:36.925Z</time></trkpt><trkpt lat="37.2189667" lon="14.9111767"><ele>154.0</ele><time>2026-04-25T08:04:37.924Z</time></trkpt><trkpt lat="37.21899" lon="14.9113583"><ele>150.0</ele><time>2026-04-25T08:04:38.925Z</time></trkpt><trkpt lat="37.2190183" lon="14.911545"><ele>146.0</ele><time>2026-04-25T08:04:39.925Z</time></trkpt><trkpt lat="37.2190367" lon="14.9117267"><ele>142.0</ele><time>2026-04-25T08:04:40.925Z</time></trkpt><trkpt lat="37.2190617" lon="14.9119083"><ele>141.75</ele><time>2026-04-25T08:04:41.925Z</time></trkpt><trkpt lat="37.2190817" lon="14.9120817"><ele>141.5</ele><time>2026-04-25T08:04:42.925Z</time></trkpt><trkpt lat="37.2190983" lon="14.9122567"><ele>141.25</ele><time>2026-04-25T08:04:43.924Z</time></trkpt><trkpt lat="37.21912" lon="14.912435"><ele>141.0</ele><time>2026-04-25T08:04:44.924Z</time></trkpt><trkpt lat="37.2191483" lon="14.9126033"><ele>142.25</ele><time>2026-04-25T08:04:45.925Z</time></trkpt><trkpt lat="37.219195" lon="14.9127617"><ele>143.5</ele><time>2026-04-25T08:04:46.924Z</time></trkpt><trkpt lat="37.2192583" lon="14.912915"><ele>144.75</ele><time>2026-04-25T08:04:47.924Z</time></trkpt><trkpt lat="37.2193383" lon="14.9130617"><ele>146.0</ele><time>2026-04-25T08:04:48.925Z</time></trkpt><trkpt lat="37.21944" lon="14.9132067"><ele>146.0</ele><time>2026-04-25T08:04:49.924Z</time></trkpt><trkpt lat="37.2195467" lon="14.9133483"><ele>146.0</ele><time>2026-04-25T08:04:50.925Z</time></trkpt><trkpt lat="37.2196517" lon="14.9134917"><ele>146.0</ele><time>2026-04-25T08:04:51.925Z</time></trkpt><trkpt lat="37.2197633" lon="14.9136317"><ele>143.5</ele><time>2026-04-25T08:04:52.924Z</time></trkpt><trkpt lat="37.2198717" lon="14.9137733"><ele>141.0</ele><time>2026-04-25T08:04:53.925Z</time></trkpt><trkpt lat="37.21998" lon="14.9139033"><ele>138.5</ele><time>2026-04-25T08:04:54.925Z</time></trkpt><trkpt lat="37.220075" lon="14.9140317"><ele>136.0</ele><time>2026-04-25T08:04:55.924Z</time></trkpt><trkpt lat="37.2201633" lon="14.914145"><ele>136.0</ele><time>2026-04-25T08:04:56.924Z</time></trkpt><trkpt lat="37.2202317" lon="14.91423"><ele>136.0</ele><time>2026-04-25T08:04:57.924Z</time></trkpt><trkpt lat="37.2202783" lon="14.9142933"><ele>136.0</ele><time>2026-04-25T08:04:58.924Z</time></trkpt><trkpt lat="37.2203317" lon="14.9143717"><ele>136.0</ele><time>2026-04-25T08:05:00.924Z</time></trkpt><trkpt lat="37.2203817" lon="14.9144433"><ele>136.0</ele><time>2026-04-25T08:05:02.924Z</time></trkpt><trkpt lat="37.2204267" lon="14.9145133"><ele>136.0</ele><time>2026-04-25T08:05:04.924Z</time></trkpt><trkpt lat="37.2204183" lon="14.9144033"><ele>136.5</ele><time>2026-04-25T08:05:10.924Z</time></trkpt><trkpt lat="37.2203717" lon="14.91435"><ele>137.0</ele><time>2026-04-25T08:05:11.924Z</time></trkpt><trkpt lat="37.22031" lon="14.914315"><ele>137.5</ele><time>2026-04-25T08:05:12.924Z</time></trkpt><trkpt lat="37.22021" lon="14.914365"><ele>138.0</ele><time>2026-04-25T08:05:14.924Z</time></trkpt><trkpt lat="37.2201817" lon="14.9144517"><ele>138.5</ele><time>2026-04-25T08:05:15.924Z</time></trkpt><trkpt lat="37.2201683" lon="14.9145683"><ele>139.0</ele><time>2026-04-25T08:05:16.924Z</time></trkpt><trkpt lat="37.2201633" lon="14.914685"><ele>139.0</ele><time>2026-04-25T08:05:17.925Z</time></trkpt><trkpt lat="37.2201683" lon="14.9147967"><ele>139.0</ele><time>2026-04-25T08:05:18.924Z</time></trkpt><trkpt lat="37.2201933" lon="14.9149067"><ele>139.0</ele><time>2026-04-25T08:05:19.924Z</time></trkpt><trkpt lat="37.2202367" lon="14.91504"><ele>139.0</ele><time>2026-04-25T08:05:20.924Z</time></trkpt><trkpt lat="37.2202917" lon="14.91518"><ele>139.0</ele><time>2026-04-25T08:05:21.925Z</time></trkpt><trkpt lat="37.220345" lon="14.9153283"><ele>140.75</ele><time>2026-04-25T08:05:22.924Z</time></trkpt><trkpt lat="37.2203967" lon="14.9154767"><ele>142.5</ele><time>2026-04-25T08:05:23.924Z</time></trkpt><trkpt lat="37.2204467" lon="14.9156217"><ele>144.25</ele><time>2026-04-25T08:05:24.925Z</time></trkpt><trkpt lat="37.220495" lon="14.9157733"><ele>146.0</ele><time>2026-04-25T08:05:25.925Z</time></trkpt><trkpt lat="37.220545" lon="14.915925"><ele>144.25</ele><time>2026-04-25T08:05:26.924Z</time></trkpt><trkpt lat="37.220595" lon="14.91608"><ele>142.5</ele><time>2026-04-25T08:05:27.925Z</time></trkpt><trkpt lat="37.2206433" lon="14.916235"><ele>140.75</ele><time>2026-04-25T08:05:28.924Z</time></trkpt><trkpt lat="37.2207017" lon="14.91639"><ele>139.0</ele><time>2026-04-25T08:05:29.924Z</time></trkpt><trkpt lat="37.2207483" lon="14.9165467"><ele>139.0</ele><time>2026-04-25T08:05:30.924Z</time></trkpt><trkpt lat="37.2207983" lon="14.9167033"><ele>139.0</ele><time>2026-04-25T08:05:31.925Z</time></trkpt><trkpt lat="37.2208433" lon="14.9168517"><ele>139.0</ele><time>2026-04-25T08:05:32.925Z</time></trkpt><trkpt lat="37.2208683" lon="14.9170067"><ele>139.0</ele><time>2026-04-25T08:05:33.924Z</time></trkpt><trkpt lat="37.2208833" lon="14.9171667"><ele>140.0</ele><time>2026-04-25T08:05:34.925Z</time></trkpt><trkpt lat="37.2208867" lon="14.9173367"><ele>141.0</ele><time>2026-04-25T08:05:35.925Z</time></trkpt><trkpt lat="37.22089" lon="14.9175083"><ele>142.0</ele><time>2026-04-25T08:05:36.925Z</time></trkpt><trkpt lat="37.2208917" lon="14.9176817"><ele>143.0</ele><time>2026-04-25T08:05:37.925Z</time></trkpt><trkpt lat="37.2208967" lon="14.9178517"><ele>143.75</ele><time>2026-04-25T08:05:38.925Z</time></trkpt><trkpt lat="37.2209017" lon="14.9180217"><ele>144.5</ele><time>2026-04-25T08:05:39.925Z</time></trkpt><trkpt lat="37.220915" lon="14.9181833"><ele>145.25</ele><time>2026-04-25T08:05:40.925Z</time></trkpt><trkpt lat="37.2209383" lon="14.9183417"><ele>146.0</ele><time>2026-04-25T08:05:41.924Z</time></trkpt><trkpt lat="37.220985" lon="14.9184967"><ele>148.0</ele><time>2026-04-25T08:05:42.925Z</time></trkpt><trkpt lat="37.22105" lon="14.9186433"><ele>150.0</ele><time>2026-04-25T08:05:43.925Z</time></trkpt><trkpt lat="37.2211083" lon="14.9188083"><ele>152.0</ele><time>2026-04-25T08:05:44.925Z</time></trkpt><trkpt lat="37.221185" lon="14.9189767"><ele>154.0</ele><time>2026-04-25T08:05:45.925Z</time></trkpt><trkpt lat="37.2212583" lon="14.919155"><ele>156.66666666666669</ele><time>2026-04-25T08:05:46.924Z</time></trkpt><trkpt lat="37.2213333" lon="14.9193367"><ele>159.33333333333334</ele><time>2026-04-25T08:05:47.925Z</time></trkpt><trkpt lat="37.2214033" lon="14.9195067"><ele>162.0</ele><time>2026-04-25T08:05:48.925Z</time></trkpt><trkpt lat="37.2214767" lon="14.9196833"><ele>159.66666666666666</ele><time>2026-04-25T08:05:49.924Z</time></trkpt><trkpt lat="37.221545" lon="14.9198583"><ele>157.33333333333331</ele><time>2026-04-25T08:05:50.925Z</time></trkpt><trkpt lat="37.2216267" lon="14.92004"><ele>155.0</ele><time>2026-04-25T08:05:51.924Z</time></trkpt><trkpt lat="37.2217167" lon="14.9202133"><ele>155.0</ele><time>2026-04-25T08:05:52.924Z</time></trkpt><trkpt lat="37.22181" lon="14.9203783"><ele>155.0</ele><time>2026-04-25T08:05:53.924Z</time></trkpt><trkpt lat="37.221895" lon="14.9205517"><ele>155.0</ele><time>2026-04-25T08:05:54.925Z</time></trkpt><trkpt lat="37.22198" lon="14.9207133"><ele>155.0</ele><time>2026-04-25T08:05:55.924Z</time></trkpt><trkpt lat="37.22206" lon="14.920865"><ele>155.0</ele><time>2026-04-25T08:05:56.925Z</time></trkpt><trkpt lat="37.2221283" lon="14.9210083"><ele>155.0</ele><time>2026-04-25T08:05:57.924Z</time></trkpt><trkpt lat="37.2221767" lon="14.9211433"><ele>155.0</ele><time>2026-04-25T08:05:58.925Z</time></trkpt><trkpt lat="37.2221983" lon="14.9212883"><ele>156.0</ele><time>2026-04-25T08:05:59.924Z</time></trkpt><trkpt lat="37.2222017" lon="14.9214383"><ele>157.0</ele><time>2026-04-25T08:06:00.924Z</time></trkpt><trkpt lat="37.2222" lon="14.9216083"><ele>158.0</ele><time>2026-04-25T08:06:01.925Z</time></trkpt><trkpt lat="37.222215" lon="14.921775"><ele>159.0</ele><time>2026-04-25T08:06:02.924Z</time></trkpt><trkpt lat="37.2222533" lon="14.921935"><ele>161.33333333333334</ele><time>2026-04-25T08:06:03.924Z</time></trkpt><trkpt lat="37.2223117" lon="14.922095"><ele>163.66666666666669</ele><time>2026-04-25T08:06:04.925Z</time></trkpt><trkpt lat="37.222385" lon="14.9222633"><ele>166.0</ele><time>2026-04-25T08:06:05.925Z</time></trkpt><trkpt lat="37.2224667" lon="14.922435"><ele>162.66666666666669</ele><time>2026-04-25T08:06:06.925Z</time></trkpt><trkpt lat="37.22255" lon="14.922605"><ele>159.33333333333334</ele><time>2026-04-25T08:06:07.925Z</time></trkpt><trkpt lat="37.22264" lon="14.9227717"><ele>156.0</ele><time>2026-04-25T08:06:08.924Z</time></trkpt><trkpt lat="37.2227267" lon="14.9229233"><ele>156.0</ele><time>2026-04-25T08:06:09.924Z</time></trkpt><trkpt lat="37.222805" lon="14.9230633"><ele>156.0</ele><time>2026-04-25T08:06:10.925Z</time></trkpt><trkpt lat="37.2228683" lon="14.923185"><ele>156.0</ele><time>2026-04-25T08:06:11.925Z</time></trkpt><trkpt lat="37.2229183" lon="14.9232817"><ele>156.0</ele><time>2026-04-25T08:06:12.925Z</time></trkpt><trkpt lat="37.222955" lon="14.9233583"><ele>156.0</ele><time>2026-04-25T08:06:13.925Z</time></trkpt><trkpt lat="37.2229883" lon="14.923445"><ele>154.4</ele><time>2026-04-25T08:06:15.925Z</time></trkpt><trkpt lat="37.2230633" lon="14.92355"><ele>152.8</ele><time>2026-04-25T08:06:17.925Z</time></trkpt><trkpt lat="37.2231183" lon="14.9236233"><ele>151.20000000000002</ele><time>2026-04-25T08:06:18.924Z</time></trkpt><trkpt lat="37.2231783" lon="14.9236967"><ele>149.6</ele><time>2026-04-25T08:06:19.925Z</time></trkpt><trkpt lat="37.2232467" lon="14.92377"><ele>148.0</ele><time>2026-04-25T08:06:20.924Z</time></trkpt><trkpt lat="37.2233267" lon="14.9238433"><ele>146.25</ele><time>2026-04-25T08:06:21.924Z</time></trkpt><trkpt lat="37.2234167" lon="14.9239183"><ele>144.5</ele><time>2026-04-25T08:06:22.925Z</time></trkpt><trkpt lat="37.223515" lon="14.9239933"><ele>142.75</ele><time>2026-04-25T08:06:23.924Z</time></trkpt><trkpt lat="37.2236183" lon="14.9240733"><ele>141.0</ele><time>2026-04-25T08:06:24.925Z</time></trkpt><trkpt lat="37.22372" lon="14.9241633"><ele>141.25</ele><time>2026-04-25T08:06:25.925Z</time></trkpt><trkpt lat="37.2238117" lon="14.92427"><ele>141.5</ele><time>2026-04-25T08:06:26.925Z</time></trkpt><trkpt lat="37.2239033" lon="14.9243967"><ele>141.75</ele><time>2026-04-25T08:06:27.924Z</time></trkpt><trkpt lat="37.2240117" lon="14.9245217"><ele>142.0</ele><time>2026-04-25T08:06:28.925Z</time></trkpt><trkpt lat="37.2241133" lon="14.9246417"><ele>142.5</ele><time>2026-04-25T08:06:29.925Z</time></trkpt><trkpt lat="37.2242083" lon="14.9247683"><ele>143.0</ele><time>2026-04-25T08:06:30.925Z</time></trkpt><trkpt lat="37.2243" lon="14.9248917"><ele>143.5</ele><time>2026-04-25T08:06:31.925Z</time></trkpt><trkpt lat="37.2243967" lon="14.925025"><ele>144.0</ele><time>2026-04-25T08:06:32.925Z</time></trkpt><trkpt lat="37.2244967" lon="14.9251517"><ele>144.0</ele><time>2026-04-25T08:06:33.925Z</time></trkpt><trkpt lat="37.2245967" lon="14.9252683"><ele>144.0</ele><time>2026-04-25T08:06:34.925Z</time></trkpt><trkpt lat="37.224705" lon="14.925385"><ele>144.0</ele><time>2026-04-25T08:06:35.925Z</time></trkpt><trkpt lat="37.2248183" lon="14.925495"><ele>144.0</ele><time>2026-04-25T08:06:36.925Z</time></trkpt><trkpt lat="37.22493" lon="14.9256017"><ele>144.0</ele><time>2026-04-25T08:06:37.924Z</time></trkpt><trkpt lat="37.2250383" lon="14.9257083"><ele>144.0</ele><time>2026-04-25T08:06:38.925Z</time></trkpt><trkpt lat="37.2251433" lon="14.9258217"><ele>144.0</ele><time>2026-04-25T08:06:39.925Z</time></trkpt><trkpt lat="37.2252433" lon="14.9259333"><ele>144.0</ele><time>2026-04-25T08:06:40.924Z</time></trkpt><trkpt lat="37.22534" lon="14.92605"><ele>144.0</ele><time>2026-04-25T08:06:41.924Z</time></trkpt><trkpt lat="37.2254333" lon="14.9261617"><ele>144.0</ele><time>2026-04-25T08:06:42.925Z</time></trkpt><trkpt lat="37.2255317" lon="14.9262717"><ele>144.0</ele><time>2026-04-25T08:06:43.925Z</time></trkpt><trkpt lat="37.225635" lon="14.9263717"><ele>144.0</ele><time>2026-04-25T08:06:44.924Z</time></trkpt><trkpt lat="37.225755" lon="14.92648"><ele>143.0</ele><time>2026-04-25T08:06:45.925Z</time></trkpt><trkpt lat="37.22586" lon="14.9265733"><ele>142.0</ele><time>2026-04-25T08:06:46.925Z</time></trkpt><trkpt lat="37.2259667" lon="14.9266617"><ele>141.0</ele><time>2026-04-25T08:06:47.925Z</time></trkpt><trkpt lat="37.2260667" lon="14.92674"><ele>140.0</ele><time>2026-04-25T08:06:48.924Z</time></trkpt><trkpt lat="37.22616" lon="14.926825"><ele>140.0</ele><time>2026-04-25T08:06:49.925Z</time></trkpt><trkpt lat="37.226265" lon="14.926915"><ele>140.0</ele><time>2026-04-25T08:06:50.924Z</time></trkpt><trkpt lat="37.2263817" lon="14.926985"><ele>140.0</ele><time>2026-04-25T08:06:51.924Z</time></trkpt><trkpt lat="37.22651" lon="14.9270433"><ele>140.0</ele><time>2026-04-25T08:06:52.924Z</time></trkpt><trkpt lat="37.2266317" lon="14.92709"><ele>139.5</ele><time>2026-04-25T08:06:53.925Z</time></trkpt><trkpt lat="37.2267517" lon="14.9271367"><ele>139.0</ele><time>2026-04-25T08:06:54.925Z</time></trkpt><trkpt lat="37.2268683" lon="14.9271867"><ele>138.5</ele><time>2026-04-25T08:06:55.925Z</time></trkpt><trkpt lat="37.2269917" lon="14.92724"><ele>138.0</ele><time>2026-04-25T08:06:56.925Z</time></trkpt><trkpt lat="37.2271133" lon="14.92729"><ele>138.0</ele><time>2026-04-25T08:06:57.925Z</time></trkpt><trkpt lat="37.2272267" lon="14.9273467"><ele>138.0</ele><time>2026-04-25T08:06:58.924Z</time></trkpt><trkpt lat="37.227345" lon="14.9274067"><ele>138.0</ele><time>2026-04-25T08:06:59.924Z</time></trkpt><trkpt lat="37.227465" lon="14.9274567"><ele>138.0</ele><time>2026-04-25T08:07:00.925Z</time></trkpt><trkpt lat="37.2275967" lon="14.927505"><ele>138.0</ele><time>2026-04-25T08:07:01.924Z</time></trkpt><trkpt lat="37.22773" lon="14.9275567"><ele>138.0</ele><time>2026-04-25T08:07:02.924Z</time></trkpt><trkpt lat="37.2278533" lon="14.92761"><ele>138.0</ele><time>2026-04-25T08:07:03.925Z</time></trkpt><trkpt lat="37.22797" lon="14.9276667"><ele>138.0</ele><time>2026-04-25T08:07:04.925Z</time></trkpt><trkpt lat="37.22809" lon="14.9277233"><ele>135.25</ele><time>2026-04-25T08:07:05.924Z</time></trkpt><trkpt lat="37.2281983" lon="14.9277967"><ele>132.5</ele><time>2026-04-25T08:07:06.925Z</time></trkpt><trkpt lat="37.228285" lon="14.9278883"><ele>129.75</ele><time>2026-04-25T08:07:07.925Z</time></trkpt><trkpt lat="37.22837" lon="14.9279917"><ele>127.0</ele><time>2026-04-25T08:07:08.925Z</time></trkpt><trkpt lat="37.2284467" lon="14.9281067"><ele>127.0</ele><time>2026-04-25T08:07:09.925Z</time></trkpt><trkpt lat="37.2285167" lon="14.9282283"><ele>127.0</ele><time>2026-04-25T08:07:10.924Z</time></trkpt><trkpt lat="37.22858" lon="14.9283617"><ele>127.0</ele><time>2026-04-25T08:07:11.924Z</time></trkpt><trkpt lat="37.228645" lon="14.9285033"><ele>127.0</ele><time>2026-04-25T08:07:12.925Z</time></trkpt><trkpt lat="37.2287117" lon="14.92864"><ele>127.0</ele><time>2026-04-25T08:07:13.924Z</time></trkpt><trkpt lat="37.2287717" lon="14.9287783"><ele>127.0</ele><time>2026-04-25T08:07:14.924Z</time></trkpt><trkpt lat="37.2288367" lon="14.9289267"><ele>127.0</ele><time>2026-04-25T08:07:15.925Z</time></trkpt><trkpt lat="37.2289033" lon="14.9290767"><ele>127.0</ele><time>2026-04-25T08:07:16.925Z</time></trkpt><trkpt lat="37.2289667" lon="14.9292283"><ele>124.5</ele><time>2026-04-25T08:07:17.925Z</time></trkpt><trkpt lat="37.2290417" lon="14.9293817"><ele>122.0</ele><time>2026-04-25T08:07:18.925Z</time></trkpt><trkpt lat="37.22913" lon="14.9295133"><ele>119.5</ele><time>2026-04-25T08:07:19.925Z</time></trkpt><trkpt lat="37.22922" lon="14.9296433"><ele>117.0</ele><time>2026-04-25T08:07:20.924Z</time></trkpt><trkpt lat="37.2293167" lon="14.9297767"><ele>117.0</ele><time>2026-04-25T08:07:21.924Z</time></trkpt><trkpt lat="37.2294133" lon="14.92991"><ele>117.0</ele><time>2026-04-25T08:07:22.924Z</time></trkpt><trkpt lat="37.22951" lon="14.9300433"><ele>117.0</ele><time>2026-04-25T08:07:23.924Z</time></trkpt><trkpt lat="37.2296133" lon="14.9301767"><ele>117.0</ele><time>2026-04-25T08:07:24.925Z</time></trkpt><trkpt lat="37.22972" lon="14.9303"><ele>116.5</ele><time>2026-04-25T08:07:25.925Z</time></trkpt><trkpt lat="37.2298367" lon="14.93042"><ele>116.0</ele><time>2026-04-25T08:07:26.924Z</time></trkpt><trkpt lat="37.2299367" lon="14.930525"><ele>115.5</ele><time>2026-04-25T08:07:27.925Z</time></trkpt><trkpt lat="37.2300417" lon="14.9306117"><ele>115.0</ele><time>2026-04-25T08:07:28.925Z</time></trkpt><trkpt lat="37.2301417" lon="14.9307183"><ele>115.0</ele><time>2026-04-25T08:07:29.925Z</time></trkpt><trkpt lat="37.2302267" lon="14.930835"><ele>115.0</ele><time>2026-04-25T08:07:30.924Z</time></trkpt><trkpt lat="37.230285" lon="14.93095"><ele>115.0</ele><time>2026-04-25T08:07:31.924Z</time></trkpt><trkpt lat="37.23032" lon="14.9310783"><ele>115.0</ele><time>2026-04-25T08:07:32.924Z</time></trkpt><trkpt lat="37.2303467" lon="14.9312117"><ele>114.75</ele><time>2026-04-25T08:07:33.925Z</time></trkpt><trkpt lat="37.2303683" lon="14.9313567"><ele>114.5</ele><time>2026-04-25T08:07:34.924Z</time></trkpt><trkpt lat="37.2303817" lon="14.931515"><ele>114.25</ele><time>2026-04-25T08:07:35.925Z</time></trkpt><trkpt lat="37.2303833" lon="14.9316767"><ele>114.0</ele><time>2026-04-25T08:07:36.925Z</time></trkpt><trkpt lat="37.23038" lon="14.931835"><ele>113.75</ele><time>2026-04-25T08:07:37.925Z</time></trkpt><trkpt lat="37.2303583" lon="14.9320083"><ele>113.5</ele><time>2026-04-25T08:07:38.925Z</time></trkpt><trkpt lat="37.2303367" lon="14.932175"><ele>113.25</ele><time>2026-04-25T08:07:39.924Z</time></trkpt><trkpt lat="37.230315" lon="14.9323517"><ele>113.0</ele><time>2026-04-25T08:07:40.924Z</time></trkpt><trkpt lat="37.2302883" lon="14.93253"><ele>113.25</ele><time>2026-04-25T08:07:41.925Z</time></trkpt><trkpt lat="37.230265" lon="14.9327017"><ele>113.5</ele><time>2026-04-25T08:07:42.924Z</time></trkpt><trkpt lat="37.2302417" lon="14.9328733"><ele>113.75</ele><time>2026-04-25T08:07:43.924Z</time></trkpt><trkpt lat="37.2302217" lon="14.9330617"><ele>114.0</ele><time>2026-04-25T08:07:44.924Z</time></trkpt><trkpt lat="37.2302033" lon="14.9332583"><ele>115.0</ele><time>2026-04-25T08:07:45.925Z</time></trkpt><trkpt lat="37.23018" lon="14.9334433"><ele>116.0</ele><time>2026-04-25T08:07:46.925Z</time></trkpt><trkpt lat="37.2301517" lon="14.9336317"><ele>117.0</ele><time>2026-04-25T08:07:47.924Z</time></trkpt><trkpt lat="37.23013" lon="14.9338217"><ele>117.0</ele><time>2026-04-25T08:07:48.924Z</time></trkpt><trkpt lat="37.2301117" lon="14.9340033"><ele>117.0</ele><time>2026-04-25T08:07:49.925Z</time></trkpt><trkpt lat="37.23009" lon="14.9341733"><ele>117.0</ele><time>2026-04-25T08:07:50.925Z</time></trkpt><trkpt lat="37.2300767" lon="14.9343317"><ele>117.0</ele><time>2026-04-25T08:07:51.925Z</time></trkpt><trkpt lat="37.230065" lon="14.9344833"><ele>119.0</ele><time>2026-04-25T08:07:52.925Z</time></trkpt><trkpt lat="37.2300767" lon="14.9346117"><ele>120.99999999999999</ele><time>2026-04-25T08:07:53.925Z</time></trkpt><trkpt lat="37.2301017" lon="14.934715"><ele>122.99999999999999</ele><time>2026-04-25T08:07:54.925Z</time></trkpt><trkpt lat="37.2301617" lon="14.9348033"><ele>125.0</ele><time>2026-04-25T08:07:55.925Z</time></trkpt><trkpt lat="37.2302517" lon="14.9348833"><ele>127.0</ele><time>2026-04-25T08:07:56.925Z</time></trkpt><trkpt lat="37.2303667" lon="14.9349483"><ele>127.0</ele><time>2026-04-25T08:07:57.924Z</time></trkpt><trkpt lat="37.23048" lon="14.9350283"><ele>127.0</ele><time>2026-04-25T08:07:58.925Z</time></trkpt><trkpt lat="37.2305917" lon="14.93511"><ele>127.0</ele><time>2026-04-25T08:07:59.924Z</time></trkpt><trkpt lat="37.2307017" lon="14.9351867"><ele>127.0</ele><time>2026-04-25T08:08:00.924Z</time></trkpt><trkpt lat="37.23081" lon="14.9352717"><ele>127.5</ele><time>2026-04-25T08:08:01.924Z</time></trkpt><trkpt lat="37.2309183" lon="14.9353633"><ele>128.0</ele><time>2026-04-25T08:08:02.924Z</time></trkpt><trkpt lat="37.23103" lon="14.935445"><ele>128.5</ele><time>2026-04-25T08:08:03.924Z</time></trkpt><trkpt lat="37.231145" lon="14.9355283"><ele>129.0</ele><time>2026-04-25T08:08:04.925Z</time></trkpt><trkpt lat="37.231265" lon="14.935605"><ele>129.0</ele><time>2026-04-25T08:08:05.925Z</time></trkpt><trkpt lat="37.2313833" lon="14.9356783"><ele>129.0</ele><time>2026-04-25T08:08:06.925Z</time></trkpt><trkpt lat="37.2314883" lon="14.9357533"><ele>129.0</ele><time>2026-04-25T08:08:07.925Z</time></trkpt><trkpt lat="37.2315917" lon="14.9358333"><ele>129.0</ele><time>2026-04-25T08:08:08.924Z</time></trkpt><trkpt lat="37.2316933" lon="14.93591"><ele>129.0</ele><time>2026-04-25T08:08:09.925Z</time></trkpt><trkpt lat="37.2317883" lon="14.9359883"><ele>129.0</ele><time>2026-04-25T08:08:10.924Z</time></trkpt><trkpt lat="37.2318767" lon="14.9360817"><ele>129.0</ele><time>2026-04-25T08:08:11.925Z</time></trkpt><trkpt lat="37.2319517" lon="14.936195"><ele>129.0</ele><time>2026-04-25T08:08:12.925Z</time></trkpt><trkpt lat="37.2320283" lon="14.9363167"><ele>129.0</ele><time>2026-04-25T08:08:13.924Z</time></trkpt><trkpt lat="37.2321" lon="14.93644"><ele>129.0</ele><time>2026-04-25T08:08:14.925Z</time></trkpt><trkpt lat="37.23218" lon="14.936575"><ele>129.0</ele><time>2026-04-25T08:08:15.924Z</time></trkpt><trkpt lat="37.2322567" lon="14.9367117"><ele>129.0</ele><time>2026-04-25T08:08:16.924Z</time></trkpt><trkpt lat="37.2323233" lon="14.936845"><ele>127.0</ele><time>2026-04-25T08:08:17.925Z</time></trkpt><trkpt lat="37.23239" lon="14.9369783"><ele>125.0</ele><time>2026-04-25T08:08:18.924Z</time></trkpt><trkpt lat="37.2324517" lon="14.9371017"><ele>123.0</ele><time>2026-04-25T08:08:19.924Z</time></trkpt><trkpt lat="37.2324933" lon="14.93723"><ele>121.0</ele><time>2026-04-25T08:08:20.925Z</time></trkpt><trkpt lat="37.2325117" lon="14.937355"><ele>121.0</ele><time>2026-04-25T08:08:21.925Z</time></trkpt><trkpt lat="37.23252" lon="14.9374883"><ele>121.0</ele><time>2026-04-25T08:08:22.925Z</time></trkpt><trkpt lat="37.2325283" lon="14.937625"><ele>121.0</ele><time>2026-04-25T08:08:23.924Z</time></trkpt><trkpt lat="37.2325467" lon="14.9377617"><ele>121.0</ele><time>2026-04-25T08:08:24.925Z</time></trkpt><trkpt lat="37.2325767" lon="14.937885"><ele>121.0</ele><time>2026-04-25T08:08:25.925Z</time></trkpt><trkpt lat="37.2326183" lon="14.9379917"><ele>121.16666666666667</ele><time>2026-04-25T08:08:26.925Z</time></trkpt><trkpt lat="37.232665" lon="14.93808"><ele>121.33333333333334</ele><time>2026-04-25T08:08:27.924Z</time></trkpt><trkpt lat="37.2327183" lon="14.9381417"><ele>121.5</ele><time>2026-04-25T08:08:28.925Z</time></trkpt><trkpt lat="37.23278" lon="14.938185"><ele>121.66666666666666</ele><time>2026-04-25T08:08:29.924Z</time></trkpt><trkpt lat="37.232845" lon="14.938215"><ele>121.83333333333333</ele><time>2026-04-25T08:08:30.925Z</time></trkpt><trkpt lat="37.2329167" lon="14.9382267"><ele>122.0</ele><time>2026-04-25T08:08:31.925Z</time></trkpt><trkpt lat="37.2330033" lon="14.93821"><ele>122.0</ele><time>2026-04-25T08:08:32.924Z</time></trkpt><trkpt lat="37.23309" lon="14.938165"><ele>121.99999999999999</ele><time>2026-04-25T08:08:33.925Z</time></trkpt><trkpt lat="37.233185" lon="14.93812"><ele>121.99999999999999</ele><time>2026-04-25T08:08:34.925Z</time></trkpt><trkpt lat="37.2332717" lon="14.9381"><ele>122.0</ele><time>2026-04-25T08:08:35.924Z</time></trkpt><trkpt lat="37.2333633" lon="14.9380933"><ele>122.0</ele><time>2026-04-25T08:08:36.924Z</time></trkpt><trkpt lat="37.2334583" lon="14.9381183"><ele>121.6</ele><time>2026-04-25T08:08:37.924Z</time></trkpt><trkpt lat="37.2335433" lon="14.93818"><ele>121.19999999999999</ele><time>2026-04-25T08:08:38.925Z</time></trkpt><trkpt lat="37.2336133" lon="14.9382583"><ele>120.8</ele><time>2026-04-25T08:08:39.925Z</time></trkpt><trkpt lat="37.2336767" lon="14.93836"><ele>120.4</ele><time>2026-04-25T08:08:40.925Z</time></trkpt><trkpt lat="37.2337367" lon="14.9384817"><ele>120.0</ele><time>2026-04-25T08:08:41.924Z</time></trkpt><trkpt lat="37.2337967" lon="14.9386233"><ele>118.66666666666666</ele><time>2026-04-25T08:08:42.924Z</time></trkpt><trkpt lat="37.2338683" lon="14.9387733"><ele>117.33333333333333</ele><time>2026-04-25T08:08:43.925Z</time></trkpt><trkpt lat="37.2339483" lon="14.9389433"><ele>116.0</ele><time>2026-04-25T08:08:44.924Z</time></trkpt><trkpt lat="37.2340267" lon="14.93911"><ele>120.33333333333333</ele><time>2026-04-25T08:08:45.924Z</time></trkpt><trkpt lat="37.234115" lon="14.93928"><ele>124.66666666666666</ele><time>2026-04-25T08:08:46.925Z</time></trkpt><trkpt lat="37.2342067" lon="14.9394467"><ele>129.0</ele><time>2026-04-25T08:08:47.925Z</time></trkpt><trkpt lat="37.234295" lon="14.939605"><ele>129.0</ele><time>2026-04-25T08:08:48.924Z</time></trkpt><trkpt lat="37.2343733" lon="14.9397633"><ele>129.0</ele><time>2026-04-25T08:08:49.925Z</time></trkpt><trkpt lat="37.23445" lon="14.9399117"><ele>129.0</ele><time>2026-04-25T08:08:50.924Z</time></trkpt><trkpt lat="37.2345283" lon="14.94004"><ele>129.0</ele><time>2026-04-25T08:08:51.925Z</time></trkpt><trkpt lat="37.2346083" lon="14.9401517"><ele>127.5</ele><time>2026-04-25T08:08:52.924Z</time></trkpt><trkpt lat="37.23472" lon="14.9402433"><ele>126.0</ele><time>2026-04-25T08:08:53.924Z</time></trkpt><trkpt lat="37.234835" lon="14.9403267"><ele>124.5</ele><time>2026-04-25T08:08:54.925Z</time></trkpt><trkpt lat="37.2349617" lon="14.9404033"><ele>123.0</ele><time>2026-04-25T08:08:55.924Z</time></trkpt><trkpt lat="37.2350767" lon="14.9404883"><ele>123.0</ele><time>2026-04-25T08:08:56.924Z</time></trkpt><trkpt lat="37.2351917" lon="14.94057"><ele>123.0</ele><time>2026-04-25T08:08:57.925Z</time></trkpt><trkpt lat="37.235295" lon="14.9406567"><ele>123.0</ele><time>2026-04-25T08:08:58.925Z</time></trkpt><trkpt lat="37.2354017" lon="14.940765"><ele>123.0</ele><time>2026-04-25T08:08:59.925Z</time></trkpt><trkpt lat="37.235505" lon="14.9409017"><ele>121.66666666666666</ele><time>2026-04-25T08:09:00.925Z</time></trkpt><trkpt lat="37.23561" lon="14.9410467"><ele>120.33333333333333</ele><time>2026-04-25T08:09:01.924Z</time></trkpt><trkpt lat="37.2357117" lon="14.94119"><ele>119.0</ele><time>2026-04-25T08:09:02.925Z</time></trkpt><trkpt lat="37.23582" lon="14.9413367"><ele>119.0</ele><time>2026-04-25T08:09:03.925Z</time></trkpt><trkpt lat="37.2359233" lon="14.9414883"><ele>119.0</ele><time>2026-04-25T08:09:04.925Z</time></trkpt><trkpt lat="37.2360217" lon="14.94164"><ele>119.0</ele><time>2026-04-25T08:09:05.925Z</time></trkpt><trkpt lat="37.2361283" lon="14.941785"><ele>118.5</ele><time>2026-04-25T08:09:06.924Z</time></trkpt><trkpt lat="37.2362333" lon="14.941925"><ele>118.0</ele><time>2026-04-25T08:09:07.925Z</time></trkpt><trkpt lat="37.2363433" lon="14.942045"><ele>117.5</ele><time>2026-04-25T08:09:08.924Z</time></trkpt><trkpt lat="37.2364633" lon="14.94215"><ele>117.0</ele><time>2026-04-25T08:09:09.925Z</time></trkpt><trkpt lat="37.2365817" lon="14.9422167"><ele>117.0</ele><time>2026-04-25T08:09:10.925Z</time></trkpt><trkpt lat="37.2367117" lon="14.9423017"><ele>117.0</ele><time>2026-04-25T08:09:11.924Z</time></trkpt><trkpt lat="37.236835" lon="14.9423733"><ele>117.0</ele><time>2026-04-25T08:09:12.925Z</time></trkpt><trkpt lat="37.23695" lon="14.9424433"><ele>117.0</ele><time>2026-04-25T08:09:13.925Z</time></trkpt><trkpt lat="37.2370617" lon="14.94252"><ele>116.75</ele><time>2026-04-25T08:09:14.925Z</time></trkpt><trkpt lat="37.2371633" lon="14.942615"><ele>116.5</ele><time>2026-04-25T08:09:15.925Z</time></trkpt><trkpt lat="37.237255" lon="14.9427317"><ele>116.25</ele><time>2026-04-25T08:09:16.924Z</time></trkpt><trkpt lat="37.2373383" lon="14.94286"><ele>116.0</ele><time>2026-04-25T08:09:17.925Z</time></trkpt><trkpt lat="37.237425" lon="14.942975"><ele>116.0</ele><time>2026-04-25T08:09:18.925Z</time></trkpt><trkpt lat="37.237525" lon="14.9430617"><ele>116.0</ele><time>2026-04-25T08:09:19.925Z</time></trkpt><trkpt lat="37.23764" lon="14.9431283"><ele>116.0</ele><time>2026-04-25T08:09:20.924Z</time></trkpt><trkpt lat="37.23776" lon="14.9431917"><ele>116.0</ele><time>2026-04-25T08:09:21.924Z</time></trkpt><trkpt lat="37.237895" lon="14.9432433"><ele>116.0</ele><time>2026-04-25T08:09:22.924Z</time></trkpt><trkpt lat="37.2380217" lon="14.9432717"><ele>116.0</ele><time>2026-04-25T08:09:23.925Z</time></trkpt><trkpt lat="37.2381567" lon="14.9432983"><ele>116.0</ele><time>2026-04-25T08:09:24.925Z</time></trkpt><trkpt lat="37.2382817" lon="14.9433233"><ele>116.0</ele><time>2026-04-25T08:09:25.925Z</time></trkpt><trkpt lat="37.2384083" lon="14.9433567"><ele>116.5</ele><time>2026-04-25T08:09:26.924Z</time></trkpt><trkpt lat="37.2385233" lon="14.94341"><ele>117.0</ele><time>2026-04-25T08:09:27.924Z</time></trkpt><trkpt lat="37.2386267" lon="14.9434817"><ele>117.5</ele><time>2026-04-25T08:09:28.925Z</time></trkpt><trkpt lat="37.2387267" lon="14.9435783"><ele>118.0</ele><time>2026-04-25T08:09:29.924Z</time></trkpt><trkpt lat="37.238825" lon="14.9436817"><ele>118.0</ele><time>2026-04-25T08:09:30.925Z</time></trkpt><trkpt lat="37.2389233" lon="14.9437933"><ele>118.0</ele><time>2026-04-25T08:09:31.924Z</time></trkpt><trkpt lat="37.2390233" lon="14.943915"><ele>118.0</ele><time>2026-04-25T08:09:32.924Z</time></trkpt><trkpt lat="37.2391167" lon="14.9440467"><ele>118.0</ele><time>2026-04-25T08:09:33.924Z</time></trkpt><trkpt lat="37.2392117" lon="14.94417"><ele>113.75</ele><time>2026-04-25T08:09:34.924Z</time></trkpt><trkpt lat="37.2393017" lon="14.944295"><ele>109.5</ele><time>2026-04-25T08:09:35.925Z</time></trkpt><trkpt lat="37.2393867" lon="14.9444333"><ele>105.25</ele><time>2026-04-25T08:09:36.925Z</time></trkpt><trkpt lat="37.2394417" lon="14.9445683"><ele>101.0</ele><time>2026-04-25T08:09:37.924Z</time></trkpt><trkpt lat="37.239485" lon="14.94472"><ele>101.0</ele><time>2026-04-25T08:09:38.924Z</time></trkpt><trkpt lat="37.23952" lon="14.94489"><ele>101.0</ele><time>2026-04-25T08:09:39.924Z</time></trkpt><trkpt lat="37.239565" lon="14.9450683"><ele>101.0</ele><time>2026-04-25T08:09:40.925Z</time></trkpt><trkpt lat="37.2396033" lon="14.94526"><ele>101.0</ele><time>2026-04-25T08:09:41.925Z</time></trkpt><trkpt lat="37.2396517" lon="14.945455"><ele>101.66666666666666</ele><time>2026-04-25T08:09:42.925Z</time></trkpt><trkpt lat="37.2397067" lon="14.945655"><ele>102.33333333333334</ele><time>2026-04-25T08:09:43.925Z</time></trkpt><trkpt lat="37.2397467" lon="14.9458567"><ele>103.0</ele><time>2026-04-25T08:09:44.925Z</time></trkpt><trkpt lat="37.2397983" lon="14.9460417"><ele>103.5</ele><time>2026-04-25T08:09:45.925Z</time></trkpt><trkpt lat="37.239845" lon="14.9462283"><ele>104.0</ele><time>2026-04-25T08:09:46.925Z</time></trkpt><trkpt lat="37.23989" lon="14.946395"><ele>104.5</ele><time>2026-04-25T08:09:47.925Z</time></trkpt><trkpt lat="37.239945" lon="14.9465433"><ele>105.0</ele><time>2026-04-25T08:09:48.925Z</time></trkpt><trkpt lat="37.2400133" lon="14.9466833"><ele>108.0</ele><time>2026-04-25T08:09:49.925Z</time></trkpt><trkpt lat="37.2400917" lon="14.9468"><ele>111.0</ele><time>2026-04-25T08:09:50.924Z</time></trkpt><trkpt lat="37.2401933" lon="14.9468917"><ele>114.0</ele><time>2026-04-25T08:09:51.924Z</time></trkpt><trkpt lat="37.2403083" lon="14.9469733"><ele>117.0</ele><time>2026-04-25T08:09:52.925Z</time></trkpt><trkpt lat="37.24044" lon="14.9470283"><ele>117.0</ele><time>2026-04-25T08:09:53.924Z</time></trkpt><trkpt lat="37.2405617" lon="14.94709"><ele>117.0</ele><time>2026-04-25T08:09:54.924Z</time></trkpt><trkpt lat="37.2406783" lon="14.9471767"><ele>117.0</ele><time>2026-04-25T08:09:55.925Z</time></trkpt><trkpt lat="37.2407683" lon="14.9472883"><ele>117.0</ele><time>2026-04-25T08:09:56.925Z</time></trkpt><trkpt lat="37.2408483" lon="14.947425"><ele>118.5</ele><time>2026-04-25T08:09:57.924Z</time></trkpt><trkpt lat="37.240925" lon="14.9475683"><ele>120.0</ele><time>2026-04-25T08:09:58.924Z</time></trkpt><trkpt lat="37.2410183" lon="14.94772"><ele>121.5</ele><time>2026-04-25T08:09:59.925Z</time></trkpt><trkpt lat="37.2411133" lon="14.947875"><ele>123.0</ele><time>2026-04-25T08:10:00.925Z</time></trkpt><trkpt lat="37.2412233" lon="14.9480167"><ele>123.0</ele><time>2026-04-25T08:10:01.925Z</time></trkpt><trkpt lat="37.2413417" lon="14.94816"><ele>123.0</ele><time>2026-04-25T08:10:02.925Z</time></trkpt><trkpt lat="37.2414633" lon="14.9483"><ele>123.0</ele><time>2026-04-25T08:10:03.925Z</time></trkpt><trkpt lat="37.24159" lon="14.9484417"><ele>123.66666666666666</ele><time>2026-04-25T08:10:04.925Z</time></trkpt><trkpt lat="37.2417117" lon="14.9485867"><ele>124.33333333333333</ele><time>2026-04-25T08:10:05.925Z</time></trkpt><trkpt lat="37.2418567" lon="14.9487217"><ele>125.0</ele><time>2026-04-25T08:10:06.925Z</time></trkpt><trkpt lat="37.2420033" lon="14.9488583"><ele>125.0</ele><time>2026-04-25T08:10:07.925Z</time></trkpt><trkpt lat="37.2421317" lon="14.9489983"><ele>125.0</ele><time>2026-04-25T08:10:08.924Z</time></trkpt><trkpt lat="37.2422817" lon="14.9491183"><ele>125.0</ele><time>2026-04-25T08:10:09.925Z</time></trkpt><trkpt lat="37.2424233" lon="14.949245"><ele>123.66666666666666</ele><time>2026-04-25T08:10:10.925Z</time></trkpt><trkpt lat="37.242555" lon="14.9493833"><ele>122.33333333333334</ele><time>2026-04-25T08:10:11.925Z</time></trkpt><trkpt lat="37.2426783" lon="14.9495233"><ele>121.0</ele><time>2026-04-25T08:10:12.925Z</time></trkpt><trkpt lat="37.2428017" lon="14.949665"><ele>121.0</ele><time>2026-04-25T08:10:13.925Z</time></trkpt><trkpt lat="37.24292" lon="14.9498183"><ele>121.0</ele><time>2026-04-25T08:10:14.924Z</time></trkpt><trkpt lat="37.2430433" lon="14.9499733"><ele>121.0</ele><time>2026-04-25T08:10:15.925Z</time></trkpt><trkpt lat="37.24317" lon="14.9501183"><ele>120.0</ele><time>2026-04-25T08:10:16.924Z</time></trkpt><trkpt lat="37.243305" lon="14.9502567"><ele>119.0</ele><time>2026-04-25T08:10:17.925Z</time></trkpt><trkpt lat="37.2434383" lon="14.9504033"><ele>118.0</ele><time>2026-04-25T08:10:18.924Z</time></trkpt><trkpt lat="37.2435717" lon="14.9505483"><ele>118.0</ele><time>2026-04-25T08:10:19.924Z</time></trkpt><trkpt lat="37.2436967" lon="14.9507017"><ele>118.0</ele><time>2026-04-25T08:10:20.925Z</time></trkpt><trkpt lat="37.24382" lon="14.9508633"><ele>118.0</ele><time>2026-04-25T08:10:21.924Z</time></trkpt><trkpt lat="37.2439383" lon="14.9510317"><ele>117.0</ele><time>2026-04-25T08:10:22.923Z</time></trkpt><trkpt lat="37.24406" lon="14.951195"><ele>116.0</ele><time>2026-04-25T08:10:23.924Z</time></trkpt><trkpt lat="37.24419" lon="14.9513533"><ele>115.0</ele><time>2026-04-25T08:10:24.924Z</time></trkpt><trkpt lat="37.2443167" lon="14.95151"><ele>115.0</ele><time>2026-04-25T08:10:25.923Z</time></trkpt><trkpt lat="37.244435" lon="14.9516633"><ele>115.0</ele><time>2026-04-25T08:10:26.923Z</time></trkpt><trkpt lat="37.2445617" lon="14.9518117"><ele>115.0</ele><time>2026-04-25T08:10:27.923Z</time></trkpt><trkpt lat="37.2446983" lon="14.951955"><ele>115.0</ele><time>2026-04-25T08:10:28.923Z</time></trkpt><trkpt lat="37.2448383" lon="14.9520983"><ele>115.0</ele><time>2026-04-25T08:10:29.923Z</time></trkpt><trkpt lat="37.2449833" lon="14.9522517"><ele>115.0</ele><time>2026-04-25T08:10:30.924Z</time></trkpt><trkpt lat="37.2451267" lon="14.95239"><ele>115.0</ele><time>2026-04-25T08:10:31.924Z</time></trkpt><trkpt lat="37.2452767" lon="14.9525267"><ele>115.0</ele><time>2026-04-25T08:10:32.924Z</time></trkpt><trkpt lat="37.2454233" lon="14.9526567"><ele>115.0</ele><time>2026-04-25T08:10:33.923Z</time></trkpt><trkpt lat="37.2455767" lon="14.9527783"><ele>115.0</ele><time>2026-04-25T08:10:34.923Z</time></trkpt><trkpt lat="37.2457367" lon="14.952885"><ele>115.0</ele><time>2026-04-25T08:10:35.924Z</time></trkpt><trkpt lat="37.245905" lon="14.9529833"><ele>115.0</ele><time>2026-04-25T08:10:36.924Z</time></trkpt><trkpt lat="37.246085" lon="14.95308"><ele>115.0</ele><time>2026-04-25T08:10:37.923Z</time></trkpt><trkpt lat="37.24626" lon="14.9531683"><ele>115.0</ele><time>2026-04-25T08:10:38.923Z</time></trkpt><trkpt lat="37.2464383" lon="14.9532533"><ele>115.0</ele><time>2026-04-25T08:10:39.923Z</time></trkpt><trkpt lat="37.2466117" lon="14.9533333"><ele>116.0</ele><time>2026-04-25T08:10:40.924Z</time></trkpt><trkpt lat="37.246785" lon="14.9534217"><ele>117.0</ele><time>2026-04-25T08:10:41.923Z</time></trkpt><trkpt lat="37.2469583" lon="14.9535083"><ele>118.0</ele><time>2026-04-25T08:10:42.924Z</time></trkpt><trkpt lat="37.2471317" lon="14.953605"><ele>118.0</ele><time>2026-04-25T08:10:43.924Z</time></trkpt><trkpt lat="37.2472917" lon="14.953695"><ele>118.0</ele><time>2026-04-25T08:10:44.924Z</time></trkpt><trkpt lat="37.24746" lon="14.9537667"><ele>118.0</ele><time>2026-04-25T08:10:45.924Z</time></trkpt><trkpt lat="37.24762" lon="14.9538317"><ele>116.0</ele><time>2026-04-25T08:10:46.923Z</time></trkpt><trkpt lat="37.2477917" lon="14.95389"><ele>114.0</ele><time>2026-04-25T08:10:47.924Z</time></trkpt><trkpt lat="37.2479533" lon="14.9539433"><ele>112.0</ele><time>2026-04-25T08:10:48.923Z</time></trkpt><trkpt lat="37.2481117" lon="14.9539867"><ele>110.33333333333334</ele><time>2026-04-25T08:10:49.924Z</time></trkpt><trkpt lat="37.24827" lon="14.95402"><ele>108.66666666666666</ele><time>2026-04-25T08:10:50.923Z</time></trkpt><trkpt lat="37.2484283" lon="14.9540517"><ele>107.0</ele><time>2026-04-25T08:10:51.923Z</time></trkpt><trkpt lat="37.2486" lon="14.9540833"><ele>107.0</ele><time>2026-04-25T08:10:52.924Z</time></trkpt><trkpt lat="37.24876" lon="14.9541083"><ele>107.0</ele><time>2026-04-25T08:10:53.924Z</time></trkpt><trkpt lat="37.2489133" lon="14.9541317"><ele>107.0</ele><time>2026-04-25T08:10:54.924Z</time></trkpt><trkpt lat="37.2490633" lon="14.954155"><ele>107.0</ele><time>2026-04-25T08:10:55.924Z</time></trkpt><trkpt lat="37.2492033" lon="14.95418"><ele>107.0</ele><time>2026-04-25T08:10:56.924Z</time></trkpt><trkpt lat="37.2493367" lon="14.9542167"><ele>107.0</ele><time>2026-04-25T08:10:57.924Z</time></trkpt><trkpt lat="37.2494483" lon="14.95427"><ele>107.0</ele><time>2026-04-25T08:10:58.924Z</time></trkpt><trkpt lat="37.2495433" lon="14.954355"><ele>107.25</ele><time>2026-04-25T08:10:59.924Z</time></trkpt><trkpt lat="37.2496367" lon="14.95445"><ele>107.5</ele><time>2026-04-25T08:11:00.923Z</time></trkpt><trkpt lat="37.249725" lon="14.95455"><ele>107.75</ele><time>2026-04-25T08:11:01.924Z</time></trkpt><trkpt lat="37.2498117" lon="14.9546567"><ele>108.0</ele><time>2026-04-25T08:11:02.924Z</time></trkpt><trkpt lat="37.24989" lon="14.954785"><ele>108.0</ele><time>2026-04-25T08:11:03.923Z</time></trkpt><trkpt lat="37.2499633" lon="14.9549183"><ele>108.0</ele><time>2026-04-25T08:11:04.924Z</time></trkpt><trkpt lat="37.2500333" lon="14.955065"><ele>108.0</ele><time>2026-04-25T08:11:05.923Z</time></trkpt><trkpt lat="37.2500967" lon="14.9552167"><ele>108.0</ele><time>2026-04-25T08:11:06.923Z</time></trkpt><trkpt lat="37.2501517" lon="14.95538"><ele>109.25</ele><time>2026-04-25T08:11:07.924Z</time></trkpt><trkpt lat="37.2502117" lon="14.9555367"><ele>110.5</ele><time>2026-04-25T08:11:08.923Z</time></trkpt><trkpt lat="37.2502733" lon="14.9556933"><ele>111.75</ele><time>2026-04-25T08:11:09.924Z</time></trkpt><trkpt lat="37.2503367" lon="14.95584"><ele>113.0</ele><time>2026-04-25T08:11:10.923Z</time></trkpt><trkpt lat="37.2504017" lon="14.9559867"><ele>113.25</ele><time>2026-04-25T08:11:11.923Z</time></trkpt><trkpt lat="37.2504683" lon="14.9561317"><ele>113.5</ele><time>2026-04-25T08:11:12.924Z</time></trkpt><trkpt lat="37.2505533" lon="14.9562767"><ele>113.75</ele><time>2026-04-25T08:11:13.923Z</time></trkpt><trkpt lat="37.25065" lon="14.956415"><ele>114.0</ele><time>2026-04-25T08:11:14.924Z</time></trkpt><trkpt lat="37.2507583" lon="14.95655"><ele>114.0</ele><time>2026-04-25T08:11:15.924Z</time></trkpt><trkpt lat="37.250875" lon="14.9566783"><ele>114.0</ele><time>2026-04-25T08:11:16.924Z</time></trkpt><trkpt lat="37.2509967" lon="14.9568133"><ele>114.0</ele><time>2026-04-25T08:11:17.923Z</time></trkpt><trkpt lat="37.2511133" lon="14.9569467"><ele>114.33333333333334</ele><time>2026-04-25T08:11:18.923Z</time></trkpt><trkpt lat="37.2512267" lon="14.95708"><ele>114.66666666666667</ele><time>2026-04-25T08:11:19.923Z</time></trkpt><trkpt lat="37.2513417" lon="14.9572133"><ele>115.0</ele><time>2026-04-25T08:11:20.924Z</time></trkpt><trkpt lat="37.25146" lon="14.95735"><ele>114.33333333333334</ele><time>2026-04-25T08:11:21.924Z</time></trkpt><trkpt lat="37.2515833" lon="14.9574867"><ele>113.66666666666666</ele><time>2026-04-25T08:11:22.924Z</time></trkpt><trkpt lat="37.2517083" lon="14.957625"><ele>113.0</ele><time>2026-04-25T08:11:23.924Z</time></trkpt><trkpt lat="37.2518267" lon="14.957765"><ele>112.66666666666666</ele><time>2026-04-25T08:11:24.924Z</time></trkpt><trkpt lat="37.2519467" lon="14.9579033"><ele>112.33333333333334</ele><time>2026-04-25T08:11:25.924Z</time></trkpt><trkpt lat="37.25207" lon="14.9580417"><ele>112.0</ele><time>2026-04-25T08:11:26.923Z</time></trkpt><trkpt lat="37.2521867" lon="14.9581783"><ele>112.33333333333334</ele><time>2026-04-25T08:11:27.924Z</time></trkpt><trkpt lat="37.25231" lon="14.9583133"><ele>112.66666666666666</ele><time>2026-04-25T08:11:28.924Z</time></trkpt><trkpt lat="37.2524283" lon="14.958445"><ele>113.0</ele><time>2026-04-25T08:11:29.924Z</time></trkpt><trkpt lat="37.2525517" lon="14.9585783"><ele>113.0</ele><time>2026-04-25T08:11:30.924Z</time></trkpt><trkpt lat="37.2526633" lon="14.9587117"><ele>113.0</ele><time>2026-04-25T08:11:31.923Z</time></trkpt><trkpt lat="37.25278" lon="14.95884"><ele>113.0</ele><time>2026-04-25T08:11:32.923Z</time></trkpt><trkpt lat="37.2529017" lon="14.9589667"><ele>113.0</ele><time>2026-04-25T08:11:33.923Z</time></trkpt><trkpt lat="37.2530183" lon="14.9590967"><ele>113.0</ele><time>2026-04-25T08:11:34.923Z</time></trkpt><trkpt lat="37.2531333" lon="14.95923"><ele>113.0</ele><time>2026-04-25T08:11:35.924Z</time></trkpt><trkpt lat="37.2532567" lon="14.95936"><ele>111.66666666666666</ele><time>2026-04-25T08:11:36.923Z</time></trkpt><trkpt lat="37.2533767" lon="14.9594883"><ele>110.33333333333334</ele><time>2026-04-25T08:11:37.923Z</time></trkpt><trkpt lat="37.2534867" lon="14.9596183"><ele>109.0</ele><time>2026-04-25T08:11:38.924Z</time></trkpt><trkpt lat="37.2535933" lon="14.9597533"><ele>109.0</ele><time>2026-04-25T08:11:39.924Z</time></trkpt><trkpt lat="37.2537017" lon="14.9598867"><ele>109.0</ele><time>2026-04-25T08:11:40.923Z</time></trkpt><trkpt lat="37.2538117" lon="14.96002"><ele>109.0</ele><time>2026-04-25T08:11:41.924Z</time></trkpt><trkpt lat="37.2539233" lon="14.9601517"><ele>109.25</ele><time>2026-04-25T08:11:42.924Z</time></trkpt><trkpt lat="37.2540333" lon="14.96028"><ele>109.5</ele><time>2026-04-25T08:11:43.924Z</time></trkpt><trkpt lat="37.2541367" lon="14.96041"><ele>109.75</ele><time>2026-04-25T08:11:44.923Z</time></trkpt><trkpt lat="37.2542333" lon="14.960535"><ele>110.0</ele><time>2026-04-25T08:11:45.923Z</time></trkpt><trkpt lat="37.25433" lon="14.9606567"><ele>110.0</ele><time>2026-04-25T08:11:46.924Z</time></trkpt><trkpt lat="37.2544233" lon="14.9607883"><ele>110.0</ele><time>2026-04-25T08:11:47.924Z</time></trkpt><trkpt lat="37.2545133" lon="14.9609283"><ele>110.0</ele><time>2026-04-25T08:11:48.923Z</time></trkpt><trkpt lat="37.2546017" lon="14.96107"><ele>110.0</ele><time>2026-04-25T08:11:49.924Z</time></trkpt><trkpt lat="37.25469" lon="14.9612167"><ele>110.66666666666666</ele><time>2026-04-25T08:11:50.924Z</time></trkpt><trkpt lat="37.2547783" lon="14.9613633"><ele>111.33333333333334</ele><time>2026-04-25T08:11:51.924Z</time></trkpt><trkpt lat="37.2548683" lon="14.9615183"><ele>112.0</ele><time>2026-04-25T08:11:52.923Z</time></trkpt><trkpt lat="37.2549583" lon="14.9616717"><ele>112.25</ele><time>2026-04-25T08:11:53.924Z</time></trkpt><trkpt lat="37.2550433" lon="14.96182"><ele>112.5</ele><time>2026-04-25T08:11:54.923Z</time></trkpt><trkpt lat="37.2551317" lon="14.9619567"><ele>112.75</ele><time>2026-04-25T08:11:55.924Z</time></trkpt><trkpt lat="37.2552117" lon="14.9620883"><ele>113.0</ele><time>2026-04-25T08:11:56.923Z</time></trkpt><trkpt lat="37.2552933" lon="14.9622083"><ele>113.0</ele><time>2026-04-25T08:11:57.923Z</time></trkpt><trkpt lat="37.2553767" lon="14.9623217"><ele>113.0</ele><time>2026-04-25T08:11:58.924Z</time></trkpt><trkpt lat="37.2554533" lon="14.96243"><ele>113.0</ele><time>2026-04-25T08:11:59.924Z</time></trkpt><trkpt lat="37.2555267" lon="14.9625367"><ele>113.0</ele><time>2026-04-25T08:12:00.923Z</time></trkpt><trkpt lat="37.255605" lon="14.9626433"><ele>111.0</ele><time>2026-04-25T08:12:01.923Z</time></trkpt><trkpt lat="37.2556817" lon="14.9627417"><ele>109.00000000000001</ele><time>2026-04-25T08:12:02.924Z</time></trkpt><trkpt lat="37.2557533" lon="14.9628433"><ele>107.0</ele><time>2026-04-25T08:12:03.924Z</time></trkpt><trkpt lat="37.2558333" lon="14.962945"><ele>105.0</ele><time>2026-04-25T08:12:04.923Z</time></trkpt><trkpt lat="37.2559117" lon="14.9630483"><ele>103.0</ele><time>2026-04-25T08:12:05.924Z</time></trkpt><trkpt lat="37.255995" lon="14.963145"><ele>103.0</ele><time>2026-04-25T08:12:06.924Z</time></trkpt><trkpt lat="37.2560767" lon="14.9632417"><ele>103.0</ele><time>2026-04-25T08:12:07.924Z</time></trkpt><trkpt lat="37.2561467" lon="14.9633467"><ele>103.0</ele><time>2026-04-25T08:12:08.923Z</time></trkpt><trkpt lat="37.2562167" lon="14.9634633"><ele>103.0</ele><time>2026-04-25T08:12:09.923Z</time></trkpt><trkpt lat="37.2562783" lon="14.963575"><ele>103.0</ele><time>2026-04-25T08:12:10.923Z</time></trkpt><trkpt lat="37.2563417" lon="14.96369"><ele>102.0</ele><time>2026-04-25T08:12:11.923Z</time></trkpt><trkpt lat="37.2564" lon="14.9638133"><ele>101.0</ele><time>2026-04-25T08:12:12.923Z</time></trkpt><trkpt lat="37.25646" lon="14.963935"><ele>100.0</ele><time>2026-04-25T08:12:13.923Z</time></trkpt><trkpt lat="37.2565233" lon="14.9640583"><ele>99.0</ele><time>2026-04-25T08:12:14.924Z</time></trkpt><trkpt lat="37.256585" lon="14.9641733"><ele>97.5</ele><time>2026-04-25T08:12:15.923Z</time></trkpt><trkpt lat="37.256645" lon="14.9642917"><ele>96.0</ele><time>2026-04-25T08:12:16.924Z</time></trkpt><trkpt lat="37.2567117" lon="14.9644183"><ele>94.5</ele><time>2026-04-25T08:12:17.923Z</time></trkpt><trkpt lat="37.25677" lon="14.9645417"><ele>93.0</ele><time>2026-04-25T08:12:18.924Z</time></trkpt><trkpt lat="37.2568333" lon="14.9646683"><ele>93.0</ele><time>2026-04-25T08:12:19.923Z</time></trkpt><trkpt lat="37.256895" lon="14.9647983"><ele>93.0</ele><time>2026-04-25T08:12:20.924Z</time></trkpt><trkpt lat="37.25696" lon="14.96493"><ele>93.0</ele><time>2026-04-25T08:12:21.924Z</time></trkpt><trkpt lat="37.2570283" lon="14.9650633"><ele>93.0</ele><time>2026-04-25T08:12:22.924Z</time></trkpt><trkpt lat="37.257095" lon="14.9651933"><ele>93.5</ele><time>2026-04-25T08:12:23.923Z</time></trkpt><trkpt lat="37.2571617" lon="14.9653217"><ele>94.0</ele><time>2026-04-25T08:12:24.924Z</time></trkpt><trkpt lat="37.2572417" lon="14.965455"><ele>94.5</ele><time>2026-04-25T08:12:25.924Z</time></trkpt><trkpt lat="37.25733" lon="14.9655817"><ele>95.0</ele><time>2026-04-25T08:12:26.924Z</time></trkpt><trkpt lat="37.2574233" lon="14.9657067"><ele>93.5</ele><time>2026-04-25T08:12:27.924Z</time></trkpt><trkpt lat="37.2575283" lon="14.9658167"><ele>92.0</ele><time>2026-04-25T08:12:28.924Z</time></trkpt><trkpt lat="37.25764" lon="14.9659167"><ele>90.5</ele><time>2026-04-25T08:12:29.923Z</time></trkpt><trkpt lat="37.2577433" lon="14.966015"><ele>89.0</ele><time>2026-04-25T08:12:30.923Z</time></trkpt><trkpt lat="37.2578217" lon="14.9660967"><ele>89.0</ele><time>2026-04-25T08:12:31.923Z</time></trkpt><trkpt lat="37.2578733" lon="14.9661817"><ele>89.0</ele><time>2026-04-25T08:12:32.924Z</time></trkpt><trkpt lat="37.2579017" lon="14.966265"><ele>89.0</ele><time>2026-04-25T08:12:33.923Z</time></trkpt><trkpt lat="37.2579033" lon="14.9663567"><ele>89.0</ele><time>2026-04-25T08:12:34.923Z</time></trkpt><trkpt lat="37.2578883" lon="14.9664583"><ele>89.0</ele><time>2026-04-25T08:12:35.923Z</time></trkpt><trkpt lat="37.2578483" lon="14.966575"><ele>89.0</ele><time>2026-04-25T08:12:36.924Z</time></trkpt><trkpt lat="37.2577933" lon="14.9667017"><ele>89.0</ele><time>2026-04-25T08:12:37.923Z</time></trkpt><trkpt lat="37.257745" lon="14.966835"><ele>89.0</ele><time>2026-04-25T08:12:38.923Z</time></trkpt><trkpt lat="37.257695" lon="14.9669783"><ele>89.0</ele><time>2026-04-25T08:12:39.924Z</time></trkpt><trkpt lat="37.2576383" lon="14.9671233"><ele>89.0</ele><time>2026-04-25T08:12:40.924Z</time></trkpt><trkpt lat="37.2575883" lon="14.9672683"><ele>89.0</ele><time>2026-04-25T08:12:41.923Z</time></trkpt><trkpt lat="37.2575433" lon="14.9674067"><ele>89.0</ele><time>2026-04-25T08:12:42.923Z</time></trkpt><trkpt lat="37.2574933" lon="14.96754"><ele>89.0</ele><time>2026-04-25T08:12:43.924Z</time></trkpt><trkpt lat="37.25745" lon="14.9676733"><ele>89.0</ele><time>2026-04-25T08:12:44.924Z</time></trkpt><trkpt lat="37.2574317" lon="14.96781"><ele>89.25</ele><time>2026-04-25T08:12:45.923Z</time></trkpt><trkpt lat="37.25741" lon="14.9679567"><ele>89.5</ele><time>2026-04-25T08:12:46.924Z</time></trkpt><trkpt lat="37.2573967" lon="14.96812"><ele>89.75</ele><time>2026-04-25T08:12:47.924Z</time></trkpt><trkpt lat="37.2574183" lon="14.968275"><ele>90.0</ele><time>2026-04-25T08:12:48.924Z</time></trkpt><trkpt lat="37.2574333" lon="14.9684417"><ele>90.75</ele><time>2026-04-25T08:12:49.924Z</time></trkpt><trkpt lat="37.257445" lon="14.9686217"><ele>91.5</ele><time>2026-04-25T08:12:50.923Z</time></trkpt><trkpt lat="37.2574717" lon="14.968785"><ele>92.25</ele><time>2026-04-25T08:12:51.924Z</time></trkpt><trkpt lat="37.2575033" lon="14.9689533"><ele>93.0</ele><time>2026-04-25T08:12:52.923Z</time></trkpt><trkpt lat="37.2575567" lon="14.9691267"><ele>94.0</ele><time>2026-04-25T08:12:53.923Z</time></trkpt><trkpt lat="37.25762" lon="14.9692783"><ele>95.0</ele><time>2026-04-25T08:12:54.924Z</time></trkpt><trkpt lat="37.257695" lon="14.9694083"><ele>96.0</ele><time>2026-04-25T08:12:55.924Z</time></trkpt><trkpt lat="37.25778" lon="14.9695217"><ele>97.0</ele><time>2026-04-25T08:12:56.923Z</time></trkpt><trkpt lat="37.2578783" lon="14.969605"><ele>97.0</ele><time>2026-04-25T08:12:57.924Z</time></trkpt><trkpt lat="37.2580017" lon="14.969665"><ele>97.0</ele><time>2026-04-25T08:12:58.924Z</time></trkpt><trkpt lat="37.2581467" lon="14.9697167"><ele>97.0</ele><time>2026-04-25T08:12:59.923Z</time></trkpt><trkpt lat="37.2582883" lon="14.9697683"><ele>97.0</ele><time>2026-04-25T08:13:00.923Z</time></trkpt><trkpt lat="37.2584317" lon="14.9698217"><ele>95.33333333333334</ele><time>2026-04-25T08:13:01.924Z</time></trkpt><trkpt lat="37.2585717" lon="14.96988"><ele>93.66666666666667</ele><time>2026-04-25T08:13:02.924Z</time></trkpt><trkpt lat="37.2587267" lon="14.9699167"><ele>92.0</ele><time>2026-04-25T08:13:03.923Z</time></trkpt><trkpt lat="37.2588833" lon="14.9699483"><ele>92.0</ele><time>2026-04-25T08:13:04.924Z</time></trkpt><trkpt lat="37.2590317" lon="14.96998"><ele>92.0</ele><time>2026-04-25T08:13:05.923Z</time></trkpt><trkpt lat="37.2591717" lon="14.9700017"><ele>92.0</ele><time>2026-04-25T08:13:06.924Z</time></trkpt><trkpt lat="37.2593067" lon="14.9700183"><ele>92.0</ele><time>2026-04-25T08:13:07.924Z</time></trkpt><trkpt lat="37.25944" lon="14.9700333"><ele>92.25</ele><time>2026-04-25T08:13:08.924Z</time></trkpt><trkpt lat="37.25957" lon="14.9700483"><ele>92.5</ele><time>2026-04-25T08:13:09.924Z</time></trkpt><trkpt lat="37.2596983" lon="14.970075"><ele>92.75</ele><time>2026-04-25T08:13:10.923Z</time></trkpt><trkpt lat="37.25983" lon="14.9701133"><ele>93.0</ele><time>2026-04-25T08:13:11.924Z</time></trkpt><trkpt lat="37.2599733" lon="14.9701567"><ele>93.0</ele><time>2026-04-25T08:13:12.923Z</time></trkpt><trkpt lat="37.2601183" lon="14.9702033"><ele>93.0</ele><time>2026-04-25T08:13:13.924Z</time></trkpt><trkpt lat="37.2602683" lon="14.9702533"><ele>93.0</ele><time>2026-04-25T08:13:14.924Z</time></trkpt><trkpt lat="37.2604133" lon="14.9703083"><ele>93.0</ele><time>2026-04-25T08:13:15.924Z</time></trkpt><trkpt lat="37.2605633" lon="14.970355"><ele>93.0</ele><time>2026-04-25T08:13:16.924Z</time></trkpt><trkpt lat="37.2607233" lon="14.9704017"><ele>93.0</ele><time>2026-04-25T08:13:17.923Z</time></trkpt><trkpt lat="37.2608817" lon="14.9704583"><ele>91.66666666666667</ele><time>2026-04-25T08:13:18.924Z</time></trkpt><trkpt lat="37.2610467" lon="14.970505"><ele>90.33333333333334</ele><time>2026-04-25T08:13:19.924Z</time></trkpt><trkpt lat="37.2611917" lon="14.9705683"><ele>89.0</ele><time>2026-04-25T08:13:20.924Z</time></trkpt><trkpt lat="37.2613467" lon="14.9706217"><ele>88.33333333333334</ele><time>2026-04-25T08:13:21.924Z</time></trkpt><trkpt lat="37.2615017" lon="14.9706733"><ele>87.66666666666667</ele><time>2026-04-25T08:13:22.924Z</time></trkpt><trkpt lat="37.26166" lon="14.9707267"><ele>87.0</ele><time>2026-04-25T08:13:23.924Z</time></trkpt><trkpt lat="37.2618183" lon="14.9707783"><ele>87.0</ele><time>2026-04-25T08:13:24.924Z</time></trkpt><trkpt lat="37.261975" lon="14.9708367"><ele>87.0</ele><time>2026-04-25T08:13:25.923Z</time></trkpt><trkpt lat="37.2621167" lon="14.9708967"><ele>87.0</ele><time>2026-04-25T08:13:26.924Z</time></trkpt><trkpt lat="37.2622717" lon="14.97095"><ele>85.66666666666667</ele><time>2026-04-25T08:13:27.923Z</time></trkpt><trkpt lat="37.2624217" lon="14.97101"><ele>84.33333333333334</ele><time>2026-04-25T08:13:28.924Z</time></trkpt><trkpt lat="37.262565" lon="14.9710817"><ele>83.0</ele><time>2026-04-25T08:13:29.923Z</time></trkpt><trkpt lat="37.262695" lon="14.9711667"><ele>83.0</ele><time>2026-04-25T08:13:30.923Z</time></trkpt><trkpt lat="37.2628133" lon="14.971265"><ele>83.0</ele><time>2026-04-25T08:13:31.924Z</time></trkpt><trkpt lat="37.2629183" lon="14.971375"><ele>83.0</ele><time>2026-04-25T08:13:32.923Z</time></trkpt><trkpt lat="37.2630283" lon="14.9715"><ele>83.0</ele><time>2026-04-25T08:13:33.924Z</time></trkpt><trkpt lat="37.2631383" lon="14.9716267"><ele>82.75</ele><time>2026-04-25T08:13:34.923Z</time></trkpt><trkpt lat="37.2632433" lon="14.971765"><ele>82.5</ele><time>2026-04-25T08:13:35.923Z</time></trkpt><trkpt lat="37.263355" lon="14.9718867"><ele>82.25</ele><time>2026-04-25T08:13:36.924Z</time></trkpt><trkpt lat="37.263465" lon="14.97201"><ele>82.0</ele><time>2026-04-25T08:13:37.923Z</time></trkpt><trkpt lat="37.2635717" lon="14.9721233"><ele>82.0</ele><time>2026-04-25T08:13:38.924Z</time></trkpt><trkpt lat="37.2636767" lon="14.9722417"><ele>82.0</ele><time>2026-04-25T08:13:39.923Z</time></trkpt><trkpt lat="37.2637833" lon="14.9723617"><ele>82.0</ele><time>2026-04-25T08:13:40.924Z</time></trkpt><trkpt lat="37.2638833" lon="14.97249"><ele>82.0</ele><time>2026-04-25T08:13:41.924Z</time></trkpt><trkpt lat="37.2639867" lon="14.9726217"><ele>80.66666666666666</ele><time>2026-04-25T08:13:42.923Z</time></trkpt><trkpt lat="37.26409" lon="14.972755"><ele>79.33333333333333</ele><time>2026-04-25T08:13:43.924Z</time></trkpt><trkpt lat="37.2641983" lon="14.9728883"><ele>78.0</ele><time>2026-04-25T08:13:44.924Z</time></trkpt><trkpt lat="37.2643033" lon="14.9730233"><ele>78.0</ele><time>2026-04-25T08:13:45.923Z</time></trkpt><trkpt lat="37.264415" lon="14.9731417"><ele>78.0</ele><time>2026-04-25T08:13:46.924Z</time></trkpt><trkpt lat="37.2645333" lon="14.9732517"><ele>78.0</ele><time>2026-04-25T08:13:47.924Z</time></trkpt><trkpt lat="37.2646517" lon="14.9733517"><ele>78.0</ele><time>2026-04-25T08:13:48.924Z</time></trkpt><trkpt lat="37.2647783" lon="14.973445"><ele>75.5</ele><time>2026-04-25T08:13:49.923Z</time></trkpt><trkpt lat="37.2648883" lon="14.97355"><ele>73.0</ele><time>2026-04-25T08:13:50.924Z</time></trkpt><trkpt lat="37.2649917" lon="14.973675"><ele>70.5</ele><time>2026-04-25T08:13:51.924Z</time></trkpt><trkpt lat="37.265085" lon="14.9738183"><ele>68.0</ele><time>2026-04-25T08:13:52.923Z</time></trkpt><trkpt lat="37.26517" lon="14.9739683"><ele>68.0</ele><time>2026-04-25T08:13:53.924Z</time></trkpt><trkpt lat="37.2652483" lon="14.9741233"><ele>68.0</ele><time>2026-04-25T08:13:54.923Z</time></trkpt><trkpt lat="37.265335" lon="14.974285"><ele>68.0</ele><time>2026-04-25T08:13:55.924Z</time></trkpt><trkpt lat="37.26541" lon="14.97444"><ele>68.0</ele><time>2026-04-25T08:13:56.923Z</time></trkpt><trkpt lat="37.2654733" lon="14.9745883"><ele>68.0</ele><time>2026-04-25T08:13:57.924Z</time></trkpt><trkpt lat="37.2655367" lon="14.9747533"><ele>68.0</ele><time>2026-04-25T08:13:58.924Z</time></trkpt><trkpt lat="37.2655867" lon="14.97492"><ele>68.0</ele><time>2026-04-25T08:13:59.923Z</time></trkpt><trkpt lat="37.2656217" lon="14.97509"><ele>68.0</ele><time>2026-04-25T08:14:00.924Z</time></trkpt><trkpt lat="37.2656417" lon="14.975265"><ele>67.0</ele><time>2026-04-25T08:14:01.923Z</time></trkpt><trkpt lat="37.2656667" lon="14.97543"><ele>66.0</ele><time>2026-04-25T08:14:02.923Z</time></trkpt><trkpt lat="37.265695" lon="14.9756"><ele>65.0</ele><time>2026-04-25T08:14:03.923Z</time></trkpt><trkpt lat="37.265725" lon="14.9757717"><ele>64.0</ele><time>2026-04-25T08:14:04.924Z</time></trkpt><trkpt lat="37.2657617" lon="14.9759383"><ele>64.0</ele><time>2026-04-25T08:14:05.924Z</time></trkpt><trkpt lat="37.2658167" lon="14.9761017"><ele>64.0</ele><time>2026-04-25T08:14:06.923Z</time></trkpt><trkpt lat="37.2658883" lon="14.9762617"><ele>64.0</ele><time>2026-04-25T08:14:07.924Z</time></trkpt><trkpt lat="37.2659683" lon="14.9764083"><ele>64.0</ele><time>2026-04-25T08:14:08.924Z</time></trkpt><trkpt lat="37.26606" lon="14.97655"><ele>64.0</ele><time>2026-04-25T08:14:09.924Z</time></trkpt><trkpt lat="37.2661567" lon="14.9766933"><ele>64.0</ele><time>2026-04-25T08:14:10.923Z</time></trkpt><trkpt lat="37.266255" lon="14.97683"><ele>64.0</ele><time>2026-04-25T08:14:11.923Z</time></trkpt><trkpt lat="37.2663617" lon="14.9769617"><ele>64.0</ele><time>2026-04-25T08:14:12.923Z</time></trkpt><trkpt lat="37.2664683" lon="14.9770967"><ele>64.0</ele><time>2026-04-25T08:14:13.923Z</time></trkpt><trkpt lat="37.26656" lon="14.97724"><ele>64.0</ele><time>2026-04-25T08:14:14.923Z</time></trkpt><trkpt lat="37.2666467" lon="14.9773833"><ele>64.0</ele><time>2026-04-25T08:14:15.923Z</time></trkpt><trkpt lat="37.26673" lon="14.9775267"><ele>64.0</ele><time>2026-04-25T08:14:16.924Z</time></trkpt><trkpt lat="37.2667983" lon="14.9776667"><ele>65.0</ele><time>2026-04-25T08:14:17.924Z</time></trkpt><trkpt lat="37.2668667" lon="14.9778033"><ele>66.0</ele><time>2026-04-25T08:14:18.923Z</time></trkpt><trkpt lat="37.2669133" lon="14.9779417"><ele>67.0</ele><time>2026-04-25T08:14:19.923Z</time></trkpt><trkpt lat="37.2669533" lon="14.9780883"><ele>68.0</ele><time>2026-04-25T08:14:20.923Z</time></trkpt><trkpt lat="37.2669983" lon="14.978225"><ele>68.0</ele><time>2026-04-25T08:14:21.923Z</time></trkpt><trkpt lat="37.267065" lon="14.978345"><ele>68.0</ele><time>2026-04-25T08:14:22.923Z</time></trkpt><trkpt lat="37.267155" lon="14.9784333"><ele>68.0</ele><time>2026-04-25T08:14:23.923Z</time></trkpt><trkpt lat="37.2672667" lon="14.978505"><ele>68.0</ele><time>2026-04-25T08:14:24.923Z</time></trkpt><trkpt lat="37.2673917" lon="14.9785683"><ele>69.25</ele><time>2026-04-25T08:14:25.924Z</time></trkpt><trkpt lat="37.26753" lon="14.9786167"><ele>70.5</ele><time>2026-04-25T08:14:26.924Z</time></trkpt><trkpt lat="37.2676717" lon="14.9786583"><ele>71.75</ele><time>2026-04-25T08:14:27.923Z</time></trkpt><trkpt lat="37.2677967" lon="14.978705"><ele>73.0</ele><time>2026-04-25T08:14:28.924Z</time></trkpt><trkpt lat="37.2679283" lon="14.978745"><ele>73.0</ele><time>2026-04-25T08:14:29.923Z</time></trkpt><trkpt lat="37.2680667" lon="14.9787883"><ele>73.0</ele><time>2026-04-25T08:14:30.923Z</time></trkpt><trkpt lat="37.2682" lon="14.97884"><ele>73.0</ele><time>2026-04-25T08:14:31.923Z</time></trkpt><trkpt lat="37.268325" lon="14.9789067"><ele>73.0</ele><time>2026-04-25T08:14:32.923Z</time></trkpt><trkpt lat="37.2684433" lon="14.9789917"><ele>73.5</ele><time>2026-04-25T08:14:33.923Z</time></trkpt><trkpt lat="37.268565" lon="14.9790817"><ele>74.0</ele><time>2026-04-25T08:14:34.923Z</time></trkpt><trkpt lat="37.2686833" lon="14.9791833"><ele>74.5</ele><time>2026-04-25T08:14:35.924Z</time></trkpt><trkpt lat="37.2688033" lon="14.9793"><ele>75.0</ele><time>2026-04-25T08:14:36.923Z</time></trkpt><trkpt lat="37.2689183" lon="14.9794233"><ele>71.66666666666667</ele><time>2026-04-25T08:14:37.923Z</time></trkpt><trkpt lat="37.26904" lon="14.9795383"><ele>68.33333333333334</ele><time>2026-04-25T08:14:38.924Z</time></trkpt><trkpt lat="37.269165" lon="14.9796517"><ele>65.0</ele><time>2026-04-25T08:14:39.924Z</time></trkpt><trkpt lat="37.2692933" lon="14.97977"><ele>65.0</ele><time>2026-04-25T08:14:40.924Z</time></trkpt><trkpt lat="37.2694233" lon="14.979895"><ele>65.0</ele><time>2026-04-25T08:14:41.924Z</time></trkpt><trkpt lat="37.269555" lon="14.9800167"><ele>65.0</ele><time>2026-04-25T08:14:42.924Z</time></trkpt><trkpt lat="37.269695" lon="14.980135"><ele>64.33333333333334</ele><time>2026-04-25T08:14:43.923Z</time></trkpt><trkpt lat="37.26983" lon="14.9802533"><ele>63.66666666666667</ele><time>2026-04-25T08:14:44.924Z</time></trkpt><trkpt lat="37.269965" lon="14.9803717"><ele>63.0</ele><time>2026-04-25T08:14:45.923Z</time></trkpt><trkpt lat="37.2700983" lon="14.9804867"><ele>63.0</ele><time>2026-04-25T08:14:46.923Z</time></trkpt><trkpt lat="37.2702467" lon="14.9806033"><ele>63.0</ele><time>2026-04-25T08:14:47.924Z</time></trkpt><trkpt lat="37.27038" lon="14.98073"><ele>63.0</ele><time>2026-04-25T08:14:48.924Z</time></trkpt><trkpt lat="37.2705183" lon="14.9808533"><ele>62.66666666666667</ele><time>2026-04-25T08:14:49.924Z</time></trkpt><trkpt lat="37.2706583" lon="14.9809767"><ele>62.333333333333336</ele><time>2026-04-25T08:14:50.924Z</time></trkpt><trkpt lat="37.2707933" lon="14.9811017"><ele>62.0</ele><time>2026-04-25T08:14:51.924Z</time></trkpt><trkpt lat="37.2709267" lon="14.981225"><ele>62.0</ele><time>2026-04-25T08:14:52.923Z</time></trkpt><trkpt lat="37.2710517" lon="14.98135"><ele>62.0</ele><time>2026-04-25T08:14:53.924Z</time></trkpt><trkpt lat="37.2711817" lon="14.981475"><ele>62.0</ele><time>2026-04-25T08:14:54.923Z</time></trkpt><trkpt lat="37.271305" lon="14.9816167"><ele>63.333333333333336</ele><time>2026-04-25T08:14:55.923Z</time></trkpt><trkpt lat="37.2714217" lon="14.981755"><ele>64.66666666666667</ele><time>2026-04-25T08:14:56.923Z</time></trkpt><trkpt lat="37.27153" lon="14.9818967"><ele>66.0</ele><time>2026-04-25T08:14:57.924Z</time></trkpt><trkpt lat="37.27163" lon="14.9820183"><ele>64.2</ele><time>2026-04-25T08:14:58.924Z</time></trkpt><trkpt lat="37.27171" lon="14.982135"><ele>62.39999999999999</ele><time>2026-04-25T08:14:59.924Z</time></trkpt><trkpt lat="37.2717717" lon="14.9822517"><ele>60.6</ele><time>2026-04-25T08:15:00.924Z</time></trkpt><trkpt lat="37.2718267" lon="14.98236"><ele>58.8</ele><time>2026-04-25T08:15:01.924Z</time></trkpt><trkpt lat="37.271875" lon="14.98245"><ele>57.0</ele><time>2026-04-25T08:15:02.924Z</time></trkpt><trkpt lat="37.2719233" lon="14.982535"><ele>57.0</ele><time>2026-04-25T08:15:03.924Z</time></trkpt><trkpt lat="37.2719783" lon="14.9826133"><ele>57.0</ele><time>2026-04-25T08:15:04.924Z</time></trkpt><trkpt lat="37.2720533" lon="14.9826733"><ele>57.0</ele><time>2026-04-25T08:15:05.924Z</time></trkpt><trkpt lat="37.2721283" lon="14.9827267"><ele>57.0</ele><time>2026-04-25T08:15:06.923Z</time></trkpt><trkpt lat="37.27222" lon="14.9827667"><ele>57.0</ele><time>2026-04-25T08:15:07.924Z</time></trkpt><trkpt lat="37.2723283" lon="14.982785"><ele>57.0</ele><time>2026-04-25T08:15:08.923Z</time></trkpt><trkpt lat="37.2724417" lon="14.9828"><ele>57.0</ele><time>2026-04-25T08:15:09.924Z</time></trkpt><trkpt lat="37.272555" lon="14.9828267"><ele>57.0</ele><time>2026-04-25T08:15:10.924Z</time></trkpt><trkpt lat="37.2726783" lon="14.982855"><ele>57.0</ele><time>2026-04-25T08:15:11.924Z</time></trkpt><trkpt lat="37.272795" lon="14.98289"><ele>57.0</ele><time>2026-04-25T08:15:12.923Z</time></trkpt><trkpt lat="37.2729133" lon="14.9829283"><ele>57.0</ele><time>2026-04-25T08:15:13.924Z</time></trkpt><trkpt lat="37.2730333" lon="14.9829783"><ele>57.0</ele><time>2026-04-25T08:15:14.924Z</time></trkpt><trkpt lat="37.273155" lon="14.9830233"><ele>57.0</ele><time>2026-04-25T08:15:15.924Z</time></trkpt><trkpt lat="37.2732817" lon="14.9830683"><ele>56.75</ele><time>2026-04-25T08:15:16.923Z</time></trkpt><trkpt lat="37.27341" lon="14.983115"><ele>56.5</ele><time>2026-04-25T08:15:17.924Z</time></trkpt><trkpt lat="37.2735367" lon="14.983175"><ele>56.25</ele><time>2026-04-25T08:15:18.923Z</time></trkpt><trkpt lat="37.27365" lon="14.98325"><ele>56.0</ele><time>2026-04-25T08:15:19.923Z</time></trkpt><trkpt lat="37.273765" lon="14.9833233"><ele>56.75</ele><time>2026-04-25T08:15:20.923Z</time></trkpt><trkpt lat="37.2738917" lon="14.9834"><ele>57.5</ele><time>2026-04-25T08:15:21.923Z</time></trkpt><trkpt lat="37.2740167" lon="14.9834767"><ele>58.25</ele><time>2026-04-25T08:15:22.923Z</time></trkpt><trkpt lat="37.2741433" lon="14.98356"><ele>59.0</ele><time>2026-04-25T08:15:23.923Z</time></trkpt><trkpt lat="37.2742717" lon="14.9836367"><ele>59.0</ele><time>2026-04-25T08:15:24.924Z</time></trkpt><trkpt lat="37.274405" lon="14.9837033"><ele>59.0</ele><time>2026-04-25T08:15:25.923Z</time></trkpt><trkpt lat="37.2745267" lon="14.9837717"><ele>59.0</ele><time>2026-04-25T08:15:26.924Z</time></trkpt><trkpt lat="37.2746333" lon="14.9838417"><ele>59.0</ele><time>2026-04-25T08:15:27.924Z</time></trkpt><trkpt lat="37.2747517" lon="14.9839167"><ele>58.75</ele><time>2026-04-25T08:15:28.924Z</time></trkpt><trkpt lat="37.2748617" lon="14.9839983"><ele>58.5</ele><time>2026-04-25T08:15:29.924Z</time></trkpt><trkpt lat="37.2749667" lon="14.9840817"><ele>58.25</ele><time>2026-04-25T08:15:30.923Z</time></trkpt><trkpt lat="37.275075" lon="14.9841717"><ele>58.0</ele><time>2026-04-25T08:15:31.923Z</time></trkpt><trkpt lat="37.2751833" lon="14.9842733"><ele>59.0</ele><time>2026-04-25T08:15:32.924Z</time></trkpt><trkpt lat="37.27529" lon="14.98438"><ele>60.0</ele><time>2026-04-25T08:15:33.923Z</time></trkpt><trkpt lat="37.2753917" lon="14.984495"><ele>61.0</ele><time>2026-04-25T08:15:34.923Z</time></trkpt><trkpt lat="37.2754817" lon="14.9846183"><ele>62.0</ele><time>2026-04-25T08:15:35.924Z</time></trkpt><trkpt lat="37.275575" lon="14.9847467"><ele>62.5</ele><time>2026-04-25T08:15:36.924Z</time></trkpt><trkpt lat="37.2756583" lon="14.9848917"><ele>63.0</ele><time>2026-04-25T08:15:37.924Z</time></trkpt><trkpt lat="37.2757367" lon="14.9850483"><ele>63.5</ele><time>2026-04-25T08:15:38.924Z</time></trkpt><trkpt lat="37.2758133" lon="14.9852017"><ele>64.0</ele><time>2026-04-25T08:15:39.924Z</time></trkpt><trkpt lat="37.27589" lon="14.985355"><ele>64.0</ele><time>2026-04-25T08:15:40.924Z</time></trkpt><trkpt lat="37.2759683" lon="14.9855117"><ele>64.0</ele><time>2026-04-25T08:15:41.924Z</time></trkpt><trkpt lat="37.2760433" lon="14.9856667"><ele>64.0</ele><time>2026-04-25T08:15:42.924Z</time></trkpt><trkpt lat="37.2761183" lon="14.9858233"><ele>64.0</ele><time>2026-04-25T08:15:43.923Z</time></trkpt><trkpt lat="37.276195" lon="14.9859767"><ele>65.0</ele><time>2026-04-25T08:15:44.924Z</time></trkpt><trkpt lat="37.27627" lon="14.9861217"><ele>66.0</ele><time>2026-04-25T08:15:45.924Z</time></trkpt><trkpt lat="37.2763317" lon="14.9862567"><ele>67.0</ele><time>2026-04-25T08:15:46.924Z</time></trkpt><trkpt lat="37.2763817" lon="14.9863733"><ele>68.0</ele><time>2026-04-25T08:15:47.923Z</time></trkpt><trkpt lat="37.2764367" lon="14.986485"><ele>66.4</ele><time>2026-04-25T08:15:48.923Z</time></trkpt><trkpt lat="37.2765033" lon="14.9865933"><ele>64.8</ele><time>2026-04-25T08:15:49.924Z</time></trkpt><trkpt lat="37.27657" lon="14.986705"><ele>63.2</ele><time>2026-04-25T08:15:50.923Z</time></trkpt><trkpt lat="37.2766367" lon="14.9868167"><ele>61.6</ele><time>2026-04-25T08:15:51.924Z</time></trkpt><trkpt lat="37.2766983" lon="14.9869333"><ele>60.0</ele><time>2026-04-25T08:15:52.923Z</time></trkpt><trkpt lat="37.2767617" lon="14.9870517"><ele>60.0</ele><time>2026-04-25T08:15:53.923Z</time></trkpt><trkpt lat="37.2768183" lon="14.9871683"><ele>60.0</ele><time>2026-04-25T08:15:54.924Z</time></trkpt><trkpt lat="37.2768583" lon="14.9872933"><ele>60.0</ele><time>2026-04-25T08:15:55.923Z</time></trkpt><trkpt lat="37.2769117" lon="14.9874233"><ele>60.0</ele><time>2026-04-25T08:15:56.923Z</time></trkpt><trkpt lat="37.2769467" lon="14.987555"><ele>60.0</ele><time>2026-04-25T08:15:57.924Z</time></trkpt><trkpt lat="37.276995" lon="14.9876883"><ele>60.25</ele><time>2026-04-25T08:15:58.923Z</time></trkpt><trkpt lat="37.2770483" lon="14.9878183"><ele>60.5</ele><time>2026-04-25T08:15:59.924Z</time></trkpt><trkpt lat="37.27711" lon="14.987965"><ele>60.75</ele><time>2026-04-25T08:16:00.923Z</time></trkpt><trkpt lat="37.2771633" lon="14.9881083"><ele>61.0</ele><time>2026-04-25T08:16:01.923Z</time></trkpt><trkpt lat="37.277205" lon="14.9882533"><ele>61.25</ele><time>2026-04-25T08:16:02.924Z</time></trkpt><trkpt lat="37.2772517" lon="14.9884033"><ele>61.5</ele><time>2026-04-25T08:16:03.924Z</time></trkpt><trkpt lat="37.2772883" lon="14.9885467"><ele>61.75</ele><time>2026-04-25T08:16:04.924Z</time></trkpt><trkpt lat="37.2773267" lon="14.9886917"><ele>62.0</ele><time>2026-04-25T08:16:05.924Z</time></trkpt><trkpt lat="37.2773717" lon="14.988825"><ele>62.0</ele><time>2026-04-25T08:16:06.924Z</time></trkpt><trkpt lat="37.2774083" lon="14.9889667"><ele>62.0</ele><time>2026-04-25T08:16:07.924Z</time></trkpt><trkpt lat="37.2774367" lon="14.989115"><ele>62.0</ele><time>2026-04-25T08:16:08.924Z</time></trkpt><trkpt lat="37.2774567" lon="14.9892633"><ele>62.0</ele><time>2026-04-25T08:16:09.923Z</time></trkpt><trkpt lat="37.2774717" lon="14.9894017"><ele>62.400000000000006</ele><time>2026-04-25T08:16:10.923Z</time></trkpt><trkpt lat="37.2774917" lon="14.9895367"><ele>62.800000000000004</ele><time>2026-04-25T08:16:11.924Z</time></trkpt><trkpt lat="37.27751" lon="14.989665"><ele>63.2</ele><time>2026-04-25T08:16:12.924Z</time></trkpt><trkpt lat="37.2775333" lon="14.9897867"><ele>63.6</ele><time>2026-04-25T08:16:13.924Z</time></trkpt><trkpt lat="37.2775633" lon="14.98991"><ele>64.0</ele><time>2026-04-25T08:16:14.924Z</time></trkpt><trkpt lat="37.2776233" lon="14.990025"><ele>66.25</ele><time>2026-04-25T08:16:15.923Z</time></trkpt><trkpt lat="37.2777" lon="14.9901267"><ele>68.5</ele><time>2026-04-25T08:16:16.923Z</time></trkpt><trkpt lat="37.2778033" lon="14.9902117"><ele>70.75</ele><time>2026-04-25T08:16:17.924Z</time></trkpt><trkpt lat="37.2779067" lon="14.99028"><ele>73.0</ele><time>2026-04-25T08:16:18.923Z</time></trkpt><trkpt lat="37.2780183" lon="14.990335"><ele>71.75</ele><time>2026-04-25T08:16:19.924Z</time></trkpt><trkpt lat="37.2781317" lon="14.9903767"><ele>70.5</ele><time>2026-04-25T08:16:20.923Z</time></trkpt><trkpt lat="37.2782483" lon="14.99041"><ele>69.25</ele><time>2026-04-25T08:16:21.924Z</time></trkpt><trkpt lat="37.27836" lon="14.9904283"><ele>68.0</ele><time>2026-04-25T08:16:22.924Z</time></trkpt><trkpt lat="37.2784667" lon="14.99042"><ele>68.0</ele><time>2026-04-25T08:16:23.923Z</time></trkpt><trkpt lat="37.2785717" lon="14.9904"><ele>68.0</ele><time>2026-04-25T08:16:24.923Z</time></trkpt><trkpt lat="37.27868" lon="14.9903917"><ele>68.0</ele><time>2026-04-25T08:16:25.923Z</time></trkpt><trkpt lat="37.2787883" lon="14.9903617"><ele>68.0</ele><time>2026-04-25T08:16:26.924Z</time></trkpt><trkpt lat="37.2788883" lon="14.990345"><ele>68.0</ele><time>2026-04-25T08:16:27.923Z</time></trkpt><trkpt lat="37.2789933" lon="14.9903283"><ele>67.4</ele><time>2026-04-25T08:16:28.923Z</time></trkpt><trkpt lat="37.2790933" lon="14.9903233"><ele>66.8</ele><time>2026-04-25T08:16:29.923Z</time></trkpt><trkpt lat="37.27919" lon="14.990335"><ele>66.2</ele><time>2026-04-25T08:16:30.924Z</time></trkpt><trkpt lat="37.2792733" lon="14.990375"><ele>65.6</ele><time>2026-04-25T08:16:31.923Z</time></trkpt><trkpt lat="37.279355" lon="14.99044"><ele>65.0</ele><time>2026-04-25T08:16:32.923Z</time></trkpt><trkpt lat="37.27943" lon="14.9905217"><ele>65.0</ele><time>2026-04-25T08:16:33.924Z</time></trkpt><trkpt lat="37.2794967" lon="14.9906083"><ele>65.0</ele><time>2026-04-25T08:16:34.924Z</time></trkpt><trkpt lat="37.2795667" lon="14.9906983"><ele>65.0</ele><time>2026-04-25T08:16:35.924Z</time></trkpt><trkpt lat="37.27964" lon="14.990785"><ele>65.0</ele><time>2026-04-25T08:16:36.924Z</time></trkpt><trkpt lat="37.279725" lon="14.990855"><ele>65.0</ele><time>2026-04-25T08:16:37.923Z</time></trkpt><trkpt lat="37.27982" lon="14.9909017"><ele>64.8</ele><time>2026-04-25T08:16:38.924Z</time></trkpt><trkpt lat="37.2799183" lon="14.990935"><ele>64.6</ele><time>2026-04-25T08:16:39.924Z</time></trkpt><trkpt lat="37.280025" lon="14.990955"><ele>64.4</ele><time>2026-04-25T08:16:40.924Z</time></trkpt><trkpt lat="37.2801283" lon="14.9909733"><ele>64.2</ele><time>2026-04-25T08:16:41.923Z</time></trkpt><trkpt lat="37.2802217" lon="14.990975"><ele>64.0</ele><time>2026-04-25T08:16:42.924Z</time></trkpt><trkpt lat="37.28031" lon="14.9909817"><ele>64.0</ele><time>2026-04-25T08:16:43.924Z</time></trkpt><trkpt lat="37.2804083" lon="14.9909917"><ele>64.0</ele><time>2026-04-25T08:16:44.924Z</time></trkpt><trkpt lat="37.2805033" lon="14.991025"><ele>64.0</ele><time>2026-04-25T08:16:45.923Z</time></trkpt><trkpt lat="37.280595" lon="14.99108"><ele>64.0</ele><time>2026-04-25T08:16:46.923Z</time></trkpt><trkpt lat="37.2806833" lon="14.991145"><ele>64.0</ele><time>2026-04-25T08:16:47.924Z</time></trkpt><trkpt lat="37.280775" lon="14.991215"><ele>63.0</ele><time>2026-04-25T08:16:48.924Z</time></trkpt><trkpt lat="37.2808717" lon="14.9912767"><ele>62.00000000000001</ele><time>2026-04-25T08:16:49.923Z</time></trkpt><trkpt lat="37.28096" lon="14.9913483"><ele>61.00000000000001</ele><time>2026-04-25T08:16:50.923Z</time></trkpt><trkpt lat="37.28104" lon="14.9914183"><ele>60.0</ele><time>2026-04-25T08:16:51.923Z</time></trkpt><trkpt lat="37.2811083" lon="14.9914883"><ele>59.0</ele><time>2026-04-25T08:16:52.924Z</time></trkpt><trkpt lat="37.2811817" lon="14.9915567"><ele>59.0</ele><time>2026-04-25T08:16:53.924Z</time></trkpt><trkpt lat="37.2812533" lon="14.991625"><ele>59.00000000000001</ele><time>2026-04-25T08:16:54.924Z</time></trkpt><trkpt lat="37.2813183" lon="14.9917133"><ele>59.00000000000001</ele><time>2026-04-25T08:16:55.923Z</time></trkpt><trkpt lat="37.2813817" lon="14.99179"><ele>59.0</ele><time>2026-04-25T08:16:56.924Z</time></trkpt><trkpt lat="37.2814517" lon="14.9918633"><ele>59.0</ele><time>2026-04-25T08:16:57.923Z</time></trkpt><trkpt lat="37.2815183" lon="14.9919433"><ele>59.00000000000001</ele><time>2026-04-25T08:16:58.924Z</time></trkpt><trkpt lat="37.28158" lon="14.99203"><ele>59.0</ele><time>2026-04-25T08:16:59.923Z</time></trkpt><trkpt lat="37.2816483" lon="14.9921167"><ele>59.0</ele><time>2026-04-25T08:17:00.923Z</time></trkpt><trkpt lat="37.2817133" lon="14.9921967"><ele>59.0</ele><time>2026-04-25T08:17:01.923Z</time></trkpt><trkpt lat="37.2817717" lon="14.9922717"><ele>59.00000000000001</ele><time>2026-04-25T08:17:02.924Z</time></trkpt><trkpt lat="37.2818217" lon="14.9923533"><ele>59.0</ele><time>2026-04-25T08:17:03.924Z</time></trkpt><trkpt lat="37.2818633" lon="14.9924383"><ele>60.00000000000001</ele><time>2026-04-25T08:17:04.923Z</time></trkpt><trkpt lat="37.2819" lon="14.9925233"><ele>61.0</ele><time>2026-04-25T08:17:05.923Z</time></trkpt><trkpt lat="37.28193" lon="14.992595"><ele>62.0</ele><time>2026-04-25T08:17:06.924Z</time></trkpt><trkpt lat="37.2819733" lon="14.992715"><ele>63.0</ele><time>2026-04-25T08:17:08.924Z</time></trkpt><trkpt lat="37.2820117" lon="14.9928117"><ele>64.0</ele><time>2026-04-25T08:17:10.924Z</time></trkpt><trkpt lat="37.2820867" lon="14.9928833"><ele>65.0</ele><time>2026-04-25T08:17:12.923Z</time></trkpt><trkpt lat="37.2821917" lon="14.9928783"><ele>65.0</ele><time>2026-04-25T08:17:14.923Z</time></trkpt><trkpt lat="37.2822583" lon="14.9928483"><ele>65.0</ele><time>2026-04-25T08:17:15.923Z</time></trkpt><trkpt lat="37.282325" lon="14.9928117"><ele>65.0</ele><time>2026-04-25T08:17:16.923Z</time></trkpt><trkpt lat="37.2823967" lon="14.9927967"><ele>65.0</ele><time>2026-04-25T08:17:17.924Z</time></trkpt><trkpt lat="37.2824833" lon="14.9928"><ele>65.0</ele><time>2026-04-25T08:17:18.924Z</time></trkpt><trkpt lat="37.2825683" lon="14.9928167"><ele>65.0</ele><time>2026-04-25T08:17:19.923Z</time></trkpt><trkpt lat="37.2826533" lon="14.9928417"><ele>64.0</ele><time>2026-04-25T08:17:20.924Z</time></trkpt><trkpt lat="37.2827433" lon="14.99288"><ele>63.0</ele><time>2026-04-25T08:17:21.924Z</time></trkpt><trkpt lat="37.2828383" lon="14.9929333"><ele>62.0</ele><time>2026-04-25T08:17:22.924Z</time></trkpt><trkpt lat="37.282935" lon="14.992995"><ele>61.0</ele><time>2026-04-25T08:17:23.923Z</time></trkpt><trkpt lat="37.2830383" lon="14.993065"><ele>60.0</ele><time>2026-04-25T08:17:24.924Z</time></trkpt><trkpt lat="37.283145" lon="14.9931333"><ele>60.5</ele><time>2026-04-25T08:17:25.924Z</time></trkpt><trkpt lat="37.2832517" lon="14.993195"><ele>61.0</ele><time>2026-04-25T08:17:26.923Z</time></trkpt><trkpt lat="37.2833617" lon="14.9932583"><ele>61.5</ele><time>2026-04-25T08:17:27.924Z</time></trkpt><trkpt lat="37.2834783" lon="14.99333"><ele>62.0</ele><time>2026-04-25T08:17:28.923Z</time></trkpt><trkpt lat="37.2835867" lon="14.9934033"><ele>62.0</ele><time>2026-04-25T08:17:29.923Z</time></trkpt><trkpt lat="37.2837067" lon="14.9934533"><ele>62.0</ele><time>2026-04-25T08:17:30.923Z</time></trkpt><trkpt lat="37.28381" lon="14.993525"><ele>62.0</ele><time>2026-04-25T08:17:31.923Z</time></trkpt><trkpt lat="37.28391" lon="14.99359"><ele>62.0</ele><time>2026-04-25T08:17:32.923Z</time></trkpt><trkpt lat="37.2840117" lon="14.9936433"><ele>61.0</ele><time>2026-04-25T08:17:33.923Z</time></trkpt><trkpt lat="37.2841117" lon="14.9937067"><ele>60.0</ele><time>2026-04-25T08:17:34.924Z</time></trkpt><trkpt lat="37.2842033" lon="14.993765"><ele>59.0</ele><time>2026-04-25T08:17:35.924Z</time></trkpt><trkpt lat="37.284305" lon="14.993825"><ele>58.0</ele><time>2026-04-25T08:17:36.923Z</time></trkpt><trkpt lat="37.2844" lon="14.9938817"><ele>57.0</ele><time>2026-04-25T08:17:37.924Z</time></trkpt><trkpt lat="37.2845067" lon="14.9939083"><ele>57.0</ele><time>2026-04-25T08:17:38.924Z</time></trkpt><trkpt lat="37.2846133" lon="14.993915"><ele>57.0</ele><time>2026-04-25T08:17:39.924Z</time></trkpt><trkpt lat="37.2847167" lon="14.9939"><ele>57.0</ele><time>2026-04-25T08:17:40.924Z</time></trkpt><trkpt lat="37.2848333" lon="14.9938817"><ele>57.0</ele><time>2026-04-25T08:17:41.923Z</time></trkpt><trkpt lat="37.2849467" lon="14.9938667"><ele>57.0</ele><time>2026-04-25T08:17:42.924Z</time></trkpt><trkpt lat="37.2850683" lon="14.9938617"><ele>55.25</ele><time>2026-04-25T08:17:43.924Z</time></trkpt><trkpt lat="37.2851983" lon="14.9938567"><ele>53.5</ele><time>2026-04-25T08:17:44.923Z</time></trkpt><trkpt lat="37.2853283" lon="14.993855"><ele>51.75</ele><time>2026-04-25T08:17:45.924Z</time></trkpt><trkpt lat="37.2854517" lon="14.9938467"><ele>50.0</ele><time>2026-04-25T08:17:46.923Z</time></trkpt><trkpt lat="37.2855767" lon="14.9938817"><ele>49.0</ele><time>2026-04-25T08:17:47.924Z</time></trkpt><trkpt lat="37.2857033" lon="14.9939317"><ele>48.0</ele><time>2026-04-25T08:17:48.924Z</time></trkpt><trkpt lat="37.2858233" lon="14.993985"><ele>47.0</ele><time>2026-04-25T08:17:49.924Z</time></trkpt><trkpt lat="37.28593" lon="14.9940533"><ele>46.0</ele><time>2026-04-25T08:17:50.924Z</time></trkpt><trkpt lat="37.2860283" lon="14.99411"><ele>45.599999999999994</ele><time>2026-04-25T08:17:51.924Z</time></trkpt><trkpt lat="37.28612" lon="14.9941733"><ele>45.2</ele><time>2026-04-25T08:17:52.924Z</time></trkpt><trkpt lat="37.2862217" lon="14.994235"><ele>44.8</ele><time>2026-04-25T08:17:53.923Z</time></trkpt><trkpt lat="37.2863267" lon="14.9942917"><ele>44.400000000000006</ele><time>2026-04-25T08:17:54.924Z</time></trkpt><trkpt lat="37.28643" lon="14.9943467"><ele>44.0</ele><time>2026-04-25T08:17:55.924Z</time></trkpt><trkpt lat="37.286525" lon="14.9943967"><ele>44.0</ele><time>2026-04-25T08:17:56.924Z</time></trkpt><trkpt lat="37.2866133" lon="14.99445"><ele>44.0</ele><time>2026-04-25T08:17:57.923Z</time></trkpt><trkpt lat="37.2867" lon="14.994495"><ele>44.0</ele><time>2026-04-25T08:17:58.924Z</time></trkpt><trkpt lat="37.2867733" lon="14.99454"><ele>44.0</ele><time>2026-04-25T08:17:59.924Z</time></trkpt><trkpt lat="37.2868317" lon="14.9945783"><ele>44.0</ele><time>2026-04-25T08:18:00.923Z</time></trkpt><trkpt lat="37.28685" lon="14.9946633"><ele>44.0</ele><time>2026-04-25T08:18:02.923Z</time></trkpt><trkpt lat="37.2868017" lon="14.99478"><ele>44.0</ele><time>2026-04-25T08:18:04.924Z</time></trkpt><trkpt lat="37.2867383" lon="14.99491"><ele>44.0</ele><time>2026-04-25T08:18:06.924Z</time></trkpt><trkpt lat="37.28671" lon="14.9949817"><ele>44.0</ele><time>2026-04-25T08:18:07.924Z</time></trkpt><trkpt lat="37.2866867" lon="14.9950633"><ele>44.0</ele><time>2026-04-25T08:18:08.923Z</time></trkpt><trkpt lat="37.2866583" lon="14.995145"><ele>44.0</ele><time>2026-04-25T08:18:09.923Z</time></trkpt><trkpt lat="37.2866367" lon="14.99523"><ele>44.0</ele><time>2026-04-25T08:18:10.924Z</time></trkpt><trkpt lat="37.2866117" lon="14.995315"><ele>44.6</ele><time>2026-04-25T08:18:11.924Z</time></trkpt><trkpt lat="37.2865783" lon="14.9953967"><ele>45.2</ele><time>2026-04-25T08:18:12.924Z</time></trkpt><trkpt lat="37.286545" lon="14.9954767"><ele>45.800000000000004</ele><time>2026-04-25T08:18:13.923Z</time></trkpt><trkpt lat="37.2865233" lon="14.9956117"><ele>46.400000000000006</ele><time>2026-04-25T08:18:15.924Z</time></trkpt><trkpt lat="37.2865833" lon="14.9957417"><ele>47.0</ele><time>2026-04-25T08:18:17.924Z</time></trkpt><trkpt lat="37.2866483" lon="14.995795"><ele>48.400000000000006</ele><time>2026-04-25T08:18:18.924Z</time></trkpt><trkpt lat="37.2867067" lon="14.9958633"><ele>49.800000000000004</ele><time>2026-04-25T08:18:19.923Z</time></trkpt><trkpt lat="37.2867683" lon="14.99593"><ele>51.2</ele><time>2026-04-25T08:18:20.924Z</time></trkpt><trkpt lat="37.2868233" lon="14.9959917"><ele>52.6</ele><time>2026-04-25T08:18:21.924Z</time></trkpt><trkpt lat="37.28691" lon="14.9960933"><ele>54.0</ele><time>2026-04-25T08:18:23.924Z</time></trkpt><trkpt lat="37.2869983" lon="14.9961567"><ele>54.0</ele><time>2026-04-25T08:18:25.923Z</time></trkpt><trkpt lat="37.287085" lon="14.9961517"><ele>54.00000000000001</ele><time>2026-04-25T08:18:27.923Z</time></trkpt><trkpt lat="37.2871917" lon="14.99604"><ele>54.00000000000001</ele><time>2026-04-25T08:18:29.924Z</time></trkpt><trkpt lat="37.2872417" lon="14.9959433"><ele>54.0</ele><time>2026-04-25T08:18:30.924Z</time></trkpt><trkpt lat="37.2872867" lon="14.9958467"><ele>54.0</ele><time>2026-04-25T08:18:31.924Z</time></trkpt><trkpt lat="37.28734" lon="14.99577"><ele>52.800000000000004</ele><time>2026-04-25T08:18:32.924Z</time></trkpt><trkpt lat="37.2873883" lon="14.995715"><ele>51.60000000000001</ele><time>2026-04-25T08:18:33.924Z</time></trkpt><trkpt lat="37.2875017" lon="14.9956683"><ele>50.4</ele><time>2026-04-25T08:18:35.923Z</time></trkpt><trkpt lat="37.2876267" lon="14.9956883"><ele>49.2</ele><time>2026-04-25T08:18:37.923Z</time></trkpt><trkpt lat="37.28772" lon="14.9957633"><ele>48.0</ele><time>2026-04-25T08:18:39.923Z</time></trkpt><trkpt lat="37.2878083" lon="14.9958317"><ele>48.5</ele><time>2026-04-25T08:18:41.923Z</time></trkpt><trkpt lat="37.2879083" lon="14.9959167"><ele>49.0</ele><time>2026-04-25T08:18:43.923Z</time></trkpt><trkpt lat="37.2880033" lon="14.9959833"><ele>49.5</ele><time>2026-04-25T08:18:45.922Z</time></trkpt><trkpt lat="37.2880617" lon="14.9960167"><ele>50.0</ele><time>2026-04-25T08:18:46.923Z</time></trkpt><trkpt lat="37.2881233" lon="14.996045"><ele>50.5</ele><time>2026-04-25T08:18:47.923Z</time></trkpt><trkpt lat="37.2881833" lon="14.99607"><ele>51.0</ele><time>2026-04-25T08:18:48.923Z</time></trkpt><trkpt lat="37.2882567" lon="14.9961"><ele>51.25</ele><time>2026-04-25T08:18:49.922Z</time></trkpt><trkpt lat="37.2883433" lon="14.99615"><ele>51.5</ele><time>2026-04-25T08:18:50.922Z</time></trkpt><trkpt lat="37.288465" lon="14.9962183"><ele>51.75</ele><time>2026-04-25T08:18:51.922Z</time></trkpt><trkpt lat="37.288605" lon="14.9963"><ele>52.0</ele><time>2026-04-25T08:18:52.923Z</time></trkpt><trkpt lat="37.28873" lon="14.9963783"><ele>52.0</ele><time>2026-04-25T08:18:53.923Z</time></trkpt><trkpt lat="37.2888617" lon="14.996455"><ele>52.0</ele><time>2026-04-25T08:18:54.922Z</time></trkpt><trkpt lat="37.288985" lon="14.9965283"><ele>52.0</ele><time>2026-04-25T08:18:55.923Z</time></trkpt><trkpt lat="37.2891017" lon="14.9966"><ele>52.0</ele><time>2026-04-25T08:18:56.923Z</time></trkpt><trkpt lat="37.28922" lon="14.9966617"><ele>52.2</ele><time>2026-04-25T08:18:57.923Z</time></trkpt><trkpt lat="37.2893233" lon="14.9967217"><ele>52.400000000000006</ele><time>2026-04-25T08:18:58.923Z</time></trkpt><trkpt lat="37.2894167" lon="14.996775"><ele>52.599999999999994</ele><time>2026-04-25T08:18:59.923Z</time></trkpt><trkpt lat="37.2895183" lon="14.996815"><ele>52.8</ele><time>2026-04-25T08:19:00.923Z</time></trkpt><trkpt lat="37.28961" lon="14.9968483"><ele>53.0</ele><time>2026-04-25T08:19:01.923Z</time></trkpt><trkpt lat="37.2897" lon="14.9968867"><ele>52.50000000000001</ele><time>2026-04-25T08:19:02.922Z</time></trkpt><trkpt lat="37.289775" lon="14.9969283"><ele>52.0</ele><time>2026-04-25T08:19:03.923Z</time></trkpt><trkpt lat="37.2898483" lon="14.9969683"><ele>51.5</ele><time>2026-04-25T08:19:04.922Z</time></trkpt><trkpt lat="37.2899267" lon="14.997015"><ele>51.0</ele><time>2026-04-25T08:19:05.922Z</time></trkpt><trkpt lat="37.29001" lon="14.9970633"><ele>50.50000000000001</ele><time>2026-04-25T08:19:06.923Z</time></trkpt><trkpt lat="37.29009" lon="14.99712"><ele>50.0</ele><time>2026-04-25T08:19:07.923Z</time></trkpt><trkpt lat="37.2901533" lon="14.997185"><ele>50.00000000000001</ele><time>2026-04-25T08:19:08.923Z</time></trkpt><trkpt lat="37.2902017" lon="14.997255"><ele>50.0</ele><time>2026-04-25T08:19:09.922Z</time></trkpt><trkpt lat="37.2902483" lon="14.997325"><ele>50.0</ele><time>2026-04-25T08:19:10.922Z</time></trkpt><trkpt lat="37.2902867" lon="14.9973883"><ele>50.0</ele><time>2026-04-25T08:19:11.923Z</time></trkpt><trkpt lat="37.2903183" lon="14.9974683"><ele>50.0</ele><time>2026-04-25T08:19:12.923Z</time></trkpt><trkpt lat="37.290345" lon="14.9975433"><ele>50.00000000000001</ele><time>2026-04-25T08:19:13.923Z</time></trkpt><trkpt lat="37.2903767" lon="14.997665"><ele>50.0</ele><time>2026-04-25T08:19:15.923Z</time></trkpt><trkpt lat="37.2903883" lon="14.9977517"><ele>50.4</ele><time>2026-04-25T08:19:17.923Z</time></trkpt><trkpt lat="37.2904233" lon="14.9978617"><ele>50.8</ele><time>2026-04-25T08:19:19.923Z</time></trkpt><trkpt lat="37.2904733" lon="14.9979633"><ele>51.2</ele><time>2026-04-25T08:19:21.923Z</time></trkpt><trkpt lat="37.2905883" lon="14.9979483"><ele>51.6</ele><time>2026-04-25T08:19:24.923Z</time></trkpt><trkpt lat="37.2906633" lon="14.9979083"><ele>52.0</ele><time>2026-04-25T08:19:25.923Z</time></trkpt><trkpt lat="37.29074" lon="14.997865"><ele>51.99999999999999</ele><time>2026-04-25T08:19:26.923Z</time></trkpt><trkpt lat="37.2908183" lon="14.9978183"><ele>52.0</ele><time>2026-04-25T08:19:27.923Z</time></trkpt><trkpt lat="37.29089" lon="14.9977767"><ele>52.0</ele><time>2026-04-25T08:19:28.923Z</time></trkpt><trkpt lat="37.2909583" lon="14.9977467"><ele>52.0</ele><time>2026-04-25T08:19:29.923Z</time></trkpt><trkpt lat="37.2910517" lon="14.9977317"><ele>51.99999999999999</ele><time>2026-04-25T08:19:31.922Z</time></trkpt><trkpt lat="37.2911233" lon="14.9977517"><ele>52.0</ele><time>2026-04-25T08:19:33.923Z</time></trkpt><trkpt lat="37.29121" lon="14.99778"><ele>52.0</ele><time>2026-04-25T08:19:35.922Z</time></trkpt><trkpt lat="37.2913083" lon="14.99785"><ele>52.0</ele><time>2026-04-25T08:19:37.923Z</time></trkpt><trkpt lat="37.2914183" lon="14.9979133"><ele>52.0</ele><time>2026-04-25T08:19:39.922Z</time></trkpt><trkpt lat="37.291535" lon="14.997965"><ele>52.0</ele><time>2026-04-25T08:19:41.922Z</time></trkpt><trkpt lat="37.29164" lon="14.9980233"><ele>51.83333333333333</ele><time>2026-04-25T08:19:43.922Z</time></trkpt><trkpt lat="37.2917583" lon="14.9981017"><ele>51.666666666666664</ele><time>2026-04-25T08:19:45.923Z</time></trkpt><trkpt lat="37.2918283" lon="14.998135"><ele>51.5</ele><time>2026-04-25T08:19:46.923Z</time></trkpt><trkpt lat="37.2918967" lon="14.998175"><ele>51.33333333333333</ele><time>2026-04-25T08:19:47.923Z</time></trkpt><trkpt lat="37.2919717" lon="14.9982083"><ele>51.166666666666664</ele><time>2026-04-25T08:19:48.922Z</time></trkpt><trkpt lat="37.2920433" lon="14.998245"><ele>51.0</ele><time>2026-04-25T08:19:49.923Z</time></trkpt><trkpt lat="37.2921117" lon="14.9982883"><ele>51.0</ele><time>2026-04-25T08:19:50.922Z</time></trkpt><trkpt lat="37.2921817" lon="14.99834"><ele>51.0</ele><time>2026-04-25T08:19:51.923Z</time></trkpt><trkpt lat="37.292255" lon="14.9983733"><ele>51.0</ele><time>2026-04-25T08:19:52.923Z</time></trkpt><trkpt lat="37.29233" lon="14.9984017"><ele>51.0</ele><time>2026-04-25T08:19:53.922Z</time></trkpt><trkpt lat="37.2924033" lon="14.9984383"><ele>51.0</ele><time>2026-04-25T08:19:54.923Z</time></trkpt><trkpt lat="37.2924733" lon="14.9984733"><ele>51.0</ele><time>2026-04-25T08:19:55.922Z</time></trkpt><trkpt lat="37.29254" lon="14.9985017"><ele>50.5</ele><time>2026-04-25T08:19:56.923Z</time></trkpt><trkpt lat="37.292615" lon="14.998545"><ele>50.0</ele><time>2026-04-25T08:19:57.922Z</time></trkpt><trkpt lat="37.2926867" lon="14.998585"><ele>49.5</ele><time>2026-04-25T08:19:58.923Z</time></trkpt><trkpt lat="37.29276" lon="14.9986267"><ele>49.0</ele><time>2026-04-25T08:19:59.923Z</time></trkpt><trkpt lat="37.2928267" lon="14.9986767"><ele>48.5</ele><time>2026-04-25T08:20:00.922Z</time></trkpt><trkpt lat="37.2928917" lon="14.9987267"><ele>48.0</ele><time>2026-04-25T08:20:01.922Z</time></trkpt><trkpt lat="37.29295" lon="14.9987767"><ele>48.0</ele><time>2026-04-25T08:20:02.922Z</time></trkpt><trkpt lat="37.2930033" lon="14.9988583"><ele>48.0</ele><time>2026-04-25T08:20:04.923Z</time></trkpt><trkpt lat="37.2930267" lon="14.99895"><ele>48.0</ele><time>2026-04-25T08:20:06.923Z</time></trkpt><trkpt lat="37.293035" lon="14.9990383"><ele>48.0</ele><time>2026-04-25T08:20:08.923Z</time></trkpt><trkpt lat="37.2930783" lon="14.9991217"><ele>48.0</ele><time>2026-04-25T08:20:11.922Z</time></trkpt><trkpt lat="37.2932" lon="14.99916"><ele>48.0</ele><time>2026-04-25T08:20:13.923Z</time></trkpt><trkpt lat="37.2932767" lon="14.9991867"><ele>48.166666666666664</ele><time>2026-04-25T08:20:14.922Z</time></trkpt><trkpt lat="37.2933617" lon="14.9992083"><ele>48.33333333333333</ele><time>2026-04-25T08:20:15.923Z</time></trkpt><trkpt lat="37.2934567" lon="14.99922"><ele>48.5</ele><time>2026-04-25T08:20:16.923Z</time></trkpt><trkpt lat="37.2935483" lon="14.99924"><ele>48.666666666666664</ele><time>2026-04-25T08:20:17.923Z</time></trkpt><trkpt lat="37.2936333" lon="14.9992617"><ele>48.83333333333333</ele><time>2026-04-25T08:20:18.923Z</time></trkpt><trkpt lat="37.2937117" lon="14.99929"><ele>49.0</ele><time>2026-04-25T08:20:19.923Z</time></trkpt><trkpt lat="37.2937783" lon="14.999315"><ele>49.0</ele><time>2026-04-25T08:20:20.923Z</time></trkpt><trkpt lat="37.293845" lon="14.9993333"><ele>49.0</ele><time>2026-04-25T08:20:21.923Z</time></trkpt><trkpt lat="37.2939567" lon="14.9993783"><ele>49.0</ele><time>2026-04-25T08:20:23.923Z</time></trkpt><trkpt lat="37.294035" lon="14.999425"><ele>49.0</ele><time>2026-04-25T08:20:25.922Z</time></trkpt><trkpt lat="37.2941317" lon="14.9994683"><ele>49.0</ele><time>2026-04-25T08:20:27.923Z</time></trkpt><trkpt lat="37.2942433" lon="14.999515"><ele>48.49999999999999</ele><time>2026-04-25T08:20:29.923Z</time></trkpt><trkpt lat="37.2943033" lon="14.9995467"><ele>48.0</ele><time>2026-04-25T08:20:30.922Z</time></trkpt><trkpt lat="37.29442" lon="14.9996"><ele>47.5</ele><time>2026-04-25T08:20:32.922Z</time></trkpt><trkpt lat="37.2944783" lon="14.99963"><ele>47.0</ele><time>2026-04-25T08:20:33.923Z</time></trkpt><trkpt lat="37.2945417" lon="14.99966"><ele>46.5</ele><time>2026-04-25T08:20:34.923Z</time></trkpt><trkpt lat="37.29466" lon="14.9997067"><ele>46.0</ele><time>2026-04-25T08:20:36.923Z</time></trkpt><trkpt lat="37.2947483" lon="14.999785"><ele>45.333333333333336</ele><time>2026-04-25T08:20:38.922Z</time></trkpt><trkpt lat="37.2948417" lon="14.9998483"><ele>44.66666666666667</ele><time>2026-04-25T08:20:40.922Z</time></trkpt><trkpt lat="37.2949433" lon="14.9999017"><ele>44.0</ele><time>2026-04-25T08:20:42.923Z</time></trkpt><trkpt lat="37.2950083" lon="14.99993"><ele>43.333333333333336</ele><time>2026-04-25T08:20:44.922Z</time></trkpt><trkpt lat="37.2950883" lon="14.99996"><ele>42.666666666666664</ele><time>2026-04-25T08:20:47.922Z</time></trkpt><trkpt lat="37.2951433" lon="15.0000067"><ele>42.0</ele><time>2026-04-25T08:20:50.922Z</time></trkpt><trkpt lat="37.295205" lon="14.9999833"><ele>42.0</ele><time>2026-04-25T08:20:52.922Z</time></trkpt><trkpt lat="37.2952983" lon="14.9999917"><ele>42.0</ele><time>2026-04-25T08:20:55.923Z</time></trkpt><trkpt lat="37.295435" lon="15.00006"><ele>42.0</ele><time>2026-04-25T08:20:57.923Z</time></trkpt><trkpt lat="37.2955383" lon="15.0001417"><ele>42.0</ele><time>2026-04-25T08:20:58.923Z</time></trkpt><trkpt lat="37.2956483" lon="15.000235"><ele>41.5</ele><time>2026-04-25T08:20:59.922Z</time></trkpt><trkpt lat="37.2957617" lon="15.000315"><ele>41.0</ele><time>2026-04-25T08:21:00.923Z</time></trkpt><trkpt lat="37.2958783" lon="15.0003867"><ele>40.5</ele><time>2026-04-25T08:21:01.923Z</time></trkpt><trkpt lat="37.2959967" lon="15.00045"><ele>40.0</ele><time>2026-04-25T08:21:02.923Z</time></trkpt><trkpt lat="37.296095" lon="15.0005167"><ele>40.0</ele><time>2026-04-25T08:21:03.922Z</time></trkpt><trkpt lat="37.2962217" lon="15.00058"><ele>40.0</ele><time>2026-04-25T08:21:04.922Z</time></trkpt><trkpt lat="37.2963517" lon="15.0006533"><ele>40.0</ele><time>2026-04-25T08:21:05.923Z</time></trkpt><trkpt lat="37.2964767" lon="15.0007467"><ele>40.0</ele><time>2026-04-25T08:21:06.923Z</time></trkpt><trkpt lat="37.2965867" lon="15.0008317"><ele>39.16666666666667</ele><time>2026-04-25T08:21:07.923Z</time></trkpt><trkpt lat="37.2966833" lon="15.000895"><ele>38.333333333333336</ele><time>2026-04-25T08:21:08.923Z</time></trkpt><trkpt lat="37.2967667" lon="15.000945"><ele>37.5</ele><time>2026-04-25T08:21:09.922Z</time></trkpt><trkpt lat="37.2968433" lon="15.00098"><ele>36.666666666666664</ele><time>2026-04-25T08:21:10.923Z</time></trkpt><trkpt lat="37.2969167" lon="15.0010117"><ele>35.83333333333333</ele><time>2026-04-25T08:21:11.923Z</time></trkpt><trkpt lat="37.2969883" lon="15.0010417"><ele>35.0</ele><time>2026-04-25T08:21:12.923Z</time></trkpt><trkpt lat="37.297055" lon="15.0010917"><ele>35.0</ele><time>2026-04-25T08:21:13.923Z</time></trkpt><trkpt lat="37.2971183" lon="15.00114"><ele>35.0</ele><time>2026-04-25T08:21:14.923Z</time></trkpt><trkpt lat="37.2971833" lon="15.001185"><ele>35.0</ele><time>2026-04-25T08:21:15.922Z</time></trkpt><trkpt lat="37.297245" lon="15.001235"><ele>35.0</ele><time>2026-04-25T08:21:16.923Z</time></trkpt><trkpt lat="37.2972983" lon="15.00129"><ele>35.0</ele><time>2026-04-25T08:21:17.923Z</time></trkpt><trkpt lat="37.29734" lon="15.0013583"><ele>35.0</ele><time>2026-04-25T08:21:18.923Z</time></trkpt><trkpt lat="37.297365" lon="15.0014383"><ele>35.0</ele><time>2026-04-25T08:21:19.922Z</time></trkpt><trkpt lat="37.2973767" lon="15.0015367"><ele>34.83333333333333</ele><time>2026-04-25T08:21:20.923Z</time></trkpt><trkpt lat="37.29738" lon="15.0016467"><ele>34.666666666666664</ele><time>2026-04-25T08:21:21.923Z</time></trkpt><trkpt lat="37.2973983" lon="15.0017517"><ele>34.5</ele><time>2026-04-25T08:21:22.922Z</time></trkpt><trkpt lat="37.29741" lon="15.0018533"><ele>34.333333333333336</ele><time>2026-04-25T08:21:23.922Z</time></trkpt><trkpt lat="37.2974317" lon="15.0019417"><ele>34.16666666666667</ele><time>2026-04-25T08:21:24.923Z</time></trkpt><trkpt lat="37.297445" lon="15.0020733"><ele>34.0</ele><time>2026-04-25T08:21:26.922Z</time></trkpt><trkpt lat="37.29746" lon="15.0021667"><ele>35.0</ele><time>2026-04-25T08:21:37.922Z</time></trkpt><trkpt lat="37.29758" lon="15.0022033"><ele>36.0</ele><time>2026-04-25T08:21:39.923Z</time></trkpt><trkpt lat="37.2976783" lon="15.0022133"><ele>37.0</ele><time>2026-04-25T08:21:40.923Z</time></trkpt><trkpt lat="37.2977917" lon="15.002215"><ele>38.0</ele><time>2026-04-25T08:21:41.922Z</time></trkpt><trkpt lat="37.2979" lon="15.002225"><ele>39.0</ele><time>2026-04-25T08:21:42.923Z</time></trkpt><trkpt lat="37.2980033" lon="15.0022317"><ele>38.6</ele><time>2026-04-25T08:21:43.923Z</time></trkpt><trkpt lat="37.29811" lon="15.0022417"><ele>38.2</ele><time>2026-04-25T08:21:44.923Z</time></trkpt><trkpt lat="37.2982233" lon="15.00224"><ele>37.800000000000004</ele><time>2026-04-25T08:21:45.922Z</time></trkpt><trkpt lat="37.2983317" lon="15.0022367"><ele>37.4</ele><time>2026-04-25T08:21:46.923Z</time></trkpt><trkpt lat="37.2984383" lon="15.0022383"><ele>37.0</ele><time>2026-04-25T08:21:47.923Z</time></trkpt><trkpt lat="37.2985383" lon="15.0022383"><ele>37.0</ele><time>2026-04-25T08:21:48.922Z</time></trkpt><trkpt lat="37.2986333" lon="15.0022367"><ele>37.0</ele><time>2026-04-25T08:21:49.922Z</time></trkpt><trkpt lat="37.29872" lon="15.0022267"><ele>37.0</ele><time>2026-04-25T08:21:50.923Z</time></trkpt><trkpt lat="37.29881" lon="15.0022167"><ele>37.0</ele><time>2026-04-25T08:21:51.922Z</time></trkpt><trkpt lat="37.2988983" lon="15.0022083"><ele>37.0</ele><time>2026-04-25T08:21:52.923Z</time></trkpt><trkpt lat="37.2990067" lon="15.0021983"><ele>36.5</ele><time>2026-04-25T08:21:53.922Z</time></trkpt><trkpt lat="37.29912" lon="15.0022017"><ele>36.0</ele><time>2026-04-25T08:21:54.922Z</time></trkpt><trkpt lat="37.29925" lon="15.002205"><ele>35.5</ele><time>2026-04-25T08:21:55.922Z</time></trkpt><trkpt lat="37.2993833" lon="15.0022083"><ele>35.0</ele><time>2026-04-25T08:21:56.923Z</time></trkpt><trkpt lat="37.2995233" lon="15.0022033"><ele>35.0</ele><time>2026-04-25T08:21:57.922Z</time></trkpt><trkpt lat="37.2996733" lon="15.0022017"><ele>35.0</ele><time>2026-04-25T08:21:58.922Z</time></trkpt><trkpt lat="37.2998267" lon="15.0022167"><ele>35.0</ele><time>2026-04-25T08:21:59.923Z</time></trkpt><trkpt lat="37.299975" lon="15.0022283"><ele>35.4</ele><time>2026-04-25T08:22:00.922Z</time></trkpt><trkpt lat="37.30011" lon="15.00223"><ele>35.8</ele><time>2026-04-25T08:22:01.923Z</time></trkpt><trkpt lat="37.30023" lon="15.0022317"><ele>36.2</ele><time>2026-04-25T08:22:02.923Z</time></trkpt><trkpt lat="37.30033" lon="15.00223"><ele>36.6</ele><time>2026-04-25T08:22:03.923Z</time></trkpt><trkpt lat="37.3004117" lon="15.0022283"><ele>37.0</ele><time>2026-04-25T08:22:04.923Z</time></trkpt><trkpt lat="37.3004767" lon="15.002225"><ele>37.0</ele><time>2026-04-25T08:22:05.923Z</time></trkpt><trkpt lat="37.3005767" lon="15.0022467"><ele>37.0</ele><time>2026-04-25T08:22:07.923Z</time></trkpt><trkpt lat="37.30067" lon="15.002255"><ele>37.0</ele><time>2026-04-25T08:22:09.922Z</time></trkpt><trkpt lat="37.3007367" lon="15.00225"><ele>37.0</ele><time>2026-04-25T08:22:10.922Z</time></trkpt><trkpt lat="37.3008133" lon="15.0022417"><ele>37.0</ele><time>2026-04-25T08:22:11.922Z</time></trkpt><trkpt lat="37.3009" lon="15.0022383"><ele>37.0</ele><time>2026-04-25T08:22:12.922Z</time></trkpt><trkpt lat="37.3009967" lon="15.0022283"><ele>37.75</ele><time>2026-04-25T08:22:13.923Z</time></trkpt><trkpt lat="37.3011017" lon="15.00222"><ele>38.5</ele><time>2026-04-25T08:22:14.923Z</time></trkpt><trkpt lat="37.3012167" lon="15.002215"><ele>39.25</ele><time>2026-04-25T08:22:15.922Z</time></trkpt><trkpt lat="37.3013417" lon="15.0022167"><ele>40.0</ele><time>2026-04-25T08:22:16.923Z</time></trkpt><trkpt lat="37.3014733" lon="15.0022167"><ele>40.5</ele><time>2026-04-25T08:22:17.923Z</time></trkpt><trkpt lat="37.3016033" lon="15.0022117"><ele>41.0</ele><time>2026-04-25T08:22:18.923Z</time></trkpt><trkpt lat="37.301735" lon="15.0022083"><ele>41.5</ele><time>2026-04-25T08:22:19.923Z</time></trkpt><trkpt lat="37.3018583" lon="15.0022017"><ele>42.0</ele><time>2026-04-25T08:22:20.923Z</time></trkpt><trkpt lat="37.3019817" lon="15.002195"><ele>42.0</ele><time>2026-04-25T08:22:21.922Z</time></trkpt><trkpt lat="37.3021283" lon="15.00219"><ele>42.0</ele><time>2026-04-25T08:22:22.923Z</time></trkpt><trkpt lat="37.302285" lon="15.0021917"><ele>42.0</ele><time>2026-04-25T08:22:23.922Z</time></trkpt><trkpt lat="37.3024483" lon="15.00219"><ele>41.75</ele><time>2026-04-25T08:22:24.923Z</time></trkpt><trkpt lat="37.302605" lon="15.002185"><ele>41.5</ele><time>2026-04-25T08:22:25.923Z</time></trkpt><trkpt lat="37.302755" lon="15.00218"><ele>41.25</ele><time>2026-04-25T08:22:26.923Z</time></trkpt><trkpt lat="37.3028917" lon="15.0021783"><ele>41.0</ele><time>2026-04-25T08:22:27.923Z</time></trkpt><trkpt lat="37.30302" lon="15.002175"><ele>41.0</ele><time>2026-04-25T08:22:28.922Z</time></trkpt><trkpt lat="37.30313" lon="15.0021717"><ele>41.0</ele><time>2026-04-25T08:22:29.922Z</time></trkpt><trkpt lat="37.3032333" lon="15.0021667"><ele>41.0</ele><time>2026-04-25T08:22:30.922Z</time></trkpt><trkpt lat="37.3033333" lon="15.0021667"><ele>41.0</ele><time>2026-04-25T08:22:31.922Z</time></trkpt><trkpt lat="37.3034333" lon="15.0021633"><ele>41.0</ele><time>2026-04-25T08:22:32.922Z</time></trkpt><trkpt lat="37.3035267" lon="15.0021633"><ele>41.0</ele><time>2026-04-25T08:22:33.923Z</time></trkpt><trkpt lat="37.30361" lon="15.002165"><ele>41.0</ele><time>2026-04-25T08:22:34.922Z</time></trkpt><trkpt lat="37.3036883" lon="15.0021617"><ele>41.0</ele><time>2026-04-25T08:22:35.923Z</time></trkpt><trkpt lat="37.30377" lon="15.0021583"><ele>41.0</ele><time>2026-04-25T08:22:36.922Z</time></trkpt><trkpt lat="37.3038583" lon="15.0021583"><ele>41.0</ele><time>2026-04-25T08:22:37.923Z</time></trkpt><trkpt lat="37.3039483" lon="15.0021617"><ele>41.0</ele><time>2026-04-25T08:22:38.922Z</time></trkpt><trkpt lat="37.3040317" lon="15.00216"><ele>40.666666666666664</ele><time>2026-04-25T08:22:39.922Z</time></trkpt><trkpt lat="37.3041217" lon="15.00216"><ele>40.33333333333333</ele><time>2026-04-25T08:22:40.923Z</time></trkpt><trkpt lat="37.3042067" lon="15.0021583"><ele>40.0</ele><time>2026-04-25T08:22:41.923Z</time></trkpt><trkpt lat="37.30429" lon="15.0021533"><ele>39.666666666666664</ele><time>2026-04-25T08:22:42.922Z</time></trkpt><trkpt lat="37.3043683" lon="15.0021533"><ele>39.333333333333336</ele><time>2026-04-25T08:22:43.923Z</time></trkpt><trkpt lat="37.304445" lon="15.0021467"><ele>39.0</ele><time>2026-04-25T08:22:44.923Z</time></trkpt><trkpt lat="37.3045283" lon="15.0021283"><ele>39.0</ele><time>2026-04-25T08:22:45.922Z</time></trkpt><trkpt lat="37.3045933" lon="15.002125"><ele>39.0</ele><time>2026-04-25T08:22:46.922Z</time></trkpt><trkpt lat="37.30469" lon="15.0021267"><ele>39.0</ele><time>2026-04-25T08:22:48.922Z</time></trkpt><trkpt lat="37.3047583" lon="15.002145"><ele>39.0</ele><time>2026-04-25T08:22:50.923Z</time></trkpt><trkpt lat="37.3048633" lon="15.0021783"><ele>39.0</ele><time>2026-04-25T08:22:56.922Z</time></trkpt><trkpt lat="37.304965" lon="15.002185"><ele>39.0</ele><time>2026-04-25T08:22:58.923Z</time></trkpt><trkpt lat="37.3050333" lon="15.002175"><ele>38.6</ele><time>2026-04-25T08:22:59.923Z</time></trkpt><trkpt lat="37.30511" lon="15.002165"><ele>38.2</ele><time>2026-04-25T08:23:00.923Z</time></trkpt><trkpt lat="37.3052017" lon="15.00216"><ele>37.800000000000004</ele><time>2026-04-25T08:23:01.922Z</time></trkpt><trkpt lat="37.3053017" lon="15.00216"><ele>37.4</ele><time>2026-04-25T08:23:02.922Z</time></trkpt><trkpt lat="37.3053967" lon="15.0021583"><ele>37.0</ele><time>2026-04-25T08:23:03.923Z</time></trkpt><trkpt lat="37.3054883" lon="15.0021567"><ele>36.800000000000004</ele><time>2026-04-25T08:23:04.923Z</time></trkpt><trkpt lat="37.3055817" lon="15.0021533"><ele>36.6</ele><time>2026-04-25T08:23:05.923Z</time></trkpt><trkpt lat="37.3056817" lon="15.002155"><ele>36.400000000000006</ele><time>2026-04-25T08:23:06.922Z</time></trkpt><trkpt lat="37.3057867" lon="15.0021583"><ele>36.2</ele><time>2026-04-25T08:23:07.923Z</time></trkpt><trkpt lat="37.3059017" lon="15.0021633"><ele>36.0</ele><time>2026-04-25T08:23:08.922Z</time></trkpt><trkpt lat="37.3060067" lon="15.002175"><ele>36.0</ele><time>2026-04-25T08:23:09.922Z</time></trkpt><trkpt lat="37.306115" lon="15.002185"><ele>36.0</ele><time>2026-04-25T08:23:10.923Z</time></trkpt><trkpt lat="37.30622" lon="15.0022017"><ele>36.0</ele><time>2026-04-25T08:23:11.923Z</time></trkpt><trkpt lat="37.3063183" lon="15.0022233"><ele>36.0</ele><time>2026-04-25T08:23:12.923Z</time></trkpt><trkpt lat="37.3064217" lon="15.002245"><ele>36.0</ele><time>2026-04-25T08:23:13.922Z</time></trkpt><trkpt lat="37.3065283" lon="15.0022617"><ele>36.4</ele><time>2026-04-25T08:23:14.923Z</time></trkpt><trkpt lat="37.3066367" lon="15.0022833"><ele>36.8</ele><time>2026-04-25T08:23:15.923Z</time></trkpt><trkpt lat="37.3067417" lon="15.0023033"><ele>37.199999999999996</ele><time>2026-04-25T08:23:16.922Z</time></trkpt><trkpt lat="37.30685" lon="15.0023233"><ele>37.6</ele><time>2026-04-25T08:23:17.922Z</time></trkpt><trkpt lat="37.3069567" lon="15.0023367"><ele>38.0</ele><time>2026-04-25T08:23:18.923Z</time></trkpt><trkpt lat="37.30707" lon="15.0023517"><ele>38.0</ele><time>2026-04-25T08:23:19.922Z</time></trkpt><trkpt lat="37.307185" lon="15.00238"><ele>38.0</ele><time>2026-04-25T08:23:20.923Z</time></trkpt><trkpt lat="37.3073083" lon="15.0024083"><ele>38.0</ele><time>2026-04-25T08:23:21.923Z</time></trkpt><trkpt lat="37.3074217" lon="15.0024567"><ele>38.0</ele><time>2026-04-25T08:23:22.923Z</time></trkpt><trkpt lat="37.30754" lon="15.0025067"><ele>37.5</ele><time>2026-04-25T08:23:23.922Z</time></trkpt><trkpt lat="37.3076617" lon="15.002575"><ele>37.0</ele><time>2026-04-25T08:23:24.923Z</time></trkpt><trkpt lat="37.3077767" lon="15.0026483"><ele>36.5</ele><time>2026-04-25T08:23:25.923Z</time></trkpt><trkpt lat="37.3078867" lon="15.0027383"><ele>36.0</ele><time>2026-04-25T08:23:26.923Z</time></trkpt><trkpt lat="37.3080017" lon="15.00284"><ele>36.25</ele><time>2026-04-25T08:23:27.923Z</time></trkpt><trkpt lat="37.308115" lon="15.002945"><ele>36.5</ele><time>2026-04-25T08:23:28.922Z</time></trkpt><trkpt lat="37.3082267" lon="15.003055"><ele>36.75</ele><time>2026-04-25T08:23:29.923Z</time></trkpt><trkpt lat="37.3083367" lon="15.003165"><ele>37.0</ele><time>2026-04-25T08:23:30.922Z</time></trkpt><trkpt lat="37.3084433" lon="15.0032717"><ele>35.66666666666667</ele><time>2026-04-25T08:23:31.923Z</time></trkpt><trkpt lat="37.3085633" lon="15.0033883"><ele>34.333333333333336</ele><time>2026-04-25T08:23:32.923Z</time></trkpt><trkpt lat="37.3086867" lon="15.0035117"><ele>33.0</ele><time>2026-04-25T08:23:33.923Z</time></trkpt><trkpt lat="37.30881" lon="15.00363"><ele>33.666666666666664</ele><time>2026-04-25T08:23:34.923Z</time></trkpt><trkpt lat="37.3089317" lon="15.0037483"><ele>34.33333333333333</ele><time>2026-04-25T08:23:35.923Z</time></trkpt><trkpt lat="37.309055" lon="15.0038833"><ele>35.0</ele><time>2026-04-25T08:23:36.922Z</time></trkpt><trkpt lat="37.3091767" lon="15.0040117"><ele>35.0</ele><time>2026-04-25T08:23:37.923Z</time></trkpt><trkpt lat="37.3093033" lon="15.0041433"><ele>35.0</ele><time>2026-04-25T08:23:38.923Z</time></trkpt><trkpt lat="37.3094367" lon="15.0042683"><ele>35.0</ele><time>2026-04-25T08:23:39.923Z</time></trkpt><trkpt lat="37.3095817" lon="15.0044033"><ele>34.666666666666664</ele><time>2026-04-25T08:23:40.922Z</time></trkpt><trkpt lat="37.3097367" lon="15.0045583"><ele>34.333333333333336</ele><time>2026-04-25T08:23:41.923Z</time></trkpt><trkpt lat="37.309905" lon="15.0047333"><ele>34.0</ele><time>2026-04-25T08:23:42.922Z</time></trkpt><trkpt lat="37.3100733" lon="15.0049183"><ele>33.333333333333336</ele><time>2026-04-25T08:23:43.923Z</time></trkpt><trkpt lat="37.31024" lon="15.0050967"><ele>32.666666666666664</ele><time>2026-04-25T08:23:44.923Z</time></trkpt><trkpt lat="37.3104117" lon="15.0052767"><ele>32.0</ele><time>2026-04-25T08:23:45.923Z</time></trkpt><trkpt lat="37.3105867" lon="15.0054583"><ele>32.0</ele><time>2026-04-25T08:23:46.922Z</time></trkpt><trkpt lat="37.31076" lon="15.0056367"><ele>32.0</ele><time>2026-04-25T08:23:47.922Z</time></trkpt><trkpt lat="37.3109317" lon="15.005815"><ele>32.0</ele><time>2026-04-25T08:23:48.923Z</time></trkpt><trkpt lat="37.3111067" lon="15.0059917"><ele>31.333333333333332</ele><time>2026-04-25T08:23:49.922Z</time></trkpt><trkpt lat="37.3112767" lon="15.0061633"><ele>30.666666666666664</ele><time>2026-04-25T08:23:50.923Z</time></trkpt><trkpt lat="37.3114433" lon="15.0063283"><ele>30.0</ele><time>2026-04-25T08:23:51.923Z</time></trkpt><trkpt lat="37.3116083" lon="15.0064983"><ele>29.0</ele><time>2026-04-25T08:23:52.923Z</time></trkpt><trkpt lat="37.3117733" lon="15.0066633"><ele>28.0</ele><time>2026-04-25T08:23:53.923Z</time></trkpt><trkpt lat="37.3119433" lon="15.0068167"><ele>27.0</ele><time>2026-04-25T08:23:54.922Z</time></trkpt><trkpt lat="37.3121167" lon="15.00696"><ele>26.666666666666664</ele><time>2026-04-25T08:23:55.923Z</time></trkpt><trkpt lat="37.3123" lon="15.0070917"><ele>26.333333333333332</ele><time>2026-04-25T08:23:56.922Z</time></trkpt><trkpt lat="37.3124833" lon="15.00722"><ele>26.0</ele><time>2026-04-25T08:23:57.923Z</time></trkpt><trkpt lat="37.3126733" lon="15.0073433"><ele>26.0</ele><time>2026-04-25T08:23:58.922Z</time></trkpt><trkpt lat="37.31286" lon="15.007455"><ele>26.0</ele><time>2026-04-25T08:23:59.923Z</time></trkpt><trkpt lat="37.3130517" lon="15.007555"><ele>26.0</ele><time>2026-04-25T08:24:00.923Z</time></trkpt><trkpt lat="37.31325" lon="15.0076417"><ele>25.0</ele><time>2026-04-25T08:24:01.922Z</time></trkpt><trkpt lat="37.313445" lon="15.0077217"><ele>24.0</ele><time>2026-04-25T08:24:02.922Z</time></trkpt><trkpt lat="37.3136433" lon="15.0077983"><ele>23.0</ele><time>2026-04-25T08:24:03.923Z</time></trkpt><trkpt lat="37.3138433" lon="15.0078717"><ele>23.0</ele><time>2026-04-25T08:24:04.922Z</time></trkpt><trkpt lat="37.3140517" lon="15.0079383"><ele>23.0</ele><time>2026-04-25T08:24:05.922Z</time></trkpt><trkpt lat="37.3142533" lon="15.00801"><ele>23.0</ele><time>2026-04-25T08:24:06.922Z</time></trkpt><trkpt lat="37.314455" lon="15.0080833"><ele>23.0</ele><time>2026-04-25T08:24:07.922Z</time></trkpt><trkpt lat="37.3146583" lon="15.0081583"><ele>23.0</ele><time>2026-04-25T08:24:08.923Z</time></trkpt><trkpt lat="37.31486" lon="15.00824"><ele>23.0</ele><time>2026-04-25T08:24:09.923Z</time></trkpt><trkpt lat="37.3150683" lon="15.008325"><ele>21.333333333333336</ele><time>2026-04-25T08:24:10.923Z</time></trkpt><trkpt lat="37.315275" lon="15.008415"><ele>19.666666666666668</ele><time>2026-04-25T08:24:11.923Z</time></trkpt><trkpt lat="37.31548" lon="15.0085167"><ele>18.0</ele><time>2026-04-25T08:24:12.923Z</time></trkpt><trkpt lat="37.3156767" lon="15.0086317"><ele>18.0</ele><time>2026-04-25T08:24:13.923Z</time></trkpt><trkpt lat="37.3158733" lon="15.00875"><ele>18.0</ele><time>2026-04-25T08:24:14.922Z</time></trkpt><trkpt lat="37.316065" lon="15.0088783"><ele>18.0</ele><time>2026-04-25T08:24:15.922Z</time></trkpt><trkpt lat="37.316255" lon="15.00902"><ele>17.333333333333332</ele><time>2026-04-25T08:24:16.922Z</time></trkpt><trkpt lat="37.3164333" lon="15.0091733"><ele>16.666666666666664</ele><time>2026-04-25T08:24:17.922Z</time></trkpt><trkpt lat="37.3165933" lon="15.0093533"><ele>16.0</ele><time>2026-04-25T08:24:18.923Z</time></trkpt><trkpt lat="37.3167433" lon="15.0095467"><ele>16.0</ele><time>2026-04-25T08:24:19.922Z</time></trkpt><trkpt lat="37.31688" lon="15.0097567"><ele>16.0</ele><time>2026-04-25T08:24:20.922Z</time></trkpt><trkpt lat="37.317015" lon="15.009975"><ele>16.0</ele><time>2026-04-25T08:24:21.922Z</time></trkpt><trkpt lat="37.317145" lon="15.0102033"><ele>15.666666666666666</ele><time>2026-04-25T08:24:22.923Z</time></trkpt><trkpt lat="37.3172667" lon="15.0104433"><ele>15.333333333333332</ele><time>2026-04-25T08:24:23.922Z</time></trkpt><trkpt lat="37.3173817" lon="15.0106733"><ele>15.0</ele><time>2026-04-25T08:24:24.923Z</time></trkpt><trkpt lat="37.3174983" lon="15.0109083"><ele>14.333333333333332</ele><time>2026-04-25T08:24:25.922Z</time></trkpt><trkpt lat="37.317615" lon="15.0111467"><ele>13.666666666666666</ele><time>2026-04-25T08:24:26.922Z</time></trkpt><trkpt lat="37.317715" lon="15.0113867"><ele>13.0</ele><time>2026-04-25T08:24:27.923Z</time></trkpt><trkpt lat="37.3178217" lon="15.0116267"><ele>13.0</ele><time>2026-04-25T08:24:28.923Z</time></trkpt><trkpt lat="37.3179183" lon="15.0118617"><ele>13.0</ele><time>2026-04-25T08:24:29.923Z</time></trkpt><trkpt lat="37.3180133" lon="15.0121033"><ele>13.0</ele><time>2026-04-25T08:24:30.922Z</time></trkpt><trkpt lat="37.3181" lon="15.0123333"><ele>13.666666666666666</ele><time>2026-04-25T08:24:31.923Z</time></trkpt><trkpt lat="37.3181867" lon="15.01255"><ele>14.333333333333332</ele><time>2026-04-25T08:24:32.922Z</time></trkpt><trkpt lat="37.3182833" lon="15.0127583"><ele>15.0</ele><time>2026-04-25T08:24:33.923Z</time></trkpt><trkpt lat="37.3183767" lon="15.0129667"><ele>15.0</ele><time>2026-04-25T08:24:34.923Z</time></trkpt><trkpt lat="37.3184683" lon="15.0131783"><ele>15.0</ele><time>2026-04-25T08:24:35.922Z</time></trkpt><trkpt lat="37.3185617" lon="15.0133983"><ele>15.0</ele><time>2026-04-25T08:24:36.922Z</time></trkpt><trkpt lat="37.31865" lon="15.01361"><ele>14.0</ele><time>2026-04-25T08:24:37.922Z</time></trkpt><trkpt lat="37.3187317" lon="15.0138083"><ele>13.0</ele><time>2026-04-25T08:24:38.921Z</time></trkpt><trkpt lat="37.3188117" lon="15.01401"><ele>12.0</ele><time>2026-04-25T08:24:39.922Z</time></trkpt><trkpt lat="37.3188967" lon="15.0142017"><ele>10.666666666666666</ele><time>2026-04-25T08:24:40.922Z</time></trkpt><trkpt lat="37.3189733" lon="15.014375"><ele>9.333333333333332</ele><time>2026-04-25T08:24:41.922Z</time></trkpt><trkpt lat="37.319045" lon="15.0145467"><ele>8.0</ele><time>2026-04-25T08:24:42.922Z</time></trkpt><trkpt lat="37.3191217" lon="15.0147133"><ele>8.0</ele><time>2026-04-25T08:24:43.921Z</time></trkpt><trkpt lat="37.3191867" lon="15.0148783"><ele>8.0</ele><time>2026-04-25T08:24:44.921Z</time></trkpt><trkpt lat="37.31926" lon="15.0150533"><ele>8.0</ele><time>2026-04-25T08:24:45.922Z</time></trkpt><trkpt lat="37.3193383" lon="15.015235"><ele>9.666666666666666</ele><time>2026-04-25T08:24:46.922Z</time></trkpt><trkpt lat="37.3194183" lon="15.01542"><ele>11.333333333333332</ele><time>2026-04-25T08:24:47.922Z</time></trkpt><trkpt lat="37.3195017" lon="15.01561"><ele>13.0</ele><time>2026-04-25T08:24:48.922Z</time></trkpt><trkpt lat="37.3195717" lon="15.0157933"><ele>14.0</ele><time>2026-04-25T08:24:49.922Z</time></trkpt><trkpt lat="37.3196317" lon="15.015975"><ele>15.0</ele><time>2026-04-25T08:24:50.922Z</time></trkpt><trkpt lat="37.3196967" lon="15.016165"><ele>16.0</ele><time>2026-04-25T08:24:51.922Z</time></trkpt><trkpt lat="37.319765" lon="15.01636"><ele>16.666666666666664</ele><time>2026-04-25T08:24:52.922Z</time></trkpt><trkpt lat="37.3198233" lon="15.016565"><ele>17.333333333333332</ele><time>2026-04-25T08:24:53.921Z</time></trkpt><trkpt lat="37.319875" lon="15.0167667"><ele>18.0</ele><time>2026-04-25T08:24:54.922Z</time></trkpt><trkpt lat="37.31992" lon="15.0169767"><ele>18.333333333333332</ele><time>2026-04-25T08:24:55.921Z</time></trkpt><trkpt lat="37.3199717" lon="15.0171917"><ele>18.666666666666664</ele><time>2026-04-25T08:24:56.922Z</time></trkpt><trkpt lat="37.320005" lon="15.0174167"><ele>19.0</ele><time>2026-04-25T08:24:57.922Z</time></trkpt><trkpt lat="37.3200367" lon="15.0176283"><ele>19.0</ele><time>2026-04-25T08:24:58.921Z</time></trkpt><trkpt lat="37.3200567" lon="15.0178433"><ele>19.0</ele><time>2026-04-25T08:24:59.922Z</time></trkpt><trkpt lat="37.3200667" lon="15.0180667"><ele>19.0</ele><time>2026-04-25T08:25:00.922Z</time></trkpt><trkpt lat="37.3200667" lon="15.0182867"><ele>19.0</ele><time>2026-04-25T08:25:01.921Z</time></trkpt><trkpt lat="37.32006" lon="15.0185033"><ele>19.0</ele><time>2026-04-25T08:25:02.921Z</time></trkpt><trkpt lat="37.320045" lon="15.018725"><ele>19.0</ele><time>2026-04-25T08:25:03.921Z</time></trkpt><trkpt lat="37.32002" lon="15.01894"><ele>18.333333333333332</ele><time>2026-04-25T08:25:04.922Z</time></trkpt><trkpt lat="37.3199883" lon="15.01916"><ele>17.666666666666668</ele><time>2026-04-25T08:25:05.922Z</time></trkpt><trkpt lat="37.31995" lon="15.0193767"><ele>17.0</ele><time>2026-04-25T08:25:06.921Z</time></trkpt><trkpt lat="37.3199017" lon="15.01959"><ele>17.0</ele><time>2026-04-25T08:25:07.921Z</time></trkpt><trkpt lat="37.3198417" lon="15.0198017"><ele>17.0</ele><time>2026-04-25T08:25:08.921Z</time></trkpt><trkpt lat="37.319775" lon="15.0200117"><ele>17.0</ele><time>2026-04-25T08:25:09.922Z</time></trkpt><trkpt lat="37.3197117" lon="15.0202133"><ele>15.333333333333334</ele><time>2026-04-25T08:25:10.921Z</time></trkpt><trkpt lat="37.3196417" lon="15.0204217"><ele>13.666666666666668</ele><time>2026-04-25T08:25:11.922Z</time></trkpt><trkpt lat="37.3195533" lon="15.0206283"><ele>12.0</ele><time>2026-04-25T08:25:12.921Z</time></trkpt><trkpt lat="37.319465" lon="15.0208333"><ele>11.666666666666666</ele><time>2026-04-25T08:25:13.922Z</time></trkpt><trkpt lat="37.3193817" lon="15.021035"><ele>11.333333333333332</ele><time>2026-04-25T08:25:14.922Z</time></trkpt><trkpt lat="37.3193033" lon="15.021225"><ele>11.0</ele><time>2026-04-25T08:25:15.922Z</time></trkpt><trkpt lat="37.31923" lon="15.02141"><ele>11.0</ele><time>2026-04-25T08:25:16.922Z</time></trkpt><trkpt lat="37.3191567" lon="15.021585"><ele>11.0</ele><time>2026-04-25T08:25:17.922Z</time></trkpt><trkpt lat="37.3190833" lon="15.02176"><ele>11.0</ele><time>2026-04-25T08:25:18.922Z</time></trkpt><trkpt lat="37.319005" lon="15.0219367"><ele>10.666666666666666</ele><time>2026-04-25T08:25:19.922Z</time></trkpt><trkpt lat="37.31893" lon="15.0221217"><ele>10.333333333333334</ele><time>2026-04-25T08:25:20.922Z</time></trkpt><trkpt lat="37.318855" lon="15.022305"><ele>10.0</ele><time>2026-04-25T08:25:21.922Z</time></trkpt><trkpt lat="37.3187767" lon="15.0224967"><ele>9.666666666666668</ele><time>2026-04-25T08:25:22.921Z</time></trkpt><trkpt lat="37.3187017" lon="15.02269"><ele>9.333333333333334</ele><time>2026-04-25T08:25:23.921Z</time></trkpt><trkpt lat="37.3186283" lon="15.02288"><ele>9.0</ele><time>2026-04-25T08:25:24.921Z</time></trkpt><trkpt lat="37.3185617" lon="15.0230717"><ele>9.0</ele><time>2026-04-25T08:25:25.922Z</time></trkpt><trkpt lat="37.3184867" lon="15.0232733"><ele>9.0</ele><time>2026-04-25T08:25:26.922Z</time></trkpt><trkpt lat="37.318425" lon="15.0234867"><ele>9.0</ele><time>2026-04-25T08:25:27.922Z</time></trkpt><trkpt lat="37.3183617" lon="15.0236833"><ele>9.333333333333334</ele><time>2026-04-25T08:25:28.922Z</time></trkpt><trkpt lat="37.3183" lon="15.023895"><ele>9.666666666666668</ele><time>2026-04-25T08:25:29.922Z</time></trkpt><trkpt lat="37.318235" lon="15.02411"><ele>10.0</ele><time>2026-04-25T08:25:30.921Z</time></trkpt><trkpt lat="37.3181833" lon="15.0243283"><ele>10.0</ele><time>2026-04-25T08:25:31.921Z</time></trkpt><trkpt lat="37.31814" lon="15.024555"><ele>10.0</ele><time>2026-04-25T08:25:32.922Z</time></trkpt><trkpt lat="37.31811" lon="15.0247833"><ele>10.0</ele><time>2026-04-25T08:25:33.922Z</time></trkpt><trkpt lat="37.3180817" lon="15.0250283"><ele>10.333333333333334</ele><time>2026-04-25T08:25:34.922Z</time></trkpt><trkpt lat="37.31806" lon="15.0252667"><ele>10.666666666666666</ele><time>2026-04-25T08:25:35.922Z</time></trkpt><trkpt lat="37.3180483" lon="15.0255083"><ele>11.0</ele><time>2026-04-25T08:25:36.922Z</time></trkpt><trkpt lat="37.3180517" lon="15.0257283"><ele>10.666666666666666</ele><time>2026-04-25T08:25:37.921Z</time></trkpt><trkpt lat="37.3180567" lon="15.0259533"><ele>10.333333333333334</ele><time>2026-04-25T08:25:38.922Z</time></trkpt><trkpt lat="37.3180717" lon="15.0261783"><ele>10.0</ele><time>2026-04-25T08:25:39.921Z</time></trkpt><trkpt lat="37.3180867" lon="15.0264067"><ele>9.666666666666668</ele><time>2026-04-25T08:25:40.922Z</time></trkpt><trkpt lat="37.3181117" lon="15.0266267"><ele>9.333333333333334</ele><time>2026-04-25T08:25:41.922Z</time></trkpt><trkpt lat="37.3181417" lon="15.02685"><ele>9.0</ele><time>2026-04-25T08:25:42.921Z</time></trkpt><trkpt lat="37.3181767" lon="15.02707"><ele>9.0</ele><time>2026-04-25T08:25:43.922Z</time></trkpt><trkpt lat="37.3182133" lon="15.0272883"><ele>9.0</ele><time>2026-04-25T08:25:44.921Z</time></trkpt><trkpt lat="37.3182517" lon="15.0275067"><ele>9.0</ele><time>2026-04-25T08:25:45.921Z</time></trkpt><trkpt lat="37.3183" lon="15.0277183"><ele>9.0</ele><time>2026-04-25T08:25:46.922Z</time></trkpt><trkpt lat="37.3183517" lon="15.0279383"><ele>9.0</ele><time>2026-04-25T08:25:47.921Z</time></trkpt><trkpt lat="37.3184083" lon="15.02816"><ele>9.0</ele><time>2026-04-25T08:25:48.921Z</time></trkpt><trkpt lat="37.3184667" lon="15.0283883"><ele>9.666666666666666</ele><time>2026-04-25T08:25:49.922Z</time></trkpt><trkpt lat="37.31853" lon="15.0286183"><ele>10.333333333333332</ele><time>2026-04-25T08:25:50.921Z</time></trkpt><trkpt lat="37.3185883" lon="15.0288467"><ele>11.0</ele><time>2026-04-25T08:25:51.921Z</time></trkpt><trkpt lat="37.3186517" lon="15.02908"><ele>11.666666666666666</ele><time>2026-04-25T08:25:52.921Z</time></trkpt><trkpt lat="37.31872" lon="15.0293067"><ele>12.333333333333332</ele><time>2026-04-25T08:25:53.921Z</time></trkpt><trkpt lat="37.3187783" lon="15.0295317"><ele>13.0</ele><time>2026-04-25T08:25:54.922Z</time></trkpt><trkpt lat="37.3188467" lon="15.0297567"><ele>13.666666666666666</ele><time>2026-04-25T08:25:55.922Z</time></trkpt><trkpt lat="37.31891" lon="15.0299867"><ele>14.333333333333332</ele><time>2026-04-25T08:25:56.921Z</time></trkpt><trkpt lat="37.3189667" lon="15.0302117"><ele>15.0</ele><time>2026-04-25T08:25:57.922Z</time></trkpt><trkpt lat="37.3190267" lon="15.0304317"><ele>15.0</ele><time>2026-04-25T08:25:58.922Z</time></trkpt><trkpt lat="37.3190967" lon="15.0306633"><ele>15.0</ele><time>2026-04-25T08:25:59.921Z</time></trkpt><trkpt lat="37.3191633" lon="15.0308983"><ele>15.0</ele><time>2026-04-25T08:26:00.922Z</time></trkpt><trkpt lat="37.31922" lon="15.0311333"><ele>16.0</ele><time>2026-04-25T08:26:01.921Z</time></trkpt><trkpt lat="37.3192867" lon="15.0313733"><ele>17.0</ele><time>2026-04-25T08:26:02.921Z</time></trkpt><trkpt lat="37.319355" lon="15.0316167"><ele>18.0</ele><time>2026-04-25T08:26:03.921Z</time></trkpt><trkpt lat="37.3194267" lon="15.0318633"><ele>19.333333333333332</ele><time>2026-04-25T08:26:04.922Z</time></trkpt><trkpt lat="37.3194883" lon="15.0321083"><ele>20.666666666666664</ele><time>2026-04-25T08:26:05.921Z</time></trkpt><trkpt lat="37.3195417" lon="15.0323583"><ele>22.0</ele><time>2026-04-25T08:26:06.921Z</time></trkpt><trkpt lat="37.3195967" lon="15.0326117"><ele>22.333333333333332</ele><time>2026-04-25T08:26:07.922Z</time></trkpt><trkpt lat="37.3196533" lon="15.03286"><ele>22.666666666666668</ele><time>2026-04-25T08:26:08.922Z</time></trkpt><trkpt lat="37.31971" lon="15.0331017"><ele>23.0</ele><time>2026-04-25T08:26:09.921Z</time></trkpt><trkpt lat="37.3197717" lon="15.0333367"><ele>24.333333333333336</ele><time>2026-04-25T08:26:10.922Z</time></trkpt><trkpt lat="37.3198317" lon="15.0335683"><ele>25.666666666666668</ele><time>2026-04-25T08:26:11.921Z</time></trkpt><trkpt lat="37.3198933" lon="15.0337933"><ele>27.0</ele><time>2026-04-25T08:26:12.922Z</time></trkpt><trkpt lat="37.3199467" lon="15.03401"><ele>27.0</ele><time>2026-04-25T08:26:13.922Z</time></trkpt><trkpt lat="37.3200033" lon="15.0342217"><ele>27.0</ele><time>2026-04-25T08:26:14.922Z</time></trkpt><trkpt lat="37.3200583" lon="15.0344267"><ele>27.0</ele><time>2026-04-25T08:26:15.921Z</time></trkpt><trkpt lat="37.3201067" lon="15.0346217"><ele>27.0</ele><time>2026-04-25T08:26:16.921Z</time></trkpt><trkpt lat="37.320155" lon="15.0348117"><ele>27.0</ele><time>2026-04-25T08:26:17.922Z</time></trkpt><trkpt lat="37.3202017" lon="15.035"><ele>27.0</ele><time>2026-04-25T08:26:18.922Z</time></trkpt><trkpt lat="37.3202417" lon="15.0351883"><ele>27.333333333333336</ele><time>2026-04-25T08:26:19.921Z</time></trkpt><trkpt lat="37.3202633" lon="15.0353767"><ele>27.666666666666668</ele><time>2026-04-25T08:26:20.921Z</time></trkpt><trkpt lat="37.3202833" lon="15.0355733"><ele>28.0</ele><time>2026-04-25T08:26:21.921Z</time></trkpt><trkpt lat="37.3202933" lon="15.0357617"><ele>28.666666666666668</ele><time>2026-04-25T08:26:22.921Z</time></trkpt><trkpt lat="37.3202933" lon="15.035945"><ele>29.333333333333336</ele><time>2026-04-25T08:26:23.922Z</time></trkpt><trkpt lat="37.3202933" lon="15.036135"><ele>30.0</ele><time>2026-04-25T08:26:24.922Z</time></trkpt><trkpt lat="37.32028" lon="15.0363267"><ele>30.0</ele><time>2026-04-25T08:26:25.921Z</time></trkpt><trkpt lat="37.3202583" lon="15.0365183"><ele>30.0</ele><time>2026-04-25T08:26:26.921Z</time></trkpt><trkpt lat="37.32022" lon="15.0367133"><ele>30.0</ele><time>2026-04-25T08:26:27.922Z</time></trkpt><trkpt lat="37.320175" lon="15.0369067"><ele>30.0</ele><time>2026-04-25T08:26:28.921Z</time></trkpt><trkpt lat="37.3201033" lon="15.0370917"><ele>30.0</ele><time>2026-04-25T08:26:29.922Z</time></trkpt><trkpt lat="37.3200283" lon="15.0372717"><ele>30.0</ele><time>2026-04-25T08:26:30.922Z</time></trkpt><trkpt lat="37.3199633" lon="15.037425"><ele>29.5</ele><time>2026-04-25T08:26:31.922Z</time></trkpt><trkpt lat="37.3199083" lon="15.037575"><ele>29.0</ele><time>2026-04-25T08:26:32.922Z</time></trkpt><trkpt lat="37.3198667" lon="15.0377233"><ele>28.5</ele><time>2026-04-25T08:26:33.921Z</time></trkpt><trkpt lat="37.31984" lon="15.037875"><ele>28.0</ele><time>2026-04-25T08:26:34.922Z</time></trkpt><trkpt lat="37.3198383" lon="15.0380267"><ele>28.0</ele><time>2026-04-25T08:26:35.921Z</time></trkpt><trkpt lat="37.3198517" lon="15.0381733"><ele>28.0</ele><time>2026-04-25T08:26:36.921Z</time></trkpt><trkpt lat="37.31989" lon="15.0383167"><ele>28.0</ele><time>2026-04-25T08:26:37.922Z</time></trkpt><trkpt lat="37.319945" lon="15.0384467"><ele>28.0</ele><time>2026-04-25T08:26:38.921Z</time></trkpt><trkpt lat="37.3200217" lon="15.0385683"><ele>29.25</ele><time>2026-04-25T08:26:39.922Z</time></trkpt><trkpt lat="37.3201017" lon="15.03869"><ele>30.5</ele><time>2026-04-25T08:26:40.922Z</time></trkpt><trkpt lat="37.3201967" lon="15.038815"><ele>31.75</ele><time>2026-04-25T08:26:41.921Z</time></trkpt><trkpt lat="37.3203033" lon="15.03894"><ele>33.0</ele><time>2026-04-25T08:26:42.922Z</time></trkpt><trkpt lat="37.3204083" lon="15.039065"><ele>33.333333333333336</ele><time>2026-04-25T08:26:43.922Z</time></trkpt><trkpt lat="37.3205233" lon="15.0391933"><ele>33.66666666666667</ele><time>2026-04-25T08:26:44.922Z</time></trkpt><trkpt lat="37.3206467" lon="15.039315"><ele>34.0</ele><time>2026-04-25T08:26:45.922Z</time></trkpt><trkpt lat="37.32078" lon="15.039435"><ele>34.0</ele><time>2026-04-25T08:26:46.922Z</time></trkpt><trkpt lat="37.3209183" lon="15.039545"><ele>34.0</ele><time>2026-04-25T08:26:47.922Z</time></trkpt><trkpt lat="37.3210583" lon="15.0396617"><ele>34.0</ele><time>2026-04-25T08:26:48.922Z</time></trkpt><trkpt lat="37.3212067" lon="15.0397817"><ele>34.0</ele><time>2026-04-25T08:26:49.922Z</time></trkpt><trkpt lat="37.3213533" lon="15.0399083"><ele>34.0</ele><time>2026-04-25T08:26:50.922Z</time></trkpt><trkpt lat="37.3215083" lon="15.0400367"><ele>34.0</ele><time>2026-04-25T08:26:51.921Z</time></trkpt><trkpt lat="37.3216583" lon="15.0401633"><ele>33.0</ele><time>2026-04-25T08:26:52.922Z</time></trkpt><trkpt lat="37.3218083" lon="15.0402883"><ele>32.0</ele><time>2026-04-25T08:26:53.922Z</time></trkpt><trkpt lat="37.321955" lon="15.0404167"><ele>31.0</ele><time>2026-04-25T08:26:54.922Z</time></trkpt><trkpt lat="37.3221083" lon="15.040545"><ele>31.0</ele><time>2026-04-25T08:26:55.921Z</time></trkpt><trkpt lat="37.3222667" lon="15.04068"><ele>31.0</ele><time>2026-04-25T08:26:56.921Z</time></trkpt><trkpt lat="37.3224233" lon="15.0408167"><ele>31.0</ele><time>2026-04-25T08:26:57.922Z</time></trkpt><trkpt lat="37.3225867" lon="15.0409533"><ele>30.333333333333336</ele><time>2026-04-25T08:26:58.922Z</time></trkpt><trkpt lat="37.3227517" lon="15.0410883"><ele>29.666666666666664</ele><time>2026-04-25T08:26:59.922Z</time></trkpt><trkpt lat="37.3229133" lon="15.0412183"><ele>29.0</ele><time>2026-04-25T08:27:00.922Z</time></trkpt><trkpt lat="37.32306" lon="15.0413533"><ele>29.333333333333332</ele><time>2026-04-25T08:27:01.922Z</time></trkpt><trkpt lat="37.3232133" lon="15.0414833"><ele>29.666666666666664</ele><time>2026-04-25T08:27:02.921Z</time></trkpt><trkpt lat="37.323375" lon="15.0416167"><ele>30.0</ele><time>2026-04-25T08:27:03.922Z</time></trkpt><trkpt lat="37.323535" lon="15.0417533"><ele>29.666666666666664</ele><time>2026-04-25T08:27:04.922Z</time></trkpt><trkpt lat="37.3236983" lon="15.0418867"><ele>29.333333333333332</ele><time>2026-04-25T08:27:05.921Z</time></trkpt><trkpt lat="37.3238633" lon="15.0420217"><ele>29.0</ele><time>2026-04-25T08:27:06.921Z</time></trkpt><trkpt lat="37.32403" lon="15.04216"><ele>29.0</ele><time>2026-04-25T08:27:07.921Z</time></trkpt><trkpt lat="37.3241967" lon="15.0423"><ele>29.0</ele><time>2026-04-25T08:27:08.921Z</time></trkpt><trkpt lat="37.3243583" lon="15.042445"><ele>29.0</ele><time>2026-04-25T08:27:09.922Z</time></trkpt><trkpt lat="37.32452" lon="15.0425783"><ele>28.666666666666664</ele><time>2026-04-25T08:27:10.922Z</time></trkpt><trkpt lat="37.32468" lon="15.0427217"><ele>28.333333333333336</ele><time>2026-04-25T08:27:11.922Z</time></trkpt><trkpt lat="37.32484" lon="15.04286"><ele>28.0</ele><time>2026-04-25T08:27:12.921Z</time></trkpt><trkpt lat="37.324995" lon="15.043"><ele>28.0</ele><time>2026-04-25T08:27:13.921Z</time></trkpt><trkpt lat="37.3251583" lon="15.04314"><ele>28.0</ele><time>2026-04-25T08:27:14.922Z</time></trkpt><trkpt lat="37.3253183" lon="15.0432817"><ele>28.0</ele><time>2026-04-25T08:27:15.922Z</time></trkpt><trkpt lat="37.32548" lon="15.04342"><ele>28.0</ele><time>2026-04-25T08:27:16.922Z</time></trkpt><trkpt lat="37.32564" lon="15.0435533"><ele>28.0</ele><time>2026-04-25T08:27:17.922Z</time></trkpt><trkpt lat="37.3258033" lon="15.0436917"><ele>28.0</ele><time>2026-04-25T08:27:18.922Z</time></trkpt><trkpt lat="37.32596" lon="15.0438183"><ele>28.0</ele><time>2026-04-25T08:27:19.922Z</time></trkpt><trkpt lat="37.3261167" lon="15.0439433"><ele>28.0</ele><time>2026-04-25T08:27:20.922Z</time></trkpt><trkpt lat="37.32627" lon="15.044065"><ele>28.0</ele><time>2026-04-25T08:27:21.921Z</time></trkpt><trkpt lat="37.3264383" lon="15.0441683"><ele>25.333333333333336</ele><time>2026-04-25T08:27:22.922Z</time></trkpt><trkpt lat="37.3266083" lon="15.04426"><ele>22.666666666666668</ele><time>2026-04-25T08:27:23.921Z</time></trkpt><trkpt lat="37.326785" lon="15.044335"><ele>20.0</ele><time>2026-04-25T08:27:24.922Z</time></trkpt><trkpt lat="37.326955" lon="15.04439"><ele>20.0</ele><time>2026-04-25T08:27:25.922Z</time></trkpt><trkpt lat="37.3271317" lon="15.0444183"><ele>20.0</ele><time>2026-04-25T08:27:26.922Z</time></trkpt><trkpt lat="37.3273033" lon="15.0444233"><ele>20.0</ele><time>2026-04-25T08:27:27.922Z</time></trkpt><trkpt lat="37.3274433" lon="15.0444"><ele>20.0</ele><time>2026-04-25T08:27:28.922Z</time></trkpt><trkpt lat="37.3275767" lon="15.0443167"><ele>20.0</ele><time>2026-04-25T08:27:29.922Z</time></trkpt><trkpt lat="37.327685" lon="15.044205"><ele>20.0</ele><time>2026-04-25T08:27:30.922Z</time></trkpt><trkpt lat="37.3277667" lon="15.0440867"><ele>20.0</ele><time>2026-04-25T08:27:31.921Z</time></trkpt><trkpt lat="37.3278417" lon="15.0439483"><ele>21.0</ele><time>2026-04-25T08:27:32.921Z</time></trkpt><trkpt lat="37.3279117" lon="15.04382"><ele>22.0</ele><time>2026-04-25T08:27:33.922Z</time></trkpt><trkpt lat="37.3279883" lon="15.0436917"><ele>23.0</ele><time>2026-04-25T08:27:34.921Z</time></trkpt><trkpt lat="37.3280717" lon="15.043565"><ele>24.0</ele><time>2026-04-25T08:27:35.922Z</time></trkpt><trkpt lat="37.3281583" lon="15.0434333"><ele>24.333333333333336</ele><time>2026-04-25T08:27:36.922Z</time></trkpt><trkpt lat="37.328255" lon="15.0432983"><ele>24.666666666666668</ele><time>2026-04-25T08:27:37.922Z</time></trkpt><trkpt lat="37.32837" lon="15.0431717"><ele>25.0</ele><time>2026-04-25T08:27:38.922Z</time></trkpt><trkpt lat="37.3284933" lon="15.04305"><ele>24.333333333333336</ele><time>2026-04-25T08:27:39.921Z</time></trkpt><trkpt lat="37.3286317" lon="15.0429317"><ele>23.666666666666668</ele><time>2026-04-25T08:27:40.921Z</time></trkpt><trkpt lat="37.3287733" lon="15.0428383"><ele>23.0</ele><time>2026-04-25T08:27:41.921Z</time></trkpt><trkpt lat="37.3289317" lon="15.0427567"><ele>23.0</ele><time>2026-04-25T08:27:42.921Z</time></trkpt><trkpt lat="37.3290967" lon="15.0426833"><ele>23.0</ele><time>2026-04-25T08:27:43.922Z</time></trkpt><trkpt lat="37.329265" lon="15.0426333"><ele>23.0</ele><time>2026-04-25T08:27:44.922Z</time></trkpt><trkpt lat="37.3294517" lon="15.0426017"><ele>23.0</ele><time>2026-04-25T08:27:45.922Z</time></trkpt><trkpt lat="37.329635" lon="15.0425867"><ele>23.0</ele><time>2026-04-25T08:27:46.922Z</time></trkpt><trkpt lat="37.3298283" lon="15.0425733"><ele>23.0</ele><time>2026-04-25T08:27:47.922Z</time></trkpt><trkpt lat="37.3300317" lon="15.0425567"><ele>20.0</ele><time>2026-04-25T08:27:48.922Z</time></trkpt><trkpt lat="37.330235" lon="15.0425383"><ele>17.0</ele><time>2026-04-25T08:27:49.922Z</time></trkpt><trkpt lat="37.3304467" lon="15.0425183"><ele>14.0</ele><time>2026-04-25T08:27:50.921Z</time></trkpt><trkpt lat="37.3306533" lon="15.04249"><ele>14.0</ele><time>2026-04-25T08:27:51.922Z</time></trkpt><trkpt lat="37.3308683" lon="15.04246"><ele>14.0</ele><time>2026-04-25T08:27:52.921Z</time></trkpt><trkpt lat="37.33108" lon="15.0424317"><ele>14.0</ele><time>2026-04-25T08:27:53.922Z</time></trkpt><trkpt lat="37.3312883" lon="15.042415"><ele>15.0</ele><time>2026-04-25T08:27:54.922Z</time></trkpt><trkpt lat="37.3315033" lon="15.0423983"><ele>16.0</ele><time>2026-04-25T08:27:55.921Z</time></trkpt><trkpt lat="37.3317167" lon="15.0423767"><ele>17.0</ele><time>2026-04-25T08:27:56.922Z</time></trkpt><trkpt lat="37.3319367" lon="15.0423583"><ele>17.0</ele><time>2026-04-25T08:27:57.921Z</time></trkpt><trkpt lat="37.3321583" lon="15.0423383"><ele>17.0</ele><time>2026-04-25T08:27:58.922Z</time></trkpt><trkpt lat="37.332385" lon="15.042315"><ele>15.5</ele><time>2026-04-25T08:27:59.922Z</time></trkpt><trkpt lat="37.3326117" lon="15.0422883"><ele>14.0</ele><time>2026-04-25T08:28:00.922Z</time></trkpt><trkpt lat="37.3328367" lon="15.0422683"><ele>10.5</ele><time>2026-04-25T08:28:01.922Z</time></trkpt><trkpt lat="37.33307" lon="15.0422433"><ele>7.0</ele><time>2026-04-25T08:28:02.922Z</time></trkpt><trkpt lat="37.333315" lon="15.042225"><ele>7.0</ele><time>2026-04-25T08:28:03.922Z</time></trkpt><trkpt lat="37.33355" lon="15.042205"><ele>7.0</ele><time>2026-04-25T08:28:04.922Z</time></trkpt><trkpt lat="37.33379" lon="15.0421867"><ele>5.0</ele><time>2026-04-25T08:28:05.921Z</time></trkpt><trkpt lat="37.334035" lon="15.0421633"><ele>3.0</ele><time>2026-04-25T08:28:06.922Z</time></trkpt><trkpt lat="37.3342767" lon="15.04214"><ele>3.0</ele><time>2026-04-25T08:28:07.921Z</time></trkpt><trkpt lat="37.3345233" lon="15.0421167"><ele>3.0</ele><time>2026-04-25T08:28:08.922Z</time></trkpt><trkpt lat="37.3347733" lon="15.04209"><ele>2.0</ele><time>2026-04-25T08:28:09.921Z</time></trkpt><trkpt lat="37.3350167" lon="15.042065"><ele>1.0</ele><time>2026-04-25T08:28:10.921Z</time></trkpt><trkpt lat="37.3352717" lon="15.0420367"><ele>1.0</ele><time>2026-04-25T08:28:11.922Z</time></trkpt><trkpt lat="37.3355183" lon="15.042015"><ele>1.0</ele><time>2026-04-25T08:28:12.922Z</time></trkpt><trkpt lat="37.3357717" lon="15.041995"><ele>2.0</ele><time>2026-04-25T08:28:13.922Z</time></trkpt><trkpt lat="37.3360333" lon="15.0419733"><ele>3.0</ele><time>2026-04-25T08:28:14.922Z</time></trkpt><trkpt lat="37.3362783" lon="15.0419533"><ele>4.0</ele><time>2026-04-25T08:28:15.921Z</time></trkpt><trkpt lat="37.3365283" lon="15.0419333"><ele>5.0</ele><time>2026-04-25T08:28:16.922Z</time></trkpt><trkpt lat="37.3367733" lon="15.0419067"><ele>5.0</ele><time>2026-04-25T08:28:17.921Z</time></trkpt><trkpt lat="37.3370217" lon="15.0418783"><ele>5.0</ele><time>2026-04-25T08:28:18.922Z</time></trkpt><trkpt lat="37.33727" lon="15.0418517"><ele>4.0</ele><time>2026-04-25T08:28:19.922Z</time></trkpt><trkpt lat="37.3375167" lon="15.04183"><ele>3.0</ele><time>2026-04-25T08:28:20.921Z</time></trkpt><trkpt lat="37.337765" lon="15.0418167"><ele>3.0</ele><time>2026-04-25T08:28:21.922Z</time></trkpt><trkpt lat="37.33801" lon="15.0417967"><ele>3.0</ele><time>2026-04-25T08:28:22.921Z</time></trkpt><trkpt lat="37.338265" lon="15.04178"><ele>3.5</ele><time>2026-04-25T08:28:23.921Z</time></trkpt><trkpt lat="37.3384983" lon="15.0417617"><ele>4.0</ele><time>2026-04-25T08:28:24.921Z</time></trkpt><trkpt lat="37.33873" lon="15.0417467"><ele>4.0</ele><time>2026-04-25T08:28:25.922Z</time></trkpt><trkpt lat="37.3389667" lon="15.0417317"><ele>4.0</ele><time>2026-04-25T08:28:26.922Z</time></trkpt><trkpt lat="37.3392033" lon="15.041725"><ele>4.0</ele><time>2026-04-25T08:28:27.922Z</time></trkpt><trkpt lat="37.3394433" lon="15.041715"><ele>4.0</ele><time>2026-04-25T08:28:28.921Z</time></trkpt><trkpt lat="37.3396833" lon="15.0417167"><ele>4.0</ele><time>2026-04-25T08:28:29.921Z</time></trkpt><trkpt lat="37.3399183" lon="15.0417283"><ele>4.0</ele><time>2026-04-25T08:28:30.921Z</time></trkpt><trkpt lat="37.340155" lon="15.0417433"><ele>4.0</ele><time>2026-04-25T08:28:31.922Z</time></trkpt><trkpt lat="37.340385" lon="15.0417633"><ele>4.0</ele><time>2026-04-25T08:28:32.921Z</time></trkpt><trkpt lat="37.3406233" lon="15.0417883"><ele>3.0</ele><time>2026-04-25T08:28:33.922Z</time></trkpt><trkpt lat="37.34086" lon="15.041815"><ele>2.0</ele><time>2026-04-25T08:28:34.921Z</time></trkpt><trkpt lat="37.341095" lon="15.041845"><ele>2.0</ele><time>2026-04-25T08:28:35.922Z</time></trkpt><trkpt lat="37.34133" lon="15.04188"><ele>2.0</ele><time>2026-04-25T08:28:36.921Z</time></trkpt><trkpt lat="37.341565" lon="15.0419233"><ele>2.0</ele><time>2026-04-25T08:28:37.922Z</time></trkpt><trkpt lat="37.3417917" lon="15.041975"><ele>2.0</ele><time>2026-04-25T08:28:38.921Z</time></trkpt><trkpt lat="37.3420267" lon="15.0420217"><ele>3.5</ele><time>2026-04-25T08:28:39.922Z</time></trkpt><trkpt lat="37.34225" lon="15.0420817"><ele>5.0</ele><time>2026-04-25T08:28:40.922Z</time></trkpt><trkpt lat="37.3424733" lon="15.0421467"><ele>5.0</ele><time>2026-04-25T08:28:41.921Z</time></trkpt><trkpt lat="37.3427033" lon="15.0422167"><ele>5.0</ele><time>2026-04-25T08:28:42.922Z</time></trkpt><trkpt lat="37.3429317" lon="15.0422917"><ele>7.0</ele><time>2026-04-25T08:28:43.922Z</time></trkpt><trkpt lat="37.34316" lon="15.04237"><ele>9.0</ele><time>2026-04-25T08:28:44.922Z</time></trkpt><trkpt lat="37.3433833" lon="15.0424483"><ele>6.0</ele><time>2026-04-25T08:28:45.921Z</time></trkpt><trkpt lat="37.3436117" lon="15.0425283"><ele>3.0</ele><time>2026-04-25T08:28:46.922Z</time></trkpt><trkpt lat="37.3438383" lon="15.042615"><ele>4.5</ele><time>2026-04-25T08:28:47.922Z</time></trkpt><trkpt lat="37.3440667" lon="15.0427067"><ele>6.0</ele><time>2026-04-25T08:28:48.922Z</time></trkpt><trkpt lat="37.3442883" lon="15.0428067"><ele>6.0</ele><time>2026-04-25T08:28:49.922Z</time></trkpt><trkpt lat="37.344505" lon="15.0429033"><ele>6.0</ele><time>2026-04-25T08:28:50.921Z</time></trkpt><trkpt lat="37.3447333" lon="15.0430033"><ele>6.0</ele><time>2026-04-25T08:28:51.922Z</time></trkpt><trkpt lat="37.3449633" lon="15.0431"><ele>6.0</ele><time>2026-04-25T08:28:52.921Z</time></trkpt><trkpt lat="37.3451867" lon="15.0432017"><ele>4.5</ele><time>2026-04-25T08:28:53.921Z</time></trkpt><trkpt lat="37.3454133" lon="15.0433033"><ele>3.0</ele><time>2026-04-25T08:28:54.921Z</time></trkpt><trkpt lat="37.3456517" lon="15.0433967"><ele>3.0</ele><time>2026-04-25T08:28:55.922Z</time></trkpt><trkpt lat="37.3458783" lon="15.0434983"><ele>3.0</ele><time>2026-04-25T08:28:56.922Z</time></trkpt><trkpt lat="37.346105" lon="15.043605"><ele>3.0</ele><time>2026-04-25T08:28:57.921Z</time></trkpt><trkpt lat="37.3463367" lon="15.04371"><ele>3.0</ele><time>2026-04-25T08:28:58.921Z</time></trkpt><trkpt lat="37.3465717" lon="15.04381"><ele>3.0</ele><time>2026-04-25T08:28:59.921Z</time></trkpt><trkpt lat="37.3467983" lon="15.0439133"><ele>3.0</ele><time>2026-04-25T08:29:00.921Z</time></trkpt><trkpt lat="37.3470283" lon="15.0440067"><ele>3.0</ele><time>2026-04-25T08:29:01.922Z</time></trkpt><trkpt lat="37.347255" lon="15.0441033"><ele>3.0</ele><time>2026-04-25T08:29:02.921Z</time></trkpt><trkpt lat="37.3474783" lon="15.0442067"><ele>3.0</ele><time>2026-04-25T08:29:03.922Z</time></trkpt><trkpt lat="37.3477133" lon="15.0443083"><ele>3.0</ele><time>2026-04-25T08:29:04.921Z</time></trkpt><trkpt lat="37.3479417" lon="15.0444083"><ele>3.0</ele><time>2026-04-25T08:29:05.921Z</time></trkpt><trkpt lat="37.3481733" lon="15.0445083"><ele>3.0</ele><time>2026-04-25T08:29:06.922Z</time></trkpt><trkpt lat="37.3484083" lon="15.0446083"><ele>3.0</ele><time>2026-04-25T08:29:07.922Z</time></trkpt><trkpt lat="37.348635" lon="15.0447133"><ele>3.0</ele><time>2026-04-25T08:29:08.922Z</time></trkpt><trkpt lat="37.3488617" lon="15.0448183"><ele>3.5</ele><time>2026-04-25T08:29:09.922Z</time></trkpt><trkpt lat="37.34909" lon="15.0449233"><ele>4.0</ele><time>2026-04-25T08:29:10.921Z</time></trkpt><trkpt lat="37.3493233" lon="15.0450267"><ele>4.0</ele><time>2026-04-25T08:29:11.922Z</time></trkpt><trkpt lat="37.349555" lon="15.0451317"><ele>4.0</ele><time>2026-04-25T08:29:12.922Z</time></trkpt><trkpt lat="37.3497883" lon="15.0452333"><ele>4.0</ele><time>2026-04-25T08:29:13.921Z</time></trkpt><trkpt lat="37.35002" lon="15.0453433"><ele>4.0</ele><time>2026-04-25T08:29:14.922Z</time></trkpt><trkpt lat="37.3502567" lon="15.0454467"><ele>4.0</ele><time>2026-04-25T08:29:15.922Z</time></trkpt><trkpt lat="37.35049" lon="15.0455517"><ele>4.0</ele><time>2026-04-25T08:29:16.922Z</time></trkpt><trkpt lat="37.3507267" lon="15.0456467"><ele>3.5</ele><time>2026-04-25T08:29:17.922Z</time></trkpt><trkpt lat="37.350955" lon="15.045745"><ele>3.0</ele><time>2026-04-25T08:29:18.921Z</time></trkpt><trkpt lat="37.3511933" lon="15.0458467"><ele>4.0</ele><time>2026-04-25T08:29:19.922Z</time></trkpt><trkpt lat="37.3514333" lon="15.0459367"><ele>5.0</ele><time>2026-04-25T08:29:20.921Z</time></trkpt><trkpt lat="37.3516667" lon="15.046035"><ele>5.0</ele><time>2026-04-25T08:29:21.922Z</time></trkpt><trkpt lat="37.3519033" lon="15.0461317"><ele>5.0</ele><time>2026-04-25T08:29:22.921Z</time></trkpt><trkpt lat="37.3521317" lon="15.0462317"><ele>5.0</ele><time>2026-04-25T08:29:23.922Z</time></trkpt><trkpt lat="37.3523633" lon="15.046325"><ele>5.0</ele><time>2026-04-25T08:29:24.921Z</time></trkpt><trkpt lat="37.3525983" lon="15.046415"><ele>5.0</ele><time>2026-04-25T08:29:25.922Z</time></trkpt><trkpt lat="37.35283" lon="15.046505"><ele>5.0</ele><time>2026-04-25T08:29:26.922Z</time></trkpt><trkpt lat="37.3530683" lon="15.0465917"><ele>4.5</ele><time>2026-04-25T08:29:27.922Z</time></trkpt><trkpt lat="37.3533083" lon="15.046675"><ele>4.0</ele><time>2026-04-25T08:29:28.922Z</time></trkpt><trkpt lat="37.3535533" lon="15.0467583"><ele>4.0</ele><time>2026-04-25T08:29:29.921Z</time></trkpt><trkpt lat="37.3538" lon="15.046845"><ele>4.0</ele><time>2026-04-25T08:29:30.922Z</time></trkpt><trkpt lat="37.3540467" lon="15.0469117"><ele>4.0</ele><time>2026-04-25T08:29:31.921Z</time></trkpt><trkpt lat="37.3542883" lon="15.0469817"><ele>4.0</ele><time>2026-04-25T08:29:32.921Z</time></trkpt><trkpt lat="37.3545383" lon="15.04705"><ele>5.0</ele><time>2026-04-25T08:29:33.922Z</time></trkpt><trkpt lat="37.354785" lon="15.0471117"><ele>6.0</ele><time>2026-04-25T08:29:34.921Z</time></trkpt><trkpt lat="37.3550267" lon="15.0471667"><ele>6.0</ele><time>2026-04-25T08:29:35.922Z</time></trkpt><trkpt lat="37.355265" lon="15.04722"><ele>6.0</ele><time>2026-04-25T08:29:36.922Z</time></trkpt><trkpt lat="37.3555067" lon="15.0472733"><ele>6.5</ele><time>2026-04-25T08:29:37.922Z</time></trkpt><trkpt lat="37.3557433" lon="15.0473233"><ele>7.0</ele><time>2026-04-25T08:29:38.922Z</time></trkpt><trkpt lat="37.355975" lon="15.0473733"><ele>7.0</ele><time>2026-04-25T08:29:39.922Z</time></trkpt><trkpt lat="37.3562083" lon="15.0474117"><ele>7.0</ele><time>2026-04-25T08:29:40.921Z</time></trkpt><trkpt lat="37.356445" lon="15.0474467"><ele>6.0</ele><time>2026-04-25T08:29:41.922Z</time></trkpt><trkpt lat="37.3566733" lon="15.04748"><ele>5.0</ele><time>2026-04-25T08:29:42.921Z</time></trkpt><trkpt lat="37.3569083" lon="15.04751"><ele>5.0</ele><time>2026-04-25T08:29:43.921Z</time></trkpt><trkpt lat="37.3571433" lon="15.047535"><ele>5.0</ele><time>2026-04-25T08:29:44.922Z</time></trkpt><trkpt lat="37.3573767" lon="15.04756"><ele>6.0</ele><time>2026-04-25T08:29:45.922Z</time></trkpt><trkpt lat="37.357615" lon="15.047575"><ele>7.0</ele><time>2026-04-25T08:29:46.921Z</time></trkpt><trkpt lat="37.3578617" lon="15.047585"><ele>9.0</ele><time>2026-04-25T08:29:47.922Z</time></trkpt><trkpt lat="37.3581033" lon="15.0475983"><ele>11.0</ele><time>2026-04-25T08:29:48.921Z</time></trkpt><trkpt lat="37.3583467" lon="15.047605"><ele>11.0</ele><time>2026-04-25T08:29:49.922Z</time></trkpt><trkpt lat="37.3585883" lon="15.04761"><ele>11.0</ele><time>2026-04-25T08:29:50.922Z</time></trkpt><trkpt lat="37.3588317" lon="15.04761"><ele>14.5</ele><time>2026-04-25T08:29:51.922Z</time></trkpt><trkpt lat="37.3590767" lon="15.047605"><ele>18.0</ele><time>2026-04-25T08:29:52.922Z</time></trkpt><trkpt lat="37.359325" lon="15.0476033"><ele>18.0</ele><time>2026-04-25T08:29:53.922Z</time></trkpt><trkpt lat="37.359575" lon="15.0475867"><ele>18.0</ele><time>2026-04-25T08:29:54.922Z</time></trkpt><trkpt lat="37.3598183" lon="15.047575"><ele>20.5</ele><time>2026-04-25T08:29:55.922Z</time></trkpt><trkpt lat="37.360065" lon="15.0475567"><ele>23.0</ele><time>2026-04-25T08:29:56.921Z</time></trkpt><trkpt lat="37.36031" lon="15.0475317"><ele>24.0</ele><time>2026-04-25T08:29:57.922Z</time></trkpt><trkpt lat="37.3605483" lon="15.04751"><ele>25.0</ele><time>2026-04-25T08:29:58.922Z</time></trkpt><trkpt lat="37.3607867" lon="15.04748"><ele>28.0</ele><time>2026-04-25T08:29:59.922Z</time></trkpt><trkpt lat="37.3610283" lon="15.0474483"><ele>31.0</ele><time>2026-04-25T08:30:00.922Z</time></trkpt><trkpt lat="37.3612733" lon="15.04742"><ele>39.5</ele><time>2026-04-25T08:30:01.922Z</time></trkpt><trkpt lat="37.361515" lon="15.0474033"><ele>48.0</ele><time>2026-04-25T08:30:02.921Z</time></trkpt><trkpt lat="37.3617517" lon="15.0473833"><ele>48.0</ele><time>2026-04-25T08:30:03.922Z</time></trkpt><trkpt lat="37.36197" lon="15.0473467"><ele>48.0</ele><time>2026-04-25T08:30:04.922Z</time></trkpt><trkpt lat="37.3621733" lon="15.0473233"><ele>48.0</ele><time>2026-04-25T08:30:05.921Z</time></trkpt><trkpt lat="37.3624017" lon="15.0472983"><ele>53.5</ele><time>2026-04-25T08:30:06.921Z</time></trkpt><trkpt lat="37.3626283" lon="15.0472717"><ele>59.0</ele><time>2026-04-25T08:30:07.922Z</time></trkpt><trkpt lat="37.362855" lon="15.0472433"><ele>61.5</ele><time>2026-04-25T08:30:08.922Z</time></trkpt><trkpt lat="37.36308" lon="15.0472167"><ele>64.0</ele><time>2026-04-25T08:30:09.922Z</time></trkpt><trkpt lat="37.3872533" lon="15.0380483"><ele>35.0</ele><time>2026-04-25T08:31:51.927Z</time></trkpt><trkpt lat="37.3874883" lon="15.0379817"><ele>6.0</ele><time>2026-04-25T08:31:52.928Z</time></trkpt><trkpt lat="37.38772" lon="15.03791"><ele>6.0</ele><time>2026-04-25T08:31:53.928Z</time></trkpt><trkpt lat="37.387945" lon="15.0378283"><ele>6.0</ele><time>2026-04-25T08:31:54.928Z</time></trkpt><trkpt lat="37.3881733" lon="15.0377383"><ele>6.5</ele><time>2026-04-25T08:31:55.927Z</time></trkpt><trkpt lat="37.3884017" lon="15.0376567"><ele>7.0</ele><time>2026-04-25T08:31:56.927Z</time></trkpt><trkpt lat="37.388635" lon="15.0375733"><ele>7.0</ele><time>2026-04-25T08:31:57.928Z</time></trkpt><trkpt lat="37.3888717" lon="15.0374867"><ele>7.0</ele><time>2026-04-25T08:31:58.928Z</time></trkpt><trkpt lat="37.3891" lon="15.0374033"><ele>7.0</ele><time>2026-04-25T08:31:59.928Z</time></trkpt><trkpt lat="37.38933" lon="15.0373183"><ele>7.0</ele><time>2026-04-25T08:32:00.928Z</time></trkpt><trkpt lat="37.38956" lon="15.037235"><ele>7.5</ele><time>2026-04-25T08:32:01.927Z</time></trkpt><trkpt lat="37.3897833" lon="15.0371533"><ele>8.0</ele><time>2026-04-25T08:32:02.928Z</time></trkpt><trkpt lat="37.3900167" lon="15.0370783"><ele>8.0</ele><time>2026-04-25T08:32:03.928Z</time></trkpt><trkpt lat="37.3902417" lon="15.0369917"><ele>8.0</ele><time>2026-04-25T08:32:04.928Z</time></trkpt><trkpt lat="37.3904667" lon="15.0369067"><ele>7.5</ele><time>2026-04-25T08:32:05.928Z</time></trkpt><trkpt lat="37.3906917" lon="15.0368167"><ele>7.0</ele><time>2026-04-25T08:32:06.927Z</time></trkpt><trkpt lat="37.3909217" lon="15.0367317"><ele>7.0</ele><time>2026-04-25T08:32:07.927Z</time></trkpt><trkpt lat="37.3911517" lon="15.0366483"><ele>7.0</ele><time>2026-04-25T08:32:08.927Z</time></trkpt><trkpt lat="37.3913717" lon="15.0365617"><ele>7.0</ele><time>2026-04-25T08:32:09.927Z</time></trkpt><trkpt lat="37.3915917" lon="15.0364783"><ele>7.0</ele><time>2026-04-25T08:32:10.928Z</time></trkpt><trkpt lat="37.39182" lon="15.0363917"><ele>7.0</ele><time>2026-04-25T08:32:11.927Z</time></trkpt><trkpt lat="37.3920483" lon="15.036305"><ele>7.0</ele><time>2026-04-25T08:32:12.928Z</time></trkpt><trkpt lat="37.3922733" lon="15.0362217"><ele>6.5</ele><time>2026-04-25T08:32:13.928Z</time></trkpt><trkpt lat="37.3924983" lon="15.03614"><ele>6.0</ele><time>2026-04-25T08:32:14.928Z</time></trkpt><trkpt lat="37.3927267" lon="15.0360533"><ele>6.0</ele><time>2026-04-25T08:32:15.927Z</time></trkpt><trkpt lat="37.3929467" lon="15.0359683"><ele>6.0</ele><time>2026-04-25T08:32:16.928Z</time></trkpt><trkpt lat="37.39317" lon="15.0358867"><ele>6.5</ele><time>2026-04-25T08:32:17.927Z</time></trkpt><trkpt lat="37.393395" lon="15.0358117"><ele>7.0</ele><time>2026-04-25T08:32:18.928Z</time></trkpt><trkpt lat="37.3936133" lon="15.0357283"><ele>7.0</ele><time>2026-04-25T08:32:19.928Z</time></trkpt><trkpt lat="37.393835" lon="15.0356467"><ele>7.0</ele><time>2026-04-25T08:32:20.928Z</time></trkpt><trkpt lat="37.3940567" lon="15.0355667"><ele>7.5</ele><time>2026-04-25T08:32:21.927Z</time></trkpt><trkpt lat="37.394285" lon="15.0354767"><ele>8.0</ele><time>2026-04-25T08:32:22.928Z</time></trkpt><trkpt lat="37.3945067" lon="15.0354"><ele>8.5</ele><time>2026-04-25T08:32:23.928Z</time></trkpt><trkpt lat="37.394735" lon="15.0353133"><ele>9.0</ele><time>2026-04-25T08:32:24.928Z</time></trkpt><trkpt lat="37.39497" lon="15.0352317"><ele>9.0</ele><time>2026-04-25T08:32:25.928Z</time></trkpt><trkpt lat="37.3952067" lon="15.0351533"><ele>9.0</ele><time>2026-04-25T08:32:26.927Z</time></trkpt><trkpt lat="37.3954483" lon="15.035075"><ele>9.0</ele><time>2026-04-25T08:32:27.927Z</time></trkpt><trkpt lat="37.39568" lon="15.035"><ele>9.0</ele><time>2026-04-25T08:32:28.927Z</time></trkpt><trkpt lat="37.3959083" lon="15.0349267"><ele>9.0</ele><time>2026-04-25T08:32:29.927Z</time></trkpt><trkpt lat="37.39614" lon="15.0348467"><ele>9.0</ele><time>2026-04-25T08:32:30.928Z</time></trkpt><trkpt lat="37.396375" lon="15.0347717"><ele>8.5</ele><time>2026-04-25T08:32:31.928Z</time></trkpt><trkpt lat="37.396615" lon="15.0346917"><ele>8.0</ele><time>2026-04-25T08:32:32.928Z</time></trkpt><trkpt lat="37.3968467" lon="15.0346167"><ele>8.0</ele><time>2026-04-25T08:32:33.928Z</time></trkpt><trkpt lat="37.3970933" lon="15.0345483"><ele>8.0</ele><time>2026-04-25T08:32:34.928Z</time></trkpt><trkpt lat="37.3973333" lon="15.0344783"><ele>8.5</ele><time>2026-04-25T08:32:35.928Z</time></trkpt><trkpt lat="37.397575" lon="15.0344067"><ele>9.0</ele><time>2026-04-25T08:32:36.927Z</time></trkpt><trkpt lat="37.3978233" lon="15.0343383"><ele>9.0</ele><time>2026-04-25T08:32:37.927Z</time></trkpt><trkpt lat="37.3980567" lon="15.034265"><ele>9.0</ele><time>2026-04-25T08:32:38.927Z</time></trkpt><trkpt lat="37.3982883" lon="15.0342067"><ele>9.0</ele><time>2026-04-25T08:32:39.928Z</time></trkpt><trkpt lat="37.3985183" lon="15.0341517"><ele>9.0</ele><time>2026-04-25T08:32:40.927Z</time></trkpt><trkpt lat="37.3987483" lon="15.0340933"><ele>7.5</ele><time>2026-04-25T08:32:41.927Z</time></trkpt><trkpt lat="37.3989833" lon="15.03404"><ele>6.0</ele><time>2026-04-25T08:32:42.928Z</time></trkpt><trkpt lat="37.3992183" lon="15.033985"><ele>6.0</ele><time>2026-04-25T08:32:43.928Z</time></trkpt><trkpt lat="37.399465" lon="15.0339267"><ele>6.0</ele><time>2026-04-25T08:32:44.928Z</time></trkpt><trkpt lat="37.3997067" lon="15.0338733"><ele>6.5</ele><time>2026-04-25T08:32:45.927Z</time></trkpt><trkpt lat="37.39993" lon="15.0338167"><ele>7.0</ele><time>2026-04-25T08:32:46.927Z</time></trkpt><trkpt lat="37.4001583" lon="15.0337717"><ele>7.0</ele><time>2026-04-25T08:32:47.927Z</time></trkpt><trkpt lat="37.400395" lon="15.033725"><ele>7.0</ele><time>2026-04-25T08:32:48.927Z</time></trkpt><trkpt lat="37.40063" lon="15.0336767"><ele>8.0</ele><time>2026-04-25T08:32:49.928Z</time></trkpt><trkpt lat="37.4008667" lon="15.03363"><ele>9.0</ele><time>2026-04-25T08:32:50.928Z</time></trkpt><trkpt lat="37.4010933" lon="15.03359"><ele>9.0</ele><time>2026-04-25T08:32:51.928Z</time></trkpt><trkpt lat="37.4013317" lon="15.03353"><ele>9.0</ele><time>2026-04-25T08:32:52.927Z</time></trkpt><trkpt lat="37.4015717" lon="15.0334967"><ele>8.5</ele><time>2026-04-25T08:32:53.927Z</time></trkpt><trkpt lat="37.401815" lon="15.0334583"><ele>8.0</ele><time>2026-04-25T08:32:54.928Z</time></trkpt><trkpt lat="37.402055" lon="15.0334217"><ele>7.5</ele><time>2026-04-25T08:32:55.928Z</time></trkpt><trkpt lat="37.4022967" lon="15.0333917"><ele>7.0</ele><time>2026-04-25T08:32:56.928Z</time></trkpt><trkpt lat="37.402535" lon="15.0333517"><ele>7.0</ele><time>2026-04-25T08:32:57.928Z</time></trkpt><trkpt lat="37.4027733" lon="15.0333117"><ele>7.0</ele><time>2026-04-25T08:32:58.928Z</time></trkpt><trkpt lat="37.4030083" lon="15.0332733"><ele>7.0</ele><time>2026-04-25T08:32:59.928Z</time></trkpt><trkpt lat="37.403245" lon="15.03324"><ele>7.0</ele><time>2026-04-25T08:33:00.928Z</time></trkpt><trkpt lat="37.40348" lon="15.0332117"><ele>7.0</ele><time>2026-04-25T08:33:01.927Z</time></trkpt><trkpt lat="37.4037183" lon="15.0331783"><ele>7.0</ele><time>2026-04-25T08:33:02.928Z</time></trkpt><trkpt lat="37.403955" lon="15.033145"><ele>7.0</ele><time>2026-04-25T08:33:03.927Z</time></trkpt><trkpt lat="37.40419" lon="15.0331167"><ele>7.0</ele><time>2026-04-25T08:33:04.928Z</time></trkpt><trkpt lat="37.4044367" lon="15.0330917"><ele>7.5</ele><time>2026-04-25T08:33:05.928Z</time></trkpt><trkpt lat="37.4046717" lon="15.0330733"><ele>8.0</ele><time>2026-04-25T08:33:06.927Z</time></trkpt><trkpt lat="37.4049083" lon="15.0330383"><ele>8.0</ele><time>2026-04-25T08:33:07.927Z</time></trkpt><trkpt lat="37.40515" lon="15.03301"><ele>8.0</ele><time>2026-04-25T08:33:08.928Z</time></trkpt><trkpt lat="37.4054" lon="15.03297"><ele>8.0</ele><time>2026-04-25T08:33:09.928Z</time></trkpt><trkpt lat="37.405635" lon="15.0329517"><ele>8.0</ele><time>2026-04-25T08:33:10.927Z</time></trkpt><trkpt lat="37.405875" lon="15.0329183"><ele>8.0</ele><time>2026-04-25T08:33:11.928Z</time></trkpt><trkpt lat="37.40612" lon="15.0328967"><ele>8.0</ele><time>2026-04-25T08:33:12.927Z</time></trkpt><trkpt lat="37.4063617" lon="15.03287"><ele>8.5</ele><time>2026-04-25T08:33:13.928Z</time></trkpt><trkpt lat="37.4066" lon="15.03285"><ele>9.0</ele><time>2026-04-25T08:33:14.928Z</time></trkpt><trkpt lat="37.406845" lon="15.0328217"><ele>9.0</ele><time>2026-04-25T08:33:15.928Z</time></trkpt><trkpt lat="37.4070867" lon="15.0328017"><ele>9.0</ele><time>2026-04-25T08:33:16.928Z</time></trkpt><trkpt lat="37.4073333" lon="15.03277"><ele>10.0</ele><time>2026-04-25T08:33:17.928Z</time></trkpt><trkpt lat="37.4075717" lon="15.0327417"><ele>11.0</ele><time>2026-04-25T08:33:18.927Z</time></trkpt><trkpt lat="37.407815" lon="15.0327117"><ele>12.0</ele><time>2026-04-25T08:33:19.928Z</time></trkpt><trkpt lat="37.4080617" lon="15.032685"><ele>13.0</ele><time>2026-04-25T08:33:20.928Z</time></trkpt><trkpt lat="37.408305" lon="15.0326517"><ele>13.0</ele><time>2026-04-25T08:33:21.928Z</time></trkpt><trkpt lat="37.4085483" lon="15.032635"><ele>13.0</ele><time>2026-04-25T08:33:22.928Z</time></trkpt><trkpt lat="37.40879" lon="15.0326233"><ele>12.5</ele><time>2026-04-25T08:33:23.928Z</time></trkpt><trkpt lat="37.4090267" lon="15.0326133"><ele>12.0</ele><time>2026-04-25T08:33:24.927Z</time></trkpt><trkpt lat="37.4092583" lon="15.0326"><ele>12.0</ele><time>2026-04-25T08:33:25.927Z</time></trkpt><trkpt lat="37.409495" lon="15.03259"><ele>12.0</ele><time>2026-04-25T08:33:26.928Z</time></trkpt><trkpt lat="37.4097367" lon="15.032595"><ele>12.5</ele><time>2026-04-25T08:33:27.928Z</time></trkpt><trkpt lat="37.4099733" lon="15.0325917"><ele>13.0</ele><time>2026-04-25T08:33:28.927Z</time></trkpt><trkpt lat="37.41021" lon="15.032605"><ele>13.0</ele><time>2026-04-25T08:33:29.928Z</time></trkpt><trkpt lat="37.4104517" lon="15.0326267"><ele>13.0</ele><time>2026-04-25T08:33:30.928Z</time></trkpt><trkpt lat="37.41069" lon="15.0326367"><ele>12.5</ele><time>2026-04-25T08:33:31.927Z</time></trkpt><trkpt lat="37.4109333" lon="15.0326433"><ele>12.0</ele><time>2026-04-25T08:33:32.927Z</time></trkpt><trkpt lat="37.4111783" lon="15.0326533"><ele>12.0</ele><time>2026-04-25T08:33:33.927Z</time></trkpt><trkpt lat="37.411425" lon="15.032665"><ele>12.0</ele><time>2026-04-25T08:33:34.928Z</time></trkpt><trkpt lat="37.4116617" lon="15.0326883"><ele>12.0</ele><time>2026-04-25T08:33:35.928Z</time></trkpt><trkpt lat="37.411895" lon="15.032735"><ele>12.0</ele><time>2026-04-25T08:33:36.927Z</time></trkpt><trkpt lat="37.4121283" lon="15.0327717"><ele>11.5</ele><time>2026-04-25T08:33:37.928Z</time></trkpt><trkpt lat="37.4123617" lon="15.0328067"><ele>11.0</ele><time>2026-04-25T08:33:38.928Z</time></trkpt><trkpt lat="37.4125933" lon="15.032845"><ele>11.0</ele><time>2026-04-25T08:33:39.927Z</time></trkpt><trkpt lat="37.4128217" lon="15.03288"><ele>11.0</ele><time>2026-04-25T08:33:40.927Z</time></trkpt><trkpt lat="37.4130467" lon="15.032905"><ele>11.0</ele><time>2026-04-25T08:33:41.928Z</time></trkpt><trkpt lat="37.4132817" lon="15.03294"><ele>11.0</ele><time>2026-04-25T08:33:42.928Z</time></trkpt><trkpt lat="37.4135133" lon="15.0329717"><ele>11.0</ele><time>2026-04-25T08:33:43.927Z</time></trkpt><trkpt lat="37.4137483" lon="15.0330017"><ele>11.0</ele><time>2026-04-25T08:33:44.928Z</time></trkpt><trkpt lat="37.4139817" lon="15.0330317"><ele>10.5</ele><time>2026-04-25T08:33:45.927Z</time></trkpt><trkpt lat="37.4142117" lon="15.033065"><ele>10.0</ele><time>2026-04-25T08:33:46.927Z</time></trkpt><trkpt lat="37.41444" lon="15.0331033"><ele>9.0</ele><time>2026-04-25T08:33:47.927Z</time></trkpt><trkpt lat="37.4146733" lon="15.0331433"><ele>8.0</ele><time>2026-04-25T08:33:48.928Z</time></trkpt><trkpt lat="37.414905" lon="15.033185"><ele>8.0</ele><time>2026-04-25T08:33:49.927Z</time></trkpt><trkpt lat="37.4151433" lon="15.0332167"><ele>8.0</ele><time>2026-04-25T08:33:50.928Z</time></trkpt><trkpt lat="37.415385" lon="15.03326"><ele>6.5</ele><time>2026-04-25T08:33:51.928Z</time></trkpt><trkpt lat="37.415625" lon="15.0332867"><ele>5.0</ele><time>2026-04-25T08:33:52.928Z</time></trkpt><trkpt lat="37.415855" lon="15.033325"><ele>5.0</ele><time>2026-04-25T08:33:53.928Z</time></trkpt><trkpt lat="37.4160867" lon="15.033365"><ele>5.0</ele><time>2026-04-25T08:33:54.928Z</time></trkpt><trkpt lat="37.4163267" lon="15.0334083"><ele>7.0</ele><time>2026-04-25T08:33:55.927Z</time></trkpt><trkpt lat="37.4165667" lon="15.0334317"><ele>9.0</ele><time>2026-04-25T08:33:56.927Z</time></trkpt><trkpt lat="37.41681" lon="15.0334617"><ele>9.0</ele><time>2026-04-25T08:33:57.928Z</time></trkpt><trkpt lat="37.4170467" lon="15.0335033"><ele>9.0</ele><time>2026-04-25T08:33:58.928Z</time></trkpt><trkpt lat="37.417285" lon="15.0335383"><ele>11.5</ele><time>2026-04-25T08:33:59.928Z</time></trkpt><trkpt lat="37.4175183" lon="15.0335767"><ele>14.0</ele><time>2026-04-25T08:34:00.927Z</time></trkpt><trkpt lat="37.41775" lon="15.0336083"><ele>14.0</ele><time>2026-04-25T08:34:01.928Z</time></trkpt><trkpt lat="37.4179783" lon="15.033645"><ele>14.0</ele><time>2026-04-25T08:34:02.928Z</time></trkpt><trkpt lat="37.418205" lon="15.03368"><ele>12.5</ele><time>2026-04-25T08:34:03.927Z</time></trkpt><trkpt lat="37.418425" lon="15.0337083"><ele>11.0</ele><time>2026-04-25T08:34:04.928Z</time></trkpt><trkpt lat="37.4186533" lon="15.0337383"><ele>11.0</ele><time>2026-04-25T08:34:05.927Z</time></trkpt><trkpt lat="37.4188833" lon="15.033775"><ele>11.0</ele><time>2026-04-25T08:34:06.928Z</time></trkpt><trkpt lat="37.4191083" lon="15.03381"><ele>11.0</ele><time>2026-04-25T08:34:07.928Z</time></trkpt><trkpt lat="37.4193317" lon="15.0338417"><ele>11.0</ele><time>2026-04-25T08:34:08.928Z</time></trkpt><trkpt lat="37.4195583" lon="15.0338817"><ele>9.5</ele><time>2026-04-25T08:34:09.927Z</time></trkpt><trkpt lat="37.419785" lon="15.0339183"><ele>8.0</ele><time>2026-04-25T08:34:10.928Z</time></trkpt><trkpt lat="37.4200183" lon="15.0339417"><ele>8.0</ele><time>2026-04-25T08:34:11.927Z</time></trkpt><trkpt lat="37.4202467" lon="15.0339717"><ele>8.0</ele><time>2026-04-25T08:34:12.928Z</time></trkpt><trkpt lat="37.42048" lon="15.0340033"><ele>8.5</ele><time>2026-04-25T08:34:13.928Z</time></trkpt><trkpt lat="37.420715" lon="15.034035"><ele>9.0</ele><time>2026-04-25T08:34:14.928Z</time></trkpt><trkpt lat="37.4209533" lon="15.0340667"><ele>9.0</ele><time>2026-04-25T08:34:15.928Z</time></trkpt><trkpt lat="37.4211917" lon="15.0340883"><ele>9.0</ele><time>2026-04-25T08:34:16.928Z</time></trkpt><trkpt lat="37.4214333" lon="15.0341067"><ele>9.0</ele><time>2026-04-25T08:34:17.927Z</time></trkpt><trkpt lat="37.42168" lon="15.0341333"><ele>9.0</ele><time>2026-04-25T08:34:18.928Z</time></trkpt><trkpt lat="37.4219183" lon="15.0341483"><ele>8.5</ele><time>2026-04-25T08:34:19.928Z</time></trkpt><trkpt lat="37.422165" lon="15.03416"><ele>8.0</ele><time>2026-04-25T08:34:20.928Z</time></trkpt><trkpt lat="37.422405" lon="15.0341583"><ele>8.0</ele><time>2026-04-25T08:34:21.928Z</time></trkpt><trkpt lat="37.422655" lon="15.0341483"><ele>8.0</ele><time>2026-04-25T08:34:22.928Z</time></trkpt><trkpt lat="37.4228967" lon="15.03413"><ele>8.0</ele><time>2026-04-25T08:34:23.927Z</time></trkpt><trkpt lat="37.4231483" lon="15.0340917"><ele>8.0</ele><time>2026-04-25T08:34:24.928Z</time></trkpt><trkpt lat="37.42339" lon="15.0340567"><ele>8.0</ele><time>2026-04-25T08:34:25.928Z</time></trkpt><trkpt lat="37.4236317" lon="15.0340133"><ele>8.0</ele><time>2026-04-25T08:34:26.927Z</time></trkpt><trkpt lat="37.4238767" lon="15.0339617"><ele>8.5</ele><time>2026-04-25T08:34:27.928Z</time></trkpt><trkpt lat="37.4241133" lon="15.0338983"><ele>9.0</ele><time>2026-04-25T08:34:28.928Z</time></trkpt><trkpt lat="37.424345" lon="15.0338317"><ele>9.0</ele><time>2026-04-25T08:34:29.927Z</time></trkpt><trkpt lat="37.4245733" lon="15.0337567"><ele>9.0</ele><time>2026-04-25T08:34:30.928Z</time></trkpt><trkpt lat="37.4248017" lon="15.033675"><ele>9.5</ele><time>2026-04-25T08:34:31.928Z</time></trkpt><trkpt lat="37.4250283" lon="15.0335833"><ele>10.0</ele><time>2026-04-25T08:34:32.928Z</time></trkpt><trkpt lat="37.425255" lon="15.0334867"><ele>10.0</ele><time>2026-04-25T08:34:33.927Z</time></trkpt><trkpt lat="37.42547" lon="15.0333883"><ele>10.0</ele><time>2026-04-25T08:34:34.928Z</time></trkpt><trkpt lat="37.42568" lon="15.0332867"><ele>10.666666666666668</ele><time>2026-04-25T08:34:35.928Z</time></trkpt><trkpt lat="37.4258733" lon="15.033175"><ele>11.333333333333334</ele><time>2026-04-25T08:34:36.927Z</time></trkpt><trkpt lat="37.42608" lon="15.0330533"><ele>12.0</ele><time>2026-04-25T08:34:37.928Z</time></trkpt><trkpt lat="37.4262833" lon="15.0329267"><ele>11.5</ele><time>2026-04-25T08:34:38.928Z</time></trkpt><trkpt lat="37.4264967" lon="15.0327983"><ele>11.0</ele><time>2026-04-25T08:34:39.927Z</time></trkpt><trkpt lat="37.4267133" lon="15.032655"><ele>11.0</ele><time>2026-04-25T08:34:40.927Z</time></trkpt><trkpt lat="37.4269117" lon="15.0325183"><ele>11.0</ele><time>2026-04-25T08:34:41.927Z</time></trkpt><trkpt lat="37.4271083" lon="15.0323767"><ele>11.5</ele><time>2026-04-25T08:34:42.927Z</time></trkpt><trkpt lat="37.4273" lon="15.0322283"><ele>12.0</ele><time>2026-04-25T08:34:43.928Z</time></trkpt><trkpt lat="37.427495" lon="15.032085"><ele>12.0</ele><time>2026-04-25T08:34:44.928Z</time></trkpt><trkpt lat="37.4276917" lon="15.0319433"><ele>12.0</ele><time>2026-04-25T08:34:45.928Z</time></trkpt><trkpt lat="37.427885" lon="15.031795"><ele>10.5</ele><time>2026-04-25T08:34:46.927Z</time></trkpt><trkpt lat="37.42808" lon="15.0316367"><ele>9.0</ele><time>2026-04-25T08:34:47.928Z</time></trkpt><trkpt lat="37.4282767" lon="15.0314817"><ele>9.0</ele><time>2026-04-25T08:34:48.927Z</time></trkpt><trkpt lat="37.428475" lon="15.0313283"><ele>9.0</ele><time>2026-04-25T08:34:49.928Z</time></trkpt><trkpt lat="37.4286767" lon="15.0311733"><ele>10.0</ele><time>2026-04-25T08:34:50.928Z</time></trkpt><trkpt lat="37.4288833" lon="15.03102"><ele>11.0</ele><time>2026-04-25T08:34:51.928Z</time></trkpt><trkpt lat="37.4290967" lon="15.0308633"><ele>10.0</ele><time>2026-04-25T08:34:52.928Z</time></trkpt><trkpt lat="37.4293033" lon="15.0307167"><ele>9.0</ele><time>2026-04-25T08:34:53.928Z</time></trkpt><trkpt lat="37.4295183" lon="15.0305733"><ele>9.5</ele><time>2026-04-25T08:34:54.928Z</time></trkpt><trkpt lat="37.4297367" lon="15.0304317"><ele>10.0</ele><time>2026-04-25T08:34:55.928Z</time></trkpt><trkpt lat="37.429955" lon="15.0302917"><ele>10.0</ele><time>2026-04-25T08:34:56.927Z</time></trkpt><trkpt lat="37.4301783" lon="15.0301583"><ele>10.0</ele><time>2026-04-25T08:34:57.928Z</time></trkpt><trkpt lat="37.4304083" lon="15.030025"><ele>10.0</ele><time>2026-04-25T08:34:58.928Z</time></trkpt><trkpt lat="37.43063" lon="15.0298983"><ele>10.0</ele><time>2026-04-25T08:34:59.928Z</time></trkpt><trkpt lat="37.4308467" lon="15.0297817"><ele>10.0</ele><time>2026-04-25T08:35:00.927Z</time></trkpt><trkpt lat="37.4310717" lon="15.0296683"><ele>10.0</ele><time>2026-04-25T08:35:01.928Z</time></trkpt><trkpt lat="37.43129" lon="15.0295583"><ele>10.0</ele><time>2026-04-25T08:35:02.927Z</time></trkpt><trkpt lat="37.4315083" lon="15.02945"><ele>10.0</ele><time>2026-04-25T08:35:03.928Z</time></trkpt><trkpt lat="37.431725" lon="15.0293517"><ele>10.0</ele><time>2026-04-25T08:35:04.927Z</time></trkpt><trkpt lat="37.4319467" lon="15.029255"><ele>10.0</ele><time>2026-04-25T08:35:05.928Z</time></trkpt><trkpt lat="37.4321717" lon="15.0291617"><ele>10.5</ele><time>2026-04-25T08:35:06.927Z</time></trkpt><trkpt lat="37.43239" lon="15.0290783"><ele>11.0</ele><time>2026-04-25T08:35:07.927Z</time></trkpt><trkpt lat="37.4326217" lon="15.0289933"><ele>11.0</ele><time>2026-04-25T08:35:08.927Z</time></trkpt><trkpt lat="37.4328517" lon="15.0289133"><ele>11.0</ele><time>2026-04-25T08:35:09.928Z</time></trkpt><trkpt lat="37.4330783" lon="15.0288317"><ele>10.5</ele><time>2026-04-25T08:35:10.927Z</time></trkpt><trkpt lat="37.4333083" lon="15.0287633"><ele>10.0</ele><time>2026-04-25T08:35:11.928Z</time></trkpt><trkpt lat="37.4335383" lon="15.0286883"><ele>10.0</ele><time>2026-04-25T08:35:12.928Z</time></trkpt><trkpt lat="37.4337633" lon="15.0286317"><ele>10.0</ele><time>2026-04-25T08:35:13.928Z</time></trkpt><trkpt lat="37.4339933" lon="15.0285817"><ele>10.5</ele><time>2026-04-25T08:35:14.927Z</time></trkpt><trkpt lat="37.43423" lon="15.0285283"><ele>11.0</ele><time>2026-04-25T08:35:15.927Z</time></trkpt><trkpt lat="37.43446" lon="15.0284733"><ele>11.0</ele><time>2026-04-25T08:35:16.928Z</time></trkpt><trkpt lat="37.4346967" lon="15.02842"><ele>11.0</ele><time>2026-04-25T08:35:17.927Z</time></trkpt><trkpt lat="37.4349283" lon="15.0283783"><ele>11.0</ele><time>2026-04-25T08:35:18.928Z</time></trkpt><trkpt lat="37.4351667" lon="15.0283267"><ele>11.0</ele><time>2026-04-25T08:35:19.927Z</time></trkpt><trkpt lat="37.4354067" lon="15.0282917"><ele>9.5</ele><time>2026-04-25T08:35:20.928Z</time></trkpt><trkpt lat="37.4356467" lon="15.02826"><ele>8.0</ele><time>2026-04-25T08:35:21.928Z</time></trkpt><trkpt lat="37.4358817" lon="15.02823"><ele>8.0</ele><time>2026-04-25T08:35:22.927Z</time></trkpt><trkpt lat="37.436115" lon="15.0281967"><ele>8.0</ele><time>2026-04-25T08:35:23.928Z</time></trkpt><trkpt lat="37.43635" lon="15.0281733"><ele>10.0</ele><time>2026-04-25T08:35:24.928Z</time></trkpt><trkpt lat="37.43659" lon="15.0281567"><ele>12.0</ele><time>2026-04-25T08:35:25.927Z</time></trkpt><trkpt lat="37.4368267" lon="15.028145"><ele>12.0</ele><time>2026-04-25T08:35:26.928Z</time></trkpt><trkpt lat="37.4370667" lon="15.0281317"><ele>12.0</ele><time>2026-04-25T08:35:27.927Z</time></trkpt><trkpt lat="37.4373117" lon="15.02813"><ele>11.5</ele><time>2026-04-25T08:35:28.928Z</time></trkpt><trkpt lat="37.4375417" lon="15.0281383"><ele>11.0</ele><time>2026-04-25T08:35:29.927Z</time></trkpt><trkpt lat="37.4377833" lon="15.0281367"><ele>12.0</ele><time>2026-04-25T08:35:30.927Z</time></trkpt><trkpt lat="37.4380217" lon="15.02815"><ele>13.0</ele><time>2026-04-25T08:35:31.928Z</time></trkpt><trkpt lat="37.4382633" lon="15.02816"><ele>13.0</ele><time>2026-04-25T08:35:32.928Z</time></trkpt><trkpt lat="37.4384933" lon="15.028175"><ele>13.0</ele><time>2026-04-25T08:35:33.928Z</time></trkpt><trkpt lat="37.4387267" lon="15.0281983"><ele>12.5</ele><time>2026-04-25T08:35:34.928Z</time></trkpt><trkpt lat="37.4389583" lon="15.0282217"><ele>12.0</ele><time>2026-04-25T08:35:35.928Z</time></trkpt><trkpt lat="37.4391867" lon="15.0282483"><ele>12.0</ele><time>2026-04-25T08:35:36.927Z</time></trkpt><trkpt lat="37.439415" lon="15.0282817"><ele>12.0</ele><time>2026-04-25T08:35:37.928Z</time></trkpt><trkpt lat="37.4396417" lon="15.02832"><ele>13.0</ele><time>2026-04-25T08:35:38.928Z</time></trkpt><trkpt lat="37.4398783" lon="15.0283617"><ele>14.0</ele><time>2026-04-25T08:35:39.928Z</time></trkpt><trkpt lat="37.44011" lon="15.0284117"><ele>14.0</ele><time>2026-04-25T08:35:40.928Z</time></trkpt><trkpt lat="37.440335" lon="15.0284617"><ele>14.0</ele><time>2026-04-25T08:35:41.928Z</time></trkpt><trkpt lat="37.4405683" lon="15.0285117"><ele>13.5</ele><time>2026-04-25T08:35:42.928Z</time></trkpt><trkpt lat="37.4407933" lon="15.0285667"><ele>13.0</ele><time>2026-04-25T08:35:43.927Z</time></trkpt><trkpt lat="37.4410167" lon="15.0286233"><ele>13.0</ele><time>2026-04-25T08:35:44.927Z</time></trkpt><trkpt lat="37.441245" lon="15.0286833"><ele>13.0</ele><time>2026-04-25T08:35:45.927Z</time></trkpt><trkpt lat="37.44146" lon="15.02875"><ele>13.5</ele><time>2026-04-25T08:35:46.928Z</time></trkpt><trkpt lat="37.44168" lon="15.028825"><ele>14.0</ele><time>2026-04-25T08:35:47.928Z</time></trkpt><trkpt lat="37.4419017" lon="15.028895"><ele>14.5</ele><time>2026-04-25T08:35:48.928Z</time></trkpt><trkpt lat="37.4421317" lon="15.0289783"><ele>15.0</ele><time>2026-04-25T08:35:49.927Z</time></trkpt><trkpt lat="37.44236" lon="15.0290583"><ele>15.0</ele><time>2026-04-25T08:35:50.928Z</time></trkpt><trkpt lat="37.4425833" lon="15.0291333"><ele>15.0</ele><time>2026-04-25T08:35:51.928Z</time></trkpt><trkpt lat="37.4428117" lon="15.02921"><ele>15.0</ele><time>2026-04-25T08:35:52.927Z</time></trkpt><trkpt lat="37.4430417" lon="15.0292833"><ele>15.0</ele><time>2026-04-25T08:35:53.927Z</time></trkpt><trkpt lat="37.4432717" lon="15.0293667"><ele>15.0</ele><time>2026-04-25T08:35:54.928Z</time></trkpt><trkpt lat="37.4434983" lon="15.029445"><ele>15.0</ele><time>2026-04-25T08:35:55.928Z</time></trkpt><trkpt lat="37.4437317" lon="15.02953"><ele>14.0</ele><time>2026-04-25T08:35:56.928Z</time></trkpt><trkpt lat="37.4439567" lon="15.0296133"><ele>13.0</ele><time>2026-04-25T08:35:57.928Z</time></trkpt><trkpt lat="37.44418" lon="15.029705"><ele>13.0</ele><time>2026-04-25T08:35:58.927Z</time></trkpt><trkpt lat="37.4444017" lon="15.0298067"><ele>13.0</ele><time>2026-04-25T08:35:59.927Z</time></trkpt><trkpt lat="37.4446233" lon="15.0299017"><ele>12.5</ele><time>2026-04-25T08:36:00.927Z</time></trkpt><trkpt lat="37.4448483" lon="15.0300083"><ele>12.0</ele><time>2026-04-25T08:36:01.928Z</time></trkpt><trkpt lat="37.4450717" lon="15.0301217"><ele>12.0</ele><time>2026-04-25T08:36:02.928Z</time></trkpt><trkpt lat="37.44529" lon="15.030235"><ele>12.0</ele><time>2026-04-25T08:36:03.927Z</time></trkpt><trkpt lat="37.445505" lon="15.030355"><ele>13.0</ele><time>2026-04-25T08:36:04.927Z</time></trkpt><trkpt lat="37.445715" lon="15.0304833"><ele>14.0</ele><time>2026-04-25T08:36:05.928Z</time></trkpt><trkpt lat="37.4459283" lon="15.0306167"><ele>14.0</ele><time>2026-04-25T08:36:06.927Z</time></trkpt><trkpt lat="37.4461433" lon="15.0307583"><ele>14.0</ele><time>2026-04-25T08:36:07.928Z</time></trkpt><trkpt lat="37.4463517" lon="15.030905"><ele>14.0</ele><time>2026-04-25T08:36:08.927Z</time></trkpt><trkpt lat="37.4465533" lon="15.0310533"><ele>14.0</ele><time>2026-04-25T08:36:09.927Z</time></trkpt><trkpt lat="37.446755" lon="15.0312017"><ele>14.0</ele><time>2026-04-25T08:36:10.927Z</time></trkpt><trkpt lat="37.4469583" lon="15.0313483"><ele>14.0</ele><time>2026-04-25T08:36:11.927Z</time></trkpt><trkpt lat="37.4471583" lon="15.031505"><ele>15.5</ele><time>2026-04-25T08:36:12.928Z</time></trkpt><trkpt lat="37.4473567" lon="15.03167"><ele>17.0</ele><time>2026-04-25T08:36:13.928Z</time></trkpt><trkpt lat="37.4475467" lon="15.03183"><ele>17.0</ele><time>2026-04-25T08:36:14.927Z</time></trkpt><trkpt lat="37.4477367" lon="15.03199"><ele>17.0</ele><time>2026-04-25T08:36:15.927Z</time></trkpt><trkpt lat="37.4479317" lon="15.0321467"><ele>16.0</ele><time>2026-04-25T08:36:16.927Z</time></trkpt><trkpt lat="37.448125" lon="15.03231"><ele>15.0</ele><time>2026-04-25T08:36:17.928Z</time></trkpt><trkpt lat="37.4483233" lon="15.0324733"><ele>15.0</ele><time>2026-04-25T08:36:18.927Z</time></trkpt><trkpt lat="37.4485167" lon="15.0326283"><ele>15.0</ele><time>2026-04-25T08:36:19.927Z</time></trkpt><trkpt lat="37.4487233" lon="15.032775"><ele>15.0</ele><time>2026-04-25T08:36:20.927Z</time></trkpt><trkpt lat="37.44892" lon="15.0329283"><ele>15.0</ele><time>2026-04-25T08:36:21.928Z</time></trkpt><trkpt lat="37.4491233" lon="15.0330667"><ele>15.0</ele><time>2026-04-25T08:36:22.927Z</time></trkpt><trkpt lat="37.4493233" lon="15.0332"><ele>15.0</ele><time>2026-04-25T08:36:23.928Z</time></trkpt><trkpt lat="37.4495333" lon="15.0333233"><ele>19.0</ele><time>2026-04-25T08:36:24.928Z</time></trkpt><trkpt lat="37.449745" lon="15.0334333"><ele>23.0</ele><time>2026-04-25T08:36:25.927Z</time></trkpt><trkpt lat="37.4499617" lon="15.033535"><ele>23.0</ele><time>2026-04-25T08:36:26.927Z</time></trkpt><trkpt lat="37.45017" lon="15.033635"><ele>23.0</ele><time>2026-04-25T08:36:27.927Z</time></trkpt><trkpt lat="37.4503767" lon="15.0337217"><ele>23.0</ele><time>2026-04-25T08:36:28.928Z</time></trkpt><trkpt lat="37.45059" lon="15.0338017"><ele>21.333333333333336</ele><time>2026-04-25T08:36:29.928Z</time></trkpt><trkpt lat="37.4508067" lon="15.033875"><ele>19.666666666666668</ele><time>2026-04-25T08:36:30.928Z</time></trkpt><trkpt lat="37.451025" lon="15.0339367"><ele>18.0</ele><time>2026-04-25T08:36:31.928Z</time></trkpt><trkpt lat="37.4512417" lon="15.033995"><ele>18.333333333333332</ele><time>2026-04-25T08:36:32.927Z</time></trkpt><trkpt lat="37.45146" lon="15.0340417"><ele>18.666666666666664</ele><time>2026-04-25T08:36:33.927Z</time></trkpt><trkpt lat="37.4516767" lon="15.0340933"><ele>19.0</ele><time>2026-04-25T08:36:34.927Z</time></trkpt><trkpt lat="37.4518833" lon="15.034135"><ele>18.666666666666664</ele><time>2026-04-25T08:36:35.927Z</time></trkpt><trkpt lat="37.4521033" lon="15.0341517"><ele>18.333333333333332</ele><time>2026-04-25T08:36:36.927Z</time></trkpt><trkpt lat="37.45232" lon="15.0341683"><ele>18.0</ele><time>2026-04-25T08:36:37.928Z</time></trkpt><trkpt lat="37.4525383" lon="15.0341717"><ele>18.0</ele><time>2026-04-25T08:36:38.928Z</time></trkpt><trkpt lat="37.4527683" lon="15.034195"><ele>18.0</ele><time>2026-04-25T08:36:39.927Z</time></trkpt><trkpt lat="37.4529817" lon="15.0341667"><ele>18.0</ele><time>2026-04-25T08:36:40.928Z</time></trkpt><trkpt lat="37.4531983" lon="15.0341367"><ele>18.333333333333332</ele><time>2026-04-25T08:36:41.928Z</time></trkpt><trkpt lat="37.453415" lon="15.0341017"><ele>18.666666666666664</ele><time>2026-04-25T08:36:42.927Z</time></trkpt><trkpt lat="37.4536367" lon="15.0340633"><ele>19.0</ele><time>2026-04-25T08:36:43.928Z</time></trkpt><trkpt lat="37.45385" lon="15.034025"><ele>19.666666666666664</ele><time>2026-04-25T08:36:44.928Z</time></trkpt><trkpt lat="37.4540717" lon="15.0339683"><ele>20.333333333333332</ele><time>2026-04-25T08:36:45.927Z</time></trkpt><trkpt lat="37.4542883" lon="15.0339083"><ele>21.0</ele><time>2026-04-25T08:36:46.927Z</time></trkpt><trkpt lat="37.45451" lon="15.0338317"><ele>21.5</ele><time>2026-04-25T08:36:47.928Z</time></trkpt><trkpt lat="37.454725" lon="15.033745"><ele>22.0</ele><time>2026-04-25T08:36:48.928Z</time></trkpt><trkpt lat="37.4549383" lon="15.0336533"><ele>22.0</ele><time>2026-04-25T08:36:49.927Z</time></trkpt><trkpt lat="37.4551583" lon="15.03355"><ele>22.0</ele><time>2026-04-25T08:36:50.927Z</time></trkpt><trkpt lat="37.4553617" lon="15.0334483"><ele>21.666666666666664</ele><time>2026-04-25T08:36:51.928Z</time></trkpt><trkpt lat="37.455565" lon="15.03334"><ele>21.333333333333332</ele><time>2026-04-25T08:36:52.928Z</time></trkpt><trkpt lat="37.4557717" lon="15.03322"><ele>21.0</ele><time>2026-04-25T08:36:53.928Z</time></trkpt><trkpt lat="37.4559733" lon="15.0330917"><ele>22.5</ele><time>2026-04-25T08:36:54.928Z</time></trkpt><trkpt lat="37.4561733" lon="15.0329533"><ele>24.0</ele><time>2026-04-25T08:36:55.928Z</time></trkpt><trkpt lat="37.4563667" lon="15.0328117"><ele>26.5</ele><time>2026-04-25T08:36:56.928Z</time></trkpt><trkpt lat="37.4565617" lon="15.0326533"><ele>29.0</ele><time>2026-04-25T08:36:57.927Z</time></trkpt><trkpt lat="37.4567483" lon="15.0324933"><ele>29.0</ele><time>2026-04-25T08:36:58.928Z</time></trkpt><trkpt lat="37.45693" lon="15.0323383"><ele>29.0</ele><time>2026-04-25T08:36:59.928Z</time></trkpt><trkpt lat="37.4571083" lon="15.032165"><ele>29.0</ele><time>2026-04-25T08:37:00.927Z</time></trkpt><trkpt lat="37.457285" lon="15.0319833"><ele>29.0</ele><time>2026-04-25T08:37:01.928Z</time></trkpt><trkpt lat="37.4574633" lon="15.0318"><ele>29.0</ele><time>2026-04-25T08:37:02.927Z</time></trkpt><trkpt lat="37.4576333" lon="15.031605"><ele>28.0</ele><time>2026-04-25T08:37:03.927Z</time></trkpt><trkpt lat="37.4578033" lon="15.0314033"><ele>27.0</ele><time>2026-04-25T08:37:04.928Z</time></trkpt><trkpt lat="37.45797" lon="15.0312067"><ele>29.0</ele><time>2026-04-25T08:37:05.927Z</time></trkpt><trkpt lat="37.4581433" lon="15.0310017"><ele>31.0</ele><time>2026-04-25T08:37:06.928Z</time></trkpt><trkpt lat="37.4583083" lon="15.0308"><ele>31.0</ele><time>2026-04-25T08:37:07.927Z</time></trkpt><trkpt lat="37.458485" lon="15.0305917"><ele>31.0</ele><time>2026-04-25T08:37:08.928Z</time></trkpt><trkpt lat="37.4586567" lon="15.0303817"><ele>30.5</ele><time>2026-04-25T08:37:09.928Z</time></trkpt><trkpt lat="37.4588283" lon="15.0301767"><ele>30.0</ele><time>2026-04-25T08:37:10.927Z</time></trkpt><trkpt lat="37.4589917" lon="15.0299683"><ele>28.0</ele><time>2026-04-25T08:37:11.928Z</time></trkpt><trkpt lat="37.4591567" lon="15.0297667"><ele>26.0</ele><time>2026-04-25T08:37:12.928Z</time></trkpt><trkpt lat="37.4593217" lon="15.0295667"><ele>26.0</ele><time>2026-04-25T08:37:13.928Z</time></trkpt><trkpt lat="37.4594833" lon="15.0293717"><ele>26.0</ele><time>2026-04-25T08:37:14.928Z</time></trkpt><trkpt lat="37.4596533" lon="15.0291783"><ele>28.0</ele><time>2026-04-25T08:37:15.928Z</time></trkpt><trkpt lat="37.4598167" lon="15.02898"><ele>30.0</ele><time>2026-04-25T08:37:16.927Z</time></trkpt><trkpt lat="37.459985" lon="15.028775"><ele>30.0</ele><time>2026-04-25T08:37:17.928Z</time></trkpt><trkpt lat="37.460155" lon="15.02857"><ele>30.0</ele><time>2026-04-25T08:37:18.928Z</time></trkpt><trkpt lat="37.4603333" lon="15.028365"><ele>30.5</ele><time>2026-04-25T08:37:19.928Z</time></trkpt><trkpt lat="37.4605017" lon="15.0281633"><ele>31.0</ele><time>2026-04-25T08:37:20.928Z</time></trkpt><trkpt lat="37.460675" lon="15.0279583"><ele>31.0</ele><time>2026-04-25T08:37:21.928Z</time></trkpt><trkpt lat="37.4608533" lon="15.0277583"><ele>31.0</ele><time>2026-04-25T08:37:22.927Z</time></trkpt><trkpt lat="37.4610367" lon="15.0275617"><ele>31.5</ele><time>2026-04-25T08:37:23.928Z</time></trkpt><trkpt lat="37.46122" lon="15.02737"><ele>32.0</ele><time>2026-04-25T08:37:24.928Z</time></trkpt><trkpt lat="37.4614017" lon="15.0271867"><ele>32.0</ele><time>2026-04-25T08:37:25.928Z</time></trkpt><trkpt lat="37.4615883" lon="15.027005"><ele>32.0</ele><time>2026-04-25T08:37:26.928Z</time></trkpt><trkpt lat="37.4617867" lon="15.0268183"><ele>31.5</ele><time>2026-04-25T08:37:27.928Z</time></trkpt><trkpt lat="37.4619733" lon="15.0266367"><ele>31.0</ele><time>2026-04-25T08:37:28.927Z</time></trkpt><trkpt lat="37.462165" lon="15.026455"><ele>32.5</ele><time>2026-04-25T08:37:29.928Z</time></trkpt><trkpt lat="37.4623617" lon="15.0262733"><ele>34.0</ele><time>2026-04-25T08:37:30.927Z</time></trkpt><trkpt lat="37.4625517" lon="15.026095"><ele>34.0</ele><time>2026-04-25T08:37:31.928Z</time></trkpt><trkpt lat="37.4627383" lon="15.02592"><ele>34.0</ele><time>2026-04-25T08:37:32.927Z</time></trkpt><trkpt lat="37.4629367" lon="15.0257533"><ele>35.5</ele><time>2026-04-25T08:37:33.928Z</time></trkpt><trkpt lat="37.4631317" lon="15.0255833"><ele>37.0</ele><time>2026-04-25T08:37:34.928Z</time></trkpt><trkpt lat="37.463315" lon="15.0254067"><ele>37.0</ele><time>2026-04-25T08:37:35.927Z</time></trkpt><trkpt lat="37.4634983" lon="15.0252367"><ele>37.0</ele><time>2026-04-25T08:37:36.927Z</time></trkpt><trkpt lat="37.463675" lon="15.0250667"><ele>38.0</ele><time>2026-04-25T08:37:37.928Z</time></trkpt><trkpt lat="37.4638583" lon="15.0249017"><ele>39.0</ele><time>2026-04-25T08:37:38.928Z</time></trkpt><trkpt lat="37.4640483" lon="15.0247417"><ele>39.0</ele><time>2026-04-25T08:37:39.928Z</time></trkpt><trkpt lat="37.46423" lon="15.0245783"><ele>39.0</ele><time>2026-04-25T08:37:40.928Z</time></trkpt><trkpt lat="37.4644083" lon="15.0244133"><ele>39.0</ele><time>2026-04-25T08:37:41.927Z</time></trkpt><trkpt lat="37.4645817" lon="15.0242467"><ele>40.333333333333336</ele><time>2026-04-25T08:37:42.927Z</time></trkpt><trkpt lat="37.4647583" lon="15.0240833"><ele>41.66666666666667</ele><time>2026-04-25T08:37:43.927Z</time></trkpt><trkpt lat="37.4649417" lon="15.0239217"><ele>43.0</ele><time>2026-04-25T08:37:44.926Z</time></trkpt><trkpt lat="37.4651217" lon="15.0237533"><ele>43.0</ele><time>2026-04-25T08:37:45.927Z</time></trkpt><trkpt lat="37.465295" lon="15.0235933"><ele>43.0</ele><time>2026-04-25T08:37:46.927Z</time></trkpt><trkpt lat="37.4654733" lon="15.0234333"><ele>43.0</ele><time>2026-04-25T08:37:47.926Z</time></trkpt><trkpt lat="37.4656433" lon="15.023275"><ele>43.0</ele><time>2026-04-25T08:37:48.926Z</time></trkpt><trkpt lat="37.465815" lon="15.0231067"><ele>43.0</ele><time>2026-04-25T08:37:49.927Z</time></trkpt><trkpt lat="37.4659933" lon="15.0229383"><ele>43.0</ele><time>2026-04-25T08:37:50.926Z</time></trkpt><trkpt lat="37.4661717" lon="15.02277"><ele>42.66666666666667</ele><time>2026-04-25T08:37:51.927Z</time></trkpt><trkpt lat="37.4663467" lon="15.0226"><ele>42.333333333333336</ele><time>2026-04-25T08:37:52.926Z</time></trkpt><trkpt lat="37.466515" lon="15.02244"><ele>42.0</ele><time>2026-04-25T08:37:53.927Z</time></trkpt><trkpt lat="37.466705" lon="15.0222783"><ele>42.0</ele><time>2026-04-25T08:37:54.926Z</time></trkpt><trkpt lat="37.466885" lon="15.0221117"><ele>42.0</ele><time>2026-04-25T08:37:55.927Z</time></trkpt><trkpt lat="37.4670683" lon="15.0219417"><ele>43.0</ele><time>2026-04-25T08:37:56.926Z</time></trkpt><trkpt lat="37.467255" lon="15.0217733"><ele>44.0</ele><time>2026-04-25T08:37:57.927Z</time></trkpt><trkpt lat="37.4674483" lon="15.0216"><ele>44.0</ele><time>2026-04-25T08:37:58.927Z</time></trkpt><trkpt lat="37.4676467" lon="15.0214233"><ele>44.0</ele><time>2026-04-25T08:37:59.926Z</time></trkpt><trkpt lat="37.4678433" lon="15.021245"><ele>45.0</ele><time>2026-04-25T08:38:00.926Z</time></trkpt><trkpt lat="37.46804" lon="15.02106"><ele>46.0</ele><time>2026-04-25T08:38:01.927Z</time></trkpt><trkpt lat="37.468245" lon="15.02089"><ele>44.5</ele><time>2026-04-25T08:38:02.926Z</time></trkpt><trkpt lat="37.4684483" lon="15.0206983"><ele>43.0</ele><time>2026-04-25T08:38:03.927Z</time></trkpt><trkpt lat="37.4686533" lon="15.0205067"><ele>45.0</ele><time>2026-04-25T08:38:04.926Z</time></trkpt><trkpt lat="37.4688583" lon="15.020325"><ele>47.0</ele><time>2026-04-25T08:38:05.926Z</time></trkpt><trkpt lat="37.4690567" lon="15.0201417"><ele>46.5</ele><time>2026-04-25T08:38:06.927Z</time></trkpt><trkpt lat="37.4692433" lon="15.019965"><ele>46.0</ele><time>2026-04-25T08:38:07.926Z</time></trkpt><trkpt lat="37.46943" lon="15.0197917"><ele>45.0</ele><time>2026-04-25T08:38:08.927Z</time></trkpt><trkpt lat="37.4696117" lon="15.0196233"><ele>44.0</ele><time>2026-04-25T08:38:09.927Z</time></trkpt><trkpt lat="37.4697933" lon="15.0194567"><ele>44.0</ele><time>2026-04-25T08:38:10.927Z</time></trkpt><trkpt lat="37.4699733" lon="15.019295"><ele>44.0</ele><time>2026-04-25T08:38:11.926Z</time></trkpt><trkpt lat="37.4701533" lon="15.0191333"><ele>44.0</ele><time>2026-04-25T08:38:12.926Z</time></trkpt><trkpt lat="37.4703233" lon="15.0189783"><ele>44.33333333333333</ele><time>2026-04-25T08:38:13.926Z</time></trkpt><trkpt lat="37.4704983" lon="15.0188233"><ele>44.666666666666664</ele><time>2026-04-25T08:38:14.927Z</time></trkpt><trkpt lat="37.4706733" lon="15.0186667"><ele>45.0</ele><time>2026-04-25T08:38:15.927Z</time></trkpt><trkpt lat="37.4708417" lon="15.01851"><ele>45.0</ele><time>2026-04-25T08:38:16.927Z</time></trkpt><trkpt lat="37.4710117" lon="15.01836"><ele>45.0</ele><time>2026-04-25T08:38:17.927Z</time></trkpt><trkpt lat="37.4711817" lon="15.0182083"><ele>45.0</ele><time>2026-04-25T08:38:18.926Z</time></trkpt><trkpt lat="37.4713533" lon="15.01805"><ele>46.0</ele><time>2026-04-25T08:38:19.926Z</time></trkpt><trkpt lat="37.4715217" lon="15.0178933"><ele>47.0</ele><time>2026-04-25T08:38:20.927Z</time></trkpt><trkpt lat="37.4716917" lon="15.017745"><ele>48.0</ele><time>2026-04-25T08:38:21.927Z</time></trkpt><trkpt lat="37.471865" lon="15.0175917"><ele>47.666666666666664</ele><time>2026-04-25T08:38:22.927Z</time></trkpt><trkpt lat="37.472045" lon="15.0174317"><ele>47.33333333333333</ele><time>2026-04-25T08:38:23.927Z</time></trkpt><trkpt lat="37.4722233" lon="15.0172783"><ele>47.0</ele><time>2026-04-25T08:38:24.927Z</time></trkpt><trkpt lat="37.4724033" lon="15.01713"><ele>48.0</ele><time>2026-04-25T08:38:25.927Z</time></trkpt><trkpt lat="37.472585" lon="15.0169833"><ele>49.0</ele><time>2026-04-25T08:38:26.926Z</time></trkpt><trkpt lat="37.4727767" lon="15.0168367"><ele>50.0</ele><time>2026-04-25T08:38:27.926Z</time></trkpt><trkpt lat="37.4729617" lon="15.016685"><ele>50.333333333333336</ele><time>2026-04-25T08:38:28.926Z</time></trkpt><trkpt lat="37.4731433" lon="15.0165467"><ele>50.66666666666667</ele><time>2026-04-25T08:38:29.927Z</time></trkpt><trkpt lat="37.4733317" lon="15.0164067"><ele>51.0</ele><time>2026-04-25T08:38:30.926Z</time></trkpt><trkpt lat="37.4735233" lon="15.0162667"><ele>51.0</ele><time>2026-04-25T08:38:31.927Z</time></trkpt><trkpt lat="37.4737167" lon="15.0161283"><ele>51.0</ele><time>2026-04-25T08:38:32.926Z</time></trkpt><trkpt lat="37.4739017" lon="15.0159983"><ele>51.0</ele><time>2026-04-25T08:38:33.926Z</time></trkpt><trkpt lat="37.4741033" lon="15.0158633"><ele>50.66666666666667</ele><time>2026-04-25T08:38:34.926Z</time></trkpt><trkpt lat="37.4742967" lon="15.01573"><ele>50.333333333333336</ele><time>2026-04-25T08:38:35.927Z</time></trkpt><trkpt lat="37.4744917" lon="15.0156033"><ele>50.0</ele><time>2026-04-25T08:38:36.926Z</time></trkpt><trkpt lat="37.47469" lon="15.0154767"><ele>51.333333333333336</ele><time>2026-04-25T08:38:37.927Z</time></trkpt><trkpt lat="37.47489" lon="15.0153533"><ele>52.66666666666667</ele><time>2026-04-25T08:38:38.926Z</time></trkpt><trkpt lat="37.4750783" lon="15.0152367"><ele>54.0</ele><time>2026-04-25T08:38:39.926Z</time></trkpt><trkpt lat="37.4752733" lon="15.0151233"><ele>55.0</ele><time>2026-04-25T08:38:40.926Z</time></trkpt><trkpt lat="37.4754633" lon="15.015015"><ele>56.0</ele><time>2026-04-25T08:38:41.927Z</time></trkpt><trkpt lat="37.475645" lon="15.0149133"><ele>57.0</ele><time>2026-04-25T08:38:42.926Z</time></trkpt><trkpt lat="37.47583" lon="15.01482"><ele>57.0</ele><time>2026-04-25T08:38:43.927Z</time></trkpt><trkpt lat="37.4760133" lon="15.01473"><ele>57.0</ele><time>2026-04-25T08:38:44.927Z</time></trkpt><trkpt lat="37.476185" lon="15.01465"><ele>57.0</ele><time>2026-04-25T08:38:45.927Z</time></trkpt><trkpt lat="37.4763433" lon="15.0145833"><ele>57.66666666666667</ele><time>2026-04-25T08:38:46.926Z</time></trkpt><trkpt lat="37.476495" lon="15.0145217"><ele>58.333333333333336</ele><time>2026-04-25T08:38:47.926Z</time></trkpt><trkpt lat="37.4766483" lon="15.014465"><ele>59.0</ele><time>2026-04-25T08:38:48.926Z</time></trkpt><trkpt lat="37.476785" lon="15.0144183"><ele>59.0</ele><time>2026-04-25T08:38:49.926Z</time></trkpt><trkpt lat="37.4769" lon="15.0143833"><ele>59.00000000000001</ele><time>2026-04-25T08:38:50.926Z</time></trkpt><trkpt lat="37.4769983" lon="15.0143517"><ele>59.00000000000001</ele><time>2026-04-25T08:38:51.927Z</time></trkpt><trkpt lat="37.47709" lon="15.0143233"><ele>59.0</ele><time>2026-04-25T08:38:52.926Z</time></trkpt><trkpt lat="37.477185" lon="15.014295"><ele>59.0</ele><time>2026-04-25T08:38:53.927Z</time></trkpt><trkpt lat="37.477275" lon="15.01426"><ele>59.400000000000006</ele><time>2026-04-25T08:38:54.926Z</time></trkpt><trkpt lat="37.4773683" lon="15.0142183"><ele>59.800000000000004</ele><time>2026-04-25T08:38:55.927Z</time></trkpt><trkpt lat="37.4774633" lon="15.0141667"><ele>60.199999999999996</ele><time>2026-04-25T08:38:56.927Z</time></trkpt><trkpt lat="37.47756" lon="15.0141017"><ele>60.599999999999994</ele><time>2026-04-25T08:38:57.927Z</time></trkpt><trkpt lat="37.477665" lon="15.0140333"><ele>61.0</ele><time>2026-04-25T08:38:58.927Z</time></trkpt><trkpt lat="37.4777783" lon="15.0139667"><ele>61.25</ele><time>2026-04-25T08:38:59.926Z</time></trkpt><trkpt lat="37.4779017" lon="15.0138983"><ele>61.5</ele><time>2026-04-25T08:39:00.927Z</time></trkpt><trkpt lat="37.478035" lon="15.01383"><ele>61.75</ele><time>2026-04-25T08:39:01.927Z</time></trkpt><trkpt lat="37.4781867" lon="15.0137617"><ele>62.0</ele><time>2026-04-25T08:39:02.926Z</time></trkpt><trkpt lat="37.478345" lon="15.0137017"><ele>62.0</ele><time>2026-04-25T08:39:03.926Z</time></trkpt><trkpt lat="37.47851" lon="15.01364"><ele>62.0</ele><time>2026-04-25T08:39:04.926Z</time></trkpt><trkpt lat="37.4786767" lon="15.013575"><ele>62.0</ele><time>2026-04-25T08:39:05.926Z</time></trkpt><trkpt lat="37.478855" lon="15.0135033"><ele>62.0</ele><time>2026-04-25T08:39:06.927Z</time></trkpt><trkpt lat="37.47904" lon="15.0134333"><ele>62.0</ele><time>2026-04-25T08:39:07.926Z</time></trkpt><trkpt lat="37.4792333" lon="15.01337"><ele>62.0</ele><time>2026-04-25T08:39:08.927Z</time></trkpt><trkpt lat="37.4794317" lon="15.0133117"><ele>64.0</ele><time>2026-04-25T08:39:09.927Z</time></trkpt><trkpt lat="37.479625" lon="15.013255"><ele>66.0</ele><time>2026-04-25T08:39:10.927Z</time></trkpt><trkpt lat="37.4798167" lon="15.013205"><ele>68.0</ele><time>2026-04-25T08:39:11.927Z</time></trkpt><trkpt lat="37.4800117" lon="15.0131617"><ele>68.0</ele><time>2026-04-25T08:39:12.926Z</time></trkpt><trkpt lat="37.4802117" lon="15.0131133"><ele>68.0</ele><time>2026-04-25T08:39:13.927Z</time></trkpt><trkpt lat="37.4804167" lon="15.0130617"><ele>68.0</ele><time>2026-04-25T08:39:14.927Z</time></trkpt><trkpt lat="37.4806133" lon="15.0130133"><ele>68.33333333333334</ele><time>2026-04-25T08:39:15.927Z</time></trkpt><trkpt lat="37.4808167" lon="15.0129667"><ele>68.66666666666667</ele><time>2026-04-25T08:39:16.927Z</time></trkpt><trkpt lat="37.4810167" lon="15.0129233"><ele>69.0</ele><time>2026-04-25T08:39:17.926Z</time></trkpt><trkpt lat="37.4812233" lon="15.0128833"><ele>69.33333333333333</ele><time>2026-04-25T08:39:18.926Z</time></trkpt><trkpt lat="37.481425" lon="15.0128367"><ele>69.66666666666666</ele><time>2026-04-25T08:39:19.926Z</time></trkpt><trkpt lat="37.4816267" lon="15.0127967"><ele>70.0</ele><time>2026-04-25T08:39:20.927Z</time></trkpt><trkpt lat="37.4818283" lon="15.0127517"><ele>70.0</ele><time>2026-04-25T08:39:21.927Z</time></trkpt><trkpt lat="37.4820183" lon="15.0127133"><ele>70.0</ele><time>2026-04-25T08:39:22.927Z</time></trkpt><trkpt lat="37.482215" lon="15.0126683"><ele>70.0</ele><time>2026-04-25T08:39:23.926Z</time></trkpt><trkpt lat="37.482405" lon="15.0126383"><ele>71.33333333333333</ele><time>2026-04-25T08:39:24.926Z</time></trkpt><trkpt lat="37.482605" lon="15.012605"><ele>72.66666666666667</ele><time>2026-04-25T08:39:25.926Z</time></trkpt><trkpt lat="37.482795" lon="15.0125733"><ele>74.0</ele><time>2026-04-25T08:39:26.926Z</time></trkpt><trkpt lat="37.483" lon="15.01255"><ele>75.0</ele><time>2026-04-25T08:39:27.927Z</time></trkpt><trkpt lat="37.4832017" lon="15.0125333"><ele>76.0</ele><time>2026-04-25T08:39:28.927Z</time></trkpt><trkpt lat="37.4834067" lon="15.012525"><ele>77.0</ele><time>2026-04-25T08:39:29.927Z</time></trkpt><trkpt lat="37.4836083" lon="15.012525"><ele>80.0</ele><time>2026-04-25T08:39:30.926Z</time></trkpt><trkpt lat="37.483815" lon="15.0125267"><ele>83.0</ele><time>2026-04-25T08:39:31.926Z</time></trkpt><trkpt lat="37.4840233" lon="15.01253"><ele>86.0</ele><time>2026-04-25T08:39:32.927Z</time></trkpt><trkpt lat="37.4842267" lon="15.0125367"><ele>86.0</ele><time>2026-04-25T08:39:33.927Z</time></trkpt><trkpt lat="37.4844317" lon="15.0125533"><ele>86.0</ele><time>2026-04-25T08:39:34.926Z</time></trkpt><trkpt lat="37.4846383" lon="15.0125733"><ele>86.0</ele><time>2026-04-25T08:39:35.927Z</time></trkpt><trkpt lat="37.4848483" lon="15.0126"><ele>87.33333333333334</ele><time>2026-04-25T08:39:36.927Z</time></trkpt><trkpt lat="37.4850683" lon="15.01262"><ele>88.66666666666667</ele><time>2026-04-25T08:39:37.926Z</time></trkpt><trkpt lat="37.48528" lon="15.0126567"><ele>90.0</ele><time>2026-04-25T08:39:38.927Z</time></trkpt><trkpt lat="37.485495" lon="15.0126967"><ele>91.33333333333333</ele><time>2026-04-25T08:39:39.927Z</time></trkpt><trkpt lat="37.4857067" lon="15.0127467"><ele>92.66666666666666</ele><time>2026-04-25T08:39:40.926Z</time></trkpt><trkpt lat="37.4859217" lon="15.0128033"><ele>94.0</ele><time>2026-04-25T08:39:41.926Z</time></trkpt><trkpt lat="37.486135" lon="15.0128583"><ele>94.5</ele><time>2026-04-25T08:39:42.927Z</time></trkpt><trkpt lat="37.4863583" lon="15.0129217"><ele>95.0</ele><time>2026-04-25T08:39:43.927Z</time></trkpt><trkpt lat="37.48658" lon="15.0129867"><ele>95.0</ele><time>2026-04-25T08:39:44.926Z</time></trkpt><trkpt lat="37.4867917" lon="15.0130667"><ele>95.0</ele><time>2026-04-25T08:39:45.927Z</time></trkpt><trkpt lat="37.4870117" lon="15.0131517"><ele>98.0</ele><time>2026-04-25T08:39:46.927Z</time></trkpt><trkpt lat="37.4872317" lon="15.0132383"><ele>101.0</ele><time>2026-04-25T08:39:47.926Z</time></trkpt><trkpt lat="37.4874417" lon="15.0133317"><ele>101.0</ele><time>2026-04-25T08:39:48.926Z</time></trkpt><trkpt lat="37.4876617" lon="15.0134333"><ele>101.0</ele><time>2026-04-25T08:39:49.927Z</time></trkpt><trkpt lat="37.4878717" lon="15.0135367"><ele>102.66666666666666</ele><time>2026-04-25T08:39:50.927Z</time></trkpt><trkpt lat="37.4880783" lon="15.013635"><ele>104.33333333333334</ele><time>2026-04-25T08:39:51.926Z</time></trkpt><trkpt lat="37.4882783" lon="15.0137467"><ele>106.0</ele><time>2026-04-25T08:39:52.927Z</time></trkpt><trkpt lat="37.4884817" lon="15.0138633"><ele>106.0</ele><time>2026-04-25T08:39:53.926Z</time></trkpt><trkpt lat="37.4886717" lon="15.0139917"><ele>106.0</ele><time>2026-04-25T08:39:54.927Z</time></trkpt><trkpt lat="37.4888733" lon="15.0141183"><ele>106.0</ele><time>2026-04-25T08:39:55.927Z</time></trkpt><trkpt lat="37.4890783" lon="15.0142517"><ele>107.33333333333334</ele><time>2026-04-25T08:39:56.926Z</time></trkpt><trkpt lat="37.489265" lon="15.0143933"><ele>108.66666666666666</ele><time>2026-04-25T08:39:57.927Z</time></trkpt><trkpt lat="37.4894517" lon="15.0145433"><ele>110.0</ele><time>2026-04-25T08:39:58.927Z</time></trkpt><trkpt lat="37.489635" lon="15.01469"><ele>111.0</ele><time>2026-04-25T08:39:59.927Z</time></trkpt><trkpt lat="37.4898267" lon="15.0148433"><ele>112.0</ele><time>2026-04-25T08:40:00.926Z</time></trkpt><trkpt lat="37.49002" lon="15.0150033"><ele>112.0</ele><time>2026-04-25T08:40:01.926Z</time></trkpt><trkpt lat="37.490205" lon="15.015165"><ele>112.0</ele><time>2026-04-25T08:40:02.927Z</time></trkpt><trkpt lat="37.4903833" lon="15.01533"><ele>112.0</ele><time>2026-04-25T08:40:03.926Z</time></trkpt><trkpt lat="37.49056" lon="15.0155067"><ele>113.33333333333334</ele><time>2026-04-25T08:40:04.927Z</time></trkpt><trkpt lat="37.4907317" lon="15.0156783"><ele>114.66666666666666</ele><time>2026-04-25T08:40:05.927Z</time></trkpt><trkpt lat="37.4908983" lon="15.0158567"><ele>116.0</ele><time>2026-04-25T08:40:06.926Z</time></trkpt><trkpt lat="37.49107" lon="15.016045"><ele>116.0</ele><time>2026-04-25T08:40:07.926Z</time></trkpt><trkpt lat="37.4912283" lon="15.0162367"><ele>116.0</ele><time>2026-04-25T08:40:08.927Z</time></trkpt><trkpt lat="37.4913783" lon="15.016425"><ele>116.0</ele><time>2026-04-25T08:40:09.926Z</time></trkpt><trkpt lat="37.4915317" lon="15.0166167"><ele>116.0</ele><time>2026-04-25T08:40:10.927Z</time></trkpt><trkpt lat="37.4916817" lon="15.016815"><ele>116.0</ele><time>2026-04-25T08:40:11.927Z</time></trkpt><trkpt lat="37.4918233" lon="15.017015"><ele>116.0</ele><time>2026-04-25T08:40:12.927Z</time></trkpt><trkpt lat="37.4919667" lon="15.0172267"><ele>117.33333333333333</ele><time>2026-04-25T08:40:13.927Z</time></trkpt><trkpt lat="37.4921067" lon="15.0174367"><ele>118.66666666666666</ele><time>2026-04-25T08:40:14.926Z</time></trkpt><trkpt lat="37.4922483" lon="15.0176483"><ele>120.0</ele><time>2026-04-25T08:40:15.927Z</time></trkpt><trkpt lat="37.49239" lon="15.01787"><ele>120.5</ele><time>2026-04-25T08:40:16.927Z</time></trkpt><trkpt lat="37.492535" lon="15.0180933"><ele>121.0</ele><time>2026-04-25T08:40:17.927Z</time></trkpt><trkpt lat="37.49268" lon="15.018325"><ele>120.0</ele><time>2026-04-25T08:40:18.927Z</time></trkpt><trkpt lat="37.492825" lon="15.0185517"><ele>119.0</ele><time>2026-04-25T08:40:19.926Z</time></trkpt><trkpt lat="37.49297" lon="15.0187833"><ele>121.0</ele><time>2026-04-25T08:40:20.926Z</time></trkpt><trkpt lat="37.49312" lon="15.0190083"><ele>123.0</ele><time>2026-04-25T08:40:21.926Z</time></trkpt><trkpt lat="37.4932583" lon="15.0192333"><ele>123.0</ele><time>2026-04-25T08:40:22.926Z</time></trkpt><trkpt lat="37.4933983" lon="15.019465"><ele>123.0</ele><time>2026-04-25T08:40:23.927Z</time></trkpt><trkpt lat="37.4935433" lon="15.0196883"><ele>123.0</ele><time>2026-04-25T08:40:24.926Z</time></trkpt><trkpt lat="37.493695" lon="15.0199067"><ele>123.0</ele><time>2026-04-25T08:40:25.927Z</time></trkpt><trkpt lat="37.4938467" lon="15.0201267"><ele>123.33333333333334</ele><time>2026-04-25T08:40:26.927Z</time></trkpt><trkpt lat="37.4939917" lon="15.02034"><ele>123.66666666666667</ele><time>2026-04-25T08:40:27.927Z</time></trkpt><trkpt lat="37.49414" lon="15.0205517"><ele>124.0</ele><time>2026-04-25T08:40:28.927Z</time></trkpt><trkpt lat="37.4942917" lon="15.0207617"><ele>126.66666666666667</ele><time>2026-04-25T08:40:29.927Z</time></trkpt><trkpt lat="37.4944283" lon="15.0209767"><ele>129.33333333333334</ele><time>2026-04-25T08:40:30.927Z</time></trkpt><trkpt lat="37.4945917" lon="15.02118"><ele>132.0</ele><time>2026-04-25T08:40:31.926Z</time></trkpt><trkpt lat="37.494755" lon="15.0213783"><ele>135.0</ele><time>2026-04-25T08:40:32.927Z</time></trkpt><trkpt lat="37.49493" lon="15.0215733"><ele>138.0</ele><time>2026-04-25T08:40:33.926Z</time></trkpt><trkpt lat="37.4951017" lon="15.0217633"><ele>138.5</ele><time>2026-04-25T08:40:34.927Z</time></trkpt><trkpt lat="37.4952783" lon="15.021945"><ele>139.0</ele><time>2026-04-25T08:40:35.926Z</time></trkpt><trkpt lat="37.4954583" lon="15.0221233"><ele>141.0</ele><time>2026-04-25T08:40:36.927Z</time></trkpt><trkpt lat="37.4956383" lon="15.0222917"><ele>143.0</ele><time>2026-04-25T08:40:37.926Z</time></trkpt><trkpt lat="37.4958217" lon="15.0224517"><ele>145.0</ele><time>2026-04-25T08:40:38.927Z</time></trkpt><trkpt lat="37.4960067" lon="15.0226117"><ele>145.33333333333334</ele><time>2026-04-25T08:40:39.926Z</time></trkpt><trkpt lat="37.49619" lon="15.0227517"><ele>145.66666666666666</ele><time>2026-04-25T08:40:40.927Z</time></trkpt><trkpt lat="37.4963833" lon="15.022885"><ele>146.0</ele><time>2026-04-25T08:40:41.926Z</time></trkpt><trkpt lat="37.4965667" lon="15.02302"><ele>148.33333333333331</ele><time>2026-04-25T08:40:42.926Z</time></trkpt><trkpt lat="37.4967583" lon="15.023135"><ele>150.66666666666666</ele><time>2026-04-25T08:40:43.927Z</time></trkpt><trkpt lat="37.496965" lon="15.0232433"><ele>153.0</ele><time>2026-04-25T08:40:44.927Z</time></trkpt><trkpt lat="37.497195" lon="15.023345"><ele>158.0</ele><time>2026-04-25T08:40:45.926Z</time></trkpt><trkpt lat="37.49742" lon="15.0234417"><ele>163.0</ele><time>2026-04-25T08:40:46.926Z</time></trkpt><trkpt lat="37.4976433" lon="15.02353"><ele>163.0</ele><time>2026-04-25T08:40:47.927Z</time></trkpt><trkpt lat="37.497865" lon="15.0236167"><ele>163.0</ele><time>2026-04-25T08:40:48.927Z</time></trkpt><trkpt lat="37.4980883" lon="15.0236917"><ele>166.0</ele><time>2026-04-25T08:40:49.927Z</time></trkpt><trkpt lat="37.4983117" lon="15.0237567"><ele>169.0</ele><time>2026-04-25T08:40:50.927Z</time></trkpt><trkpt lat="37.4985383" lon="15.02381"><ele>171.66666666666669</ele><time>2026-04-25T08:40:51.927Z</time></trkpt><trkpt lat="37.4987617" lon="15.02386"><ele>174.33333333333334</ele><time>2026-04-25T08:40:52.927Z</time></trkpt><trkpt lat="37.4989817" lon="15.0238983"><ele>177.0</ele><time>2026-04-25T08:40:53.926Z</time></trkpt><trkpt lat="37.4992083" lon="15.0239267"><ele>177.0</ele><time>2026-04-25T08:40:54.927Z</time></trkpt><trkpt lat="37.4994417" lon="15.0239383"><ele>177.0</ele><time>2026-04-25T08:40:55.926Z</time></trkpt><trkpt lat="37.4996767" lon="15.0239367"><ele>181.0</ele><time>2026-04-25T08:40:56.927Z</time></trkpt><trkpt lat="37.4999133" lon="15.0239233"><ele>185.0</ele><time>2026-04-25T08:40:57.927Z</time></trkpt><trkpt lat="37.5001367" lon="15.023915"><ele>185.0</ele><time>2026-04-25T08:40:58.927Z</time></trkpt><trkpt lat="37.5003617" lon="15.0238917"><ele>185.0</ele><time>2026-04-25T08:40:59.926Z</time></trkpt><trkpt lat="37.500585" lon="15.0238533"><ele>186.66666666666666</ele><time>2026-04-25T08:41:00.927Z</time></trkpt><trkpt lat="37.5008083" lon="15.023815"><ele>188.33333333333334</ele><time>2026-04-25T08:41:01.927Z</time></trkpt><trkpt lat="37.5010267" lon="15.0237733"><ele>190.0</ele><time>2026-04-25T08:41:02.926Z</time></trkpt><trkpt lat="37.5012483" lon="15.0237133"><ele>187.5</ele><time>2026-04-25T08:41:03.927Z</time></trkpt><trkpt lat="37.5014667" lon="15.023645"><ele>185.0</ele><time>2026-04-25T08:41:04.926Z</time></trkpt><trkpt lat="37.5016833" lon="15.0235683"><ele>185.0</ele><time>2026-04-25T08:41:05.926Z</time></trkpt><trkpt lat="37.5019" lon="15.023485"><ele>185.0</ele><time>2026-04-25T08:41:06.927Z</time></trkpt><trkpt lat="37.50212" lon="15.0233867"><ele>191.0</ele><time>2026-04-25T08:41:07.927Z</time></trkpt><trkpt lat="37.50234" lon="15.023285"><ele>197.0</ele><time>2026-04-25T08:41:08.926Z</time></trkpt><trkpt lat="37.5025533" lon="15.023175"><ele>197.0</ele><time>2026-04-25T08:41:09.927Z</time></trkpt><trkpt lat="37.50277" lon="15.02306"><ele>197.0</ele><time>2026-04-25T08:41:10.927Z</time></trkpt><trkpt lat="37.5029783" lon="15.0229417"><ele>194.0</ele><time>2026-04-25T08:41:11.926Z</time></trkpt><trkpt lat="37.5031883" lon="15.022815"><ele>191.0</ele><time>2026-04-25T08:41:12.927Z</time></trkpt><trkpt lat="37.5033983" lon="15.0226883"><ele>191.0</ele><time>2026-04-25T08:41:13.926Z</time></trkpt><trkpt lat="37.5035983" lon="15.0225733"><ele>191.0</ele><time>2026-04-25T08:41:14.926Z</time></trkpt><trkpt lat="37.5038033" lon="15.0224417"><ele>190.66666666666666</ele><time>2026-04-25T08:41:15.926Z</time></trkpt><trkpt lat="37.5040017" lon="15.0223233"><ele>190.33333333333334</ele><time>2026-04-25T08:41:16.927Z</time></trkpt><trkpt lat="37.5041617" lon="15.0221683"><ele>190.0</ele><time>2026-04-25T08:41:17.926Z</time></trkpt><trkpt lat="37.5043267" lon="15.0220183"><ele>190.0</ele><time>2026-04-25T08:41:18.927Z</time></trkpt><trkpt lat="37.504495" lon="15.0218567"><ele>190.0</ele><time>2026-04-25T08:41:19.926Z</time></trkpt><trkpt lat="37.50466" lon="15.021695"><ele>190.0</ele><time>2026-04-25T08:41:20.927Z</time></trkpt><trkpt lat="37.5048233" lon="15.0215617"><ele>190.0</ele><time>2026-04-25T08:41:21.926Z</time></trkpt><trkpt lat="37.5049933" lon="15.021425"><ele>190.0</ele><time>2026-04-25T08:41:22.926Z</time></trkpt><trkpt lat="37.50514" lon="15.0213167"><ele>190.0</ele><time>2026-04-25T08:41:23.926Z</time></trkpt><trkpt lat="37.5052783" lon="15.021205"><ele>190.0</ele><time>2026-04-25T08:41:24.927Z</time></trkpt><trkpt lat="37.5054117" lon="15.0210983"><ele>190.0</ele><time>2026-04-25T08:41:25.926Z</time></trkpt><trkpt lat="37.505545" lon="15.0209983"><ele>190.0</ele><time>2026-04-25T08:41:26.927Z</time></trkpt><trkpt lat="37.50567" lon="15.020915"><ele>187.8</ele><time>2026-04-25T08:41:27.927Z</time></trkpt><trkpt lat="37.5057717" lon="15.0208483"><ele>185.6</ele><time>2026-04-25T08:41:28.926Z</time></trkpt><trkpt lat="37.50587" lon="15.020795"><ele>183.39999999999998</ele><time>2026-04-25T08:41:29.926Z</time></trkpt><trkpt lat="37.5059683" lon="15.0207417"><ele>181.2</ele><time>2026-04-25T08:41:30.927Z</time></trkpt><trkpt lat="37.5060717" lon="15.0207"><ele>179.0</ele><time>2026-04-25T08:41:31.927Z</time></trkpt><trkpt lat="37.5061733" lon="15.0206717"><ele>177.79999999999998</ele><time>2026-04-25T08:41:32.927Z</time></trkpt><trkpt lat="37.50627" lon="15.02066"><ele>176.6</ele><time>2026-04-25T08:41:33.926Z</time></trkpt><trkpt lat="37.5063633" lon="15.0206517"><ele>175.4</ele><time>2026-04-25T08:41:34.927Z</time></trkpt><trkpt lat="37.5064683" lon="15.0206483"><ele>174.2</ele><time>2026-04-25T08:41:35.926Z</time></trkpt><trkpt lat="37.5065733" lon="15.0206517"><ele>173.0</ele><time>2026-04-25T08:41:36.927Z</time></trkpt><trkpt lat="37.5066733" lon="15.020665"><ele>173.0</ele><time>2026-04-25T08:41:37.927Z</time></trkpt><trkpt lat="37.506775" lon="15.02069"><ele>173.0</ele><time>2026-04-25T08:41:38.926Z</time></trkpt><trkpt lat="37.5068817" lon="15.0207217"><ele>173.0</ele><time>2026-04-25T08:41:39.926Z</time></trkpt><trkpt lat="37.5069867" lon="15.0207567"><ele>173.0</ele><time>2026-04-25T08:41:40.927Z</time></trkpt><trkpt lat="37.50708" lon="15.020805"><ele>173.0</ele><time>2026-04-25T08:41:41.926Z</time></trkpt><trkpt lat="37.5071733" lon="15.0208567"><ele>172.4</ele><time>2026-04-25T08:41:42.926Z</time></trkpt><trkpt lat="37.5072633" lon="15.02091"><ele>171.8</ele><time>2026-04-25T08:41:43.926Z</time></trkpt><trkpt lat="37.5073483" lon="15.02098"><ele>171.2</ele><time>2026-04-25T08:41:44.926Z</time></trkpt><trkpt lat="37.5074367" lon="15.0210567"><ele>170.6</ele><time>2026-04-25T08:41:45.926Z</time></trkpt><trkpt lat="37.5075233" lon="15.02114"><ele>170.0</ele><time>2026-04-25T08:41:46.927Z</time></trkpt><trkpt lat="37.50761" lon="15.0212367"><ele>170.0</ele><time>2026-04-25T08:41:47.926Z</time></trkpt><trkpt lat="37.5076933" lon="15.0213367"><ele>170.0</ele><time>2026-04-25T08:41:48.926Z</time></trkpt><trkpt lat="37.50777" lon="15.0214533"><ele>170.0</ele><time>2026-04-25T08:41:49.927Z</time></trkpt><trkpt lat="37.5078417" lon="15.0215767"><ele>170.0</ele><time>2026-04-25T08:41:50.926Z</time></trkpt><trkpt lat="37.5079117" lon="15.02171"><ele>169.0</ele><time>2026-04-25T08:41:51.926Z</time></trkpt><trkpt lat="37.5079683" lon="15.0218533"><ele>168.0</ele><time>2026-04-25T08:41:52.926Z</time></trkpt><trkpt lat="37.5080217" lon="15.0219983"><ele>167.0</ele><time>2026-04-25T08:41:53.927Z</time></trkpt><trkpt lat="37.5080633" lon="15.02214"><ele>166.0</ele><time>2026-04-25T08:41:54.926Z</time></trkpt><trkpt lat="37.5080983" lon="15.0222933"><ele>166.0</ele><time>2026-04-25T08:41:55.927Z</time></trkpt><trkpt lat="37.5081283" lon="15.022445"><ele>166.0</ele><time>2026-04-25T08:41:56.926Z</time></trkpt><trkpt lat="37.50816" lon="15.0225967"><ele>166.0</ele><time>2026-04-25T08:41:57.927Z</time></trkpt><trkpt lat="37.5081917" lon="15.022755"><ele>166.0</ele><time>2026-04-25T08:41:58.927Z</time></trkpt><trkpt lat="37.50822" lon="15.022925"><ele>165.66666666666669</ele><time>2026-04-25T08:41:59.927Z</time></trkpt><trkpt lat="37.5082517" lon="15.0231033"><ele>165.33333333333334</ele><time>2026-04-25T08:42:00.926Z</time></trkpt><trkpt lat="37.508285" lon="15.0232883"><ele>165.0</ele><time>2026-04-25T08:42:01.927Z</time></trkpt><trkpt lat="37.5083083" lon="15.023485"><ele>164.0</ele><time>2026-04-25T08:42:02.926Z</time></trkpt><trkpt lat="37.5083417" lon="15.0236733"><ele>163.0</ele><time>2026-04-25T08:42:03.927Z</time></trkpt><trkpt lat="37.50838" lon="15.02386"><ele>162.0</ele><time>2026-04-25T08:42:04.927Z</time></trkpt><trkpt lat="37.5084167" lon="15.0240433"><ele>162.66666666666666</ele><time>2026-04-25T08:42:05.927Z</time></trkpt><trkpt lat="37.5084483" lon="15.0242283"><ele>163.33333333333331</ele><time>2026-04-25T08:42:06.926Z</time></trkpt><trkpt lat="37.5084783" lon="15.024415"><ele>164.0</ele><time>2026-04-25T08:42:07.926Z</time></trkpt><trkpt lat="37.5085067" lon="15.0246017"><ele>164.0</ele><time>2026-04-25T08:42:08.927Z</time></trkpt><trkpt lat="37.5085267" lon="15.024795"><ele>164.0</ele><time>2026-04-25T08:42:09.927Z</time></trkpt><trkpt lat="37.5085417" lon="15.0249883"><ele>164.0</ele><time>2026-04-25T08:42:10.927Z</time></trkpt><trkpt lat="37.5085617" lon="15.0251633"><ele>164.0</ele><time>2026-04-25T08:42:11.926Z</time></trkpt><trkpt lat="37.5085817" lon="15.0253317"><ele>164.25</ele><time>2026-04-25T08:42:12.927Z</time></trkpt><trkpt lat="37.5085917" lon="15.025505"><ele>164.5</ele><time>2026-04-25T08:42:13.927Z</time></trkpt><trkpt lat="37.50858" lon="15.025675"><ele>164.75</ele><time>2026-04-25T08:42:14.926Z</time></trkpt><trkpt lat="37.5085667" lon="15.02585"><ele>165.0</ele><time>2026-04-25T08:42:15.927Z</time></trkpt><trkpt lat="37.50856" lon="15.0260383"><ele>165.0</ele><time>2026-04-25T08:42:16.927Z</time></trkpt><trkpt lat="37.508545" lon="15.0262267"><ele>165.0</ele><time>2026-04-25T08:42:17.926Z</time></trkpt><trkpt lat="37.5085483" lon="15.0264017"><ele>165.0</ele><time>2026-04-25T08:42:18.926Z</time></trkpt><trkpt lat="37.5085283" lon="15.026555"><ele>165.0</ele><time>2026-04-25T08:42:19.926Z</time></trkpt><trkpt lat="37.5084933" lon="15.0267067"><ele>165.0</ele><time>2026-04-25T08:42:20.926Z</time></trkpt><trkpt lat="37.5084583" lon="15.02686"><ele>165.0</ele><time>2026-04-25T08:42:21.927Z</time></trkpt><trkpt lat="37.50847" lon="15.0270017"><ele>165.0</ele><time>2026-04-25T08:42:22.926Z</time></trkpt><trkpt lat="37.5084933" lon="15.0271667"><ele>165.0</ele><time>2026-04-25T08:42:23.927Z</time></trkpt><trkpt lat="37.5085283" lon="15.0273383"><ele>165.33333333333334</ele><time>2026-04-25T08:42:24.927Z</time></trkpt><trkpt lat="37.5085833" lon="15.0275033"><ele>165.66666666666669</ele><time>2026-04-25T08:42:25.927Z</time></trkpt><trkpt lat="37.508655" lon="15.027675"><ele>166.0</ele><time>2026-04-25T08:42:26.926Z</time></trkpt><trkpt lat="37.508755" lon="15.0278367"><ele>164.66666666666669</ele><time>2026-04-25T08:42:27.926Z</time></trkpt><trkpt lat="37.50888" lon="15.0279817"><ele>163.33333333333334</ele><time>2026-04-25T08:42:28.926Z</time></trkpt><trkpt lat="37.5090183" lon="15.0280967"><ele>162.0</ele><time>2026-04-25T08:42:29.927Z</time></trkpt><trkpt lat="37.5091683" lon="15.0281733"><ele>162.0</ele><time>2026-04-25T08:42:30.927Z</time></trkpt><trkpt lat="37.5093083" lon="15.0282367"><ele>162.0</ele><time>2026-04-25T08:42:31.926Z</time></trkpt><trkpt lat="37.5094567" lon="15.0282833"><ele>162.0</ele><time>2026-04-25T08:42:32.926Z</time></trkpt><trkpt lat="37.5095667" lon="15.0283117"><ele>162.0</ele><time>2026-04-25T08:42:33.927Z</time></trkpt><trkpt lat="37.5096883" lon="15.028225"><ele>160.33333333333334</ele><time>2026-04-25T08:42:34.926Z</time></trkpt><trkpt lat="37.5098167" lon="15.0281"><ele>158.66666666666669</ele><time>2026-04-25T08:42:35.926Z</time></trkpt><trkpt lat="37.5099483" lon="15.0279833"><ele>157.0</ele><time>2026-04-25T08:42:36.926Z</time></trkpt><trkpt lat="37.51005" lon="15.027865"><ele>157.0</ele><time>2026-04-25T08:42:37.927Z</time></trkpt><trkpt lat="37.5101167" lon="15.02775"><ele>157.0</ele><time>2026-04-25T08:42:38.927Z</time></trkpt><trkpt lat="37.5101633" lon="15.0276317"><ele>157.0</ele><time>2026-04-25T08:42:39.926Z</time></trkpt><trkpt lat="37.5102017" lon="15.0275083"><ele>157.0</ele><time>2026-04-25T08:42:40.926Z</time></trkpt><trkpt lat="37.5102433" lon="15.0274083"><ele>157.0</ele><time>2026-04-25T08:42:41.927Z</time></trkpt><trkpt lat="37.5102833" lon="15.0272933"><ele>156.25</ele><time>2026-04-25T08:42:42.927Z</time></trkpt><trkpt lat="37.5103367" lon="15.02716"><ele>155.5</ele><time>2026-04-25T08:42:43.927Z</time></trkpt><trkpt lat="37.5104" lon="15.0269983"><ele>154.75</ele><time>2026-04-25T08:42:44.927Z</time></trkpt><trkpt lat="37.510465" lon="15.0268117"><ele>154.0</ele><time>2026-04-25T08:42:45.927Z</time></trkpt><trkpt lat="37.51054" lon="15.0266183"><ele>154.0</ele><time>2026-04-25T08:42:46.927Z</time></trkpt><trkpt lat="37.510595" lon="15.0264217"><ele>154.0</ele><time>2026-04-25T08:42:47.926Z</time></trkpt><trkpt lat="37.5106383" lon="15.02621"><ele>154.0</ele><time>2026-04-25T08:42:48.926Z</time></trkpt><trkpt lat="37.5106717" lon="15.0259917"><ele>154.0</ele><time>2026-04-25T08:42:49.927Z</time></trkpt><trkpt lat="37.51071" lon="15.0257717"><ele>154.0</ele><time>2026-04-25T08:42:50.926Z</time></trkpt><trkpt lat="37.510745" lon="15.025555"><ele>154.0</ele><time>2026-04-25T08:42:51.927Z</time></trkpt><trkpt lat="37.510775" lon="15.0253233"><ele>154.0</ele><time>2026-04-25T08:42:52.927Z</time></trkpt><trkpt lat="37.5107967" lon="15.0250983"><ele>154.0</ele><time>2026-04-25T08:42:53.927Z</time></trkpt><trkpt lat="37.510815" lon="15.024865"><ele>154.0</ele><time>2026-04-25T08:42:54.927Z</time></trkpt><trkpt lat="37.5108267" lon="15.0246167"><ele>154.0</ele><time>2026-04-25T08:42:55.927Z</time></trkpt><trkpt lat="37.51083" lon="15.0243817"><ele>154.0</ele><time>2026-04-25T08:42:56.926Z</time></trkpt><trkpt lat="37.5108383" lon="15.0241383"><ele>154.0</ele><time>2026-04-25T08:42:57.927Z</time></trkpt><trkpt lat="37.5108417" lon="15.023895"><ele>154.0</ele><time>2026-04-25T08:42:58.927Z</time></trkpt><trkpt lat="37.510835" lon="15.0236583"><ele>154.0</ele><time>2026-04-25T08:42:59.926Z</time></trkpt><trkpt lat="37.5108317" lon="15.0234217"><ele>154.0</ele><time>2026-04-25T08:43:00.927Z</time></trkpt><trkpt lat="37.51083" lon="15.0231733"><ele>154.33333333333334</ele><time>2026-04-25T08:43:01.926Z</time></trkpt><trkpt lat="37.5108333" lon="15.022925"><ele>154.66666666666666</ele><time>2026-04-25T08:43:02.926Z</time></trkpt><trkpt lat="37.5108433" lon="15.0226717"><ele>155.0</ele><time>2026-04-25T08:43:03.927Z</time></trkpt><trkpt lat="37.510855" lon="15.02242"><ele>155.0</ele><time>2026-04-25T08:43:04.926Z</time></trkpt><trkpt lat="37.51087" lon="15.0221683"><ele>155.0</ele><time>2026-04-25T08:43:05.927Z</time></trkpt><trkpt lat="37.510895" lon="15.0219233"><ele>155.0</ele><time>2026-04-25T08:43:06.926Z</time></trkpt><trkpt lat="37.51092" lon="15.021685"><ele>156.66666666666666</ele><time>2026-04-25T08:43:07.926Z</time></trkpt><trkpt lat="37.510945" lon="15.0214383"><ele>158.33333333333334</ele><time>2026-04-25T08:43:08.927Z</time></trkpt><trkpt lat="37.5109733" lon="15.0212"><ele>160.0</ele><time>2026-04-25T08:43:09.926Z</time></trkpt><trkpt lat="37.51101" lon="15.0209567"><ele>159.66666666666669</ele><time>2026-04-25T08:43:10.927Z</time></trkpt><trkpt lat="37.5110483" lon="15.020715"><ele>159.33333333333334</ele><time>2026-04-25T08:43:11.926Z</time></trkpt><trkpt lat="37.5110933" lon="15.020465"><ele>159.0</ele><time>2026-04-25T08:43:12.927Z</time></trkpt><trkpt lat="37.5111433" lon="15.0202133"><ele>159.66666666666666</ele><time>2026-04-25T08:43:13.925Z</time></trkpt><trkpt lat="37.5111917" lon="15.0199633"><ele>160.33333333333331</ele><time>2026-04-25T08:43:14.925Z</time></trkpt><trkpt lat="37.5112467" lon="15.0197283"><ele>161.0</ele><time>2026-04-25T08:43:15.926Z</time></trkpt><trkpt lat="37.51131" lon="15.0194967"><ele>160.66666666666666</ele><time>2026-04-25T08:43:16.926Z</time></trkpt><trkpt lat="37.5113733" lon="15.01926"><ele>160.33333333333334</ele><time>2026-04-25T08:43:17.926Z</time></trkpt><trkpt lat="37.5114333" lon="15.01904"><ele>160.0</ele><time>2026-04-25T08:43:18.926Z</time></trkpt><trkpt lat="37.5115117" lon="15.018815"><ele>160.0</ele><time>2026-04-25T08:43:19.926Z</time></trkpt><trkpt lat="37.5115867" lon="15.0185733"><ele>160.0</ele><time>2026-04-25T08:43:20.925Z</time></trkpt><trkpt lat="37.5116617" lon="15.0183417"><ele>160.0</ele><time>2026-04-25T08:43:21.925Z</time></trkpt><trkpt lat="37.511735" lon="15.0181117"><ele>160.33333333333334</ele><time>2026-04-25T08:43:22.926Z</time></trkpt><trkpt lat="37.5118" lon="15.0178867"><ele>160.66666666666666</ele><time>2026-04-25T08:43:23.926Z</time></trkpt><trkpt lat="37.5118667" lon="15.0176683"><ele>161.0</ele><time>2026-04-25T08:43:24.925Z</time></trkpt><trkpt lat="37.51193" lon="15.0174467"><ele>161.0</ele><time>2026-04-25T08:43:25.926Z</time></trkpt><trkpt lat="37.5119967" lon="15.01722"><ele>161.0</ele><time>2026-04-25T08:43:26.925Z</time></trkpt><trkpt lat="37.512065" lon="15.0170067"><ele>161.0</ele><time>2026-04-25T08:43:27.925Z</time></trkpt><trkpt lat="37.512125" lon="15.016785"><ele>161.0</ele><time>2026-04-25T08:43:28.925Z</time></trkpt><trkpt lat="37.5122" lon="15.0165633"><ele>161.0</ele><time>2026-04-25T08:43:29.926Z</time></trkpt><trkpt lat="37.5122767" lon="15.0163467"><ele>161.0</ele><time>2026-04-25T08:43:30.925Z</time></trkpt><trkpt lat="37.512355" lon="15.0161267"><ele>161.0</ele><time>2026-04-25T08:43:31.925Z</time></trkpt><trkpt lat="37.5124383" lon="15.015905"><ele>161.0</ele><time>2026-04-25T08:43:32.925Z</time></trkpt><trkpt lat="37.5125333" lon="15.0157033"><ele>161.0</ele><time>2026-04-25T08:43:33.925Z</time></trkpt><trkpt lat="37.5126317" lon="15.0154917"><ele>161.0</ele><time>2026-04-25T08:43:34.925Z</time></trkpt><trkpt lat="37.5127367" lon="15.01528"><ele>161.0</ele><time>2026-04-25T08:43:35.925Z</time></trkpt><trkpt lat="37.5128317" lon="15.015075"><ele>161.0</ele><time>2026-04-25T08:43:36.926Z</time></trkpt><trkpt lat="37.5129283" lon="15.0148783"><ele>161.66666666666666</ele><time>2026-04-25T08:43:37.926Z</time></trkpt><trkpt lat="37.5130133" lon="15.0146667"><ele>162.33333333333334</ele><time>2026-04-25T08:43:38.926Z</time></trkpt><trkpt lat="37.513105" lon="15.0144533"><ele>163.0</ele><time>2026-04-25T08:43:39.925Z</time></trkpt><trkpt lat="37.5132" lon="15.0142583"><ele>162.66666666666669</ele><time>2026-04-25T08:43:40.926Z</time></trkpt><trkpt lat="37.5132817" lon="15.0140533"><ele>162.33333333333334</ele><time>2026-04-25T08:43:41.925Z</time></trkpt><trkpt lat="37.5133583" lon="15.013845"><ele>162.0</ele><time>2026-04-25T08:43:42.926Z</time></trkpt><trkpt lat="37.5134367" lon="15.0136367"><ele>162.0</ele><time>2026-04-25T08:43:43.926Z</time></trkpt><trkpt lat="37.5134967" lon="15.013455"><ele>162.0</ele><time>2026-04-25T08:43:44.926Z</time></trkpt><trkpt lat="37.5135517" lon="15.0132717"><ele>162.0</ele><time>2026-04-25T08:43:45.926Z</time></trkpt><trkpt lat="37.513595" lon="15.0131017"><ele>162.75</ele><time>2026-04-25T08:43:46.926Z</time></trkpt><trkpt lat="37.5136283" lon="15.0129383"><ele>163.5</ele><time>2026-04-25T08:43:47.926Z</time></trkpt><trkpt lat="37.513655" lon="15.0127883"><ele>164.25</ele><time>2026-04-25T08:43:48.925Z</time></trkpt><trkpt lat="37.51368" lon="15.0126267"><ele>165.0</ele><time>2026-04-25T08:43:49.925Z</time></trkpt><trkpt lat="37.5136967" lon="15.0124567"><ele>165.25</ele><time>2026-04-25T08:43:50.925Z</time></trkpt><trkpt lat="37.5137067" lon="15.0122767"><ele>165.5</ele><time>2026-04-25T08:43:51.925Z</time></trkpt><trkpt lat="37.513715" lon="15.0120917"><ele>165.75</ele><time>2026-04-25T08:43:52.926Z</time></trkpt><trkpt lat="37.5137217" lon="15.0119033"><ele>166.0</ele><time>2026-04-25T08:43:53.926Z</time></trkpt><trkpt lat="37.5137233" lon="15.0117217"><ele>166.66666666666669</ele><time>2026-04-25T08:43:54.926Z</time></trkpt><trkpt lat="37.5137117" lon="15.01153"><ele>167.33333333333334</ele><time>2026-04-25T08:43:55.925Z</time></trkpt><trkpt lat="37.5137067" lon="15.011325"><ele>168.0</ele><time>2026-04-25T08:43:56.925Z</time></trkpt><trkpt lat="37.5137" lon="15.0111167"><ele>168.0</ele><time>2026-04-25T08:43:57.925Z</time></trkpt><trkpt lat="37.513695" lon="15.01091"><ele>168.0</ele><time>2026-04-25T08:43:58.926Z</time></trkpt><trkpt lat="37.5136867" lon="15.0107083"><ele>168.0</ele><time>2026-04-25T08:43:59.926Z</time></trkpt><trkpt lat="37.5136783" lon="15.0105"><ele>169.66666666666666</ele><time>2026-04-25T08:44:00.926Z</time></trkpt><trkpt lat="37.51366" lon="15.0102783"><ele>171.33333333333331</ele><time>2026-04-25T08:44:01.925Z</time></trkpt><trkpt lat="37.5136467" lon="15.0100683"><ele>173.0</ele><time>2026-04-25T08:44:02.926Z</time></trkpt><trkpt lat="37.5136367" lon="15.0098517"><ele>173.0</ele><time>2026-04-25T08:44:03.925Z</time></trkpt><trkpt lat="37.5136217" lon="15.0096367"><ele>173.0</ele><time>2026-04-25T08:44:04.926Z</time></trkpt><trkpt lat="37.5136083" lon="15.0094167"><ele>173.0</ele><time>2026-04-25T08:44:05.925Z</time></trkpt><trkpt lat="37.513605" lon="15.0091917"><ele>176.0</ele><time>2026-04-25T08:44:06.926Z</time></trkpt><trkpt lat="37.513595" lon="15.0089683"><ele>179.0</ele><time>2026-04-25T08:44:07.926Z</time></trkpt><trkpt lat="37.5135883" lon="15.0087483"><ele>182.0</ele><time>2026-04-25T08:44:08.926Z</time></trkpt><trkpt lat="37.51358" lon="15.0085267"><ele>183.66666666666666</ele><time>2026-04-25T08:44:09.926Z</time></trkpt><trkpt lat="37.5135717" lon="15.0083067"><ele>185.33333333333334</ele><time>2026-04-25T08:44:10.926Z</time></trkpt><trkpt lat="37.513565" lon="15.008095"><ele>187.0</ele><time>2026-04-25T08:44:11.925Z</time></trkpt><trkpt lat="37.5135583" lon="15.0078867"><ele>187.0</ele><time>2026-04-25T08:44:12.926Z</time></trkpt><trkpt lat="37.5135717" lon="15.0076867"><ele>187.0</ele><time>2026-04-25T08:44:13.925Z</time></trkpt><trkpt lat="37.5135917" lon="15.0074783"><ele>187.0</ele><time>2026-04-25T08:44:14.926Z</time></trkpt><trkpt lat="37.5136217" lon="15.0072733"><ele>187.33333333333334</ele><time>2026-04-25T08:44:15.926Z</time></trkpt><trkpt lat="37.513665" lon="15.00707"><ele>187.66666666666666</ele><time>2026-04-25T08:44:16.925Z</time></trkpt><trkpt lat="37.5137167" lon="15.0068733"><ele>188.0</ele><time>2026-04-25T08:44:17.926Z</time></trkpt><trkpt lat="37.5137767" lon="15.006685"><ele>192.33333333333331</ele><time>2026-04-25T08:44:18.925Z</time></trkpt><trkpt lat="37.5138417" lon="15.006495"><ele>196.66666666666666</ele><time>2026-04-25T08:44:19.926Z</time></trkpt><trkpt lat="37.5139167" lon="15.0062967"><ele>201.0</ele><time>2026-04-25T08:44:20.925Z</time></trkpt><trkpt lat="37.514" lon="15.0061167"><ele>201.0</ele><time>2026-04-25T08:44:21.926Z</time></trkpt><trkpt lat="37.5141017" lon="15.0059333"><ele>201.0</ele><time>2026-04-25T08:44:22.926Z</time></trkpt><trkpt lat="37.5142083" lon="15.005765"><ele>201.0</ele><time>2026-04-25T08:44:23.926Z</time></trkpt><trkpt lat="37.51433" lon="15.0056"><ele>203.0</ele><time>2026-04-25T08:44:24.926Z</time></trkpt><trkpt lat="37.514455" lon="15.00545"><ele>205.0</ele><time>2026-04-25T08:44:25.926Z</time></trkpt><trkpt lat="37.5145817" lon="15.0053083"><ele>207.0</ele><time>2026-04-25T08:44:26.926Z</time></trkpt><trkpt lat="37.5147167" lon="15.00518"><ele>207.0</ele><time>2026-04-25T08:44:27.925Z</time></trkpt><trkpt lat="37.5148483" lon="15.00506"><ele>207.0</ele><time>2026-04-25T08:44:28.926Z</time></trkpt><trkpt lat="37.5149783" lon="15.0049417"><ele>207.0</ele><time>2026-04-25T08:44:29.926Z</time></trkpt><trkpt lat="37.5151083" lon="15.0048183"><ele>207.5</ele><time>2026-04-25T08:44:30.926Z</time></trkpt><trkpt lat="37.5152317" lon="15.004695"><ele>208.0</ele><time>2026-04-25T08:44:31.926Z</time></trkpt><trkpt lat="37.5153483" lon="15.0045717"><ele>208.5</ele><time>2026-04-25T08:44:32.926Z</time></trkpt><trkpt lat="37.5154567" lon="15.004465"><ele>209.0</ele><time>2026-04-25T08:44:33.925Z</time></trkpt><trkpt lat="37.515565" lon="15.0043583"><ele>209.0</ele><time>2026-04-25T08:44:34.926Z</time></trkpt><trkpt lat="37.51567" lon="15.0042667"><ele>209.0</ele><time>2026-04-25T08:44:35.926Z</time></trkpt><trkpt lat="37.515765" lon="15.00418"><ele>209.0</ele><time>2026-04-25T08:44:36.925Z</time></trkpt><trkpt lat="37.5158617" lon="15.0040983"><ele>209.0</ele><time>2026-04-25T08:44:37.926Z</time></trkpt><trkpt lat="37.5159483" lon="15.0040367"><ele>208.33333333333334</ele><time>2026-04-25T08:44:38.926Z</time></trkpt><trkpt lat="37.5160283" lon="15.003985"><ele>207.66666666666669</ele><time>2026-04-25T08:44:39.926Z</time></trkpt><trkpt lat="37.5160917" lon="15.003955"><ele>207.0</ele><time>2026-04-25T08:44:40.925Z</time></trkpt><trkpt lat="37.5161867" lon="15.0039667"><ele>206.33333333333331</ele><time>2026-04-25T08:44:42.925Z</time></trkpt><trkpt lat="37.5162417" lon="15.0040133"><ele>205.66666666666666</ele><time>2026-04-25T08:44:44.926Z</time></trkpt><trkpt lat="37.5162883" lon="15.0040967"><ele>205.0</ele><time>2026-04-25T08:44:47.926Z</time></trkpt><trkpt lat="37.5163133" lon="15.004175"><ele>223.0</ele><time>2026-04-25T08:44:50.925Z</time></trkpt></trkseg><trkseg><trkpt lat="37.5166367" lon="15.0033783"><ele>214.0</ele><time>2026-04-25T09:04:42.064Z</time></trkpt><trkpt lat="37.5167483" lon="15.0035767"><ele>214.0</ele><time>2026-04-25T09:04:44.064Z</time></trkpt><trkpt lat="37.51664" lon="15.003615"><ele>214.0</ele><time>2026-04-25T09:04:48.065Z</time></trkpt><trkpt lat="37.5163117" lon="15.0041217"><ele>214.0</ele><time>2026-04-25T09:04:50.064Z</time></trkpt><trkpt lat="37.5163967" lon="15.0041417"><ele>213.99999999999997</ele><time>2026-04-25T09:04:52.926Z</time></trkpt><trkpt lat="37.51649" lon="15.0040633"><ele>213.99999999999997</ele><time>2026-04-25T09:04:54.925Z</time></trkpt><trkpt lat="37.51653" lon="15.0040017"><ele>214.0</ele><time>2026-04-25T09:04:55.926Z</time></trkpt><trkpt lat="37.51654" lon="15.00386"><ele>214.0</ele><time>2026-04-25T09:04:57.925Z</time></trkpt><trkpt lat="37.516535" lon="15.0037067"><ele>213.99999999999997</ele><time>2026-04-25T09:04:59.926Z</time></trkpt><trkpt lat="37.5165533" lon="15.0035517"><ele>214.0</ele><time>2026-04-25T09:05:01.925Z</time></trkpt><trkpt lat="37.5165783" lon="15.0034767"><ele>214.0</ele><time>2026-04-25T09:05:02.925Z</time></trkpt><trkpt lat="37.5166183" lon="15.0034067"><ele>214.0</ele><time>2026-04-25T09:05:03.925Z</time></trkpt><trkpt lat="37.5166633" lon="15.003345"><ele>213.99999999999997</ele><time>2026-04-25T09:05:04.925Z</time></trkpt><trkpt lat="37.5167317" lon="15.0032567"><ele>214.0</ele><time>2026-04-25T09:05:06.925Z</time></trkpt><trkpt lat="37.5167817" lon="15.003205"><ele>213.33333333333331</ele><time>2026-04-25T09:05:08.926Z</time></trkpt><trkpt lat="37.5168483" lon="15.0031317"><ele>212.66666666666666</ele><time>2026-04-25T09:05:11.926Z</time></trkpt><trkpt lat="37.5169017" lon="15.0030717"><ele>212.0</ele><time>2026-04-25T09:05:13.925Z</time></trkpt><trkpt lat="37.5169583" lon="15.0029883"><ele>211.33333333333331</ele><time>2026-04-25T09:05:15.925Z</time></trkpt><trkpt lat="37.5170317" lon="15.0029083"><ele>210.66666666666666</ele><time>2026-04-25T09:05:17.926Z</time></trkpt><trkpt lat="37.5170967" lon="15.0028483"><ele>210.0</ele><time>2026-04-25T09:05:19.925Z</time></trkpt><trkpt lat="37.5171733" lon="15.0027483"><ele>211.0</ele><time>2026-04-25T09:05:22.926Z</time></trkpt><trkpt lat="37.51723" lon="15.002685"><ele>212.0</ele><time>2026-04-25T09:05:23.925Z</time></trkpt><trkpt lat="37.5172933" lon="15.0026183"><ele>213.0</ele><time>2026-04-25T09:05:24.925Z</time></trkpt><trkpt lat="37.5173583" lon="15.0025433"><ele>214.0</ele><time>2026-04-25T09:05:25.925Z</time></trkpt><trkpt lat="37.5174433" lon="15.00246"><ele>215.0</ele><time>2026-04-25T09:05:26.926Z</time></trkpt><trkpt lat="37.5175433" lon="15.00236"><ele>215.0</ele><time>2026-04-25T09:05:27.925Z</time></trkpt><trkpt lat="37.5176583" lon="15.0022533"><ele>215.0</ele><time>2026-04-25T09:05:28.925Z</time></trkpt><trkpt lat="37.5177567" lon="15.0021433"><ele>215.0</ele><time>2026-04-25T09:05:29.925Z</time></trkpt><trkpt lat="37.517865" lon="15.0020267"><ele>215.0</ele><time>2026-04-25T09:05:30.926Z</time></trkpt><trkpt lat="37.517965" lon="15.0019033"><ele>217.66666666666669</ele><time>2026-04-25T09:05:31.926Z</time></trkpt><trkpt lat="37.5180717" lon="15.001775"><ele>220.33333333333331</ele><time>2026-04-25T09:05:32.926Z</time></trkpt><trkpt lat="37.5181867" lon="15.0016417"><ele>223.0</ele><time>2026-04-25T09:05:33.926Z</time></trkpt><trkpt lat="37.5182967" lon="15.0015017"><ele>223.0</ele><time>2026-04-25T09:05:34.925Z</time></trkpt><trkpt lat="37.5184033" lon="15.001355"><ele>223.0</ele><time>2026-04-25T09:05:35.926Z</time></trkpt><trkpt lat="37.5185017" lon="15.001215"><ele>223.0</ele><time>2026-04-25T09:05:36.926Z</time></trkpt><trkpt lat="37.5185917" lon="15.0010583"><ele>223.0</ele><time>2026-04-25T09:05:37.925Z</time></trkpt><trkpt lat="37.51868" lon="15.0009017"><ele>223.0</ele><time>2026-04-25T09:05:38.926Z</time></trkpt><trkpt lat="37.5187683" lon="15.000755"><ele>223.0</ele><time>2026-04-25T09:05:39.925Z</time></trkpt><trkpt lat="37.5188483" lon="15.000605"><ele>223.0</ele><time>2026-04-25T09:05:40.925Z</time></trkpt><trkpt lat="37.5189283" lon="15.0004567"><ele>227.5</ele><time>2026-04-25T09:05:41.926Z</time></trkpt><trkpt lat="37.5189983" lon="15.000305"><ele>232.0</ele><time>2026-04-25T09:05:42.925Z</time></trkpt><trkpt lat="37.5190733" lon="15.0001467"><ele>236.5</ele><time>2026-04-25T09:05:43.926Z</time></trkpt><trkpt lat="37.5191317" lon="15.0"><ele>241.0</ele><time>2026-04-25T09:05:44.926Z</time></trkpt><trkpt lat="37.5191933" lon="14.9998417"><ele>241.0</ele><time>2026-04-25T09:05:45.925Z</time></trkpt><trkpt lat="37.51926" lon="14.9996883"><ele>241.0</ele><time>2026-04-25T09:05:46.925Z</time></trkpt><trkpt lat="37.5193233" lon="14.9995367"><ele>241.0</ele><time>2026-04-25T09:05:47.925Z</time></trkpt><trkpt lat="37.51939" lon="14.9993783"><ele>241.0</ele><time>2026-04-25T09:05:48.926Z</time></trkpt><trkpt lat="37.519445" lon="14.9992367"><ele>239.25</ele><time>2026-04-25T09:05:49.926Z</time></trkpt><trkpt lat="37.5195067" lon="14.9990967"><ele>237.5</ele><time>2026-04-25T09:05:50.926Z</time></trkpt><trkpt lat="37.519575" lon="14.9989467"><ele>235.75</ele><time>2026-04-25T09:05:51.926Z</time></trkpt><trkpt lat="37.51965" lon="14.9987983"><ele>234.0</ele><time>2026-04-25T09:05:52.926Z</time></trkpt><trkpt lat="37.519725" lon="14.9986467"><ele>237.0</ele><time>2026-04-25T09:05:53.926Z</time></trkpt><trkpt lat="37.5198067" lon="14.9984983"><ele>240.0</ele><time>2026-04-25T09:05:54.926Z</time></trkpt><trkpt lat="37.51989" lon="14.9983517"><ele>243.0</ele><time>2026-04-25T09:05:55.926Z</time></trkpt><trkpt lat="37.5199833" lon="14.9982117"><ele>246.0</ele><time>2026-04-25T09:05:56.925Z</time></trkpt><trkpt lat="37.5200917" lon="14.9980733"><ele>246.0</ele><time>2026-04-25T09:05:57.925Z</time></trkpt><trkpt lat="37.5202117" lon="14.9979583"><ele>246.0</ele><time>2026-04-25T09:05:58.925Z</time></trkpt><trkpt lat="37.5203433" lon="14.997825"><ele>246.0</ele><time>2026-04-25T09:05:59.926Z</time></trkpt><trkpt lat="37.520475" lon="14.9977067"><ele>246.33333333333331</ele><time>2026-04-25T09:06:00.926Z</time></trkpt><trkpt lat="37.5206167" lon="14.997595"><ele>246.66666666666666</ele><time>2026-04-25T09:06:01.925Z</time></trkpt><trkpt lat="37.5207433" lon="14.9974783"><ele>247.0</ele><time>2026-04-25T09:06:02.926Z</time></trkpt><trkpt lat="37.5208933" lon="14.9973617"><ele>247.0</ele><time>2026-04-25T09:06:03.925Z</time></trkpt><trkpt lat="37.521045" lon="14.9972517"><ele>247.0</ele><time>2026-04-25T09:06:04.925Z</time></trkpt><trkpt lat="37.5211933" lon="14.9971517"><ele>247.0</ele><time>2026-04-25T09:06:05.926Z</time></trkpt><trkpt lat="37.5213467" lon="14.99706"><ele>247.0</ele><time>2026-04-25T09:06:06.925Z</time></trkpt><trkpt lat="37.5215083" lon="14.996965"><ele>247.0</ele><time>2026-04-25T09:06:07.926Z</time></trkpt><trkpt lat="37.5216683" lon="14.9968783"><ele>247.0</ele><time>2026-04-25T09:06:08.925Z</time></trkpt><trkpt lat="37.52183" lon="14.996785"><ele>247.0</ele><time>2026-04-25T09:06:09.925Z</time></trkpt><trkpt lat="37.5219783" lon="14.9966817"><ele>247.0</ele><time>2026-04-25T09:06:10.926Z</time></trkpt><trkpt lat="37.5221217" lon="14.9965983"><ele>247.0</ele><time>2026-04-25T09:06:11.925Z</time></trkpt><trkpt lat="37.52227" lon="14.9965233"><ele>248.0</ele><time>2026-04-25T09:06:12.925Z</time></trkpt><trkpt lat="37.5224083" lon="14.9964467"><ele>249.0</ele><time>2026-04-25T09:06:13.926Z</time></trkpt><trkpt lat="37.5225483" lon="14.9963517"><ele>250.0</ele><time>2026-04-25T09:06:14.926Z</time></trkpt><trkpt lat="37.5227" lon="14.996265"><ele>250.0</ele><time>2026-04-25T09:06:15.925Z</time></trkpt><trkpt lat="37.5228617" lon="14.9961667"><ele>250.0</ele><time>2026-04-25T09:06:16.926Z</time></trkpt><trkpt lat="37.523035" lon="14.9960717"><ele>250.0</ele><time>2026-04-25T09:06:17.926Z</time></trkpt><trkpt lat="37.5232067" lon="14.9959633"><ele>250.66666666666666</ele><time>2026-04-25T09:06:18.925Z</time></trkpt><trkpt lat="37.5233717" lon="14.995875"><ele>251.33333333333331</ele><time>2026-04-25T09:06:19.926Z</time></trkpt><trkpt lat="37.523545" lon="14.9957833"><ele>252.0</ele><time>2026-04-25T09:06:20.925Z</time></trkpt><trkpt lat="37.5237233" lon="14.9957"><ele>252.33333333333331</ele><time>2026-04-25T09:06:21.925Z</time></trkpt><trkpt lat="37.5239083" lon="14.9956083"><ele>252.66666666666666</ele><time>2026-04-25T09:06:22.925Z</time></trkpt><trkpt lat="37.524095" lon="14.9955217"><ele>253.0</ele><time>2026-04-25T09:06:23.926Z</time></trkpt><trkpt lat="37.5242833" lon="14.9954283"><ele>253.0</ele><time>2026-04-25T09:06:24.926Z</time></trkpt><trkpt lat="37.524475" lon="14.9953567"><ele>253.0</ele><time>2026-04-25T09:06:25.926Z</time></trkpt><trkpt lat="37.5246733" lon="14.99528"><ele>253.0</ele><time>2026-04-25T09:06:26.925Z</time></trkpt><trkpt lat="37.52486" lon="14.9952033"><ele>253.66666666666666</ele><time>2026-04-25T09:06:27.926Z</time></trkpt><trkpt lat="37.52505" lon="14.9951283"><ele>254.33333333333331</ele><time>2026-04-25T09:06:28.925Z</time></trkpt><trkpt lat="37.5252333" lon="14.99505"><ele>255.0</ele><time>2026-04-25T09:06:29.925Z</time></trkpt><trkpt lat="37.5254233" lon="14.994975"><ele>255.33333333333331</ele><time>2026-04-25T09:06:30.926Z</time></trkpt><trkpt lat="37.52561" lon="14.9949017"><ele>255.66666666666666</ele><time>2026-04-25T09:06:31.926Z</time></trkpt><trkpt lat="37.52579" lon="14.9948233"><ele>256.0</ele><time>2026-04-25T09:06:32.925Z</time></trkpt><trkpt lat="37.5259717" lon="14.9947417"><ele>256.0</ele><time>2026-04-25T09:06:33.926Z</time></trkpt><trkpt lat="37.5261533" lon="14.9946567"><ele>256.0</ele><time>2026-04-25T09:06:34.925Z</time></trkpt><trkpt lat="37.5263417" lon="14.994565"><ele>256.0</ele><time>2026-04-25T09:06:35.925Z</time></trkpt><trkpt lat="37.5265183" lon="14.9944583"><ele>255.66666666666666</ele><time>2026-04-25T09:06:36.926Z</time></trkpt><trkpt lat="37.52669" lon="14.99435"><ele>255.33333333333331</ele><time>2026-04-25T09:06:37.925Z</time></trkpt><trkpt lat="37.5268667" lon="14.9942267"><ele>255.0</ele><time>2026-04-25T09:06:38.925Z</time></trkpt><trkpt lat="37.5270333" lon="14.9940983"><ele>254.33333333333331</ele><time>2026-04-25T09:06:39.925Z</time></trkpt><trkpt lat="37.5271817" lon="14.993975"><ele>253.66666666666666</ele><time>2026-04-25T09:06:40.924Z</time></trkpt><trkpt lat="37.5273483" lon="14.9938383"><ele>253.0</ele><time>2026-04-25T09:06:41.925Z</time></trkpt><trkpt lat="37.52751" lon="14.99369"><ele>253.0</ele><time>2026-04-25T09:06:42.924Z</time></trkpt><trkpt lat="37.5276767" lon="14.9935367"><ele>253.0</ele><time>2026-04-25T09:06:43.925Z</time></trkpt><trkpt lat="37.5278333" lon="14.9933767"><ele>253.0</ele><time>2026-04-25T09:06:44.925Z</time></trkpt><trkpt lat="37.5279883" lon="14.99321"><ele>253.33333333333331</ele><time>2026-04-25T09:06:45.924Z</time></trkpt><trkpt lat="37.5281417" lon="14.9930467"><ele>253.66666666666669</ele><time>2026-04-25T09:06:46.925Z</time></trkpt><trkpt lat="37.5283017" lon="14.9928817"><ele>254.0</ele><time>2026-04-25T09:06:47.925Z</time></trkpt><trkpt lat="37.5284583" lon="14.9927183"><ele>254.0</ele><time>2026-04-25T09:06:48.924Z</time></trkpt><trkpt lat="37.5286183" lon="14.9925567"><ele>254.0</ele><time>2026-04-25T09:06:49.925Z</time></trkpt><trkpt lat="37.5287817" lon="14.9923867"><ele>254.0</ele><time>2026-04-25T09:06:50.924Z</time></trkpt><trkpt lat="37.5289283" lon="14.9922217"><ele>253.66666666666669</ele><time>2026-04-25T09:06:51.924Z</time></trkpt><trkpt lat="37.52908" lon="14.9920567"><ele>253.33333333333331</ele><time>2026-04-25T09:06:52.925Z</time></trkpt><trkpt lat="37.5292383" lon="14.9918933"><ele>253.0</ele><time>2026-04-25T09:06:53.925Z</time></trkpt><trkpt lat="37.529395" lon="14.99173"><ele>253.33333333333331</ele><time>2026-04-25T09:06:54.924Z</time></trkpt><trkpt lat="37.5295483" lon="14.9915667"><ele>253.66666666666669</ele><time>2026-04-25T09:06:55.925Z</time></trkpt><trkpt lat="37.5297083" lon="14.991395"><ele>254.0</ele><time>2026-04-25T09:06:56.924Z</time></trkpt><trkpt lat="37.5298683" lon="14.9912283"><ele>253.33333333333334</ele><time>2026-04-25T09:06:57.925Z</time></trkpt><trkpt lat="37.530025" lon="14.9910633"><ele>252.66666666666669</ele><time>2026-04-25T09:06:58.924Z</time></trkpt><trkpt lat="37.5301883" lon="14.990895"><ele>252.0</ele><time>2026-04-25T09:06:59.925Z</time></trkpt><trkpt lat="37.5303567" lon="14.9907283"><ele>251.0</ele><time>2026-04-25T09:07:00.925Z</time></trkpt><trkpt lat="37.5305267" lon="14.99056"><ele>250.0</ele><time>2026-04-25T09:07:01.924Z</time></trkpt><trkpt lat="37.53069" lon="14.9903883"><ele>249.0</ele><time>2026-04-25T09:07:02.925Z</time></trkpt><trkpt lat="37.5308517" lon="14.9902133"><ele>249.0</ele><time>2026-04-25T09:07:03.924Z</time></trkpt><trkpt lat="37.5310133" lon="14.9900417"><ele>249.0</ele><time>2026-04-25T09:07:04.924Z</time></trkpt><trkpt lat="37.5311733" lon="14.9898717"><ele>249.0</ele><time>2026-04-25T09:07:05.924Z</time></trkpt><trkpt lat="37.5313367" lon="14.9897083"><ele>249.33333333333331</ele><time>2026-04-25T09:07:06.925Z</time></trkpt><trkpt lat="37.5314983" lon="14.9895417"><ele>249.66666666666666</ele><time>2026-04-25T09:07:07.925Z</time></trkpt><trkpt lat="37.5316567" lon="14.9893733"><ele>250.0</ele><time>2026-04-25T09:07:08.925Z</time></trkpt><trkpt lat="37.5318167" lon="14.9892167"><ele>250.33333333333331</ele><time>2026-04-25T09:07:09.925Z</time></trkpt><trkpt lat="37.531975" lon="14.9890517"><ele>250.66666666666669</ele><time>2026-04-25T09:07:10.925Z</time></trkpt><trkpt lat="37.5321283" lon="14.9888783"><ele>251.0</ele><time>2026-04-25T09:07:11.925Z</time></trkpt><trkpt lat="37.532275" lon="14.98871"><ele>251.0</ele><time>2026-04-25T09:07:12.925Z</time></trkpt><trkpt lat="37.5324317" lon="14.98854"><ele>251.0</ele><time>2026-04-25T09:07:13.924Z</time></trkpt><trkpt lat="37.532585" lon="14.988365"><ele>251.0</ele><time>2026-04-25T09:07:14.925Z</time></trkpt><trkpt lat="37.5327367" lon="14.98818"><ele>251.66666666666669</ele><time>2026-04-25T09:07:15.924Z</time></trkpt><trkpt lat="37.532885" lon="14.9879933"><ele>252.33333333333331</ele><time>2026-04-25T09:07:16.925Z</time></trkpt><trkpt lat="37.5330367" lon="14.9877917"><ele>253.0</ele><time>2026-04-25T09:07:17.925Z</time></trkpt><trkpt lat="37.5331817" lon="14.9875867"><ele>253.66666666666666</ele><time>2026-04-25T09:07:18.925Z</time></trkpt><trkpt lat="37.5333217" lon="14.987385"><ele>254.33333333333331</ele><time>2026-04-25T09:07:19.925Z</time></trkpt><trkpt lat="37.5334533" lon="14.9871783"><ele>255.0</ele><time>2026-04-25T09:07:20.925Z</time></trkpt><trkpt lat="37.5335867" lon="14.986965"><ele>255.0</ele><time>2026-04-25T09:07:21.925Z</time></trkpt><trkpt lat="37.5337183" lon="14.9867433"><ele>255.0</ele><time>2026-04-25T09:07:22.925Z</time></trkpt><trkpt lat="37.5338333" lon="14.9865167"><ele>255.0</ele><time>2026-04-25T09:07:23.925Z</time></trkpt><trkpt lat="37.5339467" lon="14.98628"><ele>255.0</ele><time>2026-04-25T09:07:24.924Z</time></trkpt><trkpt lat="37.5340583" lon="14.9860433"><ele>255.0</ele><time>2026-04-25T09:07:25.925Z</time></trkpt><trkpt lat="37.5341633" lon="14.9858033"><ele>255.0</ele><time>2026-04-25T09:07:26.925Z</time></trkpt><trkpt lat="37.534265" lon="14.9855583"><ele>255.0</ele><time>2026-04-25T09:07:27.924Z</time></trkpt><trkpt lat="37.534365" lon="14.9853117"><ele>255.0</ele><time>2026-04-25T09:07:28.925Z</time></trkpt><trkpt lat="37.53446" lon="14.9850617"><ele>255.0</ele><time>2026-04-25T09:07:29.924Z</time></trkpt><trkpt lat="37.534555" lon="14.9848167"><ele>255.0</ele><time>2026-04-25T09:07:30.925Z</time></trkpt><trkpt lat="37.534655" lon="14.9845667"><ele>255.0</ele><time>2026-04-25T09:07:31.925Z</time></trkpt><trkpt lat="37.5347517" lon="14.9843083"><ele>255.0</ele><time>2026-04-25T09:07:32.925Z</time></trkpt><trkpt lat="37.5348533" lon="14.9840483"><ele>255.5</ele><time>2026-04-25T09:07:33.924Z</time></trkpt><trkpt lat="37.5349583" lon="14.9837933"><ele>256.0</ele><time>2026-04-25T09:07:34.924Z</time></trkpt><trkpt lat="37.5350633" lon="14.9835367"><ele>256.5</ele><time>2026-04-25T09:07:35.925Z</time></trkpt><trkpt lat="37.535175" lon="14.9832817"><ele>257.0</ele><time>2026-04-25T09:07:36.925Z</time></trkpt><trkpt lat="37.535275" lon="14.9830283"><ele>257.0</ele><time>2026-04-25T09:07:37.925Z</time></trkpt><trkpt lat="37.5353833" lon="14.9827683"><ele>257.0</ele><time>2026-04-25T09:07:38.925Z</time></trkpt><trkpt lat="37.5354883" lon="14.9825083"><ele>256.5</ele><time>2026-04-25T09:07:39.925Z</time></trkpt><trkpt lat="37.5355933" lon="14.9822533"><ele>256.0</ele><time>2026-04-25T09:07:40.925Z</time></trkpt><trkpt lat="37.5356933" lon="14.981995"><ele>256.0</ele><time>2026-04-25T09:07:41.925Z</time></trkpt><trkpt lat="37.5357967" lon="14.9817417"><ele>256.0</ele><time>2026-04-25T09:07:42.925Z</time></trkpt><trkpt lat="37.5359017" lon="14.9814867"><ele>255.66666666666666</ele><time>2026-04-25T09:07:43.925Z</time></trkpt><trkpt lat="37.5360067" lon="14.981235"><ele>255.33333333333331</ele><time>2026-04-25T09:07:44.924Z</time></trkpt><trkpt lat="37.536105" lon="14.9809817"><ele>255.0</ele><time>2026-04-25T09:07:45.925Z</time></trkpt><trkpt lat="37.5362" lon="14.9807367"><ele>255.33333333333331</ele><time>2026-04-25T09:07:46.924Z</time></trkpt><trkpt lat="37.5362917" lon="14.9804883"><ele>255.66666666666666</ele><time>2026-04-25T09:07:47.925Z</time></trkpt><trkpt lat="37.53638" lon="14.9802433"><ele>256.0</ele><time>2026-04-25T09:07:48.925Z</time></trkpt><trkpt lat="37.5364467" lon="14.97999"><ele>256.3333333333333</ele><time>2026-04-25T09:07:49.925Z</time></trkpt><trkpt lat="37.5365067" lon="14.9797467"><ele>256.6666666666667</ele><time>2026-04-25T09:07:50.924Z</time></trkpt><trkpt lat="37.5365683" lon="14.979495"><ele>257.0</ele><time>2026-04-25T09:07:51.925Z</time></trkpt><trkpt lat="37.5366267" lon="14.97924"><ele>256.33333333333337</ele><time>2026-04-25T09:07:52.925Z</time></trkpt><trkpt lat="37.536685" lon="14.9789833"><ele>255.66666666666669</ele><time>2026-04-25T09:07:53.925Z</time></trkpt><trkpt lat="37.53674" lon="14.9787317"><ele>255.0</ele><time>2026-04-25T09:07:54.925Z</time></trkpt><trkpt lat="37.5367917" lon="14.9784767"><ele>255.66666666666669</ele><time>2026-04-25T09:07:55.925Z</time></trkpt><trkpt lat="37.5368383" lon="14.9782117"><ele>256.33333333333337</ele><time>2026-04-25T09:07:56.924Z</time></trkpt><trkpt lat="37.5368767" lon="14.9779567"><ele>257.0</ele><time>2026-04-25T09:07:57.924Z</time></trkpt><trkpt lat="37.5369167" lon="14.9776933"><ele>256.0</ele><time>2026-04-25T09:07:58.924Z</time></trkpt><trkpt lat="37.5369517" lon="14.97744"><ele>255.0</ele><time>2026-04-25T09:07:59.924Z</time></trkpt><trkpt lat="37.5369883" lon="14.977185"><ele>254.0</ele><time>2026-04-25T09:08:00.925Z</time></trkpt><trkpt lat="37.5370267" lon="14.976915"><ele>254.66666666666669</ele><time>2026-04-25T09:08:01.925Z</time></trkpt><trkpt lat="37.5370617" lon="14.976655"><ele>255.33333333333331</ele><time>2026-04-25T09:08:02.924Z</time></trkpt><trkpt lat="37.5371" lon="14.9763817"><ele>256.0</ele><time>2026-04-25T09:08:03.925Z</time></trkpt><trkpt lat="37.5371317" lon="14.9761067"><ele>255.33333333333331</ele><time>2026-04-25T09:08:04.924Z</time></trkpt><trkpt lat="37.5371667" lon="14.9758383"><ele>254.66666666666669</ele><time>2026-04-25T09:08:05.925Z</time></trkpt><trkpt lat="37.5372117" lon="14.9755683"><ele>254.0</ele><time>2026-04-25T09:08:06.925Z</time></trkpt><trkpt lat="37.5372633" lon="14.9752833"><ele>254.66666666666669</ele><time>2026-04-25T09:08:07.925Z</time></trkpt><trkpt lat="37.5373033" lon="14.9750133"><ele>255.33333333333331</ele><time>2026-04-25T09:08:08.924Z</time></trkpt><trkpt lat="37.5373467" lon="14.974735"><ele>256.0</ele><time>2026-04-25T09:08:09.925Z</time></trkpt><trkpt lat="37.5373867" lon="14.9744517"><ele>256.0</ele><time>2026-04-25T09:08:10.924Z</time></trkpt><trkpt lat="37.53744" lon="14.97417"><ele>256.0</ele><time>2026-04-25T09:08:11.924Z</time></trkpt><trkpt lat="37.537485" lon="14.973875"><ele>256.0</ele><time>2026-04-25T09:08:12.924Z</time></trkpt><trkpt lat="37.5375267" lon="14.973585"><ele>256.0</ele><time>2026-04-25T09:08:13.924Z</time></trkpt><trkpt lat="37.5375683" lon="14.97331"><ele>256.0</ele><time>2026-04-25T09:08:14.925Z</time></trkpt><trkpt lat="37.5376117" lon="14.9730183"><ele>256.0</ele><time>2026-04-25T09:08:15.925Z</time></trkpt><trkpt lat="37.53766" lon="14.9727233"><ele>255.5</ele><time>2026-04-25T09:08:16.925Z</time></trkpt><trkpt lat="37.5376867" lon="14.97244"><ele>255.0</ele><time>2026-04-25T09:08:17.925Z</time></trkpt><trkpt lat="37.53772" lon="14.97215"><ele>255.0</ele><time>2026-04-25T09:08:18.924Z</time></trkpt><trkpt lat="37.53776" lon="14.9718633"><ele>255.0</ele><time>2026-04-25T09:08:19.925Z</time></trkpt><trkpt lat="37.53781" lon="14.9715833"><ele>254.5</ele><time>2026-04-25T09:08:20.924Z</time></trkpt><trkpt lat="37.537855" lon="14.9713117"><ele>254.0</ele><time>2026-04-25T09:08:21.924Z</time></trkpt><trkpt lat="37.5378967" lon="14.9710267"><ele>254.5</ele><time>2026-04-25T09:08:22.925Z</time></trkpt><trkpt lat="37.5379317" lon="14.970735"><ele>255.0</ele><time>2026-04-25T09:08:23.924Z</time></trkpt><trkpt lat="37.5379667" lon="14.970445"><ele>255.0</ele><time>2026-04-25T09:08:24.925Z</time></trkpt><trkpt lat="37.5380133" lon="14.9701583"><ele>255.0</ele><time>2026-04-25T09:08:25.925Z</time></trkpt><trkpt lat="37.53806" lon="14.9698767"><ele>254.0</ele><time>2026-04-25T09:08:26.925Z</time></trkpt><trkpt lat="37.5381" lon="14.9696083"><ele>253.0</ele><time>2026-04-25T09:08:27.925Z</time></trkpt><trkpt lat="37.53815" lon="14.96932"><ele>252.0</ele><time>2026-04-25T09:08:28.925Z</time></trkpt><trkpt lat="37.5381883" lon="14.9690317"><ele>251.0</ele><time>2026-04-25T09:08:29.925Z</time></trkpt><trkpt lat="37.538225" lon="14.9687567"><ele>251.0</ele><time>2026-04-25T09:08:30.925Z</time></trkpt><trkpt lat="37.5382667" lon="14.9684733"><ele>251.0</ele><time>2026-04-25T09:08:31.924Z</time></trkpt><trkpt lat="37.5383083" lon="14.9681833"><ele>250.0</ele><time>2026-04-25T09:08:32.925Z</time></trkpt><trkpt lat="37.53835" lon="14.9678917"><ele>249.0</ele><time>2026-04-25T09:08:33.924Z</time></trkpt><trkpt lat="37.5383967" lon="14.9676117"><ele>248.0</ele><time>2026-04-25T09:08:34.925Z</time></trkpt><trkpt lat="37.5384417" lon="14.9673183"><ele>247.0</ele><time>2026-04-25T09:08:35.925Z</time></trkpt><trkpt lat="37.5384867" lon="14.9670383"><ele>247.0</ele><time>2026-04-25T09:08:36.924Z</time></trkpt><trkpt lat="37.5385367" lon="14.966755"><ele>247.0</ele><time>2026-04-25T09:08:37.924Z</time></trkpt><trkpt lat="37.5385833" lon="14.966475"><ele>246.5</ele><time>2026-04-25T09:08:38.924Z</time></trkpt><trkpt lat="37.5386283" lon="14.966195"><ele>246.0</ele><time>2026-04-25T09:08:39.925Z</time></trkpt><trkpt lat="37.53867" lon="14.96591"><ele>245.0</ele><time>2026-04-25T09:08:40.925Z</time></trkpt><trkpt lat="37.5387117" lon="14.9656233"><ele>244.0</ele><time>2026-04-25T09:08:41.924Z</time></trkpt><trkpt lat="37.538755" lon="14.9653517"><ele>243.5</ele><time>2026-04-25T09:08:42.925Z</time></trkpt><trkpt lat="37.5387967" lon="14.965065"><ele>243.0</ele><time>2026-04-25T09:08:43.925Z</time></trkpt><trkpt lat="37.5388317" lon="14.964775"><ele>242.5</ele><time>2026-04-25T09:08:44.924Z</time></trkpt><trkpt lat="37.5388717" lon="14.9644883"><ele>242.0</ele><time>2026-04-25T09:08:45.924Z</time></trkpt><trkpt lat="37.5389117" lon="14.9642033"><ele>241.5</ele><time>2026-04-25T09:08:46.924Z</time></trkpt><trkpt lat="37.53896" lon="14.96392"><ele>241.0</ele><time>2026-04-25T09:08:47.924Z</time></trkpt><trkpt lat="37.539005" lon="14.963645"><ele>241.0</ele><time>2026-04-25T09:08:48.925Z</time></trkpt><trkpt lat="37.5390467" lon="14.963375"><ele>241.0</ele><time>2026-04-25T09:08:49.925Z</time></trkpt><trkpt lat="37.5390883" lon="14.9630917"><ele>241.0</ele><time>2026-04-25T09:08:50.925Z</time></trkpt><trkpt lat="37.539135" lon="14.9628233"><ele>241.33333333333331</ele><time>2026-04-25T09:08:51.925Z</time></trkpt><trkpt lat="37.5391817" lon="14.9625583"><ele>241.66666666666669</ele><time>2026-04-25T09:08:52.925Z</time></trkpt><trkpt lat="37.53922" lon="14.9622967"><ele>242.0</ele><time>2026-04-25T09:08:53.924Z</time></trkpt><trkpt lat="37.5392617" lon="14.9620317"><ele>243.33333333333334</ele><time>2026-04-25T09:08:54.925Z</time></trkpt><trkpt lat="37.539305" lon="14.9617633"><ele>244.66666666666669</ele><time>2026-04-25T09:08:55.924Z</time></trkpt><trkpt lat="37.5393417" lon="14.9615017"><ele>246.0</ele><time>2026-04-25T09:08:56.925Z</time></trkpt><trkpt lat="37.5393783" lon="14.96124"><ele>246.66666666666669</ele><time>2026-04-25T09:08:57.924Z</time></trkpt><trkpt lat="37.5394117" lon="14.960985"><ele>247.33333333333334</ele><time>2026-04-25T09:08:58.925Z</time></trkpt><trkpt lat="37.53946" lon="14.960725"><ele>248.0</ele><time>2026-04-25T09:08:59.924Z</time></trkpt><trkpt lat="37.539505" lon="14.96047"><ele>248.0</ele><time>2026-04-25T09:09:00.925Z</time></trkpt><trkpt lat="37.5395417" lon="14.96022"><ele>248.0</ele><time>2026-04-25T09:09:01.925Z</time></trkpt><trkpt lat="37.539575" lon="14.95997"><ele>248.0</ele><time>2026-04-25T09:09:02.925Z</time></trkpt><trkpt lat="37.53962" lon="14.9597283"><ele>248.33333333333334</ele><time>2026-04-25T09:09:03.924Z</time></trkpt><trkpt lat="37.5396617" lon="14.95948"><ele>248.66666666666669</ele><time>2026-04-25T09:09:04.925Z</time></trkpt><trkpt lat="37.5397" lon="14.9592333"><ele>249.0</ele><time>2026-04-25T09:09:05.925Z</time></trkpt><trkpt lat="37.53974" lon="14.958985"><ele>249.0</ele><time>2026-04-25T09:09:06.925Z</time></trkpt><trkpt lat="37.5397817" lon="14.9587417"><ele>249.0</ele><time>2026-04-25T09:09:07.924Z</time></trkpt><trkpt lat="37.5398333" lon="14.958495"><ele>249.0</ele><time>2026-04-25T09:09:08.925Z</time></trkpt><trkpt lat="37.5398883" lon="14.9582467"><ele>249.0</ele><time>2026-04-25T09:09:09.925Z</time></trkpt><trkpt lat="37.5399533" lon="14.9580033"><ele>249.0</ele><time>2026-04-25T09:09:10.924Z</time></trkpt><trkpt lat="37.5400183" lon="14.9577633"><ele>249.0</ele><time>2026-04-25T09:09:11.924Z</time></trkpt><trkpt lat="37.54009" lon="14.9575233"><ele>249.33333333333331</ele><time>2026-04-25T09:09:12.925Z</time></trkpt><trkpt lat="37.5401667" lon="14.9572883"><ele>249.66666666666666</ele><time>2026-04-25T09:09:13.924Z</time></trkpt><trkpt lat="37.5402517" lon="14.9570567"><ele>250.0</ele><time>2026-04-25T09:09:14.925Z</time></trkpt><trkpt lat="37.5403383" lon="14.9568217"><ele>249.66666666666666</ele><time>2026-04-25T09:09:15.925Z</time></trkpt><trkpt lat="37.5404333" lon="14.956595"><ele>249.33333333333331</ele><time>2026-04-25T09:09:16.925Z</time></trkpt><trkpt lat="37.5405333" lon="14.956365"><ele>249.0</ele><time>2026-04-25T09:09:17.925Z</time></trkpt><trkpt lat="37.54064" lon="14.9561317"><ele>249.0</ele><time>2026-04-25T09:09:18.924Z</time></trkpt><trkpt lat="37.5407483" lon="14.9559067"><ele>249.0</ele><time>2026-04-25T09:09:19.925Z</time></trkpt><trkpt lat="37.5408617" lon="14.9556783"><ele>249.0</ele><time>2026-04-25T09:09:20.925Z</time></trkpt><trkpt lat="37.5409717" lon="14.9554583"><ele>249.0</ele><time>2026-04-25T09:09:21.925Z</time></trkpt><trkpt lat="37.5410917" lon="14.9552433"><ele>249.0</ele><time>2026-04-25T09:09:22.924Z</time></trkpt><trkpt lat="37.5412133" lon="14.9550267"><ele>249.0</ele><time>2026-04-25T09:09:23.924Z</time></trkpt><trkpt lat="37.5413317" lon="14.95482"><ele>249.0</ele><time>2026-04-25T09:09:24.924Z</time></trkpt><trkpt lat="37.5414533" lon="14.9546117"><ele>249.0</ele><time>2026-04-25T09:09:25.925Z</time></trkpt><trkpt lat="37.5415783" lon="14.954395"><ele>249.0</ele><time>2026-04-25T09:09:26.924Z</time></trkpt><trkpt lat="37.5417017" lon="14.9541783"><ele>249.0</ele><time>2026-04-25T09:09:27.925Z</time></trkpt><trkpt lat="37.5418317" lon="14.95397"><ele>249.0</ele><time>2026-04-25T09:09:28.925Z</time></trkpt><trkpt lat="37.5419517" lon="14.953765"><ele>249.0</ele><time>2026-04-25T09:09:29.924Z</time></trkpt><trkpt lat="37.5420733" lon="14.9535567"><ele>248.0</ele><time>2026-04-25T09:09:30.925Z</time></trkpt><trkpt lat="37.54219" lon="14.9533483"><ele>247.0</ele><time>2026-04-25T09:09:31.925Z</time></trkpt><trkpt lat="37.54231" lon="14.9531417"><ele>246.0</ele><time>2026-04-25T09:09:32.925Z</time></trkpt><trkpt lat="37.5424333" lon="14.9529383"><ele>246.0</ele><time>2026-04-25T09:09:33.925Z</time></trkpt><trkpt lat="37.5425617" lon="14.952735"><ele>246.0</ele><time>2026-04-25T09:09:34.925Z</time></trkpt><trkpt lat="37.54268" lon="14.9525333"><ele>246.0</ele><time>2026-04-25T09:09:35.925Z</time></trkpt><trkpt lat="37.5427967" lon="14.9523383"><ele>246.0</ele><time>2026-04-25T09:09:36.925Z</time></trkpt><trkpt lat="37.54291" lon="14.9521417"><ele>246.0</ele><time>2026-04-25T09:09:37.925Z</time></trkpt><trkpt lat="37.543025" lon="14.9519467"><ele>246.0</ele><time>2026-04-25T09:09:38.925Z</time></trkpt><trkpt lat="37.5431417" lon="14.9517517"><ele>246.66666666666669</ele><time>2026-04-25T09:09:39.925Z</time></trkpt><trkpt lat="37.5432567" lon="14.95156"><ele>247.33333333333334</ele><time>2026-04-25T09:09:40.924Z</time></trkpt><trkpt lat="37.5433633" lon="14.9513767"><ele>248.0</ele><time>2026-04-25T09:09:41.925Z</time></trkpt><trkpt lat="37.5434767" lon="14.9511917"><ele>248.0</ele><time>2026-04-25T09:09:42.924Z</time></trkpt><trkpt lat="37.54359" lon="14.9510033"><ele>248.0</ele><time>2026-04-25T09:09:43.924Z</time></trkpt><trkpt lat="37.5436983" lon="14.9508183"><ele>248.0</ele><time>2026-04-25T09:09:44.924Z</time></trkpt><trkpt lat="37.5438033" lon="14.9506367"><ele>248.0</ele><time>2026-04-25T09:09:45.925Z</time></trkpt><trkpt lat="37.543905" lon="14.95047"><ele>248.0</ele><time>2026-04-25T09:09:46.925Z</time></trkpt><trkpt lat="37.543995" lon="14.95031"><ele>248.0</ele><time>2026-04-25T09:09:47.925Z</time></trkpt><trkpt lat="37.5440933" lon="14.950145"><ele>249.0</ele><time>2026-04-25T09:09:48.923Z</time></trkpt><trkpt lat="37.5441917" lon="14.9499667"><ele>250.0</ele><time>2026-04-25T09:09:49.923Z</time></trkpt><trkpt lat="37.5442967" lon="14.9497917"><ele>251.0</ele><time>2026-04-25T09:09:50.924Z</time></trkpt><trkpt lat="37.5443983" lon="14.9496117"><ele>251.0</ele><time>2026-04-25T09:09:51.923Z</time></trkpt><trkpt lat="37.5445" lon="14.9494367"><ele>251.0</ele><time>2026-04-25T09:09:52.924Z</time></trkpt><trkpt lat="37.544595" lon="14.949275"><ele>251.0</ele><time>2026-04-25T09:09:53.923Z</time></trkpt><trkpt lat="37.5446983" lon="14.9491083"><ele>250.66666666666669</ele><time>2026-04-25T09:09:54.924Z</time></trkpt><trkpt lat="37.5448017" lon="14.94893"><ele>250.33333333333331</ele><time>2026-04-25T09:09:55.923Z</time></trkpt><trkpt lat="37.5448983" lon="14.94873"><ele>250.0</ele><time>2026-04-25T09:09:56.924Z</time></trkpt><trkpt lat="37.5450167" lon="14.9485167"><ele>250.0</ele><time>2026-04-25T09:09:57.924Z</time></trkpt><trkpt lat="37.54515" lon="14.9482917"><ele>250.0</ele><time>2026-04-25T09:09:58.924Z</time></trkpt><trkpt lat="37.5452867" lon="14.9480617"><ele>249.66666666666666</ele><time>2026-04-25T09:09:59.923Z</time></trkpt><trkpt lat="37.545425" lon="14.94784"><ele>249.33333333333331</ele><time>2026-04-25T09:10:00.923Z</time></trkpt><trkpt lat="37.5455617" lon="14.947615"><ele>249.0</ele><time>2026-04-25T09:10:01.924Z</time></trkpt><trkpt lat="37.5456883" lon="14.947395"><ele>250.0</ele><time>2026-04-25T09:10:02.923Z</time></trkpt><trkpt lat="37.5458233" lon="14.94717"><ele>251.0</ele><time>2026-04-25T09:10:03.924Z</time></trkpt><trkpt lat="37.5459583" lon="14.9469417"><ele>249.5</ele><time>2026-04-25T09:10:04.924Z</time></trkpt><trkpt lat="37.5461017" lon="14.9467067"><ele>248.0</ele><time>2026-04-25T09:10:05.924Z</time></trkpt><trkpt lat="37.5462383" lon="14.946485"><ele>247.5</ele><time>2026-04-25T09:10:06.923Z</time></trkpt><trkpt lat="37.546375" lon="14.94626"><ele>247.0</ele><time>2026-04-25T09:10:07.924Z</time></trkpt><trkpt lat="37.5465117" lon="14.9460333"><ele>247.5</ele><time>2026-04-25T09:10:08.923Z</time></trkpt><trkpt lat="37.5466533" lon="14.9458117"><ele>248.0</ele><time>2026-04-25T09:10:09.924Z</time></trkpt><trkpt lat="37.5467917" lon="14.9455833"><ele>248.0</ele><time>2026-04-25T09:10:10.924Z</time></trkpt><trkpt lat="37.5469283" lon="14.9453517"><ele>248.0</ele><time>2026-04-25T09:10:11.924Z</time></trkpt><trkpt lat="37.547065" lon="14.9451167"><ele>249.0</ele><time>2026-04-25T09:10:12.923Z</time></trkpt><trkpt lat="37.5472033" lon="14.9448817"><ele>250.0</ele><time>2026-04-25T09:10:13.924Z</time></trkpt><trkpt lat="37.54734" lon="14.9446517"><ele>250.0</ele><time>2026-04-25T09:10:14.923Z</time></trkpt><trkpt lat="37.5474783" lon="14.94442"><ele>250.0</ele><time>2026-04-25T09:10:15.924Z</time></trkpt><trkpt lat="37.5476117" lon="14.9441883"><ele>250.0</ele><time>2026-04-25T09:10:16.924Z</time></trkpt><trkpt lat="37.547745" lon="14.9439583"><ele>250.0</ele><time>2026-04-25T09:10:17.923Z</time></trkpt><trkpt lat="37.5478817" lon="14.94373"><ele>252.5</ele><time>2026-04-25T09:10:18.923Z</time></trkpt><trkpt lat="37.5480217" lon="14.9435033"><ele>255.0</ele><time>2026-04-25T09:10:19.923Z</time></trkpt><trkpt lat="37.5481533" lon="14.9432717"><ele>255.0</ele><time>2026-04-25T09:10:20.923Z</time></trkpt><trkpt lat="37.5482883" lon="14.943045"><ele>255.0</ele><time>2026-04-25T09:10:21.924Z</time></trkpt><trkpt lat="37.5484167" lon="14.9428217"><ele>255.0</ele><time>2026-04-25T09:10:22.923Z</time></trkpt><trkpt lat="37.54855" lon="14.9426083"><ele>254.33333333333331</ele><time>2026-04-25T09:10:23.924Z</time></trkpt><trkpt lat="37.54868" lon="14.9423883"><ele>253.66666666666666</ele><time>2026-04-25T09:10:24.923Z</time></trkpt><trkpt lat="37.54881" lon="14.9421733"><ele>253.0</ele><time>2026-04-25T09:10:25.924Z</time></trkpt><trkpt lat="37.5489367" lon="14.94195"><ele>254.66666666666666</ele><time>2026-04-25T09:10:26.923Z</time></trkpt><trkpt lat="37.5490533" lon="14.941725"><ele>256.3333333333333</ele><time>2026-04-25T09:10:27.923Z</time></trkpt><trkpt lat="37.5491767" lon="14.9415117"><ele>258.0</ele><time>2026-04-25T09:10:28.924Z</time></trkpt><trkpt lat="37.5493" lon="14.9412967"><ele>258.0</ele><time>2026-04-25T09:10:29.924Z</time></trkpt><trkpt lat="37.5494283" lon="14.9410833"><ele>258.0</ele><time>2026-04-25T09:10:30.923Z</time></trkpt><trkpt lat="37.5495633" lon="14.9408717"><ele>258.0</ele><time>2026-04-25T09:10:31.924Z</time></trkpt><trkpt lat="37.5497" lon="14.940655"><ele>260.0</ele><time>2026-04-25T09:10:32.923Z</time></trkpt><trkpt lat="37.5498333" lon="14.9404433"><ele>262.0</ele><time>2026-04-25T09:10:33.924Z</time></trkpt><trkpt lat="37.5499583" lon="14.9402367"><ele>264.0</ele><time>2026-04-25T09:10:34.924Z</time></trkpt><trkpt lat="37.550075" lon="14.9400317"><ele>264.0</ele><time>2026-04-25T09:10:35.924Z</time></trkpt><trkpt lat="37.550185" lon="14.9398417"><ele>264.0</ele><time>2026-04-25T09:10:36.924Z</time></trkpt><trkpt lat="37.5502967" lon="14.93964"><ele>264.0</ele><time>2026-04-25T09:10:37.924Z</time></trkpt><trkpt lat="37.5504033" lon="14.93943"><ele>266.6666666666667</ele><time>2026-04-25T09:10:38.924Z</time></trkpt><trkpt lat="37.55053" lon="14.9392183"><ele>269.33333333333337</ele><time>2026-04-25T09:10:39.923Z</time></trkpt><trkpt lat="37.550665" lon="14.9390133"><ele>272.0</ele><time>2026-04-25T09:10:40.924Z</time></trkpt><trkpt lat="37.550795" lon="14.93881"><ele>272.0</ele><time>2026-04-25T09:10:41.924Z</time></trkpt><trkpt lat="37.5509333" lon="14.9385917"><ele>272.0</ele><time>2026-04-25T09:10:42.923Z</time></trkpt><trkpt lat="37.5510633" lon="14.938375"><ele>272.0</ele><time>2026-04-25T09:10:43.924Z</time></trkpt><trkpt lat="37.5511983" lon="14.9381583"><ele>272.33333333333337</ele><time>2026-04-25T09:10:44.924Z</time></trkpt><trkpt lat="37.5513283" lon="14.93794"><ele>272.6666666666667</ele><time>2026-04-25T09:10:45.923Z</time></trkpt><trkpt lat="37.5514583" lon="14.9377133"><ele>273.0</ele><time>2026-04-25T09:10:46.924Z</time></trkpt><trkpt lat="37.551575" lon="14.93749"><ele>273.0</ele><time>2026-04-25T09:10:47.924Z</time></trkpt><trkpt lat="37.5517" lon="14.9372633"><ele>273.0</ele><time>2026-04-25T09:10:48.924Z</time></trkpt><trkpt lat="37.5518383" lon="14.9370333"><ele>273.0</ele><time>2026-04-25T09:10:49.924Z</time></trkpt><trkpt lat="37.5519817" lon="14.9368017"><ele>275.5</ele><time>2026-04-25T09:10:50.924Z</time></trkpt><trkpt lat="37.5521167" lon="14.936575"><ele>278.0</ele><time>2026-04-25T09:10:51.923Z</time></trkpt><trkpt lat="37.55225" lon="14.9363417"><ele>278.0</ele><time>2026-04-25T09:10:52.923Z</time></trkpt><trkpt lat="37.55238" lon="14.9361133"><ele>278.0</ele><time>2026-04-25T09:10:53.924Z</time></trkpt><trkpt lat="37.5525183" lon="14.935885"><ele>277.5</ele><time>2026-04-25T09:10:54.924Z</time></trkpt><trkpt lat="37.5526567" lon="14.93566"><ele>277.0</ele><time>2026-04-25T09:10:55.924Z</time></trkpt><trkpt lat="37.5527933" lon="14.935435"><ele>279.3333333333333</ele><time>2026-04-25T09:10:56.924Z</time></trkpt><trkpt lat="37.5529333" lon="14.9352033"><ele>281.6666666666667</ele><time>2026-04-25T09:10:57.924Z</time></trkpt><trkpt lat="37.5530617" lon="14.93499"><ele>284.0</ele><time>2026-04-25T09:10:58.924Z</time></trkpt><trkpt lat="37.553185" lon="14.9347733"><ele>284.0</ele><time>2026-04-25T09:10:59.924Z</time></trkpt><trkpt lat="37.553315" lon="14.93456"><ele>284.0</ele><time>2026-04-25T09:11:00.923Z</time></trkpt><trkpt lat="37.553445" lon="14.9343467"><ele>284.0</ele><time>2026-04-25T09:11:01.923Z</time></trkpt><trkpt lat="37.5535767" lon="14.934125"><ele>283.33333333333337</ele><time>2026-04-25T09:11:02.924Z</time></trkpt><trkpt lat="37.5537017" lon="14.9339067"><ele>282.6666666666667</ele><time>2026-04-25T09:11:03.924Z</time></trkpt><trkpt lat="37.5538333" lon="14.9336917"><ele>282.0</ele><time>2026-04-25T09:11:04.924Z</time></trkpt><trkpt lat="37.55396" lon="14.9334683"><ele>284.3333333333333</ele><time>2026-04-25T09:11:05.923Z</time></trkpt><trkpt lat="37.5540783" lon="14.9332483"><ele>286.66666666666663</ele><time>2026-04-25T09:11:06.923Z</time></trkpt><trkpt lat="37.5542117" lon="14.9330317"><ele>289.0</ele><time>2026-04-25T09:11:07.924Z</time></trkpt><trkpt lat="37.5543367" lon="14.9328117"><ele>289.0</ele><time>2026-04-25T09:11:08.923Z</time></trkpt><trkpt lat="37.5544683" lon="14.9325933"><ele>289.0</ele><time>2026-04-25T09:11:09.924Z</time></trkpt><trkpt lat="37.5545917" lon="14.9323683"><ele>289.0</ele><time>2026-04-25T09:11:10.923Z</time></trkpt><trkpt lat="37.5547183" lon="14.93215"><ele>290.3333333333333</ele><time>2026-04-25T09:11:11.924Z</time></trkpt><trkpt lat="37.5548467" lon="14.9319233"><ele>291.6666666666667</ele><time>2026-04-25T09:11:12.923Z</time></trkpt><trkpt lat="37.5549783" lon="14.9317033"><ele>293.0</ele><time>2026-04-25T09:11:13.924Z</time></trkpt><trkpt lat="37.5551083" lon="14.9314817"><ele>293.0</ele><time>2026-04-25T09:11:14.924Z</time></trkpt><trkpt lat="37.5552483" lon="14.9312617"><ele>293.0</ele><time>2026-04-25T09:11:15.923Z</time></trkpt><trkpt lat="37.555385" lon="14.9310417"><ele>293.0</ele><time>2026-04-25T09:11:16.924Z</time></trkpt><trkpt lat="37.555515" lon="14.9308233"><ele>297.0</ele><time>2026-04-25T09:11:17.923Z</time></trkpt><trkpt lat="37.5556433" lon="14.9306017"><ele>301.0</ele><time>2026-04-25T09:11:18.924Z</time></trkpt><trkpt lat="37.555775" lon="14.93038"><ele>305.0</ele><time>2026-04-25T09:11:19.923Z</time></trkpt><trkpt lat="37.5559017" lon="14.9301633"><ele>304.6666666666667</ele><time>2026-04-25T09:11:20.924Z</time></trkpt><trkpt lat="37.5560317" lon="14.9299367"><ele>304.3333333333333</ele><time>2026-04-25T09:11:21.923Z</time></trkpt><trkpt lat="37.5561617" lon="14.9297117"><ele>304.0</ele><time>2026-04-25T09:11:22.924Z</time></trkpt><trkpt lat="37.5562917" lon="14.9294867"><ele>305.0</ele><time>2026-04-25T09:11:23.924Z</time></trkpt><trkpt lat="37.5564283" lon="14.9292583"><ele>306.0</ele><time>2026-04-25T09:11:24.924Z</time></trkpt><trkpt lat="37.556555" lon="14.9290383"><ele>307.0</ele><time>2026-04-25T09:11:25.924Z</time></trkpt><trkpt lat="37.5566783" lon="14.9288133"><ele>307.0</ele><time>2026-04-25T09:11:26.924Z</time></trkpt><trkpt lat="37.5568117" lon="14.9285933"><ele>307.0</ele><time>2026-04-25T09:11:27.924Z</time></trkpt><trkpt lat="37.556945" lon="14.9283733"><ele>307.0</ele><time>2026-04-25T09:11:28.923Z</time></trkpt><trkpt lat="37.557075" lon="14.9281583"><ele>307.3333333333333</ele><time>2026-04-25T09:11:29.924Z</time></trkpt><trkpt lat="37.5572067" lon="14.9279367"><ele>307.6666666666667</ele><time>2026-04-25T09:11:30.924Z</time></trkpt><trkpt lat="37.5573383" lon="14.9277167"><ele>308.0</ele><time>2026-04-25T09:11:31.924Z</time></trkpt><trkpt lat="37.557465" lon="14.9274983"><ele>308.0</ele><time>2026-04-25T09:11:32.923Z</time></trkpt><trkpt lat="37.5575983" lon="14.9272733"><ele>308.0</ele><time>2026-04-25T09:11:33.923Z</time></trkpt><trkpt lat="37.5577317" lon="14.9270417"><ele>308.0</ele><time>2026-04-25T09:11:34.924Z</time></trkpt><trkpt lat="37.55786" lon="14.92682"><ele>308.0</ele><time>2026-04-25T09:11:35.924Z</time></trkpt><trkpt lat="37.557995" lon="14.9265917"><ele>308.0</ele><time>2026-04-25T09:11:36.924Z</time></trkpt><trkpt lat="37.5581267" lon="14.9263733"><ele>307.6666666666667</ele><time>2026-04-25T09:11:37.923Z</time></trkpt><trkpt lat="37.5582633" lon="14.92615"><ele>307.3333333333333</ele><time>2026-04-25T09:11:38.924Z</time></trkpt><trkpt lat="37.5583967" lon="14.9259283"><ele>307.0</ele><time>2026-04-25T09:11:39.923Z</time></trkpt><trkpt lat="37.5585283" lon="14.9257"><ele>307.0</ele><time>2026-04-25T09:11:40.924Z</time></trkpt><trkpt lat="37.5586667" lon="14.925475"><ele>307.0</ele><time>2026-04-25T09:11:41.923Z</time></trkpt><trkpt lat="37.5588033" lon="14.9252567"><ele>307.0</ele><time>2026-04-25T09:11:42.923Z</time></trkpt><trkpt lat="37.5589417" lon="14.9250317"><ele>307.3333333333333</ele><time>2026-04-25T09:11:43.923Z</time></trkpt><trkpt lat="37.5590667" lon="14.9248183"><ele>307.6666666666667</ele><time>2026-04-25T09:11:44.923Z</time></trkpt><trkpt lat="37.5591967" lon="14.9245917"><ele>308.0</ele><time>2026-04-25T09:11:45.923Z</time></trkpt><trkpt lat="37.55933" lon="14.92437"><ele>307.33333333333337</ele><time>2026-04-25T09:11:46.924Z</time></trkpt><trkpt lat="37.5594633" lon="14.92415"><ele>306.6666666666667</ele><time>2026-04-25T09:11:47.924Z</time></trkpt><trkpt lat="37.5595883" lon="14.9239317"><ele>306.0</ele><time>2026-04-25T09:11:48.924Z</time></trkpt><trkpt lat="37.559715" lon="14.9237183"><ele>306.0</ele><time>2026-04-25T09:11:49.924Z</time></trkpt><trkpt lat="37.5598417" lon="14.9234967"><ele>306.0</ele><time>2026-04-25T09:11:50.923Z</time></trkpt><trkpt lat="37.5599683" lon="14.92328"><ele>306.0</ele><time>2026-04-25T09:11:51.923Z</time></trkpt><trkpt lat="37.5601" lon="14.9230683"><ele>305.3333333333333</ele><time>2026-04-25T09:11:52.924Z</time></trkpt><trkpt lat="37.5602317" lon="14.9228517"><ele>304.66666666666663</ele><time>2026-04-25T09:11:53.924Z</time></trkpt><trkpt lat="37.56036" lon="14.9226333"><ele>304.0</ele><time>2026-04-25T09:11:54.924Z</time></trkpt><trkpt lat="37.560485" lon="14.9224133"><ele>305.66666666666663</ele><time>2026-04-25T09:11:55.924Z</time></trkpt><trkpt lat="37.5606167" lon="14.9222083"><ele>307.3333333333333</ele><time>2026-04-25T09:11:56.923Z</time></trkpt><trkpt lat="37.5607583" lon="14.9219983"><ele>309.0</ele><time>2026-04-25T09:11:57.923Z</time></trkpt><trkpt lat="37.5609033" lon="14.9217917"><ele>308.0</ele><time>2026-04-25T09:11:58.924Z</time></trkpt><trkpt lat="37.56107" lon="14.9215833"><ele>307.0</ele><time>2026-04-25T09:11:59.923Z</time></trkpt><trkpt lat="37.561235" lon="14.921395"><ele>306.3333333333333</ele><time>2026-04-25T09:12:00.924Z</time></trkpt><trkpt lat="37.5613983" lon="14.9212117"><ele>305.6666666666667</ele><time>2026-04-25T09:12:01.924Z</time></trkpt><trkpt lat="37.5615617" lon="14.9210433"><ele>305.0</ele><time>2026-04-25T09:12:02.924Z</time></trkpt><trkpt lat="37.561725" lon="14.9208867"><ele>304.0</ele><time>2026-04-25T09:12:03.924Z</time></trkpt><trkpt lat="37.56191" lon="14.92074"><ele>303.0</ele><time>2026-04-25T09:12:04.924Z</time></trkpt><trkpt lat="37.5620883" lon="14.9205933"><ele>302.0</ele><time>2026-04-25T09:12:05.924Z</time></trkpt><trkpt lat="37.5622683" lon="14.920445"><ele>302.0</ele><time>2026-04-25T09:12:06.923Z</time></trkpt><trkpt lat="37.5624433" lon="14.9203"><ele>302.0</ele><time>2026-04-25T09:12:07.924Z</time></trkpt><trkpt lat="37.562625" lon="14.9201617"><ele>302.0</ele><time>2026-04-25T09:12:08.924Z</time></trkpt><trkpt lat="37.562795" lon="14.9200283"><ele>301.6666666666667</ele><time>2026-04-25T09:12:09.924Z</time></trkpt><trkpt lat="37.5629767" lon="14.9198867"><ele>301.3333333333333</ele><time>2026-04-25T09:12:10.924Z</time></trkpt><trkpt lat="37.5631517" lon="14.919745"><ele>301.0</ele><time>2026-04-25T09:12:11.924Z</time></trkpt><trkpt lat="37.563315" lon="14.9196083"><ele>301.0</ele><time>2026-04-25T09:12:12.924Z</time></trkpt><trkpt lat="37.5634717" lon="14.9194817"><ele>301.0</ele><time>2026-04-25T09:12:13.923Z</time></trkpt><trkpt lat="37.5636233" lon="14.9193467"><ele>301.0</ele><time>2026-04-25T09:12:14.924Z</time></trkpt><trkpt lat="37.5637883" lon="14.9192133"><ele>299.0</ele><time>2026-04-25T09:12:15.923Z</time></trkpt><trkpt lat="37.5639567" lon="14.91908"><ele>297.0</ele><time>2026-04-25T09:12:16.924Z</time></trkpt><trkpt lat="37.5641417" lon="14.918935"><ele>295.0</ele><time>2026-04-25T09:12:17.923Z</time></trkpt><trkpt lat="37.5643217" lon="14.9187883"><ele>295.0</ele><time>2026-04-25T09:12:18.923Z</time></trkpt><trkpt lat="37.564505" lon="14.9186517"><ele>295.0</ele><time>2026-04-25T09:12:19.924Z</time></trkpt><trkpt lat="37.56467" lon="14.9185167"><ele>295.0</ele><time>2026-04-25T09:12:20.924Z</time></trkpt><trkpt lat="37.5648333" lon="14.91839"><ele>290.0</ele><time>2026-04-25T09:12:21.923Z</time></trkpt><trkpt lat="37.5649967" lon="14.91826"><ele>285.0</ele><time>2026-04-25T09:12:22.924Z</time></trkpt><trkpt lat="37.5651567" lon="14.9181367"><ele>280.0</ele><time>2026-04-25T09:12:23.923Z</time></trkpt><trkpt lat="37.5653067" lon="14.9180217"><ele>279.66666666666663</ele><time>2026-04-25T09:12:24.923Z</time></trkpt><trkpt lat="37.5654517" lon="14.9179083"><ele>279.3333333333333</ele><time>2026-04-25T09:12:25.923Z</time></trkpt><trkpt lat="37.5655967" lon="14.917795"><ele>279.0</ele><time>2026-04-25T09:12:26.923Z</time></trkpt><trkpt lat="37.5657383" lon="14.9176883"><ele>279.0</ele><time>2026-04-25T09:12:27.924Z</time></trkpt><trkpt lat="37.5658717" lon="14.9175733"><ele>279.0</ele><time>2026-04-25T09:12:28.923Z</time></trkpt><trkpt lat="37.566005" lon="14.9174733"><ele>279.0</ele><time>2026-04-25T09:12:29.924Z</time></trkpt><trkpt lat="37.5661467" lon="14.9173767"><ele>278.75</ele><time>2026-04-25T09:12:30.923Z</time></trkpt><trkpt lat="37.5662833" lon="14.9173017"><ele>278.5</ele><time>2026-04-25T09:12:31.923Z</time></trkpt><trkpt lat="37.5664217" lon="14.91723"><ele>278.25</ele><time>2026-04-25T09:12:32.924Z</time></trkpt><trkpt lat="37.5665533" lon="14.9171683"><ele>278.0</ele><time>2026-04-25T09:12:33.924Z</time></trkpt><trkpt lat="37.5666833" lon="14.9171017"><ele>278.0</ele><time>2026-04-25T09:12:34.923Z</time></trkpt><trkpt lat="37.5668167" lon="14.9170433"><ele>278.0</ele><time>2026-04-25T09:12:35.923Z</time></trkpt><trkpt lat="37.5669617" lon="14.916995"><ele>278.0</ele><time>2026-04-25T09:12:36.923Z</time></trkpt><trkpt lat="37.567105" lon="14.916945"><ele>278.0</ele><time>2026-04-25T09:12:37.923Z</time></trkpt><trkpt lat="37.56724" lon="14.916895"><ele>278.33333333333337</ele><time>2026-04-25T09:12:38.924Z</time></trkpt><trkpt lat="37.5673867" lon="14.91686"><ele>278.6666666666667</ele><time>2026-04-25T09:12:39.924Z</time></trkpt><trkpt lat="37.56753" lon="14.916815"><ele>279.0</ele><time>2026-04-25T09:12:40.923Z</time></trkpt><trkpt lat="37.567685" lon="14.9167717"><ele>278.6666666666667</ele><time>2026-04-25T09:12:41.923Z</time></trkpt><trkpt lat="37.5678417" lon="14.9167317"><ele>278.33333333333337</ele><time>2026-04-25T09:12:42.923Z</time></trkpt><trkpt lat="37.5679967" lon="14.91669"><ele>278.0</ele><time>2026-04-25T09:12:43.924Z</time></trkpt><trkpt lat="37.5681533" lon="14.9166517"><ele>278.0</ele><time>2026-04-25T09:12:44.924Z</time></trkpt><trkpt lat="37.5683117" lon="14.91662"><ele>278.0</ele><time>2026-04-25T09:12:45.924Z</time></trkpt><trkpt lat="37.568475" lon="14.9165767"><ele>278.0</ele><time>2026-04-25T09:12:46.924Z</time></trkpt><trkpt lat="37.5686283" lon="14.9165317"><ele>280.0</ele><time>2026-04-25T09:12:47.924Z</time></trkpt><trkpt lat="37.568785" lon="14.9164883"><ele>282.0</ele><time>2026-04-25T09:12:48.924Z</time></trkpt><trkpt lat="37.5689317" lon="14.9164533"><ele>284.0</ele><time>2026-04-25T09:12:49.923Z</time></trkpt><trkpt lat="37.569065" lon="14.91642"><ele>286.0</ele><time>2026-04-25T09:12:50.924Z</time></trkpt><trkpt lat="37.5691917" lon="14.9163867"><ele>286.0</ele><time>2026-04-25T09:12:51.924Z</time></trkpt><trkpt lat="37.5693167" lon="14.9163467"><ele>286.0</ele><time>2026-04-25T09:12:52.924Z</time></trkpt><trkpt lat="37.5694367" lon="14.9163083"><ele>286.0</ele><time>2026-04-25T09:12:53.924Z</time></trkpt><trkpt lat="37.5695683" lon="14.916275"><ele>286.0</ele><time>2026-04-25T09:12:54.923Z</time></trkpt><trkpt lat="37.5696933" lon="14.9162383"><ele>286.0</ele><time>2026-04-25T09:12:55.924Z</time></trkpt><trkpt lat="37.569815" lon="14.9162"><ele>286.0</ele><time>2026-04-25T09:12:56.924Z</time></trkpt><trkpt lat="37.5699383" lon="14.91616"><ele>286.0</ele><time>2026-04-25T09:12:57.924Z</time></trkpt><trkpt lat="37.5700617" lon="14.9161183"><ele>286.0</ele><time>2026-04-25T09:12:58.924Z</time></trkpt><trkpt lat="37.5701933" lon="14.9160883"><ele>286.0</ele><time>2026-04-25T09:12:59.923Z</time></trkpt><trkpt lat="37.57033" lon="14.916055"><ele>286.0</ele><time>2026-04-25T09:13:00.923Z</time></trkpt><trkpt lat="37.5704667" lon="14.916035"><ele>286.0</ele><time>2026-04-25T09:13:01.924Z</time></trkpt><trkpt lat="37.5706017" lon="14.916025"><ele>286.0</ele><time>2026-04-25T09:13:02.923Z</time></trkpt><trkpt lat="37.5707517" lon="14.916015"><ele>285.0</ele><time>2026-04-25T09:13:03.923Z</time></trkpt><trkpt lat="37.5709" lon="14.9160317"><ele>284.0</ele><time>2026-04-25T09:13:04.923Z</time></trkpt><trkpt lat="37.57106" lon="14.9160617"><ele>283.0</ele><time>2026-04-25T09:13:05.924Z</time></trkpt><trkpt lat="37.571225" lon="14.9161083"><ele>282.66666666666663</ele><time>2026-04-25T09:13:06.924Z</time></trkpt><trkpt lat="37.5713983" lon="14.9161533"><ele>282.3333333333333</ele><time>2026-04-25T09:13:07.923Z</time></trkpt><trkpt lat="37.571565" lon="14.916205"><ele>282.0</ele><time>2026-04-25T09:13:08.923Z</time></trkpt><trkpt lat="37.5717367" lon="14.9162567"><ele>282.0</ele><time>2026-04-25T09:13:09.924Z</time></trkpt><trkpt lat="37.5718983" lon="14.9163133"><ele>282.0</ele><time>2026-04-25T09:13:10.924Z</time></trkpt><trkpt lat="37.572065" lon="14.91637"><ele>282.0</ele><time>2026-04-25T09:13:11.924Z</time></trkpt><trkpt lat="37.5722283" lon="14.9164167"><ele>281.6666666666667</ele><time>2026-04-25T09:13:12.924Z</time></trkpt><trkpt lat="37.57239" lon="14.9164667"><ele>281.33333333333337</ele><time>2026-04-25T09:13:13.924Z</time></trkpt><trkpt lat="37.5725517" lon="14.9165217"><ele>281.0</ele><time>2026-04-25T09:13:14.924Z</time></trkpt><trkpt lat="37.5727117" lon="14.9165733"><ele>280.33333333333337</ele><time>2026-04-25T09:13:15.924Z</time></trkpt><trkpt lat="37.57287" lon="14.9166317"><ele>279.6666666666667</ele><time>2026-04-25T09:13:16.924Z</time></trkpt><trkpt lat="37.57303" lon="14.9166867"><ele>279.0</ele><time>2026-04-25T09:13:17.924Z</time></trkpt><trkpt lat="37.573205" lon="14.9167317"><ele>285.0</ele><time>2026-04-25T09:13:18.924Z</time></trkpt><trkpt lat="37.573375" lon="14.9167817"><ele>291.0</ele><time>2026-04-25T09:13:19.923Z</time></trkpt><trkpt lat="37.5735417" lon="14.9168383"><ele>297.0</ele><time>2026-04-25T09:13:20.923Z</time></trkpt><trkpt lat="37.5737" lon="14.916905"><ele>297.0</ele><time>2026-04-25T09:13:21.924Z</time></trkpt><trkpt lat="37.573855" lon="14.916975"><ele>297.0</ele><time>2026-04-25T09:13:22.924Z</time></trkpt><trkpt lat="37.5740233" lon="14.9170467"><ele>297.0</ele><time>2026-04-25T09:13:23.923Z</time></trkpt><trkpt lat="37.5741867" lon="14.9171217"><ele>297.0</ele><time>2026-04-25T09:13:24.923Z</time></trkpt><trkpt lat="37.57434" lon="14.9172033"><ele>297.0</ele><time>2026-04-25T09:13:25.924Z</time></trkpt><trkpt lat="37.5745083" lon="14.91728"><ele>297.0</ele><time>2026-04-25T09:13:26.923Z</time></trkpt><trkpt lat="37.5746733" lon="14.9173583"><ele>297.3333333333333</ele><time>2026-04-25T09:13:27.923Z</time></trkpt><trkpt lat="37.5748333" lon="14.9174467"><ele>297.66666666666663</ele><time>2026-04-25T09:13:28.923Z</time></trkpt><trkpt lat="37.5749867" lon="14.9175367"><ele>298.0</ele><time>2026-04-25T09:13:29.923Z</time></trkpt><trkpt lat="37.575145" lon="14.9176283"><ele>298.0</ele><time>2026-04-25T09:13:30.924Z</time></trkpt><trkpt lat="37.5753117" lon="14.9177167"><ele>298.0</ele><time>2026-04-25T09:13:31.923Z</time></trkpt><trkpt lat="37.575465" lon="14.9178067"><ele>298.0</ele><time>2026-04-25T09:13:32.924Z</time></trkpt><trkpt lat="37.5756217" lon="14.9178983"><ele>299.0</ele><time>2026-04-25T09:13:33.923Z</time></trkpt><trkpt lat="37.5757817" lon="14.9179917"><ele>300.0</ele><time>2026-04-25T09:13:34.924Z</time></trkpt><trkpt lat="37.575945" lon="14.9180883"><ele>301.0</ele><time>2026-04-25T09:13:35.924Z</time></trkpt><trkpt lat="37.5761083" lon="14.9181783"><ele>300.66666666666663</ele><time>2026-04-25T09:13:36.923Z</time></trkpt><trkpt lat="37.5762683" lon="14.91827"><ele>300.3333333333333</ele><time>2026-04-25T09:13:37.924Z</time></trkpt><trkpt lat="37.57643" lon="14.9183583"><ele>300.0</ele><time>2026-04-25T09:13:38.924Z</time></trkpt><trkpt lat="37.5765867" lon="14.918445"><ele>301.0</ele><time>2026-04-25T09:13:39.923Z</time></trkpt><trkpt lat="37.576745" lon="14.9185333"><ele>302.0</ele><time>2026-04-25T09:13:40.922Z</time></trkpt><trkpt lat="37.5769017" lon="14.9186217"><ele>303.0</ele><time>2026-04-25T09:13:41.923Z</time></trkpt><trkpt lat="37.5770533" lon="14.918695"><ele>303.6666666666667</ele><time>2026-04-25T09:13:42.923Z</time></trkpt><trkpt lat="37.5772083" lon="14.91876"><ele>304.33333333333337</ele><time>2026-04-25T09:13:43.923Z</time></trkpt><trkpt lat="37.577375" lon="14.91881"><ele>305.0</ele><time>2026-04-25T09:13:44.922Z</time></trkpt><trkpt lat="37.57755" lon="14.9188417"><ele>305.0</ele><time>2026-04-25T09:13:45.922Z</time></trkpt><trkpt lat="37.57772" lon="14.9188667"><ele>305.0</ele><time>2026-04-25T09:13:46.923Z</time></trkpt><trkpt lat="37.5778983" lon="14.9188683"><ele>305.0</ele><time>2026-04-25T09:13:47.923Z</time></trkpt><trkpt lat="37.5780783" lon="14.9188583"><ele>306.33333333333337</ele><time>2026-04-25T09:13:48.923Z</time></trkpt><trkpt lat="37.57826" lon="14.9188417"><ele>307.6666666666667</ele><time>2026-04-25T09:13:49.923Z</time></trkpt><trkpt lat="37.5784333" lon="14.91881"><ele>309.0</ele><time>2026-04-25T09:13:50.923Z</time></trkpt><trkpt lat="37.5786183" lon="14.918755"><ele>309.6666666666667</ele><time>2026-04-25T09:13:51.923Z</time></trkpt><trkpt lat="37.5787983" lon="14.9186967"><ele>310.33333333333337</ele><time>2026-04-25T09:13:52.923Z</time></trkpt><trkpt lat="37.5789817" lon="14.9186367"><ele>311.0</ele><time>2026-04-25T09:13:53.923Z</time></trkpt><trkpt lat="37.5791683" lon="14.9185767"><ele>311.0</ele><time>2026-04-25T09:13:54.923Z</time></trkpt><trkpt lat="37.5793383" lon="14.918515"><ele>311.0</ele><time>2026-04-25T09:13:55.922Z</time></trkpt><trkpt lat="37.5795167" lon="14.91845"><ele>311.0</ele><time>2026-04-25T09:13:56.922Z</time></trkpt><trkpt lat="37.5796883" lon="14.918375"><ele>312.33333333333337</ele><time>2026-04-25T09:13:57.923Z</time></trkpt><trkpt lat="37.5798667" lon="14.9183133"><ele>313.6666666666667</ele><time>2026-04-25T09:13:58.922Z</time></trkpt><trkpt lat="37.5800467" lon="14.918245"><ele>315.0</ele><time>2026-04-25T09:13:59.923Z</time></trkpt><trkpt lat="37.5802283" lon="14.9181817"><ele>315.6666666666667</ele><time>2026-04-25T09:14:00.922Z</time></trkpt><trkpt lat="37.5804033" lon="14.9181267"><ele>316.33333333333337</ele><time>2026-04-25T09:14:01.923Z</time></trkpt><trkpt lat="37.5805767" lon="14.91807"><ele>317.0</ele><time>2026-04-25T09:14:02.922Z</time></trkpt><trkpt lat="37.58075" lon="14.9180017"><ele>317.0</ele><time>2026-04-25T09:14:03.923Z</time></trkpt><trkpt lat="37.580935" lon="14.9179367"><ele>317.0</ele><time>2026-04-25T09:14:04.922Z</time></trkpt><trkpt lat="37.5811233" lon="14.9178767"><ele>317.0</ele><time>2026-04-25T09:14:05.923Z</time></trkpt><trkpt lat="37.5813033" lon="14.9178133"><ele>318.6666666666667</ele><time>2026-04-25T09:14:06.923Z</time></trkpt><trkpt lat="37.5814833" lon="14.9177467"><ele>320.3333333333333</ele><time>2026-04-25T09:14:07.923Z</time></trkpt><trkpt lat="37.58166" lon="14.9176833"><ele>322.0</ele><time>2026-04-25T09:14:08.923Z</time></trkpt><trkpt lat="37.581835" lon="14.9176217"><ele>321.3333333333333</ele><time>2026-04-25T09:14:09.923Z</time></trkpt><trkpt lat="37.5820133" lon="14.9175567"><ele>320.6666666666667</ele><time>2026-04-25T09:14:10.922Z</time></trkpt><trkpt lat="37.5821983" lon="14.917495"><ele>320.0</ele><time>2026-04-25T09:14:11.923Z</time></trkpt><trkpt lat="37.58238" lon="14.9174317"><ele>320.0</ele><time>2026-04-25T09:14:12.922Z</time></trkpt><trkpt lat="37.58256" lon="14.9173683"><ele>320.0</ele><time>2026-04-25T09:14:13.923Z</time></trkpt><trkpt lat="37.5827367" lon="14.9172983"><ele>320.0</ele><time>2026-04-25T09:14:14.923Z</time></trkpt><trkpt lat="37.5829217" lon="14.9172367"><ele>322.6666666666667</ele><time>2026-04-25T09:14:15.922Z</time></trkpt><trkpt lat="37.5831083" lon="14.9171667"><ele>325.3333333333333</ele><time>2026-04-25T09:14:16.922Z</time></trkpt><trkpt lat="37.5832983" lon="14.9171033"><ele>328.0</ele><time>2026-04-25T09:14:17.923Z</time></trkpt><trkpt lat="37.5834833" lon="14.9170367"><ele>328.0</ele><time>2026-04-25T09:14:18.922Z</time></trkpt><trkpt lat="37.58367" lon="14.91697"><ele>328.0</ele><time>2026-04-25T09:14:19.923Z</time></trkpt><trkpt lat="37.5838583" lon="14.9168983"><ele>328.0</ele><time>2026-04-25T09:14:20.922Z</time></trkpt><trkpt lat="37.5840467" lon="14.9168333"><ele>328.0</ele><time>2026-04-25T09:14:21.923Z</time></trkpt><trkpt lat="37.5842383" lon="14.9167633"><ele>328.0</ele><time>2026-04-25T09:14:22.923Z</time></trkpt><trkpt lat="37.5844317" lon="14.9167"><ele>328.0</ele><time>2026-04-25T09:14:23.922Z</time></trkpt><trkpt lat="37.5846183" lon="14.9166483"><ele>328.66666666666663</ele><time>2026-04-25T09:14:24.923Z</time></trkpt><trkpt lat="37.5848017" lon="14.9166033"><ele>329.3333333333333</ele><time>2026-04-25T09:14:25.922Z</time></trkpt><trkpt lat="37.584975" lon="14.9165667"><ele>330.0</ele><time>2026-04-25T09:14:26.923Z</time></trkpt><trkpt lat="37.5851417" lon="14.91654"><ele>330.0</ele><time>2026-04-25T09:14:27.922Z</time></trkpt><trkpt lat="37.58531" lon="14.9165067"><ele>330.0</ele><time>2026-04-25T09:14:28.922Z</time></trkpt><trkpt lat="37.5854683" lon="14.9164717"><ele>330.0</ele><time>2026-04-25T09:14:29.922Z</time></trkpt><trkpt lat="37.5856267" lon="14.9164517"><ele>330.0</ele><time>2026-04-25T09:14:30.922Z</time></trkpt><trkpt lat="37.5857867" lon="14.91643"><ele>330.0</ele><time>2026-04-25T09:14:31.922Z</time></trkpt><trkpt lat="37.585955" lon="14.9164133"><ele>330.0</ele><time>2026-04-25T09:14:32.923Z</time></trkpt><trkpt lat="37.5861117" lon="14.9163983"><ele>331.5</ele><time>2026-04-25T09:14:33.922Z</time></trkpt><trkpt lat="37.5862717" lon="14.9163817"><ele>333.0</ele><time>2026-04-25T09:14:34.923Z</time></trkpt><trkpt lat="37.5864217" lon="14.9163683"><ele>334.5</ele><time>2026-04-25T09:14:35.923Z</time></trkpt><trkpt lat="37.5865433" lon="14.91635"><ele>336.0</ele><time>2026-04-25T09:14:36.922Z</time></trkpt><trkpt lat="37.5866667" lon="14.91634"><ele>336.0</ele><time>2026-04-25T09:14:37.922Z</time></trkpt><trkpt lat="37.5867883" lon="14.9163283"><ele>336.0</ele><time>2026-04-25T09:14:38.923Z</time></trkpt><trkpt lat="37.586915" lon="14.9163117"><ele>336.0</ele><time>2026-04-25T09:14:39.922Z</time></trkpt><trkpt lat="37.5870433" lon="14.9162967"><ele>336.0</ele><time>2026-04-25T09:14:40.922Z</time></trkpt><trkpt lat="37.5871817" lon="14.9162833"><ele>337.0</ele><time>2026-04-25T09:14:41.922Z</time></trkpt><trkpt lat="37.58731" lon="14.9162717"><ele>338.0</ele><time>2026-04-25T09:14:42.923Z</time></trkpt><trkpt lat="37.5874333" lon="14.9162533"><ele>339.0</ele><time>2026-04-25T09:14:43.923Z</time></trkpt><trkpt lat="37.5875533" lon="14.916245"><ele>340.0</ele><time>2026-04-25T09:14:44.922Z</time></trkpt><trkpt lat="37.5876833" lon="14.91623"><ele>340.0</ele><time>2026-04-25T09:14:45.923Z</time></trkpt><trkpt lat="37.5878083" lon="14.9162167"><ele>340.0</ele><time>2026-04-25T09:14:46.923Z</time></trkpt><trkpt lat="37.5879417" lon="14.9162"><ele>340.0</ele><time>2026-04-25T09:14:47.923Z</time></trkpt><trkpt lat="37.58808" lon="14.91619"><ele>340.0</ele><time>2026-04-25T09:14:48.923Z</time></trkpt><trkpt lat="37.5882133" lon="14.91617"><ele>342.5</ele><time>2026-04-25T09:14:49.923Z</time></trkpt><trkpt lat="37.5883533" lon="14.9161517"><ele>345.0</ele><time>2026-04-25T09:14:50.923Z</time></trkpt><trkpt lat="37.5884967" lon="14.9161333"><ele>347.5</ele><time>2026-04-25T09:14:51.923Z</time></trkpt><trkpt lat="37.588635" lon="14.9161233"><ele>350.0</ele><time>2026-04-25T09:14:52.923Z</time></trkpt><trkpt lat="37.58878" lon="14.916115"><ele>350.0</ele><time>2026-04-25T09:14:53.922Z</time></trkpt><trkpt lat="37.5889367" lon="14.9160933"><ele>350.0</ele><time>2026-04-25T09:14:54.923Z</time></trkpt><trkpt lat="37.5890983" lon="14.9160783"><ele>350.0</ele><time>2026-04-25T09:14:55.922Z</time></trkpt><trkpt lat="37.5892617" lon="14.91606"><ele>350.0</ele><time>2026-04-25T09:14:56.923Z</time></trkpt><trkpt lat="37.589415" lon="14.9160467"><ele>350.0</ele><time>2026-04-25T09:14:57.922Z</time></trkpt><trkpt lat="37.5895633" lon="14.9160333"><ele>350.0</ele><time>2026-04-25T09:14:58.923Z</time></trkpt><trkpt lat="37.5897083" lon="14.9159967"><ele>350.6666666666667</ele><time>2026-04-25T09:14:59.923Z</time></trkpt><trkpt lat="37.58986" lon="14.915955"><ele>351.3333333333333</ele><time>2026-04-25T09:15:00.923Z</time></trkpt><trkpt lat="37.5900067" lon="14.9159133"><ele>352.0</ele><time>2026-04-25T09:15:01.922Z</time></trkpt><trkpt lat="37.5901583" lon="14.9158717"><ele>351.0</ele><time>2026-04-25T09:15:02.923Z</time></trkpt><trkpt lat="37.590305" lon="14.9158167"><ele>350.0</ele><time>2026-04-25T09:15:03.922Z</time></trkpt><trkpt lat="37.590445" lon="14.91576"><ele>349.0</ele><time>2026-04-25T09:15:04.923Z</time></trkpt><trkpt lat="37.5905833" lon="14.9156933"><ele>348.0</ele><time>2026-04-25T09:15:05.923Z</time></trkpt><trkpt lat="37.590725" lon="14.915625"><ele>350.6666666666667</ele><time>2026-04-25T09:15:06.923Z</time></trkpt><trkpt lat="37.590865" lon="14.9155517"><ele>353.33333333333337</ele><time>2026-04-25T09:15:07.922Z</time></trkpt><trkpt lat="37.5910083" lon="14.9154817"><ele>356.0</ele><time>2026-04-25T09:15:08.922Z</time></trkpt><trkpt lat="37.5911483" lon="14.9154017"><ele>358.33333333333337</ele><time>2026-04-25T09:15:09.923Z</time></trkpt><trkpt lat="37.59129" lon="14.9153167"><ele>360.6666666666667</ele><time>2026-04-25T09:15:10.922Z</time></trkpt><trkpt lat="37.5914283" lon="14.9152333"><ele>363.0</ele><time>2026-04-25T09:15:11.923Z</time></trkpt><trkpt lat="37.5915667" lon="14.9151567"><ele>363.0</ele><time>2026-04-25T09:15:12.923Z</time></trkpt><trkpt lat="37.5917033" lon="14.9150833"><ele>363.0</ele><time>2026-04-25T09:15:13.922Z</time></trkpt><trkpt lat="37.5918483" lon="14.9150183"><ele>363.0</ele><time>2026-04-25T09:15:14.923Z</time></trkpt><trkpt lat="37.591985" lon="14.9149417"><ele>361.6666666666667</ele><time>2026-04-25T09:15:15.923Z</time></trkpt><trkpt lat="37.5921267" lon="14.9148633"><ele>360.33333333333337</ele><time>2026-04-25T09:15:16.923Z</time></trkpt><trkpt lat="37.5922683" lon="14.91478"><ele>359.0</ele><time>2026-04-25T09:15:17.923Z</time></trkpt><trkpt lat="37.59241" lon="14.914695"><ele>359.0</ele><time>2026-04-25T09:15:18.923Z</time></trkpt><trkpt lat="37.5925567" lon="14.91462"><ele>359.0</ele><time>2026-04-25T09:15:19.923Z</time></trkpt><trkpt lat="37.5926933" lon="14.914545"><ele>359.0</ele><time>2026-04-25T09:15:20.923Z</time></trkpt><trkpt lat="37.5928317" lon="14.91447"><ele>359.75</ele><time>2026-04-25T09:15:21.922Z</time></trkpt><trkpt lat="37.592965" lon="14.914395"><ele>360.5</ele><time>2026-04-25T09:15:22.923Z</time></trkpt><trkpt lat="37.5930833" lon="14.9143267"><ele>361.25</ele><time>2026-04-25T09:15:23.922Z</time></trkpt><trkpt lat="37.5931967" lon="14.914265"><ele>362.0</ele><time>2026-04-25T09:15:24.923Z</time></trkpt><trkpt lat="37.5933033" lon="14.9142067"><ele>362.0</ele><time>2026-04-25T09:15:25.923Z</time></trkpt><trkpt lat="37.593415" lon="14.9141383"><ele>362.0</ele><time>2026-04-25T09:15:26.923Z</time></trkpt><trkpt lat="37.5935283" lon="14.9140733"><ele>362.0</ele><time>2026-04-25T09:15:27.923Z</time></trkpt><trkpt lat="37.593635" lon="14.9140167"><ele>362.0</ele><time>2026-04-25T09:15:28.923Z</time></trkpt><trkpt lat="37.593745" lon="14.913955"><ele>363.0</ele><time>2026-04-25T09:15:29.923Z</time></trkpt><trkpt lat="37.5938617" lon="14.9138933"><ele>364.0</ele><time>2026-04-25T09:15:30.922Z</time></trkpt><trkpt lat="37.5939733" lon="14.913825"><ele>365.0</ele><time>2026-04-25T09:15:31.923Z</time></trkpt><trkpt lat="37.59409" lon="14.9137667"><ele>366.0</ele><time>2026-04-25T09:15:32.922Z</time></trkpt><trkpt lat="37.5942067" lon="14.9137033"><ele>366.0</ele><time>2026-04-25T09:15:33.923Z</time></trkpt><trkpt lat="37.594325" lon="14.9136417"><ele>366.0</ele><time>2026-04-25T09:15:34.923Z</time></trkpt><trkpt lat="37.59445" lon="14.9135817"><ele>366.0</ele><time>2026-04-25T09:15:35.922Z</time></trkpt><trkpt lat="37.5945733" lon="14.913515"><ele>366.0</ele><time>2026-04-25T09:15:36.922Z</time></trkpt><trkpt lat="37.594695" lon="14.9134467"><ele>365.0</ele><time>2026-04-25T09:15:37.923Z</time></trkpt><trkpt lat="37.5948167" lon="14.9133783"><ele>364.0</ele><time>2026-04-25T09:15:38.922Z</time></trkpt><trkpt lat="37.59493" lon="14.91331"><ele>363.0</ele><time>2026-04-25T09:15:39.923Z</time></trkpt><trkpt lat="37.5950383" lon="14.9132433"><ele>362.0</ele><time>2026-04-25T09:15:40.922Z</time></trkpt><trkpt lat="37.59514" lon="14.9131883"><ele>362.0</ele><time>2026-04-25T09:15:41.923Z</time></trkpt><trkpt lat="37.5952417" lon="14.913135"><ele>362.0</ele><time>2026-04-25T09:15:42.923Z</time></trkpt><trkpt lat="37.5953333" lon="14.9130883"><ele>362.0</ele><time>2026-04-25T09:15:43.922Z</time></trkpt><trkpt lat="37.595425" lon="14.91304"><ele>362.0</ele><time>2026-04-25T09:15:44.923Z</time></trkpt><trkpt lat="37.59552" lon="14.912995"><ele>362.0</ele><time>2026-04-25T09:15:45.923Z</time></trkpt><trkpt lat="37.5956183" lon="14.9129433"><ele>363.25</ele><time>2026-04-25T09:15:46.923Z</time></trkpt><trkpt lat="37.59572" lon="14.912885"><ele>364.5</ele><time>2026-04-25T09:15:47.923Z</time></trkpt><trkpt lat="37.595825" lon="14.9128233"><ele>365.75</ele><time>2026-04-25T09:15:48.923Z</time></trkpt><trkpt lat="37.595935" lon="14.9127633"><ele>367.0</ele><time>2026-04-25T09:15:49.923Z</time></trkpt><trkpt lat="37.5960483" lon="14.9127017"><ele>367.0</ele><time>2026-04-25T09:15:50.923Z</time></trkpt><trkpt lat="37.5961633" lon="14.9126367"><ele>367.0</ele><time>2026-04-25T09:15:51.923Z</time></trkpt><trkpt lat="37.5962783" lon="14.9125717"><ele>367.0</ele><time>2026-04-25T09:15:52.922Z</time></trkpt><trkpt lat="37.5963967" lon="14.9125067"><ele>367.0</ele><time>2026-04-25T09:15:53.923Z</time></trkpt><trkpt lat="37.5965167" lon="14.9124367"><ele>367.25</ele><time>2026-04-25T09:15:54.923Z</time></trkpt><trkpt lat="37.5966383" lon="14.9123667"><ele>367.5</ele><time>2026-04-25T09:15:55.923Z</time></trkpt><trkpt lat="37.5967683" lon="14.91229"><ele>367.75</ele><time>2026-04-25T09:15:56.922Z</time></trkpt><trkpt lat="37.5969" lon="14.9122167"><ele>368.0</ele><time>2026-04-25T09:15:57.923Z</time></trkpt><trkpt lat="37.59703" lon="14.9121483"><ele>368.0</ele><time>2026-04-25T09:15:58.922Z</time></trkpt><trkpt lat="37.59716" lon="14.9120767"><ele>368.0</ele><time>2026-04-25T09:15:59.923Z</time></trkpt><trkpt lat="37.597295" lon="14.9120133"><ele>368.0</ele><time>2026-04-25T09:16:00.922Z</time></trkpt><trkpt lat="37.5974217" lon="14.9119433"><ele>368.0</ele><time>2026-04-25T09:16:01.922Z</time></trkpt><trkpt lat="37.5975433" lon="14.91187"><ele>368.0</ele><time>2026-04-25T09:16:02.922Z</time></trkpt><trkpt lat="37.5976767" lon="14.9117933"><ele>368.0</ele><time>2026-04-25T09:16:03.923Z</time></trkpt><trkpt lat="37.5978133" lon="14.9117217"><ele>368.0</ele><time>2026-04-25T09:16:04.922Z</time></trkpt><trkpt lat="37.5979533" lon="14.91166"><ele>368.0</ele><time>2026-04-25T09:16:05.923Z</time></trkpt><trkpt lat="37.5981033" lon="14.9115967"><ele>368.6666666666667</ele><time>2026-04-25T09:16:06.923Z</time></trkpt><trkpt lat="37.59825" lon="14.9115433"><ele>369.3333333333333</ele><time>2026-04-25T09:16:07.923Z</time></trkpt><trkpt lat="37.5983983" lon="14.9115033"><ele>370.0</ele><time>2026-04-25T09:16:08.922Z</time></trkpt><trkpt lat="37.5985483" lon="14.91146"><ele>371.75</ele><time>2026-04-25T09:16:09.923Z</time></trkpt><trkpt lat="37.5986867" lon="14.9114283"><ele>373.5</ele><time>2026-04-25T09:16:10.922Z</time></trkpt><trkpt lat="37.5988183" lon="14.9114017"><ele>375.25</ele><time>2026-04-25T09:16:11.923Z</time></trkpt><trkpt lat="37.5989417" lon="14.911375"><ele>377.0</ele><time>2026-04-25T09:16:12.922Z</time></trkpt><trkpt lat="37.5990733" lon="14.9113633"><ele>377.0</ele><time>2026-04-25T09:16:13.923Z</time></trkpt><trkpt lat="37.5992" lon="14.9113517"><ele>377.0</ele><time>2026-04-25T09:16:14.922Z</time></trkpt><trkpt lat="37.5993267" lon="14.911355"><ele>377.0</ele><time>2026-04-25T09:16:15.923Z</time></trkpt><trkpt lat="37.599445" lon="14.9113683"><ele>377.0</ele><time>2026-04-25T09:16:16.923Z</time></trkpt><trkpt lat="37.5995733" lon="14.91138"><ele>378.75</ele><time>2026-04-25T09:16:17.923Z</time></trkpt><trkpt lat="37.5996967" lon="14.9113917"><ele>380.5</ele><time>2026-04-25T09:16:18.922Z</time></trkpt><trkpt lat="37.5998167" lon="14.9114233"><ele>382.25</ele><time>2026-04-25T09:16:19.923Z</time></trkpt><trkpt lat="37.5999533" lon="14.9114383"><ele>384.0</ele><time>2026-04-25T09:16:20.923Z</time></trkpt><trkpt lat="37.6000867" lon="14.9114417"><ele>384.0</ele><time>2026-04-25T09:16:21.923Z</time></trkpt><trkpt lat="37.6002217" lon="14.91144"><ele>384.0</ele><time>2026-04-25T09:16:22.923Z</time></trkpt><trkpt lat="37.6003683" lon="14.9114383"><ele>384.0</ele><time>2026-04-25T09:16:23.922Z</time></trkpt><trkpt lat="37.60052" lon="14.911435"><ele>384.0</ele><time>2026-04-25T09:16:24.922Z</time></trkpt><trkpt lat="37.600675" lon="14.9114433"><ele>385.0</ele><time>2026-04-25T09:16:25.923Z</time></trkpt><trkpt lat="37.6008333" lon="14.9114467"><ele>386.0</ele><time>2026-04-25T09:16:26.922Z</time></trkpt><trkpt lat="37.6009933" lon="14.911445"><ele>387.0</ele><time>2026-04-25T09:16:27.922Z</time></trkpt><trkpt lat="37.601145" lon="14.9114517"><ele>387.66666666666663</ele><time>2026-04-25T09:16:28.923Z</time></trkpt><trkpt lat="37.601295" lon="14.9114567"><ele>388.3333333333333</ele><time>2026-04-25T09:16:29.923Z</time></trkpt><trkpt lat="37.6014533" lon="14.9114583"><ele>389.0</ele><time>2026-04-25T09:16:30.923Z</time></trkpt><trkpt lat="37.601605" lon="14.9114583"><ele>389.0</ele><time>2026-04-25T09:16:31.922Z</time></trkpt><trkpt lat="37.6017683" lon="14.911455"><ele>389.0</ele><time>2026-04-25T09:16:32.922Z</time></trkpt><trkpt lat="37.6019283" lon="14.91146"><ele>389.0</ele><time>2026-04-25T09:16:33.923Z</time></trkpt><trkpt lat="37.6020867" lon="14.9114683"><ele>390.3333333333333</ele><time>2026-04-25T09:16:34.923Z</time></trkpt><trkpt lat="37.6022433" lon="14.9114733"><ele>391.66666666666663</ele><time>2026-04-25T09:16:35.922Z</time></trkpt><trkpt lat="37.602405" lon="14.9114817"><ele>393.0</ele><time>2026-04-25T09:16:36.922Z</time></trkpt><trkpt lat="37.6025667" lon="14.911485"><ele>393.0</ele><time>2026-04-25T09:16:37.923Z</time></trkpt><trkpt lat="37.6027333" lon="14.9114967"><ele>393.0</ele><time>2026-04-25T09:16:38.922Z</time></trkpt><trkpt lat="37.602895" lon="14.9115033"><ele>393.0</ele><time>2026-04-25T09:16:39.923Z</time></trkpt><trkpt lat="37.6030567" lon="14.91151"><ele>394.0</ele><time>2026-04-25T09:16:40.923Z</time></trkpt><trkpt lat="37.603215" lon="14.9115167"><ele>395.0</ele><time>2026-04-25T09:16:41.923Z</time></trkpt><trkpt lat="37.6033783" lon="14.9115233"><ele>396.0</ele><time>2026-04-25T09:16:42.922Z</time></trkpt><trkpt lat="37.60353" lon="14.9115317"><ele>397.0</ele><time>2026-04-25T09:16:43.922Z</time></trkpt><trkpt lat="37.603675" lon="14.9115117"><ele>398.0</ele><time>2026-04-25T09:16:44.922Z</time></trkpt><trkpt lat="37.6038317" lon="14.9114683"><ele>399.0</ele><time>2026-04-25T09:16:45.923Z</time></trkpt><trkpt lat="37.6039867" lon="14.9114233"><ele>399.0</ele><time>2026-04-25T09:16:46.923Z</time></trkpt><trkpt lat="37.604135" lon="14.911365"><ele>399.0</ele><time>2026-04-25T09:16:47.923Z</time></trkpt><trkpt lat="37.6042833" lon="14.9113033"><ele>399.0</ele><time>2026-04-25T09:16:48.922Z</time></trkpt><trkpt lat="37.6044367" lon="14.9112317"><ele>400.33333333333337</ele><time>2026-04-25T09:16:49.923Z</time></trkpt><trkpt lat="37.60458" lon="14.91114"><ele>401.6666666666667</ele><time>2026-04-25T09:16:50.922Z</time></trkpt><trkpt lat="37.6047167" lon="14.91104"><ele>403.0</ele><time>2026-04-25T09:16:51.923Z</time></trkpt><trkpt lat="37.6048533" lon="14.910935"><ele>404.0</ele><time>2026-04-25T09:16:52.923Z</time></trkpt><trkpt lat="37.6049917" lon="14.9108167"><ele>405.0</ele><time>2026-04-25T09:16:53.923Z</time></trkpt><trkpt lat="37.605135" lon="14.910695"><ele>406.0</ele><time>2026-04-25T09:16:54.922Z</time></trkpt><trkpt lat="37.6052783" lon="14.91058"><ele>409.0</ele><time>2026-04-25T09:16:55.923Z</time></trkpt><trkpt lat="37.60542" lon="14.91046"><ele>412.0</ele><time>2026-04-25T09:16:56.922Z</time></trkpt><trkpt lat="37.6055567" lon="14.91034"><ele>415.0</ele><time>2026-04-25T09:16:57.922Z</time></trkpt><trkpt lat="37.6056933" lon="14.9102183"><ele>415.0</ele><time>2026-04-25T09:16:58.922Z</time></trkpt><trkpt lat="37.6058267" lon="14.9101083"><ele>415.0</ele><time>2026-04-25T09:16:59.923Z</time></trkpt><trkpt lat="37.6059483" lon="14.9099983"><ele>415.0</ele><time>2026-04-25T09:17:00.923Z</time></trkpt><trkpt lat="37.6060717" lon="14.9098933"><ele>416.0</ele><time>2026-04-25T09:17:01.922Z</time></trkpt><trkpt lat="37.606205" lon="14.90978"><ele>417.0</ele><time>2026-04-25T09:17:02.923Z</time></trkpt><trkpt lat="37.6063417" lon="14.9096733"><ele>418.0</ele><time>2026-04-25T09:17:03.922Z</time></trkpt><trkpt lat="37.60647" lon="14.9095583"><ele>418.0</ele><time>2026-04-25T09:17:04.922Z</time></trkpt><trkpt lat="37.6066" lon="14.90944"><ele>418.0</ele><time>2026-04-25T09:17:05.923Z</time></trkpt><trkpt lat="37.606735" lon="14.9093283"><ele>418.0</ele><time>2026-04-25T09:17:06.922Z</time></trkpt><trkpt lat="37.6068633" lon="14.90921"><ele>420.0</ele><time>2026-04-25T09:17:07.923Z</time></trkpt><trkpt lat="37.606995" lon="14.9091"><ele>422.0</ele><time>2026-04-25T09:17:08.923Z</time></trkpt><trkpt lat="37.60713" lon="14.9089867"><ele>424.0</ele><time>2026-04-25T09:17:09.923Z</time></trkpt><trkpt lat="37.607255" lon="14.9088733"><ele>424.0</ele><time>2026-04-25T09:17:10.923Z</time></trkpt><trkpt lat="37.607385" lon="14.9087617"><ele>424.0</ele><time>2026-04-25T09:17:11.922Z</time></trkpt><trkpt lat="37.6075183" lon="14.90865"><ele>424.0</ele><time>2026-04-25T09:17:12.923Z</time></trkpt><trkpt lat="37.6076583" lon="14.9085383"><ele>424.0</ele><time>2026-04-25T09:17:13.923Z</time></trkpt><trkpt lat="37.6077967" lon="14.90843"><ele>424.0</ele><time>2026-04-25T09:17:14.923Z</time></trkpt><trkpt lat="37.6079333" lon="14.9083117"><ele>424.0</ele><time>2026-04-25T09:17:15.923Z</time></trkpt><trkpt lat="37.6080667" lon="14.908195"><ele>425.0</ele><time>2026-04-25T09:17:16.923Z</time></trkpt><trkpt lat="37.6082017" lon="14.9080717"><ele>426.0</ele><time>2026-04-25T09:17:17.923Z</time></trkpt><trkpt lat="37.60834" lon="14.9079483"><ele>427.0</ele><time>2026-04-25T09:17:18.923Z</time></trkpt><trkpt lat="37.60848" lon="14.9078217"><ele>427.0</ele><time>2026-04-25T09:17:19.923Z</time></trkpt><trkpt lat="37.6086217" lon="14.9076983"><ele>427.0</ele><time>2026-04-25T09:17:20.923Z</time></trkpt><trkpt lat="37.60876" lon="14.90758"><ele>427.0</ele><time>2026-04-25T09:17:21.922Z</time></trkpt><trkpt lat="37.6088983" lon="14.9074583"><ele>428.33333333333337</ele><time>2026-04-25T09:17:22.923Z</time></trkpt><trkpt lat="37.60904" lon="14.9073417"><ele>429.66666666666663</ele><time>2026-04-25T09:17:23.922Z</time></trkpt><trkpt lat="37.6091717" lon="14.907225"><ele>431.0</ele><time>2026-04-25T09:17:24.923Z</time></trkpt><trkpt lat="37.6093033" lon="14.907115"><ele>431.0</ele><time>2026-04-25T09:17:25.922Z</time></trkpt><trkpt lat="37.6094333" lon="14.907005"><ele>431.0</ele><time>2026-04-25T09:17:26.922Z</time></trkpt><trkpt lat="37.6095617" lon="14.906895"><ele>431.0</ele><time>2026-04-25T09:17:27.923Z</time></trkpt><trkpt lat="37.6096833" lon="14.90679"><ele>431.75</ele><time>2026-04-25T09:17:28.923Z</time></trkpt><trkpt lat="37.609805" lon="14.9066783"><ele>432.5</ele><time>2026-04-25T09:17:29.923Z</time></trkpt><trkpt lat="37.60992" lon="14.9065717"><ele>433.25</ele><time>2026-04-25T09:17:30.922Z</time></trkpt><trkpt lat="37.610035" lon="14.9064617"><ele>434.0</ele><time>2026-04-25T09:17:31.923Z</time></trkpt><trkpt lat="37.6101483" lon="14.9063533"><ele>434.0</ele><time>2026-04-25T09:17:32.922Z</time></trkpt><trkpt lat="37.6102733" lon="14.9062583"><ele>434.0</ele><time>2026-04-25T09:17:33.923Z</time></trkpt><trkpt lat="37.6104033" lon="14.9061617"><ele>434.0</ele><time>2026-04-25T09:17:34.923Z</time></trkpt><trkpt lat="37.6105367" lon="14.9060583"><ele>436.0</ele><time>2026-04-25T09:17:35.923Z</time></trkpt><trkpt lat="37.6106667" lon="14.9059467"><ele>438.0</ele><time>2026-04-25T09:17:36.922Z</time></trkpt><trkpt lat="37.6107967" lon="14.9058317"><ele>440.0</ele><time>2026-04-25T09:17:37.922Z</time></trkpt><trkpt lat="37.6109383" lon="14.9057133"><ele>440.3333333333333</ele><time>2026-04-25T09:17:38.922Z</time></trkpt><trkpt lat="37.6110833" lon="14.9055933"><ele>440.66666666666663</ele><time>2026-04-25T09:17:39.923Z</time></trkpt><trkpt lat="37.611235" lon="14.9054667"><ele>441.0</ele><time>2026-04-25T09:17:40.923Z</time></trkpt><trkpt lat="37.6113783" lon="14.9053433"><ele>441.0</ele><time>2026-04-25T09:17:41.923Z</time></trkpt><trkpt lat="37.611525" lon="14.9052133"><ele>441.0</ele><time>2026-04-25T09:17:42.922Z</time></trkpt><trkpt lat="37.61167" lon="14.905095"><ele>441.0</ele><time>2026-04-25T09:17:43.922Z</time></trkpt><trkpt lat="37.6118133" lon="14.90497"><ele>441.0</ele><time>2026-04-25T09:17:44.922Z</time></trkpt><trkpt lat="37.6119533" lon="14.9048467"><ele>441.0</ele><time>2026-04-25T09:17:45.923Z</time></trkpt><trkpt lat="37.61209" lon="14.9047283"><ele>441.0</ele><time>2026-04-25T09:17:46.923Z</time></trkpt><trkpt lat="37.612225" lon="14.9046067"><ele>441.0</ele><time>2026-04-25T09:17:47.923Z</time></trkpt><trkpt lat="37.612365" lon="14.9044883"><ele>441.0</ele><time>2026-04-25T09:17:48.923Z</time></trkpt><trkpt lat="37.6125133" lon="14.9043617"><ele>441.0</ele><time>2026-04-25T09:17:49.923Z</time></trkpt><trkpt lat="37.612665" lon="14.90423"><ele>441.66666666666663</ele><time>2026-04-25T09:17:50.922Z</time></trkpt><trkpt lat="37.6128133" lon="14.9041017"><ele>442.3333333333333</ele><time>2026-04-25T09:17:51.922Z</time></trkpt><trkpt lat="37.612955" lon="14.9039817"><ele>443.0</ele><time>2026-04-25T09:17:52.922Z</time></trkpt><trkpt lat="37.6131033" lon="14.9038567"><ele>445.0</ele><time>2026-04-25T09:17:53.922Z</time></trkpt><trkpt lat="37.61325" lon="14.9037267"><ele>447.0</ele><time>2026-04-25T09:17:54.923Z</time></trkpt><trkpt lat="37.6134067" lon="14.9035983"><ele>449.0</ele><time>2026-04-25T09:17:55.922Z</time></trkpt><trkpt lat="37.61356" lon="14.903465"><ele>452.3333333333333</ele><time>2026-04-25T09:17:56.921Z</time></trkpt><trkpt lat="37.6137117" lon="14.903335"><ele>455.66666666666663</ele><time>2026-04-25T09:17:57.921Z</time></trkpt><trkpt lat="37.6138583" lon="14.90321"><ele>459.0</ele><time>2026-04-25T09:17:58.921Z</time></trkpt><trkpt lat="37.6140033" lon="14.903085"><ele>459.0</ele><time>2026-04-25T09:17:59.921Z</time></trkpt><trkpt lat="37.614155" lon="14.902955"><ele>459.0</ele><time>2026-04-25T09:18:00.921Z</time></trkpt><trkpt lat="37.6143117" lon="14.9028117"><ele>459.0</ele><time>2026-04-25T09:18:01.922Z</time></trkpt><trkpt lat="37.6144583" lon="14.9026767"><ele>458.66666666666663</ele><time>2026-04-25T09:18:02.922Z</time></trkpt><trkpt lat="37.6146117" lon="14.9025467"><ele>458.3333333333333</ele><time>2026-04-25T09:18:03.921Z</time></trkpt><trkpt lat="37.61477" lon="14.90243"><ele>458.0</ele><time>2026-04-25T09:18:04.922Z</time></trkpt><trkpt lat="37.6149283" lon="14.9023133"><ele>458.0</ele><time>2026-04-25T09:18:05.921Z</time></trkpt><trkpt lat="37.6151017" lon="14.9022067"><ele>458.0</ele><time>2026-04-25T09:18:06.921Z</time></trkpt><trkpt lat="37.6152783" lon="14.902105"><ele>458.0</ele><time>2026-04-25T09:18:07.922Z</time></trkpt><trkpt lat="37.6154567" lon="14.9020167"><ele>460.66666666666663</ele><time>2026-04-25T09:18:08.921Z</time></trkpt><trkpt lat="37.6156433" lon="14.901935"><ele>463.33333333333337</ele><time>2026-04-25T09:18:09.921Z</time></trkpt><trkpt lat="37.6158317" lon="14.90186"><ele>466.0</ele><time>2026-04-25T09:18:10.922Z</time></trkpt><trkpt lat="37.616015" lon="14.9018"><ele>465.6666666666667</ele><time>2026-04-25T09:18:11.922Z</time></trkpt><trkpt lat="37.6161967" lon="14.90174"><ele>465.33333333333337</ele><time>2026-04-25T09:18:12.922Z</time></trkpt><trkpt lat="37.616385" lon="14.90168"><ele>465.0</ele><time>2026-04-25T09:18:13.921Z</time></trkpt><trkpt lat="37.6165833" lon="14.90161"><ele>465.0</ele><time>2026-04-25T09:18:14.922Z</time></trkpt><trkpt lat="37.61677" lon="14.90155"><ele>465.0</ele><time>2026-04-25T09:18:15.921Z</time></trkpt><trkpt lat="37.6169533" lon="14.9014917"><ele>465.0</ele><time>2026-04-25T09:18:16.921Z</time></trkpt><trkpt lat="37.6171217" lon="14.9014333"><ele>466.66666666666663</ele><time>2026-04-25T09:18:17.922Z</time></trkpt><trkpt lat="37.6172717" lon="14.9013883"><ele>468.3333333333333</ele><time>2026-04-25T09:18:18.922Z</time></trkpt><trkpt lat="37.6174167" lon="14.9013333"><ele>470.0</ele><time>2026-04-25T09:18:19.922Z</time></trkpt><trkpt lat="37.61756" lon="14.9012883"><ele>470.0</ele><time>2026-04-25T09:18:20.921Z</time></trkpt><trkpt lat="37.6176917" lon="14.9012533"><ele>470.0</ele><time>2026-04-25T09:18:21.922Z</time></trkpt><trkpt lat="37.6178283" lon="14.9012067"><ele>470.0</ele><time>2026-04-25T09:18:22.922Z</time></trkpt><trkpt lat="37.617965" lon="14.9011667"><ele>470.0</ele><time>2026-04-25T09:18:23.921Z</time></trkpt><trkpt lat="37.6181017" lon="14.9011267"><ele>471.0</ele><time>2026-04-25T09:18:24.922Z</time></trkpt><trkpt lat="37.6182383" lon="14.9010883"><ele>472.0</ele><time>2026-04-25T09:18:25.921Z</time></trkpt><trkpt lat="37.6183733" lon="14.9010467"><ele>473.0</ele><time>2026-04-25T09:18:26.922Z</time></trkpt><trkpt lat="37.6185017" lon="14.9010033"><ele>474.0</ele><time>2026-04-25T09:18:27.922Z</time></trkpt><trkpt lat="37.6186333" lon="14.9009617"><ele>474.75</ele><time>2026-04-25T09:18:28.922Z</time></trkpt><trkpt lat="37.6187567" lon="14.9009183"><ele>475.5</ele><time>2026-04-25T09:18:29.921Z</time></trkpt><trkpt lat="37.61888" lon="14.9008867"><ele>476.25</ele><time>2026-04-25T09:18:30.922Z</time></trkpt><trkpt lat="37.6190083" lon="14.9008433"><ele>477.0</ele><time>2026-04-25T09:18:31.922Z</time></trkpt><trkpt lat="37.6191367" lon="14.9008033"><ele>477.0</ele><time>2026-04-25T09:18:32.922Z</time></trkpt><trkpt lat="37.6192633" lon="14.900765"><ele>477.0</ele><time>2026-04-25T09:18:33.922Z</time></trkpt><trkpt lat="37.6193883" lon="14.900725"><ele>477.0</ele><time>2026-04-25T09:18:34.922Z</time></trkpt><trkpt lat="37.619515" lon="14.9006767"><ele>477.0</ele><time>2026-04-25T09:18:35.922Z</time></trkpt><trkpt lat="37.61964" lon="14.9006333"><ele>477.75</ele><time>2026-04-25T09:18:36.922Z</time></trkpt><trkpt lat="37.6197633" lon="14.9005933"><ele>478.5</ele><time>2026-04-25T09:18:37.922Z</time></trkpt><trkpt lat="37.6198917" lon="14.90055"><ele>479.25</ele><time>2026-04-25T09:18:38.922Z</time></trkpt><trkpt lat="37.62002" lon="14.9005067"><ele>480.0</ele><time>2026-04-25T09:18:39.922Z</time></trkpt><trkpt lat="37.6201483" lon="14.90047"><ele>480.0</ele><time>2026-04-25T09:18:40.922Z</time></trkpt><trkpt lat="37.6202633" lon="14.9004317"><ele>480.0</ele><time>2026-04-25T09:18:41.922Z</time></trkpt><trkpt lat="37.620375" lon="14.90039"><ele>480.0</ele><time>2026-04-25T09:18:42.921Z</time></trkpt><trkpt lat="37.62048" lon="14.900355"><ele>480.0</ele><time>2026-04-25T09:18:43.922Z</time></trkpt><trkpt lat="37.6205933" lon="14.90032"><ele>481.5</ele><time>2026-04-25T09:18:44.922Z</time></trkpt><trkpt lat="37.6207117" lon="14.9002817"><ele>483.0</ele><time>2026-04-25T09:18:45.922Z</time></trkpt><trkpt lat="37.6208283" lon="14.9002483"><ele>484.5</ele><time>2026-04-25T09:18:46.921Z</time></trkpt><trkpt lat="37.620955" lon="14.90021"><ele>486.0</ele><time>2026-04-25T09:18:47.922Z</time></trkpt><trkpt lat="37.6210783" lon="14.900175"><ele>487.75</ele><time>2026-04-25T09:18:48.921Z</time></trkpt><trkpt lat="37.6212067" lon="14.9001367"><ele>489.5</ele><time>2026-04-25T09:18:49.921Z</time></trkpt><trkpt lat="37.62134" lon="14.9000867"><ele>491.25</ele><time>2026-04-25T09:18:50.921Z</time></trkpt><trkpt lat="37.6214667" lon="14.9000483"><ele>493.0</ele><time>2026-04-25T09:18:51.921Z</time></trkpt><trkpt lat="37.6216033" lon="14.900005"><ele>493.0</ele><time>2026-04-25T09:18:52.921Z</time></trkpt><trkpt lat="37.6217367" lon="14.8999517"><ele>493.0</ele><time>2026-04-25T09:18:53.921Z</time></trkpt><trkpt lat="37.6218683" lon="14.899895"><ele>493.0</ele><time>2026-04-25T09:18:54.922Z</time></trkpt><trkpt lat="37.6220067" lon="14.8998167"><ele>493.0</ele><time>2026-04-25T09:18:55.921Z</time></trkpt><trkpt lat="37.6221417" lon="14.8997233"><ele>494.5</ele><time>2026-04-25T09:18:56.922Z</time></trkpt><trkpt lat="37.622265" lon="14.89963"><ele>496.0</ele><time>2026-04-25T09:18:57.922Z</time></trkpt><trkpt lat="37.62238" lon="14.8995267"><ele>497.5</ele><time>2026-04-25T09:18:58.921Z</time></trkpt><trkpt lat="37.6224867" lon="14.8994167"><ele>499.0</ele><time>2026-04-25T09:18:59.921Z</time></trkpt><trkpt lat="37.6225833" lon="14.8993017"><ele>499.25</ele><time>2026-04-25T09:19:00.922Z</time></trkpt><trkpt lat="37.6226833" lon="14.8991833"><ele>499.5</ele><time>2026-04-25T09:19:01.922Z</time></trkpt><trkpt lat="37.6227733" lon="14.899055"><ele>499.75</ele><time>2026-04-25T09:19:02.922Z</time></trkpt><trkpt lat="37.622865" lon="14.89891"><ele>500.0</ele><time>2026-04-25T09:19:03.922Z</time></trkpt><trkpt lat="37.622955" lon="14.8987633"><ele>500.0</ele><time>2026-04-25T09:19:04.922Z</time></trkpt><trkpt lat="37.6230417" lon="14.8986167"><ele>500.0</ele><time>2026-04-25T09:19:05.921Z</time></trkpt><trkpt lat="37.623125" lon="14.8984667"><ele>500.0</ele><time>2026-04-25T09:19:06.921Z</time></trkpt><trkpt lat="37.6232067" lon="14.8983067"><ele>500.0</ele><time>2026-04-25T09:19:07.922Z</time></trkpt><trkpt lat="37.62329" lon="14.8981433"><ele>499.66666666666663</ele><time>2026-04-25T09:19:08.922Z</time></trkpt><trkpt lat="37.6233783" lon="14.8979833"><ele>499.33333333333337</ele><time>2026-04-25T09:19:09.922Z</time></trkpt><trkpt lat="37.6234617" lon="14.89782"><ele>499.0</ele><time>2026-04-25T09:19:10.921Z</time></trkpt><trkpt lat="37.6235467" lon="14.8976533"><ele>499.33333333333337</ele><time>2026-04-25T09:19:11.921Z</time></trkpt><trkpt lat="37.6236267" lon="14.8975017"><ele>499.66666666666663</ele><time>2026-04-25T09:19:12.922Z</time></trkpt><trkpt lat="37.6237117" lon="14.8973283"><ele>500.0</ele><time>2026-04-25T09:19:13.922Z</time></trkpt><trkpt lat="37.6238117" lon="14.897155"><ele>504.0</ele><time>2026-04-25T09:19:14.921Z</time></trkpt><trkpt lat="37.6239033" lon="14.8969933"><ele>508.0</ele><time>2026-04-25T09:19:15.922Z</time></trkpt><trkpt lat="37.623985" lon="14.89682"><ele>512.0</ele><time>2026-04-25T09:19:16.922Z</time></trkpt><trkpt lat="37.6240683" lon="14.89666"><ele>512.0</ele><time>2026-04-25T09:19:17.922Z</time></trkpt><trkpt lat="37.6241517" lon="14.8964933"><ele>512.0</ele><time>2026-04-25T09:19:18.921Z</time></trkpt><trkpt lat="37.6242533" lon="14.896335"><ele>512.0</ele><time>2026-04-25T09:19:19.922Z</time></trkpt><trkpt lat="37.6243683" lon="14.89618"><ele>513.3333333333333</ele><time>2026-04-25T09:19:20.922Z</time></trkpt><trkpt lat="37.6244933" lon="14.8960383"><ele>514.6666666666666</ele><time>2026-04-25T09:19:21.922Z</time></trkpt><trkpt lat="37.6246267" lon="14.895905"><ele>516.0</ele><time>2026-04-25T09:19:22.921Z</time></trkpt><trkpt lat="37.6247767" lon="14.8957817"><ele>516.0</ele><time>2026-04-25T09:19:23.921Z</time></trkpt><trkpt lat="37.6249317" lon="14.8956883"><ele>516.0</ele><time>2026-04-25T09:19:24.922Z</time></trkpt><trkpt lat="37.625085" lon="14.8956017"><ele>516.0</ele><time>2026-04-25T09:19:25.921Z</time></trkpt><trkpt lat="37.6252433" lon="14.8955383"><ele>516.6666666666666</ele><time>2026-04-25T09:19:26.922Z</time></trkpt><trkpt lat="37.6254133" lon="14.89549"><ele>517.3333333333333</ele><time>2026-04-25T09:19:27.922Z</time></trkpt><trkpt lat="37.625585" lon="14.895455"><ele>518.0</ele><time>2026-04-25T09:19:28.922Z</time></trkpt><trkpt lat="37.6257533" lon="14.8954583"><ele>518.0</ele><time>2026-04-25T09:19:29.922Z</time></trkpt><trkpt lat="37.62591" lon="14.8954867"><ele>518.0</ele><time>2026-04-25T09:19:30.922Z</time></trkpt><trkpt lat="37.6260817" lon="14.89551"><ele>518.0</ele><time>2026-04-25T09:19:31.922Z</time></trkpt><trkpt lat="37.6262517" lon="14.8955383"><ele>520.3333333333333</ele><time>2026-04-25T09:19:32.922Z</time></trkpt><trkpt lat="37.6264217" lon="14.8955683"><ele>522.6666666666666</ele><time>2026-04-25T09:19:33.922Z</time></trkpt><trkpt lat="37.626595" lon="14.8955933"><ele>525.0</ele><time>2026-04-25T09:19:34.922Z</time></trkpt><trkpt lat="37.6267683" lon="14.89561"><ele>525.0</ele><time>2026-04-25T09:19:35.922Z</time></trkpt><trkpt lat="37.626945" lon="14.8956367"><ele>525.0</ele><time>2026-04-25T09:19:36.922Z</time></trkpt><trkpt lat="37.627115" lon="14.8956667"><ele>525.0</ele><time>2026-04-25T09:19:37.921Z</time></trkpt><trkpt lat="37.6272883" lon="14.895705"><ele>525.6666666666666</ele><time>2026-04-25T09:19:38.922Z</time></trkpt><trkpt lat="37.6274567" lon="14.8957333"><ele>526.3333333333333</ele><time>2026-04-25T09:19:39.922Z</time></trkpt><trkpt lat="37.6276167" lon="14.8957683"><ele>527.0</ele><time>2026-04-25T09:19:40.922Z</time></trkpt><trkpt lat="37.6277783" lon="14.8957983"><ele>524.6666666666666</ele><time>2026-04-25T09:19:41.922Z</time></trkpt><trkpt lat="37.62794" lon="14.895825"><ele>522.3333333333334</ele><time>2026-04-25T09:19:42.922Z</time></trkpt><trkpt lat="37.6281033" lon="14.89585"><ele>520.0</ele><time>2026-04-25T09:19:43.922Z</time></trkpt><trkpt lat="37.6282683" lon="14.8958683"><ele>520.0</ele><time>2026-04-25T09:19:44.922Z</time></trkpt><trkpt lat="37.6284317" lon="14.895895"><ele>520.0</ele><time>2026-04-25T09:19:45.922Z</time></trkpt><trkpt lat="37.6285983" lon="14.8959233"><ele>520.0</ele><time>2026-04-25T09:19:46.921Z</time></trkpt><trkpt lat="37.6287633" lon="14.8959517"><ele>522.6666666666667</ele><time>2026-04-25T09:19:47.921Z</time></trkpt><trkpt lat="37.6289217" lon="14.8959833"><ele>525.3333333333334</ele><time>2026-04-25T09:19:48.921Z</time></trkpt><trkpt lat="37.62908" lon="14.8960083"><ele>528.0</ele><time>2026-04-25T09:19:49.921Z</time></trkpt><trkpt lat="37.62924" lon="14.8960317"><ele>528.0</ele><time>2026-04-25T09:19:50.921Z</time></trkpt><trkpt lat="37.629395" lon="14.8960567"><ele>528.0</ele><time>2026-04-25T09:19:51.921Z</time></trkpt><trkpt lat="37.6295483" lon="14.896065"><ele>528.0</ele><time>2026-04-25T09:19:52.922Z</time></trkpt><trkpt lat="37.6297067" lon="14.8960583"><ele>528.3333333333334</ele><time>2026-04-25T09:19:53.921Z</time></trkpt><trkpt lat="37.6298667" lon="14.8960433"><ele>528.6666666666667</ele><time>2026-04-25T09:19:54.921Z</time></trkpt><trkpt lat="37.6300217" lon="14.8960117"><ele>529.0</ele><time>2026-04-25T09:19:55.922Z</time></trkpt><trkpt lat="37.6301683" lon="14.8959583"><ele>529.3333333333334</ele><time>2026-04-25T09:19:56.921Z</time></trkpt><trkpt lat="37.6303167" lon="14.8959"><ele>529.6666666666666</ele><time>2026-04-25T09:19:57.921Z</time></trkpt><trkpt lat="37.6304617" lon="14.895825"><ele>530.0</ele><time>2026-04-25T09:19:58.921Z</time></trkpt><trkpt lat="37.6306033" lon="14.8957417"><ele>530.0</ele><time>2026-04-25T09:19:59.922Z</time></trkpt><trkpt lat="37.63074" lon="14.895645"><ele>530.0</ele><time>2026-04-25T09:20:00.921Z</time></trkpt><trkpt lat="37.630875" lon="14.8955517"><ele>530.0</ele><time>2026-04-25T09:20:01.921Z</time></trkpt><trkpt lat="37.6310017" lon="14.8954483"><ele>530.0</ele><time>2026-04-25T09:20:02.922Z</time></trkpt><trkpt lat="37.631135" lon="14.895335"><ele>530.0</ele><time>2026-04-25T09:20:03.922Z</time></trkpt><trkpt lat="37.63128" lon="14.8952133"><ele>530.0</ele><time>2026-04-25T09:20:04.921Z</time></trkpt><trkpt lat="37.6314183" lon="14.895095"><ele>529.0</ele><time>2026-04-25T09:20:05.921Z</time></trkpt><trkpt lat="37.6315417" lon="14.89498"><ele>528.0</ele><time>2026-04-25T09:20:06.922Z</time></trkpt><trkpt lat="37.6316683" lon="14.894875"><ele>527.0</ele><time>2026-04-25T09:20:07.922Z</time></trkpt><trkpt lat="37.6317967" lon="14.8947617"><ele>527.0</ele><time>2026-04-25T09:20:08.922Z</time></trkpt><trkpt lat="37.6319233" lon="14.8946617"><ele>527.0</ele><time>2026-04-25T09:20:09.922Z</time></trkpt><trkpt lat="37.6320433" lon="14.89456"><ele>527.0</ele><time>2026-04-25T09:20:10.922Z</time></trkpt><trkpt lat="37.6321717" lon="14.894455"><ele>527.0</ele><time>2026-04-25T09:20:11.922Z</time></trkpt><trkpt lat="37.632305" lon="14.8943367"><ele>527.3333333333333</ele><time>2026-04-25T09:20:12.922Z</time></trkpt><trkpt lat="37.6324333" lon="14.8942317"><ele>527.6666666666666</ele><time>2026-04-25T09:20:13.921Z</time></trkpt><trkpt lat="37.632575" lon="14.894115"><ele>528.0</ele><time>2026-04-25T09:20:14.922Z</time></trkpt><trkpt lat="37.6327183" lon="14.8939967"><ele>529.6666666666666</ele><time>2026-04-25T09:20:15.922Z</time></trkpt><trkpt lat="37.6328633" lon="14.8938817"><ele>531.3333333333333</ele><time>2026-04-25T09:20:16.922Z</time></trkpt><trkpt lat="37.6330067" lon="14.8937633"><ele>533.0</ele><time>2026-04-25T09:20:17.921Z</time></trkpt><trkpt lat="37.6331467" lon="14.8936583"><ele>533.0</ele><time>2026-04-25T09:20:18.922Z</time></trkpt><trkpt lat="37.6332767" lon="14.8935517"><ele>533.0</ele><time>2026-04-25T09:20:19.922Z</time></trkpt><trkpt lat="37.6334117" lon="14.8934383"><ele>533.0</ele><time>2026-04-25T09:20:20.921Z</time></trkpt><trkpt lat="37.6335433" lon="14.893335"><ele>534.3333333333333</ele><time>2026-04-25T09:20:21.921Z</time></trkpt><trkpt lat="37.633675" lon="14.89322"><ele>535.6666666666666</ele><time>2026-04-25T09:20:22.922Z</time></trkpt><trkpt lat="37.6338083" lon="14.893105"><ele>537.0</ele><time>2026-04-25T09:20:23.922Z</time></trkpt><trkpt lat="37.633945" lon="14.8929933"><ele>537.0</ele><time>2026-04-25T09:20:24.922Z</time></trkpt><trkpt lat="37.6340817" lon="14.89288"><ele>537.0</ele><time>2026-04-25T09:20:25.922Z</time></trkpt><trkpt lat="37.6342183" lon="14.89277"><ele>537.0</ele><time>2026-04-25T09:20:26.921Z</time></trkpt><trkpt lat="37.6343517" lon="14.892665"><ele>538.3333333333334</ele><time>2026-04-25T09:20:27.922Z</time></trkpt><trkpt lat="37.63448" lon="14.8925533"><ele>539.6666666666667</ele><time>2026-04-25T09:20:28.922Z</time></trkpt><trkpt lat="37.63461" lon="14.892445"><ele>541.0</ele><time>2026-04-25T09:20:29.921Z</time></trkpt><trkpt lat="37.6347433" lon="14.892335"><ele>541.0</ele><time>2026-04-25T09:20:30.922Z</time></trkpt><trkpt lat="37.6348817" lon="14.8922217"><ele>541.0</ele><time>2026-04-25T09:20:31.922Z</time></trkpt><trkpt lat="37.6350233" lon="14.8921117"><ele>541.0</ele><time>2026-04-25T09:20:32.921Z</time></trkpt><trkpt lat="37.635155" lon="14.8919983"><ele>541.0</ele><time>2026-04-25T09:20:33.922Z</time></trkpt><trkpt lat="37.63529" lon="14.8918883"><ele>541.0</ele><time>2026-04-25T09:20:34.921Z</time></trkpt><trkpt lat="37.6354217" lon="14.8917783"><ele>541.0</ele><time>2026-04-25T09:20:35.922Z</time></trkpt><trkpt lat="37.635545" lon="14.8916733"><ele>543.0</ele><time>2026-04-25T09:20:36.921Z</time></trkpt><trkpt lat="37.6356717" lon="14.8915667"><ele>545.0</ele><time>2026-04-25T09:20:37.922Z</time></trkpt><trkpt lat="37.6358117" lon="14.89145"><ele>547.0</ele><time>2026-04-25T09:20:38.922Z</time></trkpt><trkpt lat="37.6359483" lon="14.8913367"><ele>547.0</ele><time>2026-04-25T09:20:39.922Z</time></trkpt><trkpt lat="37.6360867" lon="14.89122"><ele>547.0</ele><time>2026-04-25T09:20:40.922Z</time></trkpt><trkpt lat="37.6362217" lon="14.8911067"><ele>547.0</ele><time>2026-04-25T09:20:41.921Z</time></trkpt><trkpt lat="37.63636" lon="14.890995"><ele>546.3333333333334</ele><time>2026-04-25T09:20:42.922Z</time></trkpt><trkpt lat="37.6364967" lon="14.8908783"><ele>545.6666666666666</ele><time>2026-04-25T09:20:43.922Z</time></trkpt><trkpt lat="37.63664" lon="14.89075"><ele>545.0</ele><time>2026-04-25T09:20:44.921Z</time></trkpt><trkpt lat="37.6367883" lon="14.8906267"><ele>545.0</ele><time>2026-04-25T09:20:45.921Z</time></trkpt><trkpt lat="37.6369333" lon="14.8905017"><ele>545.0</ele><time>2026-04-25T09:20:46.922Z</time></trkpt><trkpt lat="37.6370817" lon="14.8903867"><ele>545.0</ele><time>2026-04-25T09:20:47.922Z</time></trkpt><trkpt lat="37.637225" lon="14.890265"><ele>545.6666666666666</ele><time>2026-04-25T09:20:48.922Z</time></trkpt><trkpt lat="37.6373633" lon="14.89015"><ele>546.3333333333334</ele><time>2026-04-25T09:20:49.922Z</time></trkpt><trkpt lat="37.6375067" lon="14.8900367"><ele>547.0</ele><time>2026-04-25T09:20:50.922Z</time></trkpt><trkpt lat="37.63764" lon="14.8899283"><ele>547.0</ele><time>2026-04-25T09:20:51.921Z</time></trkpt><trkpt lat="37.63777" lon="14.8898117"><ele>547.0</ele><time>2026-04-25T09:20:52.921Z</time></trkpt><trkpt lat="37.6379083" lon="14.8896967"><ele>547.0</ele><time>2026-04-25T09:20:53.921Z</time></trkpt><trkpt lat="37.6380367" lon="14.889585"><ele>547.3333333333334</ele><time>2026-04-25T09:20:54.922Z</time></trkpt><trkpt lat="37.6381667" lon="14.8894717"><ele>547.6666666666666</ele><time>2026-04-25T09:20:55.922Z</time></trkpt><trkpt lat="37.6383017" lon="14.8893683"><ele>548.0</ele><time>2026-04-25T09:20:56.921Z</time></trkpt><trkpt lat="37.638435" lon="14.8892583"><ele>548.0</ele><time>2026-04-25T09:20:57.922Z</time></trkpt><trkpt lat="37.638565" lon="14.8891517"><ele>548.0</ele><time>2026-04-25T09:20:58.922Z</time></trkpt><trkpt lat="37.6386917" lon="14.8890467"><ele>548.0</ele><time>2026-04-25T09:20:59.922Z</time></trkpt><trkpt lat="37.6388233" lon="14.8889383"><ele>549.6666666666666</ele><time>2026-04-25T09:21:00.921Z</time></trkpt><trkpt lat="37.6389483" lon="14.8888283"><ele>551.3333333333334</ele><time>2026-04-25T09:21:01.922Z</time></trkpt><trkpt lat="37.63908" lon="14.888725"><ele>553.0</ele><time>2026-04-25T09:21:02.922Z</time></trkpt><trkpt lat="37.6392083" lon="14.888615"><ele>553.0</ele><time>2026-04-25T09:21:03.922Z</time></trkpt><trkpt lat="37.6393317" lon="14.8885033"><ele>553.0</ele><time>2026-04-25T09:21:04.921Z</time></trkpt><trkpt lat="37.639465" lon="14.88839"><ele>553.0</ele><time>2026-04-25T09:21:05.922Z</time></trkpt><trkpt lat="37.639595" lon="14.8882867"><ele>553.6666666666667</ele><time>2026-04-25T09:21:06.922Z</time></trkpt><trkpt lat="37.6397383" lon="14.88817"><ele>554.3333333333334</ele><time>2026-04-25T09:21:07.921Z</time></trkpt><trkpt lat="37.6398683" lon="14.8880617"><ele>555.0</ele><time>2026-04-25T09:21:08.922Z</time></trkpt><trkpt lat="37.640005" lon="14.8879533"><ele>555.0</ele><time>2026-04-25T09:21:09.922Z</time></trkpt><trkpt lat="37.6401383" lon="14.887845"><ele>555.0</ele><time>2026-04-25T09:21:10.922Z</time></trkpt><trkpt lat="37.64027" lon="14.8877417"><ele>555.0</ele><time>2026-04-25T09:21:11.922Z</time></trkpt><trkpt lat="37.6404183" lon="14.887625"><ele>556.3333333333334</ele><time>2026-04-25T09:21:12.921Z</time></trkpt><trkpt lat="37.64056" lon="14.8875183"><ele>557.6666666666667</ele><time>2026-04-25T09:21:13.922Z</time></trkpt><trkpt lat="37.64069" lon="14.88742"><ele>559.0</ele><time>2026-04-25T09:21:14.921Z</time></trkpt><trkpt lat="37.6408067" lon="14.887325"><ele>559.0</ele><time>2026-04-25T09:21:15.922Z</time></trkpt><trkpt lat="37.64092" lon="14.8872417"><ele>559.0</ele><time>2026-04-25T09:21:16.922Z</time></trkpt><trkpt lat="37.6410333" lon="14.8871517"><ele>559.0</ele><time>2026-04-25T09:21:17.922Z</time></trkpt><trkpt lat="37.6411383" lon="14.887065"><ele>559.0</ele><time>2026-04-25T09:21:18.921Z</time></trkpt><trkpt lat="37.6412383" lon="14.8869733"><ele>560.5</ele><time>2026-04-25T09:21:19.922Z</time></trkpt><trkpt lat="37.6413367" lon="14.8868883"><ele>562.0</ele><time>2026-04-25T09:21:20.921Z</time></trkpt><trkpt lat="37.64143" lon="14.88681"><ele>563.5</ele><time>2026-04-25T09:21:21.921Z</time></trkpt><trkpt lat="37.6415283" lon="14.8867267"><ele>565.0</ele><time>2026-04-25T09:21:22.921Z</time></trkpt><trkpt lat="37.6416233" lon="14.8866483"><ele>565.0</ele><time>2026-04-25T09:21:23.921Z</time></trkpt><trkpt lat="37.6417167" lon="14.88657"><ele>565.0</ele><time>2026-04-25T09:21:24.921Z</time></trkpt><trkpt lat="37.6418117" lon="14.8864817"><ele>565.0</ele><time>2026-04-25T09:21:25.921Z</time></trkpt><trkpt lat="37.6419083" lon="14.8864"><ele>565.0</ele><time>2026-04-25T09:21:26.921Z</time></trkpt><trkpt lat="37.642005" lon="14.8863233"><ele>566.25</ele><time>2026-04-25T09:21:27.921Z</time></trkpt><trkpt lat="37.6420967" lon="14.88624"><ele>567.5</ele><time>2026-04-25T09:21:28.922Z</time></trkpt><trkpt lat="37.6421967" lon="14.8861483"><ele>568.75</ele><time>2026-04-25T09:21:29.922Z</time></trkpt><trkpt lat="37.6423" lon="14.8860533"><ele>570.0</ele><time>2026-04-25T09:21:30.922Z</time></trkpt><trkpt lat="37.6424" lon="14.88597"><ele>569.5</ele><time>2026-04-25T09:21:31.922Z</time></trkpt><trkpt lat="37.6425033" lon="14.8858917"><ele>569.0</ele><time>2026-04-25T09:21:32.922Z</time></trkpt><trkpt lat="37.6426083" lon="14.8858083"><ele>568.5</ele><time>2026-04-25T09:21:33.922Z</time></trkpt><trkpt lat="37.6427067" lon="14.88573"><ele>568.0</ele><time>2026-04-25T09:21:34.921Z</time></trkpt><trkpt lat="37.6428017" lon="14.8856533"><ele>569.0</ele><time>2026-04-25T09:21:35.921Z</time></trkpt><trkpt lat="37.6428983" lon="14.8855733"><ele>570.0</ele><time>2026-04-25T09:21:36.921Z</time></trkpt><trkpt lat="37.6429917" lon="14.8854833"><ele>571.0</ele><time>2026-04-25T09:21:37.922Z</time></trkpt><trkpt lat="37.643085" lon="14.8853967"><ele>572.0</ele><time>2026-04-25T09:21:38.921Z</time></trkpt><trkpt lat="37.6431833" lon="14.8853067"><ele>572.0</ele><time>2026-04-25T09:21:39.922Z</time></trkpt><trkpt lat="37.6432867" lon="14.885215"><ele>572.0</ele><time>2026-04-25T09:21:40.921Z</time></trkpt><trkpt lat="37.6434033" lon="14.8851183"><ele>572.0</ele><time>2026-04-25T09:21:41.921Z</time></trkpt><trkpt lat="37.6435167" lon="14.88502"><ele>572.0</ele><time>2026-04-25T09:21:42.921Z</time></trkpt><trkpt lat="37.643635" lon="14.8849233"><ele>572.5</ele><time>2026-04-25T09:21:43.922Z</time></trkpt><trkpt lat="37.6437533" lon="14.8848217"><ele>573.0</ele><time>2026-04-25T09:21:44.921Z</time></trkpt><trkpt lat="37.6438733" lon="14.8847183"><ele>573.5</ele><time>2026-04-25T09:21:45.921Z</time></trkpt><trkpt lat="37.643995" lon="14.8846133"><ele>574.0</ele><time>2026-04-25T09:21:46.922Z</time></trkpt><trkpt lat="37.64412" lon="14.8845117"><ele>574.0</ele><time>2026-04-25T09:21:47.922Z</time></trkpt><trkpt lat="37.6442383" lon="14.8844083"><ele>574.0</ele><time>2026-04-25T09:21:48.921Z</time></trkpt><trkpt lat="37.644365" lon="14.8843"><ele>574.0</ele><time>2026-04-25T09:21:49.922Z</time></trkpt><trkpt lat="37.6445" lon="14.884185"><ele>577.0</ele><time>2026-04-25T09:21:50.921Z</time></trkpt><trkpt lat="37.6446333" lon="14.8840717"><ele>580.0</ele><time>2026-04-25T09:21:51.921Z</time></trkpt><trkpt lat="37.6447633" lon="14.8839533"><ele>583.0</ele><time>2026-04-25T09:21:52.922Z</time></trkpt><trkpt lat="37.644895" lon="14.88384"><ele>583.0</ele><time>2026-04-25T09:21:53.921Z</time></trkpt><trkpt lat="37.6450317" lon="14.8837267"><ele>583.0</ele><time>2026-04-25T09:21:54.922Z</time></trkpt><trkpt lat="37.6451733" lon="14.883605"><ele>583.0</ele><time>2026-04-25T09:21:55.921Z</time></trkpt><trkpt lat="37.6453033" lon="14.8834917"><ele>585.6666666666667</ele><time>2026-04-25T09:21:56.922Z</time></trkpt><trkpt lat="37.6454383" lon="14.8833767"><ele>588.3333333333334</ele><time>2026-04-25T09:21:57.922Z</time></trkpt><trkpt lat="37.6455833" lon="14.8832633"><ele>591.0</ele><time>2026-04-25T09:21:58.922Z</time></trkpt><trkpt lat="37.6457383" lon="14.8831483"><ele>591.0</ele><time>2026-04-25T09:21:59.921Z</time></trkpt><trkpt lat="37.6458817" lon="14.883015"><ele>591.0</ele><time>2026-04-25T09:22:00.922Z</time></trkpt><trkpt lat="37.64603" lon="14.88288"><ele>591.0</ele><time>2026-04-25T09:22:01.922Z</time></trkpt><trkpt lat="37.6461817" lon="14.882755"><ele>592.6666666666666</ele><time>2026-04-25T09:22:02.921Z</time></trkpt><trkpt lat="37.6463283" lon="14.882625"><ele>594.3333333333333</ele><time>2026-04-25T09:22:03.922Z</time></trkpt><trkpt lat="37.6464767" lon="14.8824983"><ele>596.0</ele><time>2026-04-25T09:22:04.921Z</time></trkpt><trkpt lat="37.6466217" lon="14.88236"><ele>596.0</ele><time>2026-04-25T09:22:05.922Z</time></trkpt><trkpt lat="37.646775" lon="14.8822317"><ele>596.0</ele><time>2026-04-25T09:22:06.921Z</time></trkpt><trkpt lat="37.64692" lon="14.8821067"><ele>596.0</ele><time>2026-04-25T09:22:07.922Z</time></trkpt><trkpt lat="37.6470583" lon="14.8819717"><ele>598.0</ele><time>2026-04-25T09:22:08.921Z</time></trkpt><trkpt lat="37.6472033" lon="14.881845"><ele>600.0</ele><time>2026-04-25T09:22:09.921Z</time></trkpt><trkpt lat="37.647355" lon="14.8817217"><ele>602.0</ele><time>2026-04-25T09:22:10.922Z</time></trkpt><trkpt lat="37.6475167" lon="14.8815867"><ele>602.0</ele><time>2026-04-25T09:22:11.921Z</time></trkpt><trkpt lat="37.6476767" lon="14.8814567"><ele>602.0</ele><time>2026-04-25T09:22:12.922Z</time></trkpt><trkpt lat="37.6478267" lon="14.88133"><ele>602.0</ele><time>2026-04-25T09:22:13.921Z</time></trkpt><trkpt lat="37.64798" lon="14.8811967"><ele>603.3333333333333</ele><time>2026-04-25T09:22:14.921Z</time></trkpt><trkpt lat="37.6481317" lon="14.8810667"><ele>604.6666666666666</ele><time>2026-04-25T09:22:15.921Z</time></trkpt><trkpt lat="37.6482817" lon="14.8809333"><ele>606.0</ele><time>2026-04-25T09:22:16.922Z</time></trkpt><trkpt lat="37.6484367" lon="14.8808067"><ele>605.0</ele><time>2026-04-25T09:22:17.921Z</time></trkpt><trkpt lat="37.6485933" lon="14.8806783"><ele>604.0</ele><time>2026-04-25T09:22:18.921Z</time></trkpt><trkpt lat="37.648745" lon="14.8805533"><ele>603.0</ele><time>2026-04-25T09:22:19.922Z</time></trkpt><trkpt lat="37.648905" lon="14.8804267"><ele>603.0</ele><time>2026-04-25T09:22:20.922Z</time></trkpt><trkpt lat="37.6490583" lon="14.8802933"><ele>603.0</ele><time>2026-04-25T09:22:21.921Z</time></trkpt><trkpt lat="37.6492117" lon="14.8801617"><ele>603.0</ele><time>2026-04-25T09:22:22.921Z</time></trkpt><trkpt lat="37.649365" lon="14.88003"><ele>606.3333333333334</ele><time>2026-04-25T09:22:23.92Z</time></trkpt><trkpt lat="37.6495183" lon="14.8798983"><ele>609.6666666666667</ele><time>2026-04-25T09:22:24.921Z</time></trkpt><trkpt lat="37.6496767" lon="14.8797633"><ele>613.0</ele><time>2026-04-25T09:22:25.92Z</time></trkpt><trkpt lat="37.6498317" lon="14.8796283"><ele>613.0</ele><time>2026-04-25T09:22:26.92Z</time></trkpt><trkpt lat="37.649985" lon="14.87949"><ele>613.0</ele><time>2026-04-25T09:22:27.92Z</time></trkpt><trkpt lat="37.6501483" lon="14.8793567"><ele>613.0</ele><time>2026-04-25T09:22:28.92Z</time></trkpt><trkpt lat="37.6503033" lon="14.87922"><ele>612.3333333333334</ele><time>2026-04-25T09:22:29.921Z</time></trkpt><trkpt lat="37.6504633" lon="14.8790767"><ele>611.6666666666666</ele><time>2026-04-25T09:22:30.921Z</time></trkpt><trkpt lat="37.6506217" lon="14.8789383"><ele>611.0</ele><time>2026-04-25T09:22:31.92Z</time></trkpt><trkpt lat="37.65078" lon="14.8788033"><ele>611.0</ele><time>2026-04-25T09:22:32.92Z</time></trkpt><trkpt lat="37.6509317" lon="14.8786767"><ele>611.0</ele><time>2026-04-25T09:22:33.92Z</time></trkpt><trkpt lat="37.6510883" lon="14.87855"><ele>611.0</ele><time>2026-04-25T09:22:34.921Z</time></trkpt><trkpt lat="37.6512433" lon="14.8784233"><ele>612.6666666666666</ele><time>2026-04-25T09:22:35.92Z</time></trkpt><trkpt lat="37.6513983" lon="14.8783"><ele>614.3333333333334</ele><time>2026-04-25T09:22:36.921Z</time></trkpt><trkpt lat="37.65154" lon="14.878175"><ele>616.0</ele><time>2026-04-25T09:22:37.921Z</time></trkpt><trkpt lat="37.6516783" lon="14.8780567"><ele>616.0</ele><time>2026-04-25T09:22:38.921Z</time></trkpt><trkpt lat="37.65182" lon="14.8779417"><ele>616.0</ele><time>2026-04-25T09:22:39.92Z</time></trkpt><trkpt lat="37.6519517" lon="14.877815"><ele>616.0</ele><time>2026-04-25T09:22:40.92Z</time></trkpt><trkpt lat="37.6520717" lon="14.877675"><ele>616.3333333333334</ele><time>2026-04-25T09:22:41.921Z</time></trkpt><trkpt lat="37.6521983" lon="14.87753"><ele>616.6666666666666</ele><time>2026-04-25T09:22:42.92Z</time></trkpt><trkpt lat="37.6523233" lon="14.87737"><ele>617.0</ele><time>2026-04-25T09:22:43.921Z</time></trkpt><trkpt lat="37.6524483" lon="14.87721"><ele>617.0</ele><time>2026-04-25T09:22:44.921Z</time></trkpt><trkpt lat="37.6525683" lon="14.8770433"><ele>617.0</ele><time>2026-04-25T09:22:45.92Z</time></trkpt><trkpt lat="37.6526867" lon="14.87685"><ele>617.0</ele><time>2026-04-25T09:22:46.92Z</time></trkpt><trkpt lat="37.6527933" lon="14.876655"><ele>618.0</ele><time>2026-04-25T09:22:47.92Z</time></trkpt><trkpt lat="37.6528967" lon="14.8764583"><ele>619.0</ele><time>2026-04-25T09:22:48.921Z</time></trkpt><trkpt lat="37.652995" lon="14.876255"><ele>620.0</ele><time>2026-04-25T09:22:49.921Z</time></trkpt><trkpt lat="37.6530933" lon="14.876055"><ele>619.6666666666666</ele><time>2026-04-25T09:22:50.921Z</time></trkpt><trkpt lat="37.6531983" lon="14.87584"><ele>619.3333333333334</ele><time>2026-04-25T09:22:51.921Z</time></trkpt><trkpt lat="37.6533033" lon="14.8756283"><ele>619.0</ele><time>2026-04-25T09:22:52.921Z</time></trkpt><trkpt lat="37.65341" lon="14.8754067"><ele>619.0</ele><time>2026-04-25T09:22:53.92Z</time></trkpt><trkpt lat="37.6535133" lon="14.8751833"><ele>619.0</ele><time>2026-04-25T09:22:54.921Z</time></trkpt><trkpt lat="37.6536233" lon="14.87496"><ele>619.0</ele><time>2026-04-25T09:22:55.92Z</time></trkpt><trkpt lat="37.6537383" lon="14.8747333"><ele>619.0</ele><time>2026-04-25T09:22:56.921Z</time></trkpt><trkpt lat="37.6538483" lon="14.874515"><ele>619.0</ele><time>2026-04-25T09:22:57.921Z</time></trkpt><trkpt lat="37.6539633" lon="14.8742967"><ele>619.0</ele><time>2026-04-25T09:22:58.92Z</time></trkpt><trkpt lat="37.6540767" lon="14.8740717"><ele>617.3333333333334</ele><time>2026-04-25T09:22:59.92Z</time></trkpt><trkpt lat="37.6541867" lon="14.8738467"><ele>615.6666666666666</ele><time>2026-04-25T09:23:00.921Z</time></trkpt><trkpt lat="37.6542933" lon="14.8736283"><ele>614.0</ele><time>2026-04-25T09:23:01.92Z</time></trkpt><trkpt lat="37.65441" lon="14.873405"><ele>615.3333333333333</ele><time>2026-04-25T09:23:02.921Z</time></trkpt><trkpt lat="37.6545183" lon="14.8731867"><ele>616.6666666666666</ele><time>2026-04-25T09:23:03.921Z</time></trkpt><trkpt lat="37.6546283" lon="14.8729717"><ele>618.0</ele><time>2026-04-25T09:23:04.921Z</time></trkpt><trkpt lat="37.6547417" lon="14.872745"><ele>617.3333333333334</ele><time>2026-04-25T09:23:05.92Z</time></trkpt><trkpt lat="37.6548467" lon="14.8725183"><ele>616.6666666666667</ele><time>2026-04-25T09:23:06.921Z</time></trkpt><trkpt lat="37.6549583" lon="14.8722983"><ele>616.0</ele><time>2026-04-25T09:23:07.921Z</time></trkpt><trkpt lat="37.6550717" lon="14.8720667"><ele>616.0</ele><time>2026-04-25T09:23:08.921Z</time></trkpt><trkpt lat="37.65519" lon="14.8718317"><ele>616.0</ele><time>2026-04-25T09:23:09.92Z</time></trkpt><trkpt lat="37.65531" lon="14.8716033"><ele>616.0</ele><time>2026-04-25T09:23:10.921Z</time></trkpt><trkpt lat="37.6554233" lon="14.8713783"><ele>615.6666666666667</ele><time>2026-04-25T09:23:11.921Z</time></trkpt><trkpt lat="37.6555283" lon="14.8711417"><ele>615.3333333333334</ele><time>2026-04-25T09:23:12.92Z</time></trkpt><trkpt lat="37.6556383" lon="14.870915"><ele>615.0</ele><time>2026-04-25T09:23:13.921Z</time></trkpt><trkpt lat="37.6557583" lon="14.87068"><ele>615.0</ele><time>2026-04-25T09:23:14.92Z</time></trkpt><trkpt lat="37.6558633" lon="14.87046"><ele>615.0</ele><time>2026-04-25T09:23:15.921Z</time></trkpt><trkpt lat="37.6559717" lon="14.8702333"><ele>615.0</ele><time>2026-04-25T09:23:16.92Z</time></trkpt><trkpt lat="37.6560817" lon="14.8700117"><ele>618.3333333333334</ele><time>2026-04-25T09:23:17.92Z</time></trkpt><trkpt lat="37.6561917" lon="14.8697917"><ele>621.6666666666667</ele><time>2026-04-25T09:23:18.92Z</time></trkpt><trkpt lat="37.6563033" lon="14.8695767"><ele>625.0</ele><time>2026-04-25T09:23:19.92Z</time></trkpt><trkpt lat="37.6564217" lon="14.8693817"><ele>622.0</ele><time>2026-04-25T09:23:20.92Z</time></trkpt><trkpt lat="37.656545" lon="14.86919"><ele>619.0</ele><time>2026-04-25T09:23:21.92Z</time></trkpt><trkpt lat="37.6566767" lon="14.86902"><ele>616.0</ele><time>2026-04-25T09:23:22.921Z</time></trkpt><trkpt lat="37.6568183" lon="14.86886"><ele>620.0</ele><time>2026-04-25T09:23:23.92Z</time></trkpt><trkpt lat="37.65697" lon="14.8687167"><ele>624.0</ele><time>2026-04-25T09:23:24.92Z</time></trkpt><trkpt lat="37.6571217" lon="14.8685867"><ele>628.0</ele><time>2026-04-25T09:23:25.921Z</time></trkpt><trkpt lat="37.6572717" lon="14.8684633"><ele>625.3333333333334</ele><time>2026-04-25T09:23:26.921Z</time></trkpt><trkpt lat="37.6574283" lon="14.86836"><ele>622.6666666666666</ele><time>2026-04-25T09:23:27.921Z</time></trkpt><trkpt lat="37.6575967" lon="14.8682583"><ele>620.0</ele><time>2026-04-25T09:23:28.921Z</time></trkpt><trkpt lat="37.6577633" lon="14.8681667"><ele>623.3333333333333</ele><time>2026-04-25T09:23:29.92Z</time></trkpt><trkpt lat="37.6579283" lon="14.8680867"><ele>626.6666666666666</ele><time>2026-04-25T09:23:30.92Z</time></trkpt><trkpt lat="37.6580867" lon="14.8680167"><ele>630.0</ele><time>2026-04-25T09:23:31.92Z</time></trkpt><trkpt lat="37.6582467" lon="14.86795"><ele>630.0</ele><time>2026-04-25T09:23:32.921Z</time></trkpt><trkpt lat="37.6584033" lon="14.867885"><ele>630.0</ele><time>2026-04-25T09:23:33.92Z</time></trkpt><trkpt lat="37.6585617" lon="14.8678217"><ele>630.0</ele><time>2026-04-25T09:23:34.92Z</time></trkpt><trkpt lat="37.658725" lon="14.8677517"><ele>629.6666666666666</ele><time>2026-04-25T09:23:35.92Z</time></trkpt><trkpt lat="37.65889" lon="14.8676833"><ele>629.3333333333333</ele><time>2026-04-25T09:23:36.92Z</time></trkpt><trkpt lat="37.6590533" lon="14.86761"><ele>629.0</ele><time>2026-04-25T09:23:37.921Z</time></trkpt><trkpt lat="37.6592083" lon="14.86754"><ele>629.0</ele><time>2026-04-25T09:23:38.921Z</time></trkpt><trkpt lat="37.6593833" lon="14.8674567"><ele>629.0</ele><time>2026-04-25T09:23:39.921Z</time></trkpt><trkpt lat="37.6595667" lon="14.8673717"><ele>629.0</ele><time>2026-04-25T09:23:40.92Z</time></trkpt><trkpt lat="37.6597667" lon="14.8672917"><ele>628.6666666666666</ele><time>2026-04-25T09:23:41.921Z</time></trkpt><trkpt lat="37.6599767" lon="14.8672117"><ele>628.3333333333334</ele><time>2026-04-25T09:23:42.921Z</time></trkpt><trkpt lat="37.660195" lon="14.867135"><ele>628.0</ele><time>2026-04-25T09:23:43.92Z</time></trkpt><trkpt lat="37.6604" lon="14.8670583"><ele>629.6666666666667</ele><time>2026-04-25T09:23:44.921Z</time></trkpt><trkpt lat="37.6606083" lon="14.8669767"><ele>631.3333333333334</ele><time>2026-04-25T09:23:45.92Z</time></trkpt><trkpt lat="37.6608117" lon="14.8668917"><ele>633.0</ele><time>2026-04-25T09:23:46.921Z</time></trkpt><trkpt lat="37.6610133" lon="14.8668083"><ele>632.0</ele><time>2026-04-25T09:23:47.921Z</time></trkpt><trkpt lat="37.661205" lon="14.866725"><ele>631.0</ele><time>2026-04-25T09:23:48.92Z</time></trkpt><trkpt lat="37.6614033" lon="14.8666283"><ele>630.0</ele><time>2026-04-25T09:23:49.92Z</time></trkpt><trkpt lat="37.661595" lon="14.8665117"><ele>630.0</ele><time>2026-04-25T09:23:50.92Z</time></trkpt><trkpt lat="37.6617783" lon="14.8663867"><ele>630.0</ele><time>2026-04-25T09:23:51.921Z</time></trkpt><trkpt lat="37.66195" lon="14.8662367"><ele>630.0</ele><time>2026-04-25T09:23:52.92Z</time></trkpt><trkpt lat="37.6621133" lon="14.8660683"><ele>629.0</ele><time>2026-04-25T09:23:53.92Z</time></trkpt><trkpt lat="37.66226" lon="14.8658783"><ele>628.0</ele><time>2026-04-25T09:23:54.921Z</time></trkpt><trkpt lat="37.6623817" lon="14.8656717"><ele>627.0</ele><time>2026-04-25T09:23:55.921Z</time></trkpt><trkpt lat="37.6624983" lon="14.8654483"><ele>627.0</ele><time>2026-04-25T09:23:56.921Z</time></trkpt><trkpt lat="37.662605" lon="14.8652317"><ele>627.0</ele><time>2026-04-25T09:23:57.921Z</time></trkpt><trkpt lat="37.6627167" lon="14.8649983"><ele>627.0</ele><time>2026-04-25T09:23:58.921Z</time></trkpt><trkpt lat="37.66282" lon="14.8647733"><ele>627.6666666666666</ele><time>2026-04-25T09:23:59.92Z</time></trkpt><trkpt lat="37.66292" lon="14.864545"><ele>628.3333333333333</ele><time>2026-04-25T09:24:00.921Z</time></trkpt><trkpt lat="37.6630217" lon="14.8643167"><ele>629.0</ele><time>2026-04-25T09:24:01.92Z</time></trkpt><trkpt lat="37.6631183" lon="14.864085"><ele>629.0</ele><time>2026-04-25T09:24:02.921Z</time></trkpt><trkpt lat="37.6632233" lon="14.8638583"><ele>629.0</ele><time>2026-04-25T09:24:03.921Z</time></trkpt><trkpt lat="37.663325" lon="14.8636333"><ele>629.0</ele><time>2026-04-25T09:24:04.921Z</time></trkpt><trkpt lat="37.6634333" lon="14.8634067"><ele>628.3333333333333</ele><time>2026-04-25T09:24:05.921Z</time></trkpt><trkpt lat="37.6635367" lon="14.8631817"><ele>627.6666666666666</ele><time>2026-04-25T09:24:06.92Z</time></trkpt><trkpt lat="37.6636367" lon="14.8629517"><ele>627.0</ele><time>2026-04-25T09:24:07.921Z</time></trkpt><trkpt lat="37.66373" lon="14.8627217"><ele>628.6666666666666</ele><time>2026-04-25T09:24:08.921Z</time></trkpt><trkpt lat="37.66383" lon="14.8624867"><ele>630.3333333333333</ele><time>2026-04-25T09:24:09.92Z</time></trkpt><trkpt lat="37.6639317" lon="14.8622567"><ele>632.0</ele><time>2026-04-25T09:24:10.92Z</time></trkpt><trkpt lat="37.664035" lon="14.8620267"><ele>632.0</ele><time>2026-04-25T09:24:11.921Z</time></trkpt><trkpt lat="37.6641317" lon="14.8617983"><ele>632.0</ele><time>2026-04-25T09:24:12.921Z</time></trkpt><trkpt lat="37.66423" lon="14.8615717"><ele>632.0</ele><time>2026-04-25T09:24:13.92Z</time></trkpt><trkpt lat="37.6643283" lon="14.861345"><ele>633.0</ele><time>2026-04-25T09:24:14.92Z</time></trkpt><trkpt lat="37.6644383" lon="14.86112"><ele>634.0</ele><time>2026-04-25T09:24:15.921Z</time></trkpt><trkpt lat="37.6645533" lon="14.8608883"><ele>635.0</ele><time>2026-04-25T09:24:16.92Z</time></trkpt><trkpt lat="37.6646633" lon="14.8606583"><ele>635.0</ele><time>2026-04-25T09:24:17.921Z</time></trkpt><trkpt lat="37.664775" lon="14.86042"><ele>635.0</ele><time>2026-04-25T09:24:18.92Z</time></trkpt><trkpt lat="37.664885" lon="14.8601767"><ele>635.0</ele><time>2026-04-25T09:24:19.921Z</time></trkpt><trkpt lat="37.664995" lon="14.8599433"><ele>635.0</ele><time>2026-04-25T09:24:20.921Z</time></trkpt><trkpt lat="37.6651017" lon="14.85971"><ele>635.0</ele><time>2026-04-25T09:24:21.921Z</time></trkpt><trkpt lat="37.665215" lon="14.8594733"><ele>635.0</ele><time>2026-04-25T09:24:22.92Z</time></trkpt><trkpt lat="37.6653217" lon="14.859245"><ele>636.6666666666666</ele><time>2026-04-25T09:24:23.921Z</time></trkpt><trkpt lat="37.66542" lon="14.8590167"><ele>638.3333333333334</ele><time>2026-04-25T09:24:24.92Z</time></trkpt><trkpt lat="37.6655233" lon="14.858775"><ele>640.0</ele><time>2026-04-25T09:24:25.92Z</time></trkpt><trkpt lat="37.6656367" lon="14.858555"><ele>638.3333333333334</ele><time>2026-04-25T09:24:26.92Z</time></trkpt><trkpt lat="37.6657317" lon="14.8583367"><ele>636.6666666666666</ele><time>2026-04-25T09:24:27.921Z</time></trkpt><trkpt lat="37.6658383" lon="14.8581117"><ele>635.0</ele><time>2026-04-25T09:24:28.92Z</time></trkpt><trkpt lat="37.66593" lon="14.8578933"><ele>635.0</ele><time>2026-04-25T09:24:29.92Z</time></trkpt><trkpt lat="37.6660317" lon="14.857665"><ele>635.0</ele><time>2026-04-25T09:24:30.921Z</time></trkpt><trkpt lat="37.6661283" lon="14.857455"><ele>635.0</ele><time>2026-04-25T09:24:31.921Z</time></trkpt><trkpt lat="37.666225" lon="14.8572533"><ele>636.3333333333333</ele><time>2026-04-25T09:24:32.921Z</time></trkpt><trkpt lat="37.6663133" lon="14.8570567"><ele>637.6666666666666</ele><time>2026-04-25T09:24:33.92Z</time></trkpt><trkpt lat="37.6664" lon="14.8568633"><ele>639.0</ele><time>2026-04-25T09:24:34.92Z</time></trkpt><trkpt lat="37.6664867" lon="14.8566817"><ele>639.0</ele><time>2026-04-25T09:24:35.921Z</time></trkpt><trkpt lat="37.6665717" lon="14.8565133"><ele>639.0</ele><time>2026-04-25T09:24:36.921Z</time></trkpt><trkpt lat="37.666655" lon="14.8563483"><ele>639.0</ele><time>2026-04-25T09:24:37.921Z</time></trkpt><trkpt lat="37.66675" lon="14.8561783"><ele>639.0</ele><time>2026-04-25T09:24:38.921Z</time></trkpt><trkpt lat="37.6668483" lon="14.8559983"><ele>639.0</ele><time>2026-04-25T09:24:39.921Z</time></trkpt><trkpt lat="37.6669517" lon="14.8558133"><ele>639.0</ele><time>2026-04-25T09:24:40.921Z</time></trkpt><trkpt lat="37.6670483" lon="14.85564"><ele>640.0</ele><time>2026-04-25T09:24:41.92Z</time></trkpt><trkpt lat="37.6671533" lon="14.855465"><ele>641.0</ele><time>2026-04-25T09:24:42.92Z</time></trkpt><trkpt lat="37.6672617" lon="14.8552983"><ele>642.0</ele><time>2026-04-25T09:24:43.921Z</time></trkpt><trkpt lat="37.6673633" lon="14.8551417"><ele>638.3333333333334</ele><time>2026-04-25T09:24:44.92Z</time></trkpt><trkpt lat="37.6674667" lon="14.8549983"><ele>634.6666666666667</ele><time>2026-04-25T09:24:45.921Z</time></trkpt><trkpt lat="37.6675667" lon="14.8548417"><ele>631.0</ele><time>2026-04-25T09:24:46.921Z</time></trkpt><trkpt lat="37.667665" lon="14.854695"><ele>631.0</ele><time>2026-04-25T09:24:47.921Z</time></trkpt><trkpt lat="37.6677683" lon="14.85454"><ele>631.0</ele><time>2026-04-25T09:24:48.921Z</time></trkpt><trkpt lat="37.66787" lon="14.8543883"><ele>631.0</ele><time>2026-04-25T09:24:49.921Z</time></trkpt><trkpt lat="37.6679767" lon="14.8542217"><ele>630.3333333333334</ele><time>2026-04-25T09:24:50.921Z</time></trkpt><trkpt lat="37.6680867" lon="14.85406"><ele>629.6666666666666</ele><time>2026-04-25T09:24:51.921Z</time></trkpt><trkpt lat="37.6682" lon="14.853895"><ele>629.0</ele><time>2026-04-25T09:24:52.921Z</time></trkpt><trkpt lat="37.6683083" lon="14.853735"><ele>629.0</ele><time>2026-04-25T09:24:53.921Z</time></trkpt><trkpt lat="37.6684133" lon="14.8535767"><ele>629.0</ele><time>2026-04-25T09:24:54.921Z</time></trkpt><trkpt lat="37.6685183" lon="14.8534167"><ele>629.0</ele><time>2026-04-25T09:24:55.92Z</time></trkpt><trkpt lat="37.66862" lon="14.8532583"><ele>629.0</ele><time>2026-04-25T09:24:56.921Z</time></trkpt><trkpt lat="37.6687233" lon="14.8530983"><ele>629.0</ele><time>2026-04-25T09:24:57.92Z</time></trkpt><trkpt lat="37.6688317" lon="14.8529417"><ele>629.0</ele><time>2026-04-25T09:24:58.921Z</time></trkpt><trkpt lat="37.6689367" lon="14.852785"><ele>629.0</ele><time>2026-04-25T09:24:59.921Z</time></trkpt><trkpt lat="37.66904" lon="14.8526283"><ele>629.0</ele><time>2026-04-25T09:25:00.92Z</time></trkpt><trkpt lat="37.669145" lon="14.8524733"><ele>629.0</ele><time>2026-04-25T09:25:01.92Z</time></trkpt><trkpt lat="37.66924" lon="14.852335"><ele>628.5</ele><time>2026-04-25T09:25:02.92Z</time></trkpt><trkpt lat="37.6693283" lon="14.8522017"><ele>628.0</ele><time>2026-04-25T09:25:03.921Z</time></trkpt><trkpt lat="37.6694233" lon="14.8520717"><ele>627.5</ele><time>2026-04-25T09:25:04.92Z</time></trkpt><trkpt lat="37.6695183" lon="14.8519283"><ele>627.0</ele><time>2026-04-25T09:25:05.921Z</time></trkpt><trkpt lat="37.6696117" lon="14.8517833"><ele>629.0</ele><time>2026-04-25T09:25:06.921Z</time></trkpt><trkpt lat="37.6697083" lon="14.8516367"><ele>631.0</ele><time>2026-04-25T09:25:07.921Z</time></trkpt><trkpt lat="37.669805" lon="14.8515"><ele>633.0</ele><time>2026-04-25T09:25:08.92Z</time></trkpt><trkpt lat="37.669895" lon="14.85136"><ele>635.0</ele><time>2026-04-25T09:25:09.92Z</time></trkpt><trkpt lat="37.669985" lon="14.8512183"><ele>635.0</ele><time>2026-04-25T09:25:10.921Z</time></trkpt><trkpt lat="37.6700667" lon="14.8510917"><ele>635.0</ele><time>2026-04-25T09:25:11.92Z</time></trkpt><trkpt lat="37.670145" lon="14.850975"><ele>635.0</ele><time>2026-04-25T09:25:12.921Z</time></trkpt><trkpt lat="37.670225" lon="14.8508567"><ele>635.0</ele><time>2026-04-25T09:25:13.92Z</time></trkpt><trkpt lat="37.670305" lon="14.85074"><ele>636.75</ele><time>2026-04-25T09:25:14.921Z</time></trkpt><trkpt lat="37.670385" lon="14.8506233"><ele>638.5</ele><time>2026-04-25T09:25:15.921Z</time></trkpt><trkpt lat="37.6704667" lon="14.8505"><ele>640.25</ele><time>2026-04-25T09:25:16.921Z</time></trkpt><trkpt lat="37.6705483" lon="14.85037"><ele>642.0</ele><time>2026-04-25T09:25:17.921Z</time></trkpt><trkpt lat="37.67063" lon="14.8502417"><ele>642.0</ele><time>2026-04-25T09:25:18.92Z</time></trkpt><trkpt lat="37.670715" lon="14.8501067"><ele>642.0</ele><time>2026-04-25T09:25:19.92Z</time></trkpt><trkpt lat="37.6708133" lon="14.8499633"><ele>642.0</ele><time>2026-04-25T09:25:20.92Z</time></trkpt><trkpt lat="37.6709167" lon="14.8498117"><ele>642.0</ele><time>2026-04-25T09:25:21.92Z</time></trkpt><trkpt lat="37.671015" lon="14.8496567"><ele>643.3333333333334</ele><time>2026-04-25T09:25:22.92Z</time></trkpt><trkpt lat="37.6711183" lon="14.849495"><ele>644.6666666666667</ele><time>2026-04-25T09:25:23.921Z</time></trkpt><trkpt lat="37.6712233" lon="14.8493333"><ele>646.0</ele><time>2026-04-25T09:25:24.921Z</time></trkpt><trkpt lat="37.671345" lon="14.8491567"><ele>646.0</ele><time>2026-04-25T09:25:25.92Z</time></trkpt><trkpt lat="37.67145" lon="14.8489883"><ele>646.0</ele><time>2026-04-25T09:25:26.921Z</time></trkpt><trkpt lat="37.6715667" lon="14.8488217"><ele>646.0</ele><time>2026-04-25T09:25:27.92Z</time></trkpt><trkpt lat="37.6716867" lon="14.84865"><ele>644.6666666666667</ele><time>2026-04-25T09:25:28.92Z</time></trkpt><trkpt lat="37.671815" lon="14.8484567"><ele>643.3333333333334</ele><time>2026-04-25T09:25:29.92Z</time></trkpt><trkpt lat="37.6719367" lon="14.8482683"><ele>642.0</ele><time>2026-04-25T09:25:30.921Z</time></trkpt><trkpt lat="37.6720567" lon="14.84808"><ele>642.0</ele><time>2026-04-25T09:25:31.921Z</time></trkpt><trkpt lat="37.67217" lon="14.8478883"><ele>642.0</ele><time>2026-04-25T09:25:32.921Z</time></trkpt><trkpt lat="37.6722717" lon="14.8476833"><ele>642.0</ele><time>2026-04-25T09:25:33.92Z</time></trkpt><trkpt lat="37.672375" lon="14.8474667"><ele>640.6666666666666</ele><time>2026-04-25T09:25:34.92Z</time></trkpt><trkpt lat="37.6724717" lon="14.8472533"><ele>639.3333333333333</ele><time>2026-04-25T09:25:35.92Z</time></trkpt><trkpt lat="37.6725683" lon="14.847035"><ele>638.0</ele><time>2026-04-25T09:25:36.921Z</time></trkpt><trkpt lat="37.67266" lon="14.8468167"><ele>638.0</ele><time>2026-04-25T09:25:37.92Z</time></trkpt><trkpt lat="37.672735" lon="14.8466033"><ele>638.0</ele><time>2026-04-25T09:25:38.921Z</time></trkpt><trkpt lat="37.6728133" lon="14.8463883"><ele>638.0</ele><time>2026-04-25T09:25:39.921Z</time></trkpt><trkpt lat="37.6728733" lon="14.846165"><ele>638.6666666666666</ele><time>2026-04-25T09:25:40.92Z</time></trkpt><trkpt lat="37.672935" lon="14.8459483"><ele>639.3333333333334</ele><time>2026-04-25T09:25:41.921Z</time></trkpt><trkpt lat="37.6729983" lon="14.845735"><ele>640.0</ele><time>2026-04-25T09:25:42.921Z</time></trkpt><trkpt lat="37.673065" lon="14.845515"><ele>640.0</ele><time>2026-04-25T09:25:43.92Z</time></trkpt><trkpt lat="37.6731217" lon="14.8452967"><ele>640.0</ele><time>2026-04-25T09:25:44.921Z</time></trkpt><trkpt lat="37.6731767" lon="14.8450817"><ele>640.0</ele><time>2026-04-25T09:25:45.921Z</time></trkpt><trkpt lat="37.6732383" lon="14.8448583"><ele>640.0</ele><time>2026-04-25T09:25:46.92Z</time></trkpt><trkpt lat="37.6732983" lon="14.84464"><ele>640.0</ele><time>2026-04-25T09:25:47.92Z</time></trkpt><trkpt lat="37.673365" lon="14.8444417"><ele>640.0</ele><time>2026-04-25T09:25:48.921Z</time></trkpt><trkpt lat="37.6734283" lon="14.844225"><ele>639.0</ele><time>2026-04-25T09:25:49.921Z</time></trkpt><trkpt lat="37.6734933" lon="14.8440033"><ele>638.0</ele><time>2026-04-25T09:25:50.921Z</time></trkpt><trkpt lat="37.6735533" lon="14.8437917"><ele>637.0</ele><time>2026-04-25T09:25:51.921Z</time></trkpt><trkpt lat="37.6736167" lon="14.84358"><ele>635.0</ele><time>2026-04-25T09:25:52.921Z</time></trkpt><trkpt lat="37.6736767" lon="14.8433817"><ele>633.0</ele><time>2026-04-25T09:25:53.92Z</time></trkpt><trkpt lat="37.673735" lon="14.8431717"><ele>631.0</ele><time>2026-04-25T09:25:54.921Z</time></trkpt><trkpt lat="37.6737933" lon="14.8429783"><ele>631.0</ele><time>2026-04-25T09:25:55.921Z</time></trkpt><trkpt lat="37.6738483" lon="14.8427817"><ele>631.0</ele><time>2026-04-25T09:25:56.921Z</time></trkpt><trkpt lat="37.6739033" lon="14.84258"><ele>631.0</ele><time>2026-04-25T09:25:57.921Z</time></trkpt><trkpt lat="37.673965" lon="14.84238"><ele>630.3333333333334</ele><time>2026-04-25T09:25:58.921Z</time></trkpt><trkpt lat="37.674025" lon="14.84218"><ele>629.6666666666666</ele><time>2026-04-25T09:25:59.921Z</time></trkpt><trkpt lat="37.674085" lon="14.84198"><ele>629.0</ele><time>2026-04-25T09:26:00.921Z</time></trkpt><trkpt lat="37.6741433" lon="14.84178"><ele>629.0</ele><time>2026-04-25T09:26:01.921Z</time></trkpt><trkpt lat="37.6741983" lon="14.841575"><ele>629.0</ele><time>2026-04-25T09:26:02.921Z</time></trkpt><trkpt lat="37.6742517" lon="14.841375"><ele>629.0</ele><time>2026-04-25T09:26:03.921Z</time></trkpt><trkpt lat="37.674305" lon="14.8411833"><ele>629.0</ele><time>2026-04-25T09:26:04.921Z</time></trkpt><trkpt lat="37.6743567" lon="14.8409933"><ele>629.0</ele><time>2026-04-25T09:26:05.921Z</time></trkpt><trkpt lat="37.6744117" lon="14.8408083"><ele>629.0</ele><time>2026-04-25T09:26:06.921Z</time></trkpt><trkpt lat="37.6744617" lon="14.8406233"><ele>630.0</ele><time>2026-04-25T09:26:07.921Z</time></trkpt><trkpt lat="37.6745167" lon="14.8404367"><ele>631.0</ele><time>2026-04-25T09:26:08.921Z</time></trkpt><trkpt lat="37.6745683" lon="14.84026"><ele>632.0</ele><time>2026-04-25T09:26:09.92Z</time></trkpt><trkpt lat="37.6746133" lon="14.840075"><ele>632.0</ele><time>2026-04-25T09:26:10.921Z</time></trkpt><trkpt lat="37.6746683" lon="14.8398967"><ele>632.0</ele><time>2026-04-25T09:26:11.921Z</time></trkpt><trkpt lat="37.6747183" lon="14.8397233"><ele>632.0</ele><time>2026-04-25T09:26:12.92Z</time></trkpt><trkpt lat="37.6747717" lon="14.8395417"><ele>632.0</ele><time>2026-04-25T09:26:13.921Z</time></trkpt><trkpt lat="37.6748217" lon="14.8393717"><ele>632.0</ele><time>2026-04-25T09:26:14.92Z</time></trkpt><trkpt lat="37.6748733" lon="14.8392"><ele>632.0</ele><time>2026-04-25T09:26:15.921Z</time></trkpt><trkpt lat="37.6749183" lon="14.8390417"><ele>632.0</ele><time>2026-04-25T09:26:16.921Z</time></trkpt><trkpt lat="37.6749583" lon="14.838875"><ele>631.0</ele><time>2026-04-25T09:26:17.921Z</time></trkpt><trkpt lat="37.675" lon="14.8387133"><ele>630.0</ele><time>2026-04-25T09:26:18.921Z</time></trkpt><trkpt lat="37.6750433" lon="14.8385583"><ele>629.0</ele><time>2026-04-25T09:26:19.921Z</time></trkpt><trkpt lat="37.6750983" lon="14.8383967"><ele>628.0</ele><time>2026-04-25T09:26:20.921Z</time></trkpt><trkpt lat="37.675155" lon="14.8382467"><ele>628.0</ele><time>2026-04-25T09:26:21.921Z</time></trkpt><trkpt lat="37.6752067" lon="14.8381233"><ele>628.0</ele><time>2026-04-25T09:26:22.921Z</time></trkpt><trkpt lat="37.6752617" lon="14.8380067"><ele>628.0</ele><time>2026-04-25T09:26:23.921Z</time></trkpt><trkpt lat="37.6753267" lon="14.83791"><ele>628.0</ele><time>2026-04-25T09:26:24.92Z</time></trkpt><trkpt lat="37.6753933" lon="14.8378217"><ele>628.0</ele><time>2026-04-25T09:26:25.921Z</time></trkpt><trkpt lat="37.6754633" lon="14.8377367"><ele>628.8333333333334</ele><time>2026-04-25T09:26:26.921Z</time></trkpt><trkpt lat="37.6755317" lon="14.8376517"><ele>629.6666666666667</ele><time>2026-04-25T09:26:27.921Z</time></trkpt><trkpt lat="37.6756067" lon="14.837575"><ele>630.5</ele><time>2026-04-25T09:26:28.92Z</time></trkpt><trkpt lat="37.67568" lon="14.83752"><ele>631.3333333333334</ele><time>2026-04-25T09:26:29.92Z</time></trkpt><trkpt lat="37.6757467" lon="14.837485"><ele>632.1666666666666</ele><time>2026-04-25T09:26:30.92Z</time></trkpt><trkpt lat="37.675815" lon="14.837465"><ele>633.0</ele><time>2026-04-25T09:26:31.921Z</time></trkpt><trkpt lat="37.6758867" lon="14.8374267"><ele>633.0</ele><time>2026-04-25T09:26:32.921Z</time></trkpt><trkpt lat="37.6759567" lon="14.83737"><ele>633.0</ele><time>2026-04-25T09:26:33.921Z</time></trkpt><trkpt lat="37.6760267" lon="14.8372983"><ele>633.0</ele><time>2026-04-25T09:26:34.921Z</time></trkpt><trkpt lat="37.6760983" lon="14.8372167"><ele>633.0</ele><time>2026-04-25T09:26:35.92Z</time></trkpt><trkpt lat="37.6761783" lon="14.8371467"><ele>633.0</ele><time>2026-04-25T09:26:36.921Z</time></trkpt><trkpt lat="37.6762683" lon="14.8370833"><ele>633.25</ele><time>2026-04-25T09:26:37.921Z</time></trkpt><trkpt lat="37.676375" lon="14.83702"><ele>633.5</ele><time>2026-04-25T09:26:38.921Z</time></trkpt><trkpt lat="37.6764917" lon="14.83697"><ele>633.75</ele><time>2026-04-25T09:26:39.92Z</time></trkpt><trkpt lat="37.67662" lon="14.836935"><ele>634.0</ele><time>2026-04-25T09:26:40.921Z</time></trkpt><trkpt lat="37.6767483" lon="14.8369117"><ele>634.0</ele><time>2026-04-25T09:26:41.92Z</time></trkpt><trkpt lat="37.6768767" lon="14.8369117"><ele>634.0</ele><time>2026-04-25T09:26:42.921Z</time></trkpt><trkpt lat="37.6769933" lon="14.8369267"><ele>634.0</ele><time>2026-04-25T09:26:43.921Z</time></trkpt><trkpt lat="37.6771067" lon="14.83694"><ele>634.0</ele><time>2026-04-25T09:26:44.921Z</time></trkpt><trkpt lat="37.6772117" lon="14.8369533"><ele>633.6</ele><time>2026-04-25T09:26:45.921Z</time></trkpt><trkpt lat="37.6773033" lon="14.836965"><ele>633.2</ele><time>2026-04-25T09:26:46.921Z</time></trkpt><trkpt lat="37.6773983" lon="14.8369817"><ele>632.8000000000001</ele><time>2026-04-25T09:26:47.921Z</time></trkpt><trkpt lat="37.6774967" lon="14.8369883"><ele>632.4</ele><time>2026-04-25T09:26:48.921Z</time></trkpt><trkpt lat="37.6775917" lon="14.836995"><ele>632.0</ele><time>2026-04-25T09:26:49.92Z</time></trkpt><trkpt lat="37.677685" lon="14.8370017"><ele>631.1666666666666</ele><time>2026-04-25T09:26:50.921Z</time></trkpt><trkpt lat="37.67777" lon="14.8370117"><ele>630.3333333333333</ele><time>2026-04-25T09:26:51.92Z</time></trkpt><trkpt lat="37.677845" lon="14.83702"><ele>629.5</ele><time>2026-04-25T09:26:52.921Z</time></trkpt><trkpt lat="37.677935" lon="14.8370383"><ele>628.6666666666666</ele><time>2026-04-25T09:26:54.921Z</time></trkpt><trkpt lat="37.6780083" lon="14.83704"><ele>627.8333333333334</ele><time>2026-04-25T09:26:58.92Z</time></trkpt><trkpt lat="37.678095" lon="14.8370517"><ele>627.0</ele><time>2026-04-25T09:27:01.92Z</time></trkpt><trkpt lat="37.6781817" lon="14.8370667"><ele>627.0</ele><time>2026-04-25T09:27:04.92Z</time></trkpt><trkpt lat="37.678265" lon="14.8370783"><ele>627.0</ele><time>2026-04-25T09:27:10.92Z</time></trkpt><trkpt lat="37.67833" lon="14.8370767"><ele>627.0</ele><time>2026-04-25T09:27:13.919Z</time></trkpt><trkpt lat="37.6784333" lon="14.8370867"><ele>627.0</ele><time>2026-04-25T09:27:25.92Z</time></trkpt><trkpt lat="37.6785133" lon="14.837095"><ele>627.0</ele><time>2026-04-25T09:27:28.92Z</time></trkpt><trkpt lat="37.6786317" lon="14.8370933"><ele>625.5</ele><time>2026-04-25T09:27:47.92Z</time></trkpt><trkpt lat="37.6787" lon="14.8370767"><ele>624.0</ele><time>2026-04-25T09:28:04.92Z</time></trkpt><trkpt lat="37.678785" lon="14.8370767"><ele>622.5</ele><time>2026-04-25T09:28:07.919Z</time></trkpt><trkpt lat="37.67886" lon="14.83708"><ele>621.0</ele><time>2026-04-25T09:28:10.92Z</time></trkpt><trkpt lat="37.6789217" lon="14.8370983"><ele>619.5</ele><time>2026-04-25T09:28:13.919Z</time></trkpt><trkpt lat="37.679" lon="14.8371167"><ele>618.0</ele><time>2026-04-25T09:28:16.92Z</time></trkpt><trkpt lat="37.6790883" lon="14.83713"><ele>618.0</ele><time>2026-04-25T09:28:19.919Z</time></trkpt><trkpt lat="37.679155" lon="14.837135"><ele>618.0</ele><time>2026-04-25T09:28:21.92Z</time></trkpt><trkpt lat="37.67922" lon="14.8371417"><ele>618.0</ele><time>2026-04-25T09:28:23.919Z</time></trkpt><trkpt lat="37.6793033" lon="14.8371517"><ele>618.0</ele><time>2026-04-25T09:28:26.919Z</time></trkpt><trkpt lat="37.679395" lon="14.8371767"><ele>618.0</ele><time>2026-04-25T09:28:29.919Z</time></trkpt><trkpt lat="37.6794667" lon="14.8371867"><ele>618.0</ele><time>2026-04-25T09:28:31.92Z</time></trkpt><trkpt lat="37.6795467" lon="14.837195"><ele>618.1666666666666</ele><time>2026-04-25T09:28:33.92Z</time></trkpt><trkpt lat="37.6796133" lon="14.8372083"><ele>618.3333333333334</ele><time>2026-04-25T09:28:35.919Z</time></trkpt><trkpt lat="37.67973" lon="14.8372367"><ele>618.5</ele><time>2026-04-25T09:28:43.92Z</time></trkpt><trkpt lat="37.6798033" lon="14.837235"><ele>618.6666666666667</ele><time>2026-04-25T09:28:53.919Z</time></trkpt><trkpt lat="37.6798683" lon="14.837255"><ele>618.8333333333334</ele><time>2026-04-25T09:28:57.92Z</time></trkpt><trkpt lat="37.67993" lon="14.8372867"><ele>619.0</ele><time>2026-04-25T09:29:01.919Z</time></trkpt><trkpt lat="37.6799933" lon="14.8373033"><ele>619.0</ele><time>2026-04-25T09:29:05.92Z</time></trkpt><trkpt lat="37.6800517" lon="14.83735"><ele>619.0</ele><time>2026-04-25T09:29:07.92Z</time></trkpt><trkpt lat="37.6801033" lon="14.8374217"><ele>619.0</ele><time>2026-04-25T09:29:09.92Z</time></trkpt><trkpt lat="37.6801533" lon="14.8374933"><ele>619.0</ele><time>2026-04-25T09:29:11.919Z</time></trkpt><trkpt lat="37.6802117" lon="14.837555"><ele>619.0</ele><time>2026-04-25T09:29:13.92Z</time></trkpt><trkpt lat="37.6802683" lon="14.837615"><ele>619.0</ele><time>2026-04-25T09:29:15.92Z</time></trkpt><trkpt lat="37.6803533" lon="14.8376567"><ele>619.3333333333334</ele><time>2026-04-25T09:29:17.919Z</time></trkpt><trkpt lat="37.68042" lon="14.8376817"><ele>619.6666666666667</ele><time>2026-04-25T09:29:19.919Z</time></trkpt><trkpt lat="37.6804917" lon="14.8376833"><ele>620.0</ele><time>2026-04-25T09:29:21.92Z</time></trkpt><trkpt lat="37.6805717" lon="14.837695"><ele>620.3333333333334</ele><time>2026-04-25T09:29:23.92Z</time></trkpt><trkpt lat="37.6806483" lon="14.8377167"><ele>620.6666666666666</ele><time>2026-04-25T09:29:35.919Z</time></trkpt><trkpt lat="37.6807333" lon="14.8377567"><ele>621.0</ele><time>2026-04-25T09:29:38.92Z</time></trkpt><trkpt lat="37.6808083" lon="14.83778"><ele>621.0</ele><time>2026-04-25T09:29:40.919Z</time></trkpt><trkpt lat="37.6809" lon="14.837795"><ele>621.0</ele><time>2026-04-25T09:29:42.92Z</time></trkpt><trkpt lat="37.6809983" lon="14.837805"><ele>621.0</ele><time>2026-04-25T09:29:44.92Z</time></trkpt><trkpt lat="37.6810633" lon="14.8378033"><ele>621.0</ele><time>2026-04-25T09:29:45.92Z</time></trkpt><trkpt lat="37.6811417" lon="14.8378067"><ele>621.0</ele><time>2026-04-25T09:29:46.92Z</time></trkpt><trkpt lat="37.6812383" lon="14.8378067"><ele>621.0</ele><time>2026-04-25T09:29:47.919Z</time></trkpt><trkpt lat="37.6813317" lon="14.8378133"><ele>622.0</ele><time>2026-04-25T09:29:48.92Z</time></trkpt><trkpt lat="37.6814217" lon="14.8378183"><ele>623.0</ele><time>2026-04-25T09:29:49.92Z</time></trkpt><trkpt lat="37.6815117" lon="14.837825"><ele>624.0</ele><time>2026-04-25T09:29:50.919Z</time></trkpt><trkpt lat="37.6816033" lon="14.8378317"><ele>625.0</ele><time>2026-04-25T09:29:51.92Z</time></trkpt><trkpt lat="37.6817" lon="14.83784"><ele>626.0</ele><time>2026-04-25T09:29:52.92Z</time></trkpt><trkpt lat="37.6817883" lon="14.837845"><ele>626.0</ele><time>2026-04-25T09:29:53.92Z</time></trkpt><trkpt lat="37.681885" lon="14.8378467"><ele>626.0</ele><time>2026-04-25T09:29:54.919Z</time></trkpt><trkpt lat="37.681975" lon="14.8378617"><ele>626.0</ele><time>2026-04-25T09:29:55.92Z</time></trkpt><trkpt lat="37.6820633" lon="14.8378883"><ele>626.0</ele><time>2026-04-25T09:29:56.919Z</time></trkpt><trkpt lat="37.6821533" lon="14.8379367"><ele>626.0</ele><time>2026-04-25T09:29:57.92Z</time></trkpt><trkpt lat="37.6822433" lon="14.8380083"><ele>626.0</ele><time>2026-04-25T09:29:58.92Z</time></trkpt><trkpt lat="37.6823233" lon="14.8380883"><ele>626.0</ele><time>2026-04-25T09:29:59.92Z</time></trkpt><trkpt lat="37.6824" lon="14.8381783"><ele>626.0</ele><time>2026-04-25T09:30:00.919Z</time></trkpt><trkpt lat="37.6824783" lon="14.8382717"><ele>626.0</ele><time>2026-04-25T09:30:01.919Z</time></trkpt><trkpt lat="37.68256" lon="14.8383667"><ele>626.0</ele><time>2026-04-25T09:30:02.92Z</time></trkpt><trkpt lat="37.6826417" lon="14.8384683"><ele>626.25</ele><time>2026-04-25T09:30:03.92Z</time></trkpt><trkpt lat="37.68272" lon="14.8385683"><ele>626.5</ele><time>2026-04-25T09:30:04.92Z</time></trkpt><trkpt lat="37.682805" lon="14.838675"><ele>626.75</ele><time>2026-04-25T09:30:05.92Z</time></trkpt><trkpt lat="37.68289" lon="14.8387817"><ele>627.0</ele><time>2026-04-25T09:30:06.919Z</time></trkpt><trkpt lat="37.6829733" lon="14.8388817"><ele>627.25</ele><time>2026-04-25T09:30:07.919Z</time></trkpt><trkpt lat="37.6830733" lon="14.8389783"><ele>627.5</ele><time>2026-04-25T09:30:08.92Z</time></trkpt><trkpt lat="37.6831633" lon="14.8390783"><ele>627.75</ele><time>2026-04-25T09:30:09.919Z</time></trkpt><trkpt lat="37.6832467" lon="14.8391717"><ele>628.0</ele><time>2026-04-25T09:30:10.92Z</time></trkpt><trkpt lat="37.6833383" lon="14.8392683"><ele>628.5</ele><time>2026-04-25T09:30:11.919Z</time></trkpt><trkpt lat="37.68344" lon="14.8393633"><ele>629.0</ele><time>2026-04-25T09:30:12.92Z</time></trkpt><trkpt lat="37.6835283" lon="14.839465"><ele>629.5</ele><time>2026-04-25T09:30:13.92Z</time></trkpt><trkpt lat="37.6836167" lon="14.83957"><ele>630.0</ele><time>2026-04-25T09:30:14.92Z</time></trkpt><trkpt lat="37.6836967" lon="14.83967"><ele>630.4</ele><time>2026-04-25T09:30:15.92Z</time></trkpt><trkpt lat="37.6837717" lon="14.839765"><ele>630.8</ele><time>2026-04-25T09:30:16.92Z</time></trkpt><trkpt lat="37.6838467" lon="14.839855"><ele>631.2</ele><time>2026-04-25T09:30:17.919Z</time></trkpt><trkpt lat="37.6839167" lon="14.8399317"><ele>631.6</ele><time>2026-04-25T09:30:18.92Z</time></trkpt><trkpt lat="37.6839767" lon="14.8400033"><ele>632.0</ele><time>2026-04-25T09:30:19.919Z</time></trkpt><trkpt lat="37.6840317" lon="14.8400633"><ele>632.0</ele><time>2026-04-25T09:30:20.919Z</time></trkpt><trkpt lat="37.68409" lon="14.8401183"><ele>632.0</ele><time>2026-04-25T09:30:21.92Z</time></trkpt><trkpt lat="37.6841483" lon="14.8401833"><ele>632.0</ele><time>2026-04-25T09:30:22.919Z</time></trkpt><trkpt lat="37.6842267" lon="14.8402617"><ele>632.0</ele><time>2026-04-25T09:30:23.92Z</time></trkpt><trkpt lat="37.6843183" lon="14.84035"><ele>632.0</ele><time>2026-04-25T09:30:24.92Z</time></trkpt><trkpt lat="37.6844367" lon="14.84043"><ele>632.3333333333333</ele><time>2026-04-25T09:30:25.92Z</time></trkpt><trkpt lat="37.6845717" lon="14.84049"><ele>632.6666666666666</ele><time>2026-04-25T09:30:26.919Z</time></trkpt><trkpt lat="37.6847217" lon="14.8405383"><ele>633.0</ele><time>2026-04-25T09:30:27.919Z</time></trkpt><trkpt lat="37.68487" lon="14.8405783"><ele>633.0</ele><time>2026-04-25T09:30:28.92Z</time></trkpt><trkpt lat="37.6850233" lon="14.8406267"><ele>633.0</ele><time>2026-04-25T09:30:29.92Z</time></trkpt><trkpt lat="37.6851733" lon="14.8406717"><ele>633.0</ele><time>2026-04-25T09:30:30.92Z</time></trkpt><trkpt lat="37.6853133" lon="14.84073"><ele>633.3333333333334</ele><time>2026-04-25T09:30:31.92Z</time></trkpt><trkpt lat="37.6854667" lon="14.8407883"><ele>633.6666666666667</ele><time>2026-04-25T09:30:32.92Z</time></trkpt><trkpt lat="37.685615" lon="14.8408433"><ele>634.0</ele><time>2026-04-25T09:30:33.919Z</time></trkpt><trkpt lat="37.6857683" lon="14.8409117"><ele>635.5</ele><time>2026-04-25T09:30:34.92Z</time></trkpt><trkpt lat="37.6859067" lon="14.8409667"><ele>637.0</ele><time>2026-04-25T09:30:35.92Z</time></trkpt><trkpt lat="37.6860483" lon="14.8410217"><ele>638.5</ele><time>2026-04-25T09:30:36.919Z</time></trkpt><trkpt lat="37.6861917" lon="14.841075"><ele>640.0</ele><time>2026-04-25T09:30:37.92Z</time></trkpt><trkpt lat="37.6863433" lon="14.8411233"><ele>641.3333333333334</ele><time>2026-04-25T09:30:38.92Z</time></trkpt><trkpt lat="37.6864917" lon="14.8411483"><ele>642.6666666666666</ele><time>2026-04-25T09:30:39.92Z</time></trkpt><trkpt lat="37.6866467" lon="14.8411667"><ele>644.0</ele><time>2026-04-25T09:30:40.919Z</time></trkpt><trkpt lat="37.6867967" lon="14.841165"><ele>643.5</ele><time>2026-04-25T09:30:41.92Z</time></trkpt><trkpt lat="37.6869417" lon="14.8411633"><ele>643.0</ele><time>2026-04-25T09:30:42.919Z</time></trkpt><trkpt lat="37.6870883" lon="14.8411483"><ele>642.5</ele><time>2026-04-25T09:30:43.92Z</time></trkpt><trkpt lat="37.6872317" lon="14.841135"><ele>642.0</ele><time>2026-04-25T09:30:44.919Z</time></trkpt><trkpt lat="37.6873717" lon="14.8411367"><ele>642.0</ele><time>2026-04-25T09:30:45.919Z</time></trkpt><trkpt lat="37.6874967" lon="14.8411233"><ele>642.0</ele><time>2026-04-25T09:30:46.92Z</time></trkpt><trkpt lat="37.6876133" lon="14.8411233"><ele>642.0</ele><time>2026-04-25T09:30:47.919Z</time></trkpt><trkpt lat="37.6877283" lon="14.8411117"><ele>642.0</ele><time>2026-04-25T09:30:48.919Z</time></trkpt><trkpt lat="37.6878333" lon="14.841105"><ele>641.3333333333334</ele><time>2026-04-25T09:30:49.919Z</time></trkpt><trkpt lat="37.6879383" lon="14.8410917"><ele>640.6666666666666</ele><time>2026-04-25T09:30:50.92Z</time></trkpt><trkpt lat="37.68803" lon="14.8410783"><ele>640.0</ele><time>2026-04-25T09:30:51.92Z</time></trkpt><trkpt lat="37.6881167" lon="14.841065"><ele>639.3333333333333</ele><time>2026-04-25T09:30:52.92Z</time></trkpt><trkpt lat="37.6881933" lon="14.8410433"><ele>638.6666666666666</ele><time>2026-04-25T09:30:53.92Z</time></trkpt><trkpt lat="37.6882617" lon="14.8410017"><ele>638.0</ele><time>2026-04-25T09:30:54.92Z</time></trkpt><trkpt lat="37.688315" lon="14.8409533"><ele>636.6666666666666</ele><time>2026-04-25T09:30:55.919Z</time></trkpt><trkpt lat="37.6883583" lon="14.8408933"><ele>635.3333333333333</ele><time>2026-04-25T09:30:56.92Z</time></trkpt><trkpt lat="37.6884117" lon="14.8408317"><ele>634.0</ele><time>2026-04-25T09:30:57.92Z</time></trkpt><trkpt lat="37.6884817" lon="14.8407817"><ele>632.6666666666666</ele><time>2026-04-25T09:30:58.92Z</time></trkpt><trkpt lat="37.6885617" lon="14.84075"><ele>631.3333333333334</ele><time>2026-04-25T09:30:59.92Z</time></trkpt><trkpt lat="37.6886483" lon="14.8407367"><ele>630.0</ele><time>2026-04-25T09:31:00.919Z</time></trkpt><trkpt lat="37.68872" lon="14.8407383"><ele>629.8333333333334</ele><time>2026-04-25T09:31:01.92Z</time></trkpt><trkpt lat="37.6887867" lon="14.8407733"><ele>629.6666666666666</ele><time>2026-04-25T09:31:02.92Z</time></trkpt><trkpt lat="37.68884" lon="14.840835"><ele>629.5</ele><time>2026-04-25T09:31:03.92Z</time></trkpt><trkpt lat="37.6888983" lon="14.8409117"><ele>629.3333333333333</ele><time>2026-04-25T09:31:04.92Z</time></trkpt><trkpt lat="37.6889483" lon="14.8409983"><ele>629.1666666666666</ele><time>2026-04-25T09:31:05.919Z</time></trkpt><trkpt lat="37.68901" lon="14.8410633"><ele>629.0</ele><time>2026-04-25T09:31:06.92Z</time></trkpt><trkpt lat="37.6890817" lon="14.8411033"><ele>629.4</ele><time>2026-04-25T09:31:07.92Z</time></trkpt><trkpt lat="37.6891617" lon="14.8411333"><ele>629.8</ele><time>2026-04-25T09:31:08.92Z</time></trkpt><trkpt lat="37.689245" lon="14.8411567"><ele>630.2</ele><time>2026-04-25T09:31:09.919Z</time></trkpt><trkpt lat="37.6893367" lon="14.841185"><ele>630.6</ele><time>2026-04-25T09:31:10.92Z</time></trkpt><trkpt lat="37.689435" lon="14.8412083"><ele>631.0</ele><time>2026-04-25T09:31:11.92Z</time></trkpt><trkpt lat="37.689535" lon="14.8412367"><ele>631.0</ele><time>2026-04-25T09:31:12.919Z</time></trkpt><trkpt lat="37.6896283" lon="14.8412733"><ele>631.0</ele><time>2026-04-25T09:31:13.919Z</time></trkpt><trkpt lat="37.68972" lon="14.8413183"><ele>631.0</ele><time>2026-04-25T09:31:14.92Z</time></trkpt><trkpt lat="37.689805" lon="14.8413817"><ele>631.0</ele><time>2026-04-25T09:31:15.92Z</time></trkpt><trkpt lat="37.6898867" lon="14.8414467"><ele>631.0</ele><time>2026-04-25T09:31:16.919Z</time></trkpt><trkpt lat="37.689955" lon="14.84153"><ele>631.0</ele><time>2026-04-25T09:31:17.919Z</time></trkpt><trkpt lat="37.6900083" lon="14.8416233"><ele>631.0</ele><time>2026-04-25T09:31:18.919Z</time></trkpt><trkpt lat="37.6900383" lon="14.8417267"><ele>631.0</ele><time>2026-04-25T09:31:19.918Z</time></trkpt><trkpt lat="37.6900633" lon="14.841825"><ele>631.0</ele><time>2026-04-25T09:31:20.919Z</time></trkpt><trkpt lat="37.690095" lon="14.8419183"><ele>631.0</ele><time>2026-04-25T09:31:21.918Z</time></trkpt><trkpt lat="37.6901367" lon="14.8420117"><ele>631.0</ele><time>2026-04-25T09:31:22.918Z</time></trkpt><trkpt lat="37.69019" lon="14.842095"><ele>632.6</ele><time>2026-04-25T09:31:23.918Z</time></trkpt><trkpt lat="37.6902517" lon="14.842175"><ele>634.2</ele><time>2026-04-25T09:31:24.918Z</time></trkpt><trkpt lat="37.690325" lon="14.84223"><ele>635.8</ele><time>2026-04-25T09:31:25.918Z</time></trkpt><trkpt lat="37.6904117" lon="14.8422667"><ele>637.4</ele><time>2026-04-25T09:31:26.919Z</time></trkpt><trkpt lat="37.6905017" lon="14.8422733"><ele>639.0</ele><time>2026-04-25T09:31:27.918Z</time></trkpt><trkpt lat="37.690595" lon="14.8422383"><ele>639.0</ele><time>2026-04-25T09:31:28.918Z</time></trkpt><trkpt lat="37.690695" lon="14.8421783"><ele>639.0</ele><time>2026-04-25T09:31:29.919Z</time></trkpt><trkpt lat="37.69079" lon="14.8421083"><ele>639.0</ele><time>2026-04-25T09:31:30.918Z</time></trkpt><trkpt lat="37.6908867" lon="14.84204"><ele>639.0</ele><time>2026-04-25T09:31:31.919Z</time></trkpt><trkpt lat="37.6909867" lon="14.841985"><ele>639.0</ele><time>2026-04-25T09:31:32.919Z</time></trkpt><trkpt lat="37.691095" lon="14.8419583"><ele>637.75</ele><time>2026-04-25T09:31:33.919Z</time></trkpt><trkpt lat="37.6912083" lon="14.841955"><ele>636.5</ele><time>2026-04-25T09:31:34.919Z</time></trkpt><trkpt lat="37.691325" lon="14.8419917"><ele>635.25</ele><time>2026-04-25T09:31:35.919Z</time></trkpt><trkpt lat="37.6914433" lon="14.8420467"><ele>634.0</ele><time>2026-04-25T09:31:36.919Z</time></trkpt><trkpt lat="37.6915533" lon="14.8421183"><ele>634.0</ele><time>2026-04-25T09:31:37.919Z</time></trkpt><trkpt lat="37.6916667" lon="14.84219"><ele>634.0</ele><time>2026-04-25T09:31:38.919Z</time></trkpt><trkpt lat="37.6917883" lon="14.8422417"><ele>634.0</ele><time>2026-04-25T09:31:39.919Z</time></trkpt><trkpt lat="37.6919067" lon="14.8422867"><ele>634.0</ele><time>2026-04-25T09:31:40.919Z</time></trkpt><trkpt lat="37.69202" lon="14.8423333"><ele>630.75</ele><time>2026-04-25T09:31:41.919Z</time></trkpt><trkpt lat="37.692125" lon="14.8423833"><ele>627.5</ele><time>2026-04-25T09:31:42.919Z</time></trkpt><trkpt lat="37.6922317" lon="14.842435"><ele>624.25</ele><time>2026-04-25T09:31:43.919Z</time></trkpt><trkpt lat="37.69234" lon="14.8424883"><ele>621.0</ele><time>2026-04-25T09:31:44.918Z</time></trkpt><trkpt lat="37.6924483" lon="14.842535"><ele>621.0</ele><time>2026-04-25T09:31:45.918Z</time></trkpt><trkpt lat="37.6925533" lon="14.8425783"><ele>621.0</ele><time>2026-04-25T09:31:46.919Z</time></trkpt><trkpt lat="37.6926617" lon="14.8426233"><ele>621.0</ele><time>2026-04-25T09:31:47.918Z</time></trkpt><trkpt lat="37.692785" lon="14.84266"><ele>621.0</ele><time>2026-04-25T09:31:48.919Z</time></trkpt><trkpt lat="37.6928983" lon="14.8426867"><ele>621.2</ele><time>2026-04-25T09:31:49.919Z</time></trkpt><trkpt lat="37.6930083" lon="14.8426867"><ele>621.4000000000001</ele><time>2026-04-25T09:31:50.919Z</time></trkpt><trkpt lat="37.6931167" lon="14.8426583"><ele>621.6</ele><time>2026-04-25T09:31:51.918Z</time></trkpt><trkpt lat="37.693225" lon="14.8426167"><ele>621.8000000000001</ele><time>2026-04-25T09:31:52.918Z</time></trkpt><trkpt lat="37.69333" lon="14.8425833"><ele>622.0</ele><time>2026-04-25T09:31:53.919Z</time></trkpt><trkpt lat="37.6934383" lon="14.8425567"><ele>622.0</ele><time>2026-04-25T09:31:54.919Z</time></trkpt><trkpt lat="37.693545" lon="14.8425217"><ele>622.0</ele><time>2026-04-25T09:31:55.919Z</time></trkpt><trkpt lat="37.6936517" lon="14.8424817"><ele>622.0</ele><time>2026-04-25T09:31:56.918Z</time></trkpt><trkpt lat="37.6937567" lon="14.8424417"><ele>622.0</ele><time>2026-04-25T09:31:57.919Z</time></trkpt><trkpt lat="37.6938633" lon="14.8424033"><ele>622.0</ele><time>2026-04-25T09:31:58.918Z</time></trkpt><trkpt lat="37.69397" lon="14.842365"><ele>623.25</ele><time>2026-04-25T09:31:59.918Z</time></trkpt><trkpt lat="37.6940817" lon="14.842345"><ele>624.5</ele><time>2026-04-25T09:32:00.918Z</time></trkpt><trkpt lat="37.694195" lon="14.84234"><ele>625.75</ele><time>2026-04-25T09:32:01.919Z</time></trkpt><trkpt lat="37.6943117" lon="14.842355"><ele>627.0</ele><time>2026-04-25T09:32:02.918Z</time></trkpt><trkpt lat="37.694425" lon="14.8423717"><ele>627.0</ele><time>2026-04-25T09:32:03.918Z</time></trkpt><trkpt lat="37.6945317" lon="14.8423917"><ele>627.0</ele><time>2026-04-25T09:32:04.919Z</time></trkpt><trkpt lat="37.6946417" lon="14.8424117"><ele>627.0</ele><time>2026-04-25T09:32:05.918Z</time></trkpt><trkpt lat="37.6947517" lon="14.84243"><ele>627.0</ele><time>2026-04-25T09:32:06.918Z</time></trkpt><trkpt lat="37.6948617" lon="14.8424433"><ele>627.0</ele><time>2026-04-25T09:32:07.918Z</time></trkpt><trkpt lat="37.69497" lon="14.8424533"><ele>627.0</ele><time>2026-04-25T09:32:08.918Z</time></trkpt><trkpt lat="37.69508" lon="14.8424467"><ele>627.0</ele><time>2026-04-25T09:32:09.919Z</time></trkpt><trkpt lat="37.69518" lon="14.8424233"><ele>627.0</ele><time>2026-04-25T09:32:10.918Z</time></trkpt><trkpt lat="37.6952683" lon="14.8423883"><ele>627.0</ele><time>2026-04-25T09:32:11.919Z</time></trkpt><trkpt lat="37.695345" lon="14.8423467"><ele>627.0</ele><time>2026-04-25T09:32:12.918Z</time></trkpt><trkpt lat="37.6954167" lon="14.8423083"><ele>626.8333333333334</ele><time>2026-04-25T09:32:13.919Z</time></trkpt><trkpt lat="37.6954717" lon="14.8422483"><ele>626.6666666666666</ele><time>2026-04-25T09:32:14.918Z</time></trkpt><trkpt lat="37.6955167" lon="14.842175"><ele>626.5</ele><time>2026-04-25T09:32:15.919Z</time></trkpt><trkpt lat="37.6955483" lon="14.8421017"><ele>626.3333333333333</ele><time>2026-04-25T09:32:16.919Z</time></trkpt><trkpt lat="37.6955817" lon="14.84202"><ele>626.1666666666666</ele><time>2026-04-25T09:32:17.919Z</time></trkpt><trkpt lat="37.6956017" lon="14.841915"><ele>626.0</ele><time>2026-04-25T09:32:18.919Z</time></trkpt><trkpt lat="37.6956" lon="14.8418033"><ele>624.6</ele><time>2026-04-25T09:32:19.919Z</time></trkpt><trkpt lat="37.6955983" lon="14.8416733"><ele>623.2</ele><time>2026-04-25T09:32:20.918Z</time></trkpt><trkpt lat="37.695605" lon="14.8415533"><ele>621.8</ele><time>2026-04-25T09:32:21.919Z</time></trkpt><trkpt lat="37.6956067" lon="14.8414317"><ele>620.4</ele><time>2026-04-25T09:32:22.919Z</time></trkpt><trkpt lat="37.6955967" lon="14.8413167"><ele>619.0</ele><time>2026-04-25T09:32:23.919Z</time></trkpt><trkpt lat="37.6955933" lon="14.84121"><ele>619.0</ele><time>2026-04-25T09:32:24.918Z</time></trkpt><trkpt lat="37.6956" lon="14.841105"><ele>619.0</ele><time>2026-04-25T09:32:25.919Z</time></trkpt><trkpt lat="37.6956367" lon="14.8410033"><ele>619.0</ele><time>2026-04-25T09:32:26.919Z</time></trkpt><trkpt lat="37.695695" lon="14.8409267"><ele>619.0</ele><time>2026-04-25T09:32:27.918Z</time></trkpt><trkpt lat="37.6957633" lon="14.8408783"><ele>619.0</ele><time>2026-04-25T09:32:28.919Z</time></trkpt><trkpt lat="37.6958433" lon="14.8408583"><ele>619.0</ele><time>2026-04-25T09:32:29.919Z</time></trkpt><trkpt lat="37.6959283" lon="14.8408417"><ele>618.2</ele><time>2026-04-25T09:32:30.919Z</time></trkpt><trkpt lat="37.6960133" lon="14.8408133"><ele>617.4</ele><time>2026-04-25T09:32:31.919Z</time></trkpt><trkpt lat="37.6960983" lon="14.8407583"><ele>616.6</ele><time>2026-04-25T09:32:32.919Z</time></trkpt><trkpt lat="37.696165" lon="14.840695"><ele>615.8</ele><time>2026-04-25T09:32:33.918Z</time></trkpt><trkpt lat="37.6962433" lon="14.8405817"><ele>615.0</ele><time>2026-04-25T09:32:35.919Z</time></trkpt><trkpt lat="37.69632" lon="14.8404467"><ele>615.0</ele><time>2026-04-25T09:32:37.918Z</time></trkpt><trkpt lat="37.69637" lon="14.8403567"><ele>615.0</ele><time>2026-04-25T09:32:38.918Z</time></trkpt><trkpt lat="37.6964183" lon="14.840255"><ele>615.0</ele><time>2026-04-25T09:32:39.919Z</time></trkpt><trkpt lat="37.6964767" lon="14.8401433"><ele>615.0</ele><time>2026-04-25T09:32:40.919Z</time></trkpt><trkpt lat="37.6965383" lon="14.840015"><ele>615.0</ele><time>2026-04-25T09:32:41.919Z</time></trkpt><trkpt lat="37.6966083" lon="14.8398767"><ele>614.0</ele><time>2026-04-25T09:32:42.919Z</time></trkpt><trkpt lat="37.6966867" lon="14.839745"><ele>613.0</ele><time>2026-04-25T09:32:43.919Z</time></trkpt><trkpt lat="37.696775" lon="14.839625"><ele>612.0</ele><time>2026-04-25T09:32:44.918Z</time></trkpt><trkpt lat="37.6968767" lon="14.8395383"><ele>611.0</ele><time>2026-04-25T09:32:45.919Z</time></trkpt><trkpt lat="37.6970017" lon="14.8394867"><ele>611.0</ele><time>2026-04-25T09:32:46.918Z</time></trkpt><trkpt lat="37.6971233" lon="14.8394633"><ele>611.0</ele><time>2026-04-25T09:32:47.919Z</time></trkpt><trkpt lat="37.6972517" lon="14.8394583"><ele>611.0</ele><time>2026-04-25T09:32:48.919Z</time></trkpt><trkpt lat="37.6973767" lon="14.8394717"><ele>611.0</ele><time>2026-04-25T09:32:49.918Z</time></trkpt><trkpt lat="37.6974967" lon="14.8394983"><ele>611.0</ele><time>2026-04-25T09:32:50.919Z</time></trkpt><trkpt lat="37.6976117" lon="14.8395217"><ele>611.0</ele><time>2026-04-25T09:32:51.919Z</time></trkpt><trkpt lat="37.697715" lon="14.8395483"><ele>611.0</ele><time>2026-04-25T09:32:52.918Z</time></trkpt><trkpt lat="37.6978233" lon="14.8395533"><ele>611.0</ele><time>2026-04-25T09:32:53.918Z</time></trkpt><trkpt lat="37.6979433" lon="14.8395517"><ele>611.25</ele><time>2026-04-25T09:32:54.919Z</time></trkpt><trkpt lat="37.6980567" lon="14.8395283"><ele>611.5</ele><time>2026-04-25T09:32:55.918Z</time></trkpt><trkpt lat="37.6981583" lon="14.83947"><ele>611.75</ele><time>2026-04-25T09:32:56.919Z</time></trkpt><trkpt lat="37.6982467" lon="14.8393667"><ele>612.0</ele><time>2026-04-25T09:32:57.919Z</time></trkpt><trkpt lat="37.69833" lon="14.83925"><ele>610.0</ele><time>2026-04-25T09:32:58.918Z</time></trkpt><trkpt lat="37.69841" lon="14.8391167"><ele>608.0</ele><time>2026-04-25T09:32:59.919Z</time></trkpt><trkpt lat="37.6984967" lon="14.8389633"><ele>606.0</ele><time>2026-04-25T09:33:00.919Z</time></trkpt><trkpt lat="37.69859" lon="14.8388133"><ele>604.0</ele><time>2026-04-25T09:33:01.919Z</time></trkpt><trkpt lat="37.6986833" lon="14.8386683"><ele>603.75</ele><time>2026-04-25T09:33:02.918Z</time></trkpt><trkpt lat="37.6987833" lon="14.838535"><ele>603.5</ele><time>2026-04-25T09:33:03.918Z</time></trkpt><trkpt lat="37.698885" lon="14.8384067"><ele>603.25</ele><time>2026-04-25T09:33:04.918Z</time></trkpt><trkpt lat="37.6990017" lon="14.8382883"><ele>603.0</ele><time>2026-04-25T09:33:05.918Z</time></trkpt><trkpt lat="37.6991167" lon="14.8381717"><ele>602.0</ele><time>2026-04-25T09:33:06.919Z</time></trkpt><trkpt lat="37.69924" lon="14.8380617"><ele>601.0</ele><time>2026-04-25T09:33:07.919Z</time></trkpt><trkpt lat="37.6993733" lon="14.837975"><ele>600.0</ele><time>2026-04-25T09:33:08.918Z</time></trkpt><trkpt lat="37.6995217" lon="14.8379067"><ele>600.0</ele><time>2026-04-25T09:33:09.919Z</time></trkpt><trkpt lat="37.6996733" lon="14.8378533"><ele>600.0</ele><time>2026-04-25T09:33:10.919Z</time></trkpt><trkpt lat="37.69983" lon="14.8378"><ele>600.0</ele><time>2026-04-25T09:33:11.919Z</time></trkpt><trkpt lat="37.699975" lon="14.8377583"><ele>600.0</ele><time>2026-04-25T09:33:12.919Z</time></trkpt><trkpt lat="37.7001133" lon="14.8377383"><ele>600.0</ele><time>2026-04-25T09:33:13.919Z</time></trkpt><trkpt lat="37.7002567" lon="14.8377467"><ele>600.0</ele><time>2026-04-25T09:33:14.918Z</time></trkpt><trkpt lat="37.7003917" lon="14.8377733"><ele>600.0</ele><time>2026-04-25T09:33:15.918Z</time></trkpt><trkpt lat="37.700525" lon="14.8378117"><ele>601.0</ele><time>2026-04-25T09:33:16.919Z</time></trkpt><trkpt lat="37.700665" lon="14.8378533"><ele>602.0</ele><time>2026-04-25T09:33:17.919Z</time></trkpt><trkpt lat="37.7007983" lon="14.837895"><ele>603.0</ele><time>2026-04-25T09:33:18.918Z</time></trkpt><trkpt lat="37.7009333" lon="14.8379233"><ele>604.0</ele><time>2026-04-25T09:33:19.918Z</time></trkpt><trkpt lat="37.701065" lon="14.8379583"><ele>603.0</ele><time>2026-04-25T09:33:20.918Z</time></trkpt><trkpt lat="37.7011917" lon="14.8380217"><ele>602.0</ele><time>2026-04-25T09:33:21.918Z</time></trkpt><trkpt lat="37.7013267" lon="14.838075"><ele>601.0</ele><time>2026-04-25T09:33:22.919Z</time></trkpt><trkpt lat="37.7014633" lon="14.8381133"><ele>600.0</ele><time>2026-04-25T09:33:23.919Z</time></trkpt><trkpt lat="37.701605" lon="14.83814"><ele>600.0</ele><time>2026-04-25T09:33:24.919Z</time></trkpt><trkpt lat="37.7017333" lon="14.8381717"><ele>600.0</ele><time>2026-04-25T09:33:25.918Z</time></trkpt><trkpt lat="37.7018633" lon="14.8382017"><ele>600.0</ele><time>2026-04-25T09:33:26.918Z</time></trkpt><trkpt lat="37.7019983" lon="14.8382383"><ele>600.0</ele><time>2026-04-25T09:33:27.919Z</time></trkpt><trkpt lat="37.70214" lon="14.83827"><ele>600.25</ele><time>2026-04-25T09:33:28.919Z</time></trkpt><trkpt lat="37.70228" lon="14.8383183"><ele>600.5</ele><time>2026-04-25T09:33:29.919Z</time></trkpt><trkpt lat="37.7024183" lon="14.8383783"><ele>600.75</ele><time>2026-04-25T09:33:30.919Z</time></trkpt><trkpt lat="37.70254" lon="14.8384517"><ele>601.0</ele><time>2026-04-25T09:33:31.918Z</time></trkpt><trkpt lat="37.7026433" lon="14.83853"><ele>601.6</ele><time>2026-04-25T09:33:32.919Z</time></trkpt><trkpt lat="37.7027283" lon="14.8386233"><ele>602.2</ele><time>2026-04-25T09:33:33.919Z</time></trkpt><trkpt lat="37.7027967" lon="14.8387367"><ele>602.8</ele><time>2026-04-25T09:33:34.918Z</time></trkpt><trkpt lat="37.70285" lon="14.8388583"><ele>603.4</ele><time>2026-04-25T09:33:35.918Z</time></trkpt><trkpt lat="37.7028933" lon="14.838965"><ele>604.0</ele><time>2026-04-25T09:33:36.918Z</time></trkpt><trkpt lat="37.7029333" lon="14.839065"><ele>605.6</ele><time>2026-04-25T09:33:37.918Z</time></trkpt><trkpt lat="37.70298" lon="14.8391517"><ele>607.2</ele><time>2026-04-25T09:33:38.919Z</time></trkpt><trkpt lat="37.7030833" lon="14.8392217"><ele>608.8000000000001</ele><time>2026-04-25T09:33:40.919Z</time></trkpt><trkpt lat="37.7031567" lon="14.8392017"><ele>610.4</ele><time>2026-04-25T09:33:41.918Z</time></trkpt><trkpt lat="37.7032417" lon="14.8391533"><ele>612.0</ele><time>2026-04-25T09:33:42.918Z</time></trkpt><trkpt lat="37.7033367" lon="14.8390783"><ele>612.0</ele><time>2026-04-25T09:33:43.918Z</time></trkpt><trkpt lat="37.7034333" lon="14.8389933"><ele>612.0</ele><time>2026-04-25T09:33:44.919Z</time></trkpt><trkpt lat="37.7035267" lon="14.8389133"><ele>612.0</ele><time>2026-04-25T09:33:45.919Z</time></trkpt><trkpt lat="37.7036167" lon="14.83884"><ele>612.0</ele><time>2026-04-25T09:33:46.919Z</time></trkpt><trkpt lat="37.70371" lon="14.8387533"><ele>614.0</ele><time>2026-04-25T09:33:47.919Z</time></trkpt><trkpt lat="37.7038167" lon="14.8386717"><ele>616.0</ele><time>2026-04-25T09:33:48.918Z</time></trkpt><trkpt lat="37.7039383" lon="14.83862"><ele>618.0</ele><time>2026-04-25T09:33:49.918Z</time></trkpt><trkpt lat="37.704065" lon="14.838575"><ele>620.0</ele><time>2026-04-25T09:33:50.919Z</time></trkpt><trkpt lat="37.7041883" lon="14.8385383"><ele>620.0</ele><time>2026-04-25T09:33:51.919Z</time></trkpt><trkpt lat="37.7043017" lon="14.838495"><ele>620.0</ele><time>2026-04-25T09:33:52.918Z</time></trkpt><trkpt lat="37.704415" lon="14.83846"><ele>620.0</ele><time>2026-04-25T09:33:53.919Z</time></trkpt><trkpt lat="37.7045267" lon="14.838445"><ele>620.0</ele><time>2026-04-25T09:33:54.919Z</time></trkpt><trkpt lat="37.70464" lon="14.8384383"><ele>620.8</ele><time>2026-04-25T09:33:55.918Z</time></trkpt><trkpt lat="37.704735" lon="14.83847"><ele>621.6</ele><time>2026-04-25T09:33:56.918Z</time></trkpt><trkpt lat="37.7048117" lon="14.8385467"><ele>622.4</ele><time>2026-04-25T09:33:57.918Z</time></trkpt><trkpt lat="37.7048633" lon="14.83864"><ele>623.2</ele><time>2026-04-25T09:33:58.919Z</time></trkpt><trkpt lat="37.7049083" lon="14.838745"><ele>624.0</ele><time>2026-04-25T09:33:59.918Z</time></trkpt><trkpt lat="37.7049533" lon="14.83885"><ele>624.0</ele><time>2026-04-25T09:34:00.919Z</time></trkpt><trkpt lat="37.7049983" lon="14.8389633"><ele>624.0</ele><time>2026-04-25T09:34:01.918Z</time></trkpt><trkpt lat="37.7050383" lon="14.839075"><ele>624.0</ele><time>2026-04-25T09:34:02.919Z</time></trkpt><trkpt lat="37.7050667" lon="14.839195"><ele>624.0</ele><time>2026-04-25T09:34:03.919Z</time></trkpt><trkpt lat="37.705095" lon="14.8393033"><ele>624.0</ele><time>2026-04-25T09:34:04.918Z</time></trkpt><trkpt lat="37.7051317" lon="14.8394117"><ele>625.2</ele><time>2026-04-25T09:34:05.919Z</time></trkpt><trkpt lat="37.7051883" lon="14.8395133"><ele>626.4</ele><time>2026-04-25T09:34:06.918Z</time></trkpt><trkpt lat="37.7052583" lon="14.8396167"><ele>627.6</ele><time>2026-04-25T09:34:07.919Z</time></trkpt><trkpt lat="37.70532" lon="14.83971"><ele>628.8</ele><time>2026-04-25T09:34:08.918Z</time></trkpt><trkpt lat="37.7053667" lon="14.8397917"><ele>630.0</ele><time>2026-04-25T09:34:09.919Z</time></trkpt><trkpt lat="37.705415" lon="14.83986"><ele>630.1428571428571</ele><time>2026-04-25T09:34:10.919Z</time></trkpt><trkpt lat="37.70547" lon="14.83991"><ele>630.2857142857142</ele><time>2026-04-25T09:34:11.918Z</time></trkpt><trkpt lat="37.705535" lon="14.8399433"><ele>630.4285714285714</ele><time>2026-04-25T09:34:12.919Z</time></trkpt><trkpt lat="37.7056033" lon="14.839955"><ele>630.5714285714286</ele><time>2026-04-25T09:34:13.919Z</time></trkpt><trkpt lat="37.7056833" lon="14.8399583"><ele>630.7142857142857</ele><time>2026-04-25T09:34:14.918Z</time></trkpt><trkpt lat="37.7057617" lon="14.83995"><ele>630.8571428571429</ele><time>2026-04-25T09:34:15.919Z</time></trkpt><trkpt lat="37.705845" lon="14.8399483"><ele>631.0</ele><time>2026-04-25T09:34:16.919Z</time></trkpt><trkpt lat="37.7059433" lon="14.8399467"><ele>631.0</ele><time>2026-04-25T09:34:17.918Z</time></trkpt><trkpt lat="37.7060367" lon="14.8399483"><ele>631.0</ele><time>2026-04-25T09:34:18.918Z</time></trkpt><trkpt lat="37.7061417" lon="14.8399567"><ele>631.0</ele><time>2026-04-25T09:34:19.919Z</time></trkpt><trkpt lat="37.7062517" lon="14.8399583"><ele>631.0</ele><time>2026-04-25T09:34:20.919Z</time></trkpt><trkpt lat="37.7063767" lon="14.8399633"><ele>631.0</ele><time>2026-04-25T09:34:21.918Z</time></trkpt><trkpt lat="37.7065033" lon="14.83996"><ele>631.5</ele><time>2026-04-25T09:34:22.918Z</time></trkpt><trkpt lat="37.7066283" lon="14.8399583"><ele>632.0</ele><time>2026-04-25T09:34:23.918Z</time></trkpt><trkpt lat="37.7067517" lon="14.8399583"><ele>632.5</ele><time>2026-04-25T09:34:24.919Z</time></trkpt><trkpt lat="37.7068783" lon="14.8399633"><ele>633.0</ele><time>2026-04-25T09:34:25.919Z</time></trkpt><trkpt lat="37.7070067" lon="14.83996"><ele>634.25</ele><time>2026-04-25T09:34:26.919Z</time></trkpt><trkpt lat="37.70713" lon="14.83995"><ele>635.5</ele><time>2026-04-25T09:34:27.918Z</time></trkpt><trkpt lat="37.707255" lon="14.8399267"><ele>636.75</ele><time>2026-04-25T09:34:28.919Z</time></trkpt><trkpt lat="37.7073683" lon="14.8398817"><ele>638.0</ele><time>2026-04-25T09:34:29.919Z</time></trkpt><trkpt lat="37.7074883" lon="14.83982"><ele>638.0</ele><time>2026-04-25T09:34:30.919Z</time></trkpt><trkpt lat="37.7076067" lon="14.8397433"><ele>638.0</ele><time>2026-04-25T09:34:31.919Z</time></trkpt><trkpt lat="37.70772" lon="14.8396617"><ele>638.0</ele><time>2026-04-25T09:34:32.918Z</time></trkpt><trkpt lat="37.7078267" lon="14.8395817"><ele>638.0</ele><time>2026-04-25T09:34:33.919Z</time></trkpt><trkpt lat="37.70793" lon="14.8395"><ele>638.75</ele><time>2026-04-25T09:34:34.918Z</time></trkpt><trkpt lat="37.7080383" lon="14.8394117"><ele>639.5</ele><time>2026-04-25T09:34:35.919Z</time></trkpt><trkpt lat="37.7081467" lon="14.8393233"><ele>640.25</ele><time>2026-04-25T09:34:36.919Z</time></trkpt><trkpt lat="37.708255" lon="14.8392333"><ele>641.0</ele><time>2026-04-25T09:34:37.919Z</time></trkpt><trkpt lat="37.7083667" lon="14.8391517"><ele>641.75</ele><time>2026-04-25T09:34:38.919Z</time></trkpt><trkpt lat="37.7084767" lon="14.83907"><ele>642.5</ele><time>2026-04-25T09:34:39.918Z</time></trkpt><trkpt lat="37.7085933" lon="14.8389717"><ele>643.25</ele><time>2026-04-25T09:34:40.918Z</time></trkpt><trkpt lat="37.708715" lon="14.83886"><ele>644.0</ele><time>2026-04-25T09:34:41.919Z</time></trkpt><trkpt lat="37.7088433" lon="14.83875"><ele>644.5</ele><time>2026-04-25T09:34:42.919Z</time></trkpt><trkpt lat="37.7089733" lon="14.8386417"><ele>645.0</ele><time>2026-04-25T09:34:43.918Z</time></trkpt><trkpt lat="37.7091" lon="14.838555"><ele>645.5</ele><time>2026-04-25T09:34:44.918Z</time></trkpt><trkpt lat="37.709235" lon="14.8384733"><ele>646.0</ele><time>2026-04-25T09:34:45.919Z</time></trkpt><trkpt lat="37.7093733" lon="14.8383933"><ele>646.0</ele><time>2026-04-25T09:34:46.919Z</time></trkpt><trkpt lat="37.709505" lon="14.8383167"><ele>646.0</ele><time>2026-04-25T09:34:47.919Z</time></trkpt><trkpt lat="37.7096483" lon="14.83825"><ele>646.0</ele><time>2026-04-25T09:34:48.919Z</time></trkpt><trkpt lat="37.7097917" lon="14.8382"><ele>646.0</ele><time>2026-04-25T09:34:49.918Z</time></trkpt><trkpt lat="37.70994" lon="14.8381767"><ele>646.0</ele><time>2026-04-25T09:34:50.918Z</time></trkpt><trkpt lat="37.71009" lon="14.8381667"><ele>646.0</ele><time>2026-04-25T09:34:51.919Z</time></trkpt><trkpt lat="37.7102317" lon="14.8381733"><ele>646.0</ele><time>2026-04-25T09:34:52.918Z</time></trkpt><trkpt lat="37.7103667" lon="14.8381733"><ele>646.0</ele><time>2026-04-25T09:34:53.919Z</time></trkpt><trkpt lat="37.7105083" lon="14.8381717"><ele>645.5</ele><time>2026-04-25T09:34:54.918Z</time></trkpt><trkpt lat="37.7106467" lon="14.838165"><ele>645.0</ele><time>2026-04-25T09:34:55.919Z</time></trkpt><trkpt lat="37.71079" lon="14.83816"><ele>644.5</ele><time>2026-04-25T09:34:56.919Z</time></trkpt><trkpt lat="37.7109383" lon="14.8381533"><ele>644.0</ele><time>2026-04-25T09:34:57.919Z</time></trkpt><trkpt lat="37.711085" lon="14.8381283"><ele>643.6666666666666</ele><time>2026-04-25T09:34:58.919Z</time></trkpt><trkpt lat="37.71124" lon="14.8381033"><ele>643.3333333333334</ele><time>2026-04-25T09:34:59.918Z</time></trkpt><trkpt lat="37.7113933" lon="14.8380767"><ele>643.0</ele><time>2026-04-25T09:35:00.919Z</time></trkpt><trkpt lat="37.7115467" lon="14.8380433"><ele>643.0</ele><time>2026-04-25T09:35:01.919Z</time></trkpt><trkpt lat="37.7117033" lon="14.83801"><ele>643.0</ele><time>2026-04-25T09:35:02.919Z</time></trkpt><trkpt lat="37.711865" lon="14.8379683"><ele>643.0</ele><time>2026-04-25T09:35:03.918Z</time></trkpt><trkpt lat="37.7120283" lon="14.8379283"><ele>645.3333333333334</ele><time>2026-04-25T09:35:04.919Z</time></trkpt><trkpt lat="37.7121867" lon="14.8378883"><ele>647.6666666666666</ele><time>2026-04-25T09:35:05.919Z</time></trkpt><trkpt lat="37.71234" lon="14.837845"><ele>650.0</ele><time>2026-04-25T09:35:06.918Z</time></trkpt><trkpt lat="37.712495" lon="14.837805"><ele>650.0</ele><time>2026-04-25T09:35:07.919Z</time></trkpt><trkpt lat="37.71264" lon="14.837755"><ele>650.0</ele><time>2026-04-25T09:35:08.919Z</time></trkpt><trkpt lat="37.7127933" lon="14.8376983"><ele>650.0</ele><time>2026-04-25T09:35:09.919Z</time></trkpt><trkpt lat="37.7129433" lon="14.8376433"><ele>650.0</ele><time>2026-04-25T09:35:10.919Z</time></trkpt><trkpt lat="37.7130967" lon="14.8375817"><ele>650.0</ele><time>2026-04-25T09:35:11.919Z</time></trkpt><trkpt lat="37.71324" lon="14.8375233"><ele>650.0</ele><time>2026-04-25T09:35:12.918Z</time></trkpt><trkpt lat="37.713395" lon="14.837465"><ele>650.0</ele><time>2026-04-25T09:35:13.919Z</time></trkpt><trkpt lat="37.71355" lon="14.837395"><ele>650.0</ele><time>2026-04-25T09:35:14.918Z</time></trkpt><trkpt lat="37.71371" lon="14.8373283"><ele>650.0</ele><time>2026-04-25T09:35:15.919Z</time></trkpt><trkpt lat="37.713865" lon="14.8372733"><ele>651.6666666666666</ele><time>2026-04-25T09:35:16.918Z</time></trkpt><trkpt lat="37.7140183" lon="14.83722"><ele>653.3333333333334</ele><time>2026-04-25T09:35:17.918Z</time></trkpt><trkpt lat="37.71417" lon="14.8371483"><ele>655.0</ele><time>2026-04-25T09:35:18.917Z</time></trkpt><trkpt lat="37.71431" lon="14.8370867"><ele>657.3333333333334</ele><time>2026-04-25T09:35:19.917Z</time></trkpt><trkpt lat="37.71447" lon="14.8370083"><ele>659.6666666666666</ele><time>2026-04-25T09:35:20.918Z</time></trkpt><trkpt lat="37.7146333" lon="14.836915"><ele>662.0</ele><time>2026-04-25T09:35:21.918Z</time></trkpt><trkpt lat="37.714785" lon="14.8368133"><ele>660.6666666666666</ele><time>2026-04-25T09:35:22.917Z</time></trkpt><trkpt lat="37.714925" lon="14.83669"><ele>659.3333333333334</ele><time>2026-04-25T09:35:23.917Z</time></trkpt><trkpt lat="37.7150667" lon="14.8365533"><ele>658.0</ele><time>2026-04-25T09:35:24.917Z</time></trkpt><trkpt lat="37.7152017" lon="14.8364217"><ele>660.6666666666667</ele><time>2026-04-25T09:35:25.918Z</time></trkpt><trkpt lat="37.7153417" lon="14.8362933"><ele>663.3333333333334</ele><time>2026-04-25T09:35:26.917Z</time></trkpt><trkpt lat="37.7154667" lon="14.8361733"><ele>666.0</ele><time>2026-04-25T09:35:27.917Z</time></trkpt><trkpt lat="37.71558" lon="14.8360683"><ele>666.0</ele><time>2026-04-25T09:35:28.918Z</time></trkpt><trkpt lat="37.7156883" lon="14.8359783"><ele>666.0</ele><time>2026-04-25T09:35:29.918Z</time></trkpt><trkpt lat="37.7157867" lon="14.83589"><ele>666.0</ele><time>2026-04-25T09:35:30.917Z</time></trkpt><trkpt lat="37.7158833" lon="14.835795"><ele>666.0</ele><time>2026-04-25T09:35:31.918Z</time></trkpt><trkpt lat="37.7159817" lon="14.8356983"><ele>665.0</ele><time>2026-04-25T09:35:32.917Z</time></trkpt><trkpt lat="37.7160933" lon="14.8355983"><ele>664.0</ele><time>2026-04-25T09:35:33.918Z</time></trkpt><trkpt lat="37.7162017" lon="14.8355083"><ele>663.0</ele><time>2026-04-25T09:35:34.918Z</time></trkpt><trkpt lat="37.7163" lon="14.8354167"><ele>662.0</ele><time>2026-04-25T09:35:35.918Z</time></trkpt><trkpt lat="37.7164" lon="14.835315"><ele>662.0</ele><time>2026-04-25T09:35:36.918Z</time></trkpt><trkpt lat="37.7165067" lon="14.8352117"><ele>662.0</ele><time>2026-04-25T09:35:37.917Z</time></trkpt><trkpt lat="37.7166183" lon="14.8351067"><ele>662.0</ele><time>2026-04-25T09:35:38.918Z</time></trkpt><trkpt lat="37.7167383" lon="14.835"><ele>662.0</ele><time>2026-04-25T09:35:39.918Z</time></trkpt><trkpt lat="37.7168567" lon="14.8348867"><ele>661.3333333333333</ele><time>2026-04-25T09:35:40.918Z</time></trkpt><trkpt lat="37.7169867" lon="14.8347683"><ele>660.6666666666666</ele><time>2026-04-25T09:35:41.917Z</time></trkpt><trkpt lat="37.7171133" lon="14.834645"><ele>660.0</ele><time>2026-04-25T09:35:42.917Z</time></trkpt><trkpt lat="37.7172533" lon="14.8345183"><ele>660.0</ele><time>2026-04-25T09:35:43.918Z</time></trkpt><trkpt lat="37.71739" lon="14.834385"><ele>660.0</ele><time>2026-04-25T09:35:44.918Z</time></trkpt><trkpt lat="37.7175283" lon="14.8342533"><ele>660.0</ele><time>2026-04-25T09:35:45.918Z</time></trkpt><trkpt lat="37.7176633" lon="14.8341267"><ele>659.3333333333334</ele><time>2026-04-25T09:35:46.918Z</time></trkpt><trkpt lat="37.7177983" lon="14.833995"><ele>658.6666666666667</ele><time>2026-04-25T09:35:47.917Z</time></trkpt><trkpt lat="37.717935" lon="14.8338617"><ele>658.0</ele><time>2026-04-25T09:35:48.918Z</time></trkpt><trkpt lat="37.7180667" lon="14.8337333"><ele>658.0</ele><time>2026-04-25T09:35:49.918Z</time></trkpt><trkpt lat="37.7181917" lon="14.8336167"><ele>658.0</ele><time>2026-04-25T09:35:50.917Z</time></trkpt><trkpt lat="37.71833" lon="14.83353"><ele>658.0</ele><time>2026-04-25T09:35:51.918Z</time></trkpt><trkpt lat="37.7184767" lon="14.8334783"><ele>658.0</ele><time>2026-04-25T09:35:52.917Z</time></trkpt><trkpt lat="37.7186367" lon="14.83346"><ele>658.0</ele><time>2026-04-25T09:35:53.917Z</time></trkpt><trkpt lat="37.718795" lon="14.833465"><ele>658.0</ele><time>2026-04-25T09:35:54.918Z</time></trkpt><trkpt lat="37.7189533" lon="14.8335017"><ele>661.0</ele><time>2026-04-25T09:35:55.917Z</time></trkpt><trkpt lat="37.7190967" lon="14.83357"><ele>664.0</ele><time>2026-04-25T09:35:56.918Z</time></trkpt><trkpt lat="37.7192283" lon="14.83366"><ele>667.0</ele><time>2026-04-25T09:35:57.917Z</time></trkpt><trkpt lat="37.71935" lon="14.8337733"><ele>667.6666666666667</ele><time>2026-04-25T09:35:58.917Z</time></trkpt><trkpt lat="37.7194667" lon="14.8339133"><ele>668.3333333333334</ele><time>2026-04-25T09:35:59.918Z</time></trkpt><trkpt lat="37.71957" lon="14.8340617"><ele>669.0</ele><time>2026-04-25T09:36:00.918Z</time></trkpt><trkpt lat="37.719655" lon="14.8342233"><ele>671.25</ele><time>2026-04-25T09:36:01.917Z</time></trkpt><trkpt lat="37.719695" lon="14.834395"><ele>673.5</ele><time>2026-04-25T09:36:02.918Z</time></trkpt><trkpt lat="37.7197183" lon="14.8345467"><ele>675.75</ele><time>2026-04-25T09:36:03.918Z</time></trkpt><trkpt lat="37.7197267" lon="14.8347033"><ele>678.0</ele><time>2026-04-25T09:36:04.918Z</time></trkpt><trkpt lat="37.71973" lon="14.83485"><ele>678.0</ele><time>2026-04-25T09:36:05.918Z</time></trkpt><trkpt lat="37.7197383" lon="14.8349867"><ele>678.0</ele><time>2026-04-25T09:36:06.917Z</time></trkpt><trkpt lat="37.7197733" lon="14.8351267"><ele>678.0</ele><time>2026-04-25T09:36:07.917Z</time></trkpt><trkpt lat="37.7198167" lon="14.8352617"><ele>678.0</ele><time>2026-04-25T09:36:08.917Z</time></trkpt><trkpt lat="37.7198883" lon="14.8353883"><ele>680.0</ele><time>2026-04-25T09:36:09.917Z</time></trkpt><trkpt lat="37.7199733" lon="14.8355133"><ele>682.0</ele><time>2026-04-25T09:36:10.917Z</time></trkpt><trkpt lat="37.7200783" lon="14.8356133"><ele>684.0</ele><time>2026-04-25T09:36:11.917Z</time></trkpt><trkpt lat="37.7201933" lon="14.8356933"><ele>686.0</ele><time>2026-04-25T09:36:12.917Z</time></trkpt><trkpt lat="37.7203117" lon="14.8357633"><ele>686.25</ele><time>2026-04-25T09:36:13.917Z</time></trkpt><trkpt lat="37.72045" lon="14.8358133"><ele>686.5</ele><time>2026-04-25T09:36:14.918Z</time></trkpt><trkpt lat="37.7205833" lon="14.8358517"><ele>686.75</ele><time>2026-04-25T09:36:15.918Z</time></trkpt><trkpt lat="37.7207183" lon="14.8358617"><ele>687.0</ele><time>2026-04-25T09:36:16.918Z</time></trkpt><trkpt lat="37.720865" lon="14.8358483"><ele>687.0</ele><time>2026-04-25T09:36:17.917Z</time></trkpt><trkpt lat="37.721005" lon="14.83581"><ele>687.0</ele><time>2026-04-25T09:36:18.918Z</time></trkpt><trkpt lat="37.7211367" lon="14.835745"><ele>687.0</ele><time>2026-04-25T09:36:19.918Z</time></trkpt><trkpt lat="37.72127" lon="14.8356783"><ele>687.0</ele><time>2026-04-25T09:36:20.917Z</time></trkpt><trkpt lat="37.7213967" lon="14.8356083"><ele>691.25</ele><time>2026-04-25T09:36:21.918Z</time></trkpt><trkpt lat="37.7215267" lon="14.8355483"><ele>695.5</ele><time>2026-04-25T09:36:22.918Z</time></trkpt><trkpt lat="37.7216633" lon="14.8354983"><ele>699.75</ele><time>2026-04-25T09:36:23.918Z</time></trkpt><trkpt lat="37.721795" lon="14.835435"><ele>704.0</ele><time>2026-04-25T09:36:24.917Z</time></trkpt><trkpt lat="37.721935" lon="14.8353733"><ele>707.3333333333333</ele><time>2026-04-25T09:36:25.917Z</time></trkpt><trkpt lat="37.7220817" lon="14.8353067"><ele>710.6666666666666</ele><time>2026-04-25T09:36:26.918Z</time></trkpt><trkpt lat="37.7222267" lon="14.8352317"><ele>714.0</ele><time>2026-04-25T09:36:27.918Z</time></trkpt><trkpt lat="37.7223733" lon="14.8351533"><ele>713.6666666666666</ele><time>2026-04-25T09:36:28.918Z</time></trkpt><trkpt lat="37.72252" lon="14.8350733"><ele>713.3333333333333</ele><time>2026-04-25T09:36:29.918Z</time></trkpt><trkpt lat="37.7226567" lon="14.8349967"><ele>713.0</ele><time>2026-04-25T09:36:30.918Z</time></trkpt><trkpt lat="37.7227967" lon="14.8349183"><ele>713.0</ele><time>2026-04-25T09:36:31.918Z</time></trkpt><trkpt lat="37.7229383" lon="14.834845"><ele>713.0</ele><time>2026-04-25T09:36:32.918Z</time></trkpt><trkpt lat="37.7230683" lon="14.83478"><ele>713.0</ele><time>2026-04-25T09:36:33.918Z</time></trkpt><trkpt lat="37.7232133" lon="14.8347217"><ele>713.0</ele><time>2026-04-25T09:36:34.918Z</time></trkpt><trkpt lat="37.7233717" lon="14.834695"><ele>713.0</ele><time>2026-04-25T09:36:35.918Z</time></trkpt><trkpt lat="37.723525" lon="14.8346867"><ele>713.0</ele><time>2026-04-25T09:36:36.918Z</time></trkpt><trkpt lat="37.7236683" lon="14.8347083"><ele>713.0</ele><time>2026-04-25T09:36:37.917Z</time></trkpt><trkpt lat="37.7237967" lon="14.834745"><ele>713.0</ele><time>2026-04-25T09:36:38.918Z</time></trkpt><trkpt lat="37.7239217" lon="14.83479"><ele>713.75</ele><time>2026-04-25T09:36:39.918Z</time></trkpt><trkpt lat="37.7240467" lon="14.8348233"><ele>714.5</ele><time>2026-04-25T09:36:40.918Z</time></trkpt><trkpt lat="37.724175" lon="14.834845"><ele>715.25</ele><time>2026-04-25T09:36:41.918Z</time></trkpt><trkpt lat="37.7243033" lon="14.8348667"><ele>716.0</ele><time>2026-04-25T09:36:42.917Z</time></trkpt><trkpt lat="37.7244433" lon="14.8348783"><ele>716.5</ele><time>2026-04-25T09:36:43.918Z</time></trkpt><trkpt lat="37.7245783" lon="14.8348967"><ele>717.0</ele><time>2026-04-25T09:36:44.918Z</time></trkpt><trkpt lat="37.724725" lon="14.8349083"><ele>717.5</ele><time>2026-04-25T09:36:45.918Z</time></trkpt><trkpt lat="37.724865" lon="14.8349167"><ele>718.0</ele><time>2026-04-25T09:36:46.918Z</time></trkpt><trkpt lat="37.7250117" lon="14.834915"><ele>718.0</ele><time>2026-04-25T09:36:47.917Z</time></trkpt><trkpt lat="37.7251583" lon="14.8348917"><ele>718.0</ele><time>2026-04-25T09:36:48.917Z</time></trkpt><trkpt lat="37.72531" lon="14.8348367"><ele>718.0</ele><time>2026-04-25T09:36:49.917Z</time></trkpt><trkpt lat="37.7254683" lon="14.8347583"><ele>719.3333333333334</ele><time>2026-04-25T09:36:50.918Z</time></trkpt><trkpt lat="37.7256183" lon="14.8346783"><ele>720.6666666666666</ele><time>2026-04-25T09:36:51.918Z</time></trkpt><trkpt lat="37.7257583" lon="14.8345967"><ele>722.0</ele><time>2026-04-25T09:36:52.918Z</time></trkpt><trkpt lat="37.7258967" lon="14.8345033"><ele>722.0</ele><time>2026-04-25T09:36:53.918Z</time></trkpt><trkpt lat="37.726035" lon="14.83441"><ele>722.0</ele><time>2026-04-25T09:36:54.918Z</time></trkpt><trkpt lat="37.7261733" lon="14.83432"><ele>722.0</ele><time>2026-04-25T09:36:55.917Z</time></trkpt><trkpt lat="37.7263117" lon="14.8342333"><ele>719.6666666666666</ele><time>2026-04-25T09:36:56.918Z</time></trkpt><trkpt lat="37.7264483" lon="14.83415"><ele>717.3333333333334</ele><time>2026-04-25T09:36:57.918Z</time></trkpt><trkpt lat="37.7265767" lon="14.8340583"><ele>715.0</ele><time>2026-04-25T09:36:58.918Z</time></trkpt><trkpt lat="37.7267133" lon="14.833975"><ele>715.0</ele><time>2026-04-25T09:36:59.918Z</time></trkpt><trkpt lat="37.7268433" lon="14.8338917"><ele>715.0</ele><time>2026-04-25T09:37:00.918Z</time></trkpt><trkpt lat="37.72697" lon="14.8338133"><ele>715.0</ele><time>2026-04-25T09:37:01.917Z</time></trkpt><trkpt lat="37.7270967" lon="14.8337367"><ele>715.0</ele><time>2026-04-25T09:37:02.917Z</time></trkpt><trkpt lat="37.7272217" lon="14.833665"><ele>715.0</ele><time>2026-04-25T09:37:03.918Z</time></trkpt><trkpt lat="37.7273433" lon="14.8335833"><ele>715.0</ele><time>2026-04-25T09:37:04.918Z</time></trkpt><trkpt lat="37.72747" lon="14.8334783"><ele>715.0</ele><time>2026-04-25T09:37:05.918Z</time></trkpt><trkpt lat="37.7275883" lon="14.8333617"><ele>715.0</ele><time>2026-04-25T09:37:06.917Z</time></trkpt><trkpt lat="37.72771" lon="14.83323"><ele>714.5</ele><time>2026-04-25T09:37:07.917Z</time></trkpt><trkpt lat="37.7278217" lon="14.833105"><ele>714.0</ele><time>2026-04-25T09:37:08.918Z</time></trkpt><trkpt lat="37.727925" lon="14.8329833"><ele>713.5</ele><time>2026-04-25T09:37:09.918Z</time></trkpt><trkpt lat="37.72803" lon="14.83286"><ele>713.0</ele><time>2026-04-25T09:37:10.917Z</time></trkpt><trkpt lat="37.7281333" lon="14.8327367"><ele>711.5</ele><time>2026-04-25T09:37:11.918Z</time></trkpt><trkpt lat="37.7282417" lon="14.8326067"><ele>710.0</ele><time>2026-04-25T09:37:12.918Z</time></trkpt><trkpt lat="37.7283467" lon="14.83248"><ele>708.5</ele><time>2026-04-25T09:37:13.917Z</time></trkpt><trkpt lat="37.7284617" lon="14.8323633"><ele>707.0</ele><time>2026-04-25T09:37:14.918Z</time></trkpt><trkpt lat="37.7285817" lon="14.8322533"><ele>707.0</ele><time>2026-04-25T09:37:15.918Z</time></trkpt><trkpt lat="37.7287017" lon="14.8321317"><ele>707.0</ele><time>2026-04-25T09:37:16.918Z</time></trkpt><trkpt lat="37.7288267" lon="14.83203"><ele>707.0</ele><time>2026-04-25T09:37:17.918Z</time></trkpt><trkpt lat="37.7289667" lon="14.8319483"><ele>707.0</ele><time>2026-04-25T09:37:18.917Z</time></trkpt><trkpt lat="37.7291133" lon="14.83188"><ele>707.0</ele><time>2026-04-25T09:37:19.918Z</time></trkpt><trkpt lat="37.729255" lon="14.8318183"><ele>707.0</ele><time>2026-04-25T09:37:20.918Z</time></trkpt><trkpt lat="37.7293967" lon="14.8317417"><ele>704.3333333333333</ele><time>2026-04-25T09:37:21.918Z</time></trkpt><trkpt lat="37.72954" lon="14.83167"><ele>701.6666666666666</ele><time>2026-04-25T09:37:22.918Z</time></trkpt><trkpt lat="37.7296833" lon="14.83161"><ele>699.0</ele><time>2026-04-25T09:37:23.918Z</time></trkpt><trkpt lat="37.7298317" lon="14.83154"><ele>699.0</ele><time>2026-04-25T09:37:24.917Z</time></trkpt><trkpt lat="37.7299733" lon="14.8314783"><ele>699.0</ele><time>2026-04-25T09:37:25.918Z</time></trkpt><trkpt lat="37.7301017" lon="14.8314133"><ele>699.0</ele><time>2026-04-25T09:37:26.917Z</time></trkpt><trkpt lat="37.7302283" lon="14.831345"><ele>699.0</ele><time>2026-04-25T09:37:27.918Z</time></trkpt><trkpt lat="37.7303633" lon="14.8312767"><ele>701.25</ele><time>2026-04-25T09:37:28.918Z</time></trkpt><trkpt lat="37.7304917" lon="14.8312083"><ele>703.5</ele><time>2026-04-25T09:37:29.918Z</time></trkpt><trkpt lat="37.7306083" lon="14.83114"><ele>705.75</ele><time>2026-04-25T09:37:30.917Z</time></trkpt><trkpt lat="37.7307367" lon="14.83109"><ele>708.0</ele><time>2026-04-25T09:37:31.917Z</time></trkpt><trkpt lat="37.73086" lon="14.8310317"><ele>706.0</ele><time>2026-04-25T09:37:32.918Z</time></trkpt><trkpt lat="37.730985" lon="14.8309717"><ele>704.0</ele><time>2026-04-25T09:37:33.918Z</time></trkpt><trkpt lat="37.731105" lon="14.8309"><ele>702.0</ele><time>2026-04-25T09:37:34.918Z</time></trkpt><trkpt lat="37.731235" lon="14.830855"><ele>700.0</ele><time>2026-04-25T09:37:35.918Z</time></trkpt><trkpt lat="37.731355" lon="14.8307983"><ele>700.0</ele><time>2026-04-25T09:37:36.917Z</time></trkpt><trkpt lat="37.7314783" lon="14.8307433"><ele>700.0</ele><time>2026-04-25T09:37:37.917Z</time></trkpt><trkpt lat="37.731595" lon="14.8306983"><ele>700.0</ele><time>2026-04-25T09:37:38.918Z</time></trkpt><trkpt lat="37.73171" lon="14.8306767"><ele>700.0</ele><time>2026-04-25T09:37:39.917Z</time></trkpt><trkpt lat="37.73182" lon="14.8306717"><ele>699.4</ele><time>2026-04-25T09:37:40.917Z</time></trkpt><trkpt lat="37.7319283" lon="14.8306917"><ele>698.8</ele><time>2026-04-25T09:37:41.918Z</time></trkpt><trkpt lat="37.732025" lon="14.830735"><ele>698.2</ele><time>2026-04-25T09:37:42.918Z</time></trkpt><trkpt lat="37.732125" lon="14.83078"><ele>697.6</ele><time>2026-04-25T09:37:43.918Z</time></trkpt><trkpt lat="37.7322217" lon="14.8308267"><ele>697.0</ele><time>2026-04-25T09:37:44.918Z</time></trkpt><trkpt lat="37.7323267" lon="14.830875"><ele>697.0</ele><time>2026-04-25T09:37:45.918Z</time></trkpt><trkpt lat="37.7324383" lon="14.8309117"><ele>697.0</ele><time>2026-04-25T09:37:46.918Z</time></trkpt><trkpt lat="37.7325483" lon="14.83094"><ele>697.0</ele><time>2026-04-25T09:37:47.918Z</time></trkpt><trkpt lat="37.732655" lon="14.8309467"><ele>697.0</ele><time>2026-04-25T09:37:48.917Z</time></trkpt><trkpt lat="37.7327717" lon="14.8309333"><ele>697.5</ele><time>2026-04-25T09:37:49.918Z</time></trkpt><trkpt lat="37.732895" lon="14.8309083"><ele>698.0</ele><time>2026-04-25T09:37:50.918Z</time></trkpt><trkpt lat="37.7330267" lon="14.8308767"><ele>698.5</ele><time>2026-04-25T09:37:51.917Z</time></trkpt><trkpt lat="37.7331567" lon="14.8308417"><ele>699.0</ele><time>2026-04-25T09:37:52.918Z</time></trkpt><trkpt lat="37.7332933" lon="14.83079"><ele>699.0</ele><time>2026-04-25T09:37:53.918Z</time></trkpt><trkpt lat="37.73343" lon="14.8307217"><ele>699.0</ele><time>2026-04-25T09:37:54.917Z</time></trkpt><trkpt lat="37.73356" lon="14.830645"><ele>699.0</ele><time>2026-04-25T09:37:55.918Z</time></trkpt><trkpt lat="37.73368" lon="14.83056"><ele>699.0</ele><time>2026-04-25T09:37:56.918Z</time></trkpt><trkpt lat="37.7337933" lon="14.830475"><ele>699.75</ele><time>2026-04-25T09:37:57.918Z</time></trkpt><trkpt lat="37.7339017" lon="14.8303867"><ele>700.5</ele><time>2026-04-25T09:37:58.918Z</time></trkpt><trkpt lat="37.7340117" lon="14.8302983"><ele>701.25</ele><time>2026-04-25T09:37:59.917Z</time></trkpt><trkpt lat="37.73412" lon="14.8302167"><ele>702.0</ele><time>2026-04-25T09:38:00.918Z</time></trkpt><trkpt lat="37.7342583" lon="14.8301533"><ele>700.25</ele><time>2026-04-25T09:38:01.918Z</time></trkpt><trkpt lat="37.7343983" lon="14.8301133"><ele>698.5</ele><time>2026-04-25T09:38:02.917Z</time></trkpt><trkpt lat="37.7345317" lon="14.8301067"><ele>696.75</ele><time>2026-04-25T09:38:03.917Z</time></trkpt><trkpt lat="37.734675" lon="14.8301217"><ele>695.0</ele><time>2026-04-25T09:38:04.918Z</time></trkpt><trkpt lat="37.7348133" lon="14.8301283"><ele>695.75</ele><time>2026-04-25T09:38:05.918Z</time></trkpt><trkpt lat="37.7349483" lon="14.8301417"><ele>696.5</ele><time>2026-04-25T09:38:06.918Z</time></trkpt><trkpt lat="37.7350833" lon="14.830145"><ele>697.25</ele><time>2026-04-25T09:38:07.918Z</time></trkpt><trkpt lat="37.7352233" lon="14.83015"><ele>698.0</ele><time>2026-04-25T09:38:08.917Z</time></trkpt><trkpt lat="37.7353567" lon="14.83014"><ele>698.0</ele><time>2026-04-25T09:38:09.917Z</time></trkpt><trkpt lat="37.7354933" lon="14.8301233"><ele>698.0</ele><time>2026-04-25T09:38:10.918Z</time></trkpt><trkpt lat="37.735635" lon="14.8300967"><ele>698.0</ele><time>2026-04-25T09:38:11.918Z</time></trkpt><trkpt lat="37.7357717" lon="14.83006"><ele>698.0</ele><time>2026-04-25T09:38:12.918Z</time></trkpt><trkpt lat="37.735905" lon="14.8300017"><ele>698.0</ele><time>2026-04-25T09:38:13.917Z</time></trkpt><trkpt lat="37.736045" lon="14.8299367"><ele>698.0</ele><time>2026-04-25T09:38:14.918Z</time></trkpt><trkpt lat="37.7362017" lon="14.8298567"><ele>698.0</ele><time>2026-04-25T09:38:15.918Z</time></trkpt><trkpt lat="37.73638" lon="14.8297683"><ele>699.6666666666666</ele><time>2026-04-25T09:38:16.917Z</time></trkpt><trkpt lat="37.736575" lon="14.8296867"><ele>701.3333333333334</ele><time>2026-04-25T09:38:17.918Z</time></trkpt><trkpt lat="37.7367883" lon="14.8296083"><ele>703.0</ele><time>2026-04-25T09:38:18.918Z</time></trkpt><trkpt lat="37.737005" lon="14.82955"><ele>705.3333333333334</ele><time>2026-04-25T09:38:19.917Z</time></trkpt><trkpt lat="37.7372167" lon="14.8294983"><ele>707.6666666666666</ele><time>2026-04-25T09:38:20.918Z</time></trkpt><trkpt lat="37.7374283" lon="14.8294533"><ele>710.0</ele><time>2026-04-25T09:38:21.917Z</time></trkpt><trkpt lat="37.7376367" lon="14.829415"><ele>710.6666666666666</ele><time>2026-04-25T09:38:22.918Z</time></trkpt><trkpt lat="37.73784" lon="14.82937"><ele>711.3333333333334</ele><time>2026-04-25T09:38:23.917Z</time></trkpt><trkpt lat="37.7380433" lon="14.829325"><ele>712.0</ele><time>2026-04-25T09:38:24.918Z</time></trkpt><trkpt lat="37.73824" lon="14.8292783"><ele>712.0</ele><time>2026-04-25T09:38:25.918Z</time></trkpt><trkpt lat="37.7384317" lon="14.8292367"><ele>712.0</ele><time>2026-04-25T09:38:26.917Z</time></trkpt><trkpt lat="37.7386117" lon="14.8291933"><ele>712.0</ele><time>2026-04-25T09:38:27.917Z</time></trkpt><trkpt lat="37.738775" lon="14.8291517"><ele>713.75</ele><time>2026-04-25T09:38:28.918Z</time></trkpt><trkpt lat="37.7389217" lon="14.8291083"><ele>715.5</ele><time>2026-04-25T09:38:29.918Z</time></trkpt><trkpt lat="37.7390667" lon="14.82905"><ele>717.25</ele><time>2026-04-25T09:38:30.918Z</time></trkpt><trkpt lat="37.7392017" lon="14.8289783"><ele>719.0</ele><time>2026-04-25T09:38:31.917Z</time></trkpt><trkpt lat="37.7393283" lon="14.828895"><ele>720.5</ele><time>2026-04-25T09:38:32.918Z</time></trkpt><trkpt lat="37.739445" lon="14.8288167"><ele>722.0</ele><time>2026-04-25T09:38:33.918Z</time></trkpt><trkpt lat="37.7395667" lon="14.8287517"><ele>723.5</ele><time>2026-04-25T09:38:34.917Z</time></trkpt><trkpt lat="37.7396783" lon="14.828705"><ele>725.0</ele><time>2026-04-25T09:38:35.917Z</time></trkpt><trkpt lat="37.7398" lon="14.82869"><ele>725.0</ele><time>2026-04-25T09:38:36.918Z</time></trkpt><trkpt lat="37.7399183" lon="14.82869"><ele>725.0</ele><time>2026-04-25T09:38:37.918Z</time></trkpt><trkpt lat="37.7400333" lon="14.8287067"><ele>725.0</ele><time>2026-04-25T09:38:38.917Z</time></trkpt><trkpt lat="37.740145" lon="14.8287433"><ele>725.0</ele><time>2026-04-25T09:38:39.918Z</time></trkpt><trkpt lat="37.740255" lon="14.82879"><ele>725.25</ele><time>2026-04-25T09:38:40.918Z</time></trkpt><trkpt lat="37.740375" lon="14.8288383"><ele>725.5</ele><time>2026-04-25T09:38:41.918Z</time></trkpt><trkpt lat="37.7404933" lon="14.828895"><ele>725.75</ele><time>2026-04-25T09:38:42.917Z</time></trkpt><trkpt lat="37.7406183" lon="14.8289467"><ele>726.0</ele><time>2026-04-25T09:38:43.918Z</time></trkpt><trkpt lat="37.7407417" lon="14.8290017"><ele>726.0</ele><time>2026-04-25T09:38:44.917Z</time></trkpt><trkpt lat="37.74087" lon="14.82905"><ele>726.0</ele><time>2026-04-25T09:38:45.918Z</time></trkpt><trkpt lat="37.74099" lon="14.8290967"><ele>726.0</ele><time>2026-04-25T09:38:46.917Z</time></trkpt><trkpt lat="37.741105" lon="14.8291483"><ele>726.0</ele><time>2026-04-25T09:38:47.918Z</time></trkpt><trkpt lat="37.7412133" lon="14.829205"><ele>727.0</ele><time>2026-04-25T09:38:48.917Z</time></trkpt><trkpt lat="37.7413233" lon="14.82927"><ele>728.0</ele><time>2026-04-25T09:38:49.918Z</time></trkpt><trkpt lat="37.7414333" lon="14.8293417"><ele>729.0</ele><time>2026-04-25T09:38:50.917Z</time></trkpt><trkpt lat="37.7415433" lon="14.82943"><ele>730.0</ele><time>2026-04-25T09:38:51.918Z</time></trkpt><trkpt lat="37.7416483" lon="14.8295267"><ele>732.0</ele><time>2026-04-25T09:38:52.917Z</time></trkpt><trkpt lat="37.7417417" lon="14.8296417"><ele>734.0</ele><time>2026-04-25T09:38:53.918Z</time></trkpt><trkpt lat="37.7418167" lon="14.8297667"><ele>736.0</ele><time>2026-04-25T09:38:54.918Z</time></trkpt><trkpt lat="37.7418833" lon="14.8298967"><ele>738.0</ele><time>2026-04-25T09:38:55.918Z</time></trkpt><trkpt lat="37.7419633" lon="14.830025"><ele>738.25</ele><time>2026-04-25T09:38:56.917Z</time></trkpt><trkpt lat="37.7420483" lon="14.8301383"><ele>738.5</ele><time>2026-04-25T09:38:57.918Z</time></trkpt><trkpt lat="37.7421483" lon="14.8302567"><ele>738.75</ele><time>2026-04-25T09:38:58.918Z</time></trkpt><trkpt lat="37.74225" lon="14.8303733"><ele>739.0</ele><time>2026-04-25T09:38:59.918Z</time></trkpt><trkpt lat="37.7423533" lon="14.8304667"><ele>740.5</ele><time>2026-04-25T09:39:00.918Z</time></trkpt><trkpt lat="37.7424517" lon="14.830545"><ele>742.0</ele><time>2026-04-25T09:39:01.918Z</time></trkpt><trkpt lat="37.7425667" lon="14.83061"><ele>743.5</ele><time>2026-04-25T09:39:02.917Z</time></trkpt><trkpt lat="37.7426833" lon="14.8306517"><ele>745.0</ele><time>2026-04-25T09:39:03.918Z</time></trkpt><trkpt lat="37.7428017" lon="14.830685"><ele>746.25</ele><time>2026-04-25T09:39:04.918Z</time></trkpt><trkpt lat="37.7429233" lon="14.8307083"><ele>747.5</ele><time>2026-04-25T09:39:05.918Z</time></trkpt><trkpt lat="37.7430383" lon="14.8307167"><ele>748.75</ele><time>2026-04-25T09:39:06.918Z</time></trkpt><trkpt lat="37.743155" lon="14.83072"><ele>750.0</ele><time>2026-04-25T09:39:07.918Z</time></trkpt><trkpt lat="37.7432667" lon="14.8307133"><ele>750.0</ele><time>2026-04-25T09:39:08.917Z</time></trkpt><trkpt lat="37.74339" lon="14.830685"><ele>750.0</ele><time>2026-04-25T09:39:09.918Z</time></trkpt><trkpt lat="37.74353" lon="14.8306533"><ele>750.0</ele><time>2026-04-25T09:39:10.918Z</time></trkpt><trkpt lat="37.74368" lon="14.8306067"><ele>750.0</ele><time>2026-04-25T09:39:11.918Z</time></trkpt><trkpt lat="37.74383" lon="14.8305783"><ele>750.25</ele><time>2026-04-25T09:39:12.918Z</time></trkpt><trkpt lat="37.7439783" lon="14.8305467"><ele>750.5</ele><time>2026-04-25T09:39:13.918Z</time></trkpt><trkpt lat="37.7441083" lon="14.8305133"><ele>750.75</ele><time>2026-04-25T09:39:14.918Z</time></trkpt><trkpt lat="37.7442183" lon="14.8304683"><ele>751.0</ele><time>2026-04-25T09:39:15.918Z</time></trkpt><trkpt lat="37.7443283" lon="14.8304183"><ele>752.0</ele><time>2026-04-25T09:39:16.918Z</time></trkpt><trkpt lat="37.7444417" lon="14.8303633"><ele>753.0</ele><time>2026-04-25T09:39:17.917Z</time></trkpt><trkpt lat="37.7445667" lon="14.8302967"><ele>754.0</ele><time>2026-04-25T09:39:18.918Z</time></trkpt><trkpt lat="37.7446917" lon="14.8302233"><ele>755.0</ele><time>2026-04-25T09:39:19.918Z</time></trkpt><trkpt lat="37.7448133" lon="14.8301533"><ele>754.5</ele><time>2026-04-25T09:39:20.918Z</time></trkpt><trkpt lat="37.744935" lon="14.8300617"><ele>754.0</ele><time>2026-04-25T09:39:21.918Z</time></trkpt><trkpt lat="37.74505" lon="14.82998"><ele>753.5</ele><time>2026-04-25T09:39:22.917Z</time></trkpt><trkpt lat="37.745165" lon="14.829895"><ele>753.0</ele><time>2026-04-25T09:39:23.918Z</time></trkpt><trkpt lat="37.7452683" lon="14.829805"><ele>753.0</ele><time>2026-04-25T09:39:24.917Z</time></trkpt><trkpt lat="37.745375" lon="14.8297117"><ele>753.0</ele><time>2026-04-25T09:39:25.918Z</time></trkpt><trkpt lat="37.745485" lon="14.829615"><ele>753.0</ele><time>2026-04-25T09:39:26.918Z</time></trkpt><trkpt lat="37.7455967" lon="14.8295217"><ele>753.0</ele><time>2026-04-25T09:39:27.918Z</time></trkpt><trkpt lat="37.7457083" lon="14.8294267"><ele>753.0</ele><time>2026-04-25T09:39:28.917Z</time></trkpt><trkpt lat="37.7458233" lon="14.8293317"><ele>753.0</ele><time>2026-04-25T09:39:29.917Z</time></trkpt><trkpt lat="37.7459417" lon="14.8292383"><ele>753.0</ele><time>2026-04-25T09:39:30.918Z</time></trkpt><trkpt lat="37.7460467" lon="14.8291467"><ele>753.0</ele><time>2026-04-25T09:39:31.918Z</time></trkpt><trkpt lat="37.746155" lon="14.829055"><ele>752.5</ele><time>2026-04-25T09:39:32.918Z</time></trkpt><trkpt lat="37.74626" lon="14.8289667"><ele>752.0</ele><time>2026-04-25T09:39:33.918Z</time></trkpt><trkpt lat="37.7463633" lon="14.8288883"><ele>751.5</ele><time>2026-04-25T09:39:34.918Z</time></trkpt><trkpt lat="37.74647" lon="14.8287983"><ele>751.0</ele><time>2026-04-25T09:39:35.916Z</time></trkpt><trkpt lat="37.7465617" lon="14.828715"><ele>751.0</ele><time>2026-04-25T09:39:36.916Z</time></trkpt><trkpt lat="37.74666" lon="14.8286283"><ele>751.0</ele><time>2026-04-25T09:39:37.917Z</time></trkpt><trkpt lat="37.7467483" lon="14.828535"><ele>751.0</ele><time>2026-04-25T09:39:38.916Z</time></trkpt><trkpt lat="37.746845" lon="14.8284367"><ele>751.0</ele><time>2026-04-25T09:39:39.916Z</time></trkpt><trkpt lat="37.7469467" lon="14.8283333"><ele>750.75</ele><time>2026-04-25T09:39:40.917Z</time></trkpt><trkpt lat="37.7470567" lon="14.8282233"><ele>750.5</ele><time>2026-04-25T09:39:41.917Z</time></trkpt><trkpt lat="37.7471617" lon="14.82812"><ele>750.25</ele><time>2026-04-25T09:39:42.916Z</time></trkpt><trkpt lat="37.7472617" lon="14.8280133"><ele>750.0</ele><time>2026-04-25T09:39:43.916Z</time></trkpt><trkpt lat="37.747365" lon="14.8279017"><ele>750.0</ele><time>2026-04-25T09:39:44.917Z</time></trkpt><trkpt lat="37.7474683" lon="14.8277917"><ele>750.0</ele><time>2026-04-25T09:39:45.917Z</time></trkpt><trkpt lat="37.747575" lon="14.8276783"><ele>750.0</ele><time>2026-04-25T09:39:46.916Z</time></trkpt><trkpt lat="37.74769" lon="14.8275617"><ele>750.0</ele><time>2026-04-25T09:39:47.917Z</time></trkpt><trkpt lat="37.7477983" lon="14.8274517"><ele>749.0</ele><time>2026-04-25T09:39:48.917Z</time></trkpt><trkpt lat="37.7479267" lon="14.8273317"><ele>748.0</ele><time>2026-04-25T09:39:49.916Z</time></trkpt><trkpt lat="37.7480717" lon="14.82721"><ele>747.0</ele><time>2026-04-25T09:39:50.917Z</time></trkpt><trkpt lat="37.7482283" lon="14.8270867"><ele>747.0</ele><time>2026-04-25T09:39:51.917Z</time></trkpt><trkpt lat="37.7483883" lon="14.8269717"><ele>747.0</ele><time>2026-04-25T09:39:52.916Z</time></trkpt><trkpt lat="37.7485333" lon="14.8268633"><ele>747.0</ele><time>2026-04-25T09:39:53.917Z</time></trkpt><trkpt lat="37.74867" lon="14.8267683"><ele>745.75</ele><time>2026-04-25T09:39:54.916Z</time></trkpt><trkpt lat="37.7487933" lon="14.8266767"><ele>744.5</ele><time>2026-04-25T09:39:55.917Z</time></trkpt><trkpt lat="37.7489133" lon="14.8265883"><ele>743.25</ele><time>2026-04-25T09:39:56.917Z</time></trkpt><trkpt lat="37.7490233" lon="14.82651"><ele>742.0</ele><time>2026-04-25T09:39:57.917Z</time></trkpt><trkpt lat="37.7491283" lon="14.8264267"><ele>742.0</ele><time>2026-04-25T09:39:58.916Z</time></trkpt><trkpt lat="37.749235" lon="14.8263367"><ele>742.0</ele><time>2026-04-25T09:39:59.917Z</time></trkpt><trkpt lat="37.749345" lon="14.8262583"><ele>742.0</ele><time>2026-04-25T09:40:00.917Z</time></trkpt><trkpt lat="37.7494567" lon="14.8261817"><ele>742.0</ele><time>2026-04-25T09:40:01.916Z</time></trkpt><trkpt lat="37.7495733" lon="14.826105"><ele>740.75</ele><time>2026-04-25T09:40:02.916Z</time></trkpt><trkpt lat="37.749695" lon="14.8260267"><ele>739.5</ele><time>2026-04-25T09:40:03.917Z</time></trkpt><trkpt lat="37.7498133" lon="14.825945"><ele>738.25</ele><time>2026-04-25T09:40:04.917Z</time></trkpt><trkpt lat="37.7499267" lon="14.82586"><ele>737.0</ele><time>2026-04-25T09:40:05.917Z</time></trkpt><trkpt lat="37.7500433" lon="14.8257683"><ele>736.5</ele><time>2026-04-25T09:40:06.916Z</time></trkpt><trkpt lat="37.7501567" lon="14.8256567"><ele>736.0</ele><time>2026-04-25T09:40:07.917Z</time></trkpt><trkpt lat="37.750265" lon="14.8255367"><ele>735.5</ele><time>2026-04-25T09:40:08.917Z</time></trkpt><trkpt lat="37.750365" lon="14.8253967"><ele>735.0</ele><time>2026-04-25T09:40:09.917Z</time></trkpt><trkpt lat="37.7504683" lon="14.825255"><ele>733.0</ele><time>2026-04-25T09:40:10.916Z</time></trkpt><trkpt lat="37.7505717" lon="14.8251217"><ele>731.0</ele><time>2026-04-25T09:40:11.916Z</time></trkpt><trkpt lat="37.7506833" lon="14.8249933"><ele>729.0</ele><time>2026-04-25T09:40:12.917Z</time></trkpt><trkpt lat="37.7508067" lon="14.8248817"><ele>729.0</ele><time>2026-04-25T09:40:13.917Z</time></trkpt><trkpt lat="37.7509383" lon="14.8247917"><ele>729.0</ele><time>2026-04-25T09:40:14.916Z</time></trkpt><trkpt lat="37.751075" lon="14.8247033"><ele>729.0</ele><time>2026-04-25T09:40:15.916Z</time></trkpt><trkpt lat="37.7512133" lon="14.8246367"><ele>726.0</ele><time>2026-04-25T09:40:16.917Z</time></trkpt><trkpt lat="37.75136" lon="14.8245933"><ele>723.0</ele><time>2026-04-25T09:40:17.917Z</time></trkpt><trkpt lat="37.7515067" lon="14.8245767"><ele>720.0</ele><time>2026-04-25T09:40:18.916Z</time></trkpt><trkpt lat="37.751675" lon="14.82457"><ele>720.0</ele><time>2026-04-25T09:40:19.917Z</time></trkpt><trkpt lat="37.7518633" lon="14.824575"><ele>720.0</ele><time>2026-04-25T09:40:20.917Z</time></trkpt><trkpt lat="37.7520733" lon="14.8245933"><ele>720.0</ele><time>2026-04-25T09:40:21.917Z</time></trkpt><trkpt lat="37.7522833" lon="14.8246167"><ele>721.0</ele><time>2026-04-25T09:40:22.917Z</time></trkpt><trkpt lat="37.752495" lon="14.8246417"><ele>722.0</ele><time>2026-04-25T09:40:23.916Z</time></trkpt><trkpt lat="37.7527067" lon="14.824665"><ele>723.0</ele><time>2026-04-25T09:40:24.917Z</time></trkpt><trkpt lat="37.7529217" lon="14.824695"><ele>724.6666666666666</ele><time>2026-04-25T09:40:25.917Z</time></trkpt><trkpt lat="37.7531317" lon="14.82472"><ele>726.3333333333333</ele><time>2026-04-25T09:40:26.917Z</time></trkpt><trkpt lat="37.7533417" lon="14.8247467"><ele>728.0</ele><time>2026-04-25T09:40:27.916Z</time></trkpt><trkpt lat="37.7535467" lon="14.8247883"><ele>729.0</ele><time>2026-04-25T09:40:28.917Z</time></trkpt><trkpt lat="37.7537433" lon="14.8248383"><ele>730.0</ele><time>2026-04-25T09:40:29.917Z</time></trkpt><trkpt lat="37.7539467" lon="14.8248967"><ele>731.0</ele><time>2026-04-25T09:40:30.916Z</time></trkpt><trkpt lat="37.7541367" lon="14.8249833"><ele>731.0</ele><time>2026-04-25T09:40:31.916Z</time></trkpt><trkpt lat="37.754315" lon="14.8250867"><ele>731.0</ele><time>2026-04-25T09:40:32.916Z</time></trkpt><trkpt lat="37.754485" lon="14.8252167"><ele>731.0</ele><time>2026-04-25T09:40:33.916Z</time></trkpt><trkpt lat="37.7546467" lon="14.8253483"><ele>734.6666666666666</ele><time>2026-04-25T09:40:34.917Z</time></trkpt><trkpt lat="37.7548033" lon="14.825485"><ele>738.3333333333334</ele><time>2026-04-25T09:40:35.917Z</time></trkpt><trkpt lat="37.7549583" lon="14.8256217"><ele>742.0</ele><time>2026-04-25T09:40:36.917Z</time></trkpt><trkpt lat="37.7551217" lon="14.8257533"><ele>741.0</ele><time>2026-04-25T09:40:37.916Z</time></trkpt><trkpt lat="37.7552817" lon="14.8258783"><ele>740.0</ele><time>2026-04-25T09:40:38.917Z</time></trkpt><trkpt lat="37.7554483" lon="14.8260083"><ele>739.0</ele><time>2026-04-25T09:40:39.917Z</time></trkpt><trkpt lat="37.755615" lon="14.8261333"><ele>741.3333333333334</ele><time>2026-04-25T09:40:40.917Z</time></trkpt><trkpt lat="37.7557817" lon="14.8262467"><ele>743.6666666666666</ele><time>2026-04-25T09:40:41.916Z</time></trkpt><trkpt lat="37.7559583" lon="14.8263383"><ele>746.0</ele><time>2026-04-25T09:40:42.916Z</time></trkpt><trkpt lat="37.7561367" lon="14.8264183"><ele>746.6666666666666</ele><time>2026-04-25T09:40:43.916Z</time></trkpt><trkpt lat="37.7563183" lon="14.8264883"><ele>747.3333333333334</ele><time>2026-04-25T09:40:44.917Z</time></trkpt><trkpt lat="37.7565033" lon="14.8265317"><ele>748.0</ele><time>2026-04-25T09:40:45.916Z</time></trkpt><trkpt lat="37.7566917" lon="14.826575"><ele>748.0</ele><time>2026-04-25T09:40:46.916Z</time></trkpt><trkpt lat="37.7568783" lon="14.8266"><ele>748.0</ele><time>2026-04-25T09:40:47.917Z</time></trkpt><trkpt lat="37.7570683" lon="14.82661"><ele>748.0</ele><time>2026-04-25T09:40:48.916Z</time></trkpt><trkpt lat="37.7572583" lon="14.8266033"><ele>748.0</ele><time>2026-04-25T09:40:49.916Z</time></trkpt><trkpt lat="37.7574483" lon="14.826575"><ele>748.0</ele><time>2026-04-25T09:40:50.917Z</time></trkpt><trkpt lat="37.7576383" lon="14.826535"><ele>748.0</ele><time>2026-04-25T09:40:51.916Z</time></trkpt><trkpt lat="37.7578333" lon="14.82648"><ele>749.3333333333334</ele><time>2026-04-25T09:40:52.917Z</time></trkpt><trkpt lat="37.7580283" lon="14.8264067"><ele>750.6666666666666</ele><time>2026-04-25T09:40:53.917Z</time></trkpt><trkpt lat="37.7582183" lon="14.8263233"><ele>752.0</ele><time>2026-04-25T09:40:54.916Z</time></trkpt><trkpt lat="37.7584183" lon="14.8262333"><ele>753.6666666666666</ele><time>2026-04-25T09:40:55.917Z</time></trkpt><trkpt lat="37.7586167" lon="14.8261333"><ele>755.3333333333334</ele><time>2026-04-25T09:40:56.916Z</time></trkpt><trkpt lat="37.758815" lon="14.82603"><ele>757.0</ele><time>2026-04-25T09:40:57.917Z</time></trkpt><trkpt lat="37.7590117" lon="14.825935"><ele>757.0</ele><time>2026-04-25T09:40:58.916Z</time></trkpt><trkpt lat="37.7592067" lon="14.8258217"><ele>757.0</ele><time>2026-04-25T09:40:59.917Z</time></trkpt><trkpt lat="37.7593983" lon="14.8257217"><ele>757.0</ele><time>2026-04-25T09:41:00.916Z</time></trkpt><trkpt lat="37.759595" lon="14.8256317"><ele>755.6666666666667</ele><time>2026-04-25T09:41:01.917Z</time></trkpt><trkpt lat="37.7597833" lon="14.8255417"><ele>754.3333333333334</ele><time>2026-04-25T09:41:02.916Z</time></trkpt><trkpt lat="37.759975" lon="14.82547"><ele>753.0</ele><time>2026-04-25T09:41:03.917Z</time></trkpt><trkpt lat="37.7601817" lon="14.8254117"><ele>752.0</ele><time>2026-04-25T09:41:04.916Z</time></trkpt><trkpt lat="37.7603867" lon="14.8253617"><ele>751.0</ele><time>2026-04-25T09:41:05.917Z</time></trkpt><trkpt lat="37.7605933" lon="14.82531"><ele>750.0</ele><time>2026-04-25T09:41:06.916Z</time></trkpt><trkpt lat="37.7607983" lon="14.82527"><ele>750.0</ele><time>2026-04-25T09:41:07.917Z</time></trkpt><trkpt lat="37.7610017" lon="14.82522"><ele>750.0</ele><time>2026-04-25T09:41:08.917Z</time></trkpt><trkpt lat="37.761205" lon="14.8251717"><ele>750.0</ele><time>2026-04-25T09:41:09.916Z</time></trkpt><trkpt lat="37.7614" lon="14.8251117"><ele>747.3333333333334</ele><time>2026-04-25T09:41:10.917Z</time></trkpt><trkpt lat="37.7615967" lon="14.8250583"><ele>744.6666666666667</ele><time>2026-04-25T09:41:11.916Z</time></trkpt><trkpt lat="37.7618017" lon="14.8249917"><ele>742.0</ele><time>2026-04-25T09:41:12.916Z</time></trkpt><trkpt lat="37.7620067" lon="14.824905"><ele>742.0</ele><time>2026-04-25T09:41:13.917Z</time></trkpt><trkpt lat="37.7622" lon="14.8248033"><ele>742.0</ele><time>2026-04-25T09:41:14.917Z</time></trkpt><trkpt lat="37.7623983" lon="14.8246917"><ele>742.0</ele><time>2026-04-25T09:41:15.917Z</time></trkpt><trkpt lat="37.7625967" lon="14.8245783"><ele>742.6666666666667</ele><time>2026-04-25T09:41:16.917Z</time></trkpt><trkpt lat="37.7628017" lon="14.8244433"><ele>743.3333333333334</ele><time>2026-04-25T09:41:17.916Z</time></trkpt><trkpt lat="37.7629967" lon="14.8243267"><ele>744.0</ele><time>2026-04-25T09:41:18.916Z</time></trkpt><trkpt lat="37.7631883" lon="14.8242167"><ele>735.0</ele><time>2026-04-25T09:41:19.916Z</time></trkpt><trkpt lat="37.7639317" lon="14.8238267"><ele>735.0</ele><time>2026-04-25T09:41:23.932Z</time></trkpt><trkpt lat="37.76411" lon="14.8237333"><ele>735.0</ele><time>2026-04-25T09:41:24.931Z</time></trkpt><trkpt lat="37.7642633" lon="14.8236283"><ele>735.0</ele><time>2026-04-25T09:41:25.932Z</time></trkpt><trkpt lat="37.7644367" lon="14.82354"><ele>729.3333333333334</ele><time>2026-04-25T09:41:26.932Z</time></trkpt><trkpt lat="37.7646167" lon="14.8234667"><ele>723.6666666666667</ele><time>2026-04-25T09:41:27.931Z</time></trkpt><trkpt lat="37.7648" lon="14.8234067"><ele>718.0</ele><time>2026-04-25T09:41:28.931Z</time></trkpt><trkpt lat="37.764995" lon="14.8233583"><ele>718.0</ele><time>2026-04-25T09:41:29.932Z</time></trkpt><trkpt lat="37.76519" lon="14.8232933"><ele>718.0</ele><time>2026-04-25T09:41:30.931Z</time></trkpt><trkpt lat="37.7653817" lon="14.8232217"><ele>718.0</ele><time>2026-04-25T09:41:31.932Z</time></trkpt><trkpt lat="37.76558" lon="14.8231483"><ele>718.3333333333334</ele><time>2026-04-25T09:41:32.932Z</time></trkpt><trkpt lat="37.765785" lon="14.8230867"><ele>718.6666666666666</ele><time>2026-04-25T09:41:33.931Z</time></trkpt><trkpt lat="37.76599" lon="14.8230167"><ele>719.0</ele><time>2026-04-25T09:41:34.932Z</time></trkpt><trkpt lat="37.76619" lon="14.8229533"><ele>719.0</ele><time>2026-04-25T09:41:35.932Z</time></trkpt><trkpt lat="37.76639" lon="14.8228917"><ele>719.0</ele><time>2026-04-25T09:41:36.932Z</time></trkpt><trkpt lat="37.7665917" lon="14.8228367"><ele>719.0</ele><time>2026-04-25T09:41:37.931Z</time></trkpt><trkpt lat="37.7667917" lon="14.8227783"><ele>717.6666666666666</ele><time>2026-04-25T09:41:38.931Z</time></trkpt><trkpt lat="37.766995" lon="14.8227383"><ele>716.3333333333334</ele><time>2026-04-25T09:41:39.932Z</time></trkpt><trkpt lat="37.7672" lon="14.8227133"><ele>715.0</ele><time>2026-04-25T09:41:40.932Z</time></trkpt><trkpt lat="37.7674083" lon="14.8227067"><ele>715.0</ele><time>2026-04-25T09:41:41.931Z</time></trkpt><trkpt lat="37.7676117" lon="14.8227233"><ele>715.0</ele><time>2026-04-25T09:41:42.932Z</time></trkpt><trkpt lat="37.7678117" lon="14.8227667"><ele>715.0</ele><time>2026-04-25T09:41:43.931Z</time></trkpt><trkpt lat="37.7680117" lon="14.8228167"><ele>714.6666666666667</ele><time>2026-04-25T09:41:44.932Z</time></trkpt><trkpt lat="37.7682133" lon="14.8228717"><ele>714.3333333333334</ele><time>2026-04-25T09:41:45.931Z</time></trkpt><trkpt lat="37.7684183" lon="14.82293"><ele>714.0</ele><time>2026-04-25T09:41:46.932Z</time></trkpt><trkpt lat="37.76862" lon="14.82298"><ele>714.0</ele><time>2026-04-25T09:41:47.931Z</time></trkpt><trkpt lat="37.768815" lon="14.8230367"><ele>714.0</ele><time>2026-04-25T09:41:48.931Z</time></trkpt><trkpt lat="37.7690117" lon="14.8230933"><ele>714.0</ele><time>2026-04-25T09:41:49.932Z</time></trkpt><trkpt lat="37.7692033" lon="14.8231633"><ele>713.3333333333334</ele><time>2026-04-25T09:41:50.932Z</time></trkpt><trkpt lat="37.7693883" lon="14.8232483"><ele>712.6666666666667</ele><time>2026-04-25T09:41:51.931Z</time></trkpt><trkpt lat="37.7695683" lon="14.82335"><ele>712.0</ele><time>2026-04-25T09:41:52.931Z</time></trkpt><trkpt lat="37.7697383" lon="14.823475"><ele>712.3333333333334</ele><time>2026-04-25T09:41:53.931Z</time></trkpt><trkpt lat="37.769905" lon="14.8236117"><ele>712.6666666666666</ele><time>2026-04-25T09:41:54.932Z</time></trkpt><trkpt lat="37.770055" lon="14.8237733"><ele>713.0</ele><time>2026-04-25T09:41:55.932Z</time></trkpt><trkpt lat="37.770195" lon="14.8239433"><ele>713.0</ele><time>2026-04-25T09:41:56.931Z</time></trkpt><trkpt lat="37.7703433" lon="14.8241167"><ele>713.0</ele><time>2026-04-25T09:41:57.932Z</time></trkpt><trkpt lat="37.7704867" lon="14.82429"><ele>713.0</ele><time>2026-04-25T09:41:58.931Z</time></trkpt><trkpt lat="37.77063" lon="14.8244667"><ele>714.0</ele><time>2026-04-25T09:41:59.931Z</time></trkpt><trkpt lat="37.7707717" lon="14.8246383"><ele>715.0</ele><time>2026-04-25T09:42:00.932Z</time></trkpt><trkpt lat="37.77093" lon="14.8247967"><ele>716.0</ele><time>2026-04-25T09:42:01.932Z</time></trkpt><trkpt lat="37.771085" lon="14.824935"><ele>716.0</ele><time>2026-04-25T09:42:02.931Z</time></trkpt><trkpt lat="37.7712617" lon="14.825065"><ele>716.0</ele><time>2026-04-25T09:42:03.931Z</time></trkpt><trkpt lat="37.7714333" lon="14.8251683"><ele>716.0</ele><time>2026-04-25T09:42:04.932Z</time></trkpt><trkpt lat="37.7716233" lon="14.82526"><ele>718.3333333333333</ele><time>2026-04-25T09:42:05.932Z</time></trkpt><trkpt lat="37.7718217" lon="14.8253383"><ele>720.6666666666666</ele><time>2026-04-25T09:42:06.931Z</time></trkpt><trkpt lat="37.7720267" lon="14.8253983"><ele>723.0</ele><time>2026-04-25T09:42:07.932Z</time></trkpt><trkpt lat="37.7722317" lon="14.825445"><ele>723.0</ele><time>2026-04-25T09:42:08.932Z</time></trkpt><trkpt lat="37.7724367" lon="14.8255"><ele>723.0</ele><time>2026-04-25T09:42:09.932Z</time></trkpt><trkpt lat="37.7726467" lon="14.82555"><ele>723.0</ele><time>2026-04-25T09:42:10.932Z</time></trkpt><trkpt lat="37.77285" lon="14.82561"><ele>723.0</ele><time>2026-04-25T09:42:11.931Z</time></trkpt><trkpt lat="37.7730567" lon="14.8256683"><ele>723.0</ele><time>2026-04-25T09:42:12.932Z</time></trkpt><trkpt lat="37.773265" lon="14.8257217"><ele>723.0</ele><time>2026-04-25T09:42:13.932Z</time></trkpt><trkpt lat="37.7734667" lon="14.8257717"><ele>724.0</ele><time>2026-04-25T09:42:14.931Z</time></trkpt><trkpt lat="37.7736717" lon="14.825825"><ele>725.0</ele><time>2026-04-25T09:42:15.931Z</time></trkpt><trkpt lat="37.7738817" lon="14.8258767"><ele>726.0</ele><time>2026-04-25T09:42:16.931Z</time></trkpt><trkpt lat="37.7740883" lon="14.8259233"><ele>726.0</ele><time>2026-04-25T09:42:17.931Z</time></trkpt><trkpt lat="37.7742883" lon="14.8259717"><ele>726.0</ele><time>2026-04-25T09:42:18.931Z</time></trkpt><trkpt lat="37.7744867" lon="14.82602"><ele>726.0</ele><time>2026-04-25T09:42:19.931Z</time></trkpt><trkpt lat="37.774675" lon="14.8260683"><ele>728.6666666666666</ele><time>2026-04-25T09:42:20.932Z</time></trkpt><trkpt lat="37.7748683" lon="14.8261183"><ele>731.3333333333333</ele><time>2026-04-25T09:42:21.932Z</time></trkpt><trkpt lat="37.7750517" lon="14.82616"><ele>734.0</ele><time>2026-04-25T09:42:22.932Z</time></trkpt><trkpt lat="37.775235" lon="14.8261967"><ele>734.0</ele><time>2026-04-25T09:42:23.932Z</time></trkpt><trkpt lat="37.7754133" lon="14.8262383"><ele>734.0</ele><time>2026-04-25T09:42:24.932Z</time></trkpt><trkpt lat="37.7755917" lon="14.8262683"><ele>734.0</ele><time>2026-04-25T09:42:25.932Z</time></trkpt><trkpt lat="37.7757733" lon="14.82628"><ele>734.0</ele><time>2026-04-25T09:42:26.931Z</time></trkpt><trkpt lat="37.77595" lon="14.8262733"><ele>734.0</ele><time>2026-04-25T09:42:27.932Z</time></trkpt><trkpt lat="37.7761233" lon="14.8262567"><ele>734.0</ele><time>2026-04-25T09:42:28.932Z</time></trkpt><trkpt lat="37.776295" lon="14.826215"><ele>737.3333333333333</ele><time>2026-04-25T09:42:29.931Z</time></trkpt><trkpt lat="37.7764683" lon="14.8261583"><ele>740.6666666666666</ele><time>2026-04-25T09:42:30.932Z</time></trkpt><trkpt lat="37.7766467" lon="14.82608"><ele>744.0</ele><time>2026-04-25T09:42:31.932Z</time></trkpt><trkpt lat="37.7768217" lon="14.8259933"><ele>749.6666666666666</ele><time>2026-04-25T09:42:32.932Z</time></trkpt><trkpt lat="37.7769933" lon="14.82589"><ele>755.3333333333333</ele><time>2026-04-25T09:42:33.931Z</time></trkpt><trkpt lat="37.7771567" lon="14.8257733"><ele>761.0</ele><time>2026-04-25T09:42:34.931Z</time></trkpt><trkpt lat="37.7773133" lon="14.8256467"><ele>761.0</ele><time>2026-04-25T09:42:35.931Z</time></trkpt><trkpt lat="37.7774733" lon="14.8255317"><ele>761.0</ele><time>2026-04-25T09:42:36.932Z</time></trkpt><trkpt lat="37.7776417" lon="14.8254333"><ele>761.0</ele><time>2026-04-25T09:42:37.931Z</time></trkpt><trkpt lat="37.7778033" lon="14.8253333"><ele>764.3333333333333</ele><time>2026-04-25T09:42:38.932Z</time></trkpt><trkpt lat="37.77796" lon="14.8252167"><ele>767.6666666666666</ele><time>2026-04-25T09:42:39.931Z</time></trkpt><trkpt lat="37.77809" lon="14.82508"><ele>771.0</ele><time>2026-04-25T09:42:40.931Z</time></trkpt><trkpt lat="37.7782617" lon="14.8249717"><ele>766.3333333333334</ele><time>2026-04-25T09:42:41.931Z</time></trkpt><trkpt lat="37.7784433" lon="14.82489"><ele>761.6666666666667</ele><time>2026-04-25T09:42:42.932Z</time></trkpt><trkpt lat="37.7786333" lon="14.8248333"><ele>757.0</ele><time>2026-04-25T09:42:43.931Z</time></trkpt><trkpt lat="37.7788167" lon="14.8247767"><ele>757.0</ele><time>2026-04-25T09:42:44.932Z</time></trkpt><trkpt lat="37.7790067" lon="14.82472"><ele>757.0</ele><time>2026-04-25T09:42:45.932Z</time></trkpt><trkpt lat="37.77919" lon="14.8246783"><ele>757.0</ele><time>2026-04-25T09:42:46.932Z</time></trkpt><trkpt lat="37.7793667" lon="14.824645"><ele>760.3333333333334</ele><time>2026-04-25T09:42:47.932Z</time></trkpt><trkpt lat="37.7795417" lon="14.82463"><ele>763.6666666666666</ele><time>2026-04-25T09:42:48.932Z</time></trkpt><trkpt lat="37.77972" lon="14.8246283"><ele>767.0</ele><time>2026-04-25T09:42:49.931Z</time></trkpt><trkpt lat="37.779895" lon="14.8246467"><ele>767.0</ele><time>2026-04-25T09:42:50.932Z</time></trkpt><trkpt lat="37.7800767" lon="14.824675"><ele>767.0</ele><time>2026-04-25T09:42:51.932Z</time></trkpt><trkpt lat="37.7802483" lon="14.8247167"><ele>767.0</ele><time>2026-04-25T09:42:52.931Z</time></trkpt><trkpt lat="37.7804167" lon="14.8247533"><ele>766.0</ele><time>2026-04-25T09:42:53.932Z</time></trkpt><trkpt lat="37.7805917" lon="14.8247867"><ele>765.0</ele><time>2026-04-25T09:42:54.931Z</time></trkpt><trkpt lat="37.7807667" lon="14.82481"><ele>764.0</ele><time>2026-04-25T09:42:55.932Z</time></trkpt><trkpt lat="37.7809433" lon="14.8248417"><ele>760.3333333333333</ele><time>2026-04-25T09:42:56.931Z</time></trkpt><trkpt lat="37.7811617" lon="14.8248967"><ele>756.6666666666666</ele><time>2026-04-25T09:42:57.932Z</time></trkpt><trkpt lat="37.7813433" lon="14.8249567"><ele>753.0</ele><time>2026-04-25T09:42:58.931Z</time></trkpt><trkpt lat="37.78151" lon="14.82503"><ele>753.0</ele><time>2026-04-25T09:42:59.932Z</time></trkpt><trkpt lat="37.7816417" lon="14.8251067"><ele>753.0</ele><time>2026-04-25T09:43:00.932Z</time></trkpt><trkpt lat="37.781775" lon="14.825145"><ele>753.0</ele><time>2026-04-25T09:43:01.931Z</time></trkpt><trkpt lat="37.78184" lon="14.8252783"><ele>753.0</ele><time>2026-04-25T09:43:02.932Z</time></trkpt><trkpt lat="37.781915" lon="14.82537"><ele>756.1666666666666</ele><time>2026-04-25T09:43:03.932Z</time></trkpt><trkpt lat="37.7819983" lon="14.8254033"><ele>759.3333333333333</ele><time>2026-04-25T09:43:04.932Z</time></trkpt><trkpt lat="37.7820833" lon="14.8254617"><ele>762.5</ele><time>2026-04-25T09:43:06.931Z</time></trkpt><trkpt lat="37.7821367" lon="14.825515"><ele>765.6666666666666</ele><time>2026-04-25T09:43:09.932Z</time></trkpt><trkpt lat="37.782215" lon="14.8255033"><ele>768.8333333333333</ele><time>2026-04-25T09:43:12.932Z</time></trkpt><trkpt lat="37.7822833" lon="14.8254983"><ele>772.0</ele><time>2026-04-25T09:43:14.931Z</time></trkpt><trkpt lat="37.78236" lon="14.8255083"><ele>771.9999999999999</ele><time>2026-04-25T09:43:17.932Z</time></trkpt><trkpt lat="37.78246" lon="14.8255433"><ele>772.0</ele><time>2026-04-25T09:43:20.932Z</time></trkpt><trkpt lat="37.782545" lon="14.82557"><ele>772.0</ele><time>2026-04-25T09:43:22.931Z</time></trkpt><trkpt lat="37.7826117" lon="14.8256167"><ele>772.0</ele><time>2026-04-25T09:43:25.932Z</time></trkpt><trkpt lat="37.7826817" lon="14.82565"><ele>771.9999999999999</ele><time>2026-04-25T09:43:29.932Z</time></trkpt><trkpt lat="37.7827567" lon="14.825695"><ele>772.0</ele><time>2026-04-25T09:43:32.932Z</time></trkpt><trkpt lat="37.7828317" lon="14.825735"><ele>772.3333333333333</ele><time>2026-04-25T09:43:35.931Z</time></trkpt><trkpt lat="37.7829117" lon="14.8257817"><ele>772.6666666666666</ele><time>2026-04-25T09:43:38.931Z</time></trkpt><trkpt lat="37.7829767" lon="14.8258267"><ele>773.0</ele><time>2026-04-25T09:43:40.931Z</time></trkpt><trkpt lat="37.783045" lon="14.825885"><ele>773.3333333333333</ele><time>2026-04-25T09:43:42.932Z</time></trkpt><trkpt lat="37.7831083" lon="14.825935"><ele>773.6666666666666</ele><time>2026-04-25T09:43:44.931Z</time></trkpt><trkpt lat="37.7831633" lon="14.825975"><ele>774.0</ele><time>2026-04-25T09:43:46.931Z</time></trkpt><trkpt lat="37.7832317" lon="14.8260383"><ele>774.0</ele><time>2026-04-25T09:43:48.932Z</time></trkpt><trkpt lat="37.7833117" lon="14.8261017"><ele>774.0</ele><time>2026-04-25T09:43:50.931Z</time></trkpt><trkpt lat="37.7833767" lon="14.8261533"><ele>774.0</ele><time>2026-04-25T09:43:52.931Z</time></trkpt><trkpt lat="37.7834283" lon="14.8262033"><ele>774.0</ele><time>2026-04-25T09:43:54.931Z</time></trkpt><trkpt lat="37.7834817" lon="14.8262533"><ele>774.0</ele><time>2026-04-25T09:43:56.932Z</time></trkpt><trkpt lat="37.7835383" lon="14.8263117"><ele>774.0</ele><time>2026-04-25T09:43:58.932Z</time></trkpt><trkpt lat="37.783595" lon="14.8263933"><ele>772.1666666666666</ele><time>2026-04-25T09:44:00.931Z</time></trkpt><trkpt lat="37.7836433" lon="14.8264617"><ele>770.3333333333334</ele><time>2026-04-25T09:44:02.932Z</time></trkpt><trkpt lat="37.783675" lon="14.82654"><ele>768.5</ele><time>2026-04-25T09:44:04.931Z</time></trkpt><trkpt lat="37.7837167" lon="14.826655"><ele>766.6666666666667</ele><time>2026-04-25T09:44:06.932Z</time></trkpt><trkpt lat="37.7837183" lon="14.8267617"><ele>764.8333333333334</ele><time>2026-04-25T09:44:08.931Z</time></trkpt><trkpt lat="37.783685" lon="14.826875"><ele>763.0</ele><time>2026-04-25T09:44:10.931Z</time></trkpt><trkpt lat="37.7835983" lon="14.8269883"><ele>763.0</ele><time>2026-04-25T09:44:12.931Z</time></trkpt><trkpt lat="37.78355" lon="14.8270583"><ele>763.0</ele><time>2026-04-25T09:44:13.931Z</time></trkpt><trkpt lat="37.7835083" lon="14.8271333"><ele>763.0</ele><time>2026-04-25T09:44:14.93Z</time></trkpt><trkpt lat="37.7834217" lon="14.82724"><ele>763.0</ele><time>2026-04-25T09:44:16.931Z</time></trkpt><trkpt lat="37.7833733" lon="14.827295"><ele>763.0</ele><time>2026-04-25T09:44:17.93Z</time></trkpt><trkpt lat="37.78329" lon="14.8273917"><ele>763.0</ele><time>2026-04-25T09:44:19.931Z</time></trkpt><trkpt lat="37.7832733" lon="14.8275"><ele>763.0</ele><time>2026-04-25T09:44:21.93Z</time></trkpt><trkpt lat="37.78334" lon="14.8275867"><ele>763.0</ele><time>2026-04-25T09:44:23.93Z</time></trkpt><trkpt lat="37.7834167" lon="14.8276483"><ele>763.0</ele><time>2026-04-25T09:44:25.931Z</time></trkpt><trkpt lat="37.7834967" lon="14.82764"><ele>763.0</ele><time>2026-04-25T09:44:27.931Z</time></trkpt><trkpt lat="37.7835767" lon="14.8275367"><ele>763.0</ele><time>2026-04-25T09:44:29.93Z</time></trkpt><trkpt lat="37.7836467" lon="14.827405"><ele>763.0</ele><time>2026-04-25T09:44:31.931Z</time></trkpt><trkpt lat="37.7836967" lon="14.82728"><ele>763.0</ele><time>2026-04-25T09:44:33.93Z</time></trkpt><trkpt lat="37.7837317" lon="14.82719"><ele>763.0</ele><time>2026-04-25T09:44:35.931Z</time></trkpt><trkpt lat="37.7837867" lon="14.8271283"><ele>763.0</ele><time>2026-04-25T09:44:38.931Z</time></trkpt><trkpt lat="37.7838717" lon="14.82717"><ele>763.0</ele><time>2026-04-25T09:44:41.93Z</time></trkpt><trkpt lat="37.7839267" lon="14.8272867"><ele>763.0</ele><time>2026-04-25T09:44:43.93Z</time></trkpt><trkpt lat="37.783945" lon="14.8273667"><ele>763.0</ele><time>2026-04-25T09:44:44.93Z</time></trkpt><trkpt lat="37.7839517" lon="14.8274583"><ele>763.0</ele><time>2026-04-25T09:44:45.93Z</time></trkpt><trkpt lat="37.7839517" lon="14.82755"><ele>763.0</ele><time>2026-04-25T09:44:46.931Z</time></trkpt><trkpt lat="37.7839517" lon="14.827645"><ele>763.0</ele><time>2026-04-25T09:44:47.931Z</time></trkpt><trkpt lat="37.78394" lon="14.8278017"><ele>763.0</ele><time>2026-04-25T09:44:49.931Z</time></trkpt><trkpt lat="37.7839333" lon="14.827885"><ele>762.4285714285714</ele><time>2026-04-25T09:44:50.931Z</time></trkpt><trkpt lat="37.783915" lon="14.8279633"><ele>761.8571428571429</ele><time>2026-04-25T09:44:51.931Z</time></trkpt><trkpt lat="37.7838967" lon="14.8280467"><ele>761.2857142857142</ele><time>2026-04-25T09:44:52.93Z</time></trkpt><trkpt lat="37.7838833" lon="14.8281283"><ele>760.7142857142858</ele><time>2026-04-25T09:44:53.931Z</time></trkpt><trkpt lat="37.78387" lon="14.82821"><ele>760.1428571428571</ele><time>2026-04-25T09:44:54.931Z</time></trkpt><trkpt lat="37.7838583" lon="14.8282883"><ele>759.5714285714286</ele><time>2026-04-25T09:44:55.931Z</time></trkpt><trkpt lat="37.7838267" lon="14.828435"><ele>759.0</ele><time>2026-04-25T09:44:57.931Z</time></trkpt><trkpt lat="37.7838217" lon="14.828515"><ele>758.3333333333334</ele><time>2026-04-25T09:44:58.93Z</time></trkpt><trkpt lat="37.7838283" lon="14.82866"><ele>757.6666666666666</ele><time>2026-04-25T09:45:00.931Z</time></trkpt><trkpt lat="37.78385" lon="14.8287433"><ele>757.0</ele><time>2026-04-25T09:45:01.931Z</time></trkpt><trkpt lat="37.783885" lon="14.82881"><ele>756.3333333333333</ele><time>2026-04-25T09:45:02.931Z</time></trkpt><trkpt lat="37.7839267" lon="14.8288717"><ele>755.6666666666666</ele><time>2026-04-25T09:45:03.93Z</time></trkpt><trkpt lat="37.7839883" lon="14.8289217"><ele>755.0</ele><time>2026-04-25T09:45:04.931Z</time></trkpt><trkpt lat="37.784055" lon="14.8289667"><ele>755.0</ele><time>2026-04-25T09:45:05.931Z</time></trkpt><trkpt lat="37.7841317" lon="14.8289933"><ele>755.0</ele><time>2026-04-25T09:45:06.931Z</time></trkpt><trkpt lat="37.7842017" lon="14.82901"><ele>755.0</ele><time>2026-04-25T09:45:07.931Z</time></trkpt><trkpt lat="37.7842767" lon="14.8290067"><ele>755.0</ele><time>2026-04-25T09:45:08.93Z</time></trkpt><trkpt lat="37.7843467" lon="14.8289733"><ele>755.0</ele><time>2026-04-25T09:45:09.931Z</time></trkpt><trkpt lat="37.7844067" lon="14.8289267"><ele>755.0</ele><time>2026-04-25T09:45:10.93Z</time></trkpt><trkpt lat="37.7844683" lon="14.8288567"><ele>753.0</ele><time>2026-04-25T09:45:11.931Z</time></trkpt><trkpt lat="37.784525" lon="14.8288"><ele>751.0</ele><time>2026-04-25T09:45:12.931Z</time></trkpt><trkpt lat="37.7845867" lon="14.828735"><ele>749.0</ele><time>2026-04-25T09:45:13.931Z</time></trkpt><trkpt lat="37.7846517" lon="14.8286717"><ele>747.0</ele><time>2026-04-25T09:45:14.931Z</time></trkpt><trkpt lat="37.7847017" lon="14.8286083"><ele>745.0</ele><time>2026-04-25T09:45:15.93Z</time></trkpt><trkpt lat="37.784765" lon="14.82854"><ele>743.0</ele><time>2026-04-25T09:45:16.931Z</time></trkpt><trkpt lat="37.7848417" lon="14.8284967"><ele>742.8</ele><time>2026-04-25T09:45:17.931Z</time></trkpt><trkpt lat="37.78492" lon="14.8284533"><ele>742.5999999999999</ele><time>2026-04-25T09:45:18.931Z</time></trkpt><trkpt lat="37.7850067" lon="14.8284133"><ele>742.4000000000001</ele><time>2026-04-25T09:45:19.931Z</time></trkpt><trkpt lat="37.7851" lon="14.828375"><ele>742.2</ele><time>2026-04-25T09:45:20.931Z</time></trkpt><trkpt lat="37.7851967" lon="14.8283417"><ele>742.0</ele><time>2026-04-25T09:45:21.931Z</time></trkpt><trkpt lat="37.785295" lon="14.828325"><ele>740.3333333333334</ele><time>2026-04-25T09:45:22.931Z</time></trkpt><trkpt lat="37.78538" lon="14.8283033"><ele>738.6666666666667</ele><time>2026-04-25T09:45:23.931Z</time></trkpt><trkpt lat="37.78546" lon="14.828285"><ele>737.0</ele><time>2026-04-25T09:45:24.931Z</time></trkpt><trkpt lat="37.7855417" lon="14.8282567"><ele>735.3333333333334</ele><time>2026-04-25T09:45:25.931Z</time></trkpt><trkpt lat="37.785615" lon="14.828235"><ele>733.6666666666666</ele><time>2026-04-25T09:45:26.93Z</time></trkpt><trkpt lat="37.7856883" lon="14.8282167"><ele>732.0</ele><time>2026-04-25T09:45:27.93Z</time></trkpt><trkpt lat="37.785755" lon="14.8281933"><ele>732.0</ele><time>2026-04-25T09:45:28.931Z</time></trkpt><trkpt lat="37.7858183" lon="14.82817"><ele>732.0</ele><time>2026-04-25T09:45:29.931Z</time></trkpt><trkpt lat="37.7858833" lon="14.8281283"><ele>732.0</ele><time>2026-04-25T09:45:30.93Z</time></trkpt><trkpt lat="37.7859533" lon="14.8280767"><ele>732.0</ele><time>2026-04-25T09:45:31.93Z</time></trkpt><trkpt lat="37.7860217" lon="14.8280167"><ele>732.0</ele><time>2026-04-25T09:45:32.93Z</time></trkpt><trkpt lat="37.7860917" lon="14.82794"><ele>732.0</ele><time>2026-04-25T09:45:33.93Z</time></trkpt><trkpt lat="37.7861633" lon="14.8278667"><ele>730.8333333333334</ele><time>2026-04-25T09:45:34.931Z</time></trkpt><trkpt lat="37.7862333" lon="14.8278"><ele>729.6666666666666</ele><time>2026-04-25T09:45:35.931Z</time></trkpt><trkpt lat="37.7863" lon="14.827745"><ele>728.5</ele><time>2026-04-25T09:45:36.93Z</time></trkpt><trkpt lat="37.7863683" lon="14.8277117"><ele>727.3333333333333</ele><time>2026-04-25T09:45:37.931Z</time></trkpt><trkpt lat="37.7864367" lon="14.8276983"><ele>726.1666666666666</ele><time>2026-04-25T09:45:38.93Z</time></trkpt><trkpt lat="37.7865467" lon="14.827715"><ele>725.0</ele><time>2026-04-25T09:45:40.931Z</time></trkpt><trkpt lat="37.7866417" lon="14.8277583"><ele>725.0</ele><time>2026-04-25T09:45:42.931Z</time></trkpt><trkpt lat="37.7867417" lon="14.827815"><ele>725.0</ele><time>2026-04-25T09:45:44.931Z</time></trkpt><trkpt lat="37.7868367" lon="14.8278433"><ele>725.0</ele><time>2026-04-25T09:45:46.93Z</time></trkpt><trkpt lat="37.7869467" lon="14.8278033"><ele>725.0</ele><time>2026-04-25T09:45:48.931Z</time></trkpt><trkpt lat="37.78707" lon="14.827775"><ele>725.0</ele><time>2026-04-25T09:45:50.931Z</time></trkpt><trkpt lat="37.7871533" lon="14.8277883"><ele>722.6</ele><time>2026-04-25T09:45:51.931Z</time></trkpt><trkpt lat="37.7872483" lon="14.8278133"><ele>720.2</ele><time>2026-04-25T09:45:52.93Z</time></trkpt><trkpt lat="37.787345" lon="14.8278533"><ele>717.8</ele><time>2026-04-25T09:45:53.931Z</time></trkpt><trkpt lat="37.7874383" lon="14.827905"><ele>715.4</ele><time>2026-04-25T09:45:54.931Z</time></trkpt><trkpt lat="37.7875317" lon="14.827955"><ele>713.0</ele><time>2026-04-25T09:45:55.931Z</time></trkpt><trkpt lat="37.7876317" lon="14.828005"><ele>711.0</ele><time>2026-04-25T09:45:56.931Z</time></trkpt><trkpt lat="37.787735" lon="14.8280333"><ele>709.0</ele><time>2026-04-25T09:45:57.931Z</time></trkpt><trkpt lat="37.7878383" lon="14.8280533"><ele>707.0</ele><time>2026-04-25T09:45:58.93Z</time></trkpt><trkpt lat="37.7879417" lon="14.8280767"><ele>705.0</ele><time>2026-04-25T09:45:59.931Z</time></trkpt><trkpt lat="37.788055" lon="14.828095"><ele>703.0</ele><time>2026-04-25T09:46:00.931Z</time></trkpt><trkpt lat="37.7881667" lon="14.8281133"><ele>703.0</ele><time>2026-04-25T09:46:01.931Z</time></trkpt><trkpt lat="37.7882817" lon="14.8281233"><ele>703.0</ele><time>2026-04-25T09:46:02.931Z</time></trkpt><trkpt lat="37.7883917" lon="14.8281283"><ele>703.0</ele><time>2026-04-25T09:46:03.93Z</time></trkpt><trkpt lat="37.788505" lon="14.828115"><ele>703.0</ele><time>2026-04-25T09:46:04.931Z</time></trkpt><trkpt lat="37.78862" lon="14.8280967"><ele>702.2</ele><time>2026-04-25T09:46:05.93Z</time></trkpt><trkpt lat="37.7887367" lon="14.8280767"><ele>701.4</ele><time>2026-04-25T09:46:06.931Z</time></trkpt><trkpt lat="37.7888483" lon="14.8280583"><ele>700.6</ele><time>2026-04-25T09:46:07.931Z</time></trkpt><trkpt lat="37.7889583" lon="14.8280417"><ele>699.8000000000001</ele><time>2026-04-25T09:46:08.93Z</time></trkpt><trkpt lat="37.7890617" lon="14.8280133"><ele>699.0</ele><time>2026-04-25T09:46:09.931Z</time></trkpt><trkpt lat="37.7891617" lon="14.827955"><ele>699.0</ele><time>2026-04-25T09:46:10.931Z</time></trkpt><trkpt lat="37.7892483" lon="14.8278683"><ele>699.0</ele><time>2026-04-25T09:46:11.931Z</time></trkpt><trkpt lat="37.7893283" lon="14.827755"><ele>699.0</ele><time>2026-04-25T09:46:12.931Z</time></trkpt><trkpt lat="37.7893883" lon="14.8276233"><ele>699.0</ele><time>2026-04-25T09:46:13.931Z</time></trkpt><trkpt lat="37.7894333" lon="14.827485"><ele>697.5</ele><time>2026-04-25T09:46:14.931Z</time></trkpt><trkpt lat="37.7894733" lon="14.827345"><ele>696.0</ele><time>2026-04-25T09:46:15.931Z</time></trkpt><trkpt lat="37.789515" lon="14.8272017"><ele>694.5</ele><time>2026-04-25T09:46:16.931Z</time></trkpt><trkpt lat="37.7895583" lon="14.82706"><ele>693.0</ele><time>2026-04-25T09:46:17.93Z</time></trkpt><trkpt lat="37.7896067" lon="14.8269117"><ele>691.5</ele><time>2026-04-25T09:46:18.93Z</time></trkpt><trkpt lat="37.789655" lon="14.82676"><ele>690.0</ele><time>2026-04-25T09:46:19.93Z</time></trkpt><trkpt lat="37.789705" lon="14.8266183"><ele>688.5</ele><time>2026-04-25T09:46:20.931Z</time></trkpt><trkpt lat="37.7897533" lon="14.8264717"><ele>687.0</ele><time>2026-04-25T09:46:21.931Z</time></trkpt><trkpt lat="37.7898" lon="14.8263333"><ele>687.0</ele><time>2026-04-25T09:46:22.93Z</time></trkpt><trkpt lat="37.7898517" lon="14.8261867"><ele>687.0</ele><time>2026-04-25T09:46:23.93Z</time></trkpt><trkpt lat="37.7899017" lon="14.8260417"><ele>687.0</ele><time>2026-04-25T09:46:24.931Z</time></trkpt><trkpt lat="37.7899517" lon="14.8258917"><ele>687.0</ele><time>2026-04-25T09:46:25.931Z</time></trkpt><trkpt lat="37.7900067" lon="14.8257467"><ele>684.5</ele><time>2026-04-25T09:46:26.93Z</time></trkpt><trkpt lat="37.7900517" lon="14.825595"><ele>682.0</ele><time>2026-04-25T09:46:27.931Z</time></trkpt><trkpt lat="37.7900883" lon="14.8254517"><ele>679.5</ele><time>2026-04-25T09:46:28.93Z</time></trkpt><trkpt lat="37.7901183" lon="14.825295"><ele>677.0</ele><time>2026-04-25T09:46:29.93Z</time></trkpt><trkpt lat="37.79015" lon="14.8251317"><ele>674.5</ele><time>2026-04-25T09:46:30.931Z</time></trkpt><trkpt lat="37.7901817" lon="14.824985"><ele>672.0</ele><time>2026-04-25T09:46:31.93Z</time></trkpt><trkpt lat="37.7902117" lon="14.8248317"><ele>669.5</ele><time>2026-04-25T09:46:32.931Z</time></trkpt><trkpt lat="37.7902417" lon="14.8246817"><ele>667.0</ele><time>2026-04-25T09:46:33.931Z</time></trkpt><trkpt lat="37.7902717" lon="14.824535"><ele>667.0</ele><time>2026-04-25T09:46:34.931Z</time></trkpt><trkpt lat="37.7903" lon="14.824385"><ele>667.0</ele><time>2026-04-25T09:46:35.93Z</time></trkpt><trkpt lat="37.7903283" lon="14.82424"><ele>667.0</ele><time>2026-04-25T09:46:36.931Z</time></trkpt><trkpt lat="37.7903583" lon="14.8241"><ele>667.0</ele><time>2026-04-25T09:46:37.93Z</time></trkpt><trkpt lat="37.7903933" lon="14.8239667"><ele>666.25</ele><time>2026-04-25T09:46:38.931Z</time></trkpt><trkpt lat="37.79042" lon="14.82383"><ele>665.5</ele><time>2026-04-25T09:46:39.93Z</time></trkpt><trkpt lat="37.7904383" lon="14.8236833"><ele>664.75</ele><time>2026-04-25T09:46:40.93Z</time></trkpt><trkpt lat="37.7904633" lon="14.8235433"><ele>664.0</ele><time>2026-04-25T09:46:41.93Z</time></trkpt><trkpt lat="37.7904867" lon="14.8234067"><ele>663.3333333333334</ele><time>2026-04-25T09:46:42.931Z</time></trkpt><trkpt lat="37.790505" lon="14.8232783"><ele>662.6666666666667</ele><time>2026-04-25T09:46:43.93Z</time></trkpt><trkpt lat="37.7905217" lon="14.8231633"><ele>662.0</ele><time>2026-04-25T09:46:44.931Z</time></trkpt><trkpt lat="37.7905333" lon="14.8230667"><ele>661.3333333333334</ele><time>2026-04-25T09:46:45.931Z</time></trkpt><trkpt lat="37.7905583" lon="14.8229333"><ele>660.6666666666666</ele><time>2026-04-25T09:46:47.931Z</time></trkpt><trkpt lat="37.7906017" lon="14.8228717"><ele>660.0</ele><time>2026-04-25T09:46:49.93Z</time></trkpt><trkpt lat="37.7907083" lon="14.8228783"><ele>660.0</ele><time>2026-04-25T09:46:51.931Z</time></trkpt><trkpt lat="37.7907717" lon="14.8229033"><ele>660.0</ele><time>2026-04-25T09:46:52.931Z</time></trkpt><trkpt lat="37.7908467" lon="14.8229283"><ele>660.0</ele><time>2026-04-25T09:46:53.93Z</time></trkpt><trkpt lat="37.7909233" lon="14.8229483"><ele>660.0</ele><time>2026-04-25T09:46:54.931Z</time></trkpt><trkpt lat="37.7909933" lon="14.8229583"><ele>660.0</ele><time>2026-04-25T09:46:55.93Z</time></trkpt><trkpt lat="37.7910617" lon="14.8229683"><ele>660.0</ele><time>2026-04-25T09:46:56.931Z</time></trkpt><trkpt lat="37.7911733" lon="14.8229933"><ele>660.1666666666666</ele><time>2026-04-25T09:46:58.931Z</time></trkpt><trkpt lat="37.7912717" lon="14.82299"><ele>660.3333333333334</ele><time>2026-04-25T09:47:00.931Z</time></trkpt><trkpt lat="37.7913417" lon="14.822925"><ele>660.5</ele><time>2026-04-25T09:47:02.931Z</time></trkpt><trkpt lat="37.79142" lon="14.822905"><ele>660.6666666666667</ele><time>2026-04-25T09:47:04.93Z</time></trkpt><trkpt lat="37.7914983" lon="14.822935"><ele>660.8333333333334</ele><time>2026-04-25T09:47:06.931Z</time></trkpt><trkpt lat="37.7915733" lon="14.8229283"><ele>661.0</ele><time>2026-04-25T09:47:08.931Z</time></trkpt><trkpt lat="37.7916433" lon="14.8228667"><ele>661.0</ele><time>2026-04-25T09:47:11.931Z</time></trkpt><trkpt lat="37.7916617" lon="14.8227717"><ele>661.0</ele><time>2026-04-25T09:47:13.931Z</time></trkpt><trkpt lat="37.7916633" lon="14.82268"><ele>661.0</ele><time>2026-04-25T09:47:16.931Z</time></trkpt></trkseg><trkseg><trkpt lat="37.7915083" lon="14.822825"><ele>661.0</ele><time>2026-04-25T10:22:41.526Z</time></trkpt><trkpt lat="37.7915783" lon="14.8226717"><ele>661.0</ele><time>2026-04-25T10:22:43.527Z</time></trkpt><trkpt lat="37.7915983" lon="14.82275"><ele>661.0</ele><time>2026-04-25T10:22:53.928Z</time></trkpt><trkpt lat="37.7915333" lon="14.822735"><ele>661.0</ele><time>2026-04-25T10:23:35.927Z</time></trkpt><trkpt lat="37.7914533" lon="14.8227467"><ele>661.0</ele><time>2026-04-25T10:23:42.928Z</time></trkpt><trkpt lat="37.7913867" lon="14.822765"><ele>661.0</ele><time>2026-04-25T10:23:44.928Z</time></trkpt><trkpt lat="37.791335" lon="14.8228467"><ele>661.0</ele><time>2026-04-25T10:23:46.928Z</time></trkpt><trkpt lat="37.79128" lon="14.8229167"><ele>661.0</ele><time>2026-04-25T10:23:49.928Z</time></trkpt><trkpt lat="37.79122" lon="14.8229433"><ele>661.0</ele><time>2026-04-25T10:23:51.927Z</time></trkpt><trkpt lat="37.791125" lon="14.8229417"><ele>661.0</ele><time>2026-04-25T10:23:53.928Z</time></trkpt><trkpt lat="37.7910083" lon="14.8229233"><ele>661.0</ele><time>2026-04-25T10:23:55.927Z</time></trkpt><trkpt lat="37.7909417" lon="14.8229167"><ele>661.0</ele><time>2026-04-25T10:23:56.928Z</time></trkpt><trkpt lat="37.7908767" lon="14.8229117"><ele>660.8333333333334</ele><time>2026-04-25T10:23:57.928Z</time></trkpt><trkpt lat="37.79081" lon="14.8229017"><ele>660.6666666666667</ele><time>2026-04-25T10:23:58.927Z</time></trkpt><trkpt lat="37.7906883" lon="14.8228717"><ele>660.5</ele><time>2026-04-25T10:24:00.927Z</time></trkpt><trkpt lat="37.7906267" lon="14.8228517"><ele>660.3333333333334</ele><time>2026-04-25T10:24:02.928Z</time></trkpt><trkpt lat="37.79056" lon="14.8228733"><ele>660.1666666666666</ele><time>2026-04-25T10:24:05.927Z</time></trkpt><trkpt lat="37.7905033" lon="14.8229733"><ele>660.0</ele><time>2026-04-25T10:24:07.927Z</time></trkpt><trkpt lat="37.7904917" lon="14.8230617"><ele>660.0</ele><time>2026-04-25T10:24:08.927Z</time></trkpt><trkpt lat="37.79048" lon="14.8231617"><ele>660.0</ele><time>2026-04-25T10:24:09.927Z</time></trkpt><trkpt lat="37.790465" lon="14.8232683"><ele>660.0</ele><time>2026-04-25T10:24:10.927Z</time></trkpt><trkpt lat="37.7904533" lon="14.8233833"><ele>660.0</ele><time>2026-04-25T10:24:11.926Z</time></trkpt><trkpt lat="37.790435" lon="14.8235017"><ele>660.0</ele><time>2026-04-25T10:24:12.927Z</time></trkpt><trkpt lat="37.79042" lon="14.8236233"><ele>660.8</ele><time>2026-04-25T10:24:13.926Z</time></trkpt><trkpt lat="37.7904017" lon="14.82375"><ele>661.6</ele><time>2026-04-25T10:24:14.926Z</time></trkpt><trkpt lat="37.7903767" lon="14.8238783"><ele>662.4000000000001</ele><time>2026-04-25T10:24:15.926Z</time></trkpt><trkpt lat="37.790355" lon="14.8240133"><ele>663.2</ele><time>2026-04-25T10:24:16.927Z</time></trkpt><trkpt lat="37.7903367" lon="14.8241483"><ele>664.0</ele><time>2026-04-25T10:24:17.926Z</time></trkpt><trkpt lat="37.7903083" lon="14.824285"><ele>664.75</ele><time>2026-04-25T10:24:18.927Z</time></trkpt><trkpt lat="37.79028" lon="14.824425"><ele>665.5</ele><time>2026-04-25T10:24:19.927Z</time></trkpt><trkpt lat="37.79025" lon="14.8245683"><ele>666.25</ele><time>2026-04-25T10:24:20.927Z</time></trkpt><trkpt lat="37.79022" lon="14.8247117"><ele>667.0</ele><time>2026-04-25T10:24:21.927Z</time></trkpt><trkpt lat="37.790195" lon="14.824855"><ele>668.0</ele><time>2026-04-25T10:24:22.926Z</time></trkpt><trkpt lat="37.790165" lon="14.825"><ele>669.0</ele><time>2026-04-25T10:24:23.926Z</time></trkpt><trkpt lat="37.7901333" lon="14.825145"><ele>670.0</ele><time>2026-04-25T10:24:24.927Z</time></trkpt><trkpt lat="37.7901033" lon="14.82529"><ele>671.0</ele><time>2026-04-25T10:24:25.927Z</time></trkpt><trkpt lat="37.7900717" lon="14.8254333"><ele>672.1999999999999</ele><time>2026-04-25T10:24:26.927Z</time></trkpt><trkpt lat="37.7900367" lon="14.82557"><ele>673.4</ele><time>2026-04-25T10:24:27.927Z</time></trkpt><trkpt lat="37.7899967" lon="14.8257017"><ele>674.6</ele><time>2026-04-25T10:24:28.927Z</time></trkpt><trkpt lat="37.7899567" lon="14.8258283"><ele>675.8</ele><time>2026-04-25T10:24:29.926Z</time></trkpt><trkpt lat="37.7899117" lon="14.8259583"><ele>677.0</ele><time>2026-04-25T10:24:30.926Z</time></trkpt><trkpt lat="37.789865" lon="14.8260883"><ele>679.5</ele><time>2026-04-25T10:24:31.927Z</time></trkpt><trkpt lat="37.7898167" lon="14.82623"><ele>682.0</ele><time>2026-04-25T10:24:32.926Z</time></trkpt><trkpt lat="37.7897667" lon="14.8263683"><ele>684.5</ele><time>2026-04-25T10:24:33.926Z</time></trkpt><trkpt lat="37.7897167" lon="14.82651"><ele>687.0</ele><time>2026-04-25T10:24:34.927Z</time></trkpt><trkpt lat="37.789665" lon="14.8266533"><ele>687.0</ele><time>2026-04-25T10:24:35.926Z</time></trkpt><trkpt lat="37.7896083" lon="14.8268"><ele>687.0</ele><time>2026-04-25T10:24:36.927Z</time></trkpt><trkpt lat="37.789555" lon="14.8269467"><ele>687.0</ele><time>2026-04-25T10:24:37.927Z</time></trkpt><trkpt lat="37.7895033" lon="14.8270917"><ele>687.0</ele><time>2026-04-25T10:24:38.926Z</time></trkpt><trkpt lat="37.7894517" lon="14.8272367"><ele>688.5</ele><time>2026-04-25T10:24:39.926Z</time></trkpt><trkpt lat="37.7894" lon="14.8273783"><ele>690.0</ele><time>2026-04-25T10:24:40.926Z</time></trkpt><trkpt lat="37.7893517" lon="14.8275133"><ele>691.5</ele><time>2026-04-25T10:24:41.927Z</time></trkpt><trkpt lat="37.7893017" lon="14.8276483"><ele>693.0</ele><time>2026-04-25T10:24:42.927Z</time></trkpt><trkpt lat="37.7892483" lon="14.82777"><ele>694.2</ele><time>2026-04-25T10:24:43.927Z</time></trkpt><trkpt lat="37.7891833" lon="14.8278683"><ele>695.4</ele><time>2026-04-25T10:24:44.926Z</time></trkpt><trkpt lat="37.7891017" lon="14.8279417"><ele>696.6</ele><time>2026-04-25T10:24:45.927Z</time></trkpt><trkpt lat="37.7890017" lon="14.82799"><ele>697.8000000000001</ele><time>2026-04-25T10:24:46.926Z</time></trkpt><trkpt lat="37.7888917" lon="14.8280133"><ele>699.0</ele><time>2026-04-25T10:24:47.927Z</time></trkpt><trkpt lat="37.7887733" lon="14.8280283"><ele>699.0</ele><time>2026-04-25T10:24:48.927Z</time></trkpt><trkpt lat="37.7886483" lon="14.8280417"><ele>699.0</ele><time>2026-04-25T10:24:49.927Z</time></trkpt><trkpt lat="37.7885217" lon="14.8280533"><ele>699.0</ele><time>2026-04-25T10:24:50.926Z</time></trkpt><trkpt lat="37.7883983" lon="14.8280617"><ele>699.0</ele><time>2026-04-25T10:24:51.926Z</time></trkpt><trkpt lat="37.7882767" lon="14.8280633"><ele>700.0</ele><time>2026-04-25T10:24:52.926Z</time></trkpt><trkpt lat="37.7881567" lon="14.828055"><ele>701.0</ele><time>2026-04-25T10:24:53.927Z</time></trkpt><trkpt lat="37.7880367" lon="14.8280333"><ele>702.0</ele><time>2026-04-25T10:24:54.926Z</time></trkpt><trkpt lat="37.7879233" lon="14.8280067"><ele>703.0</ele><time>2026-04-25T10:24:55.926Z</time></trkpt><trkpt lat="37.7878133" lon="14.8279783"><ele>703.0</ele><time>2026-04-25T10:24:56.927Z</time></trkpt><trkpt lat="37.7877" lon="14.8279483"><ele>703.0</ele><time>2026-04-25T10:24:57.927Z</time></trkpt><trkpt lat="37.7875917" lon="14.8279"><ele>703.0</ele><time>2026-04-25T10:24:58.926Z</time></trkpt><trkpt lat="37.78748" lon="14.827845"><ele>703.0</ele><time>2026-04-25T10:24:59.927Z</time></trkpt><trkpt lat="37.7873783" lon="14.8277867"><ele>704.6666666666667</ele><time>2026-04-25T10:25:00.926Z</time></trkpt><trkpt lat="37.787285" lon="14.8277367"><ele>706.3333333333334</ele><time>2026-04-25T10:25:01.927Z</time></trkpt><trkpt lat="37.7871917" lon="14.8277133"><ele>708.0</ele><time>2026-04-25T10:25:02.927Z</time></trkpt><trkpt lat="37.787105" lon="14.82771"><ele>709.6666666666666</ele><time>2026-04-25T10:25:03.927Z</time></trkpt><trkpt lat="37.7870217" lon="14.82771"><ele>711.3333333333333</ele><time>2026-04-25T10:25:04.926Z</time></trkpt><trkpt lat="37.786955" lon="14.8277183"><ele>713.0</ele><time>2026-04-25T10:25:05.926Z</time></trkpt><trkpt lat="37.7868783" lon="14.8277217"><ele>713.0</ele><time>2026-04-25T10:25:07.926Z</time></trkpt><trkpt lat="37.786815" lon="14.82772"><ele>713.0</ele><time>2026-04-25T10:25:09.926Z</time></trkpt><trkpt lat="37.7867633" lon="14.8277667"><ele>713.0</ele><time>2026-04-25T10:25:11.927Z</time></trkpt><trkpt lat="37.7867917" lon="14.8278783"><ele>713.0</ele><time>2026-04-25T10:25:13.926Z</time></trkpt><trkpt lat="37.7868333" lon="14.827945"><ele>713.0</ele><time>2026-04-25T10:25:14.927Z</time></trkpt><trkpt lat="37.786865" lon="14.828025"><ele>713.0</ele><time>2026-04-25T10:25:15.926Z</time></trkpt><trkpt lat="37.78689" lon="14.8281133"><ele>713.0</ele><time>2026-04-25T10:25:16.926Z</time></trkpt><trkpt lat="37.7869083" lon="14.8282017"><ele>713.0</ele><time>2026-04-25T10:25:17.927Z</time></trkpt><trkpt lat="37.7869333" lon="14.8282917"><ele>713.0</ele><time>2026-04-25T10:25:18.926Z</time></trkpt><trkpt lat="37.786955" lon="14.8283817"><ele>713.0</ele><time>2026-04-25T10:25:19.926Z</time></trkpt><trkpt lat="37.7869733" lon="14.8284733"><ele>713.0</ele><time>2026-04-25T10:25:20.926Z</time></trkpt><trkpt lat="37.7869867" lon="14.8285667"><ele>713.0</ele><time>2026-04-25T10:25:21.926Z</time></trkpt><trkpt lat="37.7869933" lon="14.8286617"><ele>713.0</ele><time>2026-04-25T10:25:22.927Z</time></trkpt><trkpt lat="37.787005" lon="14.8287583"><ele>714.7142857142857</ele><time>2026-04-25T10:25:23.926Z</time></trkpt><trkpt lat="37.7870183" lon="14.8288583"><ele>716.4285714285714</ele><time>2026-04-25T10:25:24.927Z</time></trkpt><trkpt lat="37.7870333" lon="14.8289533"><ele>718.1428571428571</ele><time>2026-04-25T10:25:25.927Z</time></trkpt><trkpt lat="37.7870583" lon="14.8290417"><ele>719.8571428571429</ele><time>2026-04-25T10:25:26.927Z</time></trkpt><trkpt lat="37.78709" lon="14.8291267"><ele>721.5714285714287</ele><time>2026-04-25T10:25:27.926Z</time></trkpt><trkpt lat="37.7871233" lon="14.8292033"><ele>723.2857142857143</ele><time>2026-04-25T10:25:28.927Z</time></trkpt><trkpt lat="37.7871567" lon="14.8292733"><ele>725.0</ele><time>2026-04-25T10:25:29.927Z</time></trkpt><trkpt lat="37.7872083" lon="14.82938"><ele>727.0</ele><time>2026-04-25T10:25:31.927Z</time></trkpt><trkpt lat="37.7872617" lon="14.8294617"><ele>729.0</ele><time>2026-04-25T10:25:33.927Z</time></trkpt><trkpt lat="37.7873333" lon="14.829565"><ele>731.0</ele><time>2026-04-25T10:25:35.927Z</time></trkpt><trkpt lat="37.7873833" lon="14.8296233"><ele>733.0</ele><time>2026-04-25T10:25:36.927Z</time></trkpt><trkpt lat="37.7874317" lon="14.82968"><ele>735.0</ele><time>2026-04-25T10:25:37.927Z</time></trkpt><trkpt lat="37.787485" lon="14.829735"><ele>737.0</ele><time>2026-04-25T10:25:38.927Z</time></trkpt><trkpt lat="37.7875317" lon="14.82979"><ele>737.0</ele><time>2026-04-25T10:25:39.927Z</time></trkpt><trkpt lat="37.7875867" lon="14.8298617"><ele>737.0</ele><time>2026-04-25T10:25:40.926Z</time></trkpt><trkpt lat="37.78764" lon="14.82993"><ele>737.0</ele><time>2026-04-25T10:25:41.927Z</time></trkpt><trkpt lat="37.7876933" lon="14.83"><ele>737.0</ele><time>2026-04-25T10:25:42.927Z</time></trkpt><trkpt lat="37.7877483" lon="14.83007"><ele>737.0</ele><time>2026-04-25T10:25:43.927Z</time></trkpt><trkpt lat="37.7878033" lon="14.8301433"><ele>737.0</ele><time>2026-04-25T10:25:44.926Z</time></trkpt><trkpt lat="37.78787" lon="14.83021"><ele>736.8333333333333</ele><time>2026-04-25T10:25:45.926Z</time></trkpt><trkpt lat="37.7879383" lon="14.8302767"><ele>736.6666666666666</ele><time>2026-04-25T10:25:46.927Z</time></trkpt><trkpt lat="37.7880033" lon="14.830345"><ele>736.5</ele><time>2026-04-25T10:25:47.927Z</time></trkpt><trkpt lat="37.788065" lon="14.8304033"><ele>736.3333333333334</ele><time>2026-04-25T10:25:48.927Z</time></trkpt><trkpt lat="37.7881233" lon="14.8304567"><ele>736.1666666666667</ele><time>2026-04-25T10:25:49.926Z</time></trkpt><trkpt lat="37.78821" lon="14.8305333"><ele>736.0</ele><time>2026-04-25T10:25:51.926Z</time></trkpt><trkpt lat="37.7882483" lon="14.8306167"><ele>736.0</ele><time>2026-04-25T10:25:54.927Z</time></trkpt><trkpt lat="37.7883133" lon="14.8307433"><ele>736.0</ele><time>2026-04-25T10:26:04.927Z</time></trkpt><trkpt lat="37.7883917" lon="14.8308183"><ele>736.0</ele><time>2026-04-25T10:26:07.926Z</time></trkpt><trkpt lat="37.7884533" lon="14.83084"><ele>736.0</ele><time>2026-04-25T10:26:08.926Z</time></trkpt><trkpt lat="37.7885383" lon="14.83086"><ele>736.0</ele><time>2026-04-25T10:26:09.926Z</time></trkpt><trkpt lat="37.7886333" lon="14.8308667"><ele>735.8</ele><time>2026-04-25T10:26:10.927Z</time></trkpt><trkpt lat="37.78873" lon="14.8308717"><ele>735.5999999999999</ele><time>2026-04-25T10:26:11.927Z</time></trkpt><trkpt lat="37.78883" lon="14.8308733"><ele>735.4</ele><time>2026-04-25T10:26:12.927Z</time></trkpt><trkpt lat="37.7889233" lon="14.8308717"><ele>735.2</ele><time>2026-04-25T10:26:13.927Z</time></trkpt><trkpt lat="37.7890133" lon="14.8308583"><ele>735.0</ele><time>2026-04-25T10:26:14.927Z</time></trkpt><trkpt lat="37.7891017" lon="14.8308317"><ele>735.0</ele><time>2026-04-25T10:26:15.926Z</time></trkpt><trkpt lat="37.7891833" lon="14.8307967"><ele>735.0</ele><time>2026-04-25T10:26:16.927Z</time></trkpt><trkpt lat="37.7892583" lon="14.8307633"><ele>735.0</ele><time>2026-04-25T10:26:17.927Z</time></trkpt><trkpt lat="37.78933" lon="14.8307383"><ele>735.0</ele><time>2026-04-25T10:26:18.926Z</time></trkpt><trkpt lat="37.789405" lon="14.8307217"><ele>735.0</ele><time>2026-04-25T10:26:19.926Z</time></trkpt><trkpt lat="37.7894867" lon="14.8307117"><ele>735.0</ele><time>2026-04-25T10:26:20.927Z</time></trkpt><trkpt lat="37.7895767" lon="14.830705"><ele>734.4</ele><time>2026-04-25T10:26:21.926Z</time></trkpt><trkpt lat="37.7896733" lon="14.8307167"><ele>733.8</ele><time>2026-04-25T10:26:22.927Z</time></trkpt><trkpt lat="37.7897733" lon="14.8307483"><ele>733.2</ele><time>2026-04-25T10:26:23.927Z</time></trkpt><trkpt lat="37.78987" lon="14.8307883"><ele>732.6</ele><time>2026-04-25T10:26:24.927Z</time></trkpt><trkpt lat="37.789965" lon="14.8308317"><ele>732.0</ele><time>2026-04-25T10:26:25.926Z</time></trkpt><trkpt lat="37.79005" lon="14.8308783"><ele>732.0</ele><time>2026-04-25T10:26:26.927Z</time></trkpt><trkpt lat="37.7901383" lon="14.8309267"><ele>732.0</ele><time>2026-04-25T10:26:27.926Z</time></trkpt><trkpt lat="37.7902233" lon="14.8309833"><ele>732.0</ele><time>2026-04-25T10:26:28.927Z</time></trkpt><trkpt lat="37.79031" lon="14.8310333"><ele>732.0</ele><time>2026-04-25T10:26:29.927Z</time></trkpt><trkpt lat="37.7904017" lon="14.8310767"><ele>732.0</ele><time>2026-04-25T10:26:30.927Z</time></trkpt><trkpt lat="37.7904967" lon="14.8311167"><ele>733.8</ele><time>2026-04-25T10:26:31.926Z</time></trkpt><trkpt lat="37.7905933" lon="14.8311433"><ele>735.6</ele><time>2026-04-25T10:26:32.927Z</time></trkpt><trkpt lat="37.7906683" lon="14.8311783"><ele>737.4</ele><time>2026-04-25T10:26:33.927Z</time></trkpt><trkpt lat="37.790735" lon="14.83121"><ele>739.1999999999999</ele><time>2026-04-25T10:26:34.927Z</time></trkpt><trkpt lat="37.79084" lon="14.83124"><ele>741.0</ele><time>2026-04-25T10:26:36.926Z</time></trkpt><trkpt lat="37.7909333" lon="14.831235"><ele>741.0</ele><time>2026-04-25T10:26:38.926Z</time></trkpt><trkpt lat="37.79101" lon="14.83127"><ele>741.0</ele><time>2026-04-25T10:26:40.926Z</time></trkpt><trkpt lat="37.7910267" lon="14.8313517"><ele>741.0</ele><time>2026-04-25T10:26:42.926Z</time></trkpt><trkpt lat="37.7909567" lon="14.831435"><ele>741.0</ele><time>2026-04-25T10:26:44.927Z</time></trkpt><trkpt lat="37.7908933" lon="14.8314583"><ele>741.0</ele><time>2026-04-25T10:26:45.926Z</time></trkpt><trkpt lat="37.79082" lon="14.8314567"><ele>741.0</ele><time>2026-04-25T10:26:46.927Z</time></trkpt><trkpt lat="37.790725" lon="14.83145"><ele>741.0</ele><time>2026-04-25T10:26:47.926Z</time></trkpt><trkpt lat="37.790625" lon="14.8314383"><ele>741.0</ele><time>2026-04-25T10:26:48.926Z</time></trkpt><trkpt lat="37.7905267" lon="14.8314183"><ele>741.0</ele><time>2026-04-25T10:26:49.927Z</time></trkpt><trkpt lat="37.7904283" lon="14.8314"><ele>741.0</ele><time>2026-04-25T10:26:50.927Z</time></trkpt><trkpt lat="37.790335" lon="14.8313767"><ele>741.0</ele><time>2026-04-25T10:26:51.927Z</time></trkpt><trkpt lat="37.7902433" lon="14.8313533"><ele>742.0</ele><time>2026-04-25T10:26:52.927Z</time></trkpt><trkpt lat="37.7901483" lon="14.8313383"><ele>743.0</ele><time>2026-04-25T10:26:53.926Z</time></trkpt><trkpt lat="37.79006" lon="14.8313083"><ele>744.0</ele><time>2026-04-25T10:26:54.927Z</time></trkpt><trkpt lat="37.78997" lon="14.8312817"><ele>745.0</ele><time>2026-04-25T10:26:55.927Z</time></trkpt><trkpt lat="37.78988" lon="14.8312633"><ele>746.0</ele><time>2026-04-25T10:26:56.926Z</time></trkpt><trkpt lat="37.7897933" lon="14.8312533"><ele>746.0</ele><time>2026-04-25T10:26:57.927Z</time></trkpt><trkpt lat="37.7897117" lon="14.831265"><ele>746.0</ele><time>2026-04-25T10:26:58.927Z</time></trkpt><trkpt lat="37.78965" lon="14.83131"><ele>746.0</ele><time>2026-04-25T10:26:59.927Z</time></trkpt><trkpt lat="37.7896017" lon="14.8313717"><ele>746.0</ele><time>2026-04-25T10:27:00.926Z</time></trkpt><trkpt lat="37.78956" lon="14.83146"><ele>746.0</ele><time>2026-04-25T10:27:01.926Z</time></trkpt><trkpt lat="37.78953" lon="14.8315733"><ele>746.0</ele><time>2026-04-25T10:27:02.927Z</time></trkpt><trkpt lat="37.7895133" lon="14.8317067"><ele>747.6666666666666</ele><time>2026-04-25T10:27:03.927Z</time></trkpt><trkpt lat="37.78948" lon="14.83181"><ele>749.3333333333333</ele><time>2026-04-25T10:27:04.926Z</time></trkpt><trkpt lat="37.7894433" lon="14.8318917"><ele>751.0</ele><time>2026-04-25T10:27:05.927Z</time></trkpt><trkpt lat="37.7893817" lon="14.8319633"><ele>752.6666666666666</ele><time>2026-04-25T10:27:07.927Z</time></trkpt><trkpt lat="37.7892983" lon="14.8320283"><ele>754.3333333333334</ele><time>2026-04-25T10:27:10.926Z</time></trkpt><trkpt lat="37.78923" lon="14.83208"><ele>756.0</ele><time>2026-04-25T10:27:12.927Z</time></trkpt><trkpt lat="37.78913" lon="14.8321467"><ele>756.4285714285714</ele><time>2026-04-25T10:27:14.926Z</time></trkpt><trkpt lat="37.7890633" lon="14.8321883"><ele>756.8571428571429</ele><time>2026-04-25T10:27:15.927Z</time></trkpt><trkpt lat="37.788995" lon="14.83223"><ele>757.2857142857142</ele><time>2026-04-25T10:27:16.927Z</time></trkpt><trkpt lat="37.7889267" lon="14.8322617"><ele>757.7142857142858</ele><time>2026-04-25T10:27:17.927Z</time></trkpt><trkpt lat="37.7888667" lon="14.8322917"><ele>758.1428571428571</ele><time>2026-04-25T10:27:18.926Z</time></trkpt><trkpt lat="37.7887983" lon="14.83235"><ele>758.5714285714286</ele><time>2026-04-25T10:27:19.926Z</time></trkpt><trkpt lat="37.7887333" lon="14.832405"><ele>759.0</ele><time>2026-04-25T10:27:20.926Z</time></trkpt><trkpt lat="37.7886733" lon="14.832455"><ele>759.0</ele><time>2026-04-25T10:27:21.927Z</time></trkpt><trkpt lat="37.7885783" lon="14.8325783"><ele>759.0</ele><time>2026-04-25T10:27:23.926Z</time></trkpt><trkpt lat="37.7885217" lon="14.8326467"><ele>759.0</ele><time>2026-04-25T10:27:24.927Z</time></trkpt><trkpt lat="37.7884317" lon="14.8327583"><ele>759.0</ele><time>2026-04-25T10:27:26.927Z</time></trkpt><trkpt lat="37.78836" lon="14.8327983"><ele>759.0</ele><time>2026-04-25T10:27:27.926Z</time></trkpt><trkpt lat="37.7882633" lon="14.8328783"><ele>761.3333333333334</ele><time>2026-04-25T10:27:29.927Z</time></trkpt><trkpt lat="37.7881783" lon="14.8329467"><ele>763.6666666666667</ele><time>2026-04-25T10:27:31.927Z</time></trkpt><trkpt lat="37.7881067" lon="14.8329333"><ele>766.0</ele><time>2026-04-25T10:27:34.927Z</time></trkpt><trkpt lat="37.7880333" lon="14.83288"><ele>768.3333333333334</ele><time>2026-04-25T10:27:37.927Z</time></trkpt><trkpt lat="37.7879683" lon="14.8329017"><ele>770.6666666666667</ele><time>2026-04-25T10:27:40.926Z</time></trkpt><trkpt lat="37.7879183" lon="14.8329683"><ele>773.0</ele><time>2026-04-25T10:27:43.927Z</time></trkpt><trkpt lat="37.78788" lon="14.8330583"><ele>773.0000000000001</ele><time>2026-04-25T10:27:47.926Z</time></trkpt><trkpt lat="37.7878317" lon="14.83314"><ele>773.0</ele><time>2026-04-25T10:27:49.927Z</time></trkpt><trkpt lat="37.78779" lon="14.8332233"><ele>773.0</ele><time>2026-04-25T10:27:51.926Z</time></trkpt><trkpt lat="37.7877133" lon="14.83332"><ele>773.0</ele><time>2026-04-25T10:27:54.927Z</time></trkpt><trkpt lat="37.7876617" lon="14.833375"><ele>773.0000000000001</ele><time>2026-04-25T10:27:56.926Z</time></trkpt><trkpt lat="37.7876033" lon="14.833415"><ele>773.0</ele><time>2026-04-25T10:27:58.926Z</time></trkpt><trkpt lat="37.7875217" lon="14.8334467"><ele>773.3333333333334</ele><time>2026-04-25T10:28:00.927Z</time></trkpt><trkpt lat="37.7874283" lon="14.8334683"><ele>773.6666666666667</ele><time>2026-04-25T10:28:02.926Z</time></trkpt><trkpt lat="37.7873467" lon="14.8334683"><ele>774.0</ele><time>2026-04-25T10:28:05.927Z</time></trkpt><trkpt lat="37.7873" lon="14.8335267"><ele>774.3333333333333</ele><time>2026-04-25T10:28:07.927Z</time></trkpt><trkpt lat="37.7872483" lon="14.8336133"><ele>774.6666666666666</ele><time>2026-04-25T10:28:10.927Z</time></trkpt><trkpt lat="37.7872633" lon="14.83373"><ele>775.0</ele><time>2026-04-25T10:28:13.927Z</time></trkpt><trkpt lat="37.7873317" lon="14.8337633"><ele>775.8333333333333</ele><time>2026-04-25T10:28:15.926Z</time></trkpt><trkpt lat="37.7873933" lon="14.8337833"><ele>776.6666666666666</ele><time>2026-04-25T10:28:17.927Z</time></trkpt><trkpt lat="37.7874617" lon="14.833815"><ele>777.5</ele><time>2026-04-25T10:28:19.927Z</time></trkpt><trkpt lat="37.78754" lon="14.8338383"><ele>778.3333333333333</ele><time>2026-04-25T10:28:21.927Z</time></trkpt><trkpt lat="37.7876183" lon="14.8338083"><ele>779.1666666666666</ele><time>2026-04-25T10:28:23.927Z</time></trkpt><trkpt lat="37.787705" lon="14.8337817"><ele>780.0</ele><time>2026-04-25T10:28:25.927Z</time></trkpt><trkpt lat="37.7878117" lon="14.83376"><ele>780.0</ele><time>2026-04-25T10:28:27.927Z</time></trkpt><trkpt lat="37.7879067" lon="14.8337267"><ele>780.0</ele><time>2026-04-25T10:28:29.926Z</time></trkpt><trkpt lat="37.7879933" lon="14.8336967"><ele>780.0</ele><time>2026-04-25T10:28:31.927Z</time></trkpt><trkpt lat="37.788075" lon="14.8336917"><ele>780.0</ele><time>2026-04-25T10:28:33.927Z</time></trkpt><trkpt lat="37.7881517" lon="14.8336867"><ele>780.0</ele><time>2026-04-25T10:28:35.926Z</time></trkpt><trkpt lat="37.78823" lon="14.8336833"><ele>780.0</ele><time>2026-04-25T10:28:37.927Z</time></trkpt><trkpt lat="37.7883117" lon="14.8337117"><ele>780.0</ele><time>2026-04-25T10:28:39.926Z</time></trkpt><trkpt lat="37.7883967" lon="14.8338017"><ele>780.0</ele><time>2026-04-25T10:28:41.927Z</time></trkpt><trkpt lat="37.7884383" lon="14.833865"><ele>780.0</ele><time>2026-04-25T10:28:42.926Z</time></trkpt><trkpt lat="37.7884767" lon="14.8339417"><ele>780.0</ele><time>2026-04-25T10:28:43.927Z</time></trkpt><trkpt lat="37.7885133" lon="14.8340183"><ele>780.0</ele><time>2026-04-25T10:28:44.926Z</time></trkpt><trkpt lat="37.7885517" lon="14.8340983"><ele>780.0</ele><time>2026-04-25T10:28:45.927Z</time></trkpt><trkpt lat="37.78859" lon="14.83418"><ele>780.0</ele><time>2026-04-25T10:28:46.926Z</time></trkpt><trkpt lat="37.788625" lon="14.83426"><ele>780.0</ele><time>2026-04-25T10:28:47.927Z</time></trkpt><trkpt lat="37.7886633" lon="14.8343367"><ele>780.0</ele><time>2026-04-25T10:28:48.927Z</time></trkpt><trkpt lat="37.7887033" lon="14.83441"><ele>780.0</ele><time>2026-04-25T10:28:49.927Z</time></trkpt><trkpt lat="37.788745" lon="14.8344733"><ele>780.0</ele><time>2026-04-25T10:28:50.927Z</time></trkpt><trkpt lat="37.788785" lon="14.83454"><ele>780.0</ele><time>2026-04-25T10:28:51.927Z</time></trkpt><trkpt lat="37.788825" lon="14.83462"><ele>780.0</ele><time>2026-04-25T10:28:52.926Z</time></trkpt><trkpt lat="37.7888567" lon="14.8347017"><ele>781.3333333333334</ele><time>2026-04-25T10:28:53.927Z</time></trkpt><trkpt lat="37.788895" lon="14.8347767"><ele>782.6666666666667</ele><time>2026-04-25T10:28:54.927Z</time></trkpt><trkpt lat="37.7889233" lon="14.8348583"><ele>784.0</ele><time>2026-04-25T10:28:55.926Z</time></trkpt><trkpt lat="37.78895" lon="14.8349467"><ele>785.3333333333334</ele><time>2026-04-25T10:28:56.926Z</time></trkpt><trkpt lat="37.78899" lon="14.8350133"><ele>786.6666666666667</ele><time>2026-04-25T10:28:57.926Z</time></trkpt><trkpt lat="37.7890517" lon="14.8351483"><ele>788.0</ele><time>2026-04-25T10:28:59.926Z</time></trkpt><trkpt lat="37.7890883" lon="14.8352133"><ele>790.25</ele><time>2026-04-25T10:29:00.926Z</time></trkpt><trkpt lat="37.7891683" lon="14.8353283"><ele>792.5</ele><time>2026-04-25T10:29:02.926Z</time></trkpt><trkpt lat="37.78927" lon="14.83538"><ele>794.75</ele><time>2026-04-25T10:29:04.926Z</time></trkpt><trkpt lat="37.78938" lon="14.8353883"><ele>797.0</ele><time>2026-04-25T10:29:06.926Z</time></trkpt><trkpt lat="37.7894933" lon="14.8353217"><ele>797.3333333333334</ele><time>2026-04-25T10:29:08.927Z</time></trkpt><trkpt lat="37.78954" lon="14.835255"><ele>797.6666666666667</ele><time>2026-04-25T10:29:09.926Z</time></trkpt><trkpt lat="37.7895833" lon="14.8351883"><ele>798.0</ele><time>2026-04-25T10:29:10.926Z</time></trkpt><trkpt lat="37.78961" lon="14.8351133"><ele>798.3333333333333</ele><time>2026-04-25T10:29:11.927Z</time></trkpt><trkpt lat="37.78966" lon="14.8350067"><ele>798.6666666666666</ele><time>2026-04-25T10:29:13.927Z</time></trkpt><trkpt lat="37.789725" lon="14.8349083"><ele>799.0</ele><time>2026-04-25T10:29:15.927Z</time></trkpt><trkpt lat="37.7898033" lon="14.8348033"><ele>798.1666666666666</ele><time>2026-04-25T10:29:17.927Z</time></trkpt><trkpt lat="37.7898467" lon="14.8347283"><ele>797.3333333333333</ele><time>2026-04-25T10:29:18.927Z</time></trkpt><trkpt lat="37.7899017" lon="14.8346583"><ele>796.5</ele><time>2026-04-25T10:29:19.926Z</time></trkpt><trkpt lat="37.7899583" lon="14.8346"><ele>795.6666666666667</ele><time>2026-04-25T10:29:20.927Z</time></trkpt><trkpt lat="37.7900083" lon="14.8345367"><ele>794.8333333333334</ele><time>2026-04-25T10:29:21.927Z</time></trkpt><trkpt lat="37.79006" lon="14.834485"><ele>794.0</ele><time>2026-04-25T10:29:22.927Z</time></trkpt><trkpt lat="37.7901433" lon="14.8344083"><ele>794.1666666666667</ele><time>2026-04-25T10:29:24.927Z</time></trkpt><trkpt lat="37.7902033" lon="14.8343733"><ele>794.3333333333334</ele><time>2026-04-25T10:29:26.927Z</time></trkpt><trkpt lat="37.7902617" lon="14.8344067"><ele>794.5</ele><time>2026-04-25T10:29:28.927Z</time></trkpt><trkpt lat="37.79033" lon="14.8344883"><ele>794.6666666666667</ele><time>2026-04-25T10:29:30.927Z</time></trkpt><trkpt lat="37.79041" lon="14.83461"><ele>794.8333333333334</ele><time>2026-04-25T10:29:32.927Z</time></trkpt><trkpt lat="37.7904583" lon="14.834695"><ele>795.0</ele><time>2026-04-25T10:29:33.926Z</time></trkpt><trkpt lat="37.79051" lon="14.8348017"><ele>795.0</ele><time>2026-04-25T10:29:34.926Z</time></trkpt><trkpt lat="37.7905717" lon="14.8349133"><ele>795.0</ele><time>2026-04-25T10:29:35.927Z</time></trkpt><trkpt lat="37.7906333" lon="14.83503"><ele>795.0</ele><time>2026-04-25T10:29:36.926Z</time></trkpt><trkpt lat="37.7907017" lon="14.8351467"><ele>795.0</ele><time>2026-04-25T10:29:37.927Z</time></trkpt><trkpt lat="37.7907633" lon="14.8352633"><ele>795.0</ele><time>2026-04-25T10:29:38.927Z</time></trkpt><trkpt lat="37.79083" lon="14.83536"><ele>795.3333333333334</ele><time>2026-04-25T10:29:39.927Z</time></trkpt><trkpt lat="37.7908883" lon="14.8354533"><ele>795.6666666666667</ele><time>2026-04-25T10:29:40.927Z</time></trkpt><trkpt lat="37.7909383" lon="14.835545"><ele>796.0</ele><time>2026-04-25T10:29:41.926Z</time></trkpt><trkpt lat="37.7909783" lon="14.83564"><ele>796.3333333333334</ele><time>2026-04-25T10:29:42.927Z</time></trkpt><trkpt lat="37.7910033" lon="14.8357383"><ele>796.6666666666667</ele><time>2026-04-25T10:29:43.927Z</time></trkpt><trkpt lat="37.7910233" lon="14.8358317"><ele>797.0</ele><time>2026-04-25T10:29:44.926Z</time></trkpt><trkpt lat="37.7910283" lon="14.8359133"><ele>797.6666666666667</ele><time>2026-04-25T10:29:45.927Z</time></trkpt><trkpt lat="37.7910167" lon="14.8359967"><ele>798.3333333333334</ele><time>2026-04-25T10:29:46.926Z</time></trkpt><trkpt lat="37.79099" lon="14.83609"><ele>799.0</ele><time>2026-04-25T10:29:47.927Z</time></trkpt><trkpt lat="37.7909617" lon="14.8361867"><ele>799.6666666666667</ele><time>2026-04-25T10:29:48.927Z</time></trkpt><trkpt lat="37.7909283" lon="14.8363017"><ele>800.3333333333334</ele><time>2026-04-25T10:29:49.926Z</time></trkpt><trkpt lat="37.7908917" lon="14.8364267"><ele>801.0</ele><time>2026-04-25T10:29:50.926Z</time></trkpt><trkpt lat="37.7908467" lon="14.83655"><ele>801.0</ele><time>2026-04-25T10:29:51.926Z</time></trkpt><trkpt lat="37.7907983" lon="14.83667"><ele>801.0</ele><time>2026-04-25T10:29:52.926Z</time></trkpt><trkpt lat="37.7907483" lon="14.8368"><ele>801.0</ele><time>2026-04-25T10:29:53.926Z</time></trkpt><trkpt lat="37.7907017" lon="14.8369317"><ele>801.0</ele><time>2026-04-25T10:29:54.927Z</time></trkpt><trkpt lat="37.7906517" lon="14.8370717"><ele>802.0</ele><time>2026-04-25T10:29:55.927Z</time></trkpt><trkpt lat="37.790605" lon="14.8372117"><ele>803.0</ele><time>2026-04-25T10:29:56.927Z</time></trkpt><trkpt lat="37.7905617" lon="14.837345"><ele>804.0</ele><time>2026-04-25T10:29:57.926Z</time></trkpt><trkpt lat="37.790515" lon="14.83749"><ele>805.0</ele><time>2026-04-25T10:29:58.926Z</time></trkpt><trkpt lat="37.7904717" lon="14.8376333"><ele>806.75</ele><time>2026-04-25T10:29:59.927Z</time></trkpt><trkpt lat="37.790425" lon="14.8377717"><ele>808.5</ele><time>2026-04-25T10:30:00.926Z</time></trkpt><trkpt lat="37.7903767" lon="14.837915"><ele>810.25</ele><time>2026-04-25T10:30:01.927Z</time></trkpt><trkpt lat="37.790335" lon="14.838055"><ele>812.0</ele><time>2026-04-25T10:30:02.927Z</time></trkpt><trkpt lat="37.7902983" lon="14.8382"><ele>812.0</ele><time>2026-04-25T10:30:03.927Z</time></trkpt><trkpt lat="37.7902717" lon="14.8383467"><ele>812.0</ele><time>2026-04-25T10:30:04.927Z</time></trkpt><trkpt lat="37.790255" lon="14.8384917"><ele>812.0</ele><time>2026-04-25T10:30:05.927Z</time></trkpt><trkpt lat="37.790255" lon="14.83864"><ele>812.0</ele><time>2026-04-25T10:30:06.926Z</time></trkpt><trkpt lat="37.79026" lon="14.8387867"><ele>814.0</ele><time>2026-04-25T10:30:07.927Z</time></trkpt><trkpt lat="37.790275" lon="14.83893"><ele>816.0</ele><time>2026-04-25T10:30:08.927Z</time></trkpt><trkpt lat="37.7903067" lon="14.8390583"><ele>818.0</ele><time>2026-04-25T10:30:09.927Z</time></trkpt><trkpt lat="37.7903383" lon="14.8391733"><ele>820.0</ele><time>2026-04-25T10:30:10.926Z</time></trkpt><trkpt lat="37.7903583" lon="14.83928"><ele>822.0</ele><time>2026-04-25T10:30:11.927Z</time></trkpt><trkpt lat="37.790375" lon="14.839375"><ele>823.5</ele><time>2026-04-25T10:30:12.927Z</time></trkpt><trkpt lat="37.7903533" lon="14.839515"><ele>825.0</ele><time>2026-04-25T10:30:14.927Z</time></trkpt><trkpt lat="37.7903617" lon="14.8396617"><ele>826.5</ele><time>2026-04-25T10:30:16.926Z</time></trkpt><trkpt lat="37.7903817" lon="14.8397467"><ele>828.0</ele><time>2026-04-25T10:30:17.927Z</time></trkpt><trkpt lat="37.790415" lon="14.839825"><ele>829.5</ele><time>2026-04-25T10:30:18.926Z</time></trkpt><trkpt lat="37.7904533" lon="14.8398983"><ele>831.0</ele><time>2026-04-25T10:30:19.927Z</time></trkpt><trkpt lat="37.79049" lon="14.8399633"><ele>831.0</ele><time>2026-04-25T10:30:20.927Z</time></trkpt><trkpt lat="37.79054" lon="14.8400717"><ele>831.0</ele><time>2026-04-25T10:30:22.927Z</time></trkpt><trkpt lat="37.7905783" lon="14.8401717"><ele>831.0</ele><time>2026-04-25T10:30:24.927Z</time></trkpt><trkpt lat="37.79062" lon="14.8402633"><ele>831.0</ele><time>2026-04-25T10:30:27.927Z</time></trkpt><trkpt lat="37.7906517" lon="14.840365"><ele>831.0</ele><time>2026-04-25T10:30:30.927Z</time></trkpt><trkpt lat="37.7906833" lon="14.8404417"><ele>831.0</ele><time>2026-04-25T10:30:32.926Z</time></trkpt><trkpt lat="37.79073" lon="14.840565"><ele>831.8333333333334</ele><time>2026-04-25T10:30:34.927Z</time></trkpt><trkpt lat="37.7907583" lon="14.84065"><ele>832.6666666666667</ele><time>2026-04-25T10:30:35.927Z</time></trkpt><trkpt lat="37.7907833" lon="14.8407517"><ele>833.5</ele><time>2026-04-25T10:30:36.927Z</time></trkpt><trkpt lat="37.790795" lon="14.8408683"><ele>834.3333333333334</ele><time>2026-04-25T10:30:37.927Z</time></trkpt><trkpt lat="37.790795" lon="14.8409867"><ele>835.1666666666667</ele><time>2026-04-25T10:30:38.926Z</time></trkpt><trkpt lat="37.7907867" lon="14.8410933"><ele>836.0</ele><time>2026-04-25T10:30:39.927Z</time></trkpt><trkpt lat="37.790785" lon="14.8411883"><ele>836.8571428571429</ele><time>2026-04-25T10:30:40.926Z</time></trkpt><trkpt lat="37.7907917" lon="14.8412733"><ele>837.7142857142857</ele><time>2026-04-25T10:30:41.926Z</time></trkpt><trkpt lat="37.79081" lon="14.8413583"><ele>838.5714285714287</ele><time>2026-04-25T10:30:42.926Z</time></trkpt><trkpt lat="37.790845" lon="14.8414433"><ele>839.4285714285714</ele><time>2026-04-25T10:30:43.927Z</time></trkpt><trkpt lat="37.7908933" lon="14.8415217"><ele>840.2857142857143</ele><time>2026-04-25T10:30:44.927Z</time></trkpt><trkpt lat="37.7909483" lon="14.841595"><ele>841.1428571428572</ele><time>2026-04-25T10:30:45.926Z</time></trkpt><trkpt lat="37.7910067" lon="14.84166"><ele>842.0</ele><time>2026-04-25T10:30:46.926Z</time></trkpt><trkpt lat="37.7910617" lon="14.8417283"><ele>843.1666666666667</ele><time>2026-04-25T10:30:47.927Z</time></trkpt><trkpt lat="37.791115" lon="14.8418033"><ele>844.3333333333334</ele><time>2026-04-25T10:30:48.926Z</time></trkpt><trkpt lat="37.79117" lon="14.8418817"><ele>845.5</ele><time>2026-04-25T10:30:49.926Z</time></trkpt><trkpt lat="37.791225" lon="14.8419583"><ele>846.6666666666667</ele><time>2026-04-25T10:30:50.927Z</time></trkpt><trkpt lat="37.79127" lon="14.84204"><ele>847.8333333333334</ele><time>2026-04-25T10:30:51.926Z</time></trkpt><trkpt lat="37.7913067" lon="14.8421267"><ele>849.0</ele><time>2026-04-25T10:30:52.927Z</time></trkpt><trkpt lat="37.7913367" lon="14.8422117"><ele>849.0</ele><time>2026-04-25T10:30:53.926Z</time></trkpt><trkpt lat="37.7913633" lon="14.8422967"><ele>849.0</ele><time>2026-04-25T10:30:54.927Z</time></trkpt><trkpt lat="37.7913867" lon="14.8423833"><ele>849.0</ele><time>2026-04-25T10:30:55.926Z</time></trkpt><trkpt lat="37.79141" lon="14.84246"><ele>849.0</ele><time>2026-04-25T10:30:56.926Z</time></trkpt><trkpt lat="37.79146" lon="14.842595"><ele>849.0</ele><time>2026-04-25T10:30:58.926Z</time></trkpt><trkpt lat="37.7915083" lon="14.8427183"><ele>849.0</ele><time>2026-04-25T10:31:00.927Z</time></trkpt><trkpt lat="37.7915333" lon="14.8427933"><ele>850.0</ele><time>2026-04-25T10:31:01.927Z</time></trkpt><trkpt lat="37.7915633" lon="14.8428767"><ele>851.0</ele><time>2026-04-25T10:31:02.927Z</time></trkpt><trkpt lat="37.7915983" lon="14.842975"><ele>852.0000000000001</ele><time>2026-04-25T10:31:03.927Z</time></trkpt><trkpt lat="37.79164" lon="14.8430833"><ele>853.0</ele><time>2026-04-25T10:31:04.927Z</time></trkpt><trkpt lat="37.7916833" lon="14.8432033"><ele>854.0</ele><time>2026-04-25T10:31:05.926Z</time></trkpt><trkpt lat="37.7917367" lon="14.8433383"><ele>855.25</ele><time>2026-04-25T10:31:06.926Z</time></trkpt><trkpt lat="37.791785" lon="14.843465"><ele>856.5</ele><time>2026-04-25T10:31:07.927Z</time></trkpt><trkpt lat="37.7918367" lon="14.8435983"><ele>857.75</ele><time>2026-04-25T10:31:08.926Z</time></trkpt><trkpt lat="37.7918867" lon="14.843735"><ele>859.0</ele><time>2026-04-25T10:31:09.927Z</time></trkpt><trkpt lat="37.7919417" lon="14.843875"><ele>861.0</ele><time>2026-04-25T10:31:10.926Z</time></trkpt><trkpt lat="37.791995" lon="14.8440133"><ele>863.0</ele><time>2026-04-25T10:31:11.926Z</time></trkpt><trkpt lat="37.7920483" lon="14.8441583"><ele>865.0</ele><time>2026-04-25T10:31:12.927Z</time></trkpt><trkpt lat="37.7921067" lon="14.844295"><ele>867.0</ele><time>2026-04-25T10:31:13.926Z</time></trkpt><trkpt lat="37.79217" lon="14.8444333"><ele>867.25</ele><time>2026-04-25T10:31:14.926Z</time></trkpt><trkpt lat="37.7922317" lon="14.8445683"><ele>867.5</ele><time>2026-04-25T10:31:15.926Z</time></trkpt><trkpt lat="37.7923067" lon="14.8447083"><ele>867.75</ele><time>2026-04-25T10:31:16.927Z</time></trkpt><trkpt lat="37.7923933" lon="14.8448483"><ele>868.0</ele><time>2026-04-25T10:31:17.927Z</time></trkpt><trkpt lat="37.7924767" lon="14.844995"><ele>868.5</ele><time>2026-04-25T10:31:18.927Z</time></trkpt><trkpt lat="37.7925633" lon="14.8451383"><ele>869.0</ele><time>2026-04-25T10:31:19.927Z</time></trkpt><trkpt lat="37.7926517" lon="14.845275"><ele>869.5</ele><time>2026-04-25T10:31:20.927Z</time></trkpt><trkpt lat="37.7927333" lon="14.8454033"><ele>870.0</ele><time>2026-04-25T10:31:21.926Z</time></trkpt><trkpt lat="37.7928067" lon="14.845525"><ele>871.2</ele><time>2026-04-25T10:31:22.926Z</time></trkpt><trkpt lat="37.7928733" lon="14.8456333"><ele>872.4</ele><time>2026-04-25T10:31:23.926Z</time></trkpt><trkpt lat="37.79294" lon="14.84574"><ele>873.5999999999999</ele><time>2026-04-25T10:31:24.926Z</time></trkpt><trkpt lat="37.7930067" lon="14.8458367"><ele>874.8</ele><time>2026-04-25T10:31:25.927Z</time></trkpt><trkpt lat="37.7930667" lon="14.8459317"><ele>876.0</ele><time>2026-04-25T10:31:26.927Z</time></trkpt><trkpt lat="37.7931233" lon="14.846025"><ele>876.8</ele><time>2026-04-25T10:31:27.927Z</time></trkpt><trkpt lat="37.79318" lon="14.8461167"><ele>877.5999999999999</ele><time>2026-04-25T10:31:28.926Z</time></trkpt><trkpt lat="37.7932417" lon="14.84621"><ele>878.4</ele><time>2026-04-25T10:31:29.927Z</time></trkpt><trkpt lat="37.7933067" lon="14.8463033"><ele>879.2</ele><time>2026-04-25T10:31:30.927Z</time></trkpt><trkpt lat="37.7933733" lon="14.8463983"><ele>880.0</ele><time>2026-04-25T10:31:31.927Z</time></trkpt><trkpt lat="37.7934433" lon="14.8464917"><ele>880.6</ele><time>2026-04-25T10:31:32.927Z</time></trkpt><trkpt lat="37.7935183" lon="14.8465817"><ele>881.2</ele><time>2026-04-25T10:31:33.925Z</time></trkpt><trkpt lat="37.7935983" lon="14.84667"><ele>881.8</ele><time>2026-04-25T10:31:34.926Z</time></trkpt><trkpt lat="37.79368" lon="14.846755"><ele>882.4</ele><time>2026-04-25T10:31:35.925Z</time></trkpt><trkpt lat="37.7937667" lon="14.84684"><ele>883.0</ele><time>2026-04-25T10:31:36.925Z</time></trkpt><trkpt lat="37.793855" lon="14.8469217"><ele>883.0</ele><time>2026-04-25T10:31:37.925Z</time></trkpt><trkpt lat="37.7939417" lon="14.8470017"><ele>883.0</ele><time>2026-04-25T10:31:38.925Z</time></trkpt><trkpt lat="37.7940283" lon="14.8470867"><ele>883.0</ele><time>2026-04-25T10:31:39.925Z</time></trkpt><trkpt lat="37.79411" lon="14.8471833"><ele>883.0</ele><time>2026-04-25T10:31:40.926Z</time></trkpt><trkpt lat="37.7941817" lon="14.847295"><ele>883.0</ele><time>2026-04-25T10:31:41.926Z</time></trkpt><trkpt lat="37.79424" lon="14.8474233"><ele>883.0</ele><time>2026-04-25T10:31:42.926Z</time></trkpt><trkpt lat="37.7942883" lon="14.8475617"><ele>883.0</ele><time>2026-04-25T10:31:43.926Z</time></trkpt><trkpt lat="37.7943383" lon="14.8476983"><ele>883.0</ele><time>2026-04-25T10:31:44.926Z</time></trkpt><trkpt lat="37.7943967" lon="14.847835"><ele>883.0</ele><time>2026-04-25T10:31:45.926Z</time></trkpt><trkpt lat="37.7944617" lon="14.8479667"><ele>883.75</ele><time>2026-04-25T10:31:46.926Z</time></trkpt><trkpt lat="37.79453" lon="14.8480933"><ele>884.5</ele><time>2026-04-25T10:31:47.926Z</time></trkpt><trkpt lat="37.7945983" lon="14.8482167"><ele>885.25</ele><time>2026-04-25T10:31:48.925Z</time></trkpt><trkpt lat="37.7946633" lon="14.8483383"><ele>886.0</ele><time>2026-04-25T10:31:49.925Z</time></trkpt><trkpt lat="37.7947267" lon="14.848455"><ele>887.8</ele><time>2026-04-25T10:31:50.926Z</time></trkpt><trkpt lat="37.7947883" lon="14.8485683"><ele>889.5999999999999</ele><time>2026-04-25T10:31:51.926Z</time></trkpt><trkpt lat="37.7948517" lon="14.8486817"><ele>891.4</ele><time>2026-04-25T10:31:52.926Z</time></trkpt><trkpt lat="37.7949183" lon="14.848795"><ele>893.2</ele><time>2026-04-25T10:31:53.926Z</time></trkpt><trkpt lat="37.794985" lon="14.84891"><ele>895.0</ele><time>2026-04-25T10:31:54.925Z</time></trkpt><trkpt lat="37.795055" lon="14.8490217"><ele>895.0</ele><time>2026-04-25T10:31:55.925Z</time></trkpt><trkpt lat="37.79513" lon="14.8491233"><ele>895.0</ele><time>2026-04-25T10:31:56.925Z</time></trkpt><trkpt lat="37.795215" lon="14.8491967"><ele>895.0</ele><time>2026-04-25T10:31:57.926Z</time></trkpt><trkpt lat="37.7953083" lon="14.849225"><ele>895.0</ele><time>2026-04-25T10:31:58.926Z</time></trkpt><trkpt lat="37.7954083" lon="14.8492217"><ele>895.0</ele><time>2026-04-25T10:31:59.925Z</time></trkpt><trkpt lat="37.7955133" lon="14.8491967"><ele>895.8</ele><time>2026-04-25T10:32:00.925Z</time></trkpt><trkpt lat="37.7956217" lon="14.84917"><ele>896.6</ele><time>2026-04-25T10:32:01.925Z</time></trkpt><trkpt lat="37.7957267" lon="14.8491483"><ele>897.4000000000001</ele><time>2026-04-25T10:32:02.926Z</time></trkpt><trkpt lat="37.795835" lon="14.8491383"><ele>898.2</ele><time>2026-04-25T10:32:03.925Z</time></trkpt><trkpt lat="37.795945" lon="14.849155"><ele>899.0</ele><time>2026-04-25T10:32:04.925Z</time></trkpt><trkpt lat="37.7960517" lon="14.849195"><ele>897.0</ele><time>2026-04-25T10:32:05.926Z</time></trkpt><trkpt lat="37.7961533" lon="14.849255"><ele>895.0000000000001</ele><time>2026-04-25T10:32:06.926Z</time></trkpt><trkpt lat="37.7962483" lon="14.8493267"><ele>893.0000000000001</ele><time>2026-04-25T10:32:07.926Z</time></trkpt><trkpt lat="37.7963433" lon="14.8493967"><ele>891.0</ele><time>2026-04-25T10:32:08.925Z</time></trkpt><trkpt lat="37.796435" lon="14.8494683"><ele>889.0</ele><time>2026-04-25T10:32:09.925Z</time></trkpt><trkpt lat="37.796525" lon="14.8495417"><ele>890.6</ele><time>2026-04-25T10:32:10.926Z</time></trkpt><trkpt lat="37.7966117" lon="14.849625"><ele>892.2</ele><time>2026-04-25T10:32:11.926Z</time></trkpt><trkpt lat="37.7966883" lon="14.8497217"><ele>893.8000000000001</ele><time>2026-04-25T10:32:12.926Z</time></trkpt><trkpt lat="37.7967567" lon="14.8498333"><ele>895.4000000000001</ele><time>2026-04-25T10:32:13.926Z</time></trkpt><trkpt lat="37.796815" lon="14.84996"><ele>897.0</ele><time>2026-04-25T10:32:14.926Z</time></trkpt><trkpt lat="37.79687" lon="14.850085"><ele>900.0</ele><time>2026-04-25T10:32:15.926Z</time></trkpt><trkpt lat="37.7969217" lon="14.8502017"><ele>903.0</ele><time>2026-04-25T10:32:16.926Z</time></trkpt><trkpt lat="37.7969767" lon="14.8503133"><ele>906.0</ele><time>2026-04-25T10:32:17.926Z</time></trkpt><trkpt lat="37.797025" lon="14.85043"><ele>909.0</ele><time>2026-04-25T10:32:18.925Z</time></trkpt><trkpt lat="37.7970683" lon="14.8505283"><ele>912.0</ele><time>2026-04-25T10:32:19.926Z</time></trkpt><trkpt lat="37.7971117" lon="14.85062"><ele>912.0</ele><time>2026-04-25T10:32:20.926Z</time></trkpt><trkpt lat="37.7971517" lon="14.8507033"><ele>912.0</ele><time>2026-04-25T10:32:21.926Z</time></trkpt><trkpt lat="37.7971833" lon="14.850775"><ele>912.0</ele><time>2026-04-25T10:32:22.925Z</time></trkpt><trkpt lat="37.79724" lon="14.8509067"><ele>912.0</ele><time>2026-04-25T10:32:24.925Z</time></trkpt><trkpt lat="37.7973017" lon="14.851025"><ele>912.0</ele><time>2026-04-25T10:32:26.926Z</time></trkpt><trkpt lat="37.7973483" lon="14.8510983"><ele>912.0</ele><time>2026-04-25T10:32:27.925Z</time></trkpt><trkpt lat="37.7974017" lon="14.8511833"><ele>914.8</ele><time>2026-04-25T10:32:28.925Z</time></trkpt><trkpt lat="37.7974633" lon="14.85128"><ele>917.6</ele><time>2026-04-25T10:32:29.926Z</time></trkpt><trkpt lat="37.7975283" lon="14.8513833"><ele>920.3999999999999</ele><time>2026-04-25T10:32:30.925Z</time></trkpt><trkpt lat="37.7976033" lon="14.8514933"><ele>923.1999999999999</ele><time>2026-04-25T10:32:31.925Z</time></trkpt><trkpt lat="37.7976783" lon="14.8515933"><ele>926.0</ele><time>2026-04-25T10:32:32.926Z</time></trkpt><trkpt lat="37.7977517" lon="14.85169"><ele>926.4</ele><time>2026-04-25T10:32:33.925Z</time></trkpt><trkpt lat="37.797835" lon="14.8517783"><ele>926.8</ele><time>2026-04-25T10:32:34.925Z</time></trkpt><trkpt lat="37.7979167" lon="14.8518317"><ele>927.1999999999999</ele><time>2026-04-25T10:32:35.926Z</time></trkpt><trkpt lat="37.7980133" lon="14.851855"><ele>927.5999999999999</ele><time>2026-04-25T10:32:36.925Z</time></trkpt><trkpt lat="37.7981083" lon="14.8518467"><ele>928.0</ele><time>2026-04-25T10:32:37.926Z</time></trkpt><trkpt lat="37.79821" lon="14.85183"><ele>928.0</ele><time>2026-04-25T10:32:38.926Z</time></trkpt><trkpt lat="37.7983183" lon="14.8517933"><ele>928.0</ele><time>2026-04-25T10:32:39.925Z</time></trkpt><trkpt lat="37.79842" lon="14.8517233"><ele>928.0</ele><time>2026-04-25T10:32:40.925Z</time></trkpt><trkpt lat="37.798505" lon="14.8516383"><ele>928.0</ele><time>2026-04-25T10:32:41.926Z</time></trkpt><trkpt lat="37.79858" lon="14.8515417"><ele>928.0</ele><time>2026-04-25T10:32:42.926Z</time></trkpt><trkpt lat="37.7986583" lon="14.8514333"><ele>930.5</ele><time>2026-04-25T10:32:43.926Z</time></trkpt><trkpt lat="37.7987417" lon="14.8513317"><ele>933.0</ele><time>2026-04-25T10:32:44.925Z</time></trkpt><trkpt lat="37.7988333" lon="14.8512433"><ele>935.5</ele><time>2026-04-25T10:32:45.925Z</time></trkpt><trkpt lat="37.7989333" lon="14.851175"><ele>938.0</ele><time>2026-04-25T10:32:46.925Z</time></trkpt><trkpt lat="37.7990367" lon="14.8511167"><ele>938.0</ele><time>2026-04-25T10:32:47.926Z</time></trkpt><trkpt lat="37.7991383" lon="14.85108"><ele>938.0</ele><time>2026-04-25T10:32:48.926Z</time></trkpt><trkpt lat="37.799235" lon="14.85107"><ele>938.0</ele><time>2026-04-25T10:32:49.925Z</time></trkpt><trkpt lat="37.7993233" lon="14.8510933"><ele>938.0</ele><time>2026-04-25T10:32:50.925Z</time></trkpt><trkpt lat="37.799405" lon="14.8511433"><ele>938.0</ele><time>2026-04-25T10:32:51.925Z</time></trkpt><trkpt lat="37.7994817" lon="14.8512167"><ele>938.5999999999999</ele><time>2026-04-25T10:32:52.926Z</time></trkpt><trkpt lat="37.7995467" lon="14.8513217"><ele>939.1999999999999</ele><time>2026-04-25T10:32:53.925Z</time></trkpt><trkpt lat="37.7996067" lon="14.8514317"><ele>939.8</ele><time>2026-04-25T10:32:54.925Z</time></trkpt><trkpt lat="37.7996667" lon="14.851535"><ele>940.4</ele><time>2026-04-25T10:32:55.925Z</time></trkpt><trkpt lat="37.799745" lon="14.8516167"><ele>941.0</ele><time>2026-04-25T10:32:56.925Z</time></trkpt><trkpt lat="37.7998333" lon="14.85166"><ele>941.0</ele><time>2026-04-25T10:32:57.925Z</time></trkpt><trkpt lat="37.79994" lon="14.8516717"><ele>941.0</ele><time>2026-04-25T10:32:58.925Z</time></trkpt><trkpt lat="37.8000633" lon="14.85167"><ele>941.0</ele><time>2026-04-25T10:32:59.926Z</time></trkpt><trkpt lat="37.800185" lon="14.8516567"><ele>941.0</ele><time>2026-04-25T10:33:00.926Z</time></trkpt><trkpt lat="37.800305" lon="14.8516467"><ele>942.75</ele><time>2026-04-25T10:33:01.926Z</time></trkpt><trkpt lat="37.80043" lon="14.8516317"><ele>944.5</ele><time>2026-04-25T10:33:02.926Z</time></trkpt><trkpt lat="37.8005567" lon="14.851615"><ele>946.25</ele><time>2026-04-25T10:33:03.926Z</time></trkpt><trkpt lat="37.800685" lon="14.8516"><ele>948.0</ele><time>2026-04-25T10:33:04.925Z</time></trkpt><trkpt lat="37.8008183" lon="14.8515917"><ele>948.0</ele><time>2026-04-25T10:33:05.925Z</time></trkpt><trkpt lat="37.8009483" lon="14.8515967"><ele>948.0</ele><time>2026-04-25T10:33:06.925Z</time></trkpt><trkpt lat="37.80108" lon="14.85163"><ele>948.0</ele><time>2026-04-25T10:33:07.925Z</time></trkpt><trkpt lat="37.801215" lon="14.85168"><ele>948.0</ele><time>2026-04-25T10:33:08.926Z</time></trkpt><trkpt lat="37.80135" lon="14.85175"><ele>951.0</ele><time>2026-04-25T10:33:09.926Z</time></trkpt><trkpt lat="37.8014783" lon="14.85183"><ele>954.0</ele><time>2026-04-25T10:33:10.926Z</time></trkpt><trkpt lat="37.801595" lon="14.85192"><ele>957.0</ele><time>2026-04-25T10:33:11.925Z</time></trkpt><trkpt lat="37.8017017" lon="14.8520217"><ele>960.0</ele><time>2026-04-25T10:33:12.926Z</time></trkpt><trkpt lat="37.8017883" lon="14.8521367"><ele>961.0</ele><time>2026-04-25T10:33:13.925Z</time></trkpt><trkpt lat="37.80185" lon="14.852275"><ele>962.0</ele><time>2026-04-25T10:33:14.926Z</time></trkpt><trkpt lat="37.801905" lon="14.8524167"><ele>963.0</ele><time>2026-04-25T10:33:15.926Z</time></trkpt><trkpt lat="37.8019433" lon="14.8525683"><ele>964.0</ele><time>2026-04-25T10:33:16.926Z</time></trkpt><trkpt lat="37.8019817" lon="14.8527133"><ele>964.0</ele><time>2026-04-25T10:33:17.925Z</time></trkpt><trkpt lat="37.80202" lon="14.852855"><ele>964.0</ele><time>2026-04-25T10:33:18.926Z</time></trkpt><trkpt lat="37.8020667" lon="14.8529933"><ele>964.0</ele><time>2026-04-25T10:33:19.925Z</time></trkpt><trkpt lat="37.8021183" lon="14.85312"><ele>964.0</ele><time>2026-04-25T10:33:20.925Z</time></trkpt><trkpt lat="37.8021733" lon="14.8532317"><ele>964.0</ele><time>2026-04-25T10:33:21.925Z</time></trkpt><trkpt lat="37.8022417" lon="14.853335"><ele>964.0000000000001</ele><time>2026-04-25T10:33:22.926Z</time></trkpt><trkpt lat="37.8023233" lon="14.8534233"><ele>964.0000000000001</ele><time>2026-04-25T10:33:23.925Z</time></trkpt><trkpt lat="37.8024067" lon="14.8535"><ele>964.0</ele><time>2026-04-25T10:33:24.926Z</time></trkpt><trkpt lat="37.802505" lon="14.8535617"><ele>964.0</ele><time>2026-04-25T10:33:25.925Z</time></trkpt><trkpt lat="37.8026033" lon="14.8536133"><ele>966.8000000000001</ele><time>2026-04-25T10:33:26.926Z</time></trkpt><trkpt lat="37.802695" lon="14.8536567"><ele>969.6000000000001</ele><time>2026-04-25T10:33:27.926Z</time></trkpt><trkpt lat="37.8027883" lon="14.853695"><ele>972.4</ele><time>2026-04-25T10:33:28.926Z</time></trkpt><trkpt lat="37.8028867" lon="14.8537367"><ele>975.2</ele><time>2026-04-25T10:33:29.926Z</time></trkpt><trkpt lat="37.802985" lon="14.8537817"><ele>978.0</ele><time>2026-04-25T10:33:30.926Z</time></trkpt><trkpt lat="37.8030867" lon="14.8538283"><ele>978.0</ele><time>2026-04-25T10:33:31.925Z</time></trkpt><trkpt lat="37.8031867" lon="14.8538633"><ele>978.0</ele><time>2026-04-25T10:33:32.925Z</time></trkpt><trkpt lat="37.8032933" lon="14.8538967"><ele>978.0</ele><time>2026-04-25T10:33:33.926Z</time></trkpt><trkpt lat="37.8034033" lon="14.8539283"><ele>978.0</ele><time>2026-04-25T10:33:34.926Z</time></trkpt><trkpt lat="37.803515" lon="14.8539483"><ele>978.0</ele><time>2026-04-25T10:33:35.926Z</time></trkpt><trkpt lat="37.8036367" lon="14.8539517"><ele>977.75</ele><time>2026-04-25T10:33:36.925Z</time></trkpt><trkpt lat="37.8037567" lon="14.853945"><ele>977.5</ele><time>2026-04-25T10:33:37.926Z</time></trkpt><trkpt lat="37.803875" lon="14.853945"><ele>977.25</ele><time>2026-04-25T10:33:38.926Z</time></trkpt><trkpt lat="37.8039917" lon="14.8539517"><ele>977.0</ele><time>2026-04-25T10:33:39.926Z</time></trkpt><trkpt lat="37.8041" lon="14.8540067"><ele>977.0</ele><time>2026-04-25T10:33:40.925Z</time></trkpt><trkpt lat="37.8042033" lon="14.854085"><ele>977.0</ele><time>2026-04-25T10:33:41.926Z</time></trkpt><trkpt lat="37.8043017" lon="14.8541867"><ele>977.0</ele><time>2026-04-25T10:33:42.926Z</time></trkpt><trkpt lat="37.8043867" lon="14.854295"><ele>977.0</ele><time>2026-04-25T10:33:43.925Z</time></trkpt><trkpt lat="37.804465" lon="14.8544033"><ele>979.5</ele><time>2026-04-25T10:33:44.925Z</time></trkpt><trkpt lat="37.8045533" lon="14.8545017"><ele>982.0</ele><time>2026-04-25T10:33:45.926Z</time></trkpt><trkpt lat="37.804655" lon="14.8545983"><ele>984.5</ele><time>2026-04-25T10:33:46.926Z</time></trkpt><trkpt lat="37.8047683" lon="14.8546833"><ele>987.0</ele><time>2026-04-25T10:33:47.926Z</time></trkpt><trkpt lat="37.8048833" lon="14.8547483"><ele>987.0</ele><time>2026-04-25T10:33:48.925Z</time></trkpt><trkpt lat="37.8049917" lon="14.8548133"><ele>987.0</ele><time>2026-04-25T10:33:49.926Z</time></trkpt><trkpt lat="37.8051" lon="14.8548783"><ele>987.0</ele><time>2026-04-25T10:33:50.925Z</time></trkpt><trkpt lat="37.8052117" lon="14.8549417"><ele>987.0</ele><time>2026-04-25T10:33:51.925Z</time></trkpt><trkpt lat="37.8053233" lon="14.8550083"><ele>986.25</ele><time>2026-04-25T10:33:52.926Z</time></trkpt><trkpt lat="37.8054433" lon="14.8550667"><ele>985.5</ele><time>2026-04-25T10:33:53.925Z</time></trkpt><trkpt lat="37.8055767" lon="14.8551383"><ele>984.75</ele><time>2026-04-25T10:33:54.925Z</time></trkpt><trkpt lat="37.80572" lon="14.8552183"><ele>984.0</ele><time>2026-04-25T10:33:55.926Z</time></trkpt><trkpt lat="37.8058667" lon="14.855305"><ele>984.3333333333333</ele><time>2026-04-25T10:33:56.926Z</time></trkpt><trkpt lat="37.8060133" lon="14.85539"><ele>984.6666666666666</ele><time>2026-04-25T10:33:57.925Z</time></trkpt><trkpt lat="37.806145" lon="14.85547"><ele>985.0</ele><time>2026-04-25T10:33:58.925Z</time></trkpt><trkpt lat="37.806275" lon="14.8555533"><ele>985.0</ele><time>2026-04-25T10:33:59.926Z</time></trkpt><trkpt lat="37.806405" lon="14.85565"><ele>985.0</ele><time>2026-04-25T10:34:00.926Z</time></trkpt><trkpt lat="37.80653" lon="14.855745"><ele>985.0</ele><time>2026-04-25T10:34:01.926Z</time></trkpt><trkpt lat="37.806665" lon="14.8558333"><ele>985.0</ele><time>2026-04-25T10:34:02.925Z</time></trkpt><trkpt lat="37.8068033" lon="14.8559167"><ele>982.75</ele><time>2026-04-25T10:34:03.925Z</time></trkpt><trkpt lat="37.8069383" lon="14.85598"><ele>980.5</ele><time>2026-04-25T10:34:04.926Z</time></trkpt><trkpt lat="37.8070783" lon="14.8560317"><ele>978.25</ele><time>2026-04-25T10:34:05.926Z</time></trkpt><trkpt lat="37.80722" lon="14.8560733"><ele>976.0</ele><time>2026-04-25T10:34:06.926Z</time></trkpt><trkpt lat="37.8073583" lon="14.8561033"><ele>976.0</ele><time>2026-04-25T10:34:07.926Z</time></trkpt><trkpt lat="37.8074967" lon="14.856135"><ele>976.0</ele><time>2026-04-25T10:34:08.926Z</time></trkpt><trkpt lat="37.8076317" lon="14.8561733"><ele>976.0</ele><time>2026-04-25T10:34:09.926Z</time></trkpt><trkpt lat="37.807775" lon="14.8562067"><ele>976.0</ele><time>2026-04-25T10:34:10.926Z</time></trkpt><trkpt lat="37.8079283" lon="14.8562433"><ele>976.3333333333333</ele><time>2026-04-25T10:34:11.926Z</time></trkpt><trkpt lat="37.8081033" lon="14.8562717"><ele>976.6666666666667</ele><time>2026-04-25T10:34:12.925Z</time></trkpt><trkpt lat="37.8082933" lon="14.8563083"><ele>977.0</ele><time>2026-04-25T10:34:13.926Z</time></trkpt><trkpt lat="37.808495" lon="14.856355"><ele>977.0</ele><time>2026-04-25T10:34:14.926Z</time></trkpt><trkpt lat="37.8086933" lon="14.856405"><ele>977.0</ele><time>2026-04-25T10:34:15.926Z</time></trkpt><trkpt lat="37.808885" lon="14.8564567"><ele>977.0</ele><time>2026-04-25T10:34:16.926Z</time></trkpt><trkpt lat="37.8090817" lon="14.856505"><ele>977.0</ele><time>2026-04-25T10:34:17.925Z</time></trkpt><trkpt lat="37.80926" lon="14.8565467"><ele>977.0</ele><time>2026-04-25T10:34:18.926Z</time></trkpt><trkpt lat="37.8094283" lon="14.85658"><ele>977.0</ele><time>2026-04-25T10:34:19.926Z</time></trkpt><trkpt lat="37.8095933" lon="14.8566067"><ele>978.3333333333334</ele><time>2026-04-25T10:34:20.926Z</time></trkpt><trkpt lat="37.8097517" lon="14.85664"><ele>979.6666666666667</ele><time>2026-04-25T10:34:21.925Z</time></trkpt><trkpt lat="37.8099083" lon="14.8566733"><ele>981.0</ele><time>2026-04-25T10:34:22.926Z</time></trkpt><trkpt lat="37.8100567" lon="14.8567133"><ele>980.3333333333333</ele><time>2026-04-25T10:34:23.925Z</time></trkpt><trkpt lat="37.8102083" lon="14.8567483"><ele>979.6666666666666</ele><time>2026-04-25T10:34:24.925Z</time></trkpt><trkpt lat="37.8103633" lon="14.8567833"><ele>979.0</ele><time>2026-04-25T10:34:25.925Z</time></trkpt><trkpt lat="37.8105317" lon="14.856815"><ele>979.0</ele><time>2026-04-25T10:34:26.925Z</time></trkpt><trkpt lat="37.8107183" lon="14.8568417"><ele>979.0</ele><time>2026-04-25T10:34:27.925Z</time></trkpt><trkpt lat="37.8109083" lon="14.856875"><ele>979.0</ele><time>2026-04-25T10:34:28.925Z</time></trkpt><trkpt lat="37.8111083" lon="14.8569217"><ele>979.0</ele><time>2026-04-25T10:34:29.926Z</time></trkpt><trkpt lat="37.8113117" lon="14.8569717"><ele>979.0</ele><time>2026-04-25T10:34:30.926Z</time></trkpt><trkpt lat="37.8115133" lon="14.8570167"><ele>979.0</ele><time>2026-04-25T10:34:31.926Z</time></trkpt><trkpt lat="37.8117083" lon="14.8570567"><ele>980.3333333333333</ele><time>2026-04-25T10:34:32.926Z</time></trkpt><trkpt lat="37.8118983" lon="14.8570967"><ele>981.6666666666667</ele><time>2026-04-25T10:34:33.926Z</time></trkpt><trkpt lat="37.8120783" lon="14.8571367"><ele>983.0</ele><time>2026-04-25T10:34:34.926Z</time></trkpt><trkpt lat="37.8122467" lon="14.85717"><ele>983.0</ele><time>2026-04-25T10:34:35.925Z</time></trkpt><trkpt lat="37.81241" lon="14.8572"><ele>983.0</ele><time>2026-04-25T10:34:36.925Z</time></trkpt><trkpt lat="37.81257" lon="14.8572367"><ele>983.0</ele><time>2026-04-25T10:34:37.926Z</time></trkpt><trkpt lat="37.8127283" lon="14.8572733"><ele>983.0</ele><time>2026-04-25T10:34:38.926Z</time></trkpt><trkpt lat="37.8128867" lon="14.857305"><ele>983.0</ele><time>2026-04-25T10:34:39.926Z</time></trkpt><trkpt lat="37.8130567" lon="14.857335"><ele>983.0</ele><time>2026-04-25T10:34:40.926Z</time></trkpt><trkpt lat="37.8132433" lon="14.8573633"><ele>983.0</ele><time>2026-04-25T10:34:41.926Z</time></trkpt><trkpt lat="37.8134467" lon="14.8573967"><ele>983.0</ele><time>2026-04-25T10:34:42.925Z</time></trkpt><trkpt lat="37.813645" lon="14.85744"><ele>983.0</ele><time>2026-04-25T10:34:43.925Z</time></trkpt><trkpt lat="37.8138417" lon="14.857485"><ele>984.6666666666667</ele><time>2026-04-25T10:34:44.925Z</time></trkpt><trkpt lat="37.814035" lon="14.85753"><ele>986.3333333333333</ele><time>2026-04-25T10:34:45.925Z</time></trkpt><trkpt lat="37.81423" lon="14.85758"><ele>988.0</ele><time>2026-04-25T10:34:46.925Z</time></trkpt><trkpt lat="37.8144183" lon="14.8576367"><ele>991.0</ele><time>2026-04-25T10:34:47.926Z</time></trkpt><trkpt lat="37.8146083" lon="14.857705"><ele>994.0</ele><time>2026-04-25T10:34:48.925Z</time></trkpt><trkpt lat="37.8147967" lon="14.8577767"><ele>997.0</ele><time>2026-04-25T10:34:49.926Z</time></trkpt><trkpt lat="37.814975" lon="14.8578617"><ele>997.0</ele><time>2026-04-25T10:34:50.926Z</time></trkpt><trkpt lat="37.8151417" lon="14.8579567"><ele>997.0</ele><time>2026-04-25T10:34:51.926Z</time></trkpt><trkpt lat="37.8153017" lon="14.8580617"><ele>997.0</ele><time>2026-04-25T10:34:52.926Z</time></trkpt><trkpt lat="37.815455" lon="14.8581733"><ele>994.6666666666666</ele><time>2026-04-25T10:34:53.925Z</time></trkpt><trkpt lat="37.815605" lon="14.8582933"><ele>992.3333333333333</ele><time>2026-04-25T10:34:54.926Z</time></trkpt><trkpt lat="37.8157567" lon="14.8584133"><ele>990.0</ele><time>2026-04-25T10:34:55.926Z</time></trkpt><trkpt lat="37.815915" lon="14.8585383"><ele>993.3333333333333</ele><time>2026-04-25T10:34:56.925Z</time></trkpt><trkpt lat="37.8160817" lon="14.85866"><ele>996.6666666666666</ele><time>2026-04-25T10:34:57.926Z</time></trkpt><trkpt lat="37.8162483" lon="14.8587933"><ele>1000.0</ele><time>2026-04-25T10:34:58.926Z</time></trkpt><trkpt lat="37.8164183" lon="14.85893"><ele>1000.0</ele><time>2026-04-25T10:34:59.926Z</time></trkpt><trkpt lat="37.8165833" lon="14.8590667"><ele>1000.0</ele><time>2026-04-25T10:35:00.926Z</time></trkpt><trkpt lat="37.81675" lon="14.8591867"><ele>1000.0</ele><time>2026-04-25T10:35:01.926Z</time></trkpt><trkpt lat="37.81692" lon="14.8592967"><ele>1002.3333333333333</ele><time>2026-04-25T10:35:02.926Z</time></trkpt><trkpt lat="37.8170867" lon="14.8593983"><ele>1004.6666666666667</ele><time>2026-04-25T10:35:03.926Z</time></trkpt><trkpt lat="37.8172433" lon="14.8594933"><ele>1007.0</ele><time>2026-04-25T10:35:04.926Z</time></trkpt><trkpt lat="37.81739" lon="14.8595867"><ele>1007.0</ele><time>2026-04-25T10:35:05.925Z</time></trkpt><trkpt lat="37.8175367" lon="14.85968"><ele>1007.0</ele><time>2026-04-25T10:35:06.926Z</time></trkpt><trkpt lat="37.8176767" lon="14.8597767"><ele>1007.0</ele><time>2026-04-25T10:35:07.926Z</time></trkpt><trkpt lat="37.81781" lon="14.8598833"><ele>1008.6666666666667</ele><time>2026-04-25T10:35:08.926Z</time></trkpt><trkpt lat="37.81794" lon="14.8599967"><ele>1010.3333333333333</ele><time>2026-04-25T10:35:09.926Z</time></trkpt><trkpt lat="37.818065" lon="14.860115"><ele>1012.0</ele><time>2026-04-25T10:35:10.925Z</time></trkpt><trkpt lat="37.818185" lon="14.8602367"><ele>1012.0</ele><time>2026-04-25T10:35:11.926Z</time></trkpt><trkpt lat="37.8182983" lon="14.8603617"><ele>1012.0</ele><time>2026-04-25T10:35:12.925Z</time></trkpt><trkpt lat="37.8184067" lon="14.8605033"><ele>1012.0</ele><time>2026-04-25T10:35:13.926Z</time></trkpt><trkpt lat="37.8185083" lon="14.8606517"><ele>1008.6666666666666</ele><time>2026-04-25T10:35:14.925Z</time></trkpt><trkpt lat="37.818595" lon="14.8608083"><ele>1005.3333333333333</ele><time>2026-04-25T10:35:15.926Z</time></trkpt><trkpt lat="37.8186767" lon="14.8609683"><ele>1002.0</ele><time>2026-04-25T10:35:16.925Z</time></trkpt><trkpt lat="37.8187517" lon="14.8611317"><ele>1002.0</ele><time>2026-04-25T10:35:17.926Z</time></trkpt><trkpt lat="37.8188183" lon="14.8612983"><ele>1002.0</ele><time>2026-04-25T10:35:18.925Z</time></trkpt><trkpt lat="37.8188867" lon="14.8614667"><ele>1002.0</ele><time>2026-04-25T10:35:19.926Z</time></trkpt><trkpt lat="37.818955" lon="14.861635"><ele>1002.0</ele><time>2026-04-25T10:35:20.926Z</time></trkpt><trkpt lat="37.81902" lon="14.8618083"><ele>1003.75</ele><time>2026-04-25T10:35:21.926Z</time></trkpt><trkpt lat="37.8190817" lon="14.8619783"><ele>1005.5</ele><time>2026-04-25T10:35:22.926Z</time></trkpt><trkpt lat="37.8191467" lon="14.8621433"><ele>1007.25</ele><time>2026-04-25T10:35:23.926Z</time></trkpt><trkpt lat="37.819215" lon="14.8623167"><ele>1009.0</ele><time>2026-04-25T10:35:24.925Z</time></trkpt><trkpt lat="37.8192767" lon="14.862485"><ele>1007.75</ele><time>2026-04-25T10:35:25.926Z</time></trkpt><trkpt lat="37.81935" lon="14.8626533"><ele>1006.5</ele><time>2026-04-25T10:35:26.926Z</time></trkpt><trkpt lat="37.8194183" lon="14.8628133"><ele>1005.25</ele><time>2026-04-25T10:35:27.925Z</time></trkpt><trkpt lat="37.8194767" lon="14.8629717"><ele>1004.0</ele><time>2026-04-25T10:35:28.926Z</time></trkpt><trkpt lat="37.8195467" lon="14.8631317"><ele>1004.0</ele><time>2026-04-25T10:35:29.925Z</time></trkpt><trkpt lat="37.819625" lon="14.8632817"><ele>1004.0</ele><time>2026-04-25T10:35:30.926Z</time></trkpt><trkpt lat="37.819715" lon="14.8634317"><ele>1004.0</ele><time>2026-04-25T10:35:31.926Z</time></trkpt><trkpt lat="37.8198133" lon="14.86357"><ele>1004.0</ele><time>2026-04-25T10:35:32.926Z</time></trkpt><trkpt lat="37.8199233" lon="14.8636967"><ele>1005.0</ele><time>2026-04-25T10:35:33.926Z</time></trkpt><trkpt lat="37.8200333" lon="14.8638117"><ele>1006.0</ele><time>2026-04-25T10:35:34.925Z</time></trkpt><trkpt lat="37.8201417" lon="14.8639283"><ele>1007.0</ele><time>2026-04-25T10:35:35.926Z</time></trkpt><trkpt lat="37.8202633" lon="14.8640433"><ele>1008.0</ele><time>2026-04-25T10:35:36.925Z</time></trkpt><trkpt lat="37.820385" lon="14.8641633"><ele>1010.3333333333333</ele><time>2026-04-25T10:35:37.925Z</time></trkpt><trkpt lat="37.8205233" lon="14.8642967"><ele>1012.6666666666666</ele><time>2026-04-25T10:35:38.926Z</time></trkpt><trkpt lat="37.82067" lon="14.8644417"><ele>1015.0</ele><time>2026-04-25T10:35:39.925Z</time></trkpt><trkpt lat="37.8208217" lon="14.8646"><ele>1015.0</ele><time>2026-04-25T10:35:40.925Z</time></trkpt><trkpt lat="37.8209567" lon="14.86475"><ele>1015.0</ele><time>2026-04-25T10:35:41.926Z</time></trkpt><trkpt lat="37.8210933" lon="14.8648833"><ele>1015.0</ele><time>2026-04-25T10:35:42.926Z</time></trkpt><trkpt lat="37.8212117" lon="14.8650033"><ele>1016.0</ele><time>2026-04-25T10:35:43.925Z</time></trkpt><trkpt lat="37.82132" lon="14.86512"><ele>1017.0</ele><time>2026-04-25T10:35:44.926Z</time></trkpt><trkpt lat="37.8214233" lon="14.8652183"><ele>1018.0</ele><time>2026-04-25T10:35:45.925Z</time></trkpt><trkpt lat="37.8215233" lon="14.8653133"><ele>1019.0</ele><time>2026-04-25T10:35:46.925Z</time></trkpt><trkpt lat="37.8216183" lon="14.8654033"><ele>1019.0</ele><time>2026-04-25T10:35:47.926Z</time></trkpt><trkpt lat="37.8217117" lon="14.8654983"><ele>1019.0000000000001</ele><time>2026-04-25T10:35:48.925Z</time></trkpt><trkpt lat="37.8217983" lon="14.8655883"><ele>1019.0000000000001</ele><time>2026-04-25T10:35:49.925Z</time></trkpt><trkpt lat="37.8218817" lon="14.8656733"><ele>1019.0</ele><time>2026-04-25T10:35:50.926Z</time></trkpt><trkpt lat="37.82195" lon="14.8657533"><ele>1019.0</ele><time>2026-04-25T10:35:51.925Z</time></trkpt><trkpt lat="37.822015" lon="14.8658233"><ele>1019.3333333333334</ele><time>2026-04-25T10:35:52.926Z</time></trkpt><trkpt lat="37.8220783" lon="14.8658867"><ele>1019.6666666666667</ele><time>2026-04-25T10:35:53.926Z</time></trkpt><trkpt lat="37.8221233" lon="14.865945"><ele>1020.0</ele><time>2026-04-25T10:35:54.925Z</time></trkpt><trkpt lat="37.822175" lon="14.8660017"><ele>1020.3333333333333</ele><time>2026-04-25T10:35:55.926Z</time></trkpt><trkpt lat="37.8222283" lon="14.8660617"><ele>1020.6666666666666</ele><time>2026-04-25T10:35:56.926Z</time></trkpt><trkpt lat="37.8222917" lon="14.8661317"><ele>1021.0</ele><time>2026-04-25T10:35:57.925Z</time></trkpt><trkpt lat="37.8223633" lon="14.8662233"><ele>1021.0</ele><time>2026-04-25T10:35:58.925Z</time></trkpt><trkpt lat="37.82244" lon="14.8663383"><ele>1021.0</ele><time>2026-04-25T10:35:59.926Z</time></trkpt><trkpt lat="37.822515" lon="14.8664733"><ele>1021.0</ele><time>2026-04-25T10:36:00.926Z</time></trkpt><trkpt lat="37.822585" lon="14.86662"><ele>1021.0</ele><time>2026-04-25T10:36:01.925Z</time></trkpt><trkpt lat="37.82264" lon="14.86677"><ele>1022.75</ele><time>2026-04-25T10:36:02.926Z</time></trkpt><trkpt lat="37.822685" lon="14.8669117"><ele>1024.5</ele><time>2026-04-25T10:36:03.925Z</time></trkpt><trkpt lat="37.8227217" lon="14.8670567"><ele>1026.25</ele><time>2026-04-25T10:36:04.925Z</time></trkpt><trkpt lat="37.822755" lon="14.8672"><ele>1028.0</ele><time>2026-04-25T10:36:05.925Z</time></trkpt><trkpt lat="37.8227867" lon="14.8673417"><ele>1028.0</ele><time>2026-04-25T10:36:06.926Z</time></trkpt><trkpt lat="37.8228183" lon="14.867495"><ele>1028.0</ele><time>2026-04-25T10:36:07.926Z</time></trkpt><trkpt lat="37.8228383" lon="14.867665"><ele>1028.0</ele><time>2026-04-25T10:36:08.925Z</time></trkpt><trkpt lat="37.8228517" lon="14.86784"><ele>1028.0</ele><time>2026-04-25T10:36:09.925Z</time></trkpt><trkpt lat="37.8228467" lon="14.8680067"><ele>1029.0</ele><time>2026-04-25T10:36:10.926Z</time></trkpt><trkpt lat="37.8228333" lon="14.86816"><ele>1030.0</ele><time>2026-04-25T10:36:11.926Z</time></trkpt><trkpt lat="37.82281" lon="14.868295"><ele>1031.0</ele><time>2026-04-25T10:36:12.926Z</time></trkpt><trkpt lat="37.8227817" lon="14.8684117"><ele>1032.0</ele><time>2026-04-25T10:36:13.926Z</time></trkpt><trkpt lat="37.8227483" lon="14.8685183"><ele>1033.0</ele><time>2026-04-25T10:36:14.925Z</time></trkpt><trkpt lat="37.8227117" lon="14.8686283"><ele>1031.75</ele><time>2026-04-25T10:36:15.926Z</time></trkpt><trkpt lat="37.8226617" lon="14.8687417"><ele>1030.5</ele><time>2026-04-25T10:36:16.926Z</time></trkpt><trkpt lat="37.8226017" lon="14.8688633"><ele>1029.25</ele><time>2026-04-25T10:36:17.926Z</time></trkpt><trkpt lat="37.822525" lon="14.8690033"><ele>1028.0</ele><time>2026-04-25T10:36:18.925Z</time></trkpt><trkpt lat="37.82244" lon="14.8691417"><ele>1029.0</ele><time>2026-04-25T10:36:19.925Z</time></trkpt><trkpt lat="37.822355" lon="14.8692917"><ele>1030.0</ele><time>2026-04-25T10:36:20.926Z</time></trkpt><trkpt lat="37.8222683" lon="14.8694367"><ele>1031.0</ele><time>2026-04-25T10:36:21.926Z</time></trkpt><trkpt lat="37.82219" lon="14.8695717"><ele>1032.0</ele><time>2026-04-25T10:36:22.926Z</time></trkpt><trkpt lat="37.822115" lon="14.869695"><ele>1032.0</ele><time>2026-04-25T10:36:23.926Z</time></trkpt><trkpt lat="37.822055" lon="14.8698083"><ele>1032.0</ele><time>2026-04-25T10:36:24.926Z</time></trkpt><trkpt lat="37.8219983" lon="14.869905"><ele>1032.0</ele><time>2026-04-25T10:36:25.926Z</time></trkpt><trkpt lat="37.8219467" lon="14.870015"><ele>1032.0</ele><time>2026-04-25T10:36:26.925Z</time></trkpt><trkpt lat="37.82189" lon="14.87012"><ele>1032.0</ele><time>2026-04-25T10:36:27.926Z</time></trkpt><trkpt lat="37.8218383" lon="14.8702367"><ele>1028.5</ele><time>2026-04-25T10:36:28.925Z</time></trkpt><trkpt lat="37.821805" lon="14.8703617"><ele>1025.0</ele><time>2026-04-25T10:36:29.925Z</time></trkpt><trkpt lat="37.8217817" lon="14.870505"><ele>1021.5</ele><time>2026-04-25T10:36:30.925Z</time></trkpt><trkpt lat="37.8217717" lon="14.8706917"><ele>1018.0</ele><time>2026-04-25T10:36:31.925Z</time></trkpt><trkpt lat="37.8217683" lon="14.8709217"><ele>1018.3333333333333</ele><time>2026-04-25T10:36:32.926Z</time></trkpt><trkpt lat="37.8217483" lon="14.871155"><ele>1018.6666666666667</ele><time>2026-04-25T10:36:33.925Z</time></trkpt><trkpt lat="37.821735" lon="14.8714"><ele>1019.0</ele><time>2026-04-25T10:36:34.926Z</time></trkpt><trkpt lat="37.8217083" lon="14.871645"><ele>1021.0</ele><time>2026-04-25T10:36:35.926Z</time></trkpt><trkpt lat="37.8216683" lon="14.8718833"><ele>1023.0</ele><time>2026-04-25T10:36:36.926Z</time></trkpt><trkpt lat="37.8216133" lon="14.8721183"><ele>1025.0</ele><time>2026-04-25T10:36:37.926Z</time></trkpt><trkpt lat="37.8215417" lon="14.87234"><ele>1025.0</ele><time>2026-04-25T10:36:38.926Z</time></trkpt><trkpt lat="37.82146" lon="14.87254"><ele>1025.0</ele><time>2026-04-25T10:36:39.926Z</time></trkpt><trkpt lat="37.821385" lon="14.8727383"><ele>1025.0</ele><time>2026-04-25T10:36:40.926Z</time></trkpt><trkpt lat="37.821325" lon="14.8729367"><ele>1026.6666666666667</ele><time>2026-04-25T10:36:41.925Z</time></trkpt><trkpt lat="37.8212783" lon="14.8731383"><ele>1028.3333333333333</ele><time>2026-04-25T10:36:42.925Z</time></trkpt><trkpt lat="37.8212467" lon="14.8733583"><ele>1030.0</ele><time>2026-04-25T10:36:43.925Z</time></trkpt><trkpt lat="37.8212267" lon="14.8735883"><ele>1030.0</ele><time>2026-04-25T10:36:44.926Z</time></trkpt><trkpt lat="37.8212233" lon="14.8738233"><ele>1030.0</ele><time>2026-04-25T10:36:45.925Z</time></trkpt><trkpt lat="37.8212283" lon="14.8740633"><ele>1030.0</ele><time>2026-04-25T10:36:46.925Z</time></trkpt><trkpt lat="37.8212317" lon="14.8743067"><ele>1028.6666666666665</ele><time>2026-04-25T10:36:47.926Z</time></trkpt><trkpt lat="37.8212383" lon="14.8745533"><ele>1027.3333333333333</ele><time>2026-04-25T10:36:48.926Z</time></trkpt><trkpt lat="37.8212467" lon="14.8747967"><ele>1026.0</ele><time>2026-04-25T10:36:49.926Z</time></trkpt><trkpt lat="37.821255" lon="14.8750333"><ele>1025.0</ele><time>2026-04-25T10:36:50.926Z</time></trkpt><trkpt lat="37.8212633" lon="14.875265"><ele>1024.0</ele><time>2026-04-25T10:36:51.926Z</time></trkpt><trkpt lat="37.8212767" lon="14.875485"><ele>1023.0</ele><time>2026-04-25T10:36:52.925Z</time></trkpt><trkpt lat="37.8213033" lon="14.8756983"><ele>1023.0</ele><time>2026-04-25T10:36:53.926Z</time></trkpt><trkpt lat="37.8213533" lon="14.87591"><ele>1023.0</ele><time>2026-04-25T10:36:54.926Z</time></trkpt><trkpt lat="37.821425" lon="14.87612"><ele>1023.0</ele><time>2026-04-25T10:36:55.926Z</time></trkpt><trkpt lat="37.821515" lon="14.876325"><ele>1022.0</ele><time>2026-04-25T10:36:56.925Z</time></trkpt><trkpt lat="37.8216183" lon="14.8765217"><ele>1021.0</ele><time>2026-04-25T10:36:57.926Z</time></trkpt><trkpt lat="37.821725" lon="14.8767167"><ele>1020.0</ele><time>2026-04-25T10:36:58.925Z</time></trkpt><trkpt lat="37.8218217" lon="14.8769167"><ele>1022.0</ele><time>2026-04-25T10:36:59.925Z</time></trkpt><trkpt lat="37.8219117" lon="14.8771317"><ele>1024.0</ele><time>2026-04-25T10:37:00.926Z</time></trkpt><trkpt lat="37.8219783" lon="14.8773533"><ele>1026.0</ele><time>2026-04-25T10:37:01.926Z</time></trkpt><trkpt lat="37.8220317" lon="14.8775817"><ele>1026.0</ele><time>2026-04-25T10:37:02.926Z</time></trkpt><trkpt lat="37.8220667" lon="14.8778067"><ele>1026.0</ele><time>2026-04-25T10:37:03.926Z</time></trkpt><trkpt lat="37.82208" lon="14.8780283"><ele>1026.0</ele><time>2026-04-25T10:37:04.926Z</time></trkpt><trkpt lat="37.8220783" lon="14.8782567"><ele>1027.3333333333333</ele><time>2026-04-25T10:37:05.925Z</time></trkpt><trkpt lat="37.82207" lon="14.8784867"><ele>1028.6666666666665</ele><time>2026-04-25T10:37:06.925Z</time></trkpt><trkpt lat="37.8220533" lon="14.87872"><ele>1030.0</ele><time>2026-04-25T10:37:07.926Z</time></trkpt><trkpt lat="37.822035" lon="14.878955"><ele>1030.0</ele><time>2026-04-25T10:37:08.926Z</time></trkpt><trkpt lat="37.8220183" lon="14.8791867"><ele>1030.0</ele><time>2026-04-25T10:37:09.926Z</time></trkpt><trkpt lat="37.8220167" lon="14.8794083"><ele>1030.0</ele><time>2026-04-25T10:37:10.926Z</time></trkpt><trkpt lat="37.8220283" lon="14.879645"><ele>1029.3333333333333</ele><time>2026-04-25T10:37:11.925Z</time></trkpt><trkpt lat="37.8220617" lon="14.87988"><ele>1028.6666666666667</ele><time>2026-04-25T10:37:12.926Z</time></trkpt><trkpt lat="37.8221133" lon="14.8801067"><ele>1028.0</ele><time>2026-04-25T10:37:13.926Z</time></trkpt><trkpt lat="37.822165" lon="14.8803467"><ele>1027.0</ele><time>2026-04-25T10:37:14.925Z</time></trkpt><trkpt lat="37.8222183" lon="14.88058"><ele>1026.0</ele><time>2026-04-25T10:37:15.925Z</time></trkpt><trkpt lat="37.8222717" lon="14.880815"><ele>1025.0</ele><time>2026-04-25T10:37:16.925Z</time></trkpt><trkpt lat="37.8223133" lon="14.8810467"><ele>1025.0</ele><time>2026-04-25T10:37:17.926Z</time></trkpt><trkpt lat="37.8223583" lon="14.8812767"><ele>1025.0</ele><time>2026-04-25T10:37:18.926Z</time></trkpt><trkpt lat="37.8224017" lon="14.8815083"><ele>1025.0</ele><time>2026-04-25T10:37:19.926Z</time></trkpt><trkpt lat="37.822435" lon="14.881745"><ele>1026.6666666666667</ele><time>2026-04-25T10:37:20.925Z</time></trkpt><trkpt lat="37.8224417" lon="14.8819783"><ele>1028.3333333333333</ele><time>2026-04-25T10:37:21.925Z</time></trkpt><trkpt lat="37.82242" lon="14.8822067"><ele>1030.0</ele><time>2026-04-25T10:37:22.925Z</time></trkpt><trkpt lat="37.8223933" lon="14.88245"><ele>1031.3333333333333</ele><time>2026-04-25T10:37:23.926Z</time></trkpt><trkpt lat="37.822365" lon="14.88269"><ele>1032.6666666666667</ele><time>2026-04-25T10:37:24.926Z</time></trkpt><trkpt lat="37.8223383" lon="14.88293"><ele>1034.0</ele><time>2026-04-25T10:37:25.926Z</time></trkpt><trkpt lat="37.8223183" lon="14.883175"><ele>1034.0</ele><time>2026-04-25T10:37:26.926Z</time></trkpt><trkpt lat="37.8223" lon="14.8834183"><ele>1034.0</ele><time>2026-04-25T10:37:27.926Z</time></trkpt><trkpt lat="37.82228" lon="14.8836667"><ele>1034.0</ele><time>2026-04-25T10:37:28.926Z</time></trkpt><trkpt lat="37.82226" lon="14.8839083"><ele>1035.0</ele><time>2026-04-25T10:37:29.926Z</time></trkpt><trkpt lat="37.8222433" lon="14.8841383"><ele>1036.0</ele><time>2026-04-25T10:37:30.926Z</time></trkpt><trkpt lat="37.8222267" lon="14.8843783"><ele>1037.0</ele><time>2026-04-25T10:37:31.925Z</time></trkpt><trkpt lat="37.8222017" lon="14.88462"><ele>1038.3333333333335</ele><time>2026-04-25T10:37:32.926Z</time></trkpt><trkpt lat="37.822185" lon="14.884855"><ele>1039.6666666666667</ele><time>2026-04-25T10:37:33.926Z</time></trkpt><trkpt lat="37.8221867" lon="14.8850917"><ele>1041.0</ele><time>2026-04-25T10:37:34.926Z</time></trkpt><trkpt lat="37.8222067" lon="14.8853283"><ele>1041.6666666666667</ele><time>2026-04-25T10:37:35.926Z</time></trkpt><trkpt lat="37.82223" lon="14.8855633"><ele>1042.3333333333335</ele><time>2026-04-25T10:37:36.925Z</time></trkpt><trkpt lat="37.82226" lon="14.8858"><ele>1043.0</ele><time>2026-04-25T10:37:37.926Z</time></trkpt><trkpt lat="37.8222917" lon="14.8860383"><ele>1043.0</ele><time>2026-04-25T10:37:38.926Z</time></trkpt><trkpt lat="37.822325" lon="14.88628"><ele>1043.0</ele><time>2026-04-25T10:37:39.926Z</time></trkpt><trkpt lat="37.8223583" lon="14.88652"><ele>1043.0</ele><time>2026-04-25T10:37:40.926Z</time></trkpt><trkpt lat="37.8223783" lon="14.8867583"><ele>1043.3333333333335</ele><time>2026-04-25T10:37:41.926Z</time></trkpt><trkpt lat="37.8224083" lon="14.8869933"><ele>1043.6666666666667</ele><time>2026-04-25T10:37:42.926Z</time></trkpt><trkpt lat="37.8224433" lon="14.887225"><ele>1044.0</ele><time>2026-04-25T10:37:43.925Z</time></trkpt><trkpt lat="37.8224783" lon="14.88745"><ele>1044.0</ele><time>2026-04-25T10:37:44.926Z</time></trkpt><trkpt lat="37.8225233" lon="14.8876633"><ele>1044.0</ele><time>2026-04-25T10:37:45.926Z</time></trkpt><trkpt lat="37.8225833" lon="14.8878683"><ele>1044.0</ele><time>2026-04-25T10:37:46.925Z</time></trkpt><trkpt lat="37.8226667" lon="14.88806"><ele>1044.0</ele><time>2026-04-25T10:37:47.926Z</time></trkpt><trkpt lat="37.8227867" lon="14.8882367"><ele>1044.0</ele><time>2026-04-25T10:37:48.926Z</time></trkpt><trkpt lat="37.8229183" lon="14.8883983"><ele>1044.0</ele><time>2026-04-25T10:37:49.926Z</time></trkpt><trkpt lat="37.823055" lon="14.8885417"><ele>1043.0</ele><time>2026-04-25T10:37:50.926Z</time></trkpt><trkpt lat="37.8232067" lon="14.8886817"><ele>1042.0</ele><time>2026-04-25T10:37:51.926Z</time></trkpt><trkpt lat="37.8233717" lon="14.888825"><ele>1041.0</ele><time>2026-04-25T10:37:52.926Z</time></trkpt><trkpt lat="37.823535" lon="14.8889683"><ele>1041.0</ele><time>2026-04-25T10:37:53.925Z</time></trkpt><trkpt lat="37.8237017" lon="14.8891117"><ele>1041.0</ele><time>2026-04-25T10:37:54.926Z</time></trkpt><trkpt lat="37.823865" lon="14.8892567"><ele>1041.0</ele><time>2026-04-25T10:37:55.926Z</time></trkpt><trkpt lat="37.8240317" lon="14.8894033"><ele>1041.3333333333333</ele><time>2026-04-25T10:37:56.925Z</time></trkpt><trkpt lat="37.8241933" lon="14.88955"><ele>1041.6666666666665</ele><time>2026-04-25T10:37:57.926Z</time></trkpt><trkpt lat="37.8243633" lon="14.8897033"><ele>1042.0</ele><time>2026-04-25T10:37:58.926Z</time></trkpt><trkpt lat="37.8245267" lon="14.8898633"><ele>1041.0</ele><time>2026-04-25T10:37:59.926Z</time></trkpt><trkpt lat="37.8246983" lon="14.8900217"><ele>1040.0</ele><time>2026-04-25T10:38:00.926Z</time></trkpt><trkpt lat="37.8248683" lon="14.8901767"><ele>1039.0</ele><time>2026-04-25T10:38:01.926Z</time></trkpt><trkpt lat="37.8250433" lon="14.89033"><ele>1038.3333333333333</ele><time>2026-04-25T10:38:02.925Z</time></trkpt><trkpt lat="37.8252217" lon="14.8904867"><ele>1037.6666666666667</ele><time>2026-04-25T10:38:03.925Z</time></trkpt><trkpt lat="37.8253967" lon="14.89065"><ele>1037.0</ele><time>2026-04-25T10:38:04.925Z</time></trkpt><trkpt lat="37.825575" lon="14.8908067"><ele>1036.6666666666667</ele><time>2026-04-25T10:38:05.925Z</time></trkpt><trkpt lat="37.82575" lon="14.8909683"><ele>1036.3333333333333</ele><time>2026-04-25T10:38:06.926Z</time></trkpt><trkpt lat="37.8259233" lon="14.89113"><ele>1036.0</ele><time>2026-04-25T10:38:07.925Z</time></trkpt><trkpt lat="37.8260967" lon="14.8912917"><ele>1033.6666666666665</ele><time>2026-04-25T10:38:08.926Z</time></trkpt><trkpt lat="37.8262733" lon="14.8914483"><ele>1031.3333333333333</ele><time>2026-04-25T10:38:09.925Z</time></trkpt><trkpt lat="37.8264483" lon="14.8916083"><ele>1029.0</ele><time>2026-04-25T10:38:10.926Z</time></trkpt><trkpt lat="37.8266217" lon="14.8917717"><ele>1028.6666666666667</ele><time>2026-04-25T10:38:11.925Z</time></trkpt><trkpt lat="37.8267967" lon="14.8919283"><ele>1028.3333333333335</ele><time>2026-04-25T10:38:12.925Z</time></trkpt><trkpt lat="37.8269733" lon="14.89209"><ele>1028.0</ele><time>2026-04-25T10:38:13.926Z</time></trkpt><trkpt lat="37.82715" lon="14.8922433"><ele>1027.3333333333335</ele><time>2026-04-25T10:38:14.926Z</time></trkpt><trkpt lat="37.8273267" lon="14.8924017"><ele>1026.6666666666667</ele><time>2026-04-25T10:38:15.926Z</time></trkpt><trkpt lat="37.827505" lon="14.8925617"><ele>1026.0</ele><time>2026-04-25T10:38:16.925Z</time></trkpt><trkpt lat="37.8276767" lon="14.8927217"><ele>1025.0</ele><time>2026-04-25T10:38:17.925Z</time></trkpt><trkpt lat="37.8278483" lon="14.8928817"><ele>1024.0</ele><time>2026-04-25T10:38:18.925Z</time></trkpt><trkpt lat="37.8280233" lon="14.893045"><ele>1023.0</ele><time>2026-04-25T10:38:19.926Z</time></trkpt><trkpt lat="37.8281967" lon="14.893205"><ele>1023.0</ele><time>2026-04-25T10:38:20.926Z</time></trkpt><trkpt lat="37.8283717" lon="14.8933567"><ele>1023.0</ele><time>2026-04-25T10:38:21.926Z</time></trkpt><trkpt lat="37.8285483" lon="14.89352"><ele>1023.0</ele><time>2026-04-25T10:38:22.926Z</time></trkpt><trkpt lat="37.8287267" lon="14.89368"><ele>1021.3333333333333</ele><time>2026-04-25T10:38:23.926Z</time></trkpt><trkpt lat="37.8289083" lon="14.8938367"><ele>1019.6666666666666</ele><time>2026-04-25T10:38:24.926Z</time></trkpt><trkpt lat="37.829085" lon="14.8940033"><ele>1018.0</ele><time>2026-04-25T10:38:25.925Z</time></trkpt><trkpt lat="37.8292583" lon="14.8941683"><ele>1017.6666666666666</ele><time>2026-04-25T10:38:26.925Z</time></trkpt><trkpt lat="37.8294267" lon="14.89433"><ele>1017.3333333333333</ele><time>2026-04-25T10:38:27.925Z</time></trkpt><trkpt lat="37.8295983" lon="14.8944917"><ele>1017.0</ele><time>2026-04-25T10:38:28.926Z</time></trkpt><trkpt lat="37.82977" lon="14.8946483"><ele>1017.0</ele><time>2026-04-25T10:38:29.926Z</time></trkpt><trkpt lat="37.8299417" lon="14.8948083"><ele>1017.0</ele><time>2026-04-25T10:38:30.925Z</time></trkpt><trkpt lat="37.8301117" lon="14.89497"><ele>1017.0</ele><time>2026-04-25T10:38:31.926Z</time></trkpt><trkpt lat="37.8302833" lon="14.89513"><ele>1015.3333333333333</ele><time>2026-04-25T10:38:32.925Z</time></trkpt><trkpt lat="37.8304517" lon="14.895285"><ele>1013.6666666666666</ele><time>2026-04-25T10:38:33.926Z</time></trkpt><trkpt lat="37.8306233" lon="14.89544"><ele>1012.0</ele><time>2026-04-25T10:38:34.926Z</time></trkpt><trkpt lat="37.8307833" lon="14.8956067"><ele>1012.0</ele><time>2026-04-25T10:38:35.925Z</time></trkpt><trkpt lat="37.830935" lon="14.8957783"><ele>1012.0</ele><time>2026-04-25T10:38:36.925Z</time></trkpt><trkpt lat="37.8310867" lon="14.8959683"><ele>1012.0</ele><time>2026-04-25T10:38:37.925Z</time></trkpt><trkpt lat="37.8312433" lon="14.8961617"><ele>1009.3333333333333</ele><time>2026-04-25T10:38:38.926Z</time></trkpt><trkpt lat="37.831405" lon="14.89635"><ele>1006.6666666666667</ele><time>2026-04-25T10:38:39.926Z</time></trkpt><trkpt lat="37.8315733" lon="14.8965283"><ele>1004.0</ele><time>2026-04-25T10:38:40.925Z</time></trkpt><trkpt lat="37.83174" lon="14.896695"><ele>1004.6666666666667</ele><time>2026-04-25T10:38:41.925Z</time></trkpt><trkpt lat="37.8319033" lon="14.8968583"><ele>1005.3333333333333</ele><time>2026-04-25T10:38:42.925Z</time></trkpt><trkpt lat="37.8320667" lon="14.897005"><ele>1006.0</ele><time>2026-04-25T10:38:43.926Z</time></trkpt><trkpt lat="37.8322283" lon="14.8971433"><ele>1006.0</ele><time>2026-04-25T10:38:44.926Z</time></trkpt><trkpt lat="37.8323733" lon="14.8972633"><ele>1006.0</ele><time>2026-04-25T10:38:45.925Z</time></trkpt><trkpt lat="37.8325" lon="14.8973967"><ele>1006.0</ele><time>2026-04-25T10:38:46.925Z</time></trkpt><trkpt lat="37.8326067" lon="14.897555"><ele>1004.3333333333333</ele><time>2026-04-25T10:38:47.925Z</time></trkpt><trkpt lat="37.83271" lon="14.8977383"><ele>1002.6666666666667</ele><time>2026-04-25T10:38:48.925Z</time></trkpt><trkpt lat="37.8328" lon="14.8979467"><ele>1001.0</ele><time>2026-04-25T10:38:49.926Z</time></trkpt><trkpt lat="37.832885" lon="14.89815"><ele>1001.0</ele><time>2026-04-25T10:38:50.925Z</time></trkpt><trkpt lat="37.83297" lon="14.89834"><ele>1001.0</ele><time>2026-04-25T10:38:51.925Z</time></trkpt><trkpt lat="37.8330417" lon="14.8985233"><ele>1001.0</ele><time>2026-04-25T10:38:52.925Z</time></trkpt><trkpt lat="37.8330933" lon="14.8987217"><ele>1001.0</ele><time>2026-04-25T10:38:53.926Z</time></trkpt><trkpt lat="37.8331233" lon="14.8989333"><ele>1001.0</ele><time>2026-04-25T10:38:54.925Z</time></trkpt><trkpt lat="37.8331467" lon="14.8991633"><ele>1001.0</ele><time>2026-04-25T10:38:55.926Z</time></trkpt><trkpt lat="37.8331717" lon="14.8993917"><ele>1001.0</ele><time>2026-04-25T10:38:56.925Z</time></trkpt><trkpt lat="37.8332" lon="14.8996267"><ele>1001.0</ele><time>2026-04-25T10:38:57.926Z</time></trkpt><trkpt lat="37.8332217" lon="14.89986"><ele>1001.0</ele><time>2026-04-25T10:38:58.926Z</time></trkpt><trkpt lat="37.83325" lon="14.900095"><ele>1001.3333333333334</ele><time>2026-04-25T10:38:59.926Z</time></trkpt><trkpt lat="37.8332783" lon="14.900325"><ele>1001.6666666666667</ele><time>2026-04-25T10:39:00.925Z</time></trkpt><trkpt lat="37.8333117" lon="14.9005517"><ele>1002.0</ele><time>2026-04-25T10:39:01.926Z</time></trkpt><trkpt lat="37.8333417" lon="14.9007733"><ele>1001.6666666666667</ele><time>2026-04-25T10:39:02.926Z</time></trkpt><trkpt lat="37.83337" lon="14.900995"><ele>1001.3333333333334</ele><time>2026-04-25T10:39:03.926Z</time></trkpt><trkpt lat="37.8333983" lon="14.90121"><ele>1001.0</ele><time>2026-04-25T10:39:04.926Z</time></trkpt><trkpt lat="37.8334283" lon="14.9014217"><ele>1001.0</ele><time>2026-04-25T10:39:05.926Z</time></trkpt><trkpt lat="37.8334633" lon="14.901635"><ele>1001.0</ele><time>2026-04-25T10:39:06.925Z</time></trkpt><trkpt lat="37.833515" lon="14.9018517"><ele>1001.0</ele><time>2026-04-25T10:39:07.925Z</time></trkpt><trkpt lat="37.8335817" lon="14.9020633"><ele>999.6666666666667</ele><time>2026-04-25T10:39:08.925Z</time></trkpt><trkpt lat="37.8336633" lon="14.9022583"><ele>998.3333333333333</ele><time>2026-04-25T10:39:09.926Z</time></trkpt><trkpt lat="37.83376" lon="14.9024467"><ele>997.0</ele><time>2026-04-25T10:39:10.925Z</time></trkpt><trkpt lat="37.833875" lon="14.9026067"><ele>999.6666666666666</ele><time>2026-04-25T10:39:11.926Z</time></trkpt><trkpt lat="37.8339933" lon="14.9027417"><ele>1002.3333333333333</ele><time>2026-04-25T10:39:12.926Z</time></trkpt><trkpt lat="37.83412" lon="14.9028683"><ele>1005.0</ele><time>2026-04-25T10:39:13.926Z</time></trkpt><trkpt lat="37.8342433" lon="14.9029817"><ele>1005.0</ele><time>2026-04-25T10:39:14.926Z</time></trkpt><trkpt lat="37.8343683" lon="14.9030883"><ele>1005.0</ele><time>2026-04-25T10:39:15.925Z</time></trkpt><trkpt lat="37.8344817" lon="14.90319"><ele>1005.0</ele><time>2026-04-25T10:39:16.926Z</time></trkpt><trkpt lat="37.8345833" lon="14.9033067"><ele>1005.0</ele><time>2026-04-25T10:39:17.925Z</time></trkpt><trkpt lat="37.8346833" lon="14.9034417"><ele>1005.0</ele><time>2026-04-25T10:39:18.926Z</time></trkpt><trkpt lat="37.8347733" lon="14.9035783"><ele>1005.0</ele><time>2026-04-25T10:39:19.925Z</time></trkpt><trkpt lat="37.8348567" lon="14.903715"><ele>1005.0</ele><time>2026-04-25T10:39:20.926Z</time></trkpt><trkpt lat="37.8349367" lon="14.9038483"><ele>1005.0</ele><time>2026-04-25T10:39:21.925Z</time></trkpt><trkpt lat="37.8350183" lon="14.9039783"><ele>1005.0</ele><time>2026-04-25T10:39:22.925Z</time></trkpt><trkpt lat="37.8351033" lon="14.9041117"><ele>1005.0</ele><time>2026-04-25T10:39:23.926Z</time></trkpt><trkpt lat="37.8351833" lon="14.9042533"><ele>1005.0</ele><time>2026-04-25T10:39:24.926Z</time></trkpt><trkpt lat="37.835265" lon="14.9044067"><ele>1005.0</ele><time>2026-04-25T10:39:25.926Z</time></trkpt><trkpt lat="37.8353417" lon="14.904565"><ele>1003.25</ele><time>2026-04-25T10:39:26.926Z</time></trkpt><trkpt lat="37.83541" lon="14.9047267"><ele>1001.5</ele><time>2026-04-25T10:39:27.925Z</time></trkpt><trkpt lat="37.8354683" lon="14.9048933"><ele>999.75</ele><time>2026-04-25T10:39:28.926Z</time></trkpt><trkpt lat="37.835515" lon="14.905075"><ele>998.0</ele><time>2026-04-25T10:39:29.926Z</time></trkpt><trkpt lat="37.8355533" lon="14.9052583"><ele>997.3333333333334</ele><time>2026-04-25T10:39:30.925Z</time></trkpt><trkpt lat="37.83559" lon="14.9054467"><ele>996.6666666666667</ele><time>2026-04-25T10:39:31.925Z</time></trkpt><trkpt lat="37.835635" lon="14.9056383"><ele>996.0</ele><time>2026-04-25T10:39:32.925Z</time></trkpt><trkpt lat="37.835675" lon="14.905825"><ele>995.0</ele><time>2026-04-25T10:39:33.924Z</time></trkpt><trkpt lat="37.83572" lon="14.9060183"><ele>994.0</ele><time>2026-04-25T10:39:34.925Z</time></trkpt><trkpt lat="37.8357633" lon="14.9062067"><ele>993.0</ele><time>2026-04-25T10:39:35.925Z</time></trkpt><trkpt lat="37.8358" lon="14.9064033"><ele>993.0</ele><time>2026-04-25T10:39:36.925Z</time></trkpt><trkpt lat="37.8358483" lon="14.9065883"><ele>993.0</ele><time>2026-04-25T10:39:37.925Z</time></trkpt><trkpt lat="37.8359067" lon="14.906775"><ele>993.0</ele><time>2026-04-25T10:39:38.925Z</time></trkpt><trkpt lat="37.8359833" lon="14.9069483"><ele>991.0</ele><time>2026-04-25T10:39:39.924Z</time></trkpt><trkpt lat="37.836075" lon="14.9070933"><ele>989.0</ele><time>2026-04-25T10:39:40.925Z</time></trkpt><trkpt lat="37.8361983" lon="14.907215"><ele>987.0</ele><time>2026-04-25T10:39:41.924Z</time></trkpt><trkpt lat="37.8363483" lon="14.9073167"><ele>987.0</ele><time>2026-04-25T10:39:42.925Z</time></trkpt><trkpt lat="37.836515" lon="14.9074083"><ele>987.0</ele><time>2026-04-25T10:39:43.925Z</time></trkpt><trkpt lat="37.8366867" lon="14.9074967"><ele>987.0</ele><time>2026-04-25T10:39:44.925Z</time></trkpt><trkpt lat="37.8368567" lon="14.9075883"><ele>986.0</ele><time>2026-04-25T10:39:45.924Z</time></trkpt><trkpt lat="37.83702" lon="14.9076783"><ele>985.0</ele><time>2026-04-25T10:39:46.925Z</time></trkpt><trkpt lat="37.8371933" lon="14.90776"><ele>984.0</ele><time>2026-04-25T10:39:47.924Z</time></trkpt><trkpt lat="37.837355" lon="14.9078433"><ele>984.0</ele><time>2026-04-25T10:39:48.925Z</time></trkpt><trkpt lat="37.8375233" lon="14.9079283"><ele>984.0</ele><time>2026-04-25T10:39:49.924Z</time></trkpt><trkpt lat="37.837685" lon="14.9080067"><ele>984.0</ele><time>2026-04-25T10:39:50.925Z</time></trkpt><trkpt lat="37.837845" lon="14.9080883"><ele>982.6666666666667</ele><time>2026-04-25T10:39:51.925Z</time></trkpt><trkpt lat="37.8380033" lon="14.9081633"><ele>981.3333333333334</ele><time>2026-04-25T10:39:52.925Z</time></trkpt><trkpt lat="37.8381567" lon="14.908245"><ele>980.0</ele><time>2026-04-25T10:39:53.924Z</time></trkpt><trkpt lat="37.8383083" lon="14.90832"><ele>980.0</ele><time>2026-04-25T10:39:54.925Z</time></trkpt><trkpt lat="37.8384667" lon="14.9083967"><ele>980.0</ele><time>2026-04-25T10:39:55.925Z</time></trkpt><trkpt lat="37.8386283" lon="14.9084717"><ele>980.0</ele><time>2026-04-25T10:39:56.925Z</time></trkpt><trkpt lat="37.8387883" lon="14.9085517"><ele>978.3333333333334</ele><time>2026-04-25T10:39:57.925Z</time></trkpt><trkpt lat="37.83895" lon="14.9086367"><ele>976.6666666666667</ele><time>2026-04-25T10:39:58.924Z</time></trkpt><trkpt lat="37.83912" lon="14.9087167"><ele>975.0</ele><time>2026-04-25T10:39:59.924Z</time></trkpt><trkpt lat="37.8392917" lon="14.9088017"><ele>972.6666666666667</ele><time>2026-04-25T10:40:00.924Z</time></trkpt><trkpt lat="37.839455" lon="14.9088917"><ele>970.3333333333334</ele><time>2026-04-25T10:40:01.925Z</time></trkpt><trkpt lat="37.83962" lon="14.9089717"><ele>968.0</ele><time>2026-04-25T10:40:02.925Z</time></trkpt><trkpt lat="37.839795" lon="14.9090583"><ele>968.0</ele><time>2026-04-25T10:40:03.924Z</time></trkpt><trkpt lat="37.8399667" lon="14.909145"><ele>968.0</ele><time>2026-04-25T10:40:04.925Z</time></trkpt><trkpt lat="37.8401333" lon="14.9092317"><ele>968.0</ele><time>2026-04-25T10:40:05.925Z</time></trkpt><trkpt lat="37.8402967" lon="14.90932"><ele>967.6666666666667</ele><time>2026-04-25T10:40:06.925Z</time></trkpt><trkpt lat="37.8404617" lon="14.9093967"><ele>967.3333333333333</ele><time>2026-04-25T10:40:07.925Z</time></trkpt><trkpt lat="37.84062" lon="14.9094783"><ele>967.0</ele><time>2026-04-25T10:40:08.924Z</time></trkpt><trkpt lat="37.84078" lon="14.9095583"><ele>967.0</ele><time>2026-04-25T10:40:09.924Z</time></trkpt><trkpt lat="37.8409283" lon="14.9096417"><ele>967.0</ele><time>2026-04-25T10:40:10.924Z</time></trkpt><trkpt lat="37.8410833" lon="14.90972"><ele>967.0</ele><time>2026-04-25T10:40:11.925Z</time></trkpt><trkpt lat="37.8412367" lon="14.9097983"><ele>965.3333333333333</ele><time>2026-04-25T10:40:12.925Z</time></trkpt><trkpt lat="37.8413917" lon="14.9098717"><ele>963.6666666666667</ele><time>2026-04-25T10:40:13.925Z</time></trkpt><trkpt lat="37.841545" lon="14.9099433"><ele>962.0</ele><time>2026-04-25T10:40:14.924Z</time></trkpt><trkpt lat="37.841695" lon="14.9100133"><ele>960.6666666666667</ele><time>2026-04-25T10:40:15.924Z</time></trkpt><trkpt lat="37.8418417" lon="14.9100933"><ele>959.3333333333333</ele><time>2026-04-25T10:40:16.924Z</time></trkpt><trkpt lat="37.8419967" lon="14.91017"><ele>958.0</ele><time>2026-04-25T10:40:17.924Z</time></trkpt><trkpt lat="37.8421583" lon="14.9102433"><ele>958.0</ele><time>2026-04-25T10:40:18.925Z</time></trkpt><trkpt lat="37.8423167" lon="14.9103217"><ele>958.0</ele><time>2026-04-25T10:40:19.924Z</time></trkpt><trkpt lat="37.8424767" lon="14.9103967"><ele>958.0</ele><time>2026-04-25T10:40:20.925Z</time></trkpt><trkpt lat="37.8426417" lon="14.910475"><ele>956.3333333333333</ele><time>2026-04-25T10:40:21.925Z</time></trkpt><trkpt lat="37.8428033" lon="14.9105533"><ele>954.6666666666667</ele><time>2026-04-25T10:40:22.925Z</time></trkpt><trkpt lat="37.8429667" lon="14.9106367"><ele>953.0</ele><time>2026-04-25T10:40:23.924Z</time></trkpt><trkpt lat="37.8431283" lon="14.910725"><ele>953.0</ele><time>2026-04-25T10:40:24.925Z</time></trkpt><trkpt lat="37.8432933" lon="14.9108017"><ele>953.0</ele><time>2026-04-25T10:40:25.925Z</time></trkpt><trkpt lat="37.8434533" lon="14.9108817"><ele>953.0</ele><time>2026-04-25T10:40:26.925Z</time></trkpt><trkpt lat="37.8436117" lon="14.9109633"><ele>951.0</ele><time>2026-04-25T10:40:27.924Z</time></trkpt><trkpt lat="37.8437683" lon="14.9110433"><ele>949.0</ele><time>2026-04-25T10:40:28.924Z</time></trkpt><trkpt lat="37.8439267" lon="14.9111267"><ele>947.0</ele><time>2026-04-25T10:40:29.924Z</time></trkpt><trkpt lat="37.8440867" lon="14.9112033"><ele>947.0</ele><time>2026-04-25T10:40:30.925Z</time></trkpt><trkpt lat="37.8442517" lon="14.9112833"><ele>947.0</ele><time>2026-04-25T10:40:31.925Z</time></trkpt><trkpt lat="37.8444117" lon="14.911365"><ele>947.0</ele><time>2026-04-25T10:40:32.924Z</time></trkpt><trkpt lat="37.84457" lon="14.911445"><ele>946.0</ele><time>2026-04-25T10:40:33.924Z</time></trkpt><trkpt lat="37.8447283" lon="14.9115367"><ele>945.0</ele><time>2026-04-25T10:40:34.925Z</time></trkpt><trkpt lat="37.844875" lon="14.911645"><ele>944.0</ele><time>2026-04-25T10:40:35.924Z</time></trkpt><trkpt lat="37.8450133" lon="14.9117817"><ele>940.0</ele><time>2026-04-25T10:40:36.924Z</time></trkpt><trkpt lat="37.8451483" lon="14.9119333"><ele>936.0</ele><time>2026-04-25T10:40:37.925Z</time></trkpt><trkpt lat="37.8452733" lon="14.9120833"><ele>932.0</ele><time>2026-04-25T10:40:38.925Z</time></trkpt><trkpt lat="37.8453883" lon="14.9122283"><ele>932.0</ele><time>2026-04-25T10:40:39.925Z</time></trkpt><trkpt lat="37.8455083" lon="14.9123683"><ele>932.0</ele><time>2026-04-25T10:40:40.924Z</time></trkpt><trkpt lat="37.845625" lon="14.9125067"><ele>932.0</ele><time>2026-04-25T10:40:41.925Z</time></trkpt><trkpt lat="37.8457317" lon="14.9126417"><ele>932.6666666666667</ele><time>2026-04-25T10:40:42.925Z</time></trkpt><trkpt lat="37.8458417" lon="14.91279"><ele>933.3333333333333</ele><time>2026-04-25T10:40:43.924Z</time></trkpt><trkpt lat="37.845945" lon="14.91295"><ele>934.0</ele><time>2026-04-25T10:40:44.924Z</time></trkpt><trkpt lat="37.84604" lon="14.9131283"><ele>932.0</ele><time>2026-04-25T10:40:45.925Z</time></trkpt><trkpt lat="37.8461217" lon="14.9133117"><ele>930.0</ele><time>2026-04-25T10:40:46.924Z</time></trkpt><trkpt lat="37.84619" lon="14.9135"><ele>928.0</ele><time>2026-04-25T10:40:47.925Z</time></trkpt><trkpt lat="37.8462383" lon="14.9136867"><ele>928.0</ele><time>2026-04-25T10:40:48.924Z</time></trkpt><trkpt lat="37.8462733" lon="14.9138817"><ele>928.0</ele><time>2026-04-25T10:40:49.925Z</time></trkpt><trkpt lat="37.846295" lon="14.9140867"><ele>928.0</ele><time>2026-04-25T10:40:50.925Z</time></trkpt><trkpt lat="37.8463133" lon="14.914295"><ele>929.3333333333333</ele><time>2026-04-25T10:40:51.924Z</time></trkpt><trkpt lat="37.84633" lon="14.914495"><ele>930.6666666666667</ele><time>2026-04-25T10:40:52.925Z</time></trkpt><trkpt lat="37.8463617" lon="14.9146867"><ele>932.0</ele><time>2026-04-25T10:40:53.925Z</time></trkpt><trkpt lat="37.8464133" lon="14.9148633"><ele>932.0</ele><time>2026-04-25T10:40:54.925Z</time></trkpt><trkpt lat="37.8464867" lon="14.9150117"><ele>932.0</ele><time>2026-04-25T10:40:55.924Z</time></trkpt><trkpt lat="37.8465783" lon="14.9151433"><ele>932.0</ele><time>2026-04-25T10:40:56.924Z</time></trkpt><trkpt lat="37.84668" lon="14.9152517"><ele>932.0</ele><time>2026-04-25T10:40:57.924Z</time></trkpt><trkpt lat="37.8467883" lon="14.9153433"><ele>932.25</ele><time>2026-04-25T10:40:58.924Z</time></trkpt><trkpt lat="37.8469" lon="14.91541"><ele>932.5</ele><time>2026-04-25T10:40:59.925Z</time></trkpt><trkpt lat="37.8470283" lon="14.9154667"><ele>932.75</ele><time>2026-04-25T10:41:00.924Z</time></trkpt><trkpt lat="37.8471567" lon="14.9155133"><ele>933.0</ele><time>2026-04-25T10:41:01.925Z</time></trkpt><trkpt lat="37.8472767" lon="14.9155667"><ele>933.0</ele><time>2026-04-25T10:41:02.925Z</time></trkpt><trkpt lat="37.8474017" lon="14.9156083"><ele>933.0</ele><time>2026-04-25T10:41:03.925Z</time></trkpt><trkpt lat="37.8475183" lon="14.9156617"><ele>933.0</ele><time>2026-04-25T10:41:04.925Z</time></trkpt><trkpt lat="37.8476317" lon="14.91571"><ele>933.0</ele><time>2026-04-25T10:41:05.925Z</time></trkpt><trkpt lat="37.8477467" lon="14.9157683"><ele>932.5</ele><time>2026-04-25T10:41:06.925Z</time></trkpt><trkpt lat="37.8478567" lon="14.9158433"><ele>932.0</ele><time>2026-04-25T10:41:07.925Z</time></trkpt><trkpt lat="37.8479633" lon="14.9159217"><ele>931.5</ele><time>2026-04-25T10:41:08.924Z</time></trkpt><trkpt lat="37.8480683" lon="14.916005"><ele>931.0</ele><time>2026-04-25T10:41:09.924Z</time></trkpt><trkpt lat="37.8481633" lon="14.9160917"><ele>931.0</ele><time>2026-04-25T10:41:10.925Z</time></trkpt><trkpt lat="37.8482467" lon="14.9161817"><ele>931.0</ele><time>2026-04-25T10:41:11.925Z</time></trkpt><trkpt lat="37.8483333" lon="14.9162883"><ele>931.0</ele><time>2026-04-25T10:41:12.924Z</time></trkpt><trkpt lat="37.8484133" lon="14.91641"><ele>931.0</ele><time>2026-04-25T10:41:13.925Z</time></trkpt><trkpt lat="37.8484967" lon="14.91655"><ele>930.3333333333333</ele><time>2026-04-25T10:41:14.924Z</time></trkpt><trkpt lat="37.8485683" lon="14.9167133"><ele>929.6666666666667</ele><time>2026-04-25T10:41:15.924Z</time></trkpt><trkpt lat="37.84864" lon="14.916885"><ele>929.0</ele><time>2026-04-25T10:41:16.925Z</time></trkpt><trkpt lat="37.848715" lon="14.9170533"><ele>929.0</ele><time>2026-04-25T10:41:17.925Z</time></trkpt><trkpt lat="37.8487767" lon="14.9172267"><ele>929.0</ele><time>2026-04-25T10:41:18.924Z</time></trkpt><trkpt lat="37.8488317" lon="14.9173967"><ele>929.0</ele><time>2026-04-25T10:41:19.924Z</time></trkpt><trkpt lat="37.8488667" lon="14.9175733"><ele>929.0</ele><time>2026-04-25T10:41:20.925Z</time></trkpt><trkpt lat="37.8488883" lon="14.9177483"><ele>928.25</ele><time>2026-04-25T10:41:21.925Z</time></trkpt><trkpt lat="37.848905" lon="14.9179217"><ele>927.5</ele><time>2026-04-25T10:41:22.925Z</time></trkpt><trkpt lat="37.84892" lon="14.91809"><ele>926.75</ele><time>2026-04-25T10:41:23.924Z</time></trkpt><trkpt lat="37.848945" lon="14.918255"><ele>926.0</ele><time>2026-04-25T10:41:24.925Z</time></trkpt><trkpt lat="37.8489667" lon="14.918415"><ele>925.25</ele><time>2026-04-25T10:41:25.925Z</time></trkpt><trkpt lat="37.8490083" lon="14.9185717"><ele>924.5</ele><time>2026-04-25T10:41:26.924Z</time></trkpt><trkpt lat="37.8490733" lon="14.9187283"><ele>923.75</ele><time>2026-04-25T10:41:27.924Z</time></trkpt><trkpt lat="37.8491617" lon="14.9188717"><ele>923.0</ele><time>2026-04-25T10:41:28.925Z</time></trkpt><trkpt lat="37.8492733" lon="14.9189917"><ele>921.3333333333334</ele><time>2026-04-25T10:41:29.925Z</time></trkpt><trkpt lat="37.8493983" lon="14.9190883"><ele>919.6666666666667</ele><time>2026-04-25T10:41:30.925Z</time></trkpt><trkpt lat="37.8495367" lon="14.919185"><ele>918.0</ele><time>2026-04-25T10:41:31.925Z</time></trkpt><trkpt lat="37.8496817" lon="14.9192833"><ele>918.0</ele><time>2026-04-25T10:41:32.925Z</time></trkpt><trkpt lat="37.8498283" lon="14.9193783"><ele>918.0</ele><time>2026-04-25T10:41:33.924Z</time></trkpt><trkpt lat="37.8499717" lon="14.9194683"><ele>918.0</ele><time>2026-04-25T10:41:34.925Z</time></trkpt><trkpt lat="37.8501117" lon="14.9195633"><ele>916.6666666666667</ele><time>2026-04-25T10:41:35.925Z</time></trkpt><trkpt lat="37.85025" lon="14.91965"><ele>915.3333333333334</ele><time>2026-04-25T10:41:36.925Z</time></trkpt><trkpt lat="37.850385" lon="14.91974"><ele>914.0</ele><time>2026-04-25T10:41:37.925Z</time></trkpt><trkpt lat="37.8505217" lon="14.9198333"><ele>914.0</ele><time>2026-04-25T10:41:38.925Z</time></trkpt><trkpt lat="37.8506533" lon="14.9199267"><ele>914.0</ele><time>2026-04-25T10:41:39.924Z</time></trkpt><trkpt lat="37.8507767" lon="14.920015"><ele>914.0</ele><time>2026-04-25T10:41:40.925Z</time></trkpt><trkpt lat="37.8509067" lon="14.9201067"><ele>914.0</ele><time>2026-04-25T10:41:41.925Z</time></trkpt><trkpt lat="37.851035" lon="14.9201917"><ele>913.5</ele><time>2026-04-25T10:41:42.924Z</time></trkpt><trkpt lat="37.8511633" lon="14.9202767"><ele>913.0</ele><time>2026-04-25T10:41:43.925Z</time></trkpt><trkpt lat="37.851295" lon="14.9203617"><ele>912.5</ele><time>2026-04-25T10:41:44.925Z</time></trkpt><trkpt lat="37.8514217" lon="14.92045"><ele>912.0</ele><time>2026-04-25T10:41:45.924Z</time></trkpt><trkpt lat="37.8515517" lon="14.92054"><ele>912.0</ele><time>2026-04-25T10:41:46.925Z</time></trkpt><trkpt lat="37.8516717" lon="14.9206267"><ele>912.0</ele><time>2026-04-25T10:41:47.925Z</time></trkpt><trkpt lat="37.8517883" lon="14.92071"><ele>912.0</ele><time>2026-04-25T10:41:48.925Z</time></trkpt><trkpt lat="37.8519133" lon="14.92079"><ele>912.0</ele><time>2026-04-25T10:41:49.924Z</time></trkpt><trkpt lat="37.8520333" lon="14.9208683"><ele>912.5</ele><time>2026-04-25T10:41:50.925Z</time></trkpt><trkpt lat="37.8521417" lon="14.9209383"><ele>913.0</ele><time>2026-04-25T10:41:51.925Z</time></trkpt><trkpt lat="37.8522483" lon="14.9210017"><ele>913.5</ele><time>2026-04-25T10:41:52.925Z</time></trkpt><trkpt lat="37.85235" lon="14.9210517"><ele>914.0</ele><time>2026-04-25T10:41:53.925Z</time></trkpt><trkpt lat="37.8524517" lon="14.92107"><ele>914.0</ele><time>2026-04-25T10:41:54.925Z</time></trkpt><trkpt lat="37.8525533" lon="14.921055"><ele>914.0000000000001</ele><time>2026-04-25T10:41:55.924Z</time></trkpt><trkpt lat="37.8526567" lon="14.92101"><ele>914.0000000000001</ele><time>2026-04-25T10:41:56.925Z</time></trkpt><trkpt lat="37.8527433" lon="14.9209417"><ele>914.0</ele><time>2026-04-25T10:41:57.924Z</time></trkpt><trkpt lat="37.8528317" lon="14.9208567"><ele>914.0</ele><time>2026-04-25T10:41:58.925Z</time></trkpt><trkpt lat="37.8529167" lon="14.9207767"><ele>911.8000000000001</ele><time>2026-04-25T10:41:59.925Z</time></trkpt><trkpt lat="37.853" lon="14.9206917"><ele>909.6000000000001</ele><time>2026-04-25T10:42:00.925Z</time></trkpt><trkpt lat="37.8530883" lon="14.92061"><ele>907.4</ele><time>2026-04-25T10:42:01.924Z</time></trkpt><trkpt lat="37.8531867" lon="14.9205483"><ele>905.2</ele><time>2026-04-25T10:42:02.925Z</time></trkpt><trkpt lat="37.8532983" lon="14.9205167"><ele>903.0</ele><time>2026-04-25T10:42:03.924Z</time></trkpt><trkpt lat="37.8534117" lon="14.9205133"><ele>901.0</ele><time>2026-04-25T10:42:04.924Z</time></trkpt><trkpt lat="37.8535233" lon="14.9205317"><ele>899.0</ele><time>2026-04-25T10:42:05.924Z</time></trkpt><trkpt lat="37.8536383" lon="14.92057"><ele>897.0</ele><time>2026-04-25T10:42:06.925Z</time></trkpt><trkpt lat="37.8537467" lon="14.9206317"><ele>895.0</ele><time>2026-04-25T10:42:07.924Z</time></trkpt><trkpt lat="37.85385" lon="14.9206933"><ele>895.0</ele><time>2026-04-25T10:42:08.925Z</time></trkpt><trkpt lat="37.8539583" lon="14.920755"><ele>895.0</ele><time>2026-04-25T10:42:09.924Z</time></trkpt><trkpt lat="37.8540617" lon="14.9208117"><ele>895.0</ele><time>2026-04-25T10:42:10.924Z</time></trkpt><trkpt lat="37.8541717" lon="14.9208483"><ele>895.0</ele><time>2026-04-25T10:42:11.924Z</time></trkpt><trkpt lat="37.8542933" lon="14.9208667"><ele>893.0</ele><time>2026-04-25T10:42:12.925Z</time></trkpt><trkpt lat="37.8544133" lon="14.9208667"><ele>891.0</ele><time>2026-04-25T10:42:13.924Z</time></trkpt><trkpt lat="37.8545417" lon="14.9208567"><ele>889.0</ele><time>2026-04-25T10:42:14.925Z</time></trkpt><trkpt lat="37.8546683" lon="14.9208467"><ele>887.0</ele><time>2026-04-25T10:42:15.925Z</time></trkpt><trkpt lat="37.8547933" lon="14.920835"><ele>887.0</ele><time>2026-04-25T10:42:16.925Z</time></trkpt><trkpt lat="37.8549217" lon="14.9208283"><ele>887.0</ele><time>2026-04-25T10:42:17.924Z</time></trkpt><trkpt lat="37.855045" lon="14.9208317"><ele>887.0</ele><time>2026-04-25T10:42:18.924Z</time></trkpt><trkpt lat="37.85517" lon="14.9208567"><ele>887.0</ele><time>2026-04-25T10:42:19.925Z</time></trkpt><trkpt lat="37.8552917" lon="14.920905"><ele>886.0</ele><time>2026-04-25T10:42:20.925Z</time></trkpt><trkpt lat="37.8554083" lon="14.9209717"><ele>885.0</ele><time>2026-04-25T10:42:21.925Z</time></trkpt><trkpt lat="37.8555117" lon="14.92106"><ele>884.0</ele><time>2026-04-25T10:42:22.925Z</time></trkpt><trkpt lat="37.8556" lon="14.9211667"><ele>883.0</ele><time>2026-04-25T10:42:23.924Z</time></trkpt><trkpt lat="37.855665" lon="14.9212667"><ele>883.0</ele><time>2026-04-25T10:42:24.925Z</time></trkpt><trkpt lat="37.8557367" lon="14.9213833"><ele>883.0</ele><time>2026-04-25T10:42:25.925Z</time></trkpt><trkpt lat="37.8558233" lon="14.9215017"><ele>883.0</ele><time>2026-04-25T10:42:26.925Z</time></trkpt><trkpt lat="37.8559233" lon="14.9216133"><ele>883.0</ele><time>2026-04-25T10:42:27.925Z</time></trkpt><trkpt lat="37.8560267" lon="14.9217067"><ele>882.25</ele><time>2026-04-25T10:42:28.925Z</time></trkpt><trkpt lat="37.8561417" lon="14.92178"><ele>881.5</ele><time>2026-04-25T10:42:29.925Z</time></trkpt><trkpt lat="37.8562583" lon="14.92184"><ele>880.75</ele><time>2026-04-25T10:42:30.925Z</time></trkpt><trkpt lat="37.856385" lon="14.9218817"><ele>880.0</ele><time>2026-04-25T10:42:31.924Z</time></trkpt><trkpt lat="37.8565167" lon="14.9219067"><ele>880.0</ele><time>2026-04-25T10:42:32.925Z</time></trkpt><trkpt lat="37.856645" lon="14.9219267"><ele>880.0</ele><time>2026-04-25T10:42:33.925Z</time></trkpt><trkpt lat="37.8567817" lon="14.9219433"><ele>880.0</ele><time>2026-04-25T10:42:34.924Z</time></trkpt><trkpt lat="37.8569317" lon="14.92197"><ele>880.0</ele><time>2026-04-25T10:42:35.925Z</time></trkpt><trkpt lat="37.8571017" lon="14.9220067"><ele>878.0</ele><time>2026-04-25T10:42:36.925Z</time></trkpt><trkpt lat="37.85729" lon="14.9220483"><ele>876.0</ele><time>2026-04-25T10:42:37.925Z</time></trkpt><trkpt lat="37.8574833" lon="14.9220917"><ele>874.0</ele><time>2026-04-25T10:42:38.925Z</time></trkpt><trkpt lat="37.85768" lon="14.9221417"><ele>873.3333333333333</ele><time>2026-04-25T10:42:39.925Z</time></trkpt><trkpt lat="37.8578767" lon="14.922195"><ele>872.6666666666667</ele><time>2026-04-25T10:42:40.924Z</time></trkpt><trkpt lat="37.8580767" lon="14.922245"><ele>872.0</ele><time>2026-04-25T10:42:41.925Z</time></trkpt><trkpt lat="37.8582733" lon="14.9222983"><ele>870.6666666666667</ele><time>2026-04-25T10:42:42.925Z</time></trkpt><trkpt lat="37.8584733" lon="14.9223517"><ele>869.3333333333333</ele><time>2026-04-25T10:42:43.924Z</time></trkpt><trkpt lat="37.8586767" lon="14.92239"><ele>868.0</ele><time>2026-04-25T10:42:44.925Z</time></trkpt><trkpt lat="37.8588733" lon="14.9224333"><ele>868.0</ele><time>2026-04-25T10:42:45.925Z</time></trkpt><trkpt lat="37.8590683" lon="14.9224767"><ele>868.0</ele><time>2026-04-25T10:42:46.924Z</time></trkpt><trkpt lat="37.85925" lon="14.9225183"><ele>868.0</ele><time>2026-04-25T10:42:47.925Z</time></trkpt><trkpt lat="37.8594267" lon="14.9225617"><ele>867.0</ele><time>2026-04-25T10:42:48.924Z</time></trkpt><trkpt lat="37.8595983" lon="14.92261"><ele>866.0</ele><time>2026-04-25T10:42:49.925Z</time></trkpt><trkpt lat="37.85976" lon="14.9226833"><ele>865.0</ele><time>2026-04-25T10:42:50.925Z</time></trkpt><trkpt lat="37.8598967" lon="14.922785"><ele>865.0</ele><time>2026-04-25T10:42:51.924Z</time></trkpt><trkpt lat="37.86002" lon="14.9229217"><ele>865.0</ele><time>2026-04-25T10:42:52.925Z</time></trkpt><trkpt lat="37.86013" lon="14.923095"><ele>865.0</ele><time>2026-04-25T10:42:53.925Z</time></trkpt><trkpt lat="37.86023" lon="14.9232817"><ele>862.6666666666666</ele><time>2026-04-25T10:42:54.925Z</time></trkpt><trkpt lat="37.86033" lon="14.9234783"><ele>860.3333333333333</ele><time>2026-04-25T10:42:55.924Z</time></trkpt><trkpt lat="37.86044" lon="14.92368"><ele>858.0</ele><time>2026-04-25T10:42:56.925Z</time></trkpt><trkpt lat="37.8605467" lon="14.92389"><ele>858.0</ele><time>2026-04-25T10:42:57.925Z</time></trkpt><trkpt lat="37.860655" lon="14.9241"><ele>858.0</ele><time>2026-04-25T10:42:58.924Z</time></trkpt><trkpt lat="37.8607567" lon="14.9243017"><ele>858.0</ele><time>2026-04-25T10:42:59.925Z</time></trkpt><trkpt lat="37.8608567" lon="14.9245083"><ele>854.3333333333333</ele><time>2026-04-25T10:43:00.925Z</time></trkpt><trkpt lat="37.86095" lon="14.92471"><ele>850.6666666666666</ele><time>2026-04-25T10:43:01.925Z</time></trkpt><trkpt lat="37.8610533" lon="14.9249033"><ele>847.0</ele><time>2026-04-25T10:43:02.925Z</time></trkpt><trkpt lat="37.8611617" lon="14.9250983"><ele>847.0</ele><time>2026-04-25T10:43:03.925Z</time></trkpt><trkpt lat="37.8612833" lon="14.9252817"><ele>847.0</ele><time>2026-04-25T10:43:04.924Z</time></trkpt><trkpt lat="37.86142" lon="14.92545"><ele>847.0</ele><time>2026-04-25T10:43:05.925Z</time></trkpt><trkpt lat="37.861565" lon="14.9256067"><ele>847.0</ele><time>2026-04-25T10:43:06.924Z</time></trkpt><trkpt lat="37.8617183" lon="14.925755"><ele>847.0</ele><time>2026-04-25T10:43:07.925Z</time></trkpt><trkpt lat="37.8618717" lon="14.925905"><ele>847.0</ele><time>2026-04-25T10:43:08.924Z</time></trkpt><trkpt lat="37.8620167" lon="14.9260533"><ele>846.3333333333333</ele><time>2026-04-25T10:43:09.925Z</time></trkpt><trkpt lat="37.86217" lon="14.9261967"><ele>845.6666666666667</ele><time>2026-04-25T10:43:10.924Z</time></trkpt><trkpt lat="37.8623117" lon="14.9263217"><ele>845.0</ele><time>2026-04-25T10:43:11.925Z</time></trkpt><trkpt lat="37.86246" lon="14.92644"><ele>844.6666666666667</ele><time>2026-04-25T10:43:12.925Z</time></trkpt><trkpt lat="37.8626233" lon="14.92655"><ele>844.3333333333333</ele><time>2026-04-25T10:43:13.924Z</time></trkpt><trkpt lat="37.86279" lon="14.9266567"><ele>844.0</ele><time>2026-04-25T10:43:14.924Z</time></trkpt><trkpt lat="37.86295" lon="14.9267617"><ele>842.3333333333333</ele><time>2026-04-25T10:43:15.924Z</time></trkpt><trkpt lat="37.863105" lon="14.9268633"><ele>840.6666666666667</ele><time>2026-04-25T10:43:16.924Z</time></trkpt><trkpt lat="37.8632583" lon="14.9269633"><ele>839.0</ele><time>2026-04-25T10:43:17.924Z</time></trkpt><trkpt lat="37.8634117" lon="14.92706"><ele>837.6666666666667</ele><time>2026-04-25T10:43:18.925Z</time></trkpt><trkpt lat="37.863565" lon="14.9271317"><ele>836.3333333333333</ele><time>2026-04-25T10:43:19.925Z</time></trkpt><trkpt lat="37.863715" lon="14.9271833"><ele>835.0</ele><time>2026-04-25T10:43:20.924Z</time></trkpt><trkpt lat="37.863875" lon="14.9272"><ele>835.0</ele><time>2026-04-25T10:43:21.925Z</time></trkpt><trkpt lat="37.8640433" lon="14.9272"><ele>835.0</ele><time>2026-04-25T10:43:22.924Z</time></trkpt><trkpt lat="37.8642083" lon="14.9271933"><ele>835.0</ele><time>2026-04-25T10:43:23.924Z</time></trkpt><trkpt lat="37.8643717" lon="14.9271817"><ele>834.3333333333333</ele><time>2026-04-25T10:43:24.924Z</time></trkpt><trkpt lat="37.8645317" lon="14.92717"><ele>833.6666666666667</ele><time>2026-04-25T10:43:25.925Z</time></trkpt><trkpt lat="37.864685" lon="14.9271667"><ele>833.0</ele><time>2026-04-25T10:43:26.925Z</time></trkpt><trkpt lat="37.8648383" lon="14.9271667"><ele>833.0</ele><time>2026-04-25T10:43:27.925Z</time></trkpt><trkpt lat="37.8649783" lon="14.927155"><ele>833.0</ele><time>2026-04-25T10:43:28.925Z</time></trkpt><trkpt lat="37.8651083" lon="14.927145"><ele>833.0</ele><time>2026-04-25T10:43:29.924Z</time></trkpt><trkpt lat="37.8652333" lon="14.9271467"><ele>833.0</ele><time>2026-04-25T10:43:30.925Z</time></trkpt><trkpt lat="37.8653583" lon="14.9271417"><ele>832.5</ele><time>2026-04-25T10:43:31.924Z</time></trkpt><trkpt lat="37.86548" lon="14.92714"><ele>832.0</ele><time>2026-04-25T10:43:32.925Z</time></trkpt><trkpt lat="37.8655983" lon="14.927135"><ele>831.5</ele><time>2026-04-25T10:43:33.925Z</time></trkpt><trkpt lat="37.8657083" lon="14.9271317"><ele>831.0</ele><time>2026-04-25T10:43:34.925Z</time></trkpt><trkpt lat="37.86582" lon="14.92713"><ele>831.0</ele><time>2026-04-25T10:43:35.925Z</time></trkpt><trkpt lat="37.8659333" lon="14.92713"><ele>831.0</ele><time>2026-04-25T10:43:36.925Z</time></trkpt><trkpt lat="37.8660517" lon="14.927125"><ele>831.0</ele><time>2026-04-25T10:43:37.924Z</time></trkpt><trkpt lat="37.8661767" lon="14.92712"><ele>831.0</ele><time>2026-04-25T10:43:38.924Z</time></trkpt><trkpt lat="37.866305" lon="14.92712"><ele>829.5</ele><time>2026-04-25T10:43:39.924Z</time></trkpt><trkpt lat="37.8664383" lon="14.9271167"><ele>828.0</ele><time>2026-04-25T10:43:40.925Z</time></trkpt><trkpt lat="37.866575" lon="14.9271033"><ele>826.5</ele><time>2026-04-25T10:43:41.924Z</time></trkpt><trkpt lat="37.8667017" lon="14.9271017"><ele>825.0</ele><time>2026-04-25T10:43:42.925Z</time></trkpt><trkpt lat="37.8668267" lon="14.9271"><ele>824.4</ele><time>2026-04-25T10:43:43.925Z</time></trkpt><trkpt lat="37.8669467" lon="14.9270967"><ele>823.8</ele><time>2026-04-25T10:43:44.925Z</time></trkpt><trkpt lat="37.86706" lon="14.9270933"><ele>823.2</ele><time>2026-04-25T10:43:45.924Z</time></trkpt><trkpt lat="37.86716" lon="14.9270917"><ele>822.6</ele><time>2026-04-25T10:43:46.925Z</time></trkpt><trkpt lat="37.8672467" lon="14.92709"><ele>822.0</ele><time>2026-04-25T10:43:47.924Z</time></trkpt><trkpt lat="37.8673367" lon="14.9270867"><ele>822.0</ele><time>2026-04-25T10:43:48.925Z</time></trkpt><trkpt lat="37.8674267" lon="14.9271017"><ele>822.0</ele><time>2026-04-25T10:43:49.924Z</time></trkpt><trkpt lat="37.8675183" lon="14.9271233"><ele>822.0</ele><time>2026-04-25T10:43:50.925Z</time></trkpt><trkpt lat="37.8676083" lon="14.9271433"><ele>822.0</ele><time>2026-04-25T10:43:51.924Z</time></trkpt><trkpt lat="37.8677017" lon="14.9271767"><ele>822.0</ele><time>2026-04-25T10:43:52.924Z</time></trkpt><trkpt lat="37.8678" lon="14.92721"><ele>822.0</ele><time>2026-04-25T10:43:53.925Z</time></trkpt><trkpt lat="37.8679167" lon="14.9272517"><ele>822.0</ele><time>2026-04-25T10:43:54.925Z</time></trkpt><trkpt lat="37.8680533" lon="14.9273133"><ele>822.0</ele><time>2026-04-25T10:43:55.925Z</time></trkpt><trkpt lat="37.8682017" lon="14.9273833"><ele>822.0</ele><time>2026-04-25T10:43:56.925Z</time></trkpt><trkpt lat="37.8683467" lon="14.9274583"><ele>821.25</ele><time>2026-04-25T10:43:57.924Z</time></trkpt><trkpt lat="37.868485" lon="14.9275133"><ele>820.5</ele><time>2026-04-25T10:43:58.925Z</time></trkpt><trkpt lat="37.868605" lon="14.9275733"><ele>819.75</ele><time>2026-04-25T10:43:59.925Z</time></trkpt><trkpt lat="37.8687167" lon="14.9276233"><ele>819.0</ele><time>2026-04-25T10:44:00.925Z</time></trkpt><trkpt lat="37.8688233" lon="14.92768"><ele>819.0</ele><time>2026-04-25T10:44:01.925Z</time></trkpt><trkpt lat="37.8689317" lon="14.9277483"><ele>819.0</ele><time>2026-04-25T10:44:02.925Z</time></trkpt><trkpt lat="37.8690417" lon="14.9278267"><ele>819.0</ele><time>2026-04-25T10:44:03.925Z</time></trkpt><trkpt lat="37.8691433" lon="14.927915"><ele>819.0</ele><time>2026-04-25T10:44:04.924Z</time></trkpt><trkpt lat="37.86924" lon="14.9280133"><ele>819.0</ele><time>2026-04-25T10:44:05.924Z</time></trkpt><trkpt lat="37.8693183" lon="14.9281133"><ele>819.0</ele><time>2026-04-25T10:44:06.925Z</time></trkpt><trkpt lat="37.8694" lon="14.9282267"><ele>819.0</ele><time>2026-04-25T10:44:07.925Z</time></trkpt><trkpt lat="37.869455" lon="14.92835"><ele>819.0</ele><time>2026-04-25T10:44:08.924Z</time></trkpt><trkpt lat="37.869505" lon="14.928475"><ele>818.5</ele><time>2026-04-25T10:44:09.924Z</time></trkpt><trkpt lat="37.8695483" lon="14.9286133"><ele>818.0</ele><time>2026-04-25T10:44:10.925Z</time></trkpt><trkpt lat="37.869595" lon="14.928755"><ele>817.5</ele><time>2026-04-25T10:44:11.925Z</time></trkpt><trkpt lat="37.8696483" lon="14.9289117"><ele>817.0</ele><time>2026-04-25T10:44:12.924Z</time></trkpt><trkpt lat="37.8697017" lon="14.9290483"><ele>817.0</ele><time>2026-04-25T10:44:13.925Z</time></trkpt><trkpt lat="37.8697617" lon="14.92919"><ele>817.0</ele><time>2026-04-25T10:44:14.925Z</time></trkpt><trkpt lat="37.86981" lon="14.9293267"><ele>817.0</ele><time>2026-04-25T10:44:15.925Z</time></trkpt><trkpt lat="37.869855" lon="14.9294583"><ele>817.0</ele><time>2026-04-25T10:44:16.925Z</time></trkpt><trkpt lat="37.8699117" lon="14.9295917"><ele>816.2</ele><time>2026-04-25T10:44:17.925Z</time></trkpt><trkpt lat="37.86996" lon="14.9297317"><ele>815.4000000000001</ele><time>2026-04-25T10:44:18.924Z</time></trkpt><trkpt lat="37.8700033" lon="14.92986"><ele>814.5999999999999</ele><time>2026-04-25T10:44:19.925Z</time></trkpt><trkpt lat="37.8700333" lon="14.92998"><ele>813.8</ele><time>2026-04-25T10:44:20.924Z</time></trkpt><trkpt lat="37.8700683" lon="14.930095"><ele>813.0</ele><time>2026-04-25T10:44:21.925Z</time></trkpt><trkpt lat="37.8701083" lon="14.9302033"><ele>811.0</ele><time>2026-04-25T10:44:22.925Z</time></trkpt><trkpt lat="37.8701483" lon="14.9303167"><ele>809.0</ele><time>2026-04-25T10:44:23.925Z</time></trkpt><trkpt lat="37.87019" lon="14.930425"><ele>807.0</ele><time>2026-04-25T10:44:24.925Z</time></trkpt><trkpt lat="37.8702367" lon="14.930525"><ele>805.0</ele><time>2026-04-25T10:44:25.924Z</time></trkpt><trkpt lat="37.8702917" lon="14.9306283"><ele>803.0</ele><time>2026-04-25T10:44:26.924Z</time></trkpt><trkpt lat="37.8703583" lon="14.9307317"><ele>803.0</ele><time>2026-04-25T10:44:27.925Z</time></trkpt><trkpt lat="37.8704283" lon="14.9308317"><ele>803.0</ele><time>2026-04-25T10:44:28.924Z</time></trkpt><trkpt lat="37.87051" lon="14.9309267"><ele>803.0</ele><time>2026-04-25T10:44:29.924Z</time></trkpt><trkpt lat="37.8705933" lon="14.9310217"><ele>803.0</ele><time>2026-04-25T10:44:30.925Z</time></trkpt><trkpt lat="37.8706833" lon="14.9311333"><ele>803.0</ele><time>2026-04-25T10:44:31.924Z</time></trkpt><trkpt lat="37.8708017" lon="14.9312433"><ele>803.0</ele><time>2026-04-25T10:44:32.924Z</time></trkpt><trkpt lat="37.8709367" lon="14.9313517"><ele>803.0</ele><time>2026-04-25T10:44:33.925Z</time></trkpt><trkpt lat="37.8710883" lon="14.9314667"><ele>803.0</ele><time>2026-04-25T10:44:34.925Z</time></trkpt><trkpt lat="37.8712483" lon="14.9315767"><ele>803.0</ele><time>2026-04-25T10:44:35.924Z</time></trkpt><trkpt lat="37.8714083" lon="14.9316717"><ele>803.0</ele><time>2026-04-25T10:44:36.925Z</time></trkpt><trkpt lat="37.8715617" lon="14.9317733"><ele>804.3333333333334</ele><time>2026-04-25T10:44:37.925Z</time></trkpt><trkpt lat="37.8717133" lon="14.9318983"><ele>805.6666666666667</ele><time>2026-04-25T10:44:38.925Z</time></trkpt><trkpt lat="37.8718517" lon="14.9320433"><ele>807.0</ele><time>2026-04-25T10:44:39.925Z</time></trkpt><trkpt lat="37.8719783" lon="14.9322167"><ele>803.0</ele><time>2026-04-25T10:44:40.925Z</time></trkpt><trkpt lat="37.8720833" lon="14.9323983"><ele>799.0</ele><time>2026-04-25T10:44:41.924Z</time></trkpt><trkpt lat="37.87217" lon="14.9325833"><ele>795.0</ele><time>2026-04-25T10:44:42.924Z</time></trkpt><trkpt lat="37.872245" lon="14.9327783"><ele>795.0</ele><time>2026-04-25T10:44:43.925Z</time></trkpt><trkpt lat="37.872305" lon="14.9329867"><ele>795.0</ele><time>2026-04-25T10:44:44.924Z</time></trkpt><trkpt lat="37.872355" lon="14.9331883"><ele>795.0</ele><time>2026-04-25T10:44:45.925Z</time></trkpt><trkpt lat="37.87239" lon="14.9333933"><ele>794.0</ele><time>2026-04-25T10:44:46.925Z</time></trkpt><trkpt lat="37.8724117" lon="14.9335933"><ele>793.0</ele><time>2026-04-25T10:44:47.925Z</time></trkpt><trkpt lat="37.8724117" lon="14.93382"><ele>792.0</ele><time>2026-04-25T10:44:48.925Z</time></trkpt><trkpt lat="37.8724133" lon="14.93406"><ele>791.3333333333333</ele><time>2026-04-25T10:44:49.925Z</time></trkpt><trkpt lat="37.8724033" lon="14.934325"><ele>790.6666666666666</ele><time>2026-04-25T10:44:50.924Z</time></trkpt><trkpt lat="37.8723933" lon="14.9345917"><ele>790.0</ele><time>2026-04-25T10:44:51.925Z</time></trkpt><trkpt lat="37.8723917" lon="14.934845"><ele>791.3333333333333</ele><time>2026-04-25T10:44:52.925Z</time></trkpt><trkpt lat="37.8723967" lon="14.9350883"><ele>792.6666666666667</ele><time>2026-04-25T10:44:53.925Z</time></trkpt><trkpt lat="37.8724117" lon="14.9353183"><ele>794.0</ele><time>2026-04-25T10:44:54.925Z</time></trkpt><trkpt lat="37.8724383" lon="14.9355317"><ele>794.0</ele><time>2026-04-25T10:44:55.924Z</time></trkpt><trkpt lat="37.872445" lon="14.9357367"><ele>794.0</ele><time>2026-04-25T10:44:56.925Z</time></trkpt><trkpt lat="37.8724467" lon="14.9359333"><ele>794.0</ele><time>2026-04-25T10:44:57.925Z</time></trkpt><trkpt lat="37.8724333" lon="14.9361433"><ele>793.6666666666667</ele><time>2026-04-25T10:44:58.925Z</time></trkpt><trkpt lat="37.87242" lon="14.9363467"><ele>793.3333333333333</ele><time>2026-04-25T10:44:59.925Z</time></trkpt><trkpt lat="37.87242" lon="14.9365483"><ele>793.0</ele><time>2026-04-25T10:45:00.925Z</time></trkpt><trkpt lat="37.8724317" lon="14.9367483"><ele>793.0</ele><time>2026-04-25T10:45:01.924Z</time></trkpt><trkpt lat="37.872465" lon="14.93694"><ele>793.0</ele><time>2026-04-25T10:45:02.924Z</time></trkpt><trkpt lat="37.8725117" lon="14.93713"><ele>793.0</ele><time>2026-04-25T10:45:03.925Z</time></trkpt><trkpt lat="37.8725767" lon="14.9373267"><ele>792.6666666666666</ele><time>2026-04-25T10:45:04.924Z</time></trkpt><trkpt lat="37.8726383" lon="14.9375017"><ele>792.3333333333333</ele><time>2026-04-25T10:45:05.925Z</time></trkpt><trkpt lat="37.8727233" lon="14.9376583"><ele>792.0</ele><time>2026-04-25T10:45:06.924Z</time></trkpt><trkpt lat="37.8728317" lon="14.9377967"><ele>794.6666666666667</ele><time>2026-04-25T10:45:07.924Z</time></trkpt><trkpt lat="37.87297" lon="14.9379017"><ele>797.3333333333334</ele><time>2026-04-25T10:45:08.924Z</time></trkpt><trkpt lat="37.8731217" lon="14.9379933"><ele>800.0</ele><time>2026-04-25T10:45:09.924Z</time></trkpt><trkpt lat="37.873265" lon="14.938075"><ele>800.0</ele><time>2026-04-25T10:45:10.925Z</time></trkpt><trkpt lat="37.8734017" lon="14.938165"><ele>800.0</ele><time>2026-04-25T10:45:11.925Z</time></trkpt><trkpt lat="37.8735233" lon="14.93828"><ele>800.0</ele><time>2026-04-25T10:45:12.924Z</time></trkpt><trkpt lat="37.87363" lon="14.9384233"><ele>799.6666666666667</ele><time>2026-04-25T10:45:13.925Z</time></trkpt><trkpt lat="37.873725" lon="14.9385917"><ele>799.3333333333333</ele><time>2026-04-25T10:45:14.924Z</time></trkpt><trkpt lat="37.8738067" lon="14.93876"><ele>799.0</ele><time>2026-04-25T10:45:15.925Z</time></trkpt><trkpt lat="37.87388" lon="14.938925"><ele>799.0</ele><time>2026-04-25T10:45:16.924Z</time></trkpt><trkpt lat="37.873955" lon="14.939085"><ele>799.0</ele><time>2026-04-25T10:45:17.925Z</time></trkpt><trkpt lat="37.8740133" lon="14.9392317"><ele>799.0</ele><time>2026-04-25T10:45:18.924Z</time></trkpt><trkpt lat="37.8740667" lon="14.9393717"><ele>799.0</ele><time>2026-04-25T10:45:19.925Z</time></trkpt><trkpt lat="37.87412" lon="14.9395067"><ele>800.0</ele><time>2026-04-25T10:45:20.925Z</time></trkpt><trkpt lat="37.8741717" lon="14.9396267"><ele>801.0</ele><time>2026-04-25T10:45:21.924Z</time></trkpt><trkpt lat="37.8742183" lon="14.9397383"><ele>802.0</ele><time>2026-04-25T10:45:22.925Z</time></trkpt><trkpt lat="37.8742583" lon="14.9398467"><ele>803.0</ele><time>2026-04-25T10:45:23.925Z</time></trkpt><trkpt lat="37.8742967" lon="14.939945"><ele>804.0</ele><time>2026-04-25T10:45:24.924Z</time></trkpt><trkpt lat="37.8743383" lon="14.940035"><ele>802.5714285714286</ele><time>2026-04-25T10:45:25.925Z</time></trkpt><trkpt lat="37.874375" lon="14.9401133"><ele>801.1428571428572</ele><time>2026-04-25T10:45:26.925Z</time></trkpt><trkpt lat="37.8744183" lon="14.94019"><ele>799.7142857142858</ele><time>2026-04-25T10:45:27.924Z</time></trkpt><trkpt lat="37.8744633" lon="14.9402717"><ele>798.2857142857142</ele><time>2026-04-25T10:45:28.925Z</time></trkpt><trkpt lat="37.8744983" lon="14.940355"><ele>796.8571428571429</ele><time>2026-04-25T10:45:29.924Z</time></trkpt><trkpt lat="37.8745233" lon="14.9404383"><ele>795.4285714285714</ele><time>2026-04-25T10:45:30.925Z</time></trkpt><trkpt lat="37.874545" lon="14.9405333"><ele>794.0</ele><time>2026-04-25T10:45:31.925Z</time></trkpt><trkpt lat="37.8745717" lon="14.9406633"><ele>794.0</ele><time>2026-04-25T10:45:32.925Z</time></trkpt><trkpt lat="37.8745867" lon="14.940815"><ele>794.0</ele><time>2026-04-25T10:45:33.925Z</time></trkpt><trkpt lat="37.874585" lon="14.940975"><ele>794.0</ele><time>2026-04-25T10:45:34.924Z</time></trkpt><trkpt lat="37.8745767" lon="14.941145"><ele>794.0</ele><time>2026-04-25T10:45:35.924Z</time></trkpt><trkpt lat="37.87458" lon="14.9413117"><ele>793.0</ele><time>2026-04-25T10:45:36.925Z</time></trkpt><trkpt lat="37.8745783" lon="14.94148"><ele>792.0</ele><time>2026-04-25T10:45:37.924Z</time></trkpt><trkpt lat="37.8745717" lon="14.9416333"><ele>791.0</ele><time>2026-04-25T10:45:38.925Z</time></trkpt><trkpt lat="37.8745717" lon="14.9417717"><ele>790.0</ele><time>2026-04-25T10:45:39.924Z</time></trkpt><trkpt lat="37.87456" lon="14.94191"><ele>788.2</ele><time>2026-04-25T10:45:40.924Z</time></trkpt><trkpt lat="37.8745483" lon="14.9420383"><ele>786.4</ele><time>2026-04-25T10:45:41.924Z</time></trkpt><trkpt lat="37.87453" lon="14.9421617"><ele>784.5999999999999</ele><time>2026-04-25T10:45:42.925Z</time></trkpt><trkpt lat="37.874515" lon="14.94229"><ele>782.8</ele><time>2026-04-25T10:45:43.925Z</time></trkpt><trkpt lat="37.8745033" lon="14.9424133"><ele>781.0</ele><time>2026-04-25T10:45:44.925Z</time></trkpt><trkpt lat="37.8744917" lon="14.9425333"><ele>781.4</ele><time>2026-04-25T10:45:45.924Z</time></trkpt><trkpt lat="37.8744867" lon="14.9426517"><ele>781.8</ele><time>2026-04-25T10:45:46.924Z</time></trkpt><trkpt lat="37.8745117" lon="14.942765"><ele>782.1999999999999</ele><time>2026-04-25T10:45:47.924Z</time></trkpt><trkpt lat="37.874555" lon="14.9428717"><ele>782.5999999999999</ele><time>2026-04-25T10:45:48.924Z</time></trkpt><trkpt lat="37.8746083" lon="14.9429767"><ele>783.0</ele><time>2026-04-25T10:45:49.925Z</time></trkpt><trkpt lat="37.8746667" lon="14.9430883"><ele>783.0</ele><time>2026-04-25T10:45:50.924Z</time></trkpt><trkpt lat="37.8747417" lon="14.9432067"><ele>783.0</ele><time>2026-04-25T10:45:51.925Z</time></trkpt><trkpt lat="37.87482" lon="14.943325"><ele>783.0</ele><time>2026-04-25T10:45:52.924Z</time></trkpt><trkpt lat="37.8749067" lon="14.9434417"><ele>783.0</ele><time>2026-04-25T10:45:53.925Z</time></trkpt><trkpt lat="37.874965" lon="14.9435767"><ele>783.0</ele><time>2026-04-25T10:45:54.924Z</time></trkpt><trkpt lat="37.8750267" lon="14.9437133"><ele>783.0</ele><time>2026-04-25T10:45:55.924Z</time></trkpt><trkpt lat="37.87509" lon="14.94384"><ele>783.0</ele><time>2026-04-25T10:45:56.924Z</time></trkpt><trkpt lat="37.87515" lon="14.9439733"><ele>783.0</ele><time>2026-04-25T10:45:57.924Z</time></trkpt><trkpt lat="37.87521" lon="14.9441083"><ele>783.5999999999999</ele><time>2026-04-25T10:45:58.925Z</time></trkpt><trkpt lat="37.87526" lon="14.9442383"><ele>784.1999999999999</ele><time>2026-04-25T10:45:59.924Z</time></trkpt><trkpt lat="37.8753083" lon="14.9443567"><ele>784.8</ele><time>2026-04-25T10:46:00.924Z</time></trkpt><trkpt lat="37.875355" lon="14.9444617"><ele>785.4</ele><time>2026-04-25T10:46:01.924Z</time></trkpt><trkpt lat="37.8754" lon="14.9445617"><ele>786.0</ele><time>2026-04-25T10:46:02.925Z</time></trkpt><trkpt lat="37.8754467" lon="14.9446517"><ele>786.0</ele><time>2026-04-25T10:46:03.924Z</time></trkpt><trkpt lat="37.87548" lon="14.9447367"><ele>786.0</ele><time>2026-04-25T10:46:04.924Z</time></trkpt><trkpt lat="37.8755183" lon="14.9448667"><ele>786.0</ele><time>2026-04-25T10:46:06.924Z</time></trkpt><trkpt lat="37.875465" lon="14.9449533"><ele>786.0</ele><time>2026-04-25T10:46:08.925Z</time></trkpt><trkpt lat="37.8753567" lon="14.9449367"><ele>786.0</ele><time>2026-04-25T10:46:10.925Z</time></trkpt><trkpt lat="37.8752917" lon="14.9448983"><ele>786.0</ele><time>2026-04-25T10:46:11.925Z</time></trkpt><trkpt lat="37.875215" lon="14.9448633"><ele>786.0</ele><time>2026-04-25T10:46:12.925Z</time></trkpt><trkpt lat="37.8751433" lon="14.9448367"><ele>786.0</ele><time>2026-04-25T10:46:13.925Z</time></trkpt><trkpt lat="37.8750783" lon="14.9448133"><ele>786.0</ele><time>2026-04-25T10:46:14.925Z</time></trkpt><trkpt lat="37.8750183" lon="14.9447883"><ele>786.0</ele><time>2026-04-25T10:46:15.925Z</time></trkpt><trkpt lat="37.8749183" lon="14.9447883"><ele>786.0</ele><time>2026-04-25T10:46:17.925Z</time></trkpt><trkpt lat="37.87488" lon="14.9448917"><ele>785.4</ele><time>2026-04-25T10:46:19.924Z</time></trkpt><trkpt lat="37.8748967" lon="14.944975"><ele>784.8</ele><time>2026-04-25T10:46:20.924Z</time></trkpt><trkpt lat="37.8750183" lon="14.9450683"><ele>784.1999999999999</ele><time>2026-04-25T10:46:22.924Z</time></trkpt><trkpt lat="37.87512" lon="14.94511"><ele>783.5999999999999</ele><time>2026-04-25T10:46:23.925Z</time></trkpt><trkpt lat="37.875235" lon="14.9451533"><ele>783.0</ele><time>2026-04-25T10:46:24.924Z</time></trkpt><trkpt lat="37.8753467" lon="14.9452067"><ele>781.2</ele><time>2026-04-25T10:46:25.924Z</time></trkpt><trkpt lat="37.87545" lon="14.94525"><ele>779.4</ele><time>2026-04-25T10:46:26.925Z</time></trkpt><trkpt lat="37.8755583" lon="14.9452983"><ele>777.6</ele><time>2026-04-25T10:46:27.924Z</time></trkpt><trkpt lat="37.8756667" lon="14.9453367"><ele>775.8000000000001</ele><time>2026-04-25T10:46:28.925Z</time></trkpt><trkpt lat="37.875765" lon="14.945395"><ele>774.0</ele><time>2026-04-25T10:46:29.925Z</time></trkpt><trkpt lat="37.87586" lon="14.9454633"><ele>774.0</ele><time>2026-04-25T10:46:30.924Z</time></trkpt><trkpt lat="37.8759467" lon="14.9455367"><ele>774.0</ele><time>2026-04-25T10:46:31.925Z</time></trkpt><trkpt lat="37.8760283" lon="14.9456167"><ele>774.0</ele><time>2026-04-25T10:46:32.925Z</time></trkpt><trkpt lat="37.8761" lon="14.9457017"><ele>774.0</ele><time>2026-04-25T10:46:33.924Z</time></trkpt><trkpt lat="37.8761667" lon="14.9457917"><ele>774.0</ele><time>2026-04-25T10:46:34.924Z</time></trkpt><trkpt lat="37.8762283" lon="14.9458867"><ele>772.6</ele><time>2026-04-25T10:46:35.925Z</time></trkpt><trkpt lat="37.8762967" lon="14.9459883"><ele>771.2</ele><time>2026-04-25T10:46:36.925Z</time></trkpt><trkpt lat="37.8763483" lon="14.9461117"><ele>769.8000000000001</ele><time>2026-04-25T10:46:37.925Z</time></trkpt><trkpt lat="37.87639" lon="14.946235"><ele>768.4000000000001</ele><time>2026-04-25T10:46:38.925Z</time></trkpt><trkpt lat="37.8764183" lon="14.94636"><ele>767.0</ele><time>2026-04-25T10:46:39.925Z</time></trkpt><trkpt lat="37.8764367" lon="14.9464933"><ele>767.0</ele><time>2026-04-25T10:46:40.924Z</time></trkpt><trkpt lat="37.8764667" lon="14.9466217"><ele>767.0</ele><time>2026-04-25T10:46:41.924Z</time></trkpt><trkpt lat="37.8764817" lon="14.946745"><ele>767.0</ele><time>2026-04-25T10:46:42.925Z</time></trkpt><trkpt lat="37.87648" lon="14.946855"><ele>767.0</ele><time>2026-04-25T10:46:43.924Z</time></trkpt><trkpt lat="37.8764833" lon="14.9470317"><ele>767.0</ele><time>2026-04-25T10:46:45.925Z</time></trkpt><trkpt lat="37.8764917" lon="14.9471283"><ele>766.6666666666666</ele><time>2026-04-25T10:46:46.925Z</time></trkpt><trkpt lat="37.8765117" lon="14.94722"><ele>766.3333333333333</ele><time>2026-04-25T10:46:47.925Z</time></trkpt><trkpt lat="37.8765433" lon="14.9473583"><ele>766.0</ele><time>2026-04-25T10:46:49.925Z</time></trkpt><trkpt lat="37.8765633" lon="14.9474433"><ele>765.6666666666666</ele><time>2026-04-25T10:46:55.925Z</time></trkpt><trkpt lat="37.876595" lon="14.9475433"><ele>765.3333333333334</ele><time>2026-04-25T10:46:59.924Z</time></trkpt><trkpt lat="37.8766417" lon="14.94764"><ele>765.0</ele><time>2026-04-25T10:47:01.925Z</time></trkpt><trkpt lat="37.8766933" lon="14.947745"><ele>764.5</ele><time>2026-04-25T10:47:03.925Z</time></trkpt><trkpt lat="37.876755" lon="14.94786"><ele>764.0</ele><time>2026-04-25T10:47:05.924Z</time></trkpt><trkpt lat="37.876805" lon="14.9479817"><ele>763.5</ele><time>2026-04-25T10:47:07.924Z</time></trkpt><trkpt lat="37.8768533" lon="14.9481217"><ele>763.0</ele><time>2026-04-25T10:47:09.924Z</time></trkpt><trkpt lat="37.8769083" lon="14.94826"><ele>762.6666666666667</ele><time>2026-04-25T10:47:11.924Z</time></trkpt><trkpt lat="37.8769417" lon="14.94834"><ele>762.3333333333334</ele><time>2026-04-25T10:47:12.925Z</time></trkpt><trkpt lat="37.876985" lon="14.9484267"><ele>762.0</ele><time>2026-04-25T10:47:13.924Z</time></trkpt><trkpt lat="37.8770333" lon="14.948515"><ele>761.6666666666666</ele><time>2026-04-25T10:47:14.924Z</time></trkpt><trkpt lat="37.877075" lon="14.9486067"><ele>761.3333333333333</ele><time>2026-04-25T10:47:15.924Z</time></trkpt><trkpt lat="37.87712" lon="14.9487033"><ele>761.0</ele><time>2026-04-25T10:47:16.924Z</time></trkpt><trkpt lat="37.8771667" lon="14.948805"><ele>760.8333333333333</ele><time>2026-04-25T10:47:17.924Z</time></trkpt><trkpt lat="37.8772167" lon="14.9488867"><ele>760.6666666666666</ele><time>2026-04-25T10:47:18.925Z</time></trkpt><trkpt lat="37.8772583" lon="14.9489667"><ele>760.5</ele><time>2026-04-25T10:47:19.924Z</time></trkpt><trkpt lat="37.8773033" lon="14.94905"><ele>760.3333333333334</ele><time>2026-04-25T10:47:20.924Z</time></trkpt><trkpt lat="37.8773483" lon="14.949135"><ele>760.1666666666667</ele><time>2026-04-25T10:47:21.924Z</time></trkpt><trkpt lat="37.8773917" lon="14.94922"><ele>760.0</ele><time>2026-04-25T10:47:22.925Z</time></trkpt><trkpt lat="37.8774333" lon="14.9493017"><ele>759.5</ele><time>2026-04-25T10:47:23.925Z</time></trkpt><trkpt lat="37.8774683" lon="14.94938"><ele>759.0</ele><time>2026-04-25T10:47:24.924Z</time></trkpt><trkpt lat="37.8774983" lon="14.9494517"><ele>758.5</ele><time>2026-04-25T10:47:25.924Z</time></trkpt><trkpt lat="37.8775517" lon="14.9495533"><ele>758.0</ele><time>2026-04-25T10:47:27.924Z</time></trkpt><trkpt lat="37.877585" lon="14.9496383"><ele>757.5</ele><time>2026-04-25T10:47:29.925Z</time></trkpt><trkpt lat="37.877595" lon="14.9497383"><ele>757.0</ele><time>2026-04-25T10:47:31.925Z</time></trkpt><trkpt lat="37.8776233" lon="14.9498467"><ele>757.0</ele><time>2026-04-25T10:47:33.925Z</time></trkpt><trkpt lat="37.8776617" lon="14.94995"><ele>757.0</ele><time>2026-04-25T10:47:35.924Z</time></trkpt><trkpt lat="37.87767" lon="14.950035"><ele>757.0</ele><time>2026-04-25T10:47:36.925Z</time></trkpt><trkpt lat="37.8776767" lon="14.9501233"><ele>757.0</ele><time>2026-04-25T10:47:37.924Z</time></trkpt><trkpt lat="37.8776917" lon="14.9502033"><ele>757.0</ele><time>2026-04-25T10:47:38.925Z</time></trkpt><trkpt lat="37.87772" lon="14.9502767"><ele>757.0</ele><time>2026-04-25T10:47:39.924Z</time></trkpt><trkpt lat="37.8777567" lon="14.95042"><ele>756.8333333333334</ele><time>2026-04-25T10:47:41.925Z</time></trkpt><trkpt lat="37.8777917" lon="14.9505583"><ele>756.6666666666667</ele><time>2026-04-25T10:47:43.924Z</time></trkpt><trkpt lat="37.8778233" lon="14.9506617"><ele>756.5</ele><time>2026-04-25T10:47:45.925Z</time></trkpt><trkpt lat="37.8778317" lon="14.95075"><ele>756.3333333333334</ele><time>2026-04-25T10:47:47.924Z</time></trkpt><trkpt lat="37.8778517" lon="14.9508617"><ele>756.1666666666666</ele><time>2026-04-25T10:47:49.924Z</time></trkpt><trkpt lat="37.877895" lon="14.9509517"><ele>756.0</ele><time>2026-04-25T10:47:51.924Z</time></trkpt><trkpt lat="37.8779883" lon="14.9510567"><ele>755.1999999999999</ele><time>2026-04-25T10:47:53.924Z</time></trkpt><trkpt lat="37.8780483" lon="14.9511167"><ele>754.4</ele><time>2026-04-25T10:47:54.924Z</time></trkpt><trkpt lat="37.8781217" lon="14.9511967"><ele>753.6</ele><time>2026-04-25T10:47:55.924Z</time></trkpt><trkpt lat="37.878205" lon="14.9513083"><ele>752.8</ele><time>2026-04-25T10:47:56.925Z</time></trkpt><trkpt lat="37.8782983" lon="14.95144"><ele>752.0</ele><time>2026-04-25T10:47:57.924Z</time></trkpt><trkpt lat="37.87839" lon="14.951575"><ele>752.25</ele><time>2026-04-25T10:47:58.924Z</time></trkpt><trkpt lat="37.878485" lon="14.9516983"><ele>752.5</ele><time>2026-04-25T10:47:59.924Z</time></trkpt><trkpt lat="37.8785783" lon="14.95182"><ele>752.75</ele><time>2026-04-25T10:48:00.924Z</time></trkpt><trkpt lat="37.8786783" lon="14.9519383"><ele>753.0</ele><time>2026-04-25T10:48:01.924Z</time></trkpt><trkpt lat="37.8787817" lon="14.9520383"><ele>751.5</ele><time>2026-04-25T10:48:02.924Z</time></trkpt><trkpt lat="37.878875" lon="14.9521367"><ele>750.0</ele><time>2026-04-25T10:48:03.924Z</time></trkpt><trkpt lat="37.87897" lon="14.9522233"><ele>748.5</ele><time>2026-04-25T10:48:04.925Z</time></trkpt><trkpt lat="37.87906" lon="14.9523383"><ele>747.0</ele><time>2026-04-25T10:48:05.925Z</time></trkpt><trkpt lat="37.879155" lon="14.9524483"><ele>746.6</ele><time>2026-04-25T10:48:06.925Z</time></trkpt><trkpt lat="37.87924" lon="14.9525683"><ele>746.2</ele><time>2026-04-25T10:48:07.925Z</time></trkpt><trkpt lat="37.8793183" lon="14.9526533"><ele>745.8</ele><time>2026-04-25T10:48:08.925Z</time></trkpt><trkpt lat="37.879395" lon="14.9527233"><ele>745.4</ele><time>2026-04-25T10:48:09.925Z</time></trkpt><trkpt lat="37.8794667" lon="14.9528"><ele>745.0</ele><time>2026-04-25T10:48:10.925Z</time></trkpt><trkpt lat="37.87954" lon="14.9528783"><ele>744.5</ele><time>2026-04-25T10:48:11.924Z</time></trkpt><trkpt lat="37.8796083" lon="14.95295"><ele>744.0</ele><time>2026-04-25T10:48:12.924Z</time></trkpt><trkpt lat="37.8796733" lon="14.9530217"><ele>743.5</ele><time>2026-04-25T10:48:13.925Z</time></trkpt><trkpt lat="37.879735" lon="14.9530983"><ele>743.0</ele><time>2026-04-25T10:48:14.924Z</time></trkpt><trkpt lat="37.8797967" lon="14.9531683"><ele>742.5</ele><time>2026-04-25T10:48:15.925Z</time></trkpt><trkpt lat="37.87985" lon="14.9532317"><ele>742.0</ele><time>2026-04-25T10:48:16.924Z</time></trkpt><trkpt lat="37.8798983" lon="14.9532833"><ele>742.0</ele><time>2026-04-25T10:48:17.925Z</time></trkpt><trkpt lat="37.8800233" lon="14.953325"><ele>742.0</ele><time>2026-04-25T10:48:19.925Z</time></trkpt><trkpt lat="37.8801067" lon="14.9533083"><ele>742.0</ele><time>2026-04-25T10:48:20.925Z</time></trkpt><trkpt lat="37.8801883" lon="14.9532683"><ele>742.0</ele><time>2026-04-25T10:48:21.925Z</time></trkpt><trkpt lat="37.88027" lon="14.9532217"><ele>742.0</ele><time>2026-04-25T10:48:22.924Z</time></trkpt><trkpt lat="37.8803583" lon="14.953165"><ele>740.8333333333334</ele><time>2026-04-25T10:48:23.924Z</time></trkpt><trkpt lat="37.880425" lon="14.953115"><ele>739.6666666666667</ele><time>2026-04-25T10:48:24.925Z</time></trkpt><trkpt lat="37.880505" lon="14.9530667"><ele>738.5</ele><time>2026-04-25T10:48:25.925Z</time></trkpt><trkpt lat="37.8805783" lon="14.953"><ele>737.3333333333334</ele><time>2026-04-25T10:48:26.924Z</time></trkpt><trkpt lat="37.88064" lon="14.952925"><ele>736.1666666666666</ele><time>2026-04-25T10:48:27.924Z</time></trkpt><trkpt lat="37.8806933" lon="14.95284"><ele>735.0</ele><time>2026-04-25T10:48:28.923Z</time></trkpt><trkpt lat="37.8807233" lon="14.9527483"><ele>735.0</ele><time>2026-04-25T10:48:29.924Z</time></trkpt><trkpt lat="37.8807333" lon="14.9526683"><ele>735.0</ele><time>2026-04-25T10:48:30.924Z</time></trkpt><trkpt lat="37.8807217" lon="14.9525783"><ele>735.0</ele><time>2026-04-25T10:48:32.923Z</time></trkpt><trkpt lat="37.8806983" lon="14.9524183"><ele>735.0</ele><time>2026-04-25T10:50:57.924Z</time></trkpt><trkpt lat="37.8806983" lon="14.9523033"><ele>735.0</ele><time>2026-04-25T10:50:58.923Z</time></trkpt><trkpt lat="37.88071" lon="14.9521767"><ele>734.75</ele><time>2026-04-25T10:50:59.924Z</time></trkpt><trkpt lat="37.880735" lon="14.9520383"><ele>734.5</ele><time>2026-04-25T10:51:00.924Z</time></trkpt><trkpt lat="37.880775" lon="14.95189"><ele>734.25</ele><time>2026-04-25T10:51:01.924Z</time></trkpt><trkpt lat="37.8808267" lon="14.9517233"><ele>734.0</ele><time>2026-04-25T10:51:02.924Z</time></trkpt><trkpt lat="37.880885" lon="14.9515583"><ele>726.6666666666666</ele><time>2026-04-25T10:51:03.924Z</time></trkpt><trkpt lat="37.8809483" lon="14.951385"><ele>719.3333333333334</ele><time>2026-04-25T10:51:04.924Z</time></trkpt><trkpt lat="37.8810117" lon="14.9511983"><ele>712.0</ele><time>2026-04-25T10:51:05.924Z</time></trkpt><trkpt lat="37.8810817" lon="14.9510117"><ele>714.6666666666667</ele><time>2026-04-25T10:51:06.924Z</time></trkpt><trkpt lat="37.8811517" lon="14.95083"><ele>717.3333333333334</ele><time>2026-04-25T10:51:07.924Z</time></trkpt><trkpt lat="37.8812133" lon="14.9506533"><ele>720.0</ele><time>2026-04-25T10:51:08.924Z</time></trkpt><trkpt lat="37.8812683" lon="14.9504883"><ele>720.0</ele><time>2026-04-25T10:51:09.923Z</time></trkpt><trkpt lat="37.8813133" lon="14.9503267"><ele>720.0</ele><time>2026-04-25T10:51:10.923Z</time></trkpt><trkpt lat="37.8813367" lon="14.9501733"><ele>720.0</ele><time>2026-04-25T10:51:11.924Z</time></trkpt><trkpt lat="37.8813317" lon="14.9500233"><ele>720.0</ele><time>2026-04-25T10:51:12.924Z</time></trkpt><trkpt lat="37.8813033" lon="14.9498917"><ele>724.5</ele><time>2026-04-25T10:51:13.924Z</time></trkpt><trkpt lat="37.881255" lon="14.94977"><ele>729.0</ele><time>2026-04-25T10:51:14.924Z</time></trkpt><trkpt lat="37.8811867" lon="14.949645"><ele>733.5</ele><time>2026-04-25T10:51:15.923Z</time></trkpt><trkpt lat="37.8811217" lon="14.9495217"><ele>738.0</ele><time>2026-04-25T10:51:16.924Z</time></trkpt><trkpt lat="37.8810617" lon="14.9494017"><ele>738.0</ele><time>2026-04-25T10:51:17.924Z</time></trkpt><trkpt lat="37.88102" lon="14.9493067"><ele>738.0</ele><time>2026-04-25T10:51:18.923Z</time></trkpt><trkpt lat="37.8810167" lon="14.9492183"><ele>738.0</ele><time>2026-04-25T10:51:19.924Z</time></trkpt><trkpt lat="37.8811183" lon="14.9491283"><ele>738.0</ele><time>2026-04-25T10:51:21.923Z</time></trkpt><trkpt lat="37.8811817" lon="14.9491533"><ele>738.0</ele><time>2026-04-25T10:51:22.924Z</time></trkpt><trkpt lat="37.8812517" lon="14.949225"><ele>738.0</ele><time>2026-04-25T10:51:23.923Z</time></trkpt><trkpt lat="37.88132" lon="14.9493433"><ele>738.0</ele><time>2026-04-25T10:51:24.923Z</time></trkpt><trkpt lat="37.881385" lon="14.9494833"><ele>738.0</ele><time>2026-04-25T10:51:25.924Z</time></trkpt><trkpt lat="37.8814617" lon="14.9496333"><ele>738.0</ele><time>2026-04-25T10:51:26.924Z</time></trkpt><trkpt lat="37.88154" lon="14.94977"><ele>738.0</ele><time>2026-04-25T10:51:27.923Z</time></trkpt><trkpt lat="37.881615" lon="14.949895"><ele>738.0</ele><time>2026-04-25T10:51:28.924Z</time></trkpt><trkpt lat="37.8816883" lon="14.9500083"><ele>738.0</ele><time>2026-04-25T10:51:29.924Z</time></trkpt><trkpt lat="37.8817683" lon="14.950105"><ele>738.0</ele><time>2026-04-25T10:51:30.923Z</time></trkpt><trkpt lat="37.881845" lon="14.9501617"><ele>738.0</ele><time>2026-04-25T10:51:31.923Z</time></trkpt><trkpt lat="37.881915" lon="14.9501833"><ele>738.0</ele><time>2026-04-25T10:51:32.924Z</time></trkpt><trkpt lat="37.8819817" lon="14.9501417"><ele>737.4</ele><time>2026-04-25T10:51:33.924Z</time></trkpt><trkpt lat="37.88203" lon="14.9500767"><ele>736.8</ele><time>2026-04-25T10:51:34.924Z</time></trkpt><trkpt lat="37.8820517" lon="14.9499683"><ele>736.2</ele><time>2026-04-25T10:51:35.924Z</time></trkpt><trkpt lat="37.8820283" lon="14.9498167"><ele>735.6</ele><time>2026-04-25T10:51:36.924Z</time></trkpt><trkpt lat="37.8819833" lon="14.9496583"><ele>735.0</ele><time>2026-04-25T10:51:37.924Z</time></trkpt><trkpt lat="37.8819233" lon="14.9495"><ele>737.75</ele><time>2026-04-25T10:51:38.923Z</time></trkpt><trkpt lat="37.8818633" lon="14.9493517"><ele>740.5</ele><time>2026-04-25T10:51:39.923Z</time></trkpt><trkpt lat="37.8818067" lon="14.9492083"><ele>743.25</ele><time>2026-04-25T10:51:40.923Z</time></trkpt><trkpt lat="37.8817617" lon="14.9490583"><ele>746.0</ele><time>2026-04-25T10:51:41.923Z</time></trkpt><trkpt lat="37.88172" lon="14.948925"><ele>746.0</ele><time>2026-04-25T10:51:42.923Z</time></trkpt><trkpt lat="37.88169" lon="14.9488083"><ele>746.0</ele><time>2026-04-25T10:51:43.923Z</time></trkpt><trkpt lat="37.8816967" lon="14.9487117"><ele>746.0</ele><time>2026-04-25T10:51:44.924Z</time></trkpt><trkpt lat="37.8817333" lon="14.948645"><ele>746.0</ele><time>2026-04-25T10:51:45.923Z</time></trkpt><trkpt lat="37.881835" lon="14.94865"><ele>746.0</ele><time>2026-04-25T10:51:47.924Z</time></trkpt><trkpt lat="37.8818967" lon="14.9487283"><ele>746.0</ele><time>2026-04-25T10:51:48.923Z</time></trkpt><trkpt lat="37.8819667" lon="14.9488483"><ele>748.5</ele><time>2026-04-25T10:51:49.923Z</time></trkpt><trkpt lat="37.88204" lon="14.9489633"><ele>751.0</ele><time>2026-04-25T10:51:50.923Z</time></trkpt><trkpt lat="37.882115" lon="14.9490617"><ele>753.5</ele><time>2026-04-25T10:51:51.924Z</time></trkpt><trkpt lat="37.8822067" lon="14.9491583"><ele>756.0</ele><time>2026-04-25T10:51:52.923Z</time></trkpt><trkpt lat="37.8822983" lon="14.9492583"><ele>756.0</ele><time>2026-04-25T10:51:53.924Z</time></trkpt><trkpt lat="37.88237" lon="14.94938"><ele>756.0</ele><time>2026-04-25T10:51:54.923Z</time></trkpt><trkpt lat="37.8824133" lon="14.9495167"><ele>756.0</ele><time>2026-04-25T10:51:55.924Z</time></trkpt><trkpt lat="37.8824367" lon="14.9496617"><ele>756.0</ele><time>2026-04-25T10:51:56.924Z</time></trkpt><trkpt lat="37.8824483" lon="14.9498083"><ele>756.0</ele><time>2026-04-25T10:51:57.924Z</time></trkpt><trkpt lat="37.8824683" lon="14.9499483"><ele>756.0</ele><time>2026-04-25T10:51:58.923Z</time></trkpt><trkpt lat="37.8825083" lon="14.9500867"><ele>756.0</ele><time>2026-04-25T10:51:59.923Z</time></trkpt><trkpt lat="37.8825617" lon="14.9502033"><ele>756.0</ele><time>2026-04-25T10:52:00.924Z</time></trkpt><trkpt lat="37.8826417" lon="14.9502933"><ele>756.0</ele><time>2026-04-25T10:52:01.924Z</time></trkpt><trkpt lat="37.8827583" lon="14.9503417"><ele>758.5</ele><time>2026-04-25T10:52:02.924Z</time></trkpt><trkpt lat="37.8828933" lon="14.9503783"><ele>761.0</ele><time>2026-04-25T10:52:03.923Z</time></trkpt><trkpt lat="37.8830267" lon="14.9504433"><ele>763.5</ele><time>2026-04-25T10:52:04.924Z</time></trkpt><trkpt lat="37.8831367" lon="14.9505367"><ele>766.0</ele><time>2026-04-25T10:52:05.924Z</time></trkpt><trkpt lat="37.88322" lon="14.9506417"><ele>766.0</ele><time>2026-04-25T10:52:06.923Z</time></trkpt><trkpt lat="37.8832833" lon="14.950765"><ele>766.0</ele><time>2026-04-25T10:52:07.924Z</time></trkpt><trkpt lat="37.88332" lon="14.9509"><ele>766.0</ele><time>2026-04-25T10:52:08.924Z</time></trkpt><trkpt lat="37.88336" lon="14.95103"><ele>766.0</ele><time>2026-04-25T10:52:09.924Z</time></trkpt><trkpt lat="37.88343" lon="14.9511467"><ele>768.25</ele><time>2026-04-25T10:52:10.924Z</time></trkpt><trkpt lat="37.883515" lon="14.9512417"><ele>770.5</ele><time>2026-04-25T10:52:11.924Z</time></trkpt><trkpt lat="37.8836133" lon="14.9513367"><ele>772.75</ele><time>2026-04-25T10:52:12.923Z</time></trkpt><trkpt lat="37.8837117" lon="14.9514317"><ele>775.0</ele><time>2026-04-25T10:52:13.924Z</time></trkpt><trkpt lat="37.8838083" lon="14.95152"><ele>775.0</ele><time>2026-04-25T10:52:14.924Z</time></trkpt><trkpt lat="37.883905" lon="14.9515833"><ele>775.0</ele><time>2026-04-25T10:52:15.923Z</time></trkpt><trkpt lat="37.8840017" lon="14.9516283"><ele>775.0</ele><time>2026-04-25T10:52:16.923Z</time></trkpt><trkpt lat="37.8840933" lon="14.95166"><ele>775.0</ele><time>2026-04-25T10:52:17.923Z</time></trkpt><trkpt lat="37.8841683" lon="14.9516467"><ele>775.0</ele><time>2026-04-25T10:52:18.923Z</time></trkpt><trkpt lat="37.8842383" lon="14.9515183"><ele>775.0</ele><time>2026-04-25T10:52:20.923Z</time></trkpt><trkpt lat="37.88418" lon="14.9513717"><ele>775.0</ele><time>2026-04-25T10:52:22.924Z</time></trkpt><trkpt lat="37.8841117" lon="14.95133"><ele>775.0</ele><time>2026-04-25T10:52:23.923Z</time></trkpt><trkpt lat="37.8840183" lon="14.9513383"><ele>775.0</ele><time>2026-04-25T10:52:24.923Z</time></trkpt><trkpt lat="37.88392" lon="14.951335"><ele>775.0</ele><time>2026-04-25T10:52:25.924Z</time></trkpt><trkpt lat="37.8838317" lon="14.9512967"><ele>775.0</ele><time>2026-04-25T10:52:26.924Z</time></trkpt><trkpt lat="37.8837517" lon="14.951235"><ele>775.0</ele><time>2026-04-25T10:52:27.924Z</time></trkpt><trkpt lat="37.8836767" lon="14.95114"><ele>775.0</ele><time>2026-04-25T10:52:28.923Z</time></trkpt><trkpt lat="37.8836017" lon="14.95104"><ele>775.0</ele><time>2026-04-25T10:52:29.923Z</time></trkpt><trkpt lat="37.8835583" lon="14.9509417"><ele>775.0</ele><time>2026-04-25T10:52:30.924Z</time></trkpt><trkpt lat="37.8835383" lon="14.9508467"><ele>773.2</ele><time>2026-04-25T10:52:31.924Z</time></trkpt><trkpt lat="37.8835383" lon="14.95073"><ele>771.4</ele><time>2026-04-25T10:52:32.924Z</time></trkpt><trkpt lat="37.8835367" lon="14.950605"><ele>769.5999999999999</ele><time>2026-04-25T10:52:33.923Z</time></trkpt><trkpt lat="37.883515" lon="14.9504783"><ele>767.8</ele><time>2026-04-25T10:52:34.924Z</time></trkpt><trkpt lat="37.8834767" lon="14.9503567"><ele>766.0</ele><time>2026-04-25T10:52:35.924Z</time></trkpt><trkpt lat="37.8834167" lon="14.95023"><ele>766.0</ele><time>2026-04-25T10:52:36.924Z</time></trkpt><trkpt lat="37.8833617" lon="14.950095"><ele>766.0</ele><time>2026-04-25T10:52:37.923Z</time></trkpt><trkpt lat="37.883315" lon="14.9499633"><ele>766.0</ele><time>2026-04-25T10:52:38.923Z</time></trkpt><trkpt lat="37.8832683" lon="14.949825"><ele>766.0</ele><time>2026-04-25T10:52:39.923Z</time></trkpt><trkpt lat="37.8832317" lon="14.9496867"><ele>770.25</ele><time>2026-04-25T10:52:40.923Z</time></trkpt><trkpt lat="37.8832067" lon="14.9495317"><ele>774.5</ele><time>2026-04-25T10:52:41.924Z</time></trkpt><trkpt lat="37.88321" lon="14.9493817"><ele>778.75</ele><time>2026-04-25T10:52:42.924Z</time></trkpt><trkpt lat="37.88323" lon="14.94922"><ele>783.0</ele><time>2026-04-25T10:52:43.923Z</time></trkpt><trkpt lat="37.8832667" lon="14.9490567"><ele>784.2</ele><time>2026-04-25T10:52:44.924Z</time></trkpt><trkpt lat="37.8833083" lon="14.9489017"><ele>785.4</ele><time>2026-04-25T10:52:45.924Z</time></trkpt><trkpt lat="37.8833533" lon="14.94877"><ele>786.6</ele><time>2026-04-25T10:52:46.924Z</time></trkpt><trkpt lat="37.8833767" lon="14.9486367"><ele>787.8000000000001</ele><time>2026-04-25T10:52:47.923Z</time></trkpt><trkpt lat="37.883375" lon="14.9485117"><ele>789.0</ele><time>2026-04-25T10:52:48.924Z</time></trkpt><trkpt lat="37.8833783" lon="14.9484"><ele>789.6</ele><time>2026-04-25T10:52:49.923Z</time></trkpt><trkpt lat="37.883405" lon="14.9483183"><ele>790.2</ele><time>2026-04-25T10:52:50.923Z</time></trkpt><trkpt lat="37.8834933" lon="14.9482517"><ele>790.8000000000001</ele><time>2026-04-25T10:52:52.924Z</time></trkpt><trkpt lat="37.8835633" lon="14.9483667"><ele>791.4000000000001</ele><time>2026-04-25T10:52:54.923Z</time></trkpt><trkpt lat="37.8835567" lon="14.9484983"><ele>792.0</ele><time>2026-04-25T10:52:55.924Z</time></trkpt><trkpt lat="37.883535" lon="14.9486233"><ele>795.4000000000001</ele><time>2026-04-25T10:52:56.924Z</time></trkpt><trkpt lat="37.8835083" lon="14.94875"><ele>798.8000000000001</ele><time>2026-04-25T10:52:57.924Z</time></trkpt><trkpt lat="37.883485" lon="14.9488817"><ele>802.2</ele><time>2026-04-25T10:52:58.923Z</time></trkpt><trkpt lat="37.88347" lon="14.949005"><ele>805.6</ele><time>2026-04-25T10:52:59.924Z</time></trkpt><trkpt lat="37.8834517" lon="14.9491483"><ele>809.0</ele><time>2026-04-25T10:53:00.923Z</time></trkpt><trkpt lat="37.88344" lon="14.9492983"><ele>809.0</ele><time>2026-04-25T10:53:01.924Z</time></trkpt><trkpt lat="37.88345" lon="14.9494583"><ele>809.0</ele><time>2026-04-25T10:53:02.924Z</time></trkpt><trkpt lat="37.88348" lon="14.9496133"><ele>809.0</ele><time>2026-04-25T10:53:03.923Z</time></trkpt><trkpt lat="37.883535" lon="14.9497667"><ele>809.0</ele><time>2026-04-25T10:53:04.924Z</time></trkpt><trkpt lat="37.8836033" lon="14.9499033"><ele>809.0</ele><time>2026-04-25T10:53:05.924Z</time></trkpt><trkpt lat="37.8836967" lon="14.9500383"><ele>809.0</ele><time>2026-04-25T10:53:06.924Z</time></trkpt><trkpt lat="37.8837967" lon="14.95014"><ele>809.0</ele><time>2026-04-25T10:53:07.923Z</time></trkpt><trkpt lat="37.8839017" lon="14.9502333"><ele>809.0</ele><time>2026-04-25T10:53:08.924Z</time></trkpt><trkpt lat="37.8840183" lon="14.9503083"><ele>808.0</ele><time>2026-04-25T10:53:09.924Z</time></trkpt><trkpt lat="37.884145" lon="14.9503683"><ele>807.0</ele><time>2026-04-25T10:53:10.923Z</time></trkpt><trkpt lat="37.884275" lon="14.95041"><ele>806.0</ele><time>2026-04-25T10:53:11.923Z</time></trkpt><trkpt lat="37.8844067" lon="14.950445"><ele>805.0</ele><time>2026-04-25T10:53:12.923Z</time></trkpt><trkpt lat="37.884545" lon="14.9504783"><ele>805.0</ele><time>2026-04-25T10:53:13.923Z</time></trkpt><trkpt lat="37.8846817" lon="14.9505217"><ele>805.0</ele><time>2026-04-25T10:53:14.923Z</time></trkpt><trkpt lat="37.8848133" lon="14.95056"><ele>805.0</ele><time>2026-04-25T10:53:15.924Z</time></trkpt><trkpt lat="37.88494" lon="14.9505933"><ele>805.0</ele><time>2026-04-25T10:53:16.924Z</time></trkpt><trkpt lat="37.8850783" lon="14.9506383"><ele>808.0</ele><time>2026-04-25T10:53:17.924Z</time></trkpt><trkpt lat="37.8852033" lon="14.9506933"><ele>811.0</ele><time>2026-04-25T10:53:18.923Z</time></trkpt><trkpt lat="37.885315" lon="14.9507633"><ele>814.0</ele><time>2026-04-25T10:53:19.923Z</time></trkpt><trkpt lat="37.8854183" lon="14.9508617"><ele>817.0</ele><time>2026-04-25T10:53:20.924Z</time></trkpt><trkpt lat="37.8854983" lon="14.95097"><ele>817.0</ele><time>2026-04-25T10:53:21.923Z</time></trkpt><trkpt lat="37.8855783" lon="14.9511183"><ele>817.0</ele><time>2026-04-25T10:53:22.924Z</time></trkpt><trkpt lat="37.88564" lon="14.9512683"><ele>817.0</ele><time>2026-04-25T10:53:23.924Z</time></trkpt><trkpt lat="37.8856783" lon="14.9514333"><ele>817.0</ele><time>2026-04-25T10:53:24.924Z</time></trkpt><trkpt lat="37.8857283" lon="14.9516067"><ele>815.75</ele><time>2026-04-25T10:53:25.924Z</time></trkpt><trkpt lat="37.8858033" lon="14.9517767"><ele>814.5</ele><time>2026-04-25T10:53:26.924Z</time></trkpt><trkpt lat="37.8858967" lon="14.9519233"><ele>813.25</ele><time>2026-04-25T10:53:27.924Z</time></trkpt><trkpt lat="37.8860033" lon="14.952045"><ele>812.0</ele><time>2026-04-25T10:53:28.924Z</time></trkpt><trkpt lat="37.88611" lon="14.9521483"><ele>815.6</ele><time>2026-04-25T10:53:29.923Z</time></trkpt><trkpt lat="37.886205" lon="14.9522333"><ele>819.2</ele><time>2026-04-25T10:53:30.924Z</time></trkpt><trkpt lat="37.8862767" lon="14.952325"><ele>822.8</ele><time>2026-04-25T10:53:31.923Z</time></trkpt><trkpt lat="37.886315" lon="14.9524317"><ele>826.4</ele><time>2026-04-25T10:53:32.924Z</time></trkpt><trkpt lat="37.88632" lon="14.9525567"><ele>830.0</ele><time>2026-04-25T10:53:33.924Z</time></trkpt><trkpt lat="37.8863033" lon="14.95269"><ele>830.0</ele><time>2026-04-25T10:53:34.924Z</time></trkpt><trkpt lat="37.8862817" lon="14.9528217"><ele>830.0</ele><time>2026-04-25T10:53:35.924Z</time></trkpt><trkpt lat="37.8862617" lon="14.9529567"><ele>830.0</ele><time>2026-04-25T10:53:36.923Z</time></trkpt><trkpt lat="37.886255" lon="14.9530833"><ele>830.0</ele><time>2026-04-25T10:53:37.923Z</time></trkpt><trkpt lat="37.8862517" lon="14.9532217"><ele>830.0</ele><time>2026-04-25T10:53:38.924Z</time></trkpt><trkpt lat="37.8862683" lon="14.95336"><ele>828.5</ele><time>2026-04-25T10:53:39.923Z</time></trkpt><trkpt lat="37.8863083" lon="14.9534933"><ele>827.0</ele><time>2026-04-25T10:53:40.924Z</time></trkpt><trkpt lat="37.88637" lon="14.9536183"><ele>825.5</ele><time>2026-04-25T10:53:41.924Z</time></trkpt><trkpt lat="37.8864633" lon="14.95373"><ele>824.0</ele><time>2026-04-25T10:53:42.924Z</time></trkpt><trkpt lat="37.8865683" lon="14.95383"><ele>824.0</ele><time>2026-04-25T10:53:43.923Z</time></trkpt><trkpt lat="37.8866833" lon="14.9539233"><ele>824.0</ele><time>2026-04-25T10:53:44.923Z</time></trkpt><trkpt lat="37.8868033" lon="14.95402"><ele>824.0</ele><time>2026-04-25T10:53:45.924Z</time></trkpt><trkpt lat="37.886925" lon="14.9541167"><ele>824.0</ele><time>2026-04-25T10:53:46.923Z</time></trkpt><trkpt lat="37.8870517" lon="14.9542117"><ele>826.6666666666667</ele><time>2026-04-25T10:53:47.924Z</time></trkpt><trkpt lat="37.88718" lon="14.9543167"><ele>829.3333333333333</ele><time>2026-04-25T10:53:48.924Z</time></trkpt><trkpt lat="37.8873133" lon="14.9544217"><ele>832.0</ele><time>2026-04-25T10:53:49.924Z</time></trkpt><trkpt lat="37.8874467" lon="14.9545233"><ele>832.0</ele><time>2026-04-25T10:53:50.924Z</time></trkpt><trkpt lat="37.887585" lon="14.9546183"><ele>832.0</ele><time>2026-04-25T10:53:51.923Z</time></trkpt><trkpt lat="37.88772" lon="14.954715"><ele>832.0</ele><time>2026-04-25T10:53:52.924Z</time></trkpt><trkpt lat="37.88786" lon="14.9548117"><ele>831.75</ele><time>2026-04-25T10:53:53.924Z</time></trkpt><trkpt lat="37.887995" lon="14.954905"><ele>831.5</ele><time>2026-04-25T10:53:54.923Z</time></trkpt><trkpt lat="37.8881267" lon="14.9549933"><ele>831.25</ele><time>2026-04-25T10:53:55.923Z</time></trkpt><trkpt lat="37.8882533" lon="14.9550633"><ele>831.0</ele><time>2026-04-25T10:53:56.924Z</time></trkpt><trkpt lat="37.88839" lon="14.955115"><ele>832.0</ele><time>2026-04-25T10:53:57.924Z</time></trkpt><trkpt lat="37.8885333" lon="14.955145"><ele>833.0</ele><time>2026-04-25T10:53:58.924Z</time></trkpt><trkpt lat="37.888685" lon="14.9551717"><ele>834.0</ele><time>2026-04-25T10:53:59.924Z</time></trkpt><trkpt lat="37.88884" lon="14.9552"><ele>834.0</ele><time>2026-04-25T10:54:00.923Z</time></trkpt><trkpt lat="37.8890033" lon="14.9552317"><ele>834.0</ele><time>2026-04-25T10:54:01.924Z</time></trkpt><trkpt lat="37.8891683" lon="14.95526"><ele>834.0</ele><time>2026-04-25T10:54:02.923Z</time></trkpt><trkpt lat="37.889335" lon="14.95528"><ele>834.6666666666667</ele><time>2026-04-25T10:54:03.924Z</time></trkpt><trkpt lat="37.889495" lon="14.9553033"><ele>835.3333333333334</ele><time>2026-04-25T10:54:04.923Z</time></trkpt><trkpt lat="37.88965" lon="14.9553233"><ele>836.0</ele><time>2026-04-25T10:54:05.924Z</time></trkpt><trkpt lat="37.88981" lon="14.9553317"><ele>836.0</ele><time>2026-04-25T10:54:06.924Z</time></trkpt><trkpt lat="37.8899733" lon="14.9553233"><ele>836.0</ele><time>2026-04-25T10:54:07.923Z</time></trkpt><trkpt lat="37.8901333" lon="14.9553033"><ele>836.0</ele><time>2026-04-25T10:54:08.923Z</time></trkpt><trkpt lat="37.8902917" lon="14.9552867"><ele>838.75</ele><time>2026-04-25T10:54:09.923Z</time></trkpt><trkpt lat="37.8904383" lon="14.9552633"><ele>841.5</ele><time>2026-04-25T10:54:10.923Z</time></trkpt><trkpt lat="37.890575" lon="14.955265"><ele>844.25</ele><time>2026-04-25T10:54:11.923Z</time></trkpt><trkpt lat="37.890705" lon="14.955285"><ele>847.0</ele><time>2026-04-25T10:54:12.923Z</time></trkpt><trkpt lat="37.8908333" lon="14.955345"><ele>851.0</ele><time>2026-04-25T10:54:13.923Z</time></trkpt><trkpt lat="37.8909533" lon="14.9554383"><ele>855.0</ele><time>2026-04-25T10:54:14.924Z</time></trkpt><trkpt lat="37.89107" lon="14.9555367"><ele>859.0</ele><time>2026-04-25T10:54:15.923Z</time></trkpt><trkpt lat="37.891195" lon="14.9556133"><ele>863.0</ele><time>2026-04-25T10:54:16.923Z</time></trkpt><trkpt lat="37.89132" lon="14.955685"><ele>863.0</ele><time>2026-04-25T10:54:17.924Z</time></trkpt><trkpt lat="37.891455" lon="14.9557333"><ele>863.0</ele><time>2026-04-25T10:54:18.924Z</time></trkpt><trkpt lat="37.8915967" lon="14.95576"><ele>863.0</ele><time>2026-04-25T10:54:19.924Z</time></trkpt><trkpt lat="37.8917383" lon="14.9557683"><ele>863.0</ele><time>2026-04-25T10:54:20.924Z</time></trkpt><trkpt lat="37.8918783" lon="14.9557517"><ele>863.6666666666667</ele><time>2026-04-25T10:54:21.923Z</time></trkpt><trkpt lat="37.8920167" lon="14.9556967"><ele>864.3333333333333</ele><time>2026-04-25T10:54:22.924Z</time></trkpt><trkpt lat="37.8921517" lon="14.95561"><ele>865.0</ele><time>2026-04-25T10:54:23.924Z</time></trkpt><trkpt lat="37.8922883" lon="14.9555117"><ele>865.0</ele><time>2026-04-25T10:54:24.924Z</time></trkpt><trkpt lat="37.8924233" lon="14.95541"><ele>865.0</ele><time>2026-04-25T10:54:25.924Z</time></trkpt><trkpt lat="37.8925583" lon="14.9553083"><ele>865.0</ele><time>2026-04-25T10:54:26.923Z</time></trkpt><trkpt lat="37.8926917" lon="14.9552167"><ele>864.25</ele><time>2026-04-25T10:54:27.924Z</time></trkpt><trkpt lat="37.892815" lon="14.9551483"><ele>863.5</ele><time>2026-04-25T10:54:28.924Z</time></trkpt><trkpt lat="37.892935" lon="14.95511"><ele>862.75</ele><time>2026-04-25T10:54:29.923Z</time></trkpt><trkpt lat="37.8930567" lon="14.9551083"><ele>862.0</ele><time>2026-04-25T10:54:30.923Z</time></trkpt><trkpt lat="37.8931733" lon="14.9551367"><ele>861.9999999999999</ele><time>2026-04-25T10:54:31.923Z</time></trkpt><trkpt lat="37.8932833" lon="14.9551767"><ele>862.0</ele><time>2026-04-25T10:54:32.923Z</time></trkpt><trkpt lat="37.8933767" lon="14.9552017"><ele>862.0</ele><time>2026-04-25T10:54:33.924Z</time></trkpt><trkpt lat="37.8934567" lon="14.955185"><ele>862.0</ele><time>2026-04-25T10:54:34.924Z</time></trkpt><trkpt lat="37.8935233" lon="14.9551433"><ele>861.9999999999999</ele><time>2026-04-25T10:54:35.924Z</time></trkpt><trkpt lat="37.8935683" lon="14.955065"><ele>862.0</ele><time>2026-04-25T10:54:36.924Z</time></trkpt><trkpt lat="37.89359" lon="14.9549633"><ele>865.8</ele><time>2026-04-25T10:54:37.923Z</time></trkpt><trkpt lat="37.8935767" lon="14.9548633"><ele>869.6</ele><time>2026-04-25T10:54:38.924Z</time></trkpt><trkpt lat="37.89354" lon="14.9547733"><ele>873.3999999999999</ele><time>2026-04-25T10:54:39.924Z</time></trkpt><trkpt lat="37.8934567" lon="14.9546983"><ele>877.1999999999999</ele><time>2026-04-25T10:54:40.923Z</time></trkpt><trkpt lat="37.8933433" lon="14.9546517"><ele>881.0</ele><time>2026-04-25T10:54:41.924Z</time></trkpt><trkpt lat="37.893225" lon="14.954615"><ele>881.25</ele><time>2026-04-25T10:54:42.923Z</time></trkpt><trkpt lat="37.89312" lon="14.954545"><ele>881.5</ele><time>2026-04-25T10:54:43.923Z</time></trkpt><trkpt lat="37.8930217" lon="14.9544683"><ele>881.75</ele><time>2026-04-25T10:54:44.924Z</time></trkpt><trkpt lat="37.8929383" lon="14.9543667"><ele>882.0</ele><time>2026-04-25T10:54:45.924Z</time></trkpt><trkpt lat="37.8928767" lon="14.954265"><ele>884.0</ele><time>2026-04-25T10:54:46.923Z</time></trkpt><trkpt lat="37.892845" lon="14.9541667"><ele>886.0</ele><time>2026-04-25T10:54:47.924Z</time></trkpt><trkpt lat="37.8928533" lon="14.954075"><ele>888.0</ele><time>2026-04-25T10:54:48.923Z</time></trkpt><trkpt lat="37.89295" lon="14.953975"><ele>890.0</ele><time>2026-04-25T10:54:50.924Z</time></trkpt><trkpt lat="37.8930417" lon="14.95397"><ele>892.0</ele><time>2026-04-25T10:54:51.923Z</time></trkpt><trkpt lat="37.8931583" lon="14.95398"><ele>892.0</ele><time>2026-04-25T10:54:52.924Z</time></trkpt><trkpt lat="37.8932867" lon="14.9539867"><ele>892.0</ele><time>2026-04-25T10:54:53.923Z</time></trkpt><trkpt lat="37.8934133" lon="14.953995"><ele>892.0</ele><time>2026-04-25T10:54:54.924Z</time></trkpt><trkpt lat="37.8935433" lon="14.9540083"><ele>892.0</ele><time>2026-04-25T10:54:55.924Z</time></trkpt><trkpt lat="37.89367" lon="14.9540317"><ele>893.25</ele><time>2026-04-25T10:54:56.924Z</time></trkpt><trkpt lat="37.8937967" lon="14.9540517"><ele>894.5</ele><time>2026-04-25T10:54:57.924Z</time></trkpt><trkpt lat="37.89393" lon="14.9540733"><ele>895.75</ele><time>2026-04-25T10:54:58.923Z</time></trkpt><trkpt lat="37.8940683" lon="14.9540983"><ele>897.0</ele><time>2026-04-25T10:54:59.924Z</time></trkpt><trkpt lat="37.8942083" lon="14.9541267"><ele>896.0</ele><time>2026-04-25T10:55:00.924Z</time></trkpt><trkpt lat="37.8943517" lon="14.9541483"><ele>895.0</ele><time>2026-04-25T10:55:01.924Z</time></trkpt><trkpt lat="37.8944967" lon="14.9541883"><ele>894.0</ele><time>2026-04-25T10:55:02.923Z</time></trkpt><trkpt lat="37.89463" lon="14.9542517"><ele>893.0</ele><time>2026-04-25T10:55:03.923Z</time></trkpt><trkpt lat="37.89477" lon="14.954335"><ele>893.0</ele><time>2026-04-25T10:55:04.924Z</time></trkpt><trkpt lat="37.8949083" lon="14.9544267"><ele>893.0</ele><time>2026-04-25T10:55:05.923Z</time></trkpt><trkpt lat="37.8950417" lon="14.9545267"><ele>893.0</ele><time>2026-04-25T10:55:06.924Z</time></trkpt><trkpt lat="37.8951633" lon="14.9546483"><ele>894.0</ele><time>2026-04-25T10:55:07.924Z</time></trkpt><trkpt lat="37.89528" lon="14.9547933"><ele>895.0</ele><time>2026-04-25T10:55:08.924Z</time></trkpt><trkpt lat="37.89538" lon="14.95494"><ele>896.0</ele><time>2026-04-25T10:55:09.924Z</time></trkpt><trkpt lat="37.8954783" lon="14.9550667"><ele>896.0</ele><time>2026-04-25T10:55:10.923Z</time></trkpt><trkpt lat="37.8955967" lon="14.95517"><ele>896.0</ele><time>2026-04-25T10:55:11.923Z</time></trkpt><trkpt lat="37.8957317" lon="14.955245"><ele>896.0</ele><time>2026-04-25T10:55:12.924Z</time></trkpt><trkpt lat="37.8958583" lon="14.9553167"><ele>896.0</ele><time>2026-04-25T10:55:13.923Z</time></trkpt><trkpt lat="37.8959917" lon="14.95538"><ele>899.25</ele><time>2026-04-25T10:55:14.923Z</time></trkpt><trkpt lat="37.896115" lon="14.955425"><ele>902.5</ele><time>2026-04-25T10:55:15.924Z</time></trkpt><trkpt lat="37.89623" lon="14.9554317"><ele>905.75</ele><time>2026-04-25T10:55:16.923Z</time></trkpt><trkpt lat="37.8963383" lon="14.955395"><ele>909.0</ele><time>2026-04-25T10:55:17.924Z</time></trkpt><trkpt lat="37.896455" lon="14.9553583"><ele>909.0</ele><time>2026-04-25T10:55:18.924Z</time></trkpt><trkpt lat="37.8965617" lon="14.95536"><ele>909.0</ele><time>2026-04-25T10:55:19.924Z</time></trkpt><trkpt lat="37.89667" lon="14.9554067"><ele>909.0</ele><time>2026-04-25T10:55:20.924Z</time></trkpt><trkpt lat="37.8967683" lon="14.9555"><ele>909.0</ele><time>2026-04-25T10:55:21.923Z</time></trkpt><trkpt lat="37.8968483" lon="14.9556267"><ele>910.75</ele><time>2026-04-25T10:55:22.923Z</time></trkpt><trkpt lat="37.8969333" lon="14.9557633"><ele>912.5</ele><time>2026-04-25T10:55:23.923Z</time></trkpt><trkpt lat="37.8970267" lon="14.9559017"><ele>914.25</ele><time>2026-04-25T10:55:24.924Z</time></trkpt><trkpt lat="37.8971283" lon="14.9560417"><ele>916.0</ele><time>2026-04-25T10:55:25.924Z</time></trkpt><trkpt lat="37.8972317" lon="14.956175"><ele>916.0</ele><time>2026-04-25T10:55:26.923Z</time></trkpt><trkpt lat="37.8973417" lon="14.956295"><ele>916.0</ele><time>2026-04-25T10:55:27.924Z</time></trkpt><trkpt lat="37.89747" lon="14.95639"><ele>916.0</ele><time>2026-04-25T10:55:28.923Z</time></trkpt><trkpt lat="37.8976117" lon="14.9564683"><ele>916.0</ele><time>2026-04-25T10:55:29.924Z</time></trkpt><trkpt lat="37.8977533" lon="14.95654"><ele>919.3333333333333</ele><time>2026-04-25T10:55:30.923Z</time></trkpt><trkpt lat="37.8979067" lon="14.956605"><ele>922.6666666666667</ele><time>2026-04-25T10:55:31.923Z</time></trkpt><trkpt lat="37.89806" lon="14.9566617"><ele>926.0</ele><time>2026-04-25T10:55:32.924Z</time></trkpt><trkpt lat="37.8982083" lon="14.9566967"><ele>925.3333333333334</ele><time>2026-04-25T10:55:33.924Z</time></trkpt><trkpt lat="37.898365" lon="14.9567167"><ele>924.6666666666667</ele><time>2026-04-25T10:55:34.923Z</time></trkpt><trkpt lat="37.898525" lon="14.956735"><ele>924.0</ele><time>2026-04-25T10:55:35.924Z</time></trkpt><trkpt lat="37.8986783" lon="14.9567533"><ele>924.0</ele><time>2026-04-25T10:55:36.924Z</time></trkpt><trkpt lat="37.898825" lon="14.9567767"><ele>924.0</ele><time>2026-04-25T10:55:37.924Z</time></trkpt><trkpt lat="37.898965" lon="14.956815"><ele>924.0</ele><time>2026-04-25T10:55:38.924Z</time></trkpt><trkpt lat="37.89909" lon="14.9568817"><ele>924.0</ele><time>2026-04-25T10:55:39.923Z</time></trkpt><trkpt lat="37.8991867" lon="14.9569683"><ele>928.1666666666666</ele><time>2026-04-25T10:55:40.923Z</time></trkpt><trkpt lat="37.8992717" lon="14.9570683"><ele>932.3333333333333</ele><time>2026-04-25T10:55:41.923Z</time></trkpt><trkpt lat="37.899345" lon="14.9571283"><ele>936.5</ele><time>2026-04-25T10:55:42.923Z</time></trkpt><trkpt lat="37.899415" lon="14.9571483"><ele>940.6666666666666</ele><time>2026-04-25T10:55:43.923Z</time></trkpt><trkpt lat="37.8994833" lon="14.9571233"><ele>944.8333333333333</ele><time>2026-04-25T10:55:44.922Z</time></trkpt><trkpt lat="37.8995417" lon="14.9570633"><ele>949.0</ele><time>2026-04-25T10:55:45.923Z</time></trkpt><trkpt lat="37.89958" lon="14.9569733"><ele>949.0</ele><time>2026-04-25T10:55:46.922Z</time></trkpt><trkpt lat="37.8995833" lon="14.95686"><ele>949.0000000000001</ele><time>2026-04-25T10:55:47.923Z</time></trkpt><trkpt lat="37.899555" lon="14.9567417"><ele>949.0000000000001</ele><time>2026-04-25T10:55:48.923Z</time></trkpt><trkpt lat="37.899485" lon="14.9566283"><ele>949.0</ele><time>2026-04-25T10:55:49.923Z</time></trkpt><trkpt lat="37.8993867" lon="14.9565217"><ele>949.0</ele><time>2026-04-25T10:55:50.922Z</time></trkpt><trkpt lat="37.899265" lon="14.95642"><ele>945.3333333333333</ele><time>2026-04-25T10:55:51.923Z</time></trkpt><trkpt lat="37.8991483" lon="14.956305"><ele>941.6666666666667</ele><time>2026-04-25T10:55:52.922Z</time></trkpt><trkpt lat="37.8990267" lon="14.9561833"><ele>938.0</ele><time>2026-04-25T10:55:53.923Z</time></trkpt><trkpt lat="37.898905" lon="14.956055"><ele>938.0</ele><time>2026-04-25T10:55:54.923Z</time></trkpt><trkpt lat="37.8987883" lon="14.95592"><ele>938.0</ele><time>2026-04-25T10:55:55.922Z</time></trkpt><trkpt lat="37.8986733" lon="14.9557967"><ele>938.0</ele><time>2026-04-25T10:55:56.923Z</time></trkpt><trkpt lat="37.89856" lon="14.955685"><ele>939.5</ele><time>2026-04-25T10:55:57.922Z</time></trkpt><trkpt lat="37.8984483" lon="14.9555767"><ele>941.0</ele><time>2026-04-25T10:55:58.923Z</time></trkpt><trkpt lat="37.8983483" lon="14.9554783"><ele>942.5</ele><time>2026-04-25T10:55:59.922Z</time></trkpt><trkpt lat="37.8982717" lon="14.9553733"><ele>944.0</ele><time>2026-04-25T10:56:00.923Z</time></trkpt><trkpt lat="37.8982117" lon="14.9552617"><ele>944.0</ele><time>2026-04-25T10:56:01.923Z</time></trkpt><trkpt lat="37.8981767" lon="14.95514"><ele>944.0000000000001</ele><time>2026-04-25T10:56:02.922Z</time></trkpt><trkpt lat="37.8981733" lon="14.955005"><ele>944.0000000000001</ele><time>2026-04-25T10:56:03.922Z</time></trkpt><trkpt lat="37.898195" lon="14.9548683"><ele>944.0</ele><time>2026-04-25T10:56:04.922Z</time></trkpt><trkpt lat="37.8982483" lon="14.9547467"><ele>944.0</ele><time>2026-04-25T10:56:05.922Z</time></trkpt><trkpt lat="37.8983317" lon="14.95465"><ele>948.75</ele><time>2026-04-25T10:56:06.922Z</time></trkpt><trkpt lat="37.8984317" lon="14.9545817"><ele>953.5</ele><time>2026-04-25T10:56:07.923Z</time></trkpt><trkpt lat="37.8985467" lon="14.9545617"><ele>958.25</ele><time>2026-04-25T10:56:08.923Z</time></trkpt><trkpt lat="37.898665" lon="14.9545867"><ele>963.0</ele><time>2026-04-25T10:56:09.923Z</time></trkpt><trkpt lat="37.898785" lon="14.9546633"><ele>963.0</ele><time>2026-04-25T10:56:10.922Z</time></trkpt><trkpt lat="37.8988867" lon="14.9547767"><ele>963.0</ele><time>2026-04-25T10:56:11.922Z</time></trkpt><trkpt lat="37.8989867" lon="14.9549033"><ele>963.0</ele><time>2026-04-25T10:56:12.923Z</time></trkpt><trkpt lat="37.8990917" lon="14.9550333"><ele>963.0</ele><time>2026-04-25T10:56:13.923Z</time></trkpt><trkpt lat="37.8992017" lon="14.9551667"><ele>965.3333333333333</ele><time>2026-04-25T10:56:14.922Z</time></trkpt><trkpt lat="37.8993083" lon="14.9553"><ele>967.6666666666666</ele><time>2026-04-25T10:56:15.923Z</time></trkpt><trkpt lat="37.89942" lon="14.9554417"><ele>970.0</ele><time>2026-04-25T10:56:16.922Z</time></trkpt><trkpt lat="37.8995383" lon="14.9555833"><ele>970.0</ele><time>2026-04-25T10:56:17.923Z</time></trkpt><trkpt lat="37.8996583" lon="14.9557233"><ele>970.0</ele><time>2026-04-25T10:56:18.923Z</time></trkpt><trkpt lat="37.89978" lon="14.9558633"><ele>970.0</ele><time>2026-04-25T10:56:19.923Z</time></trkpt><trkpt lat="37.8999017" lon="14.9559983"><ele>966.0</ele><time>2026-04-25T10:56:20.922Z</time></trkpt><trkpt lat="37.90002" lon="14.95613"><ele>962.0</ele><time>2026-04-25T10:56:21.922Z</time></trkpt><trkpt lat="37.9001383" lon="14.95626"><ele>958.0</ele><time>2026-04-25T10:56:22.923Z</time></trkpt><trkpt lat="37.900255" lon="14.9563933"><ele>965.3333333333333</ele><time>2026-04-25T10:56:23.923Z</time></trkpt><trkpt lat="37.90036" lon="14.95653"><ele>972.6666666666667</ele><time>2026-04-25T10:56:24.922Z</time></trkpt><trkpt lat="37.900445" lon="14.9566917"><ele>980.0</ele><time>2026-04-25T10:56:25.922Z</time></trkpt><trkpt lat="37.9005117" lon="14.95687"><ele>980.0</ele><time>2026-04-25T10:56:26.923Z</time></trkpt><trkpt lat="37.9005717" lon="14.9570517"><ele>980.0</ele><time>2026-04-25T10:56:27.922Z</time></trkpt><trkpt lat="37.9006283" lon="14.9572367"><ele>980.0</ele><time>2026-04-25T10:56:28.923Z</time></trkpt><trkpt lat="37.9006867" lon="14.95741"><ele>978.6666666666667</ele><time>2026-04-25T10:56:29.923Z</time></trkpt><trkpt lat="37.9007517" lon="14.9575817"><ele>977.3333333333333</ele><time>2026-04-25T10:56:30.922Z</time></trkpt><trkpt lat="37.9008317" lon="14.9577417"><ele>976.0</ele><time>2026-04-25T10:56:31.923Z</time></trkpt><trkpt lat="37.9009267" lon="14.9578967"><ele>981.0</ele><time>2026-04-25T10:56:32.922Z</time></trkpt><trkpt lat="37.9010333" lon="14.9580433"><ele>986.0</ele><time>2026-04-25T10:56:33.922Z</time></trkpt><trkpt lat="37.9011417" lon="14.9581983"><ele>991.0</ele><time>2026-04-25T10:56:34.923Z</time></trkpt><trkpt lat="37.90125" lon="14.9583567"><ele>988.75</ele><time>2026-04-25T10:56:35.922Z</time></trkpt><trkpt lat="37.90136" lon="14.9585"><ele>986.5</ele><time>2026-04-25T10:56:36.923Z</time></trkpt><trkpt lat="37.901465" lon="14.9586267"><ele>984.25</ele><time>2026-04-25T10:56:37.923Z</time></trkpt><trkpt lat="37.9015767" lon="14.9587233"><ele>982.0</ele><time>2026-04-25T10:56:38.923Z</time></trkpt><trkpt lat="37.9017033" lon="14.958805"><ele>981.0</ele><time>2026-04-25T10:56:39.923Z</time></trkpt><trkpt lat="37.9018433" lon="14.9588717"><ele>980.0</ele><time>2026-04-25T10:56:40.923Z</time></trkpt><trkpt lat="37.901995" lon="14.958925"><ele>979.0</ele><time>2026-04-25T10:56:41.923Z</time></trkpt><trkpt lat="37.9021417" lon="14.9589717"><ele>979.0</ele><time>2026-04-25T10:56:42.923Z</time></trkpt><trkpt lat="37.90229" lon="14.9590233"><ele>979.0</ele><time>2026-04-25T10:56:43.923Z</time></trkpt><trkpt lat="37.90244" lon="14.9590833"><ele>979.0</ele><time>2026-04-25T10:56:44.923Z</time></trkpt><trkpt lat="37.902595" lon="14.959155"><ele>977.3333333333333</ele><time>2026-04-25T10:56:45.922Z</time></trkpt><trkpt lat="37.902735" lon="14.9592433"><ele>975.6666666666667</ele><time>2026-04-25T10:56:46.923Z</time></trkpt><trkpt lat="37.9028633" lon="14.9593467"><ele>974.0</ele><time>2026-04-25T10:56:47.922Z</time></trkpt><trkpt lat="37.9029817" lon="14.9594633"><ele>974.0</ele><time>2026-04-25T10:56:48.923Z</time></trkpt><trkpt lat="37.9031" lon="14.95958"><ele>974.0</ele><time>2026-04-25T10:56:49.923Z</time></trkpt><trkpt lat="37.903205" lon="14.959705"><ele>974.0</ele><time>2026-04-25T10:56:50.922Z</time></trkpt><trkpt lat="37.9033017" lon="14.9598467"><ele>974.0</ele><time>2026-04-25T10:56:51.922Z</time></trkpt><trkpt lat="37.9033817" lon="14.9599967"><ele>975.25</ele><time>2026-04-25T10:56:52.923Z</time></trkpt><trkpt lat="37.9034467" lon="14.960155"><ele>976.5</ele><time>2026-04-25T10:56:53.922Z</time></trkpt><trkpt lat="37.9034983" lon="14.9603283"><ele>977.75</ele><time>2026-04-25T10:56:54.923Z</time></trkpt><trkpt lat="37.9035333" lon="14.9604933"><ele>979.0</ele><time>2026-04-25T10:56:55.922Z</time></trkpt><trkpt lat="37.9035533" lon="14.960655"><ele>979.0</ele><time>2026-04-25T10:56:56.923Z</time></trkpt><trkpt lat="37.903585" lon="14.9608033"><ele>979.0</ele><time>2026-04-25T10:56:57.922Z</time></trkpt><trkpt lat="37.9036433" lon="14.96093"><ele>979.0</ele><time>2026-04-25T10:56:58.923Z</time></trkpt><trkpt lat="37.903735" lon="14.9610267"><ele>979.0</ele><time>2026-04-25T10:56:59.922Z</time></trkpt><trkpt lat="37.90385" lon="14.961115"><ele>973.6666666666666</ele><time>2026-04-25T10:57:00.922Z</time></trkpt><trkpt lat="37.90397" lon="14.961205"><ele>968.3333333333333</ele><time>2026-04-25T10:57:01.922Z</time></trkpt><trkpt lat="37.9041" lon="14.9613067"><ele>963.0</ele><time>2026-04-25T10:57:02.923Z</time></trkpt><trkpt lat="37.90424" lon="14.961415"><ele>962.6666666666667</ele><time>2026-04-25T10:57:03.922Z</time></trkpt><trkpt lat="37.9043767" lon="14.9615117"><ele>962.3333333333334</ele><time>2026-04-25T10:57:04.923Z</time></trkpt><trkpt lat="37.9045083" lon="14.96161"><ele>962.0</ele><time>2026-04-25T10:57:05.923Z</time></trkpt><trkpt lat="37.904625" lon="14.9617267"><ele>962.0</ele><time>2026-04-25T10:57:06.922Z</time></trkpt><trkpt lat="37.90474" lon="14.96185"><ele>962.0</ele><time>2026-04-25T10:57:07.922Z</time></trkpt><trkpt lat="37.904855" lon="14.961955"><ele>962.0</ele><time>2026-04-25T10:57:08.923Z</time></trkpt><trkpt lat="37.904975" lon="14.962045"><ele>962.0</ele><time>2026-04-25T10:57:09.923Z</time></trkpt><trkpt lat="37.9051083" lon="14.9620983"><ele>963.75</ele><time>2026-04-25T10:57:10.923Z</time></trkpt><trkpt lat="37.9052433" lon="14.962125"><ele>965.5</ele><time>2026-04-25T10:57:11.922Z</time></trkpt><trkpt lat="37.9053967" lon="14.96213"><ele>967.25</ele><time>2026-04-25T10:57:12.922Z</time></trkpt><trkpt lat="37.905545" lon="14.9621367"><ele>969.0</ele><time>2026-04-25T10:57:13.922Z</time></trkpt><trkpt lat="37.905695" lon="14.96215"><ele>969.0</ele><time>2026-04-25T10:57:14.923Z</time></trkpt><trkpt lat="37.9058433" lon="14.9621783"><ele>969.0</ele><time>2026-04-25T10:57:15.923Z</time></trkpt><trkpt lat="37.9059967" lon="14.96223"><ele>969.0</ele><time>2026-04-25T10:57:16.922Z</time></trkpt><trkpt lat="37.906135" lon="14.9623117"><ele>970.0</ele><time>2026-04-25T10:57:17.923Z</time></trkpt><trkpt lat="37.9062583" lon="14.96243"><ele>971.0</ele><time>2026-04-25T10:57:18.922Z</time></trkpt><trkpt lat="37.9063617" lon="14.9625833"><ele>972.0</ele><time>2026-04-25T10:57:19.922Z</time></trkpt><trkpt lat="37.90645" lon="14.9627567"><ele>972.0</ele><time>2026-04-25T10:57:20.922Z</time></trkpt><trkpt lat="37.906535" lon="14.9629467"><ele>972.0</ele><time>2026-04-25T10:57:21.922Z</time></trkpt><trkpt lat="37.906615" lon="14.9631417"><ele>972.0</ele><time>2026-04-25T10:57:22.923Z</time></trkpt><trkpt lat="37.9067033" lon="14.9633433"><ele>973.0</ele><time>2026-04-25T10:57:23.923Z</time></trkpt><trkpt lat="37.906785" lon="14.9635317"><ele>974.0</ele><time>2026-04-25T10:57:24.923Z</time></trkpt><trkpt lat="37.9068583" lon="14.9636983"><ele>975.0</ele><time>2026-04-25T10:57:25.923Z</time></trkpt><trkpt lat="37.90693" lon="14.9638583"><ele>975.0</ele><time>2026-04-25T10:57:26.922Z</time></trkpt><trkpt lat="37.907005" lon="14.9639967"><ele>975.0</ele><time>2026-04-25T10:57:27.923Z</time></trkpt><trkpt lat="37.907105" lon="14.9641067"><ele>975.0</ele><time>2026-04-25T10:57:28.923Z</time></trkpt><trkpt lat="37.9072233" lon="14.964185"><ele>975.0</ele><time>2026-04-25T10:57:29.922Z</time></trkpt><trkpt lat="37.907355" lon="14.9642383"><ele>972.0</ele><time>2026-04-25T10:57:30.923Z</time></trkpt><trkpt lat="37.9074917" lon="14.9642583"><ele>969.0</ele><time>2026-04-25T10:57:31.922Z</time></trkpt><trkpt lat="37.9076383" lon="14.9642533"><ele>966.0</ele><time>2026-04-25T10:57:32.923Z</time></trkpt><trkpt lat="37.907795" lon="14.96423"><ele>963.0</ele><time>2026-04-25T10:57:33.922Z</time></trkpt><trkpt lat="37.90795" lon="14.9642167"><ele>963.0</ele><time>2026-04-25T10:57:34.922Z</time></trkpt><trkpt lat="37.90811" lon="14.9642133"><ele>963.0</ele><time>2026-04-25T10:57:35.922Z</time></trkpt><trkpt lat="37.908265" lon="14.9642167"><ele>963.0</ele><time>2026-04-25T10:57:36.922Z</time></trkpt><trkpt lat="37.908405" lon="14.9642033"><ele>967.25</ele><time>2026-04-25T10:57:37.922Z</time></trkpt><trkpt lat="37.90855" lon="14.9641583"><ele>971.5</ele><time>2026-04-25T10:57:38.922Z</time></trkpt><trkpt lat="37.908675" lon="14.96408"><ele>975.75</ele><time>2026-04-25T10:57:39.922Z</time></trkpt><trkpt lat="37.9087967" lon="14.9639783"><ele>980.0</ele><time>2026-04-25T10:57:40.922Z</time></trkpt><trkpt lat="37.9089217" lon="14.9638617"><ele>980.0</ele><time>2026-04-25T10:57:41.923Z</time></trkpt><trkpt lat="37.9090483" lon="14.9637517"><ele>980.0</ele><time>2026-04-25T10:57:42.923Z</time></trkpt><trkpt lat="37.90918" lon="14.96366"><ele>980.0</ele><time>2026-04-25T10:57:43.922Z</time></trkpt><trkpt lat="37.9093117" lon="14.96358"><ele>980.25</ele><time>2026-04-25T10:57:44.923Z</time></trkpt><trkpt lat="37.9094483" lon="14.9635317"><ele>980.5</ele><time>2026-04-25T10:57:45.922Z</time></trkpt><trkpt lat="37.9095933" lon="14.9635283"><ele>980.75</ele><time>2026-04-25T10:57:46.923Z</time></trkpt><trkpt lat="37.9097417" lon="14.96356"><ele>981.0</ele><time>2026-04-25T10:57:47.922Z</time></trkpt><trkpt lat="37.9098983" lon="14.9636067"><ele>981.0</ele><time>2026-04-25T10:57:48.922Z</time></trkpt><trkpt lat="37.910055" lon="14.9636617"><ele>981.0</ele><time>2026-04-25T10:57:49.922Z</time></trkpt><trkpt lat="37.91022" lon="14.9637283"><ele>981.0</ele><time>2026-04-25T10:57:50.923Z</time></trkpt><trkpt lat="37.910385" lon="14.963785"><ele>985.6666666666667</ele><time>2026-04-25T10:57:51.923Z</time></trkpt><trkpt lat="37.9105433" lon="14.9638383"><ele>990.3333333333334</ele><time>2026-04-25T10:57:52.923Z</time></trkpt><trkpt lat="37.9107067" lon="14.9639017"><ele>995.0</ele><time>2026-04-25T10:57:53.922Z</time></trkpt><trkpt lat="37.9108567" lon="14.9639933"><ele>996.3333333333334</ele><time>2026-04-25T10:57:54.922Z</time></trkpt><trkpt lat="37.9109867" lon="14.9641083"><ele>997.6666666666667</ele><time>2026-04-25T10:57:55.923Z</time></trkpt><trkpt lat="37.911105" lon="14.9642483"><ele>999.0</ele><time>2026-04-25T10:57:56.923Z</time></trkpt><trkpt lat="37.9112283" lon="14.964385"><ele>999.0</ele><time>2026-04-25T10:57:57.922Z</time></trkpt><trkpt lat="37.9113433" lon="14.964505"><ele>999.0</ele><time>2026-04-25T10:57:58.923Z</time></trkpt><trkpt lat="37.9114567" lon="14.9646033"><ele>999.0</ele><time>2026-04-25T10:57:59.922Z</time></trkpt><trkpt lat="37.9115767" lon="14.9646767"><ele>999.0</ele><time>2026-04-25T10:58:00.922Z</time></trkpt><trkpt lat="37.9117033" lon="14.9647067"><ele>1000.25</ele><time>2026-04-25T10:58:01.922Z</time></trkpt><trkpt lat="37.9118217" lon="14.96469"><ele>1001.5</ele><time>2026-04-25T10:58:02.923Z</time></trkpt><trkpt lat="37.91194" lon="14.9646283"><ele>1002.75</ele><time>2026-04-25T10:58:03.923Z</time></trkpt><trkpt lat="37.9120667" lon="14.964565"><ele>1004.0</ele><time>2026-04-25T10:58:04.922Z</time></trkpt><trkpt lat="37.9122117" lon="14.9645283"><ele>1004.0</ele><time>2026-04-25T10:58:05.923Z</time></trkpt><trkpt lat="37.9123583" lon="14.9645117"><ele>1004.0</ele><time>2026-04-25T10:58:06.922Z</time></trkpt><trkpt lat="37.9124967" lon="14.9645283"><ele>1004.0</ele><time>2026-04-25T10:58:07.923Z</time></trkpt><trkpt lat="37.9126333" lon="14.9645833"><ele>1004.0</ele><time>2026-04-25T10:58:08.923Z</time></trkpt><trkpt lat="37.9127517" lon="14.96467"><ele>1006.75</ele><time>2026-04-25T10:58:09.923Z</time></trkpt><trkpt lat="37.9128667" lon="14.96476"><ele>1009.5</ele><time>2026-04-25T10:58:10.922Z</time></trkpt><trkpt lat="37.9129733" lon="14.96482"><ele>1012.25</ele><time>2026-04-25T10:58:11.922Z</time></trkpt><trkpt lat="37.9130817" lon="14.96485"><ele>1015.0</ele><time>2026-04-25T10:58:12.923Z</time></trkpt><trkpt lat="37.91319" lon="14.9648467"><ele>1015.0</ele><time>2026-04-25T10:58:13.922Z</time></trkpt><trkpt lat="37.91331" lon="14.9648"><ele>1015.0</ele><time>2026-04-25T10:58:14.923Z</time></trkpt><trkpt lat="37.9134383" lon="14.9647417"><ele>1015.0</ele><time>2026-04-25T10:58:15.923Z</time></trkpt><trkpt lat="37.9135633" lon="14.964675"><ele>1015.0</ele><time>2026-04-25T10:58:16.922Z</time></trkpt><trkpt lat="37.9137" lon="14.9646033"><ele>1015.0</ele><time>2026-04-25T10:58:17.922Z</time></trkpt><trkpt lat="37.9138317" lon="14.9645233"><ele>1015.0</ele><time>2026-04-25T10:58:18.922Z</time></trkpt><trkpt lat="37.9139583" lon="14.9644467"><ele>1015.0</ele><time>2026-04-25T10:58:19.923Z</time></trkpt><trkpt lat="37.9140833" lon="14.964385"><ele>1015.0</ele><time>2026-04-25T10:58:20.922Z</time></trkpt><trkpt lat="37.9141967" lon="14.9643233"><ele>1016.6</ele><time>2026-04-25T10:58:21.923Z</time></trkpt><trkpt lat="37.914305" lon="14.9642617"><ele>1018.2</ele><time>2026-04-25T10:58:22.923Z</time></trkpt><trkpt lat="37.9144083" lon="14.96422"><ele>1019.8</ele><time>2026-04-25T10:58:23.923Z</time></trkpt><trkpt lat="37.9145017" lon="14.9641717"><ele>1021.4</ele><time>2026-04-25T10:58:24.923Z</time></trkpt><trkpt lat="37.9145883" lon="14.9641017"><ele>1023.0</ele><time>2026-04-25T10:58:25.922Z</time></trkpt><trkpt lat="37.9146717" lon="14.964025"><ele>1023.0</ele><time>2026-04-25T10:58:26.923Z</time></trkpt><trkpt lat="37.9147583" lon="14.9639433"><ele>1023.0</ele><time>2026-04-25T10:58:27.923Z</time></trkpt><trkpt lat="37.9148667" lon="14.963855"><ele>1023.0</ele><time>2026-04-25T10:58:28.923Z</time></trkpt><trkpt lat="37.9149833" lon="14.9637483"><ele>1023.0</ele><time>2026-04-25T10:58:29.922Z</time></trkpt><trkpt lat="37.9150867" lon="14.9636317"><ele>1022.5</ele><time>2026-04-25T10:58:30.922Z</time></trkpt><trkpt lat="37.9151883" lon="14.9635383"><ele>1022.0</ele><time>2026-04-25T10:58:31.922Z</time></trkpt><trkpt lat="37.9153017" lon="14.963435"><ele>1021.5</ele><time>2026-04-25T10:58:32.923Z</time></trkpt><trkpt lat="37.91538" lon="14.9633483"><ele>1021.0</ele><time>2026-04-25T10:58:33.923Z</time></trkpt><trkpt lat="37.9155" lon="14.9632933"><ele>1023.25</ele><time>2026-04-25T10:58:34.922Z</time></trkpt><trkpt lat="37.9156217" lon="14.9632533"><ele>1025.5</ele><time>2026-04-25T10:58:35.923Z</time></trkpt><trkpt lat="37.91574" lon="14.96323"><ele>1027.75</ele><time>2026-04-25T10:58:36.923Z</time></trkpt><trkpt lat="37.9158567" lon="14.9632083"><ele>1030.0</ele><time>2026-04-25T10:58:37.922Z</time></trkpt><trkpt lat="37.9159617" lon="14.9631917"><ele>1030.0</ele><time>2026-04-25T10:58:38.922Z</time></trkpt><trkpt lat="37.9160683" lon="14.963165"><ele>1030.0</ele><time>2026-04-25T10:58:39.922Z</time></trkpt><trkpt lat="37.9161667" lon="14.9631383"><ele>1030.0</ele><time>2026-04-25T10:58:40.922Z</time></trkpt><trkpt lat="37.9162633" lon="14.9631133"><ele>1030.0</ele><time>2026-04-25T10:58:41.923Z</time></trkpt><trkpt lat="37.9163583" lon="14.963095"><ele>1030.0</ele><time>2026-04-25T10:58:42.923Z</time></trkpt><trkpt lat="37.916445" lon="14.9630717"><ele>1030.0</ele><time>2026-04-25T10:58:43.922Z</time></trkpt><trkpt lat="37.9165383" lon="14.96303"><ele>1030.0</ele><time>2026-04-25T10:58:44.923Z</time></trkpt><trkpt lat="37.9166267" lon="14.9629817"><ele>1030.0</ele><time>2026-04-25T10:58:45.923Z</time></trkpt><trkpt lat="37.9167183" lon="14.96293"><ele>1030.0</ele><time>2026-04-25T10:58:46.923Z</time></trkpt><trkpt lat="37.9168133" lon="14.9628733"><ele>1030.0</ele><time>2026-04-25T10:58:47.922Z</time></trkpt><trkpt lat="37.9169083" lon="14.96281"><ele>1029.6</ele><time>2026-04-25T10:58:48.922Z</time></trkpt><trkpt lat="37.91699" lon="14.9627283"><ele>1029.2</ele><time>2026-04-25T10:58:49.923Z</time></trkpt><trkpt lat="37.9170817" lon="14.9626783"><ele>1028.8</ele><time>2026-04-25T10:58:50.923Z</time></trkpt><trkpt lat="37.9171833" lon="14.9626267"><ele>1028.4</ele><time>2026-04-25T10:58:51.923Z</time></trkpt><trkpt lat="37.917295" lon="14.96257"><ele>1028.0</ele><time>2026-04-25T10:58:52.923Z</time></trkpt><trkpt lat="37.9173967" lon="14.96253"><ele>1028.0</ele><time>2026-04-25T10:58:53.923Z</time></trkpt><trkpt lat="37.917515" lon="14.9624967"><ele>1028.0</ele><time>2026-04-25T10:58:54.922Z</time></trkpt><trkpt lat="37.9176233" lon="14.9624667"><ele>1028.0</ele><time>2026-04-25T10:58:55.923Z</time></trkpt><trkpt lat="37.9177233" lon="14.9624317"><ele>1028.0</ele><time>2026-04-25T10:58:56.923Z</time></trkpt><trkpt lat="37.9178233" lon="14.9623967"><ele>1028.0</ele><time>2026-04-25T10:58:57.922Z</time></trkpt><trkpt lat="37.9179333" lon="14.9623517"><ele>1027.6</ele><time>2026-04-25T10:58:58.922Z</time></trkpt><trkpt lat="37.9180367" lon="14.96231"><ele>1027.1999999999998</ele><time>2026-04-25T10:58:59.923Z</time></trkpt><trkpt lat="37.9181367" lon="14.9622733"><ele>1026.8</ele><time>2026-04-25T10:59:00.923Z</time></trkpt><trkpt lat="37.9182517" lon="14.9622583"><ele>1026.3999999999999</ele><time>2026-04-25T10:59:01.923Z</time></trkpt><trkpt lat="37.9183667" lon="14.962265"><ele>1026.0</ele><time>2026-04-25T10:59:02.922Z</time></trkpt><trkpt lat="37.9184783" lon="14.9622817"><ele>1026.0</ele><time>2026-04-25T10:59:03.923Z</time></trkpt><trkpt lat="37.918585" lon="14.9622967"><ele>1026.0</ele><time>2026-04-25T10:59:04.922Z</time></trkpt><trkpt lat="37.91869" lon="14.9623"><ele>1026.0</ele><time>2026-04-25T10:59:05.923Z</time></trkpt><trkpt lat="37.9187933" lon="14.9623"><ele>1026.0</ele><time>2026-04-25T10:59:06.922Z</time></trkpt><trkpt lat="37.9188933" lon="14.9623183"><ele>1026.0</ele><time>2026-04-25T10:59:07.922Z</time></trkpt><trkpt lat="37.91899" lon="14.9623383"><ele>1026.0</ele><time>2026-04-25T10:59:08.923Z</time></trkpt><trkpt lat="37.9190783" lon="14.96237"><ele>1026.0</ele><time>2026-04-25T10:59:09.922Z</time></trkpt><trkpt lat="37.9191617" lon="14.9623967"><ele>1026.0</ele><time>2026-04-25T10:59:10.923Z</time></trkpt><trkpt lat="37.9192467" lon="14.9624033"><ele>1026.0</ele><time>2026-04-25T10:59:11.922Z</time></trkpt><trkpt lat="37.9193283" lon="14.9623833"><ele>1026.0</ele><time>2026-04-25T10:59:12.923Z</time></trkpt><trkpt lat="37.919435" lon="14.9623417"><ele>1026.25</ele><time>2026-04-25T10:59:13.923Z</time></trkpt><trkpt lat="37.9195667" lon="14.9622883"><ele>1026.5</ele><time>2026-04-25T10:59:14.923Z</time></trkpt><trkpt lat="37.919705" lon="14.9622283"><ele>1026.75</ele><time>2026-04-25T10:59:15.922Z</time></trkpt><trkpt lat="37.919845" lon="14.9621717"><ele>1027.0</ele><time>2026-04-25T10:59:16.923Z</time></trkpt><trkpt lat="37.91999" lon="14.9621133"><ele>1026.0</ele><time>2026-04-25T10:59:17.923Z</time></trkpt><trkpt lat="37.920115" lon="14.9620567"><ele>1025.0</ele><time>2026-04-25T10:59:18.922Z</time></trkpt><trkpt lat="37.9202117" lon="14.961975"><ele>1024.0</ele><time>2026-04-25T10:59:19.923Z</time></trkpt><trkpt lat="37.9202967" lon="14.9618667"><ele>1023.0</ele><time>2026-04-25T10:59:20.923Z</time></trkpt><trkpt lat="37.92036" lon="14.9617317"><ele>1026.25</ele><time>2026-04-25T10:59:21.923Z</time></trkpt><trkpt lat="37.9204233" lon="14.9615933"><ele>1029.5</ele><time>2026-04-25T10:59:22.923Z</time></trkpt><trkpt lat="37.9205017" lon="14.961485"><ele>1032.75</ele><time>2026-04-25T10:59:23.923Z</time></trkpt><trkpt lat="37.920585" lon="14.9613833"><ele>1036.0</ele><time>2026-04-25T10:59:24.923Z</time></trkpt><trkpt lat="37.920685" lon="14.9613017"><ele>1036.0</ele><time>2026-04-25T10:59:25.923Z</time></trkpt><trkpt lat="37.920795" lon="14.9612117"><ele>1036.0</ele><time>2026-04-25T10:59:26.922Z</time></trkpt><trkpt lat="37.9209083" lon="14.9611233"><ele>1036.0</ele><time>2026-04-25T10:59:27.922Z</time></trkpt><trkpt lat="37.9210233" lon="14.9610367"><ele>1036.0</ele><time>2026-04-25T10:59:28.923Z</time></trkpt><trkpt lat="37.92114" lon="14.9609383"><ele>1037.25</ele><time>2026-04-25T10:59:29.922Z</time></trkpt><trkpt lat="37.92126" lon="14.9608383"><ele>1038.5</ele><time>2026-04-25T10:59:30.922Z</time></trkpt><trkpt lat="37.92138" lon="14.9607367"><ele>1039.75</ele><time>2026-04-25T10:59:31.923Z</time></trkpt><trkpt lat="37.9215033" lon="14.9606417"><ele>1041.0</ele><time>2026-04-25T10:59:32.922Z</time></trkpt><trkpt lat="37.9216217" lon="14.9605517"><ele>1041.0</ele><time>2026-04-25T10:59:33.923Z</time></trkpt><trkpt lat="37.9217383" lon="14.9604617"><ele>1041.0</ele><time>2026-04-25T10:59:34.922Z</time></trkpt><trkpt lat="37.921855" lon="14.9603633"><ele>1041.0</ele><time>2026-04-25T10:59:35.923Z</time></trkpt><trkpt lat="37.921965" lon="14.9602533"><ele>1041.0</ele><time>2026-04-25T10:59:36.923Z</time></trkpt><trkpt lat="37.9220717" lon="14.9601283"><ele>1042.75</ele><time>2026-04-25T10:59:37.923Z</time></trkpt><trkpt lat="37.9221683" lon="14.9599967"><ele>1044.5</ele><time>2026-04-25T10:59:38.923Z</time></trkpt><trkpt lat="37.922255" lon="14.9598683"><ele>1046.25</ele><time>2026-04-25T10:59:39.922Z</time></trkpt><trkpt lat="37.92233" lon="14.95974"><ele>1048.0</ele><time>2026-04-25T10:59:40.923Z</time></trkpt><trkpt lat="37.92237" lon="14.95962"><ele>1048.0</ele><time>2026-04-25T10:59:41.923Z</time></trkpt><trkpt lat="37.9223767" lon="14.9595"><ele>1048.0</ele><time>2026-04-25T10:59:42.923Z</time></trkpt><trkpt lat="37.9223533" lon="14.95938"><ele>1048.0</ele><time>2026-04-25T10:59:43.923Z</time></trkpt><trkpt lat="37.9223033" lon="14.959275"><ele>1048.0</ele><time>2026-04-25T10:59:44.923Z</time></trkpt><trkpt lat="37.922225" lon="14.9591983"><ele>1048.0</ele><time>2026-04-25T10:59:45.923Z</time></trkpt><trkpt lat="37.922155" lon="14.9591617"><ele>1048.0</ele><time>2026-04-25T10:59:46.922Z</time></trkpt><trkpt lat="37.92204" lon="14.95919"><ele>1048.0</ele><time>2026-04-25T10:59:48.923Z</time></trkpt><trkpt lat="37.9219533" lon="14.9593017"><ele>1048.0</ele><time>2026-04-25T10:59:50.923Z</time></trkpt><trkpt lat="37.9218767" lon="14.959395"><ele>1048.0</ele><time>2026-04-25T10:59:52.922Z</time></trkpt><trkpt lat="37.9218217" lon="14.95946"><ele>1048.0</ele><time>2026-04-25T10:59:54.923Z</time></trkpt><trkpt lat="37.9217817" lon="14.959535"><ele>1048.6666666666665</ele><time>2026-04-25T11:01:16.922Z</time></trkpt><trkpt lat="37.9217267" lon="14.9595917"><ele>1049.3333333333333</ele><time>2026-04-25T11:01:17.922Z</time></trkpt><trkpt lat="37.9216683" lon="14.95965"><ele>1050.0</ele><time>2026-04-25T11:01:18.922Z</time></trkpt><trkpt lat="37.9216167" lon="14.959715"><ele>1050.6666666666667</ele><time>2026-04-25T11:01:19.922Z</time></trkpt><trkpt lat="37.9215617" lon="14.9597867"><ele>1051.3333333333335</ele><time>2026-04-25T11:01:20.923Z</time></trkpt><trkpt lat="37.9215033" lon="14.9598633"><ele>1052.0</ele><time>2026-04-25T11:01:21.923Z</time></trkpt><trkpt lat="37.9214417" lon="14.9599367"><ele>1052.0</ele><time>2026-04-25T11:01:22.923Z</time></trkpt><trkpt lat="37.92138" lon="14.960015"><ele>1052.0</ele><time>2026-04-25T11:01:23.923Z</time></trkpt><trkpt lat="37.9213167" lon="14.9601"><ele>1052.0</ele><time>2026-04-25T11:01:24.922Z</time></trkpt><trkpt lat="37.9212533" lon="14.9601767"><ele>1052.0</ele><time>2026-04-25T11:01:25.923Z</time></trkpt><trkpt lat="37.921175" lon="14.9602267"><ele>1052.0</ele><time>2026-04-25T11:01:26.923Z</time></trkpt><trkpt lat="37.92109" lon="14.9602433"><ele>1052.0</ele><time>2026-04-25T11:01:27.923Z</time></trkpt><trkpt lat="37.921005" lon="14.96024"><ele>1051.5</ele><time>2026-04-25T11:01:28.923Z</time></trkpt><trkpt lat="37.920925" lon="14.9602017"><ele>1051.0</ele><time>2026-04-25T11:01:29.923Z</time></trkpt><trkpt lat="37.92086" lon="14.9601283"><ele>1050.5</ele><time>2026-04-25T11:01:30.923Z</time></trkpt><trkpt lat="37.920815" lon="14.9600383"><ele>1050.0</ele><time>2026-04-25T11:01:31.923Z</time></trkpt><trkpt lat="37.92079" lon="14.959935"><ele>1049.5</ele><time>2026-04-25T11:01:32.922Z</time></trkpt><trkpt lat="37.9207933" lon="14.959815"><ele>1049.0</ele><time>2026-04-25T11:01:33.923Z</time></trkpt><trkpt lat="37.9208133" lon="14.9597083"><ele>1049.6000000000001</ele><time>2026-04-25T11:01:34.923Z</time></trkpt><trkpt lat="37.9208567" lon="14.959615"><ele>1050.2</ele><time>2026-04-25T11:01:35.923Z</time></trkpt><trkpt lat="37.9209183" lon="14.9595217"><ele>1050.8000000000002</ele><time>2026-04-25T11:01:36.923Z</time></trkpt><trkpt lat="37.921" lon="14.9594367"><ele>1051.4</ele><time>2026-04-25T11:01:37.923Z</time></trkpt><trkpt lat="37.9210733" lon="14.9593433"><ele>1052.0</ele><time>2026-04-25T11:01:38.923Z</time></trkpt><trkpt lat="37.9211583" lon="14.95925"><ele>1056.0</ele><time>2026-04-25T11:01:39.923Z</time></trkpt><trkpt lat="37.9212433" lon="14.9591583"><ele>1060.0</ele><time>2026-04-25T11:01:40.923Z</time></trkpt><trkpt lat="37.9213333" lon="14.9590583"><ele>1064.0</ele><time>2026-04-25T11:01:41.923Z</time></trkpt><trkpt lat="37.921425" lon="14.9589533"><ele>1068.0</ele><time>2026-04-25T11:01:42.923Z</time></trkpt><trkpt lat="37.9215067" lon="14.958835"><ele>1068.0</ele><time>2026-04-25T11:01:43.923Z</time></trkpt><trkpt lat="37.9215933" lon="14.9587167"><ele>1068.0</ele><time>2026-04-25T11:01:44.923Z</time></trkpt><trkpt lat="37.9216817" lon="14.9586067"><ele>1068.0</ele><time>2026-04-25T11:01:45.922Z</time></trkpt><trkpt lat="37.9217717" lon="14.9585"><ele>1068.0</ele><time>2026-04-25T11:01:46.922Z</time></trkpt><trkpt lat="37.921845" lon="14.9583983"><ele>1068.4</ele><time>2026-04-25T11:01:47.923Z</time></trkpt><trkpt lat="37.9219183" lon="14.9583183"><ele>1068.8</ele><time>2026-04-25T11:01:48.922Z</time></trkpt><trkpt lat="37.9219883" lon="14.9582367"><ele>1069.2</ele><time>2026-04-25T11:01:49.922Z</time></trkpt><trkpt lat="37.9220717" lon="14.95816"><ele>1069.6</ele><time>2026-04-25T11:01:50.923Z</time></trkpt><trkpt lat="37.922155" lon="14.9580733"><ele>1070.0</ele><time>2026-04-25T11:01:51.923Z</time></trkpt><trkpt lat="37.9222333" lon="14.9579933"><ele>1070.0</ele><time>2026-04-25T11:01:52.922Z</time></trkpt><trkpt lat="37.9223183" lon="14.957915"><ele>1070.0</ele><time>2026-04-25T11:01:53.923Z</time></trkpt><trkpt lat="37.9224167" lon="14.95785"><ele>1070.0</ele><time>2026-04-25T11:01:54.922Z</time></trkpt><trkpt lat="37.92253" lon="14.9578167"><ele>1070.0</ele><time>2026-04-25T11:01:55.923Z</time></trkpt><trkpt lat="37.9226467" lon="14.9578083"><ele>1070.0</ele><time>2026-04-25T11:01:56.923Z</time></trkpt><trkpt lat="37.9227617" lon="14.9578067"><ele>1070.75</ele><time>2026-04-25T11:01:57.923Z</time></trkpt><trkpt lat="37.92287" lon="14.957815"><ele>1071.5</ele><time>2026-04-25T11:01:58.923Z</time></trkpt><trkpt lat="37.92299" lon="14.9578167"><ele>1072.25</ele><time>2026-04-25T11:01:59.923Z</time></trkpt><trkpt lat="37.92311" lon="14.957815"><ele>1073.0</ele><time>2026-04-25T11:02:00.922Z</time></trkpt><trkpt lat="37.9232317" lon="14.9578067"><ele>1073.0</ele><time>2026-04-25T11:02:01.922Z</time></trkpt><trkpt lat="37.923365" lon="14.9578083"><ele>1073.0</ele><time>2026-04-25T11:02:02.922Z</time></trkpt><trkpt lat="37.9234933" lon="14.9578067"><ele>1073.0</ele><time>2026-04-25T11:02:03.922Z</time></trkpt><trkpt lat="37.9236233" lon="14.9578167"><ele>1073.0</ele><time>2026-04-25T11:02:04.923Z</time></trkpt><trkpt lat="37.9237583" lon="14.95784"><ele>1076.25</ele><time>2026-04-25T11:02:05.922Z</time></trkpt><trkpt lat="37.9238917" lon="14.9578933"><ele>1079.5</ele><time>2026-04-25T11:02:06.923Z</time></trkpt><trkpt lat="37.92402" lon="14.957975"><ele>1082.75</ele><time>2026-04-25T11:02:07.923Z</time></trkpt><trkpt lat="37.924145" lon="14.9580783"><ele>1086.0</ele><time>2026-04-25T11:02:08.922Z</time></trkpt><trkpt lat="37.9242617" lon="14.9581867"><ele>1086.25</ele><time>2026-04-25T11:02:09.923Z</time></trkpt><trkpt lat="37.92437" lon="14.95831"><ele>1086.5</ele><time>2026-04-25T11:02:10.922Z</time></trkpt><trkpt lat="37.924485" lon="14.9584283"><ele>1086.75</ele><time>2026-04-25T11:02:11.922Z</time></trkpt><trkpt lat="37.9246067" lon="14.9585367"><ele>1087.0</ele><time>2026-04-25T11:02:12.922Z</time></trkpt><trkpt lat="37.9247317" lon="14.9586333"><ele>1087.0</ele><time>2026-04-25T11:02:13.923Z</time></trkpt><trkpt lat="37.9248617" lon="14.9587167"><ele>1087.0</ele><time>2026-04-25T11:02:14.923Z</time></trkpt><trkpt lat="37.9249867" lon="14.958795"><ele>1087.0</ele><time>2026-04-25T11:02:15.922Z</time></trkpt><trkpt lat="37.92512" lon="14.958865"><ele>1087.0</ele><time>2026-04-25T11:02:16.923Z</time></trkpt><trkpt lat="37.925255" lon="14.958925"><ele>1090.25</ele><time>2026-04-25T11:02:17.923Z</time></trkpt><trkpt lat="37.925375" lon="14.958965"><ele>1093.5</ele><time>2026-04-25T11:02:18.922Z</time></trkpt><trkpt lat="37.9254983" lon="14.9589967"><ele>1096.75</ele><time>2026-04-25T11:02:19.923Z</time></trkpt><trkpt lat="37.9256133" lon="14.9590217"><ele>1100.0</ele><time>2026-04-25T11:02:20.922Z</time></trkpt><trkpt lat="37.9257283" lon="14.9590483"><ele>1100.0</ele><time>2026-04-25T11:02:21.923Z</time></trkpt><trkpt lat="37.9258333" lon="14.959105"><ele>1100.0</ele><time>2026-04-25T11:02:22.923Z</time></trkpt><trkpt lat="37.9259067" lon="14.9591867"><ele>1100.0</ele><time>2026-04-25T11:02:23.923Z</time></trkpt><trkpt lat="37.925965" lon="14.95928"><ele>1100.0</ele><time>2026-04-25T11:02:24.923Z</time></trkpt><trkpt lat="37.926025" lon="14.959365"><ele>1100.0</ele><time>2026-04-25T11:02:25.922Z</time></trkpt><trkpt lat="37.9260917" lon="14.959435"><ele>1102.0</ele><time>2026-04-25T11:02:26.923Z</time></trkpt><trkpt lat="37.9261683" lon="14.9594617"><ele>1104.0</ele><time>2026-04-25T11:02:27.922Z</time></trkpt><trkpt lat="37.9262517" lon="14.9594533"><ele>1106.0</ele><time>2026-04-25T11:02:28.923Z</time></trkpt><trkpt lat="37.9263283" lon="14.9593767"><ele>1108.0</ele><time>2026-04-25T11:02:29.923Z</time></trkpt><trkpt lat="37.926405" lon="14.95928"><ele>1110.0</ele><time>2026-04-25T11:02:30.923Z</time></trkpt><trkpt lat="37.9264717" lon="14.95918"><ele>1110.0</ele><time>2026-04-25T11:02:31.923Z</time></trkpt><trkpt lat="37.9265383" lon="14.95909"><ele>1110.0</ele><time>2026-04-25T11:02:32.923Z</time></trkpt><trkpt lat="37.9266183" lon="14.9590067"><ele>1110.0</ele><time>2026-04-25T11:02:33.922Z</time></trkpt><trkpt lat="37.9267083" lon="14.9589283"><ele>1110.0</ele><time>2026-04-25T11:02:34.922Z</time></trkpt><trkpt lat="37.9268067" lon="14.9588433"><ele>1110.0</ele><time>2026-04-25T11:02:35.922Z</time></trkpt><trkpt lat="37.9269117" lon="14.9587617"><ele>1107.5</ele><time>2026-04-25T11:02:36.922Z</time></trkpt><trkpt lat="37.9270217" lon="14.9586833"><ele>1105.0</ele><time>2026-04-25T11:02:37.922Z</time></trkpt><trkpt lat="37.9271333" lon="14.958625"><ele>1102.5</ele><time>2026-04-25T11:02:38.923Z</time></trkpt><trkpt lat="37.92725" lon="14.9585883"><ele>1100.0</ele><time>2026-04-25T11:02:39.923Z</time></trkpt><trkpt lat="37.9273667" lon="14.9585917"><ele>1100.0</ele><time>2026-04-25T11:02:40.923Z</time></trkpt><trkpt lat="37.9274817" lon="14.958635"><ele>1100.0</ele><time>2026-04-25T11:02:41.923Z</time></trkpt><trkpt lat="37.927595" lon="14.95869"><ele>1100.0</ele><time>2026-04-25T11:02:42.923Z</time></trkpt><trkpt lat="37.9277" lon="14.9587483"><ele>1100.0</ele><time>2026-04-25T11:02:43.923Z</time></trkpt><trkpt lat="37.92781" lon="14.9587717"><ele>1097.8</ele><time>2026-04-25T11:02:44.923Z</time></trkpt><trkpt lat="37.9279067" lon="14.9587767"><ele>1095.6</ele><time>2026-04-25T11:02:45.923Z</time></trkpt><trkpt lat="37.9279917" lon="14.958745"><ele>1093.4</ele><time>2026-04-25T11:02:46.922Z</time></trkpt><trkpt lat="37.928085" lon="14.958665"><ele>1091.2</ele><time>2026-04-25T11:02:47.922Z</time></trkpt><trkpt lat="37.9281817" lon="14.95854"><ele>1089.0</ele><time>2026-04-25T11:02:48.923Z</time></trkpt><trkpt lat="37.9282833" lon="14.95837"><ele>1092.0</ele><time>2026-04-25T11:02:49.922Z</time></trkpt><trkpt lat="37.92839" lon="14.9581917"><ele>1095.0</ele><time>2026-04-25T11:02:50.922Z</time></trkpt><trkpt lat="37.9285117" lon="14.9580217"><ele>1098.0</ele><time>2026-04-25T11:02:51.922Z</time></trkpt><trkpt lat="37.9286467" lon="14.95786"><ele>1098.0</ele><time>2026-04-25T11:02:52.922Z</time></trkpt><trkpt lat="37.92879" lon="14.9577067"><ele>1098.0</ele><time>2026-04-25T11:02:53.923Z</time></trkpt><trkpt lat="37.9289383" lon="14.9575717"><ele>1098.0</ele><time>2026-04-25T11:02:54.922Z</time></trkpt><trkpt lat="37.9290767" lon="14.95745"><ele>1097.5</ele><time>2026-04-25T11:02:55.922Z</time></trkpt><trkpt lat="37.9291967" lon="14.9573283"><ele>1097.0</ele><time>2026-04-25T11:02:56.922Z</time></trkpt><trkpt lat="37.9293033" lon="14.957215"><ele>1096.5</ele><time>2026-04-25T11:02:57.923Z</time></trkpt><trkpt lat="37.9293967" lon="14.957095"><ele>1096.0</ele><time>2026-04-25T11:02:58.922Z</time></trkpt><trkpt lat="37.9294633" lon="14.9569567"><ele>1096.0</ele><time>2026-04-25T11:02:59.922Z</time></trkpt><trkpt lat="37.9294933" lon="14.9567917"><ele>1096.0</ele><time>2026-04-25T11:03:00.922Z</time></trkpt><trkpt lat="37.9295133" lon="14.9566183"><ele>1096.0</ele><time>2026-04-25T11:03:01.922Z</time></trkpt><trkpt lat="37.92956" lon="14.95646"><ele>1096.0</ele><time>2026-04-25T11:03:02.922Z</time></trkpt><trkpt lat="37.9296383" lon="14.95631"><ele>1101.5</ele><time>2026-04-25T11:03:03.923Z</time></trkpt><trkpt lat="37.929725" lon="14.9561733"><ele>1107.0</ele><time>2026-04-25T11:03:04.923Z</time></trkpt><trkpt lat="37.9298167" lon="14.9560433"><ele>1112.5</ele><time>2026-04-25T11:03:05.923Z</time></trkpt><trkpt lat="37.9299183" lon="14.9559067"><ele>1118.0</ele><time>2026-04-25T11:03:06.923Z</time></trkpt><trkpt lat="37.9300417" lon="14.955785"><ele>1119.6666666666667</ele><time>2026-04-25T11:03:07.923Z</time></trkpt><trkpt lat="37.9301733" lon="14.9556767"><ele>1121.3333333333333</ele><time>2026-04-25T11:03:08.922Z</time></trkpt><trkpt lat="37.9303183" lon="14.9555817"><ele>1123.0</ele><time>2026-04-25T11:03:09.922Z</time></trkpt><trkpt lat="37.93046" lon="14.9554867"><ele>1123.0</ele><time>2026-04-25T11:03:10.923Z</time></trkpt><trkpt lat="37.9306" lon="14.9553767"><ele>1123.0</ele><time>2026-04-25T11:03:11.923Z</time></trkpt><trkpt lat="37.9307267" lon="14.95527"><ele>1123.0</ele><time>2026-04-25T11:03:12.922Z</time></trkpt><trkpt lat="37.9308517" lon="14.9551683"><ele>1121.75</ele><time>2026-04-25T11:03:13.922Z</time></trkpt><trkpt lat="37.9309667" lon="14.9550833"><ele>1120.5</ele><time>2026-04-25T11:03:14.923Z</time></trkpt><trkpt lat="37.931085" lon="14.9550133"><ele>1119.25</ele><time>2026-04-25T11:03:15.923Z</time></trkpt><trkpt lat="37.9312083" lon="14.9549867"><ele>1118.0</ele><time>2026-04-25T11:03:16.923Z</time></trkpt><trkpt lat="37.931335" lon="14.954985"><ele>1120.5</ele><time>2026-04-25T11:03:17.922Z</time></trkpt><trkpt lat="37.9314733" lon="14.9549933"><ele>1123.0</ele><time>2026-04-25T11:03:18.923Z</time></trkpt><trkpt lat="37.931615" lon="14.954995"><ele>1125.5</ele><time>2026-04-25T11:03:19.922Z</time></trkpt><trkpt lat="37.9317533" lon="14.9549767"><ele>1128.0</ele><time>2026-04-25T11:03:20.923Z</time></trkpt><trkpt lat="37.9319033" lon="14.9549233"><ele>1128.0</ele><time>2026-04-25T11:03:21.922Z</time></trkpt><trkpt lat="37.9320483" lon="14.954845"><ele>1128.0</ele><time>2026-04-25T11:03:22.922Z</time></trkpt><trkpt lat="37.9321933" lon="14.9547767"><ele>1128.0</ele><time>2026-04-25T11:03:23.922Z</time></trkpt><trkpt lat="37.93233" lon="14.954705"><ele>1128.0</ele><time>2026-04-25T11:03:24.923Z</time></trkpt><trkpt lat="37.9324467" lon="14.9546217"><ele>1128.0</ele><time>2026-04-25T11:03:25.922Z</time></trkpt><trkpt lat="37.9325333" lon="14.9545117"><ele>1128.0</ele><time>2026-04-25T11:03:26.922Z</time></trkpt><trkpt lat="37.932605" lon="14.95436"><ele>1128.0</ele><time>2026-04-25T11:03:27.922Z</time></trkpt><trkpt lat="37.9326783" lon="14.9541933"><ele>1129.0</ele><time>2026-04-25T11:03:28.921Z</time></trkpt><trkpt lat="37.9327583" lon="14.9540333"><ele>1130.0</ele><time>2026-04-25T11:03:29.921Z</time></trkpt><trkpt lat="37.9328417" lon="14.9538817"><ele>1131.0</ele><time>2026-04-25T11:03:30.921Z</time></trkpt><trkpt lat="37.9329267" lon="14.9537417"><ele>1132.0</ele><time>2026-04-25T11:03:31.921Z</time></trkpt><trkpt lat="37.93301" lon="14.9536167"><ele>1132.0</ele><time>2026-04-25T11:03:32.921Z</time></trkpt><trkpt lat="37.933095" lon="14.9535183"><ele>1132.0</ele><time>2026-04-25T11:03:33.921Z</time></trkpt><trkpt lat="37.9331817" lon="14.9534517"><ele>1132.0</ele><time>2026-04-25T11:03:34.922Z</time></trkpt><trkpt lat="37.9332683" lon="14.9534183"><ele>1132.0</ele><time>2026-04-25T11:03:35.922Z</time></trkpt><trkpt lat="37.93336" lon="14.9534183"><ele>1132.0</ele><time>2026-04-25T11:03:36.922Z</time></trkpt><trkpt lat="37.9334417" lon="14.953465"><ele>1138.0</ele><time>2026-04-25T11:03:37.922Z</time></trkpt><trkpt lat="37.9334983" lon="14.95355"><ele>1144.0</ele><time>2026-04-25T11:03:38.921Z</time></trkpt><trkpt lat="37.93349" lon="14.95369"><ele>1150.0</ele><time>2026-04-25T11:03:39.922Z</time></trkpt><trkpt lat="37.9334667" lon="14.9538317"><ele>1156.0</ele><time>2026-04-25T11:03:40.922Z</time></trkpt><trkpt lat="37.9334533" lon="14.9539933"><ele>1162.0</ele><time>2026-04-25T11:03:41.922Z</time></trkpt><trkpt lat="37.9334617" lon="14.9541667"><ele>1156.6666666666665</ele><time>2026-04-25T11:03:42.921Z</time></trkpt><trkpt lat="37.93351" lon="14.9543433"><ele>1151.3333333333333</ele><time>2026-04-25T11:03:43.921Z</time></trkpt><trkpt lat="37.9335883" lon="14.9545183"><ele>1146.0</ele><time>2026-04-25T11:03:44.921Z</time></trkpt><trkpt lat="37.9336667" lon="14.954695"><ele>1146.0</ele><time>2026-04-25T11:03:45.922Z</time></trkpt><trkpt lat="37.9337467" lon="14.9548817"><ele>1146.0</ele><time>2026-04-25T11:03:46.921Z</time></trkpt><trkpt lat="37.933825" lon="14.955065"><ele>1146.0</ele><time>2026-04-25T11:03:47.922Z</time></trkpt><trkpt lat="37.9339033" lon="14.9552583"><ele>1142.3333333333333</ele><time>2026-04-25T11:03:48.922Z</time></trkpt><trkpt lat="37.9339633" lon="14.95546"><ele>1138.6666666666665</ele><time>2026-04-25T11:03:49.921Z</time></trkpt><trkpt lat="37.9339817" lon="14.95565"><ele>1135.0</ele><time>2026-04-25T11:03:50.922Z</time></trkpt><trkpt lat="37.9339967" lon="14.9558517"><ele>1135.3333333333333</ele><time>2026-04-25T11:03:51.922Z</time></trkpt><trkpt lat="37.9340317" lon="14.9560333"><ele>1135.6666666666667</ele><time>2026-04-25T11:03:52.922Z</time></trkpt><trkpt lat="37.93407" lon="14.95623"><ele>1136.0</ele><time>2026-04-25T11:03:53.921Z</time></trkpt><trkpt lat="37.93409" lon="14.9564233"><ele>1136.0</ele><time>2026-04-25T11:03:54.921Z</time></trkpt><trkpt lat="37.9340917" lon="14.9566217"><ele>1136.0</ele><time>2026-04-25T11:03:55.922Z</time></trkpt><trkpt lat="37.93409" lon="14.9568067"><ele>1136.0</ele><time>2026-04-25T11:03:56.922Z</time></trkpt><trkpt lat="37.9340917" lon="14.9569883"><ele>1136.0</ele><time>2026-04-25T11:03:57.922Z</time></trkpt><trkpt lat="37.934115" lon="14.9571583"><ele>1134.0</ele><time>2026-04-25T11:03:58.921Z</time></trkpt><trkpt lat="37.934155" lon="14.9573133"><ele>1132.0</ele><time>2026-04-25T11:03:59.921Z</time></trkpt><trkpt lat="37.9342383" lon="14.95744"><ele>1130.0</ele><time>2026-04-25T11:04:00.922Z</time></trkpt><trkpt lat="37.93436" lon="14.9575433"><ele>1128.0</ele><time>2026-04-25T11:04:01.921Z</time></trkpt><trkpt lat="37.9344983" lon="14.9576283"><ele>1125.3333333333333</ele><time>2026-04-25T11:04:02.921Z</time></trkpt><trkpt lat="37.934645" lon="14.95771"><ele>1122.6666666666665</ele><time>2026-04-25T11:04:03.921Z</time></trkpt><trkpt lat="37.93479" lon="14.9577983"><ele>1120.0</ele><time>2026-04-25T11:04:04.922Z</time></trkpt><trkpt lat="37.9349267" lon="14.9578933"><ele>1124.75</ele><time>2026-04-25T11:04:05.922Z</time></trkpt><trkpt lat="37.9350617" lon="14.9579833"><ele>1129.5</ele><time>2026-04-25T11:04:06.921Z</time></trkpt><trkpt lat="37.93519" lon="14.9580667"><ele>1134.25</ele><time>2026-04-25T11:04:07.921Z</time></trkpt><trkpt lat="37.935325" lon="14.958105"><ele>1139.0</ele><time>2026-04-25T11:04:08.921Z</time></trkpt><trkpt lat="37.9354583" lon="14.9581017"><ele>1139.0</ele><time>2026-04-25T11:04:09.921Z</time></trkpt><trkpt lat="37.9355833" lon="14.9581"><ele>1139.0</ele><time>2026-04-25T11:04:10.921Z</time></trkpt><trkpt lat="37.93572" lon="14.95812"><ele>1139.0</ele><time>2026-04-25T11:04:11.922Z</time></trkpt><trkpt lat="37.9358467" lon="14.9581767"><ele>1139.0</ele><time>2026-04-25T11:04:12.921Z</time></trkpt><trkpt lat="37.9359617" lon="14.9582733"><ele>1138.0</ele><time>2026-04-25T11:04:13.921Z</time></trkpt><trkpt lat="37.9360683" lon="14.9583983"><ele>1137.0</ele><time>2026-04-25T11:04:14.921Z</time></trkpt><trkpt lat="37.936175" lon="14.958535"><ele>1136.0</ele><time>2026-04-25T11:04:15.921Z</time></trkpt><trkpt lat="37.9362917" lon="14.958675"><ele>1136.0</ele><time>2026-04-25T11:04:16.921Z</time></trkpt><trkpt lat="37.9364183" lon="14.9588033"><ele>1136.0</ele><time>2026-04-25T11:04:17.922Z</time></trkpt><trkpt lat="37.9365517" lon="14.9589217"><ele>1136.0</ele><time>2026-04-25T11:04:18.922Z</time></trkpt><trkpt lat="37.9366883" lon="14.9590267"><ele>1138.6666666666667</ele><time>2026-04-25T11:04:19.922Z</time></trkpt><trkpt lat="37.936835" lon="14.9591117"><ele>1141.3333333333333</ele><time>2026-04-25T11:04:20.921Z</time></trkpt><trkpt lat="37.936995" lon="14.95915"><ele>1144.0</ele><time>2026-04-25T11:04:21.922Z</time></trkpt><trkpt lat="37.9371517" lon="14.9591667"><ele>1144.0</ele><time>2026-04-25T11:04:22.922Z</time></trkpt><trkpt lat="37.9373217" lon="14.9591633"><ele>1144.0</ele><time>2026-04-25T11:04:23.922Z</time></trkpt><trkpt lat="37.9374867" lon="14.9591367"><ele>1144.0</ele><time>2026-04-25T11:04:24.921Z</time></trkpt><trkpt lat="37.9376667" lon="14.959085"><ele>1144.0</ele><time>2026-04-25T11:04:25.922Z</time></trkpt><trkpt lat="37.9378383" lon="14.9590333"><ele>1144.0</ele><time>2026-04-25T11:04:26.921Z</time></trkpt><trkpt lat="37.9380067" lon="14.9589783"><ele>1144.0</ele><time>2026-04-25T11:04:27.922Z</time></trkpt><trkpt lat="37.9381667" lon="14.9589267"><ele>1144.0</ele><time>2026-04-25T11:04:28.922Z</time></trkpt><trkpt lat="37.9383183" lon="14.9588867"><ele>1144.0</ele><time>2026-04-25T11:04:29.922Z</time></trkpt><trkpt lat="37.9384617" lon="14.95888"><ele>1144.0</ele><time>2026-04-25T11:04:30.922Z</time></trkpt><trkpt lat="37.9385983" lon="14.9589083"><ele>1144.0</ele><time>2026-04-25T11:04:31.921Z</time></trkpt><trkpt lat="37.9387267" lon="14.9589783"><ele>1140.3333333333333</ele><time>2026-04-25T11:04:32.922Z</time></trkpt><trkpt lat="37.938855" lon="14.9590767"><ele>1136.6666666666667</ele><time>2026-04-25T11:04:33.922Z</time></trkpt><trkpt lat="37.9389883" lon="14.9592"><ele>1133.0</ele><time>2026-04-25T11:04:34.922Z</time></trkpt><trkpt lat="37.939125" lon="14.959325"><ele>1140.6666666666667</ele><time>2026-04-25T11:04:35.921Z</time></trkpt><trkpt lat="37.9392667" lon="14.9594583"><ele>1148.3333333333333</ele><time>2026-04-25T11:04:36.922Z</time></trkpt><trkpt lat="37.93941" lon="14.95959"><ele>1156.0</ele><time>2026-04-25T11:04:37.922Z</time></trkpt><trkpt lat="37.9395567" lon="14.9597067"><ele>1156.0</ele><time>2026-04-25T11:04:38.922Z</time></trkpt><trkpt lat="37.9397017" lon="14.9598333"><ele>1156.0</ele><time>2026-04-25T11:04:39.922Z</time></trkpt><trkpt lat="37.9398333" lon="14.95997"><ele>1156.0</ele><time>2026-04-25T11:04:40.921Z</time></trkpt><trkpt lat="37.9399367" lon="14.9601083"><ele>1152.3999999999999</ele><time>2026-04-25T11:04:41.921Z</time></trkpt><trkpt lat="37.940025" lon="14.9602317"><ele>1148.8</ele><time>2026-04-25T11:04:42.921Z</time></trkpt><trkpt lat="37.9401067" lon="14.9603267"><ele>1145.1999999999998</ele><time>2026-04-25T11:04:43.922Z</time></trkpt><trkpt lat="37.9402033" lon="14.9603567"><ele>1141.6</ele><time>2026-04-25T11:04:44.922Z</time></trkpt><trkpt lat="37.9402883" lon="14.9603517"><ele>1138.0</ele><time>2026-04-25T11:04:45.922Z</time></trkpt><trkpt lat="37.940375" lon="14.9603083"><ele>1138.0</ele><time>2026-04-25T11:04:46.922Z</time></trkpt><trkpt lat="37.9404633" lon="14.96024"><ele>1138.0</ele><time>2026-04-25T11:04:47.922Z</time></trkpt><trkpt lat="37.940535" lon="14.9601267"><ele>1138.0</ele><time>2026-04-25T11:04:48.921Z</time></trkpt><trkpt lat="37.9406017" lon="14.96"><ele>1138.0</ele><time>2026-04-25T11:04:49.921Z</time></trkpt><trkpt lat="37.9406783" lon="14.9598833"><ele>1143.2</ele><time>2026-04-25T11:04:50.922Z</time></trkpt><trkpt lat="37.94076" lon="14.9597967"><ele>1148.4</ele><time>2026-04-25T11:04:51.922Z</time></trkpt><trkpt lat="37.940855" lon="14.9597467"><ele>1153.6000000000001</ele><time>2026-04-25T11:04:52.922Z</time></trkpt><trkpt lat="37.9409633" lon="14.9597317"><ele>1158.8</ele><time>2026-04-25T11:04:53.922Z</time></trkpt><trkpt lat="37.9410833" lon="14.959745"><ele>1164.0</ele><time>2026-04-25T11:04:54.922Z</time></trkpt><trkpt lat="37.94122" lon="14.9597867"><ele>1165.0</ele><time>2026-04-25T11:04:55.922Z</time></trkpt><trkpt lat="37.941355" lon="14.9598467"><ele>1166.0</ele><time>2026-04-25T11:04:56.922Z</time></trkpt><trkpt lat="37.9415" lon="14.959925"><ele>1167.0</ele><time>2026-04-25T11:04:57.921Z</time></trkpt><trkpt lat="37.9416367" lon="14.9600283"><ele>1159.5</ele><time>2026-04-25T11:04:58.922Z</time></trkpt><trkpt lat="37.94177" lon="14.9601383"><ele>1152.0</ele><time>2026-04-25T11:04:59.922Z</time></trkpt><trkpt lat="37.9418867" lon="14.9602217"><ele>1144.5</ele><time>2026-04-25T11:05:00.921Z</time></trkpt><trkpt lat="37.9419983" lon="14.9602783"><ele>1137.0</ele><time>2026-04-25T11:05:01.921Z</time></trkpt><trkpt lat="37.9421017" lon="14.9602917"><ele>1137.0</ele><time>2026-04-25T11:05:02.922Z</time></trkpt><trkpt lat="37.9421917" lon="14.9602533"><ele>1137.0</ele><time>2026-04-25T11:05:03.921Z</time></trkpt><trkpt lat="37.942265" lon="14.9601567"><ele>1137.0</ele><time>2026-04-25T11:05:04.922Z</time></trkpt><trkpt lat="37.9423167" lon="14.960035"><ele>1137.0</ele><time>2026-04-25T11:05:05.921Z</time></trkpt><trkpt lat="37.9423417" lon="14.9598783"><ele>1137.0</ele><time>2026-04-25T11:05:06.922Z</time></trkpt><trkpt lat="37.942365" lon="14.9597183"><ele>1138.5</ele><time>2026-04-25T11:05:07.922Z</time></trkpt><trkpt lat="37.9424033" lon="14.9595617"><ele>1140.0</ele><time>2026-04-25T11:05:08.921Z</time></trkpt><trkpt lat="37.9424583" lon="14.9594383"><ele>1141.5</ele><time>2026-04-25T11:05:09.921Z</time></trkpt><trkpt lat="37.9425517" lon="14.9593817"><ele>1143.0</ele><time>2026-04-25T11:05:10.921Z</time></trkpt><trkpt lat="37.9426617" lon="14.9593317"><ele>1143.0</ele><time>2026-04-25T11:05:11.921Z</time></trkpt><trkpt lat="37.942795" lon="14.9592917"><ele>1143.0</ele><time>2026-04-25T11:05:12.921Z</time></trkpt><trkpt lat="37.9429233" lon="14.9592383"><ele>1143.0</ele><time>2026-04-25T11:05:13.921Z</time></trkpt><trkpt lat="37.9430733" lon="14.9591733"><ele>1143.0</ele><time>2026-04-25T11:05:14.922Z</time></trkpt><trkpt lat="37.9432067" lon="14.9590867"><ele>1149.0</ele><time>2026-04-25T11:05:15.921Z</time></trkpt><trkpt lat="37.9433433" lon="14.9590033"><ele>1155.0</ele><time>2026-04-25T11:05:16.922Z</time></trkpt><trkpt lat="37.9434717" lon="14.95891"><ele>1161.0</ele><time>2026-04-25T11:05:17.921Z</time></trkpt><trkpt lat="37.9436017" lon="14.9588117"><ele>1161.5</ele><time>2026-04-25T11:05:18.921Z</time></trkpt><trkpt lat="37.943725" lon="14.9587117"><ele>1162.0</ele><time>2026-04-25T11:05:19.922Z</time></trkpt><trkpt lat="37.9438383" lon="14.9586317"><ele>1162.5</ele><time>2026-04-25T11:05:20.921Z</time></trkpt><trkpt lat="37.9439583" lon="14.9585917"><ele>1163.0</ele><time>2026-04-25T11:05:21.921Z</time></trkpt><trkpt lat="37.94406" lon="14.9585917"><ele>1163.0</ele><time>2026-04-25T11:05:22.922Z</time></trkpt><trkpt lat="37.9441233" lon="14.9586517"><ele>1163.0</ele><time>2026-04-25T11:05:23.922Z</time></trkpt><trkpt lat="37.9441817" lon="14.9587283"><ele>1163.0</ele><time>2026-04-25T11:05:24.922Z</time></trkpt><trkpt lat="37.944235" lon="14.95883"><ele>1163.0</ele><time>2026-04-25T11:05:25.921Z</time></trkpt><trkpt lat="37.944275" lon="14.95896"><ele>1163.0</ele><time>2026-04-25T11:05:26.922Z</time></trkpt><trkpt lat="37.944315" lon="14.959105"><ele>1162.5</ele><time>2026-04-25T11:05:27.922Z</time></trkpt><trkpt lat="37.9443583" lon="14.9592667"><ele>1162.0</ele><time>2026-04-25T11:05:28.922Z</time></trkpt><trkpt lat="37.9444133" lon="14.959425"><ele>1161.5</ele><time>2026-04-25T11:05:29.921Z</time></trkpt><trkpt lat="37.9444733" lon="14.9595533"><ele>1161.0</ele><time>2026-04-25T11:05:30.922Z</time></trkpt><trkpt lat="37.94454" lon="14.9596467"><ele>1161.0</ele><time>2026-04-25T11:05:31.921Z</time></trkpt><trkpt lat="37.9446133" lon="14.95971"><ele>1161.0</ele><time>2026-04-25T11:05:32.922Z</time></trkpt><trkpt lat="37.9447033" lon="14.9597333"><ele>1161.0</ele><time>2026-04-25T11:05:33.921Z</time></trkpt><trkpt lat="37.9448017" lon="14.959735"><ele>1161.0</ele><time>2026-04-25T11:05:34.922Z</time></trkpt><trkpt lat="37.944915" lon="14.9597233"><ele>1161.0</ele><time>2026-04-25T11:05:35.922Z</time></trkpt><trkpt lat="37.9450267" lon="14.9597317"><ele>1160.75</ele><time>2026-04-25T11:05:36.921Z</time></trkpt><trkpt lat="37.94514" lon="14.9597633"><ele>1160.5</ele><time>2026-04-25T11:05:37.922Z</time></trkpt><trkpt lat="37.9452417" lon="14.95983"><ele>1160.25</ele><time>2026-04-25T11:05:38.921Z</time></trkpt><trkpt lat="37.9453183" lon="14.9599317"><ele>1160.0</ele><time>2026-04-25T11:05:39.921Z</time></trkpt><trkpt lat="37.9453833" lon="14.960065"><ele>1160.0</ele><time>2026-04-25T11:05:40.922Z</time></trkpt><trkpt lat="37.9454533" lon="14.9602067"><ele>1160.0</ele><time>2026-04-25T11:05:41.922Z</time></trkpt><trkpt lat="37.945545" lon="14.9603383"><ele>1160.0</ele><time>2026-04-25T11:05:42.921Z</time></trkpt><trkpt lat="37.9456517" lon="14.9604567"><ele>1160.0</ele><time>2026-04-25T11:05:43.922Z</time></trkpt><trkpt lat="37.9457717" lon="14.9605767"><ele>1157.75</ele><time>2026-04-25T11:05:44.922Z</time></trkpt><trkpt lat="37.94589" lon="14.9606933"><ele>1155.5</ele><time>2026-04-25T11:05:45.921Z</time></trkpt><trkpt lat="37.946005" lon="14.9608133"><ele>1153.25</ele><time>2026-04-25T11:05:46.922Z</time></trkpt><trkpt lat="37.9461167" lon="14.9609083"><ele>1151.0</ele><time>2026-04-25T11:05:47.921Z</time></trkpt><trkpt lat="37.9462283" lon="14.9609683"><ele>1151.0</ele><time>2026-04-25T11:05:48.922Z</time></trkpt><trkpt lat="37.9463433" lon="14.96099"><ele>1151.0</ele><time>2026-04-25T11:05:49.921Z</time></trkpt><trkpt lat="37.9464583" lon="14.960975"><ele>1151.0</ele><time>2026-04-25T11:05:50.922Z</time></trkpt><trkpt lat="37.94659" lon="14.9609283"><ele>1151.0</ele><time>2026-04-25T11:05:51.922Z</time></trkpt><trkpt lat="37.94673" lon="14.9608717"><ele>1155.25</ele><time>2026-04-25T11:05:52.921Z</time></trkpt><trkpt lat="37.9468733" lon="14.960825"><ele>1159.5</ele><time>2026-04-25T11:05:53.922Z</time></trkpt><trkpt lat="37.94701" lon="14.960775"><ele>1163.75</ele><time>2026-04-25T11:05:54.921Z</time></trkpt><trkpt lat="37.9471517" lon="14.960735"><ele>1168.0</ele><time>2026-04-25T11:05:55.922Z</time></trkpt><trkpt lat="37.9472967" lon="14.9607017"><ele>1168.0</ele><time>2026-04-25T11:05:56.922Z</time></trkpt><trkpt lat="37.9474433" lon="14.9606917"><ele>1168.0</ele><time>2026-04-25T11:05:57.922Z</time></trkpt><trkpt lat="37.9475867" lon="14.9607033"><ele>1168.0</ele><time>2026-04-25T11:05:58.922Z</time></trkpt><trkpt lat="37.9477333" lon="14.9607183"><ele>1168.0</ele><time>2026-04-25T11:05:59.921Z</time></trkpt><trkpt lat="37.9478833" lon="14.9607283"><ele>1166.75</ele><time>2026-04-25T11:06:00.922Z</time></trkpt><trkpt lat="37.94802" lon="14.9607183"><ele>1165.5</ele><time>2026-04-25T11:06:01.921Z</time></trkpt><trkpt lat="37.9481467" lon="14.9606733"><ele>1164.25</ele><time>2026-04-25T11:06:02.922Z</time></trkpt><trkpt lat="37.9482467" lon="14.9605917"><ele>1163.0</ele><time>2026-04-25T11:06:03.921Z</time></trkpt><trkpt lat="37.9483467" lon="14.9604817"><ele>1162.75</ele><time>2026-04-25T11:06:04.921Z</time></trkpt><trkpt lat="37.9484367" lon="14.9603417"><ele>1162.5</ele><time>2026-04-25T11:06:05.922Z</time></trkpt><trkpt lat="37.94852" lon="14.9601917"><ele>1162.25</ele><time>2026-04-25T11:06:06.922Z</time></trkpt><trkpt lat="37.9486" lon="14.9600267"><ele>1162.0</ele><time>2026-04-25T11:06:07.922Z</time></trkpt><trkpt lat="37.9486933" lon="14.9598533"><ele>1163.0</ele><time>2026-04-25T11:06:08.922Z</time></trkpt><trkpt lat="37.94878" lon="14.9596883"><ele>1164.0</ele><time>2026-04-25T11:06:09.921Z</time></trkpt><trkpt lat="37.9488733" lon="14.9595367"><ele>1165.0</ele><time>2026-04-25T11:06:10.922Z</time></trkpt><trkpt lat="37.9489717" lon="14.95939"><ele>1165.0</ele><time>2026-04-25T11:06:11.922Z</time></trkpt><trkpt lat="37.94908" lon="14.9592583"><ele>1165.0</ele><time>2026-04-25T11:06:12.922Z</time></trkpt><trkpt lat="37.9492067" lon="14.9591533"><ele>1165.0</ele><time>2026-04-25T11:06:13.921Z</time></trkpt><trkpt lat="37.94934" lon="14.9590583"><ele>1166.3333333333333</ele><time>2026-04-25T11:06:14.922Z</time></trkpt><trkpt lat="37.9494767" lon="14.95897"><ele>1167.6666666666667</ele><time>2026-04-25T11:06:15.921Z</time></trkpt><trkpt lat="37.9496117" lon="14.9588767"><ele>1169.0</ele><time>2026-04-25T11:06:16.922Z</time></trkpt><trkpt lat="37.94975" lon="14.958775"><ele>1169.0</ele><time>2026-04-25T11:06:17.922Z</time></trkpt><trkpt lat="37.9498817" lon="14.958665"><ele>1169.0</ele><time>2026-04-25T11:06:18.921Z</time></trkpt><trkpt lat="37.95001" lon="14.9585433"><ele>1169.0</ele><time>2026-04-25T11:06:19.921Z</time></trkpt><trkpt lat="37.9501383" lon="14.9584283"><ele>1171.0</ele><time>2026-04-25T11:06:20.922Z</time></trkpt><trkpt lat="37.950275" lon="14.9583167"><ele>1173.0</ele><time>2026-04-25T11:06:21.921Z</time></trkpt><trkpt lat="37.950415" lon="14.9582117"><ele>1175.0</ele><time>2026-04-25T11:06:22.921Z</time></trkpt><trkpt lat="37.9505517" lon="14.9581083"><ele>1175.0</ele><time>2026-04-25T11:06:23.922Z</time></trkpt><trkpt lat="37.950685" lon="14.9580033"><ele>1175.0</ele><time>2026-04-25T11:06:24.922Z</time></trkpt><trkpt lat="37.9508217" lon="14.95791"><ele>1175.0</ele><time>2026-04-25T11:06:25.922Z</time></trkpt><trkpt lat="37.9509533" lon="14.9578183"><ele>1182.5</ele><time>2026-04-25T11:06:26.922Z</time></trkpt><trkpt lat="37.9510817" lon="14.957735"><ele>1190.0</ele><time>2026-04-25T11:06:27.922Z</time></trkpt><trkpt lat="37.95121" lon="14.9576633"><ele>1197.5</ele><time>2026-04-25T11:06:28.921Z</time></trkpt><trkpt lat="37.951345" lon="14.9576067"><ele>1205.0</ele><time>2026-04-25T11:06:29.922Z</time></trkpt><trkpt lat="37.9514883" lon="14.9575667"><ele>1205.0</ele><time>2026-04-25T11:06:30.922Z</time></trkpt><trkpt lat="37.951625" lon="14.9575417"><ele>1205.0</ele><time>2026-04-25T11:06:31.922Z</time></trkpt><trkpt lat="37.951775" lon="14.9575383"><ele>1205.0</ele><time>2026-04-25T11:06:32.922Z</time></trkpt><trkpt lat="37.951915" lon="14.9575617"><ele>1205.0</ele><time>2026-04-25T11:06:33.922Z</time></trkpt><trkpt lat="37.9520633" lon="14.957595"><ele>1212.3333333333335</ele><time>2026-04-25T11:06:34.922Z</time></trkpt><trkpt lat="37.9522183" lon="14.957615"><ele>1219.6666666666667</ele><time>2026-04-25T11:06:35.921Z</time></trkpt><trkpt lat="37.9523717" lon="14.957605"><ele>1227.0</ele><time>2026-04-25T11:06:36.922Z</time></trkpt><trkpt lat="37.9525233" lon="14.9575883"><ele>1230.0</ele><time>2026-04-25T11:06:37.921Z</time></trkpt><trkpt lat="37.952675" lon="14.9575617"><ele>1233.0</ele><time>2026-04-25T11:06:38.922Z</time></trkpt><trkpt lat="37.9528217" lon="14.9575317"><ele>1236.0</ele><time>2026-04-25T11:06:39.922Z</time></trkpt><trkpt lat="37.9529667" lon="14.9575083"><ele>1239.0</ele><time>2026-04-25T11:06:40.921Z</time></trkpt><trkpt lat="37.95311" lon="14.957485"><ele>1236.0</ele><time>2026-04-25T11:06:41.921Z</time></trkpt><trkpt lat="37.95325" lon="14.957445"><ele>1233.0</ele><time>2026-04-25T11:06:42.922Z</time></trkpt><trkpt lat="37.9533767" lon="14.95738"><ele>1230.0</ele><time>2026-04-25T11:06:43.922Z</time></trkpt><trkpt lat="37.9534867" lon="14.957295"><ele>1227.0</ele><time>2026-04-25T11:06:44.922Z</time></trkpt><trkpt lat="37.9535833" lon="14.9571833"><ele>1227.0</ele><time>2026-04-25T11:06:45.922Z</time></trkpt><trkpt lat="37.9536567" lon="14.9570483"><ele>1227.0</ele><time>2026-04-25T11:06:46.922Z</time></trkpt><trkpt lat="37.9537117" lon="14.9568867"><ele>1227.0</ele><time>2026-04-25T11:06:47.921Z</time></trkpt><trkpt lat="37.9537733" lon="14.95672"><ele>1227.0</ele><time>2026-04-25T11:06:48.922Z</time></trkpt><trkpt lat="37.953855" lon="14.9565617"><ele>1229.0</ele><time>2026-04-25T11:06:49.921Z</time></trkpt><trkpt lat="37.95396" lon="14.95643"><ele>1231.0</ele><time>2026-04-25T11:06:50.921Z</time></trkpt><trkpt lat="37.954075" lon="14.9563133"><ele>1233.0</ele><time>2026-04-25T11:06:51.922Z</time></trkpt><trkpt lat="37.9542067" lon="14.9562017"><ele>1233.0</ele><time>2026-04-25T11:06:52.922Z</time></trkpt><trkpt lat="37.9543383" lon="14.9560833"><ele>1233.0</ele><time>2026-04-25T11:06:53.922Z</time></trkpt><trkpt lat="37.9544667" lon="14.955965"><ele>1233.0</ele><time>2026-04-25T11:06:54.922Z</time></trkpt><trkpt lat="37.9545917" lon="14.955845"><ele>1224.3333333333333</ele><time>2026-04-25T11:06:55.922Z</time></trkpt><trkpt lat="37.9547317" lon="14.955745"><ele>1215.6666666666665</ele><time>2026-04-25T11:06:56.921Z</time></trkpt><trkpt lat="37.95487" lon="14.95567"><ele>1207.0</ele><time>2026-04-25T11:06:57.921Z</time></trkpt><trkpt lat="37.955015" lon="14.9556083"><ele>1213.3333333333333</ele><time>2026-04-25T11:06:58.922Z</time></trkpt><trkpt lat="37.955165" lon="14.955555"><ele>1219.6666666666667</ele><time>2026-04-25T11:06:59.921Z</time></trkpt><trkpt lat="37.9553167" lon="14.955505"><ele>1226.0</ele><time>2026-04-25T11:07:00.922Z</time></trkpt><trkpt lat="37.9554617" lon="14.95545"><ele>1226.0</ele><time>2026-04-25T11:07:01.921Z</time></trkpt><trkpt lat="37.9556" lon="14.9553733"><ele>1226.0</ele><time>2026-04-25T11:07:02.922Z</time></trkpt><trkpt lat="37.9557267" lon="14.955275"><ele>1226.0</ele><time>2026-04-25T11:07:03.922Z</time></trkpt><trkpt lat="37.955855" lon="14.9551517"><ele>1224.6666666666667</ele><time>2026-04-25T11:07:04.921Z</time></trkpt><trkpt lat="37.9559817" lon="14.955035"><ele>1223.3333333333333</ele><time>2026-04-25T11:07:05.921Z</time></trkpt><trkpt lat="37.9561217" lon="14.9549467"><ele>1222.0</ele><time>2026-04-25T11:07:06.922Z</time></trkpt><trkpt lat="37.956265" lon="14.9548733"><ele>1222.0</ele><time>2026-04-25T11:07:07.921Z</time></trkpt><trkpt lat="37.9564017" lon="14.9547967"><ele>1222.0</ele><time>2026-04-25T11:07:08.921Z</time></trkpt><trkpt lat="37.9565183" lon="14.9546917"><ele>1222.0</ele><time>2026-04-25T11:07:09.922Z</time></trkpt><trkpt lat="37.9566217" lon="14.9545783"><ele>1222.0</ele><time>2026-04-25T11:07:10.921Z</time></trkpt><trkpt lat="37.9567217" lon="14.9544667"><ele>1224.5</ele><time>2026-04-25T11:07:11.922Z</time></trkpt><trkpt lat="37.9568333" lon="14.9543817"><ele>1227.0</ele><time>2026-04-25T11:07:12.922Z</time></trkpt><trkpt lat="37.9569567" lon="14.9543117"><ele>1229.5</ele><time>2026-04-25T11:07:13.922Z</time></trkpt><trkpt lat="37.957105" lon="14.95429"><ele>1232.0</ele><time>2026-04-25T11:07:14.921Z</time></trkpt><trkpt lat="37.9572683" lon="14.954295"><ele>1232.0</ele><time>2026-04-25T11:07:15.922Z</time></trkpt><trkpt lat="37.9574383" lon="14.9543083"><ele>1232.0</ele><time>2026-04-25T11:07:16.921Z</time></trkpt><trkpt lat="37.9576133" lon="14.9543183"><ele>1232.0</ele><time>2026-04-25T11:07:17.922Z</time></trkpt><trkpt lat="37.9577883" lon="14.9543"><ele>1231.6666666666667</ele><time>2026-04-25T11:07:18.921Z</time></trkpt><trkpt lat="37.957965" lon="14.9542767"><ele>1231.3333333333333</ele><time>2026-04-25T11:07:19.922Z</time></trkpt><trkpt lat="37.9581467" lon="14.95425"><ele>1231.0</ele><time>2026-04-25T11:07:20.922Z</time></trkpt><trkpt lat="37.9583283" lon="14.9542267"><ele>1229.3333333333333</ele><time>2026-04-25T11:07:21.922Z</time></trkpt><trkpt lat="37.9585083" lon="14.9542117"><ele>1227.6666666666667</ele><time>2026-04-25T11:07:22.922Z</time></trkpt><trkpt lat="37.958695" lon="14.9542033"><ele>1226.0</ele><time>2026-04-25T11:07:23.922Z</time></trkpt><trkpt lat="37.9588817" lon="14.95421"><ele>1226.0</ele><time>2026-04-25T11:07:24.921Z</time></trkpt><trkpt lat="37.9590567" lon="14.9542183"><ele>1226.0</ele><time>2026-04-25T11:07:25.921Z</time></trkpt><trkpt lat="37.95923" lon="14.9542183"><ele>1226.0</ele><time>2026-04-25T11:07:26.922Z</time></trkpt><trkpt lat="37.9593983" lon="14.9542183"><ele>1221.0</ele><time>2026-04-25T11:07:27.922Z</time></trkpt><trkpt lat="37.9595683" lon="14.9542233"><ele>1216.0</ele><time>2026-04-25T11:07:28.921Z</time></trkpt><trkpt lat="37.9597283" lon="14.95422"><ele>1211.0</ele><time>2026-04-25T11:07:29.921Z</time></trkpt><trkpt lat="37.9598967" lon="14.954235"><ele>1213.3333333333335</ele><time>2026-04-25T11:07:30.921Z</time></trkpt><trkpt lat="37.9600683" lon="14.9542733"><ele>1215.6666666666667</ele><time>2026-04-25T11:07:31.921Z</time></trkpt><trkpt lat="37.9602467" lon="14.954325"><ele>1218.0</ele><time>2026-04-25T11:07:32.922Z</time></trkpt><trkpt lat="37.9604267" lon="14.95439"><ele>1218.0</ele><time>2026-04-25T11:07:33.922Z</time></trkpt><trkpt lat="37.9606033" lon="14.954455"><ele>1218.0</ele><time>2026-04-25T11:07:34.922Z</time></trkpt><trkpt lat="37.960785" lon="14.9545117"><ele>1218.0</ele><time>2026-04-25T11:07:35.922Z</time></trkpt><trkpt lat="37.9609667" lon="14.9545717"><ele>1219.6666666666667</ele><time>2026-04-25T11:07:36.921Z</time></trkpt><trkpt lat="37.9611383" lon="14.9546317"><ele>1221.3333333333335</ele><time>2026-04-25T11:07:37.921Z</time></trkpt><trkpt lat="37.961305" lon="14.9546867"><ele>1223.0</ele><time>2026-04-25T11:07:38.922Z</time></trkpt><trkpt lat="37.9614883" lon="14.9547483"><ele>1223.0</ele><time>2026-04-25T11:07:39.922Z</time></trkpt><trkpt lat="37.9616683" lon="14.9548217"><ele>1223.0</ele><time>2026-04-25T11:07:40.922Z</time></trkpt><trkpt lat="37.9618433" lon="14.954915"><ele>1223.0</ele><time>2026-04-25T11:07:41.921Z</time></trkpt><trkpt lat="37.962005" lon="14.95503"><ele>1224.0</ele><time>2026-04-25T11:07:42.921Z</time></trkpt><trkpt lat="37.9621533" lon="14.9551667"><ele>1225.0</ele><time>2026-04-25T11:07:43.922Z</time></trkpt><trkpt lat="37.9623" lon="14.9553167"><ele>1226.0</ele><time>2026-04-25T11:07:44.922Z</time></trkpt><trkpt lat="37.9624417" lon="14.9554667"><ele>1225.6666666666667</ele><time>2026-04-25T11:07:45.922Z</time></trkpt><trkpt lat="37.9625767" lon="14.9556117"><ele>1225.3333333333333</ele><time>2026-04-25T11:07:46.921Z</time></trkpt><trkpt lat="37.9627217" lon="14.9557433"><ele>1225.0</ele><time>2026-04-25T11:07:47.921Z</time></trkpt><trkpt lat="37.962845" lon="14.9558483"><ele>1224.25</ele><time>2026-04-25T11:07:48.921Z</time></trkpt><trkpt lat="37.9629783" lon="14.9559217"><ele>1223.5</ele><time>2026-04-25T11:07:49.922Z</time></trkpt><trkpt lat="37.9631233" lon="14.9559517"><ele>1222.75</ele><time>2026-04-25T11:07:50.921Z</time></trkpt><trkpt lat="37.9632667" lon="14.95595"><ele>1222.0</ele><time>2026-04-25T11:07:51.921Z</time></trkpt><trkpt lat="37.9634117" lon="14.9559417"><ele>1222.0</ele><time>2026-04-25T11:07:52.921Z</time></trkpt><trkpt lat="37.9635783" lon="14.9559183"><ele>1222.0</ele><time>2026-04-25T11:07:53.921Z</time></trkpt><trkpt lat="37.9637417" lon="14.9559"><ele>1222.0</ele><time>2026-04-25T11:07:54.921Z</time></trkpt><trkpt lat="37.9638967" lon="14.9558667"><ele>1224.0</ele><time>2026-04-25T11:07:55.922Z</time></trkpt><trkpt lat="37.9640433" lon="14.9558317"><ele>1226.0</ele><time>2026-04-25T11:07:56.922Z</time></trkpt><trkpt lat="37.9641933" lon="14.95579"><ele>1228.0</ele><time>2026-04-25T11:07:57.922Z</time></trkpt><trkpt lat="37.9643367" lon="14.9557383"><ele>1229.3333333333333</ele><time>2026-04-25T11:07:58.922Z</time></trkpt><trkpt lat="37.96449" lon="14.9556967"><ele>1230.6666666666667</ele><time>2026-04-25T11:07:59.921Z</time></trkpt><trkpt lat="37.964645" lon="14.9556583"><ele>1232.0</ele><time>2026-04-25T11:08:00.922Z</time></trkpt><trkpt lat="37.964805" lon="14.95563"><ele>1232.0</ele><time>2026-04-25T11:08:01.921Z</time></trkpt><trkpt lat="37.964965" lon="14.9556017"><ele>1232.0</ele><time>2026-04-25T11:08:02.922Z</time></trkpt><trkpt lat="37.96513" lon="14.95556"><ele>1232.0</ele><time>2026-04-25T11:08:03.922Z</time></trkpt><trkpt lat="37.96529" lon="14.955495"><ele>1232.0</ele><time>2026-04-25T11:08:04.922Z</time></trkpt><trkpt lat="37.9654417" lon="14.9554233"><ele>1232.0</ele><time>2026-04-25T11:08:05.922Z</time></trkpt><trkpt lat="37.965595" lon="14.9553433"><ele>1232.0</ele><time>2026-04-25T11:08:06.921Z</time></trkpt><trkpt lat="37.9657483" lon="14.95525"><ele>1237.3333333333335</ele><time>2026-04-25T11:08:07.921Z</time></trkpt><trkpt lat="37.9659033" lon="14.955155"><ele>1242.6666666666667</ele><time>2026-04-25T11:08:08.921Z</time></trkpt><trkpt lat="37.966055" lon="14.95506"><ele>1248.0</ele><time>2026-04-25T11:08:09.921Z</time></trkpt><trkpt lat="37.9662" lon="14.95496"><ele>1248.3333333333333</ele><time>2026-04-25T11:08:10.922Z</time></trkpt><trkpt lat="37.9663333" lon="14.954845"><ele>1248.6666666666665</ele><time>2026-04-25T11:08:11.922Z</time></trkpt><trkpt lat="37.9664583" lon="14.9547317"><ele>1249.0</ele><time>2026-04-25T11:08:12.922Z</time></trkpt><trkpt lat="37.966585" lon="14.9546433"><ele>1252.25</ele><time>2026-04-25T11:08:13.921Z</time></trkpt><trkpt lat="37.9667167" lon="14.9545917"><ele>1255.5</ele><time>2026-04-25T11:08:14.921Z</time></trkpt><trkpt lat="37.9668617" lon="14.9545667"><ele>1258.75</ele><time>2026-04-25T11:08:15.921Z</time></trkpt><trkpt lat="37.9670183" lon="14.9545667"><ele>1262.0</ele><time>2026-04-25T11:08:16.922Z</time></trkpt><trkpt lat="37.9671817" lon="14.954585"><ele>1262.0</ele><time>2026-04-25T11:08:17.921Z</time></trkpt><trkpt lat="37.9673583" lon="14.9546067"><ele>1262.0</ele><time>2026-04-25T11:08:18.922Z</time></trkpt><trkpt lat="37.9675417" lon="14.9546117"><ele>1262.0</ele><time>2026-04-25T11:08:19.922Z</time></trkpt><trkpt lat="37.9677283" lon="14.9545817"><ele>1264.6666666666667</ele><time>2026-04-25T11:08:20.922Z</time></trkpt><trkpt lat="37.9679117" lon="14.9545533"><ele>1267.3333333333333</ele><time>2026-04-25T11:08:21.921Z</time></trkpt><trkpt lat="37.9680867" lon="14.9545133"><ele>1270.0</ele><time>2026-04-25T11:08:22.922Z</time></trkpt><trkpt lat="37.9682617" lon="14.9544933"><ele>1271.0</ele><time>2026-04-25T11:08:23.921Z</time></trkpt><trkpt lat="37.9684317" lon="14.9544817"><ele>1272.0</ele><time>2026-04-25T11:08:24.922Z</time></trkpt><trkpt lat="37.9686067" lon="14.9544767"><ele>1273.0</ele><time>2026-04-25T11:08:25.921Z</time></trkpt><trkpt lat="37.9687867" lon="14.9544767"><ele>1273.0</ele><time>2026-04-25T11:08:26.922Z</time></trkpt><trkpt lat="37.968965" lon="14.9544717"><ele>1273.0</ele><time>2026-04-25T11:08:27.921Z</time></trkpt><trkpt lat="37.9691383" lon="14.9544683"><ele>1273.0</ele><time>2026-04-25T11:08:28.922Z</time></trkpt><trkpt lat="37.9693133" lon="14.95446"><ele>1273.3333333333333</ele><time>2026-04-25T11:08:29.921Z</time></trkpt><trkpt lat="37.9694817" lon="14.95446"><ele>1273.6666666666667</ele><time>2026-04-25T11:08:30.922Z</time></trkpt><trkpt lat="37.9696433" lon="14.95446"><ele>1274.0</ele><time>2026-04-25T11:08:31.922Z</time></trkpt><trkpt lat="37.9698" lon="14.9544467"><ele>1274.0</ele><time>2026-04-25T11:08:32.922Z</time></trkpt><trkpt lat="37.9699533" lon="14.954415"><ele>1274.0</ele><time>2026-04-25T11:08:33.922Z</time></trkpt><trkpt lat="37.970105" lon="14.954355"><ele>1274.0</ele><time>2026-04-25T11:08:34.922Z</time></trkpt><trkpt lat="37.9702483" lon="14.954275"><ele>1271.6666666666667</ele><time>2026-04-25T11:08:35.922Z</time></trkpt><trkpt lat="37.9703867" lon="14.9541717"><ele>1269.3333333333333</ele><time>2026-04-25T11:08:36.922Z</time></trkpt><trkpt lat="37.9705183" lon="14.9540617"><ele>1267.0</ele><time>2026-04-25T11:08:37.921Z</time></trkpt><trkpt lat="37.9706467" lon="14.953965"><ele>1267.0</ele><time>2026-04-25T11:08:38.922Z</time></trkpt><trkpt lat="37.9707833" lon="14.95388"><ele>1267.0</ele><time>2026-04-25T11:08:39.921Z</time></trkpt><trkpt lat="37.9709167" lon="14.95381"><ele>1267.0</ele><time>2026-04-25T11:08:40.922Z</time></trkpt><trkpt lat="37.9710733" lon="14.9537633"><ele>1265.3333333333333</ele><time>2026-04-25T11:08:41.921Z</time></trkpt><trkpt lat="37.97123" lon="14.953745"><ele>1263.6666666666667</ele><time>2026-04-25T11:08:42.921Z</time></trkpt><trkpt lat="37.9713933" lon="14.9537467"><ele>1262.0</ele><time>2026-04-25T11:08:43.922Z</time></trkpt><trkpt lat="37.9715583" lon="14.9537417"><ele>1258.0</ele><time>2026-04-25T11:08:44.922Z</time></trkpt><trkpt lat="37.9717317" lon="14.953735"><ele>1254.0</ele><time>2026-04-25T11:08:45.922Z</time></trkpt><trkpt lat="37.97191" lon="14.9537267"><ele>1250.0</ele><time>2026-04-25T11:08:46.921Z</time></trkpt><trkpt lat="37.972095" lon="14.9537267"><ele>1250.0</ele><time>2026-04-25T11:08:47.921Z</time></trkpt><trkpt lat="37.972285" lon="14.953725"><ele>1250.0</ele><time>2026-04-25T11:08:48.921Z</time></trkpt><trkpt lat="37.9724733" lon="14.9537183"><ele>1250.0</ele><time>2026-04-25T11:08:49.922Z</time></trkpt><trkpt lat="37.9726533" lon="14.9537133"><ele>1250.6666666666667</ele><time>2026-04-25T11:08:50.921Z</time></trkpt><trkpt lat="37.9728283" lon="14.953685"><ele>1251.3333333333333</ele><time>2026-04-25T11:08:51.922Z</time></trkpt><trkpt lat="37.9730067" lon="14.95364"><ele>1252.0</ele><time>2026-04-25T11:08:52.922Z</time></trkpt><trkpt lat="37.9731783" lon="14.9535733"><ele>1252.0</ele><time>2026-04-25T11:08:53.922Z</time></trkpt><trkpt lat="37.9733383" lon="14.953485"><ele>1252.0</ele><time>2026-04-25T11:08:54.922Z</time></trkpt><trkpt lat="37.9734967" lon="14.9533967"><ele>1252.0</ele><time>2026-04-25T11:08:55.922Z</time></trkpt><trkpt lat="37.9736517" lon="14.9533117"><ele>1255.3333333333333</ele><time>2026-04-25T11:08:56.921Z</time></trkpt><trkpt lat="37.9738083" lon="14.9532533"><ele>1258.6666666666667</ele><time>2026-04-25T11:08:57.921Z</time></trkpt><trkpt lat="37.9739617" lon="14.9532133"><ele>1262.0</ele><time>2026-04-25T11:08:58.922Z</time></trkpt><trkpt lat="37.9741033" lon="14.9531833"><ele>1260.8</ele><time>2026-04-25T11:08:59.922Z</time></trkpt><trkpt lat="37.9742283" lon="14.9531583"><ele>1259.6</ele><time>2026-04-25T11:09:00.921Z</time></trkpt><trkpt lat="37.974335" lon="14.953125"><ele>1258.3999999999999</ele><time>2026-04-25T11:09:01.921Z</time></trkpt><trkpt lat="37.9744267" lon="14.953085"><ele>1257.2</ele><time>2026-04-25T11:09:02.922Z</time></trkpt><trkpt lat="37.974505" lon="14.9530433"><ele>1256.0</ele><time>2026-04-25T11:09:03.922Z</time></trkpt><trkpt lat="37.9745733" lon="14.953"><ele>1256.0</ele><time>2026-04-25T11:09:04.921Z</time></trkpt><trkpt lat="37.9746467" lon="14.95295"><ele>1256.0</ele><time>2026-04-25T11:09:05.921Z</time></trkpt><trkpt lat="37.97472" lon="14.95289"><ele>1256.0</ele><time>2026-04-25T11:09:06.921Z</time></trkpt><trkpt lat="37.974795" lon="14.952845"><ele>1256.0</ele><time>2026-04-25T11:09:07.921Z</time></trkpt><trkpt lat="37.9748717" lon="14.952785"><ele>1256.0</ele><time>2026-04-25T11:09:08.922Z</time></trkpt><trkpt lat="37.97494" lon="14.9527133"><ele>1256.0</ele><time>2026-04-25T11:09:09.922Z</time></trkpt><trkpt lat="37.9750017" lon="14.9526383"><ele>1255.3999999999999</ele><time>2026-04-25T11:09:10.921Z</time></trkpt><trkpt lat="37.97507" lon="14.952555"><ele>1254.8</ele><time>2026-04-25T11:09:11.921Z</time></trkpt><trkpt lat="37.975135" lon="14.9524517"><ele>1254.1999999999998</ele><time>2026-04-25T11:09:12.922Z</time></trkpt><trkpt lat="37.9752" lon="14.95233"><ele>1253.6</ele><time>2026-04-25T11:09:13.921Z</time></trkpt><trkpt lat="37.9752667" lon="14.9522"><ele>1253.0</ele><time>2026-04-25T11:09:14.922Z</time></trkpt><trkpt lat="37.9753367" lon="14.9520667"><ele>1256.25</ele><time>2026-04-25T11:09:15.922Z</time></trkpt><trkpt lat="37.9754117" lon="14.95194"><ele>1259.5</ele><time>2026-04-25T11:09:16.922Z</time></trkpt><trkpt lat="37.9754867" lon="14.951815"><ele>1262.75</ele><time>2026-04-25T11:09:17.922Z</time></trkpt><trkpt lat="37.9755717" lon="14.9517"><ele>1266.0</ele><time>2026-04-25T11:09:18.921Z</time></trkpt><trkpt lat="37.975665" lon="14.9515883"><ele>1266.0</ele><time>2026-04-25T11:09:19.922Z</time></trkpt><trkpt lat="37.975755" lon="14.95148"><ele>1266.0</ele><time>2026-04-25T11:09:20.922Z</time></trkpt><trkpt lat="37.9758517" lon="14.9513683"><ele>1266.0</ele><time>2026-04-25T11:09:21.922Z</time></trkpt><trkpt lat="37.97595" lon="14.951245"><ele>1266.0</ele><time>2026-04-25T11:09:22.922Z</time></trkpt><trkpt lat="37.9760533" lon="14.9511033"><ele>1268.0</ele><time>2026-04-25T11:09:23.922Z</time></trkpt><trkpt lat="37.9761667" lon="14.950935"><ele>1270.0</ele><time>2026-04-25T11:09:24.921Z</time></trkpt><trkpt lat="37.9762833" lon="14.9507517"><ele>1272.0</ele><time>2026-04-25T11:09:25.921Z</time></trkpt><trkpt lat="37.9764083" lon="14.95056"><ele>1272.0</ele><time>2026-04-25T11:09:26.922Z</time></trkpt><trkpt lat="37.9765233" lon="14.950385"><ele>1272.0</ele><time>2026-04-25T11:09:27.921Z</time></trkpt><trkpt lat="37.9766283" lon="14.95022"><ele>1272.0</ele><time>2026-04-25T11:09:28.921Z</time></trkpt><trkpt lat="37.976725" lon="14.9500683"><ele>1274.25</ele><time>2026-04-25T11:09:29.922Z</time></trkpt><trkpt lat="37.9768083" lon="14.9499167"><ele>1276.5</ele><time>2026-04-25T11:09:30.922Z</time></trkpt><trkpt lat="37.9768683" lon="14.949755"><ele>1278.75</ele><time>2026-04-25T11:09:31.922Z</time></trkpt><trkpt lat="37.9769017" lon="14.9495917"><ele>1281.0</ele><time>2026-04-25T11:09:32.922Z</time></trkpt><trkpt lat="37.9769233" lon="14.9494183"><ele>1281.0</ele><time>2026-04-25T11:09:33.921Z</time></trkpt><trkpt lat="37.97693" lon="14.9492333"><ele>1281.0</ele><time>2026-04-25T11:09:34.922Z</time></trkpt><trkpt lat="37.9769367" lon="14.94906"><ele>1281.0</ele><time>2026-04-25T11:09:35.922Z</time></trkpt><trkpt lat="37.9769433" lon="14.948895"><ele>1281.0</ele><time>2026-04-25T11:09:36.922Z</time></trkpt><trkpt lat="37.97695" lon="14.9487433"><ele>1279.25</ele><time>2026-04-25T11:09:37.922Z</time></trkpt><trkpt lat="37.9769633" lon="14.9485883"><ele>1277.5</ele><time>2026-04-25T11:09:38.922Z</time></trkpt><trkpt lat="37.9769833" lon="14.94842"><ele>1275.75</ele><time>2026-04-25T11:09:39.922Z</time></trkpt><trkpt lat="37.97701" lon="14.9482417"><ele>1274.0</ele><time>2026-04-25T11:09:40.921Z</time></trkpt><trkpt lat="37.9770517" lon="14.9480633"><ele>1273.5</ele><time>2026-04-25T11:09:41.922Z</time></trkpt><trkpt lat="37.9770967" lon="14.947895"><ele>1273.0</ele><time>2026-04-25T11:09:42.922Z</time></trkpt><trkpt lat="37.97716" lon="14.947745"><ele>1272.5</ele><time>2026-04-25T11:09:43.922Z</time></trkpt><trkpt lat="37.9772367" lon="14.9476017"><ele>1272.0</ele><time>2026-04-25T11:09:44.921Z</time></trkpt><trkpt lat="37.9773233" lon="14.9474717"><ele>1272.75</ele><time>2026-04-25T11:09:45.921Z</time></trkpt><trkpt lat="37.9774183" lon="14.9473467"><ele>1273.5</ele><time>2026-04-25T11:09:46.922Z</time></trkpt><trkpt lat="37.9775167" lon="14.9472267"><ele>1274.25</ele><time>2026-04-25T11:09:47.921Z</time></trkpt><trkpt lat="37.977615" lon="14.947105"><ele>1275.0</ele><time>2026-04-25T11:09:48.921Z</time></trkpt><trkpt lat="37.9777117" lon="14.946995"><ele>1275.0</ele><time>2026-04-25T11:09:49.922Z</time></trkpt><trkpt lat="37.977805" lon="14.9468833"><ele>1275.0</ele><time>2026-04-25T11:09:50.922Z</time></trkpt><trkpt lat="37.977895" lon="14.9467817"><ele>1275.0</ele><time>2026-04-25T11:09:51.921Z</time></trkpt><trkpt lat="37.9779883" lon="14.9466767"><ele>1275.0</ele><time>2026-04-25T11:09:52.921Z</time></trkpt><trkpt lat="37.9780833" lon="14.9465717"><ele>1274.25</ele><time>2026-04-25T11:09:53.921Z</time></trkpt><trkpt lat="37.9781917" lon="14.9464867"><ele>1273.5</ele><time>2026-04-25T11:09:54.921Z</time></trkpt><trkpt lat="37.978305" lon="14.946435"><ele>1272.75</ele><time>2026-04-25T11:09:55.922Z</time></trkpt><trkpt lat="37.9784233" lon="14.946405"><ele>1272.0</ele><time>2026-04-25T11:09:56.921Z</time></trkpt><trkpt lat="37.9785467" lon="14.94639"><ele>1272.0</ele><time>2026-04-25T11:09:57.921Z</time></trkpt><trkpt lat="37.97866" lon="14.946375"><ele>1272.0</ele><time>2026-04-25T11:09:58.921Z</time></trkpt><trkpt lat="37.9787633" lon="14.946345"><ele>1272.0</ele><time>2026-04-25T11:09:59.921Z</time></trkpt><trkpt lat="37.9788583" lon="14.946295"><ele>1272.0</ele><time>2026-04-25T11:10:00.921Z</time></trkpt><trkpt lat="37.9789383" lon="14.946215"><ele>1272.0</ele><time>2026-04-25T11:10:01.921Z</time></trkpt><trkpt lat="37.97899" lon="14.9461067"><ele>1272.0</ele><time>2026-04-25T11:10:02.922Z</time></trkpt><trkpt lat="37.9790317" lon="14.9459817"><ele>1272.0</ele><time>2026-04-25T11:10:03.921Z</time></trkpt><trkpt lat="37.979065" lon="14.9458533"><ele>1272.0</ele><time>2026-04-25T11:10:04.922Z</time></trkpt><trkpt lat="37.9790983" lon="14.9457183"><ele>1272.0</ele><time>2026-04-25T11:10:05.921Z</time></trkpt><trkpt lat="37.9791367" lon="14.9455867"><ele>1272.0</ele><time>2026-04-25T11:10:06.922Z</time></trkpt><trkpt lat="37.979165" lon="14.9454467"><ele>1270.25</ele><time>2026-04-25T11:10:07.922Z</time></trkpt><trkpt lat="37.9791783" lon="14.9453033"><ele>1268.5</ele><time>2026-04-25T11:10:08.922Z</time></trkpt><trkpt lat="37.9791583" lon="14.9451633"><ele>1266.75</ele><time>2026-04-25T11:10:09.921Z</time></trkpt><trkpt lat="37.9790917" lon="14.94504"><ele>1265.0</ele><time>2026-04-25T11:10:10.921Z</time></trkpt><trkpt lat="37.9790067" lon="14.9449317"><ele>1265.0</ele><time>2026-04-25T11:10:11.921Z</time></trkpt><trkpt lat="37.9789133" lon="14.9448333"><ele>1265.0</ele><time>2026-04-25T11:10:12.922Z</time></trkpt><trkpt lat="37.9788217" lon="14.9447467"><ele>1265.0</ele><time>2026-04-25T11:10:13.922Z</time></trkpt><trkpt lat="37.97873" lon="14.944655"><ele>1265.0</ele><time>2026-04-25T11:10:14.922Z</time></trkpt><trkpt lat="37.9786433" lon="14.94456"><ele>1265.0</ele><time>2026-04-25T11:10:15.921Z</time></trkpt><trkpt lat="37.97856" lon="14.9444517"><ele>1265.0</ele><time>2026-04-25T11:10:16.922Z</time></trkpt><trkpt lat="37.97848" lon="14.94434"><ele>1265.0</ele><time>2026-04-25T11:10:17.922Z</time></trkpt><trkpt lat="37.9784133" lon="14.9442267"><ele>1265.0</ele><time>2026-04-25T11:10:18.922Z</time></trkpt><trkpt lat="37.97834" lon="14.9441183"><ele>1265.4</ele><time>2026-04-25T11:10:19.922Z</time></trkpt><trkpt lat="37.97828" lon="14.9440133"><ele>1265.8</ele><time>2026-04-25T11:10:20.921Z</time></trkpt><trkpt lat="37.9782417" lon="14.9439083"><ele>1266.2</ele><time>2026-04-25T11:10:21.922Z</time></trkpt><trkpt lat="37.97823" lon="14.9437917"><ele>1266.6</ele><time>2026-04-25T11:10:22.922Z</time></trkpt><trkpt lat="37.9782383" lon="14.943665"><ele>1267.0</ele><time>2026-04-25T11:10:23.921Z</time></trkpt><trkpt lat="37.9782717" lon="14.9435383"><ele>1267.0</ele><time>2026-04-25T11:10:24.921Z</time></trkpt><trkpt lat="37.97833" lon="14.943415"><ele>1267.0</ele><time>2026-04-25T11:10:25.922Z</time></trkpt><trkpt lat="37.9784033" lon="14.9432933"><ele>1267.0</ele><time>2026-04-25T11:10:26.922Z</time></trkpt><trkpt lat="37.9784833" lon="14.943165"><ele>1267.0</ele><time>2026-04-25T11:10:27.921Z</time></trkpt><trkpt lat="37.9785617" lon="14.9430267"><ele>1267.75</ele><time>2026-04-25T11:10:28.921Z</time></trkpt><trkpt lat="37.97864" lon="14.9428883"><ele>1268.5</ele><time>2026-04-25T11:10:29.922Z</time></trkpt><trkpt lat="37.9787133" lon="14.94275"><ele>1269.25</ele><time>2026-04-25T11:10:30.921Z</time></trkpt><trkpt lat="37.978785" lon="14.94261"><ele>1270.0</ele><time>2026-04-25T11:10:31.921Z</time></trkpt><trkpt lat="37.97885" lon="14.9424667"><ele>1270.0</ele><time>2026-04-25T11:10:32.922Z</time></trkpt><trkpt lat="37.9789117" lon="14.9423233"><ele>1270.0</ele><time>2026-04-25T11:10:33.921Z</time></trkpt><trkpt lat="37.9789667" lon="14.9421817"><ele>1270.0</ele><time>2026-04-25T11:10:34.921Z</time></trkpt><trkpt lat="37.9790217" lon="14.94204"><ele>1270.0</ele><time>2026-04-25T11:10:35.922Z</time></trkpt><trkpt lat="37.979085" lon="14.9418967"><ele>1270.0</ele><time>2026-04-25T11:10:36.922Z</time></trkpt><trkpt lat="37.9791633" lon="14.941775"><ele>1270.0</ele><time>2026-04-25T11:10:37.921Z</time></trkpt><trkpt lat="37.97927" lon="14.94167"><ele>1270.0</ele><time>2026-04-25T11:10:38.922Z</time></trkpt><trkpt lat="37.9793933" lon="14.9415867"><ele>1270.0</ele><time>2026-04-25T11:10:39.921Z</time></trkpt><trkpt lat="37.979525" lon="14.9415217"><ele>1269.3333333333333</ele><time>2026-04-25T11:10:40.922Z</time></trkpt><trkpt lat="37.9796667" lon="14.9414617"><ele>1268.6666666666667</ele><time>2026-04-25T11:10:41.921Z</time></trkpt><trkpt lat="37.9798083" lon="14.9414"><ele>1268.0</ele><time>2026-04-25T11:10:42.922Z</time></trkpt><trkpt lat="37.9799583" lon="14.9413467"><ele>1269.3333333333335</ele><time>2026-04-25T11:10:43.922Z</time></trkpt><trkpt lat="37.980105" lon="14.9412933"><ele>1270.6666666666667</ele><time>2026-04-25T11:10:44.921Z</time></trkpt><trkpt lat="37.980255" lon="14.9412467"><ele>1272.0</ele><time>2026-04-25T11:10:45.922Z</time></trkpt><trkpt lat="37.9804083" lon="14.9411933"><ele>1272.0</ele><time>2026-04-25T11:10:46.921Z</time></trkpt><trkpt lat="37.9805567" lon="14.9411433"><ele>1272.0</ele><time>2026-04-25T11:10:47.922Z</time></trkpt><trkpt lat="37.9806983" lon="14.941085"><ele>1272.0</ele><time>2026-04-25T11:10:48.921Z</time></trkpt><trkpt lat="37.9808483" lon="14.9410333"><ele>1271.25</ele><time>2026-04-25T11:10:49.922Z</time></trkpt><trkpt lat="37.98099" lon="14.941"><ele>1270.5</ele><time>2026-04-25T11:10:50.922Z</time></trkpt><trkpt lat="37.981135" lon="14.9409867"><ele>1269.75</ele><time>2026-04-25T11:10:51.921Z</time></trkpt><trkpt lat="37.9812833" lon="14.940985"><ele>1269.0</ele><time>2026-04-25T11:10:52.922Z</time></trkpt><trkpt lat="37.9814417" lon="14.9409833"><ele>1269.0</ele><time>2026-04-25T11:10:53.921Z</time></trkpt><trkpt lat="37.9815967" lon="14.9409883"><ele>1269.0</ele><time>2026-04-25T11:10:54.921Z</time></trkpt><trkpt lat="37.9817433" lon="14.940995"><ele>1269.0</ele><time>2026-04-25T11:10:55.922Z</time></trkpt><trkpt lat="37.9818867" lon="14.941005"><ele>1269.0</ele><time>2026-04-25T11:10:56.921Z</time></trkpt><trkpt lat="37.982035" lon="14.941015"><ele>1269.0</ele><time>2026-04-25T11:10:57.922Z</time></trkpt><trkpt lat="37.9821833" lon="14.941015"><ele>1269.0</ele><time>2026-04-25T11:10:58.922Z</time></trkpt><trkpt lat="37.9823267" lon="14.9410233"><ele>1269.0</ele><time>2026-04-25T11:10:59.921Z</time></trkpt><trkpt lat="37.98247" lon="14.9410333"><ele>1269.0</ele><time>2026-04-25T11:11:00.922Z</time></trkpt><trkpt lat="37.98261" lon="14.9410433"><ele>1269.25</ele><time>2026-04-25T11:11:01.922Z</time></trkpt><trkpt lat="37.9827467" lon="14.9410567"><ele>1269.5</ele><time>2026-04-25T11:11:02.922Z</time></trkpt><trkpt lat="37.9828883" lon="14.9410683"><ele>1269.75</ele><time>2026-04-25T11:11:03.922Z</time></trkpt><trkpt lat="37.9830317" lon="14.941075"><ele>1270.0</ele><time>2026-04-25T11:11:04.922Z</time></trkpt><trkpt lat="37.9831767" lon="14.9410767"><ele>1270.0</ele><time>2026-04-25T11:11:05.921Z</time></trkpt><trkpt lat="37.9833083" lon="14.9410567"><ele>1270.0</ele><time>2026-04-25T11:11:06.922Z</time></trkpt><trkpt lat="37.983435" lon="14.9410117"><ele>1270.0</ele><time>2026-04-25T11:11:07.922Z</time></trkpt><trkpt lat="37.98356" lon="14.9409283"><ele>1270.0</ele><time>2026-04-25T11:11:08.921Z</time></trkpt><trkpt lat="37.98368" lon="14.9408217"><ele>1270.5</ele><time>2026-04-25T11:11:09.921Z</time></trkpt><trkpt lat="37.9837767" lon="14.940685"><ele>1271.0</ele><time>2026-04-25T11:11:10.921Z</time></trkpt><trkpt lat="37.9838533" lon="14.9405283"><ele>1271.5</ele><time>2026-04-25T11:11:11.922Z</time></trkpt><trkpt lat="37.9839167" lon="14.9403683"><ele>1272.0</ele><time>2026-04-25T11:11:12.922Z</time></trkpt><trkpt lat="37.9839733" lon="14.9402017"><ele>1272.0</ele><time>2026-04-25T11:11:13.922Z</time></trkpt><trkpt lat="37.984025" lon="14.940035"><ele>1272.0</ele><time>2026-04-25T11:11:14.921Z</time></trkpt><trkpt lat="37.9840833" lon="14.9398767"><ele>1272.0</ele><time>2026-04-25T11:11:15.922Z</time></trkpt><trkpt lat="37.9841583" lon="14.9397267"><ele>1272.0</ele><time>2026-04-25T11:11:16.921Z</time></trkpt><trkpt lat="37.98425" lon="14.9396033"><ele>1272.0</ele><time>2026-04-25T11:11:17.922Z</time></trkpt><trkpt lat="37.984355" lon="14.9395033"><ele>1272.0</ele><time>2026-04-25T11:11:18.921Z</time></trkpt><trkpt lat="37.9844733" lon="14.939415"><ele>1272.0</ele><time>2026-04-25T11:11:19.922Z</time></trkpt><trkpt lat="37.9845983" lon="14.9393467"><ele>1272.0</ele><time>2026-04-25T11:11:20.922Z</time></trkpt><trkpt lat="37.98473" lon="14.9392717"><ele>1271.25</ele><time>2026-04-25T11:11:21.922Z</time></trkpt><trkpt lat="37.9848617" lon="14.9392"><ele>1270.5</ele><time>2026-04-25T11:11:22.921Z</time></trkpt><trkpt lat="37.9849883" lon="14.9391217"><ele>1269.75</ele><time>2026-04-25T11:11:23.922Z</time></trkpt><trkpt lat="37.9851117" lon="14.93904"><ele>1269.0</ele><time>2026-04-25T11:11:24.922Z</time></trkpt><trkpt lat="37.985245" lon="14.9389733"><ele>1269.0</ele><time>2026-04-25T11:11:25.921Z</time></trkpt><trkpt lat="37.9853767" lon="14.9389033"><ele>1269.0</ele><time>2026-04-25T11:11:26.922Z</time></trkpt><trkpt lat="37.9855" lon="14.93883"><ele>1269.0</ele><time>2026-04-25T11:11:27.921Z</time></trkpt><trkpt lat="37.9856317" lon="14.9387633"><ele>1269.0</ele><time>2026-04-25T11:11:28.922Z</time></trkpt><trkpt lat="37.9857617" lon="14.9387"><ele>1269.25</ele><time>2026-04-25T11:11:29.922Z</time></trkpt><trkpt lat="37.9858933" lon="14.938635"><ele>1269.5</ele><time>2026-04-25T11:11:30.922Z</time></trkpt><trkpt lat="37.9860217" lon="14.9385667"><ele>1269.75</ele><time>2026-04-25T11:11:31.921Z</time></trkpt><trkpt lat="37.9861433" lon="14.9384833"><ele>1270.0</ele><time>2026-04-25T11:11:32.922Z</time></trkpt><trkpt lat="37.9862517" lon="14.9383733"><ele>1270.0</ele><time>2026-04-25T11:11:33.922Z</time></trkpt><trkpt lat="37.9863467" lon="14.9382433"><ele>1270.0</ele><time>2026-04-25T11:11:34.922Z</time></trkpt><trkpt lat="37.986425" lon="14.9380917"><ele>1270.0</ele><time>2026-04-25T11:11:35.921Z</time></trkpt><trkpt lat="37.9864917" lon="14.93793"><ele>1270.0</ele><time>2026-04-25T11:11:36.922Z</time></trkpt><trkpt lat="37.9865583" lon="14.9377667"><ele>1270.0</ele><time>2026-04-25T11:11:37.922Z</time></trkpt><trkpt lat="37.9866283" lon="14.937605"><ele>1270.0</ele><time>2026-04-25T11:11:38.921Z</time></trkpt><trkpt lat="37.9867017" lon="14.9374467"><ele>1270.0</ele><time>2026-04-25T11:11:39.921Z</time></trkpt><trkpt lat="37.986775" lon="14.937285"><ele>1270.0</ele><time>2026-04-25T11:11:40.921Z</time></trkpt><trkpt lat="37.9868467" lon="14.93711"><ele>1272.3333333333333</ele><time>2026-04-25T11:11:41.921Z</time></trkpt><trkpt lat="37.9869217" lon="14.93694"><ele>1274.6666666666667</ele><time>2026-04-25T11:11:42.921Z</time></trkpt><trkpt lat="37.987" lon="14.9367617"><ele>1277.0</ele><time>2026-04-25T11:11:43.922Z</time></trkpt><trkpt lat="37.9870833" lon="14.93659"><ele>1277.0</ele><time>2026-04-25T11:11:44.922Z</time></trkpt><trkpt lat="37.9871717" lon="14.93641"><ele>1277.0</ele><time>2026-04-25T11:11:45.922Z</time></trkpt><trkpt lat="37.987265" lon="14.9362367"><ele>1277.0</ele><time>2026-04-25T11:11:46.921Z</time></trkpt><trkpt lat="37.9873567" lon="14.9360667"><ele>1277.0</ele><time>2026-04-25T11:11:47.921Z</time></trkpt><trkpt lat="37.98745" lon="14.9359017"><ele>1277.0</ele><time>2026-04-25T11:11:48.921Z</time></trkpt><trkpt lat="37.9875433" lon="14.93574"><ele>1277.0</ele><time>2026-04-25T11:11:49.922Z</time></trkpt><trkpt lat="37.98764" lon="14.9355783"><ele>1281.6666666666667</ele><time>2026-04-25T11:11:50.921Z</time></trkpt><trkpt lat="37.987735" lon="14.9354233"><ele>1286.3333333333333</ele><time>2026-04-25T11:11:51.921Z</time></trkpt><trkpt lat="37.9878267" lon="14.9352683"><ele>1291.0</ele><time>2026-04-25T11:11:52.922Z</time></trkpt><trkpt lat="37.987915" lon="14.9351067"><ele>1285.0</ele><time>2026-04-25T11:11:53.921Z</time></trkpt><trkpt lat="37.98801" lon="14.93495"><ele>1279.0</ele><time>2026-04-25T11:11:54.922Z</time></trkpt><trkpt lat="37.9881017" lon="14.9347917"><ele>1273.0</ele><time>2026-04-25T11:11:55.922Z</time></trkpt><trkpt lat="37.9881933" lon="14.934645"><ele>1273.0</ele><time>2026-04-25T11:11:56.921Z</time></trkpt><trkpt lat="37.9882883" lon="14.9344983"><ele>1273.0</ele><time>2026-04-25T11:11:57.921Z</time></trkpt><trkpt lat="37.9883783" lon="14.9343483"><ele>1273.0</ele><time>2026-04-25T11:11:58.922Z</time></trkpt><trkpt lat="37.98847" lon="14.9341867"><ele>1274.75</ele><time>2026-04-25T11:11:59.922Z</time></trkpt><trkpt lat="37.9885517" lon="14.9340333"><ele>1276.5</ele><time>2026-04-25T11:12:00.922Z</time></trkpt><trkpt lat="37.98863" lon="14.9338983"><ele>1278.25</ele><time>2026-04-25T11:12:01.921Z</time></trkpt><trkpt lat="37.9887167" lon="14.933785"><ele>1280.0</ele><time>2026-04-25T11:12:02.921Z</time></trkpt><trkpt lat="37.9888233" lon="14.9336817"><ele>1280.0</ele><time>2026-04-25T11:12:03.922Z</time></trkpt><trkpt lat="37.9889417" lon="14.9335967"><ele>1280.0</ele><time>2026-04-25T11:12:04.922Z</time></trkpt><trkpt lat="37.98907" lon="14.9335283"><ele>1280.0</ele><time>2026-04-25T11:12:05.921Z</time></trkpt><trkpt lat="37.9892" lon="14.9334683"><ele>1280.0</ele><time>2026-04-25T11:12:06.921Z</time></trkpt><trkpt lat="37.9893217" lon="14.9334133"><ele>1279.4</ele><time>2026-04-25T11:12:07.921Z</time></trkpt><trkpt lat="37.98943" lon="14.9333667"><ele>1278.8</ele><time>2026-04-25T11:12:08.921Z</time></trkpt><trkpt lat="37.98952" lon="14.9333317"><ele>1278.2</ele><time>2026-04-25T11:12:09.922Z</time></trkpt><trkpt lat="37.9896" lon="14.9333183"><ele>1277.6</ele><time>2026-04-25T11:12:10.922Z</time></trkpt><trkpt lat="37.98968" lon="14.9333383"><ele>1277.0</ele><time>2026-04-25T11:12:11.921Z</time></trkpt><trkpt lat="37.989755" lon="14.9333967"><ele>1277.0</ele><time>2026-04-25T11:12:12.922Z</time></trkpt><trkpt lat="37.9898183" lon="14.933485"><ele>1277.0</ele><time>2026-04-25T11:12:13.921Z</time></trkpt><trkpt lat="37.9898783" lon="14.933595"><ele>1277.0</ele><time>2026-04-25T11:12:14.922Z</time></trkpt><trkpt lat="37.9899367" lon="14.9337017"><ele>1277.0</ele><time>2026-04-25T11:12:15.922Z</time></trkpt><trkpt lat="37.99" lon="14.9338067"><ele>1277.0</ele><time>2026-04-25T11:12:16.922Z</time></trkpt><trkpt lat="37.990065" lon="14.93391"><ele>1277.4</ele><time>2026-04-25T11:12:17.921Z</time></trkpt><trkpt lat="37.9901367" lon="14.9340083"><ele>1277.8000000000002</ele><time>2026-04-25T11:12:18.922Z</time></trkpt><trkpt lat="37.990215" lon="14.9340983"><ele>1278.2</ele><time>2026-04-25T11:12:19.922Z</time></trkpt><trkpt lat="37.9902933" lon="14.934165"><ele>1278.6000000000001</ele><time>2026-04-25T11:12:20.921Z</time></trkpt><trkpt lat="37.9903817" lon="14.93421"><ele>1279.0</ele><time>2026-04-25T11:12:21.92Z</time></trkpt><trkpt lat="37.9904867" lon="14.93422"><ele>1279.0</ele><time>2026-04-25T11:12:22.921Z</time></trkpt><trkpt lat="37.9905867" lon="14.9341967"><ele>1279.0</ele><time>2026-04-25T11:12:23.921Z</time></trkpt><trkpt lat="37.9906717" lon="14.9341417"><ele>1279.0</ele><time>2026-04-25T11:12:24.921Z</time></trkpt><trkpt lat="37.990745" lon="14.93406"><ele>1279.0</ele><time>2026-04-25T11:12:25.921Z</time></trkpt><trkpt lat="37.9908167" lon="14.9339567"><ele>1279.0</ele><time>2026-04-25T11:12:26.92Z</time></trkpt><trkpt lat="37.990885" lon="14.9338433"><ele>1279.4</ele><time>2026-04-25T11:12:27.921Z</time></trkpt><trkpt lat="37.9909467" lon="14.9337317"><ele>1279.8000000000002</ele><time>2026-04-25T11:12:28.921Z</time></trkpt><trkpt lat="37.9910067" lon="14.9336117"><ele>1280.1999999999998</ele><time>2026-04-25T11:12:29.921Z</time></trkpt><trkpt lat="37.991075" lon="14.9334933"><ele>1280.6</ele><time>2026-04-25T11:12:30.921Z</time></trkpt><trkpt lat="37.99114" lon="14.9333767"><ele>1281.0</ele><time>2026-04-25T11:12:31.921Z</time></trkpt><trkpt lat="37.9912017" lon="14.9332633"><ele>1281.0</ele><time>2026-04-25T11:12:32.921Z</time></trkpt><trkpt lat="37.9912733" lon="14.9331417"><ele>1281.0</ele><time>2026-04-25T11:12:33.92Z</time></trkpt><trkpt lat="37.9913483" lon="14.9330267"><ele>1281.0</ele><time>2026-04-25T11:12:34.921Z</time></trkpt><trkpt lat="37.9914267" lon="14.9329117"><ele>1281.0</ele><time>2026-04-25T11:12:35.921Z</time></trkpt><trkpt lat="37.991515" lon="14.9328017"><ele>1281.0</ele><time>2026-04-25T11:12:36.92Z</time></trkpt><trkpt lat="37.991605" lon="14.932695"><ele>1281.0</ele><time>2026-04-25T11:12:37.92Z</time></trkpt><trkpt lat="37.9916967" lon="14.9325917"><ele>1281.0</ele><time>2026-04-25T11:12:38.92Z</time></trkpt><trkpt lat="37.9917867" lon="14.9324867"><ele>1281.0</ele><time>2026-04-25T11:12:39.92Z</time></trkpt><trkpt lat="37.9918767" lon="14.9323833"><ele>1282.25</ele><time>2026-04-25T11:12:40.921Z</time></trkpt><trkpt lat="37.9919733" lon="14.93228"><ele>1283.5</ele><time>2026-04-25T11:12:41.921Z</time></trkpt><trkpt lat="37.99208" lon="14.9321833"><ele>1284.75</ele><time>2026-04-25T11:12:42.921Z</time></trkpt><trkpt lat="37.9921917" lon="14.9320933"><ele>1286.0</ele><time>2026-04-25T11:12:43.92Z</time></trkpt><trkpt lat="37.9923167" lon="14.9320133"><ele>1286.0</ele><time>2026-04-25T11:12:44.921Z</time></trkpt><trkpt lat="37.99244" lon="14.931935"><ele>1286.0</ele><time>2026-04-25T11:12:45.921Z</time></trkpt><trkpt lat="37.9925683" lon="14.9318633"><ele>1286.0</ele><time>2026-04-25T11:12:46.921Z</time></trkpt><trkpt lat="37.9926983" lon="14.9317933"><ele>1286.0</ele><time>2026-04-25T11:12:47.92Z</time></trkpt><trkpt lat="37.9928233" lon="14.9317317"><ele>1286.4</ele><time>2026-04-25T11:12:48.921Z</time></trkpt><trkpt lat="37.9929417" lon="14.9316717"><ele>1286.8</ele><time>2026-04-25T11:12:49.92Z</time></trkpt><trkpt lat="37.993055" lon="14.93162"><ele>1287.2</ele><time>2026-04-25T11:12:50.921Z</time></trkpt><trkpt lat="37.9931417" lon="14.9315717"><ele>1287.6000000000001</ele><time>2026-04-25T11:12:51.921Z</time></trkpt><trkpt lat="37.9932117" lon="14.931515"><ele>1288.0</ele><time>2026-04-25T11:12:52.921Z</time></trkpt><trkpt lat="37.993255" lon="14.9314367"><ele>1288.0</ele><time>2026-04-25T11:12:53.921Z</time></trkpt><trkpt lat="37.99327" lon="14.9313433"><ele>1288.0</ele><time>2026-04-25T11:12:54.921Z</time></trkpt><trkpt lat="37.9932533" lon="14.9312567"><ele>1288.0</ele><time>2026-04-25T11:12:55.921Z</time></trkpt><trkpt lat="37.99321" lon="14.9311717"><ele>1288.0</ele><time>2026-04-25T11:12:56.92Z</time></trkpt><trkpt lat="37.9931417" lon="14.9311083"><ele>1288.0</ele><time>2026-04-25T11:12:57.92Z</time></trkpt><trkpt lat="37.993045" lon="14.9310633"><ele>1288.0</ele><time>2026-04-25T11:12:58.92Z</time></trkpt><trkpt lat="37.9929433" lon="14.93102"><ele>1288.0</ele><time>2026-04-25T11:12:59.921Z</time></trkpt><trkpt lat="37.99284" lon="14.9309683"><ele>1288.0</ele><time>2026-04-25T11:13:00.921Z</time></trkpt><trkpt lat="37.9927417" lon="14.9309117"><ele>1288.0</ele><time>2026-04-25T11:13:01.921Z</time></trkpt><trkpt lat="37.9926483" lon="14.930855"><ele>1288.0</ele><time>2026-04-25T11:13:02.92Z</time></trkpt><trkpt lat="37.9925533" lon="14.9307983"><ele>1288.0</ele><time>2026-04-25T11:13:03.921Z</time></trkpt><trkpt lat="37.99247" lon="14.9307383"><ele>1286.6000000000001</ele><time>2026-04-25T11:13:04.921Z</time></trkpt><trkpt lat="37.992395" lon="14.930665"><ele>1285.2</ele><time>2026-04-25T11:13:05.921Z</time></trkpt><trkpt lat="37.9923283" lon="14.9305717"><ele>1283.8</ele><time>2026-04-25T11:13:06.921Z</time></trkpt><trkpt lat="37.9922867" lon="14.9304633"><ele>1282.4</ele><time>2026-04-25T11:13:07.92Z</time></trkpt><trkpt lat="37.992275" lon="14.9303417"><ele>1281.0</ele><time>2026-04-25T11:13:08.921Z</time></trkpt><trkpt lat="37.9922817" lon="14.9302167"><ele>1281.0</ele><time>2026-04-25T11:13:09.921Z</time></trkpt><trkpt lat="37.9923033" lon="14.9300883"><ele>1281.0</ele><time>2026-04-25T11:13:10.92Z</time></trkpt><trkpt lat="37.99233" lon="14.9299583"><ele>1281.0</ele><time>2026-04-25T11:13:11.921Z</time></trkpt><trkpt lat="37.9923633" lon="14.9298233"><ele>1281.0</ele><time>2026-04-25T11:13:12.921Z</time></trkpt><trkpt lat="37.9923867" lon="14.92968"><ele>1281.0</ele><time>2026-04-25T11:13:13.921Z</time></trkpt><trkpt lat="37.9924" lon="14.9295217"><ele>1281.25</ele><time>2026-04-25T11:13:14.921Z</time></trkpt><trkpt lat="37.9924017" lon="14.9293567"><ele>1281.5</ele><time>2026-04-25T11:13:15.92Z</time></trkpt><trkpt lat="37.99238" lon="14.9291933"><ele>1281.75</ele><time>2026-04-25T11:13:16.92Z</time></trkpt><trkpt lat="37.9923267" lon="14.9290167"><ele>1282.0</ele><time>2026-04-25T11:13:17.92Z</time></trkpt><trkpt lat="37.99225" lon="14.9288383"><ele>1281.3333333333333</ele><time>2026-04-25T11:13:18.921Z</time></trkpt><trkpt lat="37.99217" lon="14.92865"><ele>1280.6666666666667</ele><time>2026-04-25T11:13:19.921Z</time></trkpt><trkpt lat="37.992085" lon="14.9284517"><ele>1280.0</ele><time>2026-04-25T11:13:20.921Z</time></trkpt><trkpt lat="37.99201" lon="14.9282533"><ele>1282.0</ele><time>2026-04-25T11:13:21.92Z</time></trkpt><trkpt lat="37.9919383" lon="14.9280517"><ele>1284.0</ele><time>2026-04-25T11:13:22.921Z</time></trkpt><trkpt lat="37.991865" lon="14.9278467"><ele>1286.0</ele><time>2026-04-25T11:13:23.92Z</time></trkpt><trkpt lat="37.991795" lon="14.9276433"><ele>1284.6666666666667</ele><time>2026-04-25T11:13:24.921Z</time></trkpt><trkpt lat="37.9917217" lon="14.9274567"><ele>1283.3333333333333</ele><time>2026-04-25T11:13:25.92Z</time></trkpt><trkpt lat="37.9916483" lon="14.9272683"><ele>1282.0</ele><time>2026-04-25T11:13:26.92Z</time></trkpt><trkpt lat="37.99157" lon="14.927085"><ele>1281.3333333333333</ele><time>2026-04-25T11:13:27.921Z</time></trkpt><trkpt lat="37.991485" lon="14.926915"><ele>1280.6666666666667</ele><time>2026-04-25T11:13:28.92Z</time></trkpt><trkpt lat="37.9913883" lon="14.9267483"><ele>1280.0</ele><time>2026-04-25T11:13:29.921Z</time></trkpt><trkpt lat="37.9912833" lon="14.9265933"><ele>1280.0</ele><time>2026-04-25T11:13:30.92Z</time></trkpt><trkpt lat="37.991165" lon="14.9264517"><ele>1280.0</ele><time>2026-04-25T11:13:31.92Z</time></trkpt><trkpt lat="37.9910417" lon="14.926315"><ele>1280.0</ele><time>2026-04-25T11:13:32.921Z</time></trkpt><trkpt lat="37.9909117" lon="14.9261767"><ele>1279.6666666666667</ele><time>2026-04-25T11:13:33.921Z</time></trkpt><trkpt lat="37.9907817" lon="14.9260433"><ele>1279.3333333333333</ele><time>2026-04-25T11:13:34.921Z</time></trkpt><trkpt lat="37.9906583" lon="14.9259117"><ele>1279.0</ele><time>2026-04-25T11:13:35.92Z</time></trkpt><trkpt lat="37.9905383" lon="14.92578"><ele>1279.0</ele><time>2026-04-25T11:13:36.92Z</time></trkpt><trkpt lat="37.9904083" lon="14.925645"><ele>1279.0</ele><time>2026-04-25T11:13:37.92Z</time></trkpt><trkpt lat="37.9902917" lon="14.92551"><ele>1279.0</ele><time>2026-04-25T11:13:38.921Z</time></trkpt><trkpt lat="37.990175" lon="14.9253783"><ele>1279.0</ele><time>2026-04-25T11:13:39.92Z</time></trkpt><trkpt lat="37.9900617" lon="14.925255"><ele>1279.0</ele><time>2026-04-25T11:13:40.921Z</time></trkpt><trkpt lat="37.9899583" lon="14.925135"><ele>1279.0</ele><time>2026-04-25T11:13:41.921Z</time></trkpt><trkpt lat="37.989865" lon="14.925015"><ele>1279.0</ele><time>2026-04-25T11:13:42.921Z</time></trkpt><trkpt lat="37.9897733" lon="14.924875"><ele>1279.3333333333333</ele><time>2026-04-25T11:13:43.92Z</time></trkpt><trkpt lat="37.9896867" lon="14.9247117"><ele>1279.6666666666667</ele><time>2026-04-25T11:13:44.921Z</time></trkpt><trkpt lat="37.989605" lon="14.9245233"><ele>1280.0</ele><time>2026-04-25T11:13:45.921Z</time></trkpt><trkpt lat="37.98953" lon="14.9243167"><ele>1287.3333333333335</ele><time>2026-04-25T11:13:46.921Z</time></trkpt><trkpt lat="37.9894517" lon="14.924095"><ele>1294.6666666666667</ele><time>2026-04-25T11:13:47.921Z</time></trkpt><trkpt lat="37.989365" lon="14.9238717"><ele>1302.0</ele><time>2026-04-25T11:13:48.92Z</time></trkpt><trkpt lat="37.98926" lon="14.9236617"><ele>1298.0</ele><time>2026-04-25T11:13:49.921Z</time></trkpt><trkpt lat="37.98914" lon="14.92346"><ele>1294.0</ele><time>2026-04-25T11:13:50.921Z</time></trkpt><trkpt lat="37.9890133" lon="14.9232817"><ele>1290.0</ele><time>2026-04-25T11:13:51.921Z</time></trkpt><trkpt lat="37.9888817" lon="14.9231267"><ele>1290.0</ele><time>2026-04-25T11:13:52.921Z</time></trkpt><trkpt lat="37.9887483" lon="14.9229917"><ele>1290.0</ele><time>2026-04-25T11:13:53.921Z</time></trkpt><trkpt lat="37.9886017" lon="14.92288"><ele>1290.0</ele><time>2026-04-25T11:13:54.921Z</time></trkpt><trkpt lat="37.98844" lon="14.92279"><ele>1291.0</ele><time>2026-04-25T11:13:55.921Z</time></trkpt><trkpt lat="37.9882717" lon="14.922715"><ele>1292.0</ele><time>2026-04-25T11:13:56.921Z</time></trkpt><trkpt lat="37.9881017" lon="14.9226317"><ele>1293.0</ele><time>2026-04-25T11:13:57.92Z</time></trkpt><trkpt lat="37.9879333" lon="14.9225433"><ele>1293.0</ele><time>2026-04-25T11:13:58.92Z</time></trkpt><trkpt lat="37.9877767" lon="14.92245"><ele>1293.0</ele><time>2026-04-25T11:13:59.921Z</time></trkpt><trkpt lat="37.987625" lon="14.9223717"><ele>1293.0</ele><time>2026-04-25T11:14:00.92Z</time></trkpt><trkpt lat="37.9874967" lon="14.9222967"><ele>1289.5</ele><time>2026-04-25T11:14:01.92Z</time></trkpt><trkpt lat="37.9873783" lon="14.922205"><ele>1286.0</ele><time>2026-04-25T11:14:02.921Z</time></trkpt><trkpt lat="37.9872883" lon="14.9220867"><ele>1282.5</ele><time>2026-04-25T11:14:03.92Z</time></trkpt><trkpt lat="37.987225" lon="14.9219367"><ele>1279.0</ele><time>2026-04-25T11:14:04.92Z</time></trkpt><trkpt lat="37.98719" lon="14.9217683"><ele>1281.25</ele><time>2026-04-25T11:14:05.921Z</time></trkpt><trkpt lat="37.98718" lon="14.92159"><ele>1283.5</ele><time>2026-04-25T11:14:06.921Z</time></trkpt><trkpt lat="37.9871967" lon="14.921415"><ele>1285.75</ele><time>2026-04-25T11:14:07.92Z</time></trkpt><trkpt lat="37.9872433" lon="14.9212433"><ele>1288.0</ele><time>2026-04-25T11:14:08.921Z</time></trkpt><trkpt lat="37.9873167" lon="14.9210967"><ele>1288.0</ele><time>2026-04-25T11:14:09.921Z</time></trkpt><trkpt lat="37.987415" lon="14.9209483"><ele>1288.0</ele><time>2026-04-25T11:14:10.92Z</time></trkpt><trkpt lat="37.9875333" lon="14.920805"><ele>1288.0</ele><time>2026-04-25T11:14:11.92Z</time></trkpt><trkpt lat="37.9876483" lon="14.9206633"><ele>1296.0</ele><time>2026-04-25T11:14:12.921Z</time></trkpt><trkpt lat="37.987765" lon="14.9205167"><ele>1304.0</ele><time>2026-04-25T11:14:13.92Z</time></trkpt><trkpt lat="37.9878817" lon="14.9203733"><ele>1312.0</ele><time>2026-04-25T11:14:14.92Z</time></trkpt><trkpt lat="37.9879983" lon="14.9202433"><ele>1312.0</ele><time>2026-04-25T11:14:15.921Z</time></trkpt><trkpt lat="37.988125" lon="14.9201267"><ele>1312.0</ele><time>2026-04-25T11:14:16.92Z</time></trkpt><trkpt lat="37.9882517" lon="14.9200333"><ele>1312.0</ele><time>2026-04-25T11:14:17.921Z</time></trkpt><trkpt lat="37.98839" lon="14.9199433"><ele>1309.0</ele><time>2026-04-25T11:14:18.92Z</time></trkpt><trkpt lat="37.9885283" lon="14.919845"><ele>1306.0</ele><time>2026-04-25T11:14:19.921Z</time></trkpt><trkpt lat="37.9886533" lon="14.919725"><ele>1303.0</ele><time>2026-04-25T11:14:20.921Z</time></trkpt><trkpt lat="37.988775" lon="14.9196033"><ele>1303.0</ele><time>2026-04-25T11:14:21.921Z</time></trkpt><trkpt lat="37.98889" lon="14.9194767"><ele>1303.0</ele><time>2026-04-25T11:14:22.921Z</time></trkpt><trkpt lat="37.9890067" lon="14.9193533"><ele>1303.0</ele><time>2026-04-25T11:14:23.92Z</time></trkpt><trkpt lat="37.9891017" lon="14.9192183"><ele>1303.0</ele><time>2026-04-25T11:14:24.921Z</time></trkpt><trkpt lat="37.989185" lon="14.9190617"><ele>1303.75</ele><time>2026-04-25T11:14:25.92Z</time></trkpt><trkpt lat="37.989255" lon="14.918895"><ele>1304.5</ele><time>2026-04-25T11:14:26.921Z</time></trkpt><trkpt lat="37.9893083" lon="14.918725"><ele>1305.25</ele><time>2026-04-25T11:14:27.921Z</time></trkpt><trkpt lat="37.989355" lon="14.918545"><ele>1306.0</ele><time>2026-04-25T11:14:28.921Z</time></trkpt><trkpt lat="37.9894033" lon="14.9183733"><ele>1304.0</ele><time>2026-04-25T11:14:29.921Z</time></trkpt><trkpt lat="37.98944" lon="14.9182017"><ele>1302.0</ele><time>2026-04-25T11:14:30.921Z</time></trkpt><trkpt lat="37.9894717" lon="14.9180383"><ele>1300.0</ele><time>2026-04-25T11:14:31.921Z</time></trkpt><trkpt lat="37.9894983" lon="14.91788"><ele>1298.0</ele><time>2026-04-25T11:14:32.92Z</time></trkpt><trkpt lat="37.9895267" lon="14.917725"><ele>1298.0</ele><time>2026-04-25T11:14:33.921Z</time></trkpt><trkpt lat="37.9895533" lon="14.9175767"><ele>1298.0</ele><time>2026-04-25T11:14:34.92Z</time></trkpt><trkpt lat="37.9895733" lon="14.9174383"><ele>1298.0</ele><time>2026-04-25T11:14:35.921Z</time></trkpt><trkpt lat="37.9895983" lon="14.91731"><ele>1298.0</ele><time>2026-04-25T11:14:36.921Z</time></trkpt><trkpt lat="37.9896233" lon="14.9171733"><ele>1298.0</ele><time>2026-04-25T11:14:37.921Z</time></trkpt><trkpt lat="37.9896467" lon="14.9170483"><ele>1296.8000000000002</ele><time>2026-04-25T11:14:38.92Z</time></trkpt><trkpt lat="37.9896717" lon="14.9169233"><ele>1295.6</ele><time>2026-04-25T11:14:39.921Z</time></trkpt><trkpt lat="37.9896967" lon="14.9168083"><ele>1294.4</ele><time>2026-04-25T11:14:40.92Z</time></trkpt><trkpt lat="37.98972" lon="14.9166883"><ele>1293.1999999999998</ele><time>2026-04-25T11:14:41.921Z</time></trkpt><trkpt lat="37.9897533" lon="14.916575"><ele>1292.0</ele><time>2026-04-25T11:14:42.92Z</time></trkpt><trkpt lat="37.9897833" lon="14.9164733"><ele>1291.1999999999998</ele><time>2026-04-25T11:14:43.921Z</time></trkpt><trkpt lat="37.9898033" lon="14.91636"><ele>1290.4</ele><time>2026-04-25T11:14:44.92Z</time></trkpt><trkpt lat="37.9898233" lon="14.9162517"><ele>1289.6</ele><time>2026-04-25T11:14:45.921Z</time></trkpt><trkpt lat="37.9898417" lon="14.9161367"><ele>1288.8000000000002</ele><time>2026-04-25T11:14:46.921Z</time></trkpt><trkpt lat="37.9898617" lon="14.9160217"><ele>1288.0</ele><time>2026-04-25T11:14:47.92Z</time></trkpt><trkpt lat="37.9898783" lon="14.9159083"><ele>1287.0</ele><time>2026-04-25T11:14:48.921Z</time></trkpt><trkpt lat="37.9898967" lon="14.9157883"><ele>1286.0</ele><time>2026-04-25T11:14:49.921Z</time></trkpt><trkpt lat="37.989915" lon="14.91567"><ele>1285.0</ele><time>2026-04-25T11:14:50.921Z</time></trkpt><trkpt lat="37.989935" lon="14.915555"><ele>1284.0</ele><time>2026-04-25T11:14:51.921Z</time></trkpt><trkpt lat="37.9899567" lon="14.91544"><ele>1283.0</ele><time>2026-04-25T11:14:52.92Z</time></trkpt><trkpt lat="37.9899817" lon="14.915325"><ele>1283.0</ele><time>2026-04-25T11:14:53.92Z</time></trkpt><trkpt lat="37.990005" lon="14.9152117"><ele>1283.0</ele><time>2026-04-25T11:14:54.92Z</time></trkpt><trkpt lat="37.990035" lon="14.9150983"><ele>1283.0</ele><time>2026-04-25T11:14:55.921Z</time></trkpt><trkpt lat="37.99007" lon="14.914985"><ele>1283.0</ele><time>2026-04-25T11:14:56.921Z</time></trkpt><trkpt lat="37.9900933" lon="14.914865"><ele>1283.0</ele><time>2026-04-25T11:14:57.92Z</time></trkpt><trkpt lat="37.9901033" lon="14.9147467"><ele>1282.5</ele><time>2026-04-25T11:14:58.921Z</time></trkpt><trkpt lat="37.9900983" lon="14.91463"><ele>1282.0</ele><time>2026-04-25T11:14:59.921Z</time></trkpt><trkpt lat="37.9900733" lon="14.9145217"><ele>1281.5</ele><time>2026-04-25T11:15:00.921Z</time></trkpt><trkpt lat="37.9900417" lon="14.91442"><ele>1281.0</ele><time>2026-04-25T11:15:01.92Z</time></trkpt><trkpt lat="37.9900033" lon="14.9143267"><ele>1280.5</ele><time>2026-04-25T11:15:02.921Z</time></trkpt><trkpt lat="37.9899767" lon="14.9142317"><ele>1280.0</ele><time>2026-04-25T11:15:03.921Z</time></trkpt><trkpt lat="37.989965" lon="14.9141417"><ele>1280.0</ele><time>2026-04-25T11:15:04.921Z</time></trkpt><trkpt lat="37.989975" lon="14.9140467"><ele>1280.0</ele><time>2026-04-25T11:15:05.921Z</time></trkpt><trkpt lat="37.9900017" lon="14.913945"><ele>1280.0</ele><time>2026-04-25T11:15:06.921Z</time></trkpt><trkpt lat="37.9900117" lon="14.9138317"><ele>1280.0</ele><time>2026-04-25T11:15:07.921Z</time></trkpt><trkpt lat="37.9900067" lon="14.91372"><ele>1280.0</ele><time>2026-04-25T11:15:08.921Z</time></trkpt><trkpt lat="37.9900017" lon="14.9136217"><ele>1280.0</ele><time>2026-04-25T11:15:09.921Z</time></trkpt><trkpt lat="37.9899817" lon="14.9135267"><ele>1280.0</ele><time>2026-04-25T11:15:10.92Z</time></trkpt><trkpt lat="37.9899483" lon="14.9134317"><ele>1280.0</ele><time>2026-04-25T11:15:11.921Z</time></trkpt><trkpt lat="37.989915" lon="14.91333"><ele>1280.0</ele><time>2026-04-25T11:15:12.92Z</time></trkpt><trkpt lat="37.9898767" lon="14.9132183"><ele>1280.0</ele><time>2026-04-25T11:15:13.921Z</time></trkpt><trkpt lat="37.9898467" lon="14.91311"><ele>1280.0</ele><time>2026-04-25T11:15:14.921Z</time></trkpt><trkpt lat="37.9898217" lon="14.9130083"><ele>1280.0</ele><time>2026-04-25T11:15:15.92Z</time></trkpt><trkpt lat="37.9897917" lon="14.9129217"><ele>1279.6666666666667</ele><time>2026-04-25T11:15:16.921Z</time></trkpt><trkpt lat="37.9897617" lon="14.9128317"><ele>1279.3333333333335</ele><time>2026-04-25T11:15:17.92Z</time></trkpt><trkpt lat="37.9897317" lon="14.912735"><ele>1279.0</ele><time>2026-04-25T11:15:18.92Z</time></trkpt><trkpt lat="37.9897033" lon="14.9126417"><ele>1278.6666666666667</ele><time>2026-04-25T11:15:19.92Z</time></trkpt><trkpt lat="37.9896667" lon="14.9125467"><ele>1278.3333333333333</ele><time>2026-04-25T11:15:20.921Z</time></trkpt><trkpt lat="37.9896233" lon="14.9124517"><ele>1278.0</ele><time>2026-04-25T11:15:21.921Z</time></trkpt><trkpt lat="37.98957" lon="14.9123633"><ele>1278.6666666666667</ele><time>2026-04-25T11:15:22.92Z</time></trkpt><trkpt lat="37.989515" lon="14.9122967"><ele>1279.3333333333333</ele><time>2026-04-25T11:15:23.92Z</time></trkpt><trkpt lat="37.98945" lon="14.9122267"><ele>1280.0</ele><time>2026-04-25T11:15:24.921Z</time></trkpt><trkpt lat="37.9893867" lon="14.9121567"><ele>1280.6666666666665</ele><time>2026-04-25T11:15:25.92Z</time></trkpt><trkpt lat="37.9893267" lon="14.9120867"><ele>1281.3333333333333</ele><time>2026-04-25T11:15:26.92Z</time></trkpt><trkpt lat="37.98927" lon="14.9120317"><ele>1282.0</ele><time>2026-04-25T11:15:27.92Z</time></trkpt><trkpt lat="37.98922" lon="14.9119717"><ele>1281.0</ele><time>2026-04-25T11:15:28.921Z</time></trkpt><trkpt lat="37.9891733" lon="14.91191"><ele>1280.0</ele><time>2026-04-25T11:15:29.92Z</time></trkpt><trkpt lat="37.9891133" lon="14.91179"><ele>1279.0</ele><time>2026-04-25T11:15:31.92Z</time></trkpt><trkpt lat="37.989085" lon="14.9116617"><ele>1278.0</ele><time>2026-04-25T11:15:33.92Z</time></trkpt><trkpt lat="37.989095" lon="14.9115383"><ele>1277.0</ele><time>2026-04-25T11:15:35.92Z</time></trkpt><trkpt lat="37.9890967" lon="14.9114083"><ele>1277.0</ele><time>2026-04-25T11:15:37.921Z</time></trkpt><trkpt lat="37.989055" lon="14.91129"><ele>1277.0</ele><time>2026-04-25T11:15:39.921Z</time></trkpt><trkpt lat="37.98899" lon="14.911165"><ele>1277.0</ele><time>2026-04-25T11:15:41.921Z</time></trkpt><trkpt lat="37.988955" lon="14.9110967"><ele>1277.0</ele><time>2026-04-25T11:15:42.921Z</time></trkpt><trkpt lat="37.9889067" lon="14.9110333"><ele>1277.0</ele><time>2026-04-25T11:15:43.921Z</time></trkpt><trkpt lat="37.98885" lon="14.9109717"><ele>1277.0</ele><time>2026-04-25T11:15:44.92Z</time></trkpt><trkpt lat="37.9888017" lon="14.910915"><ele>1279.0</ele><time>2026-04-25T11:15:45.92Z</time></trkpt><trkpt lat="37.9887233" lon="14.9108183"><ele>1281.0</ele><time>2026-04-25T11:15:47.921Z</time></trkpt><trkpt lat="37.988675" lon="14.9107483"><ele>1283.0</ele><time>2026-04-25T11:15:48.921Z</time></trkpt><trkpt lat="37.9886217" lon="14.910685"><ele>1285.0</ele><time>2026-04-25T11:15:49.92Z</time></trkpt><trkpt lat="37.9885683" lon="14.910625"><ele>1287.0</ele><time>2026-04-25T11:15:50.921Z</time></trkpt><trkpt lat="37.9885117" lon="14.910585"><ele>1289.0</ele><time>2026-04-25T11:15:51.921Z</time></trkpt><trkpt lat="37.9884617" lon="14.910535"><ele>1289.0</ele><time>2026-04-25T11:15:52.92Z</time></trkpt><trkpt lat="37.9883967" lon="14.91049"><ele>1289.0</ele><time>2026-04-25T11:15:53.921Z</time></trkpt><trkpt lat="37.9883533" lon="14.9104217"><ele>1289.0</ele><time>2026-04-25T11:15:54.921Z</time></trkpt><trkpt lat="37.98831" lon="14.91035"><ele>1289.0</ele><time>2026-04-25T11:15:55.921Z</time></trkpt><trkpt lat="37.9882367" lon="14.9102367"><ele>1289.0</ele><time>2026-04-25T11:15:57.92Z</time></trkpt><trkpt lat="37.9881967" lon="14.9101717"><ele>1289.0</ele><time>2026-04-25T11:16:00.921Z</time></trkpt><trkpt lat="37.988145" lon="14.910025"><ele>1288.0</ele><time>2026-04-25T11:16:21.92Z</time></trkpt><trkpt lat="37.9880967" lon="14.9099683"><ele>1287.0</ele><time>2026-04-25T11:16:24.921Z</time></trkpt><trkpt lat="37.9880383" lon="14.909915"><ele>1286.0</ele><time>2026-04-25T11:16:28.921Z</time></trkpt><trkpt lat="37.9879667" lon="14.9098667"><ele>1285.0</ele><time>2026-04-25T11:16:31.921Z</time></trkpt><trkpt lat="37.9878667" lon="14.9098467"><ele>1284.0</ele><time>2026-04-25T11:16:33.92Z</time></trkpt><trkpt lat="37.98777" lon="14.9098233"><ele>1283.0</ele><time>2026-04-25T11:16:34.921Z</time></trkpt><trkpt lat="37.98767" lon="14.90978"><ele>1283.0</ele><time>2026-04-25T11:16:35.921Z</time></trkpt><trkpt lat="37.9875667" lon="14.9097283"><ele>1283.0</ele><time>2026-04-25T11:16:36.92Z</time></trkpt><trkpt lat="37.9874683" lon="14.909675"><ele>1283.0</ele><time>2026-04-25T11:16:37.921Z</time></trkpt><trkpt lat="37.987375" lon="14.9096217"><ele>1283.0</ele><time>2026-04-25T11:16:38.92Z</time></trkpt><trkpt lat="37.9872833" lon="14.9095733"><ele>1283.0</ele><time>2026-04-25T11:16:39.92Z</time></trkpt><trkpt lat="37.9872017" lon="14.90951"><ele>1282.6666666666667</ele><time>2026-04-25T11:16:40.921Z</time></trkpt><trkpt lat="37.98712" lon="14.9094517"><ele>1282.3333333333335</ele><time>2026-04-25T11:16:41.921Z</time></trkpt><trkpt lat="37.9870417" lon="14.9094083"><ele>1282.0</ele><time>2026-04-25T11:16:42.921Z</time></trkpt><trkpt lat="37.98698" lon="14.9093617"><ele>1281.6666666666667</ele><time>2026-04-25T11:16:43.921Z</time></trkpt><trkpt lat="37.9869167" lon="14.9093033"><ele>1281.3333333333333</ele><time>2026-04-25T11:16:44.921Z</time></trkpt><trkpt lat="37.9868617" lon="14.9092433"><ele>1281.0</ele><time>2026-04-25T11:16:45.92Z</time></trkpt><trkpt lat="37.9868033" lon="14.9091883"><ele>1281.0</ele><time>2026-04-25T11:16:46.92Z</time></trkpt><trkpt lat="37.9867367" lon="14.909115"><ele>1281.0</ele><time>2026-04-25T11:16:47.921Z</time></trkpt><trkpt lat="37.9866667" lon="14.9090283"><ele>1281.0</ele><time>2026-04-25T11:16:48.921Z</time></trkpt><trkpt lat="37.9865933" lon="14.9089383"><ele>1281.0</ele><time>2026-04-25T11:16:49.921Z</time></trkpt><trkpt lat="37.9865267" lon="14.90884"><ele>1281.0</ele><time>2026-04-25T11:16:50.921Z</time></trkpt><trkpt lat="37.9864667" lon="14.9087267"><ele>1278.75</ele><time>2026-04-25T11:16:51.921Z</time></trkpt><trkpt lat="37.9864117" lon="14.908605"><ele>1276.5</ele><time>2026-04-25T11:16:52.921Z</time></trkpt><trkpt lat="37.9863467" lon="14.9084767"><ele>1274.25</ele><time>2026-04-25T11:16:53.921Z</time></trkpt><trkpt lat="37.9862733" lon="14.908365"><ele>1272.0</ele><time>2026-04-25T11:16:54.92Z</time></trkpt><trkpt lat="37.9862067" lon="14.9082383"><ele>1272.0</ele><time>2026-04-25T11:16:55.921Z</time></trkpt><trkpt lat="37.9861317" lon="14.9081083"><ele>1272.0</ele><time>2026-04-25T11:16:56.921Z</time></trkpt><trkpt lat="37.9860567" lon="14.9079683"><ele>1272.0</ele><time>2026-04-25T11:16:57.921Z</time></trkpt><trkpt lat="37.9859817" lon="14.9078383"><ele>1272.0</ele><time>2026-04-25T11:16:58.92Z</time></trkpt><trkpt lat="37.9859033" lon="14.9076983"><ele>1269.75</ele><time>2026-04-25T11:16:59.921Z</time></trkpt><trkpt lat="37.9858433" lon="14.9075583"><ele>1267.5</ele><time>2026-04-25T11:17:00.92Z</time></trkpt><trkpt lat="37.9858133" lon="14.907415"><ele>1265.25</ele><time>2026-04-25T11:17:01.921Z</time></trkpt><trkpt lat="37.9857817" lon="14.907285"><ele>1263.0</ele><time>2026-04-25T11:17:02.92Z</time></trkpt><trkpt lat="37.98575" lon="14.907145"><ele>1263.0</ele><time>2026-04-25T11:17:03.921Z</time></trkpt><trkpt lat="37.9857183" lon="14.9070083"><ele>1263.0</ele><time>2026-04-25T11:17:04.92Z</time></trkpt><trkpt lat="37.9857" lon="14.9068667"><ele>1263.0</ele><time>2026-04-25T11:17:05.92Z</time></trkpt><trkpt lat="37.9856817" lon="14.9067183"><ele>1263.0</ele><time>2026-04-25T11:17:06.92Z</time></trkpt><trkpt lat="37.985675" lon="14.90656"><ele>1263.5</ele><time>2026-04-25T11:17:07.921Z</time></trkpt><trkpt lat="37.9856717" lon="14.9063983"><ele>1264.0</ele><time>2026-04-25T11:17:08.92Z</time></trkpt><trkpt lat="37.9856767" lon="14.9062333"><ele>1264.5</ele><time>2026-04-25T11:17:09.921Z</time></trkpt><trkpt lat="37.9856833" lon="14.9060733"><ele>1265.0</ele><time>2026-04-25T11:17:10.92Z</time></trkpt><trkpt lat="37.9857" lon="14.9059333"><ele>1264.6</ele><time>2026-04-25T11:17:11.921Z</time></trkpt><trkpt lat="37.9857283" lon="14.9058083"><ele>1264.2</ele><time>2026-04-25T11:17:12.92Z</time></trkpt><trkpt lat="37.9857867" lon="14.90569"><ele>1263.8</ele><time>2026-04-25T11:17:13.921Z</time></trkpt><trkpt lat="37.985855" lon="14.9056033"><ele>1263.4</ele><time>2026-04-25T11:17:14.921Z</time></trkpt><trkpt lat="37.9859383" lon="14.9055367"><ele>1263.0</ele><time>2026-04-25T11:17:15.921Z</time></trkpt><trkpt lat="37.9860367" lon="14.905495"><ele>1264.75</ele><time>2026-04-25T11:17:16.92Z</time></trkpt><trkpt lat="37.9861483" lon="14.9054783"><ele>1266.5</ele><time>2026-04-25T11:17:17.92Z</time></trkpt><trkpt lat="37.9862633" lon="14.90548"><ele>1268.25</ele><time>2026-04-25T11:17:18.921Z</time></trkpt><trkpt lat="37.9863867" lon="14.9054883"><ele>1270.0</ele><time>2026-04-25T11:17:19.921Z</time></trkpt><trkpt lat="37.9865217" lon="14.9055017"><ele>1270.0</ele><time>2026-04-25T11:17:20.92Z</time></trkpt><trkpt lat="37.9866483" lon="14.9055167"><ele>1270.0</ele><time>2026-04-25T11:17:21.921Z</time></trkpt><trkpt lat="37.9867717" lon="14.9055267"><ele>1270.0</ele><time>2026-04-25T11:17:22.921Z</time></trkpt><trkpt lat="37.9868667" lon="14.9055117"><ele>1270.0</ele><time>2026-04-25T11:17:23.921Z</time></trkpt><trkpt lat="37.9869333" lon="14.9054633"><ele>1270.0</ele><time>2026-04-25T11:17:24.921Z</time></trkpt><trkpt lat="37.9869833" lon="14.9053933"><ele>1271.2</ele><time>2026-04-25T11:17:25.92Z</time></trkpt><trkpt lat="37.987005" lon="14.9052933"><ele>1272.4</ele><time>2026-04-25T11:17:26.921Z</time></trkpt><trkpt lat="37.9870083" lon="14.9051783"><ele>1273.6</ele><time>2026-04-25T11:17:27.921Z</time></trkpt><trkpt lat="37.98703" lon="14.9050517"><ele>1274.8</ele><time>2026-04-25T11:17:28.921Z</time></trkpt><trkpt lat="37.9870633" lon="14.904925"><ele>1276.0</ele><time>2026-04-25T11:17:29.921Z</time></trkpt><trkpt lat="37.987115" lon="14.9048067"><ele>1276.0</ele><time>2026-04-25T11:17:30.92Z</time></trkpt><trkpt lat="37.987175" lon="14.9046967"><ele>1276.0</ele><time>2026-04-25T11:17:31.92Z</time></trkpt><trkpt lat="37.9872467" lon="14.904585"><ele>1276.0</ele><time>2026-04-25T11:17:32.92Z</time></trkpt><trkpt lat="37.98732" lon="14.9044683"><ele>1276.0</ele><time>2026-04-25T11:17:33.921Z</time></trkpt><trkpt lat="37.9874083" lon="14.9043683"><ele>1276.0</ele><time>2026-04-25T11:17:34.921Z</time></trkpt><trkpt lat="37.9875067" lon="14.9042917"><ele>1276.0</ele><time>2026-04-25T11:17:35.92Z</time></trkpt><trkpt lat="37.9876083" lon="14.90422"><ele>1276.0</ele><time>2026-04-25T11:17:36.92Z</time></trkpt><trkpt lat="37.98772" lon="14.90416"><ele>1276.0</ele><time>2026-04-25T11:17:37.921Z</time></trkpt><trkpt lat="37.9878233" lon="14.90409"><ele>1277.0</ele><time>2026-04-25T11:17:38.921Z</time></trkpt><trkpt lat="37.98793" lon="14.9040067"><ele>1278.0</ele><time>2026-04-25T11:17:39.921Z</time></trkpt><trkpt lat="37.988035" lon="14.903915"><ele>1279.0</ele><time>2026-04-25T11:17:40.92Z</time></trkpt><trkpt lat="37.9881433" lon="14.9038233"><ele>1280.0</ele><time>2026-04-25T11:17:41.92Z</time></trkpt><trkpt lat="37.9882467" lon="14.90372"><ele>1280.0</ele><time>2026-04-25T11:17:42.92Z</time></trkpt><trkpt lat="37.9883417" lon="14.9036067"><ele>1280.0</ele><time>2026-04-25T11:17:43.921Z</time></trkpt><trkpt lat="37.988435" lon="14.90348"><ele>1280.0</ele><time>2026-04-25T11:17:44.921Z</time></trkpt><trkpt lat="37.9885167" lon="14.90334"><ele>1280.0</ele><time>2026-04-25T11:17:45.92Z</time></trkpt><trkpt lat="37.9885883" lon="14.9031883"><ele>1279.0</ele><time>2026-04-25T11:17:46.92Z</time></trkpt><trkpt lat="37.9886517" lon="14.903025"><ele>1278.0</ele><time>2026-04-25T11:17:47.921Z</time></trkpt><trkpt lat="37.988715" lon="14.90287"><ele>1277.0</ele><time>2026-04-25T11:17:48.92Z</time></trkpt><trkpt lat="37.9887883" lon="14.9027033"><ele>1276.0</ele><time>2026-04-25T11:17:49.921Z</time></trkpt><trkpt lat="37.9888517" lon="14.9025433"><ele>1276.0</ele><time>2026-04-25T11:17:50.921Z</time></trkpt><trkpt lat="37.9889217" lon="14.9023783"><ele>1276.0</ele><time>2026-04-25T11:17:51.92Z</time></trkpt><trkpt lat="37.988985" lon="14.9022167"><ele>1276.0</ele><time>2026-04-25T11:17:52.921Z</time></trkpt><trkpt lat="37.9890517" lon="14.9020667"><ele>1276.0</ele><time>2026-04-25T11:17:53.921Z</time></trkpt><trkpt lat="37.9891317" lon="14.9019333"><ele>1278.0</ele><time>2026-04-25T11:17:54.921Z</time></trkpt><trkpt lat="37.9892033" lon="14.90181"><ele>1280.0</ele><time>2026-04-25T11:17:55.921Z</time></trkpt><trkpt lat="37.989265" lon="14.9016767"><ele>1282.0</ele><time>2026-04-25T11:17:56.921Z</time></trkpt><trkpt lat="37.9893117" lon="14.9015417"><ele>1284.0</ele><time>2026-04-25T11:17:57.921Z</time></trkpt><trkpt lat="37.9893433" lon="14.9014133"><ele>1284.0</ele><time>2026-04-25T11:17:58.921Z</time></trkpt><trkpt lat="37.989355" lon="14.9012883"><ele>1284.0</ele><time>2026-04-25T11:17:59.92Z</time></trkpt><trkpt lat="37.9893333" lon="14.90117"><ele>1284.0</ele><time>2026-04-25T11:18:00.921Z</time></trkpt><trkpt lat="37.9892817" lon="14.9010667"><ele>1284.0</ele><time>2026-04-25T11:18:01.921Z</time></trkpt><trkpt lat="37.9892067" lon="14.9009867"><ele>1284.0</ele><time>2026-04-25T11:18:02.921Z</time></trkpt><trkpt lat="37.9891217" lon="14.9009217"><ele>1280.4</ele><time>2026-04-25T11:18:03.921Z</time></trkpt><trkpt lat="37.989035" lon="14.9008583"><ele>1276.8000000000002</ele><time>2026-04-25T11:18:04.92Z</time></trkpt><trkpt lat="37.9889483" lon="14.9007933"><ele>1273.1999999999998</ele><time>2026-04-25T11:18:05.921Z</time></trkpt><trkpt lat="37.9888733" lon="14.9007283"><ele>1269.6</ele><time>2026-04-25T11:18:06.921Z</time></trkpt><trkpt lat="37.9888183" lon="14.9006367"><ele>1266.0</ele><time>2026-04-25T11:18:07.92Z</time></trkpt><trkpt lat="37.9887933" lon="14.90052"><ele>1266.0</ele><time>2026-04-25T11:18:08.92Z</time></trkpt><trkpt lat="37.9887867" lon="14.900385"><ele>1266.0</ele><time>2026-04-25T11:18:09.921Z</time></trkpt><trkpt lat="37.98879" lon="14.9002367"><ele>1266.0</ele><time>2026-04-25T11:18:10.921Z</time></trkpt><trkpt lat="37.9887983" lon="14.900075"><ele>1266.0</ele><time>2026-04-25T11:18:11.921Z</time></trkpt><trkpt lat="37.988805" lon="14.8998933"><ele>1269.0</ele><time>2026-04-25T11:18:12.921Z</time></trkpt><trkpt lat="37.9888" lon="14.8996867"><ele>1272.0</ele><time>2026-04-25T11:18:13.92Z</time></trkpt><trkpt lat="37.9888" lon="14.89952"><ele>1275.0</ele><time>2026-04-25T11:18:14.921Z</time></trkpt><trkpt lat="37.9888017" lon="14.8993533"><ele>1278.0</ele><time>2026-04-25T11:18:15.92Z</time></trkpt><trkpt lat="37.9887967" lon="14.8991883"><ele>1278.0</ele><time>2026-04-25T11:18:16.921Z</time></trkpt><trkpt lat="37.9887983" lon="14.899025"><ele>1278.0</ele><time>2026-04-25T11:18:17.921Z</time></trkpt><trkpt lat="37.9887933" lon="14.8988667"><ele>1278.0</ele><time>2026-04-25T11:18:18.921Z</time></trkpt><trkpt lat="37.988785" lon="14.8987133"><ele>1278.0</ele><time>2026-04-25T11:18:19.921Z</time></trkpt><trkpt lat="37.988775" lon="14.8985667"><ele>1278.0</ele><time>2026-04-25T11:18:20.921Z</time></trkpt><trkpt lat="37.9887867" lon="14.8984217"><ele>1278.0</ele><time>2026-04-25T11:18:21.921Z</time></trkpt><trkpt lat="37.9888267" lon="14.8982717"><ele>1278.0</ele><time>2026-04-25T11:18:22.92Z</time></trkpt><trkpt lat="37.988895" lon="14.898155"><ele>1278.0</ele><time>2026-04-25T11:18:23.92Z</time></trkpt><trkpt lat="37.9889767" lon="14.8980333"><ele>1277.25</ele><time>2026-04-25T11:18:24.92Z</time></trkpt><trkpt lat="37.9890683" lon="14.8979167"><ele>1276.5</ele><time>2026-04-25T11:18:25.921Z</time></trkpt><trkpt lat="37.9891767" lon="14.8978133"><ele>1275.75</ele><time>2026-04-25T11:18:26.921Z</time></trkpt><trkpt lat="37.9892933" lon="14.89774"><ele>1275.0</ele><time>2026-04-25T11:18:27.92Z</time></trkpt><trkpt lat="37.9894233" lon="14.8976917"><ele>1275.0</ele><time>2026-04-25T11:18:28.921Z</time></trkpt><trkpt lat="37.98956" lon="14.8976467"><ele>1275.0</ele><time>2026-04-25T11:18:29.921Z</time></trkpt><trkpt lat="37.9897067" lon="14.89762"><ele>1275.0</ele><time>2026-04-25T11:18:30.921Z</time></trkpt><trkpt lat="37.9898467" lon="14.89761"><ele>1275.0</ele><time>2026-04-25T11:18:31.921Z</time></trkpt><trkpt lat="37.9899733" lon="14.8976317"><ele>1272.25</ele><time>2026-04-25T11:18:32.92Z</time></trkpt><trkpt lat="37.99009" lon="14.89768"><ele>1269.5</ele><time>2026-04-25T11:18:33.92Z</time></trkpt><trkpt lat="37.9901967" lon="14.897765"><ele>1266.75</ele><time>2026-04-25T11:18:34.921Z</time></trkpt><trkpt lat="37.99028" lon="14.897875"><ele>1264.0</ele><time>2026-04-25T11:18:35.921Z</time></trkpt><trkpt lat="37.9903667" lon="14.8979967"><ele>1264.0</ele><time>2026-04-25T11:18:36.921Z</time></trkpt><trkpt lat="37.9904533" lon="14.8981167"><ele>1264.0</ele><time>2026-04-25T11:18:37.92Z</time></trkpt><trkpt lat="37.990545" lon="14.8982233"><ele>1264.0</ele><time>2026-04-25T11:18:38.921Z</time></trkpt><trkpt lat="37.99064" lon="14.8982967"><ele>1264.0</ele><time>2026-04-25T11:18:39.921Z</time></trkpt><trkpt lat="37.9907383" lon="14.8983317"><ele>1264.0</ele><time>2026-04-25T11:18:40.92Z</time></trkpt><trkpt lat="37.9908383" lon="14.898315"><ele>1264.0</ele><time>2026-04-25T11:18:41.921Z</time></trkpt><trkpt lat="37.9909383" lon="14.898255"><ele>1264.0</ele><time>2026-04-25T11:18:42.921Z</time></trkpt><trkpt lat="37.9910233" lon="14.8981583"><ele>1264.0</ele><time>2026-04-25T11:18:43.92Z</time></trkpt><trkpt lat="37.99107" lon="14.89801"><ele>1264.75</ele><time>2026-04-25T11:18:44.92Z</time></trkpt><trkpt lat="37.9911233" lon="14.8978633"><ele>1265.5</ele><time>2026-04-25T11:18:45.921Z</time></trkpt><trkpt lat="37.9911867" lon="14.8977167"><ele>1266.25</ele><time>2026-04-25T11:18:46.92Z</time></trkpt><trkpt lat="37.9912717" lon="14.8975817"><ele>1267.0</ele><time>2026-04-25T11:18:47.92Z</time></trkpt><trkpt lat="37.991375" lon="14.89745"><ele>1268.0</ele><time>2026-04-25T11:18:48.921Z</time></trkpt><trkpt lat="37.9914817" lon="14.8973067"><ele>1269.0</ele><time>2026-04-25T11:18:49.921Z</time></trkpt><trkpt lat="37.9915967" lon="14.89718"><ele>1270.0</ele><time>2026-04-25T11:18:50.921Z</time></trkpt><trkpt lat="37.9917117" lon="14.897055"><ele>1270.0</ele><time>2026-04-25T11:18:51.92Z</time></trkpt><trkpt lat="37.9918233" lon="14.896945"><ele>1270.0</ele><time>2026-04-25T11:18:52.921Z</time></trkpt><trkpt lat="37.9919117" lon="14.89684"><ele>1270.0</ele><time>2026-04-25T11:18:53.921Z</time></trkpt><trkpt lat="37.99197" lon="14.8967167"><ele>1270.0</ele><time>2026-04-25T11:18:54.921Z</time></trkpt><trkpt lat="37.99199" lon="14.8965783"><ele>1269.0</ele><time>2026-04-25T11:18:55.921Z</time></trkpt><trkpt lat="37.9919917" lon="14.8964233"><ele>1268.0</ele><time>2026-04-25T11:18:56.921Z</time></trkpt><trkpt lat="37.9919833" lon="14.8962533"><ele>1267.0</ele><time>2026-04-25T11:18:57.92Z</time></trkpt><trkpt lat="37.9919633" lon="14.8960667"><ele>1266.0</ele><time>2026-04-25T11:18:58.921Z</time></trkpt><trkpt lat="37.99195" lon="14.8958867"><ele>1263.5</ele><time>2026-04-25T11:18:59.921Z</time></trkpt><trkpt lat="37.9919367" lon="14.895705"><ele>1261.0</ele><time>2026-04-25T11:19:00.921Z</time></trkpt><trkpt lat="37.99193" lon="14.8955217"><ele>1258.5</ele><time>2026-04-25T11:19:01.921Z</time></trkpt><trkpt lat="37.9919233" lon="14.8953333"><ele>1256.0</ele><time>2026-04-25T11:19:02.921Z</time></trkpt><trkpt lat="37.9919183" lon="14.8951483"><ele>1252.5</ele><time>2026-04-25T11:19:03.92Z</time></trkpt><trkpt lat="37.9919083" lon="14.8949583"><ele>1249.0</ele><time>2026-04-25T11:19:04.921Z</time></trkpt><trkpt lat="37.9918967" lon="14.8947733"><ele>1245.5</ele><time>2026-04-25T11:19:05.921Z</time></trkpt><trkpt lat="37.9918883" lon="14.894585"><ele>1242.0</ele><time>2026-04-25T11:19:06.92Z</time></trkpt><trkpt lat="37.9918783" lon="14.8944017"><ele>1238.75</ele><time>2026-04-25T11:19:07.921Z</time></trkpt><trkpt lat="37.9918633" lon="14.8942183"><ele>1235.5</ele><time>2026-04-25T11:19:08.92Z</time></trkpt><trkpt lat="37.991855" lon="14.894045"><ele>1232.25</ele><time>2026-04-25T11:19:09.921Z</time></trkpt><trkpt lat="37.9918533" lon="14.89387"><ele>1229.0</ele><time>2026-04-25T11:19:10.92Z</time></trkpt><trkpt lat="37.9918767" lon="14.893705"><ele>1229.0</ele><time>2026-04-25T11:19:11.92Z</time></trkpt><trkpt lat="37.99191" lon="14.893535"><ele>1229.0</ele><time>2026-04-25T11:19:12.921Z</time></trkpt><trkpt lat="37.9919617" lon="14.8933817"><ele>1229.0</ele><time>2026-04-25T11:19:13.92Z</time></trkpt><trkpt lat="37.9920217" lon="14.893235"><ele>1229.0</ele><time>2026-04-25T11:19:14.921Z</time></trkpt><trkpt lat="37.9920883" lon="14.8931033"><ele>1229.75</ele><time>2026-04-25T11:19:15.921Z</time></trkpt><trkpt lat="37.9921517" lon="14.8929633"><ele>1230.5</ele><time>2026-04-25T11:19:16.92Z</time></trkpt><trkpt lat="37.9921967" lon="14.8928167"><ele>1231.25</ele><time>2026-04-25T11:19:17.921Z</time></trkpt><trkpt lat="37.99223" lon="14.8926617"><ele>1232.0</ele><time>2026-04-25T11:19:18.92Z</time></trkpt><trkpt lat="37.9922467" lon="14.8924883"><ele>1231.75</ele><time>2026-04-25T11:19:19.921Z</time></trkpt><trkpt lat="37.99226" lon="14.8923033"><ele>1231.5</ele><time>2026-04-25T11:19:20.921Z</time></trkpt><trkpt lat="37.9922683" lon="14.892115"><ele>1231.25</ele><time>2026-04-25T11:19:21.92Z</time></trkpt><trkpt lat="37.9922733" lon="14.89192"><ele>1231.0</ele><time>2026-04-25T11:19:22.921Z</time></trkpt><trkpt lat="37.9922817" lon="14.8917233"><ele>1231.0</ele><time>2026-04-25T11:19:23.92Z</time></trkpt><trkpt lat="37.9922833" lon="14.8915433"><ele>1231.0</ele><time>2026-04-25T11:19:24.921Z</time></trkpt><trkpt lat="37.9922767" lon="14.8913633"><ele>1231.0</ele><time>2026-04-25T11:19:25.92Z</time></trkpt><trkpt lat="37.992265" lon="14.8911917"><ele>1231.0</ele><time>2026-04-25T11:19:26.921Z</time></trkpt><trkpt lat="37.9922383" lon="14.8910217"><ele>1230.25</ele><time>2026-04-25T11:19:27.92Z</time></trkpt><trkpt lat="37.992225" lon="14.8908567"><ele>1229.5</ele><time>2026-04-25T11:19:28.92Z</time></trkpt><trkpt lat="37.992245" lon="14.890695"><ele>1228.75</ele><time>2026-04-25T11:19:29.92Z</time></trkpt><trkpt lat="37.9922983" lon="14.8905567"><ele>1228.0</ele><time>2026-04-25T11:19:30.921Z</time></trkpt><trkpt lat="37.9923817" lon="14.8904267"><ele>1228.0</ele><time>2026-04-25T11:19:31.92Z</time></trkpt><trkpt lat="37.9924833" lon="14.8903"><ele>1228.0</ele><time>2026-04-25T11:19:32.92Z</time></trkpt><trkpt lat="37.9925783" lon="14.8901733"><ele>1228.0</ele><time>2026-04-25T11:19:33.921Z</time></trkpt><trkpt lat="37.992675" lon="14.8900383"><ele>1228.0</ele><time>2026-04-25T11:19:34.92Z</time></trkpt><trkpt lat="37.9927717" lon="14.8899017"><ele>1226.0</ele><time>2026-04-25T11:19:35.92Z</time></trkpt><trkpt lat="37.992865" lon="14.88976"><ele>1224.0</ele><time>2026-04-25T11:19:36.921Z</time></trkpt><trkpt lat="37.9929533" lon="14.88962"><ele>1222.0</ele><time>2026-04-25T11:19:37.921Z</time></trkpt><trkpt lat="37.9930367" lon="14.889485"><ele>1220.0</ele><time>2026-04-25T11:19:38.921Z</time></trkpt><trkpt lat="37.9931117" lon="14.8893583"><ele>1220.5</ele><time>2026-04-25T11:19:39.921Z</time></trkpt><trkpt lat="37.9931833" lon="14.8892333"><ele>1221.0</ele><time>2026-04-25T11:19:40.92Z</time></trkpt><trkpt lat="37.9932383" lon="14.8890983"><ele>1221.5</ele><time>2026-04-25T11:19:41.921Z</time></trkpt><trkpt lat="37.99327" lon="14.8889617"><ele>1222.0</ele><time>2026-04-25T11:19:42.921Z</time></trkpt><trkpt lat="37.9932733" lon="14.8888233"><ele>1222.0</ele><time>2026-04-25T11:19:43.921Z</time></trkpt><trkpt lat="37.9932467" lon="14.8886717"><ele>1222.0</ele><time>2026-04-25T11:19:44.921Z</time></trkpt><trkpt lat="37.993185" lon="14.8885233"><ele>1222.0</ele><time>2026-04-25T11:19:45.921Z</time></trkpt><trkpt lat="37.9931017" lon="14.8883767"><ele>1222.0</ele><time>2026-04-25T11:19:46.92Z</time></trkpt><trkpt lat="37.99301" lon="14.88823"><ele>1222.0</ele><time>2026-04-25T11:19:47.92Z</time></trkpt><trkpt lat="37.9929233" lon="14.8880867"><ele>1222.0</ele><time>2026-04-25T11:19:48.921Z</time></trkpt><trkpt lat="37.9928417" lon="14.8879483"><ele>1222.0</ele><time>2026-04-25T11:19:49.921Z</time></trkpt><trkpt lat="37.9927583" lon="14.8878133"><ele>1222.0</ele><time>2026-04-25T11:19:50.92Z</time></trkpt><trkpt lat="37.9926867" lon="14.8876783"><ele>1219.25</ele><time>2026-04-25T11:19:51.92Z</time></trkpt><trkpt lat="37.9926383" lon="14.887545"><ele>1216.5</ele><time>2026-04-25T11:19:52.92Z</time></trkpt><trkpt lat="37.992615" lon="14.8873967"><ele>1213.75</ele><time>2026-04-25T11:19:53.921Z</time></trkpt><trkpt lat="37.992615" lon="14.8872417"><ele>1211.0</ele><time>2026-04-25T11:19:54.921Z</time></trkpt><trkpt lat="37.9926183" lon="14.8870733"><ele>1211.0</ele><time>2026-04-25T11:19:55.921Z</time></trkpt><trkpt lat="37.9926483" lon="14.8869117"><ele>1211.0</ele><time>2026-04-25T11:19:56.92Z</time></trkpt><trkpt lat="37.9926933" lon="14.8867433"><ele>1211.0</ele><time>2026-04-25T11:19:57.92Z</time></trkpt><trkpt lat="37.992735" lon="14.8865733"><ele>1211.0</ele><time>2026-04-25T11:19:58.921Z</time></trkpt><trkpt lat="37.9927783" lon="14.8863917"><ele>1209.0</ele><time>2026-04-25T11:19:59.92Z</time></trkpt><trkpt lat="37.9928217" lon="14.88621"><ele>1207.0</ele><time>2026-04-25T11:20:00.921Z</time></trkpt><trkpt lat="37.9928667" lon="14.886025"><ele>1205.0</ele><time>2026-04-25T11:20:01.921Z</time></trkpt><trkpt lat="37.9929" lon="14.88584"><ele>1204.6666666666667</ele><time>2026-04-25T11:20:02.92Z</time></trkpt><trkpt lat="37.992935" lon="14.88565"><ele>1204.3333333333333</ele><time>2026-04-25T11:20:03.921Z</time></trkpt><trkpt lat="37.9929717" lon="14.88546"><ele>1204.0</ele><time>2026-04-25T11:20:04.921Z</time></trkpt><trkpt lat="37.99301" lon="14.8852683"><ele>1204.6666666666665</ele><time>2026-04-25T11:20:05.921Z</time></trkpt><trkpt lat="37.99305" lon="14.885085"><ele>1205.3333333333333</ele><time>2026-04-25T11:20:06.92Z</time></trkpt><trkpt lat="37.9930867" lon="14.8848967"><ele>1206.0</ele><time>2026-04-25T11:20:07.921Z</time></trkpt><trkpt lat="37.993125" lon="14.88471"><ele>1206.0</ele><time>2026-04-25T11:20:08.92Z</time></trkpt><trkpt lat="37.9931517" lon="14.8845183"><ele>1206.0</ele><time>2026-04-25T11:20:09.92Z</time></trkpt><trkpt lat="37.9931683" lon="14.8843367"><ele>1206.0</ele><time>2026-04-25T11:20:10.921Z</time></trkpt><trkpt lat="37.9931767" lon="14.8841467"><ele>1206.0</ele><time>2026-04-25T11:20:11.92Z</time></trkpt><trkpt lat="37.9931917" lon="14.8839533"><ele>1204.6666666666667</ele><time>2026-04-25T11:20:12.921Z</time></trkpt><trkpt lat="37.99322" lon="14.8837533"><ele>1203.3333333333335</ele><time>2026-04-25T11:20:13.92Z</time></trkpt><trkpt lat="37.9932517" lon="14.8835633"><ele>1202.0</ele><time>2026-04-25T11:20:14.921Z</time></trkpt><trkpt lat="37.993285" lon="14.8833883"><ele>1202.0</ele><time>2026-04-25T11:20:15.921Z</time></trkpt><trkpt lat="37.99331" lon="14.8832167"><ele>1202.0</ele><time>2026-04-25T11:20:16.92Z</time></trkpt><trkpt lat="37.99332" lon="14.8830417"><ele>1202.0</ele><time>2026-04-25T11:20:17.92Z</time></trkpt><trkpt lat="37.9933233" lon="14.8828717"><ele>1202.0</ele><time>2026-04-25T11:20:18.921Z</time></trkpt><trkpt lat="37.9933" lon="14.8827233"><ele>1201.25</ele><time>2026-04-25T11:20:19.92Z</time></trkpt><trkpt lat="37.99329" lon="14.8825633"><ele>1200.5</ele><time>2026-04-25T11:20:20.92Z</time></trkpt><trkpt lat="37.9933" lon="14.8824017"><ele>1199.75</ele><time>2026-04-25T11:20:21.92Z</time></trkpt><trkpt lat="37.99337" lon="14.88225"><ele>1199.0</ele><time>2026-04-25T11:20:22.92Z</time></trkpt><trkpt lat="37.9934567" lon="14.8821383"><ele>1196.25</ele><time>2026-04-25T11:20:23.921Z</time></trkpt><trkpt lat="37.993545" lon="14.8820367"><ele>1193.5</ele><time>2026-04-25T11:20:24.92Z</time></trkpt><trkpt lat="37.9936767" lon="14.8819667"><ele>1190.75</ele><time>2026-04-25T11:20:25.921Z</time></trkpt><trkpt lat="37.9938133" lon="14.881905"><ele>1188.0</ele><time>2026-04-25T11:20:26.92Z</time></trkpt><trkpt lat="37.9939583" lon="14.8818417"><ele>1188.0</ele><time>2026-04-25T11:20:27.921Z</time></trkpt><trkpt lat="37.994095" lon="14.8817717"><ele>1188.0</ele><time>2026-04-25T11:20:28.921Z</time></trkpt><trkpt lat="37.994225" lon="14.881685"><ele>1188.0</ele><time>2026-04-25T11:20:29.921Z</time></trkpt><trkpt lat="37.9943483" lon="14.8815683"><ele>1188.0</ele><time>2026-04-25T11:20:30.921Z</time></trkpt><trkpt lat="37.9944517" lon="14.8814167"><ele>1188.0</ele><time>2026-04-25T11:20:31.921Z</time></trkpt><trkpt lat="37.99455" lon="14.88125"><ele>1188.0</ele><time>2026-04-25T11:20:32.921Z</time></trkpt><trkpt lat="37.99465" lon="14.88107"><ele>1188.0</ele><time>2026-04-25T11:20:33.92Z</time></trkpt><trkpt lat="37.9947583" lon="14.8808933"><ele>1188.0</ele><time>2026-04-25T11:20:34.921Z</time></trkpt><trkpt lat="37.994865" lon="14.8807167"><ele>1188.0</ele><time>2026-04-25T11:20:35.92Z</time></trkpt><trkpt lat="37.9949767" lon="14.880535"><ele>1188.0</ele><time>2026-04-25T11:20:36.921Z</time></trkpt><trkpt lat="37.9950867" lon="14.8803533"><ele>1188.0</ele><time>2026-04-25T11:20:37.92Z</time></trkpt><trkpt lat="37.9951983" lon="14.8801783"><ele>1188.0</ele><time>2026-04-25T11:20:38.921Z</time></trkpt><trkpt lat="37.9953083" lon="14.8799967"><ele>1188.0</ele><time>2026-04-25T11:20:39.92Z</time></trkpt><trkpt lat="37.99541" lon="14.879815"><ele>1190.0</ele><time>2026-04-25T11:20:40.921Z</time></trkpt><trkpt lat="37.9955167" lon="14.87964"><ele>1192.0</ele><time>2026-04-25T11:20:41.92Z</time></trkpt><trkpt lat="37.9956083" lon="14.8794467"><ele>1194.0</ele><time>2026-04-25T11:20:42.921Z</time></trkpt><trkpt lat="37.99571" lon="14.8792933"><ele>1190.6666666666667</ele><time>2026-04-25T11:20:43.921Z</time></trkpt><trkpt lat="37.9958017" lon="14.87914"><ele>1187.3333333333335</ele><time>2026-04-25T11:20:44.92Z</time></trkpt><trkpt lat="37.9958917" lon="14.8789783"><ele>1184.0</ele><time>2026-04-25T11:20:45.92Z</time></trkpt><trkpt lat="37.995975" lon="14.87881"><ele>1184.0</ele><time>2026-04-25T11:20:46.92Z</time></trkpt><trkpt lat="37.996055" lon="14.8786433"><ele>1184.0</ele><time>2026-04-25T11:20:47.921Z</time></trkpt><trkpt lat="37.996125" lon="14.8784983"><ele>1184.0</ele><time>2026-04-25T11:20:48.921Z</time></trkpt><trkpt lat="37.9962133" lon="14.878375"><ele>1184.0</ele><time>2026-04-25T11:20:49.92Z</time></trkpt><trkpt lat="37.9963183" lon="14.878265"><ele>1185.0</ele><time>2026-04-25T11:20:50.921Z</time></trkpt><trkpt lat="37.996435" lon="14.8781717"><ele>1186.0</ele><time>2026-04-25T11:20:51.921Z</time></trkpt><trkpt lat="37.9965517" lon="14.87808"><ele>1187.0</ele><time>2026-04-25T11:20:52.921Z</time></trkpt><trkpt lat="37.9966767" lon="14.8779917"><ele>1188.0</ele><time>2026-04-25T11:20:53.92Z</time></trkpt><trkpt lat="37.9968117" lon="14.8779167"><ele>1188.0</ele><time>2026-04-25T11:20:54.921Z</time></trkpt><trkpt lat="37.9969433" lon="14.877845"><ele>1188.0</ele><time>2026-04-25T11:20:55.921Z</time></trkpt><trkpt lat="37.9970733" lon="14.87778"><ele>1188.0</ele><time>2026-04-25T11:20:56.92Z</time></trkpt><trkpt lat="37.9971917" lon="14.8777167"><ele>1188.0</ele><time>2026-04-25T11:20:57.921Z</time></trkpt><trkpt lat="37.997295" lon="14.8776217"><ele>1189.5</ele><time>2026-04-25T11:20:58.921Z</time></trkpt><trkpt lat="37.9973967" lon="14.8775083"><ele>1191.0</ele><time>2026-04-25T11:20:59.92Z</time></trkpt><trkpt lat="37.9974867" lon="14.87736"><ele>1192.5</ele><time>2026-04-25T11:21:00.92Z</time></trkpt><trkpt lat="37.997575" lon="14.8772083"><ele>1194.0</ele><time>2026-04-25T11:21:01.92Z</time></trkpt><trkpt lat="37.9976567" lon="14.8770567"><ele>1194.0</ele><time>2026-04-25T11:21:02.92Z</time></trkpt><trkpt lat="37.99774" lon="14.87691"><ele>1194.0</ele><time>2026-04-25T11:21:03.92Z</time></trkpt><trkpt lat="37.9978217" lon="14.8767817"><ele>1194.0</ele><time>2026-04-25T11:21:04.921Z</time></trkpt><trkpt lat="37.99791" lon="14.876675"><ele>1194.0</ele><time>2026-04-25T11:21:05.921Z</time></trkpt><trkpt lat="37.9980117" lon="14.87661"><ele>1195.25</ele><time>2026-04-25T11:21:06.92Z</time></trkpt><trkpt lat="37.99813" lon="14.8766017"><ele>1196.5</ele><time>2026-04-25T11:21:07.92Z</time></trkpt><trkpt lat="37.9982583" lon="14.8766317"><ele>1197.75</ele><time>2026-04-25T11:21:08.921Z</time></trkpt><trkpt lat="37.9983867" lon="14.8766983"><ele>1199.0</ele><time>2026-04-25T11:21:09.92Z</time></trkpt><trkpt lat="37.998525" lon="14.87676"><ele>1199.0</ele><time>2026-04-25T11:21:10.92Z</time></trkpt><trkpt lat="37.9986583" lon="14.8768217"><ele>1199.0</ele><time>2026-04-25T11:21:11.92Z</time></trkpt><trkpt lat="37.9988017" lon="14.8768717"><ele>1199.0</ele><time>2026-04-25T11:21:12.92Z</time></trkpt><trkpt lat="37.9989467" lon="14.8769067"><ele>1199.0</ele><time>2026-04-25T11:21:13.921Z</time></trkpt><trkpt lat="37.9990717" lon="14.876925"><ele>1201.0</ele><time>2026-04-25T11:21:14.921Z</time></trkpt><trkpt lat="37.9992067" lon="14.877005"><ele>1203.0</ele><time>2026-04-25T11:21:15.92Z</time></trkpt><trkpt lat="37.999335" lon="14.877105"><ele>1205.0</ele><time>2026-04-25T11:21:16.92Z</time></trkpt><trkpt lat="37.9994717" lon="14.877215"><ele>1205.0</ele><time>2026-04-25T11:21:17.921Z</time></trkpt><trkpt lat="37.9995983" lon="14.8773267"><ele>1205.0</ele><time>2026-04-25T11:21:18.92Z</time></trkpt><trkpt lat="37.9997167" lon="14.87743"><ele>1205.0</ele><time>2026-04-25T11:21:19.921Z</time></trkpt><trkpt lat="37.9998317" lon="14.877535"><ele>1205.0</ele><time>2026-04-25T11:21:20.921Z</time></trkpt><trkpt lat="37.9999333" lon="14.8776317"><ele>1204.2</ele><time>2026-04-25T11:21:21.921Z</time></trkpt><trkpt lat="38.0000133" lon="14.8777483"><ele>1203.4</ele><time>2026-04-25T11:21:22.921Z</time></trkpt><trkpt lat="38.0000567" lon="14.877875"><ele>1202.6</ele><time>2026-04-25T11:21:23.92Z</time></trkpt><trkpt lat="38.0000717" lon="14.8780083"><ele>1201.8</ele><time>2026-04-25T11:21:24.92Z</time></trkpt><trkpt lat="38.0000683" lon="14.878135"><ele>1201.0</ele><time>2026-04-25T11:21:25.92Z</time></trkpt><trkpt lat="38.00006" lon="14.878265"><ele>1201.0</ele><time>2026-04-25T11:21:26.921Z</time></trkpt><trkpt lat="38.00005" lon="14.8783983"><ele>1201.0</ele><time>2026-04-25T11:21:27.921Z</time></trkpt><trkpt lat="38.00004" lon="14.878535"><ele>1201.0</ele><time>2026-04-25T11:21:28.92Z</time></trkpt><trkpt lat="38.0000333" lon="14.8786717"><ele>1201.0</ele><time>2026-04-25T11:21:29.921Z</time></trkpt><trkpt lat="38.00003" lon="14.878815"><ele>1201.0</ele><time>2026-04-25T11:21:30.921Z</time></trkpt><trkpt lat="38.000035" lon="14.8789467"><ele>1201.8</ele><time>2026-04-25T11:21:31.921Z</time></trkpt><trkpt lat="38.0000517" lon="14.8790683"><ele>1202.6</ele><time>2026-04-25T11:21:32.921Z</time></trkpt><trkpt lat="38.00009" lon="14.8791767"><ele>1203.4</ele><time>2026-04-25T11:21:33.92Z</time></trkpt><trkpt lat="38.0001433" lon="14.8792633"><ele>1204.2</ele><time>2026-04-25T11:21:34.92Z</time></trkpt><trkpt lat="38.0002133" lon="14.8793217"><ele>1205.0</ele><time>2026-04-25T11:21:35.92Z</time></trkpt><trkpt lat="38.000305" lon="14.87936"><ele>1205.0</ele><time>2026-04-25T11:21:36.921Z</time></trkpt><trkpt lat="38.0003917" lon="14.8793567"><ele>1205.0</ele><time>2026-04-25T11:21:37.921Z</time></trkpt><trkpt lat="38.0004833" lon="14.8793067"><ele>1205.0</ele><time>2026-04-25T11:21:38.921Z</time></trkpt><trkpt lat="38.0005633" lon="14.8792167"><ele>1205.0</ele><time>2026-04-25T11:21:39.921Z</time></trkpt><trkpt lat="38.0006183" lon="14.87909"><ele>1205.0</ele><time>2026-04-25T11:21:40.921Z</time></trkpt><trkpt lat="38.0006367" lon="14.87893"><ele>1205.0</ele><time>2026-04-25T11:21:41.92Z</time></trkpt><trkpt lat="38.0006167" lon="14.8787467"><ele>1205.0</ele><time>2026-04-25T11:21:42.921Z</time></trkpt><trkpt lat="38.0005933" lon="14.8785783"><ele>1205.0</ele><time>2026-04-25T11:21:43.921Z</time></trkpt><trkpt lat="38.0005917" lon="14.8784317"><ele>1205.0</ele><time>2026-04-25T11:21:44.92Z</time></trkpt><trkpt lat="38.0006067" lon="14.87829"><ele>1204.2</ele><time>2026-04-25T11:21:45.921Z</time></trkpt><trkpt lat="38.0006483" lon="14.87817"><ele>1203.4</ele><time>2026-04-25T11:21:46.92Z</time></trkpt><trkpt lat="38.0007183" lon="14.878085"><ele>1202.6</ele><time>2026-04-25T11:21:47.921Z</time></trkpt><trkpt lat="38.00082" lon="14.878025"><ele>1201.8</ele><time>2026-04-25T11:21:48.921Z</time></trkpt><trkpt lat="38.000935" lon="14.87798"><ele>1201.0</ele><time>2026-04-25T11:21:49.921Z</time></trkpt><trkpt lat="38.0010417" lon="14.8779283"><ele>1201.0</ele><time>2026-04-25T11:21:50.921Z</time></trkpt><trkpt lat="38.0011317" lon="14.8778583"><ele>1201.0</ele><time>2026-04-25T11:21:51.921Z</time></trkpt><trkpt lat="38.0011917" lon="14.877765"><ele>1201.0</ele><time>2026-04-25T11:21:52.92Z</time></trkpt><trkpt lat="38.0012067" lon="14.8776533"><ele>1201.0</ele><time>2026-04-25T11:21:53.92Z</time></trkpt><trkpt lat="38.0012017" lon="14.87753"><ele>1201.0</ele><time>2026-04-25T11:21:54.921Z</time></trkpt><trkpt lat="38.0012017" lon="14.8774"><ele>1201.0</ele><time>2026-04-25T11:21:55.92Z</time></trkpt><trkpt lat="38.0012133" lon="14.8772767"><ele>1201.0</ele><time>2026-04-25T11:21:56.921Z</time></trkpt><trkpt lat="38.0012567" lon="14.8771733"><ele>1201.0</ele><time>2026-04-25T11:21:57.921Z</time></trkpt><trkpt lat="38.001325" lon="14.8771083"><ele>1201.0</ele><time>2026-04-25T11:21:58.921Z</time></trkpt><trkpt lat="38.0014183" lon="14.8770617"><ele>1201.0</ele><time>2026-04-25T11:21:59.921Z</time></trkpt><trkpt lat="38.0015283" lon="14.8770317"><ele>1201.0</ele><time>2026-04-25T11:22:00.92Z</time></trkpt><trkpt lat="38.001645" lon="14.876995"><ele>1201.0</ele><time>2026-04-25T11:22:01.92Z</time></trkpt><trkpt lat="38.0017717" lon="14.8769517"><ele>1201.0</ele><time>2026-04-25T11:22:02.92Z</time></trkpt><trkpt lat="38.0019067" lon="14.8769117"><ele>1201.0</ele><time>2026-04-25T11:22:03.92Z</time></trkpt><trkpt lat="38.0020383" lon="14.8768717"><ele>1198.0</ele><time>2026-04-25T11:22:04.921Z</time></trkpt><trkpt lat="38.0021667" lon="14.8768467"><ele>1195.0</ele><time>2026-04-25T11:22:05.921Z</time></trkpt><trkpt lat="38.0022933" lon="14.8768533"><ele>1192.0</ele><time>2026-04-25T11:22:06.921Z</time></trkpt><trkpt lat="38.002415" lon="14.8769117"><ele>1189.0</ele><time>2026-04-25T11:22:07.92Z</time></trkpt><trkpt lat="38.0025383" lon="14.8769883"><ele>1187.0</ele><time>2026-04-25T11:22:08.921Z</time></trkpt><trkpt lat="38.002655" lon="14.877055"><ele>1185.0</ele><time>2026-04-25T11:22:09.92Z</time></trkpt><trkpt lat="38.002795" lon="14.8771383"><ele>1183.0</ele><time>2026-04-25T11:22:10.92Z</time></trkpt><trkpt lat="38.0029317" lon="14.8772267"><ele>1181.0</ele><time>2026-04-25T11:22:11.921Z</time></trkpt><trkpt lat="38.0030733" lon="14.87731"><ele>1181.0</ele><time>2026-04-25T11:22:12.921Z</time></trkpt><trkpt lat="38.003215" lon="14.8773917"><ele>1181.0</ele><time>2026-04-25T11:22:13.92Z</time></trkpt><trkpt lat="38.0033467" lon="14.8774683"><ele>1181.0</ele><time>2026-04-25T11:22:14.921Z</time></trkpt><trkpt lat="38.0034717" lon="14.8775367"><ele>1181.0</ele><time>2026-04-25T11:22:15.921Z</time></trkpt><trkpt lat="38.0036" lon="14.8775883"><ele>1180.25</ele><time>2026-04-25T11:22:16.921Z</time></trkpt><trkpt lat="38.0037333" lon="14.877605"><ele>1179.5</ele><time>2026-04-25T11:22:17.92Z</time></trkpt><trkpt lat="38.0038633" lon="14.8775733"><ele>1178.75</ele><time>2026-04-25T11:22:18.921Z</time></trkpt><trkpt lat="38.003995" lon="14.8775067"><ele>1178.0</ele><time>2026-04-25T11:22:19.921Z</time></trkpt><trkpt lat="38.0041317" lon="14.87742"><ele>1176.0</ele><time>2026-04-25T11:22:20.921Z</time></trkpt><trkpt lat="38.0042617" lon="14.8773367"><ele>1174.0</ele><time>2026-04-25T11:22:21.92Z</time></trkpt><trkpt lat="38.0043917" lon="14.877255"><ele>1172.0</ele><time>2026-04-25T11:22:22.92Z</time></trkpt><trkpt lat="38.0045217" lon="14.877185"><ele>1170.0</ele><time>2026-04-25T11:22:23.921Z</time></trkpt><trkpt lat="38.00465" lon="14.87714"><ele>1170.0</ele><time>2026-04-25T11:22:24.921Z</time></trkpt><trkpt lat="38.0047783" lon="14.87712"><ele>1170.0</ele><time>2026-04-25T11:22:25.92Z</time></trkpt><trkpt lat="38.0049083" lon="14.8771367"><ele>1170.0</ele><time>2026-04-25T11:22:26.92Z</time></trkpt><trkpt lat="38.0050317" lon="14.87721"><ele>1170.0</ele><time>2026-04-25T11:22:27.92Z</time></trkpt><trkpt lat="38.0051467" lon="14.8773183"><ele>1169.6666666666667</ele><time>2026-04-25T11:22:28.921Z</time></trkpt><trkpt lat="38.0052583" lon="14.877445"><ele>1169.3333333333335</ele><time>2026-04-25T11:22:29.92Z</time></trkpt><trkpt lat="38.005355" lon="14.87759"><ele>1169.0</ele><time>2026-04-25T11:22:30.921Z</time></trkpt><trkpt lat="38.0054517" lon="14.8777467"><ele>1166.0</ele><time>2026-04-25T11:22:31.921Z</time></trkpt><trkpt lat="38.005555" lon="14.8779067"><ele>1163.0</ele><time>2026-04-25T11:22:32.921Z</time></trkpt><trkpt lat="38.0056633" lon="14.878065"><ele>1160.0</ele><time>2026-04-25T11:22:33.921Z</time></trkpt><trkpt lat="38.0057733" lon="14.8782217"><ele>1160.0</ele><time>2026-04-25T11:22:34.921Z</time></trkpt><trkpt lat="38.0058817" lon="14.87837"><ele>1160.0</ele><time>2026-04-25T11:22:35.921Z</time></trkpt><trkpt lat="38.0059933" lon="14.8785133"><ele>1160.0</ele><time>2026-04-25T11:22:36.92Z</time></trkpt><trkpt lat="38.0061083" lon="14.8786583"><ele>1156.6666666666667</ele><time>2026-04-25T11:22:37.921Z</time></trkpt><trkpt lat="38.0062333" lon="14.8788017"><ele>1153.3333333333333</ele><time>2026-04-25T11:22:38.92Z</time></trkpt><trkpt lat="38.0063483" lon="14.8789483"><ele>1150.0</ele><time>2026-04-25T11:22:39.921Z</time></trkpt><trkpt lat="38.0064567" lon="14.879095"><ele>1150.0</ele><time>2026-04-25T11:22:40.921Z</time></trkpt><trkpt lat="38.006545" lon="14.87925"><ele>1150.0</ele><time>2026-04-25T11:22:41.92Z</time></trkpt><trkpt lat="38.0066183" lon="14.8794133"><ele>1150.0</ele><time>2026-04-25T11:22:42.921Z</time></trkpt><trkpt lat="38.0066833" lon="14.879575"><ele>1150.0</ele><time>2026-04-25T11:22:43.92Z</time></trkpt><trkpt lat="38.00675" lon="14.8797233"><ele>1148.75</ele><time>2026-04-25T11:22:44.92Z</time></trkpt><trkpt lat="38.00683" lon="14.8798467"><ele>1147.5</ele><time>2026-04-25T11:22:45.92Z</time></trkpt><trkpt lat="38.0069233" lon="14.8799683"><ele>1146.25</ele><time>2026-04-25T11:22:46.92Z</time></trkpt><trkpt lat="38.0070467" lon="14.8800767"><ele>1145.0</ele><time>2026-04-25T11:22:47.92Z</time></trkpt><trkpt lat="38.0071833" lon="14.8801733"><ele>1145.5</ele><time>2026-04-25T11:22:48.921Z</time></trkpt><trkpt lat="38.007315" lon="14.8802667"><ele>1146.0</ele><time>2026-04-25T11:22:49.92Z</time></trkpt><trkpt lat="38.007435" lon="14.880365"><ele>1146.5</ele><time>2026-04-25T11:22:50.921Z</time></trkpt><trkpt lat="38.0075417" lon="14.8804717"><ele>1147.0</ele><time>2026-04-25T11:22:51.921Z</time></trkpt><trkpt lat="38.0076317" lon="14.8805933"><ele>1147.0</ele><time>2026-04-25T11:22:52.921Z</time></trkpt><trkpt lat="38.0076917" lon="14.8807417"><ele>1147.0</ele><time>2026-04-25T11:22:53.921Z</time></trkpt><trkpt lat="38.0077317" lon="14.88092"><ele>1147.0</ele><time>2026-04-25T11:22:54.921Z</time></trkpt><trkpt lat="38.0077533" lon="14.8811"><ele>1147.0</ele><time>2026-04-25T11:22:55.92Z</time></trkpt><trkpt lat="38.007775" lon="14.88128"><ele>1144.75</ele><time>2026-04-25T11:22:56.921Z</time></trkpt><trkpt lat="38.0077883" lon="14.8814617"><ele>1142.5</ele><time>2026-04-25T11:22:57.92Z</time></trkpt><trkpt lat="38.00779" lon="14.88165"><ele>1140.25</ele><time>2026-04-25T11:22:58.92Z</time></trkpt><trkpt lat="38.00777" lon="14.8818317"><ele>1138.0</ele><time>2026-04-25T11:22:59.92Z</time></trkpt><trkpt lat="38.0077383" lon="14.882015"><ele>1138.0</ele><time>2026-04-25T11:23:00.92Z</time></trkpt><trkpt lat="38.0076867" lon="14.88218"><ele>1138.0</ele><time>2026-04-25T11:23:01.92Z</time></trkpt><trkpt lat="38.00762" lon="14.8823383"><ele>1138.0</ele><time>2026-04-25T11:23:02.921Z</time></trkpt><trkpt lat="38.0075433" lon="14.8824817"><ele>1138.0</ele><time>2026-04-25T11:23:03.92Z</time></trkpt><trkpt lat="38.0074617" lon="14.882615"><ele>1134.0</ele><time>2026-04-25T11:23:04.92Z</time></trkpt><trkpt lat="38.007385" lon="14.88275"><ele>1130.0</ele><time>2026-04-25T11:23:05.92Z</time></trkpt><trkpt lat="38.0073267" lon="14.88289"><ele>1126.0</ele><time>2026-04-25T11:23:06.92Z</time></trkpt><trkpt lat="38.0072867" lon="14.8830367"><ele>1122.0</ele><time>2026-04-25T11:23:07.921Z</time></trkpt><trkpt lat="38.0072767" lon="14.8831917"><ele>1122.0</ele><time>2026-04-25T11:23:08.92Z</time></trkpt><trkpt lat="38.00729" lon="14.8833333"><ele>1122.0</ele><time>2026-04-25T11:23:09.92Z</time></trkpt><trkpt lat="38.0073183" lon="14.883485"><ele>1122.0</ele><time>2026-04-25T11:23:10.921Z</time></trkpt><trkpt lat="38.0073467" lon="14.88365"><ele>1122.0</ele><time>2026-04-25T11:23:11.921Z</time></trkpt><trkpt lat="38.0073817" lon="14.8838217"><ele>1121.25</ele><time>2026-04-25T11:23:12.921Z</time></trkpt><trkpt lat="38.0074167" lon="14.88399"><ele>1120.5</ele><time>2026-04-25T11:23:13.921Z</time></trkpt><trkpt lat="38.00747" lon="14.88415"><ele>1119.75</ele><time>2026-04-25T11:23:14.921Z</time></trkpt><trkpt lat="38.007545" lon="14.88431"><ele>1119.0</ele><time>2026-04-25T11:23:15.92Z</time></trkpt><trkpt lat="38.0076483" lon="14.8844533"><ele>1118.25</ele><time>2026-04-25T11:23:16.921Z</time></trkpt><trkpt lat="38.0077633" lon="14.884585"><ele>1117.5</ele><time>2026-04-25T11:23:17.921Z</time></trkpt><trkpt lat="38.0078733" lon="14.8846983"><ele>1116.75</ele><time>2026-04-25T11:23:18.92Z</time></trkpt><trkpt lat="38.0079767" lon="14.8847933"><ele>1116.0</ele><time>2026-04-25T11:23:19.92Z</time></trkpt><trkpt lat="38.0080683" lon="14.8848667"><ele>1116.0</ele><time>2026-04-25T11:23:20.92Z</time></trkpt><trkpt lat="38.0081783" lon="14.8849133"><ele>1116.0</ele><time>2026-04-25T11:23:21.921Z</time></trkpt><trkpt lat="38.008285" lon="14.8849067"><ele>1116.0</ele><time>2026-04-25T11:23:22.92Z</time></trkpt><trkpt lat="38.008395" lon="14.8848333"><ele>1116.0</ele><time>2026-04-25T11:23:23.92Z</time></trkpt><trkpt lat="38.00851" lon="14.8847433"><ele>1116.5</ele><time>2026-04-25T11:23:24.921Z</time></trkpt><trkpt lat="38.0086383" lon="14.884665"><ele>1117.0</ele><time>2026-04-25T11:23:25.921Z</time></trkpt><trkpt lat="38.00877" lon="14.884625"><ele>1117.5</ele><time>2026-04-25T11:23:26.921Z</time></trkpt><trkpt lat="38.008895" lon="14.88461"><ele>1118.0</ele><time>2026-04-25T11:23:27.92Z</time></trkpt><trkpt lat="38.0090183" lon="14.884635"><ele>1118.0</ele><time>2026-04-25T11:23:28.921Z</time></trkpt><trkpt lat="38.00914" lon="14.884695"><ele>1118.0</ele><time>2026-04-25T11:23:29.921Z</time></trkpt><trkpt lat="38.0092517" lon="14.8847983"><ele>1118.0</ele><time>2026-04-25T11:23:30.921Z</time></trkpt><trkpt lat="38.009365" lon="14.8849083"><ele>1118.0</ele><time>2026-04-25T11:23:31.921Z</time></trkpt><trkpt lat="38.00948" lon="14.8850067"><ele>1117.0</ele><time>2026-04-25T11:23:32.921Z</time></trkpt><trkpt lat="38.009605" lon="14.88508"><ele>1116.0</ele><time>2026-04-25T11:23:33.921Z</time></trkpt><trkpt lat="38.0097417" lon="14.8851417"><ele>1115.0</ele><time>2026-04-25T11:23:34.921Z</time></trkpt><trkpt lat="38.0098783" lon="14.88518"><ele>1114.0</ele><time>2026-04-25T11:23:35.921Z</time></trkpt><trkpt lat="38.0100133" lon="14.8851817"><ele>1107.5</ele><time>2026-04-25T11:23:36.921Z</time></trkpt><trkpt lat="38.0101483" lon="14.8851617"><ele>1101.0</ele><time>2026-04-25T11:23:37.92Z</time></trkpt><trkpt lat="38.010275" lon="14.8851433"><ele>1094.5</ele><time>2026-04-25T11:23:38.921Z</time></trkpt><trkpt lat="38.010405" lon="14.8851683"><ele>1088.0</ele><time>2026-04-25T11:23:39.921Z</time></trkpt><trkpt lat="38.010535" lon="14.8852"><ele>1088.0</ele><time>2026-04-25T11:23:40.921Z</time></trkpt><trkpt lat="38.0106617" lon="14.8852017"><ele>1088.0</ele><time>2026-04-25T11:23:41.921Z</time></trkpt><trkpt lat="38.01078" lon="14.8851917"><ele>1088.0</ele><time>2026-04-25T11:23:42.92Z</time></trkpt><trkpt lat="38.0108933" lon="14.8852133"><ele>1088.0</ele><time>2026-04-25T11:23:43.92Z</time></trkpt><trkpt lat="38.0109917" lon="14.88528"><ele>1086.25</ele><time>2026-04-25T11:23:44.92Z</time></trkpt><trkpt lat="38.0110817" lon="14.8853667"><ele>1084.5</ele><time>2026-04-25T11:23:45.921Z</time></trkpt><trkpt lat="38.0111767" lon="14.8854483"><ele>1082.75</ele><time>2026-04-25T11:23:46.92Z</time></trkpt><trkpt lat="38.0112933" lon="14.8854883"><ele>1081.0</ele><time>2026-04-25T11:23:47.92Z</time></trkpt><trkpt lat="38.011415" lon="14.88549"><ele>1081.0</ele><time>2026-04-25T11:23:48.92Z</time></trkpt><trkpt lat="38.011545" lon="14.885485"><ele>1081.0</ele><time>2026-04-25T11:23:49.921Z</time></trkpt><trkpt lat="38.0116867" lon="14.8854833"><ele>1081.0</ele><time>2026-04-25T11:23:50.921Z</time></trkpt><trkpt lat="38.0118333" lon="14.8854967"><ele>1081.0</ele><time>2026-04-25T11:23:51.92Z</time></trkpt><trkpt lat="38.0119783" lon="14.88551"><ele>1080.75</ele><time>2026-04-25T11:23:52.921Z</time></trkpt><trkpt lat="38.0121233" lon="14.885495"><ele>1080.5</ele><time>2026-04-25T11:23:53.921Z</time></trkpt><trkpt lat="38.0122617" lon="14.885465"><ele>1080.25</ele><time>2026-04-25T11:23:54.92Z</time></trkpt><trkpt lat="38.012395" lon="14.8854483"><ele>1080.0</ele><time>2026-04-25T11:23:55.921Z</time></trkpt><trkpt lat="38.0125183" lon="14.8854467"><ele>1080.0</ele><time>2026-04-25T11:23:56.92Z</time></trkpt><trkpt lat="38.012635" lon="14.8854367"><ele>1080.0</ele><time>2026-04-25T11:23:57.921Z</time></trkpt><trkpt lat="38.0127467" lon="14.8853767"><ele>1080.0</ele><time>2026-04-25T11:23:58.921Z</time></trkpt><trkpt lat="38.012855" lon="14.885295"><ele>1080.0</ele><time>2026-04-25T11:23:59.921Z</time></trkpt><trkpt lat="38.0129583" lon="14.8851817"><ele>1080.5</ele><time>2026-04-25T11:24:00.921Z</time></trkpt><trkpt lat="38.0130617" lon="14.8850733"><ele>1081.0</ele><time>2026-04-25T11:24:01.921Z</time></trkpt><trkpt lat="38.0131767" lon="14.8849683"><ele>1081.5</ele><time>2026-04-25T11:24:02.921Z</time></trkpt><trkpt lat="38.0132967" lon="14.8848767"><ele>1082.0</ele><time>2026-04-25T11:24:03.921Z</time></trkpt><trkpt lat="38.01342" lon="14.8847867"><ele>1082.0</ele><time>2026-04-25T11:24:04.92Z</time></trkpt><trkpt lat="38.0135567" lon="14.8847133"><ele>1082.0</ele><time>2026-04-25T11:24:05.92Z</time></trkpt><trkpt lat="38.0136967" lon="14.8846567"><ele>1082.0</ele><time>2026-04-25T11:24:06.92Z</time></trkpt><trkpt lat="38.01385" lon="14.8846133"><ele>1082.0</ele><time>2026-04-25T11:24:07.921Z</time></trkpt><trkpt lat="38.0139967" lon="14.8845717"><ele>1082.0</ele><time>2026-04-25T11:24:08.921Z</time></trkpt><trkpt lat="38.0141433" lon="14.8845367"><ele>1082.0</ele><time>2026-04-25T11:24:09.92Z</time></trkpt><trkpt lat="38.0142833" lon="14.8845067"><ele>1082.0</ele><time>2026-04-25T11:24:10.921Z</time></trkpt><trkpt lat="38.0144083" lon="14.8844983"><ele>1078.75</ele><time>2026-04-25T11:24:11.921Z</time></trkpt><trkpt lat="38.01452" lon="14.8845133"><ele>1075.5</ele><time>2026-04-25T11:24:12.921Z</time></trkpt><trkpt lat="38.0146183" lon="14.8845633"><ele>1072.25</ele><time>2026-04-25T11:24:13.921Z</time></trkpt><trkpt lat="38.014715" lon="14.8846417"><ele>1069.0</ele><time>2026-04-25T11:24:14.921Z</time></trkpt><trkpt lat="38.0148233" lon="14.88472"><ele>1069.0</ele><time>2026-04-25T11:24:15.92Z</time></trkpt><trkpt lat="38.01494" lon="14.88479"><ele>1069.0</ele><time>2026-04-25T11:24:16.92Z</time></trkpt><trkpt lat="38.015055" lon="14.8848583"><ele>1069.0</ele><time>2026-04-25T11:24:17.921Z</time></trkpt><trkpt lat="38.0151683" lon="14.884905"><ele>1069.0</ele><time>2026-04-25T11:24:18.921Z</time></trkpt><trkpt lat="38.01529" lon="14.884905"><ele>1069.2</ele><time>2026-04-25T11:24:19.921Z</time></trkpt><trkpt lat="38.0154033" lon="14.8848667"><ele>1069.4</ele><time>2026-04-25T11:24:20.92Z</time></trkpt><trkpt lat="38.0155067" lon="14.8848"><ele>1069.6</ele><time>2026-04-25T11:24:21.92Z</time></trkpt><trkpt lat="38.0155883" lon="14.8847183"><ele>1069.8</ele><time>2026-04-25T11:24:22.921Z</time></trkpt><trkpt lat="38.01564" lon="14.8845983"><ele>1070.0</ele><time>2026-04-25T11:24:23.921Z</time></trkpt><trkpt lat="38.0156783" lon="14.8844533"><ele>1070.0</ele><time>2026-04-25T11:24:24.92Z</time></trkpt><trkpt lat="38.015715" lon="14.8843033"><ele>1070.0</ele><time>2026-04-25T11:24:25.921Z</time></trkpt><trkpt lat="38.01575" lon="14.884165"><ele>1070.0</ele><time>2026-04-25T11:24:26.92Z</time></trkpt><trkpt lat="38.0157767" lon="14.8840383"><ele>1070.0</ele><time>2026-04-25T11:24:27.921Z</time></trkpt><trkpt lat="38.01578" lon="14.883915"><ele>1070.0</ele><time>2026-04-25T11:24:28.921Z</time></trkpt><trkpt lat="38.015745" lon="14.8837967"><ele>1072.6</ele><time>2026-04-25T11:24:29.921Z</time></trkpt><trkpt lat="38.0156767" lon="14.8836783"><ele>1075.2</ele><time>2026-04-25T11:24:30.921Z</time></trkpt><trkpt lat="38.0156267" lon="14.8835683"><ele>1077.8</ele><time>2026-04-25T11:24:31.921Z</time></trkpt><trkpt lat="38.015615" lon="14.883445"><ele>1080.4</ele><time>2026-04-25T11:24:32.921Z</time></trkpt><trkpt lat="38.0156367" lon="14.883325"><ele>1083.0</ele><time>2026-04-25T11:24:33.921Z</time></trkpt><trkpt lat="38.0156783" lon="14.8832183"><ele>1083.0</ele><time>2026-04-25T11:24:34.921Z</time></trkpt><trkpt lat="38.0157467" lon="14.8831317"><ele>1083.0</ele><time>2026-04-25T11:24:35.92Z</time></trkpt><trkpt lat="38.01583" lon="14.8830783"><ele>1083.0</ele><time>2026-04-25T11:24:36.921Z</time></trkpt><trkpt lat="38.0159367" lon="14.883075"><ele>1083.0</ele><time>2026-04-25T11:24:37.921Z</time></trkpt><trkpt lat="38.0160567" lon="14.88309"><ele>1083.0</ele><time>2026-04-25T11:24:38.92Z</time></trkpt><trkpt lat="38.01619" lon="14.883115"><ele>1078.0</ele><time>2026-04-25T11:24:39.921Z</time></trkpt><trkpt lat="38.0163383" lon="14.8831283"><ele>1073.0</ele><time>2026-04-25T11:24:40.921Z</time></trkpt><trkpt lat="38.0164767" lon="14.8831483"><ele>1068.0</ele><time>2026-04-25T11:24:41.92Z</time></trkpt><trkpt lat="38.0166133" lon="14.88316"><ele>1063.0</ele><time>2026-04-25T11:24:42.92Z</time></trkpt><trkpt lat="38.0167433" lon="14.8831767"><ele>1062.25</ele><time>2026-04-25T11:24:43.921Z</time></trkpt><trkpt lat="38.0168733" lon="14.8831733"><ele>1061.5</ele><time>2026-04-25T11:24:44.92Z</time></trkpt><trkpt lat="38.017" lon="14.8831333"><ele>1060.75</ele><time>2026-04-25T11:24:45.92Z</time></trkpt><trkpt lat="38.0171033" lon="14.8830633"><ele>1060.0</ele><time>2026-04-25T11:24:46.92Z</time></trkpt><trkpt lat="38.0172033" lon="14.8829883"><ele>1060.0</ele><time>2026-04-25T11:24:47.921Z</time></trkpt><trkpt lat="38.01729" lon="14.8829267"><ele>1060.0</ele><time>2026-04-25T11:24:48.92Z</time></trkpt><trkpt lat="38.0173833" lon="14.8829117"><ele>1060.0</ele><time>2026-04-25T11:24:49.92Z</time></trkpt><trkpt lat="38.0174817" lon="14.8829417"><ele>1060.0</ele><time>2026-04-25T11:24:50.92Z</time></trkpt><trkpt lat="38.0175817" lon="14.883015"><ele>1060.0</ele><time>2026-04-25T11:24:51.921Z</time></trkpt><trkpt lat="38.0176933" lon="14.883085"><ele>1057.75</ele><time>2026-04-25T11:24:52.92Z</time></trkpt><trkpt lat="38.017815" lon="14.8831467"><ele>1055.5</ele><time>2026-04-25T11:24:53.921Z</time></trkpt><trkpt lat="38.017945" lon="14.88318"><ele>1053.25</ele><time>2026-04-25T11:24:54.92Z</time></trkpt><trkpt lat="38.01807" lon="14.88319"><ele>1051.0</ele><time>2026-04-25T11:24:55.92Z</time></trkpt><trkpt lat="38.0181917" lon="14.8831833"><ele>1051.0</ele><time>2026-04-25T11:24:56.921Z</time></trkpt><trkpt lat="38.0183033" lon="14.8831883"><ele>1051.0</ele><time>2026-04-25T11:24:57.92Z</time></trkpt><trkpt lat="38.0184017" lon="14.8832167"><ele>1051.0</ele><time>2026-04-25T11:24:58.921Z</time></trkpt><trkpt lat="38.0184833" lon="14.883275"><ele>1051.0</ele><time>2026-04-25T11:24:59.921Z</time></trkpt><trkpt lat="38.0185217" lon="14.8833717"><ele>1051.0</ele><time>2026-04-25T11:25:00.921Z</time></trkpt><trkpt lat="38.0185517" lon="14.8834933"><ele>1046.0</ele><time>2026-04-25T11:25:01.921Z</time></trkpt><trkpt lat="38.0185883" lon="14.8836133"><ele>1041.0</ele><time>2026-04-25T11:25:02.921Z</time></trkpt><trkpt lat="38.0186283" lon="14.8837217"><ele>1036.0</ele><time>2026-04-25T11:25:03.92Z</time></trkpt><trkpt lat="38.018685" lon="14.883825"><ele>1031.0</ele><time>2026-04-25T11:25:04.92Z</time></trkpt><trkpt lat="38.0187633" lon="14.883895"><ele>1026.0</ele><time>2026-04-25T11:25:05.921Z</time></trkpt><trkpt lat="38.018865" lon="14.883925"><ele>1026.0</ele><time>2026-04-25T11:25:06.921Z</time></trkpt><trkpt lat="38.01898" lon="14.8839233"><ele>1026.0</ele><time>2026-04-25T11:25:07.921Z</time></trkpt><trkpt lat="38.0191" lon="14.883895"><ele>1026.0</ele><time>2026-04-25T11:25:08.92Z</time></trkpt><trkpt lat="38.0192017" lon="14.8838433"><ele>1026.0</ele><time>2026-04-25T11:25:09.92Z</time></trkpt><trkpt lat="38.0192967" lon="14.883755"><ele>1025.25</ele><time>2026-04-25T11:25:10.921Z</time></trkpt><trkpt lat="38.0193917" lon="14.8836383"><ele>1024.5</ele><time>2026-04-25T11:25:11.921Z</time></trkpt><trkpt lat="38.0194917" lon="14.8835267"><ele>1023.75</ele><time>2026-04-25T11:25:12.921Z</time></trkpt><trkpt lat="38.019595" lon="14.8834283"><ele>1023.0</ele><time>2026-04-25T11:25:13.921Z</time></trkpt><trkpt lat="38.019695" lon="14.8833317"><ele>1024.2</ele><time>2026-04-25T11:25:14.921Z</time></trkpt><trkpt lat="38.0197783" lon="14.8832267"><ele>1025.4</ele><time>2026-04-25T11:25:15.92Z</time></trkpt><trkpt lat="38.0198467" lon="14.8831367"><ele>1026.6000000000001</ele><time>2026-04-25T11:25:16.92Z</time></trkpt><trkpt lat="38.0199167" lon="14.88307"><ele>1027.8</ele><time>2026-04-25T11:25:17.92Z</time></trkpt><trkpt lat="38.019995" lon="14.8830433"><ele>1029.0</ele><time>2026-04-25T11:25:18.919Z</time></trkpt><trkpt lat="38.0200817" lon="14.883055"><ele>1029.0</ele><time>2026-04-25T11:25:19.92Z</time></trkpt><trkpt lat="38.02016" lon="14.8831167"><ele>1029.0</ele><time>2026-04-25T11:25:20.919Z</time></trkpt><trkpt lat="38.0202417" lon="14.8832083"><ele>1029.0</ele><time>2026-04-25T11:25:21.92Z</time></trkpt><trkpt lat="38.020335" lon="14.8833117"><ele>1029.0</ele><time>2026-04-25T11:25:22.919Z</time></trkpt><trkpt lat="38.0204317" lon="14.8834017"><ele>1029.0</ele><time>2026-04-25T11:25:23.92Z</time></trkpt><trkpt lat="38.0205267" lon="14.88348"><ele>1025.25</ele><time>2026-04-25T11:25:24.919Z</time></trkpt><trkpt lat="38.020625" lon="14.8835533"><ele>1021.5</ele><time>2026-04-25T11:25:25.92Z</time></trkpt><trkpt lat="38.02073" lon="14.8836017"><ele>1017.75</ele><time>2026-04-25T11:25:26.919Z</time></trkpt><trkpt lat="38.0208483" lon="14.8836167"><ele>1014.0</ele><time>2026-04-25T11:25:27.92Z</time></trkpt><trkpt lat="38.02096" lon="14.8835867"><ele>1014.0</ele><time>2026-04-25T11:25:28.92Z</time></trkpt><trkpt lat="38.0210583" lon="14.883535"><ele>1014.0000000000001</ele><time>2026-04-25T11:25:29.92Z</time></trkpt><trkpt lat="38.02115" lon="14.8834783"><ele>1014.0000000000001</ele><time>2026-04-25T11:25:30.92Z</time></trkpt><trkpt lat="38.02125" lon="14.8834283"><ele>1014.0</ele><time>2026-04-25T11:25:31.92Z</time></trkpt><trkpt lat="38.0213483" lon="14.8833867"><ele>1014.0</ele><time>2026-04-25T11:25:32.92Z</time></trkpt><trkpt lat="38.0214417" lon="14.8833867"><ele>1014.0</ele><time>2026-04-25T11:25:33.919Z</time></trkpt><trkpt lat="38.0215333" lon="14.8834317"><ele>1014.0000000000001</ele><time>2026-04-25T11:25:34.92Z</time></trkpt><trkpt lat="38.02161" lon="14.8835"><ele>1014.0000000000001</ele><time>2026-04-25T11:25:35.92Z</time></trkpt><trkpt lat="38.0216633" lon="14.8835933"><ele>1014.0</ele><time>2026-04-25T11:25:36.92Z</time></trkpt><trkpt lat="38.021715" lon="14.883695"><ele>1014.0</ele><time>2026-04-25T11:25:37.92Z</time></trkpt><trkpt lat="38.021775" lon="14.883805"><ele>1014.0</ele><time>2026-04-25T11:25:38.919Z</time></trkpt><trkpt lat="38.0218383" lon="14.8839233"><ele>1014.0</ele><time>2026-04-25T11:25:39.919Z</time></trkpt><trkpt lat="38.0219083" lon="14.88405"><ele>1014.0</ele><time>2026-04-25T11:25:40.92Z</time></trkpt><trkpt lat="38.0219817" lon="14.8841717"><ele>1014.0</ele><time>2026-04-25T11:25:41.92Z</time></trkpt><trkpt lat="38.02206" lon="14.8843083"><ele>1011.25</ele><time>2026-04-25T11:25:42.919Z</time></trkpt><trkpt lat="38.0221383" lon="14.8844433"><ele>1008.5</ele><time>2026-04-25T11:25:43.919Z</time></trkpt><trkpt lat="38.0222267" lon="14.8845733"><ele>1005.75</ele><time>2026-04-25T11:25:44.92Z</time></trkpt><trkpt lat="38.0223217" lon="14.8846883"><ele>1003.0</ele><time>2026-04-25T11:25:45.919Z</time></trkpt><trkpt lat="38.0224217" lon="14.8847883"><ele>1005.0</ele><time>2026-04-25T11:25:46.92Z</time></trkpt><trkpt lat="38.02253" lon="14.8848717"><ele>1007.0</ele><time>2026-04-25T11:25:47.919Z</time></trkpt><trkpt lat="38.02264" lon="14.8849383"><ele>1009.0</ele><time>2026-04-25T11:25:48.92Z</time></trkpt><trkpt lat="38.022765" lon="14.8849833"><ele>1011.0</ele><time>2026-04-25T11:25:49.92Z</time></trkpt><trkpt lat="38.0228967" lon="14.8850067"><ele>1011.0</ele><time>2026-04-25T11:25:50.919Z</time></trkpt><trkpt lat="38.0230317" lon="14.8850017"><ele>1011.0</ele><time>2026-04-25T11:25:51.92Z</time></trkpt><trkpt lat="38.0231717" lon="14.8849833"><ele>1011.0</ele><time>2026-04-25T11:25:52.919Z</time></trkpt><trkpt lat="38.0232983" lon="14.884945"><ele>1011.0</ele><time>2026-04-25T11:25:53.92Z</time></trkpt><trkpt lat="38.02344" lon="14.8849"><ele>1012.5</ele><time>2026-04-25T11:25:54.92Z</time></trkpt><trkpt lat="38.02358" lon="14.88486"><ele>1014.0</ele><time>2026-04-25T11:25:55.919Z</time></trkpt><trkpt lat="38.0237233" lon="14.8848317"><ele>1015.5</ele><time>2026-04-25T11:25:56.92Z</time></trkpt><trkpt lat="38.0238683" lon="14.884805"><ele>1017.0</ele><time>2026-04-25T11:25:57.919Z</time></trkpt><trkpt lat="38.0240083" lon="14.884775"><ele>1017.0</ele><time>2026-04-25T11:25:58.92Z</time></trkpt><trkpt lat="38.0241333" lon="14.88474"><ele>1017.0</ele><time>2026-04-25T11:25:59.919Z</time></trkpt><trkpt lat="38.024245" lon="14.8846933"><ele>1017.0</ele><time>2026-04-25T11:26:00.92Z</time></trkpt><trkpt lat="38.02434" lon="14.884625"><ele>1017.0</ele><time>2026-04-25T11:26:01.92Z</time></trkpt><trkpt lat="38.02441" lon="14.884545"><ele>1017.0</ele><time>2026-04-25T11:26:02.92Z</time></trkpt><trkpt lat="38.0244483" lon="14.884415"><ele>1017.5</ele><time>2026-04-25T11:26:03.919Z</time></trkpt><trkpt lat="38.0244717" lon="14.884275"><ele>1018.0</ele><time>2026-04-25T11:26:04.92Z</time></trkpt><trkpt lat="38.0244733" lon="14.884125"><ele>1018.5</ele><time>2026-04-25T11:26:05.92Z</time></trkpt><trkpt lat="38.0244433" lon="14.8839733"><ele>1019.0</ele><time>2026-04-25T11:26:06.919Z</time></trkpt><trkpt lat="38.0243867" lon="14.8838383"><ele>1016.0</ele><time>2026-04-25T11:26:07.92Z</time></trkpt><trkpt lat="38.024305" lon="14.8837317"><ele>1013.0</ele><time>2026-04-25T11:26:08.92Z</time></trkpt><trkpt lat="38.0242033" lon="14.883665"><ele>1010.0</ele><time>2026-04-25T11:26:09.92Z</time></trkpt><trkpt lat="38.0240867" lon="14.8836417"><ele>1007.0</ele><time>2026-04-25T11:26:10.92Z</time></trkpt><trkpt lat="38.0239517" lon="14.8836467"><ele>1006.75</ele><time>2026-04-25T11:26:11.92Z</time></trkpt><trkpt lat="38.0238133" lon="14.8836783"><ele>1006.5</ele><time>2026-04-25T11:26:12.92Z</time></trkpt><trkpt lat="38.0236767" lon="14.8837117"><ele>1006.25</ele><time>2026-04-25T11:26:13.919Z</time></trkpt><trkpt lat="38.0235333" lon="14.883735"><ele>1006.0</ele><time>2026-04-25T11:26:14.92Z</time></trkpt><trkpt lat="38.023395" lon="14.8837283"><ele>1006.75</ele><time>2026-04-25T11:26:15.919Z</time></trkpt><trkpt lat="38.0232517" lon="14.883735"><ele>1007.5</ele><time>2026-04-25T11:26:16.92Z</time></trkpt><trkpt lat="38.02312" lon="14.883715"><ele>1008.25</ele><time>2026-04-25T11:26:17.919Z</time></trkpt><trkpt lat="38.023005" lon="14.8837017"><ele>1009.0</ele><time>2026-04-25T11:26:18.92Z</time></trkpt><trkpt lat="38.0228883" lon="14.883665"><ele>1009.0</ele><time>2026-04-25T11:26:19.92Z</time></trkpt><trkpt lat="38.0228033" lon="14.8835983"><ele>1009.0000000000001</ele><time>2026-04-25T11:26:20.92Z</time></trkpt><trkpt lat="38.0227383" lon="14.8835"><ele>1009.0000000000001</ele><time>2026-04-25T11:26:21.92Z</time></trkpt><trkpt lat="38.022715" lon="14.8833783"><ele>1009.0</ele><time>2026-04-25T11:26:22.919Z</time></trkpt><trkpt lat="38.02273" lon="14.8832467"><ele>1009.0</ele><time>2026-04-25T11:26:23.92Z</time></trkpt><trkpt lat="38.0228" lon="14.8831267"><ele>1007.5</ele><time>2026-04-25T11:26:24.919Z</time></trkpt><trkpt lat="38.0228917" lon="14.8830183"><ele>1006.0</ele><time>2026-04-25T11:26:25.92Z</time></trkpt><trkpt lat="38.0230017" lon="14.8829283"><ele>1004.5</ele><time>2026-04-25T11:26:26.919Z</time></trkpt><trkpt lat="38.0231233" lon="14.8828333"><ele>1003.0</ele><time>2026-04-25T11:26:27.92Z</time></trkpt><trkpt lat="38.0232517" lon="14.8827217"><ele>1000.3333333333333</ele><time>2026-04-25T11:26:28.92Z</time></trkpt><trkpt lat="38.023385" lon="14.8826067"><ele>997.6666666666667</ele><time>2026-04-25T11:26:29.919Z</time></trkpt><trkpt lat="38.0235183" lon="14.8824717"><ele>995.0</ele><time>2026-04-25T11:26:30.92Z</time></trkpt><trkpt lat="38.0236433" lon="14.88234"><ele>995.0</ele><time>2026-04-25T11:26:31.919Z</time></trkpt><trkpt lat="38.0237583" lon="14.8821833"><ele>995.0</ele><time>2026-04-25T11:26:32.919Z</time></trkpt><trkpt lat="38.02387" lon="14.8820433"><ele>995.0</ele><time>2026-04-25T11:26:33.919Z</time></trkpt><trkpt lat="38.0239767" lon="14.881895"><ele>990.3333333333334</ele><time>2026-04-25T11:26:34.919Z</time></trkpt><trkpt lat="38.02408" lon="14.88175"><ele>985.6666666666667</ele><time>2026-04-25T11:26:35.919Z</time></trkpt><trkpt lat="38.0241867" lon="14.88162"><ele>981.0</ele><time>2026-04-25T11:26:36.92Z</time></trkpt><trkpt lat="38.0242817" lon="14.881465"><ele>981.0</ele><time>2026-04-25T11:26:37.92Z</time></trkpt><trkpt lat="38.0243633" lon="14.8813083"><ele>981.0</ele><time>2026-04-25T11:26:38.92Z</time></trkpt><trkpt lat="38.02444" lon="14.8811467"><ele>981.0</ele><time>2026-04-25T11:26:39.919Z</time></trkpt><trkpt lat="38.0245067" lon="14.880985"><ele>981.0</ele><time>2026-04-25T11:26:40.92Z</time></trkpt><trkpt lat="38.024565" lon="14.88082"><ele>984.0</ele><time>2026-04-25T11:26:41.92Z</time></trkpt><trkpt lat="38.0246033" lon="14.8806583"><ele>987.0</ele><time>2026-04-25T11:26:42.919Z</time></trkpt><trkpt lat="38.02462" lon="14.8804967"><ele>990.0</ele><time>2026-04-25T11:26:43.919Z</time></trkpt><trkpt lat="38.024615" lon="14.8803333"><ele>993.0</ele><time>2026-04-25T11:26:44.92Z</time></trkpt><trkpt lat="38.024585" lon="14.88018"><ele>992.75</ele><time>2026-04-25T11:26:45.92Z</time></trkpt><trkpt lat="38.0245483" lon="14.8800167"><ele>992.5</ele><time>2026-04-25T11:26:46.919Z</time></trkpt><trkpt lat="38.0245117" lon="14.8798533"><ele>992.25</ele><time>2026-04-25T11:26:47.919Z</time></trkpt><trkpt lat="38.0244733" lon="14.87969"><ele>992.0</ele><time>2026-04-25T11:26:48.919Z</time></trkpt><trkpt lat="38.02442" lon="14.8795417"><ele>992.0</ele><time>2026-04-25T11:26:49.92Z</time></trkpt><trkpt lat="38.02435" lon="14.8794083"><ele>992.0</ele><time>2026-04-25T11:26:50.92Z</time></trkpt><trkpt lat="38.0242517" lon="14.8792867"><ele>992.0</ele><time>2026-04-25T11:26:51.919Z</time></trkpt><trkpt lat="38.0241567" lon="14.8791633"><ele>992.0</ele><time>2026-04-25T11:26:52.92Z</time></trkpt><trkpt lat="38.0240367" lon="14.8790533"><ele>996.5</ele><time>2026-04-25T11:26:53.92Z</time></trkpt><trkpt lat="38.0239267" lon="14.878945"><ele>1001.0</ele><time>2026-04-25T11:26:54.919Z</time></trkpt><trkpt lat="38.0238233" lon="14.878835"><ele>1005.5</ele><time>2026-04-25T11:26:55.92Z</time></trkpt><trkpt lat="38.0236883" lon="14.8787467"><ele>1010.0</ele><time>2026-04-25T11:26:56.919Z</time></trkpt><trkpt lat="38.0235933" lon="14.878615"><ele>1010.0</ele><time>2026-04-25T11:26:57.919Z</time></trkpt><trkpt lat="38.02351" lon="14.8784867"><ele>1010.0</ele><time>2026-04-25T11:26:58.92Z</time></trkpt><trkpt lat="38.0234283" lon="14.87837"><ele>1010.0</ele><time>2026-04-25T11:26:59.919Z</time></trkpt><trkpt lat="38.023355" lon="14.8782383"><ele>1010.0</ele><time>2026-04-25T11:27:00.919Z</time></trkpt><trkpt lat="38.0232733" lon="14.87813"><ele>1009.6</ele><time>2026-04-25T11:27:01.919Z</time></trkpt><trkpt lat="38.0232067" lon="14.8780133"><ele>1009.2</ele><time>2026-04-25T11:27:02.919Z</time></trkpt><trkpt lat="38.023155" lon="14.877915"><ele>1008.8</ele><time>2026-04-25T11:27:03.919Z</time></trkpt><trkpt lat="38.0231367" lon="14.8778133"><ele>1008.4</ele><time>2026-04-25T11:27:04.92Z</time></trkpt><trkpt lat="38.0231417" lon="14.87771"><ele>1008.0</ele><time>2026-04-25T11:27:05.919Z</time></trkpt><trkpt lat="38.02317" lon="14.8776117"><ele>1006.75</ele><time>2026-04-25T11:27:06.919Z</time></trkpt><trkpt lat="38.0232467" lon="14.8775217"><ele>1005.5</ele><time>2026-04-25T11:27:07.919Z</time></trkpt><trkpt lat="38.02335" lon="14.8774683"><ele>1004.25</ele><time>2026-04-25T11:27:08.92Z</time></trkpt><trkpt lat="38.02347" lon="14.87744"><ele>1003.0</ele><time>2026-04-25T11:27:09.92Z</time></trkpt><trkpt lat="38.023605" lon="14.87742"><ele>993.6666666666666</ele><time>2026-04-25T11:27:10.919Z</time></trkpt><trkpt lat="38.0237617" lon="14.8774033"><ele>984.3333333333333</ele><time>2026-04-25T11:27:11.919Z</time></trkpt><trkpt lat="38.0239217" lon="14.877385"><ele>975.0</ele><time>2026-04-25T11:27:12.919Z</time></trkpt><trkpt lat="38.0240767" lon="14.8773867"><ele>971.0</ele><time>2026-04-25T11:27:13.92Z</time></trkpt><trkpt lat="38.0242133" lon="14.877405"><ele>967.0</ele><time>2026-04-25T11:27:14.92Z</time></trkpt><trkpt lat="38.024335" lon="14.877455"><ele>963.0</ele><time>2026-04-25T11:27:15.919Z</time></trkpt><trkpt lat="38.02447" lon="14.8775167"><ele>959.0</ele><time>2026-04-25T11:27:16.92Z</time></trkpt><trkpt lat="38.02461" lon="14.8775783"><ele>955.3333333333334</ele><time>2026-04-25T11:27:17.919Z</time></trkpt><trkpt lat="38.0247567" lon="14.87762"><ele>951.6666666666667</ele><time>2026-04-25T11:27:18.92Z</time></trkpt><trkpt lat="38.0249067" lon="14.8776483"><ele>948.0</ele><time>2026-04-25T11:27:19.92Z</time></trkpt><trkpt lat="38.02506" lon="14.877665"><ele>940.3333333333333</ele><time>2026-04-25T11:27:20.919Z</time></trkpt><trkpt lat="38.02522" lon="14.8776783"><ele>932.6666666666666</ele><time>2026-04-25T11:27:21.92Z</time></trkpt><trkpt lat="38.0253717" lon="14.8776933"><ele>925.0</ele><time>2026-04-25T11:27:22.92Z</time></trkpt><trkpt lat="38.0255117" lon="14.8777083"><ele>925.0</ele><time>2026-04-25T11:27:23.92Z</time></trkpt><trkpt lat="38.02565" lon="14.8777083"><ele>925.0</ele><time>2026-04-25T11:27:24.92Z</time></trkpt><trkpt lat="38.025785" lon="14.8776783"><ele>925.0</ele><time>2026-04-25T11:27:25.919Z</time></trkpt><trkpt lat="38.0259167" lon="14.8775917"><ele>925.0</ele><time>2026-04-25T11:27:26.92Z</time></trkpt><trkpt lat="38.026065" lon="14.8775317"><ele>933.3333333333333</ele><time>2026-04-25T11:27:27.92Z</time></trkpt><trkpt lat="38.0262217" lon="14.8774633"><ele>941.6666666666667</ele><time>2026-04-25T11:27:28.92Z</time></trkpt><trkpt lat="38.026375" lon="14.877395"><ele>950.0</ele><time>2026-04-25T11:27:29.92Z</time></trkpt><trkpt lat="38.0265267" lon="14.8773267"><ele>943.0</ele><time>2026-04-25T11:27:30.919Z</time></trkpt><trkpt lat="38.0266717" lon="14.8772667"><ele>936.0</ele><time>2026-04-25T11:27:31.919Z</time></trkpt><trkpt lat="38.0268267" lon="14.8772133"><ele>929.0</ele><time>2026-04-25T11:27:32.919Z</time></trkpt><trkpt lat="38.0269667" lon="14.8771583"><ele>929.0</ele><time>2026-04-25T11:27:33.919Z</time></trkpt><trkpt lat="38.0271133" lon="14.8771083"><ele>929.0</ele><time>2026-04-25T11:27:34.92Z</time></trkpt><trkpt lat="38.02725" lon="14.8770567"><ele>929.0</ele><time>2026-04-25T11:27:35.92Z</time></trkpt><trkpt lat="38.02737" lon="14.8769733"><ele>929.0</ele><time>2026-04-25T11:27:36.919Z</time></trkpt><trkpt lat="38.027485" lon="14.8768633"><ele>932.6666666666667</ele><time>2026-04-25T11:27:37.92Z</time></trkpt><trkpt lat="38.0275867" lon="14.87673"><ele>936.3333333333333</ele><time>2026-04-25T11:27:38.92Z</time></trkpt><trkpt lat="38.0276967" lon="14.8766017"><ele>940.0</ele><time>2026-04-25T11:27:39.919Z</time></trkpt><trkpt lat="38.027815" lon="14.8764717"><ele>940.0</ele><time>2026-04-25T11:27:40.92Z</time></trkpt><trkpt lat="38.027945" lon="14.8763633"><ele>940.0</ele><time>2026-04-25T11:27:41.92Z</time></trkpt><trkpt lat="38.028075" lon="14.8762717"><ele>940.0</ele><time>2026-04-25T11:27:42.92Z</time></trkpt><trkpt lat="38.028205" lon="14.876185"><ele>938.0</ele><time>2026-04-25T11:27:43.92Z</time></trkpt><trkpt lat="38.0283317" lon="14.876105"><ele>936.0</ele><time>2026-04-25T11:27:44.92Z</time></trkpt><trkpt lat="38.0284533" lon="14.87601"><ele>934.0</ele><time>2026-04-25T11:27:45.92Z</time></trkpt><trkpt lat="38.0285783" lon="14.875915"><ele>932.0</ele><time>2026-04-25T11:27:46.92Z</time></trkpt><trkpt lat="38.0286933" lon="14.8758067"><ele>932.0</ele><time>2026-04-25T11:27:47.919Z</time></trkpt><trkpt lat="38.0287933" lon="14.87568"><ele>932.0</ele><time>2026-04-25T11:27:48.919Z</time></trkpt><trkpt lat="38.02888" lon="14.87554"><ele>932.0</ele><time>2026-04-25T11:27:49.92Z</time></trkpt><trkpt lat="38.0289667" lon="14.875405"><ele>932.0</ele><time>2026-04-25T11:27:50.919Z</time></trkpt><trkpt lat="38.0290117" lon="14.87524"><ele>934.25</ele><time>2026-04-25T11:27:51.919Z</time></trkpt><trkpt lat="38.029025" lon="14.8750683"><ele>936.5</ele><time>2026-04-25T11:27:52.919Z</time></trkpt><trkpt lat="38.0290367" lon="14.8748933"><ele>938.75</ele><time>2026-04-25T11:27:53.919Z</time></trkpt><trkpt lat="38.0290467" lon="14.8747183"><ele>941.0</ele><time>2026-04-25T11:27:54.92Z</time></trkpt><trkpt lat="38.029055" lon="14.8745467"><ele>941.0</ele><time>2026-04-25T11:27:55.92Z</time></trkpt><trkpt lat="38.0290617" lon="14.8743783"><ele>941.0</ele><time>2026-04-25T11:27:56.919Z</time></trkpt><trkpt lat="38.0290733" lon="14.87421"><ele>941.0</ele><time>2026-04-25T11:27:57.919Z</time></trkpt><trkpt lat="38.0290967" lon="14.874045"><ele>941.0</ele><time>2026-04-25T11:27:58.919Z</time></trkpt><trkpt lat="38.0291067" lon="14.8738867"><ele>940.75</ele><time>2026-04-25T11:27:59.92Z</time></trkpt><trkpt lat="38.0291283" lon="14.873725"><ele>940.5</ele><time>2026-04-25T11:28:00.92Z</time></trkpt><trkpt lat="38.029135" lon="14.873565"><ele>940.25</ele><time>2026-04-25T11:28:01.919Z</time></trkpt><trkpt lat="38.0291333" lon="14.8734033"><ele>940.0</ele><time>2026-04-25T11:28:02.92Z</time></trkpt><trkpt lat="38.0291017" lon="14.873235"><ele>940.0</ele><time>2026-04-25T11:28:03.92Z</time></trkpt><trkpt lat="38.029055" lon="14.8730517"><ele>940.0</ele><time>2026-04-25T11:28:04.919Z</time></trkpt><trkpt lat="38.02901" lon="14.8728667"><ele>940.0</ele><time>2026-04-25T11:28:05.92Z</time></trkpt><trkpt lat="38.0289433" lon="14.8726817"><ele>936.6666666666666</ele><time>2026-04-25T11:28:06.919Z</time></trkpt><trkpt lat="38.02889" lon="14.872495"><ele>933.3333333333333</ele><time>2026-04-25T11:28:07.92Z</time></trkpt><trkpt lat="38.02884" lon="14.87231"><ele>930.0</ele><time>2026-04-25T11:28:08.919Z</time></trkpt><trkpt lat="38.028795" lon="14.872135"><ele>930.0</ele><time>2026-04-25T11:28:09.92Z</time></trkpt><trkpt lat="38.0287467" lon="14.8719667"><ele>930.0</ele><time>2026-04-25T11:28:10.919Z</time></trkpt><trkpt lat="38.02872" lon="14.8717933"><ele>930.0</ele><time>2026-04-25T11:28:11.919Z</time></trkpt><trkpt lat="38.0286867" lon="14.8716233"><ele>930.0</ele><time>2026-04-25T11:28:12.919Z</time></trkpt><trkpt lat="38.0286383" lon="14.8714517"><ele>926.0</ele><time>2026-04-25T11:28:13.92Z</time></trkpt><trkpt lat="38.0285667" lon="14.87131"><ele>922.0</ele><time>2026-04-25T11:28:14.92Z</time></trkpt><trkpt lat="38.0284783" lon="14.8711683"><ele>918.0</ele><time>2026-04-25T11:28:15.92Z</time></trkpt><trkpt lat="38.02838" lon="14.8710317"><ele>914.0</ele><time>2026-04-25T11:28:16.92Z</time></trkpt><trkpt lat="38.0282733" lon="14.87089"><ele>912.5</ele><time>2026-04-25T11:28:17.92Z</time></trkpt><trkpt lat="38.028165" lon="14.87077"><ele>911.0</ele><time>2026-04-25T11:28:18.92Z</time></trkpt><trkpt lat="38.02806" lon="14.870665"><ele>909.5</ele><time>2026-04-25T11:28:19.92Z</time></trkpt><trkpt lat="38.027955" lon="14.8705633"><ele>908.0</ele><time>2026-04-25T11:28:20.919Z</time></trkpt><trkpt lat="38.0278467" lon="14.8704683"><ele>908.0</ele><time>2026-04-25T11:28:21.919Z</time></trkpt><trkpt lat="38.027715" lon="14.8703683"><ele>908.0</ele><time>2026-04-25T11:28:22.919Z</time></trkpt><trkpt lat="38.0276133" lon="14.870285"><ele>908.0</ele><time>2026-04-25T11:28:23.919Z</time></trkpt><trkpt lat="38.0275067" lon="14.8701983"><ele>908.0</ele><time>2026-04-25T11:28:24.919Z</time></trkpt><trkpt lat="38.0274017" lon="14.8701117"><ele>905.0</ele><time>2026-04-25T11:28:25.92Z</time></trkpt><trkpt lat="38.0273033" lon="14.8700383"><ele>902.0</ele><time>2026-04-25T11:28:26.919Z</time></trkpt><trkpt lat="38.0272117" lon="14.869975"><ele>899.0</ele><time>2026-04-25T11:28:27.92Z</time></trkpt><trkpt lat="38.0271283" lon="14.8699"><ele>896.0</ele><time>2026-04-25T11:28:28.92Z</time></trkpt><trkpt lat="38.0270583" lon="14.8698217"><ele>893.0</ele><time>2026-04-25T11:28:29.919Z</time></trkpt><trkpt lat="38.0270133" lon="14.86974"><ele>893.0</ele><time>2026-04-25T11:28:30.919Z</time></trkpt><trkpt lat="38.0269917" lon="14.8696367"><ele>893.0</ele><time>2026-04-25T11:28:31.92Z</time></trkpt><trkpt lat="38.0269933" lon="14.8695283"><ele>893.0</ele><time>2026-04-25T11:28:32.919Z</time></trkpt><trkpt lat="38.0270283" lon="14.86943"><ele>893.0</ele><time>2026-04-25T11:28:33.92Z</time></trkpt><trkpt lat="38.02709" lon="14.8693383"><ele>893.0</ele><time>2026-04-25T11:28:34.919Z</time></trkpt><trkpt lat="38.027175" lon="14.8692533"><ele>894.25</ele><time>2026-04-25T11:28:35.919Z</time></trkpt><trkpt lat="38.02729" lon="14.86918"><ele>895.5</ele><time>2026-04-25T11:28:36.92Z</time></trkpt><trkpt lat="38.0274283" lon="14.86911"><ele>896.75</ele><time>2026-04-25T11:28:37.919Z</time></trkpt><trkpt lat="38.0275617" lon="14.869035"><ele>898.0</ele><time>2026-04-25T11:28:38.92Z</time></trkpt><trkpt lat="38.0276683" lon="14.8689433"><ele>894.25</ele><time>2026-04-25T11:28:39.919Z</time></trkpt><trkpt lat="38.0277667" lon="14.8688433"><ele>890.5</ele><time>2026-04-25T11:28:40.919Z</time></trkpt><trkpt lat="38.0278683" lon="14.8687517"><ele>886.75</ele><time>2026-04-25T11:28:41.919Z</time></trkpt><trkpt lat="38.0279783" lon="14.8687"><ele>883.0</ele><time>2026-04-25T11:28:42.92Z</time></trkpt><trkpt lat="38.0280933" lon="14.8686817"><ele>883.0</ele><time>2026-04-25T11:28:43.919Z</time></trkpt><trkpt lat="38.0282167" lon="14.8686917"><ele>883.0</ele><time>2026-04-25T11:28:44.92Z</time></trkpt><trkpt lat="38.02834" lon="14.8687283"><ele>883.0</ele><time>2026-04-25T11:28:45.919Z</time></trkpt><trkpt lat="38.02846" lon="14.8687833"><ele>883.0</ele><time>2026-04-25T11:28:46.92Z</time></trkpt><trkpt lat="38.028575" lon="14.8688533"><ele>879.5</ele><time>2026-04-25T11:28:47.92Z</time></trkpt><trkpt lat="38.02869" lon="14.86891"><ele>876.0</ele><time>2026-04-25T11:28:48.919Z</time></trkpt><trkpt lat="38.0288217" lon="14.8689317"><ele>872.5</ele><time>2026-04-25T11:28:49.92Z</time></trkpt><trkpt lat="38.0289617" lon="14.8689433"><ele>869.0</ele><time>2026-04-25T11:28:50.919Z</time></trkpt><trkpt lat="38.0291117" lon="14.86895"><ele>867.75</ele><time>2026-04-25T11:28:51.919Z</time></trkpt><trkpt lat="38.02926" lon="14.8689367"><ele>866.5</ele><time>2026-04-25T11:28:52.919Z</time></trkpt><trkpt lat="38.029405" lon="14.8689233"><ele>865.25</ele><time>2026-04-25T11:28:53.92Z</time></trkpt><trkpt lat="38.0295567" lon="14.868925"><ele>864.0</ele><time>2026-04-25T11:28:54.92Z</time></trkpt><trkpt lat="38.0297067" lon="14.8689267"><ele>864.0</ele><time>2026-04-25T11:28:55.919Z</time></trkpt><trkpt lat="38.0298483" lon="14.8689317"><ele>864.0</ele><time>2026-04-25T11:28:56.919Z</time></trkpt><trkpt lat="38.0299833" lon="14.8689483"><ele>864.0</ele><time>2026-04-25T11:28:57.92Z</time></trkpt><trkpt lat="38.0301033" lon="14.868995"><ele>864.0</ele><time>2026-04-25T11:28:58.92Z</time></trkpt><trkpt lat="38.03023" lon="14.8690617"><ele>863.25</ele><time>2026-04-25T11:28:59.919Z</time></trkpt><trkpt lat="38.030345" lon="14.86914"><ele>862.5</ele><time>2026-04-25T11:29:00.92Z</time></trkpt><trkpt lat="38.0304483" lon="14.8692067"><ele>861.75</ele><time>2026-04-25T11:29:01.919Z</time></trkpt><trkpt lat="38.030555" lon="14.8692367"><ele>861.0</ele><time>2026-04-25T11:29:02.92Z</time></trkpt><trkpt lat="38.03066" lon="14.8692433"><ele>861.0</ele><time>2026-04-25T11:29:03.919Z</time></trkpt><trkpt lat="38.0307533" lon="14.86921"><ele>860.9999999999999</ele><time>2026-04-25T11:29:04.919Z</time></trkpt><trkpt lat="38.030845" lon="14.869145"><ele>860.9999999999999</ele><time>2026-04-25T11:29:05.92Z</time></trkpt><trkpt lat="38.03094" lon="14.8690633"><ele>861.0</ele><time>2026-04-25T11:29:06.92Z</time></trkpt><trkpt lat="38.03104" lon="14.8690017"><ele>861.0</ele><time>2026-04-25T11:29:07.92Z</time></trkpt><trkpt lat="38.03113" lon="14.86896"><ele>861.1666666666666</ele><time>2026-04-25T11:29:08.92Z</time></trkpt><trkpt lat="38.0312083" lon="14.868945"><ele>861.3333333333333</ele><time>2026-04-25T11:29:09.92Z</time></trkpt><trkpt lat="38.0312817" lon="14.8689533"><ele>861.5</ele><time>2026-04-25T11:29:10.92Z</time></trkpt><trkpt lat="38.0313417" lon="14.868995"><ele>861.6666666666666</ele><time>2026-04-25T11:29:11.92Z</time></trkpt><trkpt lat="38.03139" lon="14.869065"><ele>861.8333333333333</ele><time>2026-04-25T11:29:12.92Z</time></trkpt><trkpt lat="38.0314233" lon="14.8691583"><ele>862.0</ele><time>2026-04-25T11:29:13.919Z</time></trkpt><trkpt lat="38.0314467" lon="14.86927"><ele>859.25</ele><time>2026-04-25T11:29:14.92Z</time></trkpt><trkpt lat="38.031475" lon="14.86941"><ele>856.5</ele><time>2026-04-25T11:29:15.92Z</time></trkpt><trkpt lat="38.03152" lon="14.869555"><ele>853.75</ele><time>2026-04-25T11:29:16.92Z</time></trkpt><trkpt lat="38.0315817" lon="14.8696867"><ele>851.0</ele><time>2026-04-25T11:29:17.92Z</time></trkpt><trkpt lat="38.0316517" lon="14.8698217"><ele>851.0</ele><time>2026-04-25T11:29:18.92Z</time></trkpt><trkpt lat="38.03172" lon="14.8699733"><ele>851.0</ele><time>2026-04-25T11:29:19.919Z</time></trkpt><trkpt lat="38.0317867" lon="14.870125"><ele>851.0</ele><time>2026-04-25T11:29:20.92Z</time></trkpt><trkpt lat="38.031845" lon="14.870285"><ele>851.0</ele><time>2026-04-25T11:29:21.92Z</time></trkpt><trkpt lat="38.0319033" lon="14.8704483"><ele>846.0</ele><time>2026-04-25T11:29:22.919Z</time></trkpt><trkpt lat="38.0319633" lon="14.8706017"><ele>841.0</ele><time>2026-04-25T11:29:23.92Z</time></trkpt><trkpt lat="38.0320417" lon="14.8707417"><ele>836.0</ele><time>2026-04-25T11:29:24.92Z</time></trkpt><trkpt lat="38.0321383" lon="14.8708517"><ele>831.0</ele><time>2026-04-25T11:29:25.92Z</time></trkpt><trkpt lat="38.032255" lon="14.8709617"><ele>828.6666666666667</ele><time>2026-04-25T11:29:26.92Z</time></trkpt><trkpt lat="38.0323883" lon="14.871065"><ele>826.3333333333334</ele><time>2026-04-25T11:29:27.92Z</time></trkpt><trkpt lat="38.0325367" lon="14.8711733"><ele>824.0</ele><time>2026-04-25T11:29:28.92Z</time></trkpt><trkpt lat="38.0326767" lon="14.8712883"><ele>824.0</ele><time>2026-04-25T11:29:29.92Z</time></trkpt><trkpt lat="38.0328117" lon="14.8714117"><ele>824.0</ele><time>2026-04-25T11:29:30.919Z</time></trkpt><trkpt lat="38.0329433" lon="14.8715383"><ele>824.0</ele><time>2026-04-25T11:29:31.919Z</time></trkpt><trkpt lat="38.0330683" lon="14.8716667"><ele>823.3333333333334</ele><time>2026-04-25T11:29:32.919Z</time></trkpt><trkpt lat="38.0331817" lon="14.8718133"><ele>822.6666666666667</ele><time>2026-04-25T11:29:33.919Z</time></trkpt><trkpt lat="38.0333" lon="14.8719483"><ele>822.0</ele><time>2026-04-25T11:29:34.92Z</time></trkpt><trkpt lat="38.0334183" lon="14.8720767"><ele>822.0</ele><time>2026-04-25T11:29:35.919Z</time></trkpt><trkpt lat="38.0335367" lon="14.87219"><ele>822.0</ele><time>2026-04-25T11:29:36.92Z</time></trkpt><trkpt lat="38.03366" lon="14.8723133"><ele>822.0</ele><time>2026-04-25T11:29:37.92Z</time></trkpt><trkpt lat="38.0337733" lon="14.8724483"><ele>822.0</ele><time>2026-04-25T11:29:38.92Z</time></trkpt><trkpt lat="38.033865" lon="14.87259"><ele>822.0</ele><time>2026-04-25T11:29:39.92Z</time></trkpt><trkpt lat="38.0339367" lon="14.8727467"><ele>822.0</ele><time>2026-04-25T11:29:40.919Z</time></trkpt><trkpt lat="38.03399" lon="14.872915"><ele>822.0</ele><time>2026-04-25T11:29:41.919Z</time></trkpt><trkpt lat="38.034045" lon="14.8730833"><ele>820.75</ele><time>2026-04-25T11:29:42.92Z</time></trkpt><trkpt lat="38.0341033" lon="14.8732483"><ele>819.5</ele><time>2026-04-25T11:29:43.92Z</time></trkpt><trkpt lat="38.0341733" lon="14.8734017"><ele>818.25</ele><time>2026-04-25T11:29:44.92Z</time></trkpt><trkpt lat="38.03425" lon="14.873565"><ele>817.0</ele><time>2026-04-25T11:29:45.92Z</time></trkpt><trkpt lat="38.0343217" lon="14.8737133"><ele>817.0</ele><time>2026-04-25T11:29:46.919Z</time></trkpt><trkpt lat="38.034385" lon="14.873865"><ele>817.0</ele><time>2026-04-25T11:29:47.919Z</time></trkpt><trkpt lat="38.0344333" lon="14.8740233"><ele>817.0</ele><time>2026-04-25T11:29:48.919Z</time></trkpt><trkpt lat="38.0344583" lon="14.8741867"><ele>817.0</ele><time>2026-04-25T11:29:49.919Z</time></trkpt><trkpt lat="38.03447" lon="14.874355"><ele>814.25</ele><time>2026-04-25T11:29:50.919Z</time></trkpt><trkpt lat="38.034485" lon="14.8745267"><ele>811.5</ele><time>2026-04-25T11:29:51.919Z</time></trkpt><trkpt lat="38.0345017" lon="14.874685"><ele>808.75</ele><time>2026-04-25T11:29:52.919Z</time></trkpt><trkpt lat="38.0345167" lon="14.8748517"><ele>806.0</ele><time>2026-04-25T11:29:53.92Z</time></trkpt><trkpt lat="38.0345333" lon="14.8750083"><ele>803.75</ele><time>2026-04-25T11:29:54.92Z</time></trkpt><trkpt lat="38.03455" lon="14.8751583"><ele>801.5</ele><time>2026-04-25T11:29:55.92Z</time></trkpt><trkpt lat="38.034585" lon="14.8753067"><ele>799.25</ele><time>2026-04-25T11:29:56.919Z</time></trkpt><trkpt lat="38.0346417" lon="14.8754317"><ele>797.0</ele><time>2026-04-25T11:29:57.92Z</time></trkpt><trkpt lat="38.03472" lon="14.8755617"><ele>797.0</ele><time>2026-04-25T11:29:58.92Z</time></trkpt><trkpt lat="38.0348017" lon="14.8756933"><ele>797.0</ele><time>2026-04-25T11:29:59.92Z</time></trkpt><trkpt lat="38.0348817" lon="14.8758217"><ele>797.0</ele><time>2026-04-25T11:30:00.92Z</time></trkpt><trkpt lat="38.0349617" lon="14.8759483"><ele>797.0</ele><time>2026-04-25T11:30:01.92Z</time></trkpt><trkpt lat="38.0350467" lon="14.8760733"><ele>797.5</ele><time>2026-04-25T11:30:02.92Z</time></trkpt><trkpt lat="38.0351217" lon="14.8761883"><ele>798.0</ele><time>2026-04-25T11:30:03.919Z</time></trkpt><trkpt lat="38.0352067" lon="14.8762983"><ele>798.5</ele><time>2026-04-25T11:30:04.919Z</time></trkpt><trkpt lat="38.0352983" lon="14.876385"><ele>799.0</ele><time>2026-04-25T11:30:05.92Z</time></trkpt><trkpt lat="38.0354017" lon="14.8764467"><ele>799.0</ele><time>2026-04-25T11:30:06.92Z</time></trkpt><trkpt lat="38.03551" lon="14.8764867"><ele>799.0</ele><time>2026-04-25T11:30:07.919Z</time></trkpt><trkpt lat="38.0356383" lon="14.8765217"><ele>799.0</ele><time>2026-04-25T11:30:08.92Z</time></trkpt><trkpt lat="38.03577" lon="14.87659"><ele>799.0</ele><time>2026-04-25T11:30:09.92Z</time></trkpt><trkpt lat="38.0359183" lon="14.8766867"><ele>796.6666666666666</ele><time>2026-04-25T11:30:10.92Z</time></trkpt><trkpt lat="38.03607" lon="14.8768067"><ele>794.3333333333333</ele><time>2026-04-25T11:30:11.92Z</time></trkpt><trkpt lat="38.0362283" lon="14.8769533"><ele>792.0</ele><time>2026-04-25T11:30:12.92Z</time></trkpt><trkpt lat="38.0363783" lon="14.8771067"><ele>792.0</ele><time>2026-04-25T11:30:13.919Z</time></trkpt><trkpt lat="38.0365133" lon="14.877255"><ele>792.0</ele><time>2026-04-25T11:30:14.92Z</time></trkpt><trkpt lat="38.0366533" lon="14.8773817"><ele>792.0</ele><time>2026-04-25T11:30:15.92Z</time></trkpt><trkpt lat="38.0367883" lon="14.877485"><ele>794.5</ele><time>2026-04-25T11:30:16.92Z</time></trkpt><trkpt lat="38.0369167" lon="14.8775717"><ele>797.0</ele><time>2026-04-25T11:30:17.919Z</time></trkpt><trkpt lat="38.037035" lon="14.8776467"><ele>799.5</ele><time>2026-04-25T11:30:18.92Z</time></trkpt><trkpt lat="38.03715" lon="14.877715"><ele>802.0</ele><time>2026-04-25T11:30:19.919Z</time></trkpt><trkpt lat="38.0372467" lon="14.877775"><ele>800.4000000000001</ele><time>2026-04-25T11:30:20.919Z</time></trkpt><trkpt lat="38.03734" lon="14.877795"><ele>798.8000000000001</ele><time>2026-04-25T11:30:21.919Z</time></trkpt><trkpt lat="38.037425" lon="14.8777633"><ele>797.2</ele><time>2026-04-25T11:30:22.92Z</time></trkpt><trkpt lat="38.03748" lon="14.8776683"><ele>795.6</ele><time>2026-04-25T11:30:23.92Z</time></trkpt><trkpt lat="38.0375317" lon="14.8775433"><ele>794.0</ele><time>2026-04-25T11:30:24.92Z</time></trkpt><trkpt lat="38.0375633" lon="14.87738"><ele>794.0</ele><time>2026-04-25T11:30:25.919Z</time></trkpt><trkpt lat="38.03758" lon="14.8771933"><ele>794.0</ele><time>2026-04-25T11:30:26.919Z</time></trkpt><trkpt lat="38.0376033" lon="14.87701"><ele>794.0</ele><time>2026-04-25T11:30:27.92Z</time></trkpt><trkpt lat="38.037625" lon="14.8768117"><ele>796.3333333333334</ele><time>2026-04-25T11:30:28.92Z</time></trkpt><trkpt lat="38.0376533" lon="14.8766133"><ele>798.6666666666667</ele><time>2026-04-25T11:30:29.92Z</time></trkpt><trkpt lat="38.0376833" lon="14.87642"><ele>801.0</ele><time>2026-04-25T11:30:30.92Z</time></trkpt><trkpt lat="38.03772" lon="14.8762483"><ele>801.0</ele><time>2026-04-25T11:30:31.92Z</time></trkpt><trkpt lat="38.0377917" lon="14.8761"><ele>801.0</ele><time>2026-04-25T11:30:32.92Z</time></trkpt><trkpt lat="38.037875" lon="14.8759533"><ele>801.0</ele><time>2026-04-25T11:30:33.92Z</time></trkpt><trkpt lat="38.0379533" lon="14.8758017"><ele>801.0</ele><time>2026-04-25T11:30:34.92Z</time></trkpt><trkpt lat="38.0380217" lon="14.8756517"><ele>802.75</ele><time>2026-04-25T11:30:35.92Z</time></trkpt><trkpt lat="38.0380867" lon="14.8755033"><ele>804.5</ele><time>2026-04-25T11:30:36.919Z</time></trkpt><trkpt lat="38.0381667" lon="14.87536"><ele>806.25</ele><time>2026-04-25T11:30:37.92Z</time></trkpt><trkpt lat="38.0382567" lon="14.8752333"><ele>808.0</ele><time>2026-04-25T11:30:38.919Z</time></trkpt><trkpt lat="38.0383433" lon="14.8751167"><ele>806.0</ele><time>2026-04-25T11:30:39.919Z</time></trkpt><trkpt lat="38.0384367" lon="14.87503"><ele>804.0</ele><time>2026-04-25T11:30:40.92Z</time></trkpt><trkpt lat="38.03853" lon="14.87497"><ele>802.0</ele><time>2026-04-25T11:30:41.92Z</time></trkpt><trkpt lat="38.0386233" lon="14.8749383"><ele>800.0</ele><time>2026-04-25T11:30:42.92Z</time></trkpt><trkpt lat="38.0387233" lon="14.8749317"><ele>798.0</ele><time>2026-04-25T11:30:43.919Z</time></trkpt><trkpt lat="38.0388267" lon="14.8749433"><ele>798.0</ele><time>2026-04-25T11:30:44.92Z</time></trkpt><trkpt lat="38.038935" lon="14.87496"><ele>798.0</ele><time>2026-04-25T11:30:45.92Z</time></trkpt><trkpt lat="38.0390383" lon="14.8749867"><ele>798.0</ele><time>2026-04-25T11:30:46.92Z</time></trkpt><trkpt lat="38.0391333" lon="14.8750333"><ele>798.0</ele><time>2026-04-25T11:30:47.92Z</time></trkpt><trkpt lat="38.0392017" lon="14.8751"><ele>798.0</ele><time>2026-04-25T11:30:48.92Z</time></trkpt><trkpt lat="38.0392383" lon="14.87519"><ele>792.0</ele><time>2026-04-25T11:30:49.92Z</time></trkpt><trkpt lat="38.0392517" lon="14.8752983"><ele>786.0</ele><time>2026-04-25T11:30:50.92Z</time></trkpt><trkpt lat="38.0392467" lon="14.8754167"><ele>780.0</ele><time>2026-04-25T11:30:51.919Z</time></trkpt><trkpt lat="38.039255" lon="14.875535"><ele>774.0</ele><time>2026-04-25T11:30:52.92Z</time></trkpt><trkpt lat="38.03929" lon="14.8756583"><ele>768.0</ele><time>2026-04-25T11:30:53.92Z</time></trkpt><trkpt lat="38.0393583" lon="14.8757967"><ele>759.75</ele><time>2026-04-25T11:30:54.919Z</time></trkpt><trkpt lat="38.0394367" lon="14.8759417"><ele>751.5</ele><time>2026-04-25T11:30:55.92Z</time></trkpt><trkpt lat="38.0395133" lon="14.8760783"><ele>743.25</ele><time>2026-04-25T11:30:56.919Z</time></trkpt><trkpt lat="38.0395917" lon="14.87622"><ele>735.0</ele><time>2026-04-25T11:30:57.92Z</time></trkpt><trkpt lat="38.0396767" lon="14.87636"><ele>735.0</ele><time>2026-04-25T11:30:58.92Z</time></trkpt><trkpt lat="38.03977" lon="14.87649"><ele>735.0</ele><time>2026-04-25T11:30:59.919Z</time></trkpt><trkpt lat="38.03987" lon="14.87662"><ele>735.0</ele><time>2026-04-25T11:31:00.92Z</time></trkpt><trkpt lat="38.039975" lon="14.876735"><ele>735.0</ele><time>2026-04-25T11:31:01.92Z</time></trkpt><trkpt lat="38.0400767" lon="14.876835"><ele>738.0</ele><time>2026-04-25T11:31:02.92Z</time></trkpt><trkpt lat="38.0401617" lon="14.8769483"><ele>741.0</ele><time>2026-04-25T11:31:03.92Z</time></trkpt><trkpt lat="38.0402317" lon="14.8771033"><ele>744.0</ele><time>2026-04-25T11:31:04.92Z</time></trkpt><trkpt lat="38.0402867" lon="14.8772683"><ele>747.0</ele><time>2026-04-25T11:31:05.92Z</time></trkpt><trkpt lat="38.040355" lon="14.87743"><ele>747.0</ele><time>2026-04-25T11:31:06.919Z</time></trkpt><trkpt lat="38.040435" lon="14.8775783"><ele>747.0</ele><time>2026-04-25T11:31:07.92Z</time></trkpt><trkpt lat="38.04051" lon="14.8777433"><ele>747.0</ele><time>2026-04-25T11:31:08.92Z</time></trkpt><trkpt lat="38.0405767" lon="14.8779267"><ele>741.6666666666666</ele><time>2026-04-25T11:31:09.919Z</time></trkpt><trkpt lat="38.0406433" lon="14.8781017"><ele>736.3333333333333</ele><time>2026-04-25T11:31:10.92Z</time></trkpt><trkpt lat="38.0407183" lon="14.8782667"><ele>731.0</ele><time>2026-04-25T11:31:11.92Z</time></trkpt><trkpt lat="38.040915" lon="14.8785433"><ele>731.0</ele><time>2026-04-25T11:31:13.919Z</time></trkpt><trkpt lat="38.0410417" lon="14.8786417"><ele>731.0</ele><time>2026-04-25T11:31:14.92Z</time></trkpt><trkpt lat="38.0411717" lon="14.8787217"><ele>731.0</ele><time>2026-04-25T11:31:15.92Z</time></trkpt><trkpt lat="38.0412967" lon="14.8788083"><ele>731.0</ele><time>2026-04-25T11:31:16.92Z</time></trkpt><trkpt lat="38.0414233" lon="14.8788917"><ele>731.0</ele><time>2026-04-25T11:31:17.92Z</time></trkpt><trkpt lat="38.0415483" lon="14.8789783"><ele>731.0</ele><time>2026-04-25T11:31:18.92Z</time></trkpt><trkpt lat="38.0416717" lon="14.8790617"><ele>731.0</ele><time>2026-04-25T11:31:19.92Z</time></trkpt><trkpt lat="38.04178" lon="14.8791483"><ele>731.0</ele><time>2026-04-25T11:31:20.919Z</time></trkpt><trkpt lat="38.0418817" lon="14.8792167"><ele>728.25</ele><time>2026-04-25T11:31:21.919Z</time></trkpt><trkpt lat="38.0419817" lon="14.879295"><ele>725.5</ele><time>2026-04-25T11:31:22.92Z</time></trkpt><trkpt lat="38.0420883" lon="14.8793667"><ele>722.75</ele><time>2026-04-25T11:31:23.919Z</time></trkpt><trkpt lat="38.0421917" lon="14.8794483"><ele>720.0</ele><time>2026-04-25T11:31:24.919Z</time></trkpt><trkpt lat="38.0422967" lon="14.8795083"><ele>720.0</ele><time>2026-04-25T11:31:25.92Z</time></trkpt><trkpt lat="38.0423983" lon="14.8795567"><ele>720.0</ele><time>2026-04-25T11:31:26.92Z</time></trkpt><trkpt lat="38.0424983" lon="14.8795983"><ele>720.0</ele><time>2026-04-25T11:31:27.919Z</time></trkpt><trkpt lat="38.042605" lon="14.8796283"><ele>720.0</ele><time>2026-04-25T11:31:28.919Z</time></trkpt><trkpt lat="38.0427083" lon="14.8796417"><ele>720.0</ele><time>2026-04-25T11:31:29.919Z</time></trkpt><trkpt lat="38.0428067" lon="14.8796483"><ele>720.2</ele><time>2026-04-25T11:31:30.919Z</time></trkpt><trkpt lat="38.042905" lon="14.8796317"><ele>720.4</ele><time>2026-04-25T11:31:31.919Z</time></trkpt><trkpt lat="38.043005" lon="14.8796"><ele>720.5999999999999</ele><time>2026-04-25T11:31:32.92Z</time></trkpt><trkpt lat="38.0431067" lon="14.879555"><ele>720.8</ele><time>2026-04-25T11:31:33.919Z</time></trkpt><trkpt lat="38.04321" lon="14.8795"><ele>721.0</ele><time>2026-04-25T11:31:34.919Z</time></trkpt><trkpt lat="38.0433033" lon="14.8794433"><ele>721.0</ele><time>2026-04-25T11:31:35.919Z</time></trkpt><trkpt lat="38.0434033" lon="14.8794033"><ele>721.0</ele><time>2026-04-25T11:31:36.919Z</time></trkpt><trkpt lat="38.0435167" lon="14.8793883"><ele>721.0</ele><time>2026-04-25T11:31:37.919Z</time></trkpt><trkpt lat="38.043605" lon="14.8794017"><ele>721.0</ele><time>2026-04-25T11:31:38.92Z</time></trkpt><trkpt lat="38.0437017" lon="14.8794567"><ele>721.0</ele><time>2026-04-25T11:31:39.919Z</time></trkpt><trkpt lat="38.0437933" lon="14.8795167"><ele>721.0</ele><time>2026-04-25T11:31:40.92Z</time></trkpt><trkpt lat="38.0438817" lon="14.8795883"><ele>721.0</ele><time>2026-04-25T11:31:41.92Z</time></trkpt><trkpt lat="38.0439683" lon="14.879655"><ele>721.0</ele><time>2026-04-25T11:31:42.919Z</time></trkpt><trkpt lat="38.0440333" lon="14.879755"><ele>721.0</ele><time>2026-04-25T11:31:43.919Z</time></trkpt><trkpt lat="38.0440783" lon="14.879865"><ele>721.0</ele><time>2026-04-25T11:31:44.919Z</time></trkpt><trkpt lat="38.044115" lon="14.8799683"><ele>719.8333333333334</ele><time>2026-04-25T11:31:45.92Z</time></trkpt><trkpt lat="38.04415" lon="14.8800533"><ele>718.6666666666667</ele><time>2026-04-25T11:31:46.919Z</time></trkpt><trkpt lat="38.0442017" lon="14.880115"><ele>717.5</ele><time>2026-04-25T11:31:47.919Z</time></trkpt><trkpt lat="38.0442467" lon="14.8801733"><ele>716.3333333333334</ele><time>2026-04-25T11:31:48.92Z</time></trkpt><trkpt lat="38.0443833" lon="14.8801833"><ele>715.1666666666666</ele><time>2026-04-25T11:31:50.92Z</time></trkpt><trkpt lat="38.04448" lon="14.880175"><ele>714.0</ele><time>2026-04-25T11:31:51.92Z</time></trkpt><trkpt lat="38.0445867" lon="14.8801967"><ele>714.0</ele><time>2026-04-25T11:31:52.919Z</time></trkpt><trkpt lat="38.0446867" lon="14.8802233"><ele>714.0</ele><time>2026-04-25T11:31:53.92Z</time></trkpt><trkpt lat="38.0447833" lon="14.8802533"><ele>714.0</ele><time>2026-04-25T11:31:54.919Z</time></trkpt><trkpt lat="38.04489" lon="14.8803067"><ele>714.0</ele><time>2026-04-25T11:31:55.92Z</time></trkpt><trkpt lat="38.0449717" lon="14.8803817"><ele>714.0</ele><time>2026-04-25T11:31:56.92Z</time></trkpt><trkpt lat="38.045045" lon="14.8804517"><ele>716.4000000000001</ele><time>2026-04-25T11:31:57.919Z</time></trkpt><trkpt lat="38.0451217" lon="14.880525"><ele>718.8</ele><time>2026-04-25T11:31:58.92Z</time></trkpt><trkpt lat="38.0452" lon="14.880595"><ele>721.2</ele><time>2026-04-25T11:31:59.92Z</time></trkpt><trkpt lat="38.045285" lon="14.88064"><ele>723.5999999999999</ele><time>2026-04-25T11:32:00.919Z</time></trkpt><trkpt lat="38.045375" lon="14.8806767"><ele>726.0</ele><time>2026-04-25T11:32:01.919Z</time></trkpt><trkpt lat="38.0454633" lon="14.88071"><ele>726.0</ele><time>2026-04-25T11:32:02.919Z</time></trkpt><trkpt lat="38.045555" lon="14.8807283"><ele>726.0</ele><time>2026-04-25T11:32:03.92Z</time></trkpt><trkpt lat="38.0456317" lon="14.8807533"><ele>726.0</ele><time>2026-04-25T11:32:04.92Z</time></trkpt><trkpt lat="38.045715" lon="14.8808067"><ele>726.0</ele><time>2026-04-25T11:32:05.92Z</time></trkpt><trkpt lat="38.0458" lon="14.880855"><ele>726.0</ele><time>2026-04-25T11:32:06.92Z</time></trkpt><trkpt lat="38.04589" lon="14.8809183"><ele>724.1999999999999</ele><time>2026-04-25T11:32:07.919Z</time></trkpt><trkpt lat="38.0459667" lon="14.8809983"><ele>722.4</ele><time>2026-04-25T11:32:08.919Z</time></trkpt><trkpt lat="38.046035" lon="14.8810883"><ele>720.6</ele><time>2026-04-25T11:32:09.92Z</time></trkpt><trkpt lat="38.0460783" lon="14.8811917"><ele>718.8</ele><time>2026-04-25T11:32:10.92Z</time></trkpt><trkpt lat="38.0461317" lon="14.8812967"><ele>717.0</ele><time>2026-04-25T11:32:11.92Z</time></trkpt><trkpt lat="38.0461783" lon="14.88141"><ele>717.0</ele><time>2026-04-25T11:32:12.919Z</time></trkpt><trkpt lat="38.0462267" lon="14.8815233"><ele>717.0</ele><time>2026-04-25T11:32:13.92Z</time></trkpt><trkpt lat="38.04628" lon="14.8816367"><ele>717.0</ele><time>2026-04-25T11:32:14.92Z</time></trkpt><trkpt lat="38.04634" lon="14.8817433"><ele>717.0</ele><time>2026-04-25T11:32:15.919Z</time></trkpt><trkpt lat="38.0464117" lon="14.881865"><ele>717.0</ele><time>2026-04-25T11:32:16.919Z</time></trkpt><trkpt lat="38.046475" lon="14.8819933"><ele>716.4000000000001</ele><time>2026-04-25T11:32:17.919Z</time></trkpt><trkpt lat="38.04654" lon="14.882115"><ele>715.8000000000001</ele><time>2026-04-25T11:32:18.92Z</time></trkpt><trkpt lat="38.04661" lon="14.8822233"><ele>715.2</ele><time>2026-04-25T11:32:19.92Z</time></trkpt><trkpt lat="38.046675" lon="14.882335"><ele>714.6</ele><time>2026-04-25T11:32:20.919Z</time></trkpt><trkpt lat="38.046735" lon="14.8824467"><ele>714.0</ele><time>2026-04-25T11:32:21.92Z</time></trkpt><trkpt lat="38.0468033" lon="14.8825517"><ele>709.0</ele><time>2026-04-25T11:32:22.92Z</time></trkpt><trkpt lat="38.0468783" lon="14.882635"><ele>704.0</ele><time>2026-04-25T11:32:23.92Z</time></trkpt><trkpt lat="38.0469383" lon="14.8827217"><ele>699.0</ele><time>2026-04-25T11:32:24.919Z</time></trkpt><trkpt lat="38.047" lon="14.882825"><ele>694.0</ele><time>2026-04-25T11:32:25.919Z</time></trkpt><trkpt lat="38.0470617" lon="14.8829233"><ele>689.0</ele><time>2026-04-25T11:32:26.92Z</time></trkpt><trkpt lat="38.0471183" lon="14.8830283"><ele>689.0</ele><time>2026-04-25T11:32:27.919Z</time></trkpt><trkpt lat="38.047165" lon="14.8831317"><ele>689.0</ele><time>2026-04-25T11:32:28.92Z</time></trkpt><trkpt lat="38.047205" lon="14.8832567"><ele>689.0</ele><time>2026-04-25T11:32:29.919Z</time></trkpt><trkpt lat="38.04723" lon="14.8833733"><ele>689.0</ele><time>2026-04-25T11:32:30.919Z</time></trkpt><trkpt lat="38.0472333" lon="14.88348"><ele>689.0</ele><time>2026-04-25T11:32:31.92Z</time></trkpt><trkpt lat="38.047245" lon="14.8835883"><ele>686.5</ele><time>2026-04-25T11:32:32.92Z</time></trkpt><trkpt lat="38.0472583" lon="14.8836867"><ele>684.0</ele><time>2026-04-25T11:32:33.92Z</time></trkpt><trkpt lat="38.0472767" lon="14.8837783"><ele>681.5</ele><time>2026-04-25T11:32:34.919Z</time></trkpt><trkpt lat="38.0473217" lon="14.883875"><ele>679.0</ele><time>2026-04-25T11:32:35.92Z</time></trkpt><trkpt lat="38.0473833" lon="14.8839583"><ele>676.5</ele><time>2026-04-25T11:32:36.92Z</time></trkpt><trkpt lat="38.0474467" lon="14.8840317"><ele>674.0</ele><time>2026-04-25T11:32:37.919Z</time></trkpt><trkpt lat="38.0475117" lon="14.8840567"><ele>678.4285714285714</ele><time>2026-04-25T11:32:38.919Z</time></trkpt><trkpt lat="38.04758" lon="14.8841017"><ele>682.8571428571429</ele><time>2026-04-25T11:32:39.92Z</time></trkpt><trkpt lat="38.047645" lon="14.8841417"><ele>687.2857142857142</ele><time>2026-04-25T11:32:40.92Z</time></trkpt><trkpt lat="38.0477067" lon="14.8841833"><ele>691.7142857142858</ele><time>2026-04-25T11:32:41.92Z</time></trkpt><trkpt lat="38.0477683" lon="14.8842183"><ele>696.1428571428571</ele><time>2026-04-25T11:32:42.92Z</time></trkpt><trkpt lat="38.0478383" lon="14.88421"><ele>700.5714285714286</ele><time>2026-04-25T11:32:43.919Z</time></trkpt><trkpt lat="38.0479117" lon="14.884195"><ele>705.0</ele><time>2026-04-25T11:32:44.92Z</time></trkpt><trkpt lat="38.048" lon="14.8841583"><ele>705.0</ele><time>2026-04-25T11:32:45.92Z</time></trkpt><trkpt lat="38.0481017" lon="14.884095"><ele>705.0</ele><time>2026-04-25T11:32:46.919Z</time></trkpt><trkpt lat="38.0481867" lon="14.8840017"><ele>705.0</ele><time>2026-04-25T11:32:47.92Z</time></trkpt><trkpt lat="38.0482683" lon="14.8838967"><ele>705.0</ele><time>2026-04-25T11:32:48.919Z</time></trkpt><trkpt lat="38.0483433" lon="14.8837817"><ele>706.25</ele><time>2026-04-25T11:32:49.919Z</time></trkpt><trkpt lat="38.0483867" lon="14.88366"><ele>707.5</ele><time>2026-04-25T11:32:50.92Z</time></trkpt><trkpt lat="38.04842" lon="14.88353"><ele>708.75</ele><time>2026-04-25T11:32:51.92Z</time></trkpt><trkpt lat="38.0484267" lon="14.8833783"><ele>710.0</ele><time>2026-04-25T11:32:52.92Z</time></trkpt><trkpt lat="38.0484217" lon="14.8832167"><ele>710.0</ele><time>2026-04-25T11:32:53.919Z</time></trkpt><trkpt lat="38.0484217" lon="14.8830483"><ele>710.0</ele><time>2026-04-25T11:32:54.92Z</time></trkpt><trkpt lat="38.0484233" lon="14.8828917"><ele>710.0</ele><time>2026-04-25T11:32:55.92Z</time></trkpt><trkpt lat="38.0484167" lon="14.8827367"><ele>710.0</ele><time>2026-04-25T11:32:56.92Z</time></trkpt><trkpt lat="38.0484083" lon="14.8825867"><ele>712.4</ele><time>2026-04-25T11:32:57.919Z</time></trkpt><trkpt lat="38.0483933" lon="14.8824383"><ele>714.8</ele><time>2026-04-25T11:32:58.919Z</time></trkpt><trkpt lat="38.0483867" lon="14.8822933"><ele>717.2</ele><time>2026-04-25T11:32:59.92Z</time></trkpt><trkpt lat="38.0483667" lon="14.8821567"><ele>719.6</ele><time>2026-04-25T11:33:00.919Z</time></trkpt><trkpt lat="38.04836" lon="14.88204"><ele>722.0</ele><time>2026-04-25T11:33:01.92Z</time></trkpt><trkpt lat="38.0483783" lon="14.8819367"><ele>722.0</ele><time>2026-04-25T11:33:02.92Z</time></trkpt><trkpt lat="38.0484283" lon="14.8818533"><ele>722.0</ele><time>2026-04-25T11:33:03.92Z</time></trkpt><trkpt lat="38.0484917" lon="14.88178"><ele>722.0</ele><time>2026-04-25T11:33:04.919Z</time></trkpt><trkpt lat="38.048575" lon="14.8817267"><ele>722.0</ele><time>2026-04-25T11:33:05.919Z</time></trkpt><trkpt lat="38.048655" lon="14.8816983"><ele>722.0</ele><time>2026-04-25T11:33:06.92Z</time></trkpt><trkpt lat="38.04874" lon="14.8817167"><ele>722.0</ele><time>2026-04-25T11:33:07.919Z</time></trkpt><trkpt lat="38.0488133" lon="14.8817817"><ele>722.0</ele><time>2026-04-25T11:33:08.92Z</time></trkpt><trkpt lat="38.04889" lon="14.8818833"><ele>722.0</ele><time>2026-04-25T11:33:09.919Z</time></trkpt><trkpt lat="38.048965" lon="14.882"><ele>722.0</ele><time>2026-04-25T11:33:10.92Z</time></trkpt><trkpt lat="38.0490517" lon="14.8821083"><ele>722.0</ele><time>2026-04-25T11:33:11.919Z</time></trkpt><trkpt lat="38.0491383" lon="14.8822117"><ele>718.5</ele><time>2026-04-25T11:33:12.92Z</time></trkpt><trkpt lat="38.0492317" lon="14.8823117"><ele>715.0</ele><time>2026-04-25T11:33:13.92Z</time></trkpt><trkpt lat="38.049325" lon="14.8824083"><ele>711.5</ele><time>2026-04-25T11:33:14.92Z</time></trkpt><trkpt lat="38.0494167" lon="14.8825033"><ele>708.0</ele><time>2026-04-25T11:33:15.92Z</time></trkpt><trkpt lat="38.049505" lon="14.8825767"><ele>708.0</ele><time>2026-04-25T11:33:16.92Z</time></trkpt><trkpt lat="38.049595" lon="14.88262"><ele>708.0</ele><time>2026-04-25T11:33:17.92Z</time></trkpt><trkpt lat="38.0496817" lon="14.8826317"><ele>708.0</ele><time>2026-04-25T11:33:18.919Z</time></trkpt><trkpt lat="38.0497683" lon="14.8826083"><ele>708.0</ele><time>2026-04-25T11:33:19.92Z</time></trkpt><trkpt lat="38.04987" lon="14.8825567"><ele>708.0</ele><time>2026-04-25T11:33:20.92Z</time></trkpt><trkpt lat="38.0499817" lon="14.8824933"><ele>709.25</ele><time>2026-04-25T11:33:21.92Z</time></trkpt><trkpt lat="38.0501017" lon="14.8824217"><ele>710.5</ele><time>2026-04-25T11:33:22.919Z</time></trkpt><trkpt lat="38.0502233" lon="14.8823433"><ele>711.75</ele><time>2026-04-25T11:33:23.919Z</time></trkpt><trkpt lat="38.0503383" lon="14.8822667"><ele>713.0</ele><time>2026-04-25T11:33:24.92Z</time></trkpt><trkpt lat="38.0504467" lon="14.8821967"><ele>713.0</ele><time>2026-04-25T11:33:25.92Z</time></trkpt><trkpt lat="38.0505433" lon="14.8821367"><ele>713.0</ele><time>2026-04-25T11:33:26.919Z</time></trkpt><trkpt lat="38.050645" lon="14.8820817"><ele>713.0</ele><time>2026-04-25T11:33:27.919Z</time></trkpt><trkpt lat="38.0507317" lon="14.882035"><ele>713.0</ele><time>2026-04-25T11:33:28.919Z</time></trkpt><trkpt lat="38.0508217" lon="14.88199"><ele>713.0</ele><time>2026-04-25T11:33:29.92Z</time></trkpt><trkpt lat="38.0509133" lon="14.881945"><ele>715.0</ele><time>2026-04-25T11:33:30.919Z</time></trkpt><trkpt lat="38.051005" lon="14.8818833"><ele>717.0</ele><time>2026-04-25T11:33:31.92Z</time></trkpt><trkpt lat="38.051085" lon="14.8817983"><ele>719.0</ele><time>2026-04-25T11:33:32.92Z</time></trkpt><trkpt lat="38.0511567" lon="14.8816817"><ele>721.0</ele><time>2026-04-25T11:33:33.92Z</time></trkpt><trkpt lat="38.05122" lon="14.88154"><ele>721.0</ele><time>2026-04-25T11:33:34.92Z</time></trkpt><trkpt lat="38.0512733" lon="14.8813767"><ele>721.0</ele><time>2026-04-25T11:33:35.92Z</time></trkpt><trkpt lat="38.0512967" lon="14.8811933"><ele>721.0</ele><time>2026-04-25T11:33:36.92Z</time></trkpt><trkpt lat="38.051315" lon="14.8809933"><ele>721.0</ele><time>2026-04-25T11:33:37.919Z</time></trkpt><trkpt lat="38.05133" lon="14.8807983"><ele>725.25</ele><time>2026-04-25T11:33:38.92Z</time></trkpt><trkpt lat="38.051345" lon="14.8806117"><ele>729.5</ele><time>2026-04-25T11:33:39.919Z</time></trkpt><trkpt lat="38.0513483" lon="14.8804367"><ele>733.75</ele><time>2026-04-25T11:33:40.919Z</time></trkpt><trkpt lat="38.0513433" lon="14.88028"><ele>738.0</ele><time>2026-04-25T11:33:41.92Z</time></trkpt><trkpt lat="38.0513233" lon="14.880135"><ele>737.75</ele><time>2026-04-25T11:33:42.919Z</time></trkpt><trkpt lat="38.0512783" lon="14.8799967"><ele>737.5</ele><time>2026-04-25T11:33:43.92Z</time></trkpt><trkpt lat="38.0512" lon="14.8798767"><ele>737.25</ele><time>2026-04-25T11:33:44.92Z</time></trkpt><trkpt lat="38.0511217" lon="14.8797683"><ele>737.0</ele><time>2026-04-25T11:33:45.92Z</time></trkpt><trkpt lat="38.0510567" lon="14.879675"><ele>737.0</ele><time>2026-04-25T11:33:46.919Z</time></trkpt><trkpt lat="38.05102" lon="14.8795783"><ele>737.0</ele><time>2026-04-25T11:33:47.919Z</time></trkpt><trkpt lat="38.0510367" lon="14.8794283"><ele>737.0</ele><time>2026-04-25T11:33:49.92Z</time></trkpt><trkpt lat="38.0510883" lon="14.8793483"><ele>737.0</ele><time>2026-04-25T11:33:50.919Z</time></trkpt><trkpt lat="38.0511683" lon="14.8792817"><ele>737.0</ele><time>2026-04-25T11:33:51.92Z</time></trkpt><trkpt lat="38.0512783" lon="14.8792367"><ele>738.5</ele><time>2026-04-25T11:33:52.92Z</time></trkpt><trkpt lat="38.05141" lon="14.8791883"><ele>740.0</ele><time>2026-04-25T11:33:53.92Z</time></trkpt><trkpt lat="38.0515567" lon="14.8791567"><ele>741.5</ele><time>2026-04-25T11:33:54.92Z</time></trkpt><trkpt lat="38.0516883" lon="14.8791333"><ele>743.0</ele><time>2026-04-25T11:33:55.92Z</time></trkpt><trkpt lat="38.0518133" lon="14.8791317"><ele>738.25</ele><time>2026-04-25T11:33:56.92Z</time></trkpt><trkpt lat="38.0519367" lon="14.8791633"><ele>733.5</ele><time>2026-04-25T11:33:57.92Z</time></trkpt><trkpt lat="38.0520517" lon="14.879215"><ele>728.75</ele><time>2026-04-25T11:33:58.92Z</time></trkpt><trkpt lat="38.052165" lon="14.8792567"><ele>724.0</ele><time>2026-04-25T11:33:59.919Z</time></trkpt><trkpt lat="38.0522817" lon="14.879285"><ele>722.75</ele><time>2026-04-25T11:34:00.92Z</time></trkpt><trkpt lat="38.0524" lon="14.8792933"><ele>721.5</ele><time>2026-04-25T11:34:01.919Z</time></trkpt><trkpt lat="38.0525167" lon="14.8792733"><ele>720.25</ele><time>2026-04-25T11:34:02.92Z</time></trkpt><trkpt lat="38.052645" lon="14.87925"><ele>719.0</ele><time>2026-04-25T11:34:03.92Z</time></trkpt><trkpt lat="38.0527783" lon="14.87923"><ele>719.0</ele><time>2026-04-25T11:34:04.919Z</time></trkpt><trkpt lat="38.0529133" lon="14.8792283"><ele>719.0</ele><time>2026-04-25T11:34:05.919Z</time></trkpt><trkpt lat="38.0530467" lon="14.8792267"><ele>719.0</ele><time>2026-04-25T11:34:06.92Z</time></trkpt><trkpt lat="38.05317" lon="14.8792117"><ele>719.0</ele><time>2026-04-25T11:34:07.92Z</time></trkpt><trkpt lat="38.053285" lon="14.8791517"><ele>718.0</ele><time>2026-04-25T11:34:08.919Z</time></trkpt><trkpt lat="38.0533967" lon="14.8790983"><ele>717.0</ele><time>2026-04-25T11:34:09.92Z</time></trkpt><trkpt lat="38.0535017" lon="14.8790667"><ele>716.0</ele><time>2026-04-25T11:34:10.919Z</time></trkpt><trkpt lat="38.0536" lon="14.8790767"><ele>715.0</ele><time>2026-04-25T11:34:11.92Z</time></trkpt><trkpt lat="38.0537033" lon="14.879145"><ele>714.0</ele><time>2026-04-25T11:34:12.92Z</time></trkpt><trkpt lat="38.0538" lon="14.8792383"><ele>708.2</ele><time>2026-04-25T11:34:13.919Z</time></trkpt><trkpt lat="38.0539" lon="14.8793317"><ele>702.4000000000001</ele><time>2026-04-25T11:34:14.92Z</time></trkpt><trkpt lat="38.0540017" lon="14.8794067"><ele>696.6</ele><time>2026-04-25T11:34:15.92Z</time></trkpt><trkpt lat="38.0541017" lon="14.8794567"><ele>690.8</ele><time>2026-04-25T11:34:16.92Z</time></trkpt><trkpt lat="38.0542017" lon="14.8794633"><ele>685.0</ele><time>2026-04-25T11:34:17.92Z</time></trkpt><trkpt lat="38.054295" lon="14.87943"><ele>685.0</ele><time>2026-04-25T11:34:18.919Z</time></trkpt><trkpt lat="38.0543867" lon="14.8793617"><ele>685.0</ele><time>2026-04-25T11:34:19.92Z</time></trkpt><trkpt lat="38.0544533" lon="14.8792517"><ele>685.0</ele><time>2026-04-25T11:34:20.92Z</time></trkpt><trkpt lat="38.0545067" lon="14.879115"><ele>685.0</ele><time>2026-04-25T11:34:21.919Z</time></trkpt><trkpt lat="38.0545617" lon="14.87897"><ele>692.75</ele><time>2026-04-25T11:34:22.919Z</time></trkpt><trkpt lat="38.0546167" lon="14.8788167"><ele>700.5</ele><time>2026-04-25T11:34:23.92Z</time></trkpt><trkpt lat="38.0546567" lon="14.8786567"><ele>708.25</ele><time>2026-04-25T11:34:24.919Z</time></trkpt><trkpt lat="38.0546767" lon="14.8784867"><ele>716.0</ele><time>2026-04-25T11:34:25.92Z</time></trkpt><trkpt lat="38.0546783" lon="14.87832"><ele>718.75</ele><time>2026-04-25T11:34:26.919Z</time></trkpt><trkpt lat="38.0546517" lon="14.8781517"><ele>721.5</ele><time>2026-04-25T11:34:27.92Z</time></trkpt><trkpt lat="38.05462" lon="14.8779817"><ele>724.25</ele><time>2026-04-25T11:34:28.919Z</time></trkpt><trkpt lat="38.054565" lon="14.877825"><ele>727.0</ele><time>2026-04-25T11:34:29.92Z</time></trkpt><trkpt lat="38.054505" lon="14.87767"><ele>724.0</ele><time>2026-04-25T11:34:30.919Z</time></trkpt><trkpt lat="38.0544367" lon="14.8775183"><ele>721.0</ele><time>2026-04-25T11:34:31.92Z</time></trkpt><trkpt lat="38.054355" lon="14.877385"><ele>718.0</ele><time>2026-04-25T11:34:32.92Z</time></trkpt><trkpt lat="38.054265" lon="14.8772633"><ele>715.0</ele><time>2026-04-25T11:34:33.92Z</time></trkpt><trkpt lat="38.05417" lon="14.8771483"><ele>720.75</ele><time>2026-04-25T11:34:34.92Z</time></trkpt><trkpt lat="38.0540783" lon="14.87702"><ele>726.5</ele><time>2026-04-25T11:34:35.919Z</time></trkpt><trkpt lat="38.0540017" lon="14.8768767"><ele>732.25</ele><time>2026-04-25T11:34:36.92Z</time></trkpt><trkpt lat="38.053935" lon="14.8767233"><ele>738.0</ele><time>2026-04-25T11:34:37.919Z</time></trkpt><trkpt lat="38.05387" lon="14.8765817"><ele>738.0</ele><time>2026-04-25T11:34:38.919Z</time></trkpt><trkpt lat="38.0537983" lon="14.8764517"><ele>738.0</ele><time>2026-04-25T11:34:39.919Z</time></trkpt><trkpt lat="38.053725" lon="14.8763333"><ele>738.0</ele><time>2026-04-25T11:34:40.92Z</time></trkpt><trkpt lat="38.0536933" lon="14.8762183"><ele>738.0</ele><time>2026-04-25T11:34:41.92Z</time></trkpt><trkpt lat="38.0536933" lon="14.87611"><ele>738.0</ele><time>2026-04-25T11:34:42.919Z</time></trkpt><trkpt lat="38.0537433" lon="14.8760167"><ele>739.5</ele><time>2026-04-25T11:34:43.92Z</time></trkpt><trkpt lat="38.0538117" lon="14.8759167"><ele>741.0</ele><time>2026-04-25T11:34:44.92Z</time></trkpt><trkpt lat="38.0538867" lon="14.8758033"><ele>742.5</ele><time>2026-04-25T11:34:45.92Z</time></trkpt><trkpt lat="38.0539617" lon="14.8756833"><ele>744.0</ele><time>2026-04-25T11:34:46.92Z</time></trkpt><trkpt lat="38.0540417" lon="14.87554"><ele>744.0</ele><time>2026-04-25T11:34:47.919Z</time></trkpt><trkpt lat="38.0541117" lon="14.8753867"><ele>744.0</ele><time>2026-04-25T11:34:48.92Z</time></trkpt><trkpt lat="38.0541783" lon="14.87523"><ele>744.0</ele><time>2026-04-25T11:34:49.92Z</time></trkpt><trkpt lat="38.0542433" lon="14.875085"><ele>744.0</ele><time>2026-04-25T11:34:50.92Z</time></trkpt><trkpt lat="38.0543217" lon="14.87497"><ele>738.75</ele><time>2026-04-25T11:34:51.92Z</time></trkpt><trkpt lat="38.0544183" lon="14.8748767"><ele>733.5</ele><time>2026-04-25T11:34:52.919Z</time></trkpt><trkpt lat="38.054515" lon="14.8748267"><ele>728.25</ele><time>2026-04-25T11:34:53.92Z</time></trkpt><trkpt lat="38.0546283" lon="14.8748017"><ele>723.0</ele><time>2026-04-25T11:34:54.919Z</time></trkpt><trkpt lat="38.0547467" lon="14.8748117"><ele>723.0</ele><time>2026-04-25T11:34:55.92Z</time></trkpt><trkpt lat="38.0548617" lon="14.8748367"><ele>723.0</ele><time>2026-04-25T11:34:56.919Z</time></trkpt><trkpt lat="38.0549867" lon="14.87485"><ele>723.0</ele><time>2026-04-25T11:34:57.92Z</time></trkpt><trkpt lat="38.055125" lon="14.874845"><ele>723.0</ele><time>2026-04-25T11:34:58.92Z</time></trkpt><trkpt lat="38.0552567" lon="14.8748167"><ele>719.0</ele><time>2026-04-25T11:34:59.919Z</time></trkpt><trkpt lat="38.0553883" lon="14.8747783"><ele>715.0</ele><time>2026-04-25T11:35:00.919Z</time></trkpt><trkpt lat="38.05552" lon="14.8747233"><ele>711.0</ele><time>2026-04-25T11:35:01.919Z</time></trkpt><trkpt lat="38.055655" lon="14.8746717"><ele>707.0</ele><time>2026-04-25T11:35:02.919Z</time></trkpt><trkpt lat="38.0557867" lon="14.8746167"><ele>704.0</ele><time>2026-04-25T11:35:03.919Z</time></trkpt><trkpt lat="38.0559267" lon="14.8745783"><ele>701.0</ele><time>2026-04-25T11:35:04.92Z</time></trkpt><trkpt lat="38.0560567" lon="14.874515"><ele>698.0</ele><time>2026-04-25T11:35:05.92Z</time></trkpt><trkpt lat="38.0561967" lon="14.8744317"><ele>695.0</ele><time>2026-04-25T11:35:06.92Z</time></trkpt><trkpt lat="38.0563283" lon="14.874335"><ele>698.0</ele><time>2026-04-25T11:35:07.919Z</time></trkpt><trkpt lat="38.0564583" lon="14.8742367"><ele>701.0</ele><time>2026-04-25T11:35:08.919Z</time></trkpt><trkpt lat="38.0565883" lon="14.874135"><ele>704.0</ele><time>2026-04-25T11:35:09.92Z</time></trkpt><trkpt lat="38.0567017" lon="14.874025"><ele>707.0</ele><time>2026-04-25T11:35:10.919Z</time></trkpt><trkpt lat="38.0568167" lon="14.873915"><ele>707.0</ele><time>2026-04-25T11:35:11.92Z</time></trkpt><trkpt lat="38.0569217" lon="14.8738283"><ele>707.0</ele><time>2026-04-25T11:35:12.92Z</time></trkpt><trkpt lat="38.0570267" lon="14.8737833"><ele>707.0</ele><time>2026-04-25T11:35:13.919Z</time></trkpt><trkpt lat="38.0571333" lon="14.87378"><ele>707.0</ele><time>2026-04-25T11:35:14.92Z</time></trkpt><trkpt lat="38.0572433" lon="14.873805"><ele>707.0</ele><time>2026-04-25T11:35:15.92Z</time></trkpt><trkpt lat="38.0573567" lon="14.873825"><ele>707.0</ele><time>2026-04-25T11:35:16.919Z</time></trkpt><trkpt lat="38.0574633" lon="14.8737817"><ele>707.0</ele><time>2026-04-25T11:35:17.92Z</time></trkpt><trkpt lat="38.057565" lon="14.8736983"><ele>707.0</ele><time>2026-04-25T11:35:18.919Z</time></trkpt><trkpt lat="38.0576483" lon="14.8735867"><ele>708.8</ele><time>2026-04-25T11:35:19.92Z</time></trkpt><trkpt lat="38.0577217" lon="14.87347"><ele>710.6</ele><time>2026-04-25T11:35:20.918Z</time></trkpt><trkpt lat="38.05777" lon="14.873345"><ele>712.4</ele><time>2026-04-25T11:35:21.918Z</time></trkpt><trkpt lat="38.0577967" lon="14.873215"><ele>714.1999999999999</ele><time>2026-04-25T11:35:22.919Z</time></trkpt><trkpt lat="38.0577917" lon="14.8730767"><ele>716.0</ele><time>2026-04-25T11:35:23.918Z</time></trkpt><trkpt lat="38.057735" lon="14.8729333"><ele>716.0</ele><time>2026-04-25T11:35:24.919Z</time></trkpt><trkpt lat="38.057685" lon="14.8727833"><ele>716.0</ele><time>2026-04-25T11:35:25.919Z</time></trkpt><trkpt lat="38.0576517" lon="14.8726333"><ele>716.0</ele><time>2026-04-25T11:35:26.919Z</time></trkpt><trkpt lat="38.0576433" lon="14.8724717"><ele>716.0</ele><time>2026-04-25T11:35:27.919Z</time></trkpt><trkpt lat="38.057665" lon="14.8722967"><ele>718.25</ele><time>2026-04-25T11:35:28.919Z</time></trkpt><trkpt lat="38.0576933" lon="14.8721183"><ele>720.5</ele><time>2026-04-25T11:35:29.918Z</time></trkpt><trkpt lat="38.0577117" lon="14.8719317"><ele>722.75</ele><time>2026-04-25T11:35:30.919Z</time></trkpt><trkpt lat="38.0577417" lon="14.87174"><ele>725.0</ele><time>2026-04-25T11:35:31.919Z</time></trkpt><trkpt lat="38.0577733" lon="14.8715617"><ele>726.25</ele><time>2026-04-25T11:35:32.918Z</time></trkpt><trkpt lat="38.057815" lon="14.8713867"><ele>727.5</ele><time>2026-04-25T11:35:33.919Z</time></trkpt><trkpt lat="38.05784" lon="14.871215"><ele>728.75</ele><time>2026-04-25T11:35:34.919Z</time></trkpt><trkpt lat="38.0578533" lon="14.8710417"><ele>730.0</ele><time>2026-04-25T11:35:35.919Z</time></trkpt><trkpt lat="38.057835" lon="14.8708533"><ele>730.0</ele><time>2026-04-25T11:35:36.919Z</time></trkpt><trkpt lat="38.0578083" lon="14.87067"><ele>730.0</ele><time>2026-04-25T11:35:37.919Z</time></trkpt><trkpt lat="38.05776" lon="14.870485"><ele>730.0</ele><time>2026-04-25T11:35:38.919Z</time></trkpt><trkpt lat="38.05771" lon="14.870305"><ele>730.0</ele><time>2026-04-25T11:35:39.918Z</time></trkpt><trkpt lat="38.0576483" lon="14.87014"><ele>730.0</ele><time>2026-04-25T11:35:40.919Z</time></trkpt><trkpt lat="38.05757" lon="14.87001"><ele>730.0</ele><time>2026-04-25T11:35:41.918Z</time></trkpt><trkpt lat="38.0574683" lon="14.869915"><ele>730.0</ele><time>2026-04-25T11:35:42.919Z</time></trkpt><trkpt lat="38.057355" lon="14.869875"><ele>723.25</ele><time>2026-04-25T11:35:43.919Z</time></trkpt><trkpt lat="38.0572333" lon="14.8698733"><ele>716.5</ele><time>2026-04-25T11:35:44.919Z</time></trkpt><trkpt lat="38.0571183" lon="14.86993"><ele>709.75</ele><time>2026-04-25T11:35:45.918Z</time></trkpt><trkpt lat="38.0569883" lon="14.8700183"><ele>703.0</ele><time>2026-04-25T11:35:46.919Z</time></trkpt><trkpt lat="38.0568517" lon="14.8701"><ele>709.0</ele><time>2026-04-25T11:35:47.918Z</time></trkpt><trkpt lat="38.05671" lon="14.8701917"><ele>715.0</ele><time>2026-04-25T11:35:48.918Z</time></trkpt><trkpt lat="38.056565" lon="14.87029"><ele>721.0</ele><time>2026-04-25T11:35:49.918Z</time></trkpt><trkpt lat="38.0564167" lon="14.8703683"><ele>721.0</ele><time>2026-04-25T11:35:50.919Z</time></trkpt><trkpt lat="38.0562583" lon="14.87045"><ele>721.0</ele><time>2026-04-25T11:35:51.919Z</time></trkpt><trkpt lat="38.0561067" lon="14.8705167"><ele>721.0</ele><time>2026-04-25T11:35:52.918Z</time></trkpt><trkpt lat="38.0559583" lon="14.8705683"><ele>721.0</ele><time>2026-04-25T11:35:53.918Z</time></trkpt><trkpt lat="38.0558267" lon="14.8706067"><ele>721.0</ele><time>2026-04-25T11:35:54.919Z</time></trkpt><trkpt lat="38.0556867" lon="14.87064"><ele>721.0</ele><time>2026-04-25T11:35:55.919Z</time></trkpt><trkpt lat="38.0555533" lon="14.87068"><ele>721.0</ele><time>2026-04-25T11:35:56.918Z</time></trkpt><trkpt lat="38.055435" lon="14.8707433"><ele>722.75</ele><time>2026-04-25T11:35:57.919Z</time></trkpt><trkpt lat="38.0553283" lon="14.8708517"><ele>724.5</ele><time>2026-04-25T11:35:58.919Z</time></trkpt><trkpt lat="38.0552183" lon="14.8709717"><ele>726.25</ele><time>2026-04-25T11:35:59.919Z</time></trkpt><trkpt lat="38.0551217" lon="14.871095"><ele>728.0</ele><time>2026-04-25T11:36:00.918Z</time></trkpt><trkpt lat="38.0550317" lon="14.871195"><ele>727.4</ele><time>2026-04-25T11:36:01.919Z</time></trkpt><trkpt lat="38.0549483" lon="14.8712617"><ele>726.8</ele><time>2026-04-25T11:36:02.919Z</time></trkpt><trkpt lat="38.0548583" lon="14.8713"><ele>726.2</ele><time>2026-04-25T11:36:03.919Z</time></trkpt><trkpt lat="38.0547533" lon="14.8712833"><ele>725.6</ele><time>2026-04-25T11:36:04.919Z</time></trkpt><trkpt lat="38.05464" lon="14.871245"><ele>725.0</ele><time>2026-04-25T11:36:05.919Z</time></trkpt><trkpt lat="38.05452" lon="14.871205"><ele>725.0</ele><time>2026-04-25T11:36:06.918Z</time></trkpt><trkpt lat="38.0543983" lon="14.871165"><ele>725.0</ele><time>2026-04-25T11:36:07.918Z</time></trkpt><trkpt lat="38.05429" lon="14.8711233"><ele>725.0</ele><time>2026-04-25T11:36:08.918Z</time></trkpt><trkpt lat="38.054215" lon="14.8710683"><ele>725.0</ele><time>2026-04-25T11:36:09.918Z</time></trkpt><trkpt lat="38.054175" lon="14.8709883"><ele>725.0</ele><time>2026-04-25T11:36:10.918Z</time></trkpt><trkpt lat="38.05416" lon="14.8708983"><ele>724.3333333333333</ele><time>2026-04-25T11:36:11.918Z</time></trkpt><trkpt lat="38.0541683" lon="14.8708"><ele>723.6666666666666</ele><time>2026-04-25T11:36:12.918Z</time></trkpt><trkpt lat="38.054195" lon="14.870705"><ele>723.0</ele><time>2026-04-25T11:36:13.919Z</time></trkpt><trkpt lat="38.0542367" lon="14.8706217"><ele>722.3333333333334</ele><time>2026-04-25T11:36:14.918Z</time></trkpt><trkpt lat="38.0542933" lon="14.8705683"><ele>721.6666666666667</ele><time>2026-04-25T11:36:15.918Z</time></trkpt><trkpt lat="38.0543683" lon="14.8705617"><ele>721.0</ele><time>2026-04-25T11:36:16.918Z</time></trkpt><trkpt lat="38.0544783" lon="14.870565"><ele>721.0</ele><time>2026-04-25T11:36:17.918Z</time></trkpt><trkpt lat="38.0545833" lon="14.8705567"><ele>721.0</ele><time>2026-04-25T11:36:18.918Z</time></trkpt><trkpt lat="38.054705" lon="14.87052"><ele>721.0</ele><time>2026-04-25T11:36:19.918Z</time></trkpt><trkpt lat="38.0547867" lon="14.8704617"><ele>721.0</ele><time>2026-04-25T11:36:20.918Z</time></trkpt><trkpt lat="38.05484" lon="14.8703967"><ele>721.0</ele><time>2026-04-25T11:36:21.918Z</time></trkpt><trkpt lat="38.05487" lon="14.8703217"><ele>721.0</ele><time>2026-04-25T11:36:22.918Z</time></trkpt><trkpt lat="38.054865" lon="14.8702217"><ele>721.0</ele><time>2026-04-25T11:36:23.919Z</time></trkpt><trkpt lat="38.0548433" lon="14.8701"><ele>721.0</ele><time>2026-04-25T11:36:24.918Z</time></trkpt><trkpt lat="38.0548467" lon="14.86999"><ele>721.0</ele><time>2026-04-25T11:36:25.919Z</time></trkpt><trkpt lat="38.0548883" lon="14.8699133"><ele>721.0</ele><time>2026-04-25T11:36:26.919Z</time></trkpt><trkpt lat="38.054935" lon="14.86983"><ele>721.0</ele><time>2026-04-25T11:36:27.919Z</time></trkpt><trkpt lat="38.0550133" lon="14.8697567"><ele>718.25</ele><time>2026-04-25T11:36:28.919Z</time></trkpt><trkpt lat="38.05512" lon="14.8696917"><ele>715.5</ele><time>2026-04-25T11:36:29.918Z</time></trkpt><trkpt lat="38.0552133" lon="14.8696083"><ele>712.75</ele><time>2026-04-25T11:36:30.918Z</time></trkpt><trkpt lat="38.0552833" lon="14.8694883"><ele>710.0</ele><time>2026-04-25T11:36:31.918Z</time></trkpt><trkpt lat="38.0553333" lon="14.8693517"><ele>714.0</ele><time>2026-04-25T11:36:32.919Z</time></trkpt><trkpt lat="38.055345" lon="14.8691983"><ele>718.0</ele><time>2026-04-25T11:36:33.919Z</time></trkpt><trkpt lat="38.0553567" lon="14.869045"><ele>722.0</ele><time>2026-04-25T11:36:34.918Z</time></trkpt><trkpt lat="38.0553933" lon="14.8689117"><ele>726.0</ele><time>2026-04-25T11:36:35.918Z</time></trkpt><trkpt lat="38.0554533" lon="14.8687983"><ele>726.0</ele><time>2026-04-25T11:36:36.919Z</time></trkpt><trkpt lat="38.05555" lon="14.8686867"><ele>726.0</ele><time>2026-04-25T11:36:37.919Z</time></trkpt><trkpt lat="38.055665" lon="14.86858"><ele>726.0</ele><time>2026-04-25T11:36:38.918Z</time></trkpt><trkpt lat="38.0557733" lon="14.8684683"><ele>726.0</ele><time>2026-04-25T11:36:39.919Z</time></trkpt><trkpt lat="38.0558583" lon="14.8683367"><ele>722.0</ele><time>2026-04-25T11:36:40.918Z</time></trkpt><trkpt lat="38.05593" lon="14.8682033"><ele>718.0</ele><time>2026-04-25T11:36:41.919Z</time></trkpt><trkpt lat="38.0559967" lon="14.8680533"><ele>714.0</ele><time>2026-04-25T11:36:42.918Z</time></trkpt><trkpt lat="38.0560533" lon="14.86791"><ele>710.0</ele><time>2026-04-25T11:36:43.918Z</time></trkpt><trkpt lat="38.056095" lon="14.8677617"><ele>710.0</ele><time>2026-04-25T11:36:44.919Z</time></trkpt><trkpt lat="38.05613" lon="14.86762"><ele>710.0</ele><time>2026-04-25T11:36:45.918Z</time></trkpt><trkpt lat="38.056175" lon="14.8675067"><ele>710.0</ele><time>2026-04-25T11:36:46.918Z</time></trkpt><trkpt lat="38.0562417" lon="14.86743"><ele>710.0</ele><time>2026-04-25T11:36:47.919Z</time></trkpt><trkpt lat="38.05632" lon="14.867385"><ele>710.0</ele><time>2026-04-25T11:36:48.919Z</time></trkpt><trkpt lat="38.0564183" lon="14.8673633"><ele>705.5</ele><time>2026-04-25T11:36:49.918Z</time></trkpt><trkpt lat="38.05653" lon="14.8673133"><ele>701.0</ele><time>2026-04-25T11:36:50.918Z</time></trkpt><trkpt lat="38.0566317" lon="14.8672367"><ele>696.5</ele><time>2026-04-25T11:36:51.919Z</time></trkpt><trkpt lat="38.0567083" lon="14.8671283"><ele>692.0</ele><time>2026-04-25T11:36:52.918Z</time></trkpt><trkpt lat="38.0567667" lon="14.867005"><ele>692.0</ele><time>2026-04-25T11:36:53.919Z</time></trkpt><trkpt lat="38.0568033" lon="14.86687"><ele>692.0</ele><time>2026-04-25T11:36:54.919Z</time></trkpt><trkpt lat="38.0568333" lon="14.86671"><ele>692.0</ele><time>2026-04-25T11:36:55.919Z</time></trkpt><trkpt lat="38.056865" lon="14.8665383"><ele>692.0</ele><time>2026-04-25T11:36:56.918Z</time></trkpt><trkpt lat="38.0569117" lon="14.8663717"><ele>697.5</ele><time>2026-04-25T11:36:57.918Z</time></trkpt><trkpt lat="38.05695" lon="14.8662133"><ele>703.0</ele><time>2026-04-25T11:36:58.919Z</time></trkpt><trkpt lat="38.0569667" lon="14.8660533"><ele>708.5</ele><time>2026-04-25T11:36:59.918Z</time></trkpt><trkpt lat="38.0569683" lon="14.865885"><ele>714.0</ele><time>2026-04-25T11:37:00.918Z</time></trkpt><trkpt lat="38.0569617" lon="14.86572"><ele>716.25</ele><time>2026-04-25T11:37:01.918Z</time></trkpt><trkpt lat="38.0569483" lon="14.8655617"><ele>718.5</ele><time>2026-04-25T11:37:02.919Z</time></trkpt><trkpt lat="38.0568917" lon="14.8654133"><ele>720.75</ele><time>2026-04-25T11:37:03.919Z</time></trkpt><trkpt lat="38.0568317" lon="14.86527"><ele>723.0</ele><time>2026-04-25T11:37:04.919Z</time></trkpt><trkpt lat="38.056745" lon="14.865175"><ele>722.1666666666666</ele><time>2026-04-25T11:37:05.918Z</time></trkpt><trkpt lat="38.056675" lon="14.8650783"><ele>721.3333333333334</ele><time>2026-04-25T11:37:06.918Z</time></trkpt><trkpt lat="38.056655" lon="14.86496"><ele>720.5</ele><time>2026-04-25T11:37:07.918Z</time></trkpt><trkpt lat="38.05667" lon="14.8648517"><ele>719.6666666666667</ele><time>2026-04-25T11:37:08.919Z</time></trkpt><trkpt lat="38.0567" lon="14.8647533"><ele>718.8333333333334</ele><time>2026-04-25T11:37:09.919Z</time></trkpt><trkpt lat="38.0567617" lon="14.8646883"><ele>718.0</ele><time>2026-04-25T11:37:10.919Z</time></trkpt><trkpt lat="38.0568433" lon="14.8646617"><ele>718.0</ele><time>2026-04-25T11:37:11.918Z</time></trkpt><trkpt lat="38.056965" lon="14.8646633"><ele>718.0</ele><time>2026-04-25T11:37:12.918Z</time></trkpt><trkpt lat="38.057115" lon="14.86469"><ele>718.0</ele><time>2026-04-25T11:37:13.919Z</time></trkpt><trkpt lat="38.0572633" lon="14.8647483"><ele>718.0</ele><time>2026-04-25T11:37:14.918Z</time></trkpt><trkpt lat="38.05738" lon="14.8647883"><ele>713.5999999999999</ele><time>2026-04-25T11:37:15.918Z</time></trkpt><trkpt lat="38.0574833" lon="14.86481"><ele>709.1999999999999</ele><time>2026-04-25T11:37:16.919Z</time></trkpt><trkpt lat="38.0575767" lon="14.8647983"><ele>704.8</ele><time>2026-04-25T11:37:17.918Z</time></trkpt><trkpt lat="38.0576517" lon="14.864725"><ele>700.4</ele><time>2026-04-25T11:37:18.918Z</time></trkpt><trkpt lat="38.057725" lon="14.864635"><ele>696.0</ele><time>2026-04-25T11:37:19.918Z</time></trkpt><trkpt lat="38.0578017" lon="14.8645283"><ele>696.0</ele><time>2026-04-25T11:37:20.919Z</time></trkpt><trkpt lat="38.05786" lon="14.8644133"><ele>696.0</ele><time>2026-04-25T11:37:21.919Z</time></trkpt><trkpt lat="38.0578983" lon="14.8642933"><ele>696.0</ele><time>2026-04-25T11:37:22.919Z</time></trkpt><trkpt lat="38.05789" lon="14.864155"><ele>696.0</ele><time>2026-04-25T11:37:23.918Z</time></trkpt><trkpt lat="38.0578833" lon="14.864"><ele>696.0</ele><time>2026-04-25T11:37:24.919Z</time></trkpt><trkpt lat="38.0578683" lon="14.863835"><ele>701.75</ele><time>2026-04-25T11:37:25.918Z</time></trkpt><trkpt lat="38.0578533" lon="14.8636517"><ele>707.5</ele><time>2026-04-25T11:37:26.919Z</time></trkpt><trkpt lat="38.057845" lon="14.8634667"><ele>713.25</ele><time>2026-04-25T11:37:27.919Z</time></trkpt><trkpt lat="38.05782" lon="14.86328"><ele>719.0</ele><time>2026-04-25T11:37:28.919Z</time></trkpt><trkpt lat="38.0578017" lon="14.8631017"><ele>721.0</ele><time>2026-04-25T11:37:29.918Z</time></trkpt><trkpt lat="38.057785" lon="14.8629333"><ele>723.0</ele><time>2026-04-25T11:37:30.918Z</time></trkpt><trkpt lat="38.0577817" lon="14.8627817"><ele>725.0</ele><time>2026-04-25T11:37:31.918Z</time></trkpt><trkpt lat="38.0577867" lon="14.862645"><ele>727.0</ele><time>2026-04-25T11:37:32.919Z</time></trkpt><trkpt lat="38.0578133" lon="14.862535"><ele>728.3333333333334</ele><time>2026-04-25T11:37:33.918Z</time></trkpt><trkpt lat="38.0578567" lon="14.8624383"><ele>729.6666666666667</ele><time>2026-04-25T11:37:34.919Z</time></trkpt><trkpt lat="38.057915" lon="14.8623467"><ele>731.0</ele><time>2026-04-25T11:37:35.919Z</time></trkpt><trkpt lat="38.0579783" lon="14.862265"><ele>732.3333333333334</ele><time>2026-04-25T11:37:36.919Z</time></trkpt><trkpt lat="38.0580517" lon="14.862205"><ele>733.6666666666666</ele><time>2026-04-25T11:37:37.918Z</time></trkpt><trkpt lat="38.0581283" lon="14.86217"><ele>735.0</ele><time>2026-04-25T11:37:38.918Z</time></trkpt><trkpt lat="38.0582117" lon="14.8621633"><ele>730.8</ele><time>2026-04-25T11:37:39.919Z</time></trkpt><trkpt lat="38.0583" lon="14.86219"><ele>726.6</ele><time>2026-04-25T11:37:40.918Z</time></trkpt><trkpt lat="38.0583917" lon="14.86225"><ele>722.4000000000001</ele><time>2026-04-25T11:37:41.918Z</time></trkpt><trkpt lat="38.0584633" lon="14.8623367"><ele>718.2</ele><time>2026-04-25T11:37:42.919Z</time></trkpt><trkpt lat="38.0585267" lon="14.8624567"><ele>714.0</ele><time>2026-04-25T11:37:43.919Z</time></trkpt><trkpt lat="38.0585717" lon="14.862605"><ele>705.6666666666666</ele><time>2026-04-25T11:37:44.918Z</time></trkpt><trkpt lat="38.05861" lon="14.862795"><ele>697.3333333333333</ele><time>2026-04-25T11:37:45.919Z</time></trkpt><trkpt lat="38.0586717" lon="14.862975"><ele>689.0</ele><time>2026-04-25T11:37:46.918Z</time></trkpt><trkpt lat="38.0587417" lon="14.8631683"><ele>689.0</ele><time>2026-04-25T11:37:47.918Z</time></trkpt><trkpt lat="38.0588183" lon="14.8633283"><ele>689.0</ele><time>2026-04-25T11:37:48.918Z</time></trkpt><trkpt lat="38.0588983" lon="14.8634783"><ele>689.0</ele><time>2026-04-25T11:37:49.918Z</time></trkpt><trkpt lat="38.059" lon="14.8636117"><ele>689.0</ele><time>2026-04-25T11:37:50.919Z</time></trkpt><trkpt lat="38.0591117" lon="14.863745"><ele>689.0</ele><time>2026-04-25T11:37:51.918Z</time></trkpt><trkpt lat="38.0592217" lon="14.86385"><ele>689.0</ele><time>2026-04-25T11:37:52.918Z</time></trkpt><trkpt lat="38.0593333" lon="14.8639533"><ele>689.0</ele><time>2026-04-25T11:37:53.919Z</time></trkpt><trkpt lat="38.05943" lon="14.8640683"><ele>689.0</ele><time>2026-04-25T11:37:54.919Z</time></trkpt><trkpt lat="38.05949" lon="14.86419"><ele>683.5</ele><time>2026-04-25T11:37:55.918Z</time></trkpt><trkpt lat="38.0595133" lon="14.8643483"><ele>678.0</ele><time>2026-04-25T11:37:56.918Z</time></trkpt><trkpt lat="38.0595283" lon="14.864515"><ele>672.5</ele><time>2026-04-25T11:37:57.918Z</time></trkpt><trkpt lat="38.05955" lon="14.8646883"><ele>667.0</ele><time>2026-04-25T11:37:58.918Z</time></trkpt><trkpt lat="38.05958" lon="14.864835"><ele>667.0</ele><time>2026-04-25T11:37:59.918Z</time></trkpt><trkpt lat="38.0596233" lon="14.8649633"><ele>667.0</ele><time>2026-04-25T11:38:00.919Z</time></trkpt><trkpt lat="38.0596967" lon="14.8650583"><ele>667.0</ele><time>2026-04-25T11:38:01.919Z</time></trkpt><trkpt lat="38.0597967" lon="14.8651217"><ele>667.0</ele><time>2026-04-25T11:38:02.919Z</time></trkpt><trkpt lat="38.0599033" lon="14.8651433"><ele>667.0</ele><time>2026-04-25T11:38:03.918Z</time></trkpt><trkpt lat="38.06004" lon="14.86512"><ele>677.0</ele><time>2026-04-25T11:38:04.918Z</time></trkpt><trkpt lat="38.0601883" lon="14.86507"><ele>687.0</ele><time>2026-04-25T11:38:05.918Z</time></trkpt><trkpt lat="38.060335" lon="14.8650283"><ele>697.0</ele><time>2026-04-25T11:38:06.919Z</time></trkpt><trkpt lat="38.0604833" lon="14.8649983"><ele>697.0</ele><time>2026-04-25T11:38:07.919Z</time></trkpt><trkpt lat="38.06063" lon="14.86497"><ele>697.0</ele><time>2026-04-25T11:38:08.919Z</time></trkpt><trkpt lat="38.0607817" lon="14.8649367"><ele>697.0</ele><time>2026-04-25T11:38:09.919Z</time></trkpt><trkpt lat="38.0609317" lon="14.8648983"><ele>698.3333333333334</ele><time>2026-04-25T11:38:10.919Z</time></trkpt><trkpt lat="38.061085" lon="14.8648767"><ele>699.6666666666666</ele><time>2026-04-25T11:38:11.919Z</time></trkpt><trkpt lat="38.06124" lon="14.8648767"><ele>701.0</ele><time>2026-04-25T11:38:12.918Z</time></trkpt><trkpt lat="38.0613883" lon="14.8648867"><ele>701.0</ele><time>2026-04-25T11:38:13.918Z</time></trkpt><trkpt lat="38.06154" lon="14.8649017"><ele>701.0</ele><time>2026-04-25T11:38:14.918Z</time></trkpt><trkpt lat="38.0616867" lon="14.8649183"><ele>701.0</ele><time>2026-04-25T11:38:15.919Z</time></trkpt><trkpt lat="38.0618383" lon="14.8649317"><ele>700.0</ele><time>2026-04-25T11:38:16.918Z</time></trkpt><trkpt lat="38.06198" lon="14.864935"><ele>699.0</ele><time>2026-04-25T11:38:17.919Z</time></trkpt><trkpt lat="38.0621067" lon="14.8649"><ele>698.0</ele><time>2026-04-25T11:38:18.919Z</time></trkpt><trkpt lat="38.062225" lon="14.8648233"><ele>697.0</ele><time>2026-04-25T11:38:19.919Z</time></trkpt><trkpt lat="38.0623267" lon="14.8647033"><ele>697.0</ele><time>2026-04-25T11:38:20.918Z</time></trkpt><trkpt lat="38.06241" lon="14.864575"><ele>697.0</ele><time>2026-04-25T11:38:21.919Z</time></trkpt><trkpt lat="38.0624683" lon="14.8644167"><ele>697.0</ele><time>2026-04-25T11:38:22.919Z</time></trkpt><trkpt lat="38.0624933" lon="14.8642433"><ele>697.0</ele><time>2026-04-25T11:38:23.919Z</time></trkpt><trkpt lat="38.0625283" lon="14.86406"><ele>697.6666666666667</ele><time>2026-04-25T11:38:24.919Z</time></trkpt><trkpt lat="38.0625733" lon="14.8638717"><ele>698.3333333333334</ele><time>2026-04-25T11:38:25.919Z</time></trkpt><trkpt lat="38.0626133" lon="14.8636817"><ele>699.0</ele><time>2026-04-25T11:38:26.918Z</time></trkpt><trkpt lat="38.06267" lon="14.863515"><ele>704.3333333333334</ele><time>2026-04-25T11:38:27.919Z</time></trkpt><trkpt lat="38.0627633" lon="14.8633533"><ele>709.6666666666667</ele><time>2026-04-25T11:38:28.918Z</time></trkpt><trkpt lat="38.0628667" lon="14.8632033"><ele>715.0</ele><time>2026-04-25T11:38:29.919Z</time></trkpt><trkpt lat="38.0629867" lon="14.86307"><ele>715.0</ele><time>2026-04-25T11:38:30.919Z</time></trkpt><trkpt lat="38.063115" lon="14.8629583"><ele>715.0</ele><time>2026-04-25T11:38:31.919Z</time></trkpt><trkpt lat="38.063255" lon="14.8628483"><ele>715.0</ele><time>2026-04-25T11:38:32.919Z</time></trkpt><trkpt lat="38.0634017" lon="14.86274"><ele>713.6666666666667</ele><time>2026-04-25T11:38:33.919Z</time></trkpt><trkpt lat="38.063545" lon="14.8626283"><ele>712.3333333333334</ele><time>2026-04-25T11:38:34.919Z</time></trkpt><trkpt lat="38.0636883" lon="14.862535"><ele>711.0</ele><time>2026-04-25T11:38:35.919Z</time></trkpt><trkpt lat="38.06382" lon="14.86247"><ele>711.0</ele><time>2026-04-25T11:38:36.918Z</time></trkpt><trkpt lat="38.0639433" lon="14.8624083"><ele>711.0</ele><time>2026-04-25T11:38:37.919Z</time></trkpt><trkpt lat="38.0640617" lon="14.8623283"><ele>711.0</ele><time>2026-04-25T11:38:38.919Z</time></trkpt><trkpt lat="38.0641683" lon="14.8622133"><ele>711.0</ele><time>2026-04-25T11:38:39.919Z</time></trkpt><trkpt lat="38.0642583" lon="14.862055"><ele>710.25</ele><time>2026-04-25T11:38:40.918Z</time></trkpt><trkpt lat="38.0643217" lon="14.8618917"><ele>709.5</ele><time>2026-04-25T11:38:41.919Z</time></trkpt><trkpt lat="38.0643617" lon="14.86171"><ele>708.75</ele><time>2026-04-25T11:38:42.919Z</time></trkpt><trkpt lat="38.0644067" lon="14.8615283"><ele>708.0</ele><time>2026-04-25T11:38:43.919Z</time></trkpt><trkpt lat="38.064465" lon="14.861345"><ele>708.0</ele><time>2026-04-25T11:38:44.919Z</time></trkpt><trkpt lat="38.0645333" lon="14.8611633"><ele>708.0</ele><time>2026-04-25T11:38:45.919Z</time></trkpt><trkpt lat="38.06461" lon="14.8609883"><ele>708.0</ele><time>2026-04-25T11:38:46.918Z</time></trkpt><trkpt lat="38.0646833" lon="14.8608183"><ele>714.0</ele><time>2026-04-25T11:38:47.918Z</time></trkpt><trkpt lat="38.0647717" lon="14.8606483"><ele>720.0</ele><time>2026-04-25T11:38:48.918Z</time></trkpt><trkpt lat="38.064855" lon="14.860475"><ele>726.0</ele><time>2026-04-25T11:38:49.919Z</time></trkpt><trkpt lat="38.0649317" lon="14.8603"><ele>719.5</ele><time>2026-04-25T11:38:50.918Z</time></trkpt><trkpt lat="38.0649867" lon="14.8601317"><ele>713.0</ele><time>2026-04-25T11:38:51.919Z</time></trkpt><trkpt lat="38.06504" lon="14.85996"><ele>706.5</ele><time>2026-04-25T11:38:52.919Z</time></trkpt><trkpt lat="38.0650983" lon="14.8597967"><ele>700.0</ele><time>2026-04-25T11:38:53.918Z</time></trkpt><trkpt lat="38.0651683" lon="14.859665"><ele>700.0</ele><time>2026-04-25T11:38:54.919Z</time></trkpt><trkpt lat="38.0652683" lon="14.8595433"><ele>700.0</ele><time>2026-04-25T11:38:55.918Z</time></trkpt><trkpt lat="38.06537" lon="14.8594117"><ele>700.0</ele><time>2026-04-25T11:38:56.919Z</time></trkpt><trkpt lat="38.065455" lon="14.8592583"><ele>700.0</ele><time>2026-04-25T11:38:57.919Z</time></trkpt><trkpt lat="38.0655367" lon="14.8590967"><ele>694.5</ele><time>2026-04-25T11:38:58.918Z</time></trkpt><trkpt lat="38.0656083" lon="14.8589467"><ele>689.0</ele><time>2026-04-25T11:38:59.919Z</time></trkpt><trkpt lat="38.0656767" lon="14.85881"><ele>683.5</ele><time>2026-04-25T11:39:00.918Z</time></trkpt><trkpt lat="38.0657717" lon="14.8587033"><ele>678.0</ele><time>2026-04-25T11:39:01.919Z</time></trkpt><trkpt lat="38.0658817" lon="14.8586167"><ele>678.0</ele><time>2026-04-25T11:39:02.919Z</time></trkpt><trkpt lat="38.066" lon="14.858495"><ele>678.0</ele><time>2026-04-25T11:39:03.919Z</time></trkpt><trkpt lat="38.066105" lon="14.8583717"><ele>678.0</ele><time>2026-04-25T11:39:04.918Z</time></trkpt><trkpt lat="38.0662" lon="14.858225"><ele>678.0</ele><time>2026-04-25T11:39:05.918Z</time></trkpt><trkpt lat="38.0662867" lon="14.8580833"><ele>680.5</ele><time>2026-04-25T11:39:06.919Z</time></trkpt><trkpt lat="38.0663717" lon="14.8579283"><ele>683.0</ele><time>2026-04-25T11:39:07.918Z</time></trkpt><trkpt lat="38.0664567" lon="14.8577767"><ele>685.5</ele><time>2026-04-25T11:39:08.919Z</time></trkpt><trkpt lat="38.0665417" lon="14.85763"><ele>688.0</ele><time>2026-04-25T11:39:09.918Z</time></trkpt><trkpt lat="38.0666333" lon="14.8574767"><ele>688.0</ele><time>2026-04-25T11:39:10.918Z</time></trkpt><trkpt lat="38.0667283" lon="14.857325"><ele>688.0</ele><time>2026-04-25T11:39:11.918Z</time></trkpt><trkpt lat="38.066825" lon="14.857195"><ele>688.0</ele><time>2026-04-25T11:39:12.919Z</time></trkpt><trkpt lat="38.0669117" lon="14.85705"><ele>688.0</ele><time>2026-04-25T11:39:13.919Z</time></trkpt><trkpt lat="38.0669817" lon="14.856905"><ele>692.0</ele><time>2026-04-25T11:39:14.919Z</time></trkpt><trkpt lat="38.06702" lon="14.85674"><ele>696.0</ele><time>2026-04-25T11:39:15.919Z</time></trkpt><trkpt lat="38.0670417" lon="14.8565583"><ele>700.0</ele><time>2026-04-25T11:39:16.918Z</time></trkpt><trkpt lat="38.067045" lon="14.8563633"><ele>704.0</ele><time>2026-04-25T11:39:17.919Z</time></trkpt><trkpt lat="38.06704" lon="14.8561783"><ele>704.0</ele><time>2026-04-25T11:39:18.919Z</time></trkpt><trkpt lat="38.0670167" lon="14.8560067"><ele>704.0</ele><time>2026-04-25T11:39:19.919Z</time></trkpt><trkpt lat="38.06699" lon="14.8558167"><ele>704.0</ele><time>2026-04-25T11:39:20.919Z</time></trkpt><trkpt lat="38.0669683" lon="14.8556317"><ele>704.0</ele><time>2026-04-25T11:39:21.919Z</time></trkpt><trkpt lat="38.0669667" lon="14.8554617"><ele>703.6</ele><time>2026-04-25T11:39:22.919Z</time></trkpt><trkpt lat="38.0669733" lon="14.85531"><ele>703.2</ele><time>2026-04-25T11:39:23.918Z</time></trkpt><trkpt lat="38.0669717" lon="14.855165"><ele>702.8000000000001</ele><time>2026-04-25T11:39:24.919Z</time></trkpt><trkpt lat="38.066955" lon="14.8550467"><ele>702.4000000000001</ele><time>2026-04-25T11:39:25.919Z</time></trkpt><trkpt lat="38.066905" lon="14.8549583"><ele>702.0</ele><time>2026-04-25T11:39:26.919Z</time></trkpt><trkpt lat="38.06683" lon="14.854905"><ele>702.0</ele><time>2026-04-25T11:39:27.918Z</time></trkpt><trkpt lat="38.0667483" lon="14.85485"><ele>702.0</ele><time>2026-04-25T11:39:28.918Z</time></trkpt><trkpt lat="38.0666767" lon="14.854785"><ele>702.0</ele><time>2026-04-25T11:39:29.919Z</time></trkpt><trkpt lat="38.06663" lon="14.8546983"><ele>702.0</ele><time>2026-04-25T11:39:30.919Z</time></trkpt><trkpt lat="38.0666117" lon="14.85459"><ele>702.0</ele><time>2026-04-25T11:39:31.919Z</time></trkpt><trkpt lat="38.0666017" lon="14.854475"><ele>702.0</ele><time>2026-04-25T11:39:32.918Z</time></trkpt><trkpt lat="38.0665783" lon="14.85437"><ele>709.3333333333334</ele><time>2026-04-25T11:39:33.919Z</time></trkpt><trkpt lat="38.0665367" lon="14.8542717"><ele>716.6666666666666</ele><time>2026-04-25T11:39:34.919Z</time></trkpt><trkpt lat="38.0664783" lon="14.8541817"><ele>724.0</ele><time>2026-04-25T11:39:35.919Z</time></trkpt><trkpt lat="38.066425" lon="14.8541033"><ele>731.3333333333333</ele><time>2026-04-25T11:39:36.918Z</time></trkpt><trkpt lat="38.0663933" lon="14.85403"><ele>738.6666666666666</ele><time>2026-04-25T11:39:37.918Z</time></trkpt><trkpt lat="38.0663867" lon="14.853945"><ele>746.0</ele><time>2026-04-25T11:39:38.919Z</time></trkpt><trkpt lat="38.06638" lon="14.85385"><ele>746.0</ele><time>2026-04-25T11:39:39.918Z</time></trkpt><trkpt lat="38.06637" lon="14.8537383"><ele>746.0</ele><time>2026-04-25T11:39:40.919Z</time></trkpt><trkpt lat="38.0663383" lon="14.8536117"><ele>746.0</ele><time>2026-04-25T11:39:41.919Z</time></trkpt><trkpt lat="38.0662917" lon="14.8534833"><ele>746.0</ele><time>2026-04-25T11:39:42.919Z</time></trkpt><trkpt lat="38.0662567" lon="14.8533483"><ele>746.0</ele><time>2026-04-25T11:39:43.919Z</time></trkpt><trkpt lat="38.0662533" lon="14.8532317"><ele>745.1666666666666</ele><time>2026-04-25T11:39:44.919Z</time></trkpt><trkpt lat="38.066265" lon="14.85312"><ele>744.3333333333333</ele><time>2026-04-25T11:39:45.919Z</time></trkpt><trkpt lat="38.0662917" lon="14.8530283"><ele>743.5</ele><time>2026-04-25T11:39:46.919Z</time></trkpt><trkpt lat="38.06634" lon="14.85296"><ele>742.6666666666666</ele><time>2026-04-25T11:39:47.919Z</time></trkpt><trkpt lat="38.0664217" lon="14.85293"><ele>741.8333333333334</ele><time>2026-04-25T11:39:48.919Z</time></trkpt><trkpt lat="38.0665183" lon="14.8529383"><ele>741.0</ele><time>2026-04-25T11:39:49.918Z</time></trkpt><trkpt lat="38.0666417" lon="14.8529667"><ele>729.75</ele><time>2026-04-25T11:39:50.918Z</time></trkpt><trkpt lat="38.0667933" lon="14.8530083"><ele>718.5</ele><time>2026-04-25T11:39:51.918Z</time></trkpt><trkpt lat="38.0669483" lon="14.853015"><ele>707.25</ele><time>2026-04-25T11:39:52.918Z</time></trkpt><trkpt lat="38.0670867" lon="14.853015"><ele>696.0</ele><time>2026-04-25T11:39:53.918Z</time></trkpt><trkpt lat="38.0672117" lon="14.8529883"><ele>696.0</ele><time>2026-04-25T11:39:54.919Z</time></trkpt><trkpt lat="38.06732" lon="14.8529267"><ele>696.0</ele><time>2026-04-25T11:39:55.919Z</time></trkpt><trkpt lat="38.0674133" lon="14.8528367"><ele>696.0</ele><time>2026-04-25T11:39:56.918Z</time></trkpt><trkpt lat="38.0675033" lon="14.8527433"><ele>696.0</ele><time>2026-04-25T11:39:57.919Z</time></trkpt><trkpt lat="38.0676083" lon="14.8526633"><ele>700.4</ele><time>2026-04-25T11:39:58.919Z</time></trkpt><trkpt lat="38.067715" lon="14.8526133"><ele>704.8</ele><time>2026-04-25T11:39:59.918Z</time></trkpt><trkpt lat="38.06782" lon="14.8525983"><ele>709.1999999999999</ele><time>2026-04-25T11:40:00.919Z</time></trkpt><trkpt lat="38.0679267" lon="14.852625"><ele>713.5999999999999</ele><time>2026-04-25T11:40:01.918Z</time></trkpt><trkpt lat="38.068025" lon="14.8526933"><ele>718.0</ele><time>2026-04-25T11:40:02.919Z</time></trkpt><trkpt lat="38.06813" lon="14.8527617"><ele>713.0</ele><time>2026-04-25T11:40:03.918Z</time></trkpt><trkpt lat="38.0682267" lon="14.8527983"><ele>708.0</ele><time>2026-04-25T11:40:04.919Z</time></trkpt><trkpt lat="38.0683183" lon="14.852795"><ele>703.0</ele><time>2026-04-25T11:40:05.918Z</time></trkpt><trkpt lat="38.0683883" lon="14.852755"><ele>698.0</ele><time>2026-04-25T11:40:06.919Z</time></trkpt><trkpt lat="38.0684533" lon="14.8526817"><ele>693.0</ele><time>2026-04-25T11:40:07.918Z</time></trkpt><trkpt lat="38.0685117" lon="14.85258"><ele>693.0</ele><time>2026-04-25T11:40:08.919Z</time></trkpt><trkpt lat="38.0685367" lon="14.85242"><ele>693.0</ele><time>2026-04-25T11:40:09.919Z</time></trkpt><trkpt lat="38.068505" lon="14.8522217"><ele>693.0</ele><time>2026-04-25T11:40:10.919Z</time></trkpt><trkpt lat="38.06849" lon="14.8520433"><ele>693.0</ele><time>2026-04-25T11:40:11.918Z</time></trkpt><trkpt lat="38.06849" lon="14.8518883"><ele>695.5</ele><time>2026-04-25T11:40:12.919Z</time></trkpt><trkpt lat="38.06851" lon="14.8517417"><ele>698.0</ele><time>2026-04-25T11:40:13.919Z</time></trkpt><trkpt lat="38.0685467" lon="14.8516033"><ele>700.5</ele><time>2026-04-25T11:40:14.919Z</time></trkpt><trkpt lat="38.06862" lon="14.851475"><ele>703.0</ele><time>2026-04-25T11:40:15.918Z</time></trkpt><trkpt lat="38.0687033" lon="14.851345"><ele>703.0</ele><time>2026-04-25T11:40:16.919Z</time></trkpt><trkpt lat="38.0687817" lon="14.8512083"><ele>703.0</ele><time>2026-04-25T11:40:17.918Z</time></trkpt><trkpt lat="38.06885" lon="14.8510617"><ele>703.0</ele><time>2026-04-25T11:40:18.918Z</time></trkpt><trkpt lat="38.0689233" lon="14.8509283"><ele>703.0</ele><time>2026-04-25T11:40:19.918Z</time></trkpt><trkpt lat="38.0690117" lon="14.8508217"><ele>698.0</ele><time>2026-04-25T11:40:20.919Z</time></trkpt><trkpt lat="38.0691133" lon="14.850735"><ele>693.0</ele><time>2026-04-25T11:40:21.919Z</time></trkpt><trkpt lat="38.0691983" lon="14.8506433"><ele>688.0</ele><time>2026-04-25T11:40:22.919Z</time></trkpt><trkpt lat="38.0692667" lon="14.8505267"><ele>683.0</ele><time>2026-04-25T11:40:23.919Z</time></trkpt><trkpt lat="38.0693283" lon="14.8504083"><ele>683.0</ele><time>2026-04-25T11:40:24.919Z</time></trkpt><trkpt lat="38.0693883" lon="14.8502933"><ele>683.0</ele><time>2026-04-25T11:40:25.919Z</time></trkpt><trkpt lat="38.0694433" lon="14.8501833"><ele>683.0</ele><time>2026-04-25T11:40:26.918Z</time></trkpt><trkpt lat="38.0695133" lon="14.8501017"><ele>683.0</ele><time>2026-04-25T11:40:27.919Z</time></trkpt><trkpt lat="38.0695833" lon="14.850045"><ele>683.0</ele><time>2026-04-25T11:40:28.919Z</time></trkpt><trkpt lat="38.0696667" lon="14.8500133"><ele>682.2</ele><time>2026-04-25T11:40:29.919Z</time></trkpt><trkpt lat="38.06975" lon="14.8499783"><ele>681.4</ele><time>2026-04-25T11:40:30.919Z</time></trkpt><trkpt lat="38.06984" lon="14.8499117"><ele>680.6</ele><time>2026-04-25T11:40:31.918Z</time></trkpt><trkpt lat="38.0699283" lon="14.849825"><ele>679.8000000000001</ele><time>2026-04-25T11:40:32.918Z</time></trkpt><trkpt lat="38.0700167" lon="14.8497267"><ele>679.0</ele><time>2026-04-25T11:40:33.918Z</time></trkpt><trkpt lat="38.0701033" lon="14.8496267"><ele>679.0</ele><time>2026-04-25T11:40:34.919Z</time></trkpt><trkpt lat="38.0701783" lon="14.8495167"><ele>679.0</ele><time>2026-04-25T11:40:35.919Z</time></trkpt><trkpt lat="38.0702367" lon="14.8493917"><ele>679.0</ele><time>2026-04-25T11:40:36.918Z</time></trkpt><trkpt lat="38.0702817" lon="14.8492633"><ele>679.0</ele><time>2026-04-25T11:40:37.919Z</time></trkpt><trkpt lat="38.0703267" lon="14.8491317"><ele>685.0</ele><time>2026-04-25T11:40:38.919Z</time></trkpt><trkpt lat="38.0703817" lon="14.8490217"><ele>691.0</ele><time>2026-04-25T11:40:39.919Z</time></trkpt><trkpt lat="38.0704517" lon="14.8489217"><ele>697.0</ele><time>2026-04-25T11:40:40.918Z</time></trkpt><trkpt lat="38.0705167" lon="14.8488133"><ele>703.0</ele><time>2026-04-25T11:40:41.919Z</time></trkpt><trkpt lat="38.0705583" lon="14.8486783"><ele>709.0</ele><time>2026-04-25T11:40:42.918Z</time></trkpt><trkpt lat="38.0705933" lon="14.8485217"><ele>715.75</ele><time>2026-04-25T11:40:43.918Z</time></trkpt><trkpt lat="38.07062" lon="14.8483717"><ele>722.5</ele><time>2026-04-25T11:40:44.919Z</time></trkpt><trkpt lat="38.0706483" lon="14.84821"><ele>729.25</ele><time>2026-04-25T11:40:45.918Z</time></trkpt><trkpt lat="38.07066" lon="14.84805"><ele>736.0</ele><time>2026-04-25T11:40:46.919Z</time></trkpt><trkpt lat="38.0706717" lon="14.8478917"><ele>736.0</ele><time>2026-04-25T11:40:47.919Z</time></trkpt><trkpt lat="38.0706883" lon="14.8477567"><ele>736.0</ele><time>2026-04-25T11:40:48.919Z</time></trkpt><trkpt lat="38.0707283" lon="14.847625"><ele>736.0</ele><time>2026-04-25T11:40:49.918Z</time></trkpt><trkpt lat="38.0707783" lon="14.84752"><ele>736.0</ele><time>2026-04-25T11:40:50.919Z</time></trkpt><trkpt lat="38.0708367" lon="14.847415"><ele>736.0</ele><time>2026-04-25T11:40:51.918Z</time></trkpt><trkpt lat="38.070875" lon="14.8472983"><ele>724.0</ele><time>2026-04-25T11:40:52.919Z</time></trkpt><trkpt lat="38.070885" lon="14.8471617"><ele>712.0</ele><time>2026-04-25T11:40:53.919Z</time></trkpt><trkpt lat="38.070885" lon="14.847015"><ele>700.0</ele><time>2026-04-25T11:40:54.918Z</time></trkpt><trkpt lat="38.07087" lon="14.846855"><ele>688.0</ele><time>2026-04-25T11:40:55.919Z</time></trkpt><trkpt lat="38.0708483" lon="14.8466833"><ele>688.0</ele><time>2026-04-25T11:40:56.918Z</time></trkpt><trkpt lat="38.0708283" lon="14.8465083"><ele>688.0</ele><time>2026-04-25T11:40:57.918Z</time></trkpt><trkpt lat="38.0708" lon="14.84634"><ele>688.0</ele><time>2026-04-25T11:40:58.919Z</time></trkpt><trkpt lat="38.0707817" lon="14.8461833"><ele>688.0</ele><time>2026-04-25T11:40:59.919Z</time></trkpt><trkpt lat="38.07077" lon="14.8460417"><ele>700.4</ele><time>2026-04-25T11:41:00.919Z</time></trkpt><trkpt lat="38.0707417" lon="14.84591"><ele>712.8</ele><time>2026-04-25T11:41:01.918Z</time></trkpt><trkpt lat="38.0707" lon="14.845795"><ele>725.2</ele><time>2026-04-25T11:41:02.919Z</time></trkpt><trkpt lat="38.0706317" lon="14.84569"><ele>737.6</ele><time>2026-04-25T11:41:03.918Z</time></trkpt><trkpt lat="38.07055" lon="14.8455983"><ele>750.0</ele><time>2026-04-25T11:41:04.919Z</time></trkpt><trkpt lat="38.0704833" lon="14.84551"><ele>750.0</ele><time>2026-04-25T11:41:05.919Z</time></trkpt><trkpt lat="38.07044" lon="14.8454067"><ele>750.0</ele><time>2026-04-25T11:41:06.919Z</time></trkpt><trkpt lat="38.0704217" lon="14.8452983"><ele>750.0</ele><time>2026-04-25T11:41:07.918Z</time></trkpt><trkpt lat="38.0704317" lon="14.8451917"><ele>750.0</ele><time>2026-04-25T11:41:08.919Z</time></trkpt><trkpt lat="38.0704533" lon="14.84507"><ele>750.0</ele><time>2026-04-25T11:41:09.918Z</time></trkpt><trkpt lat="38.0704717" lon="14.8449533"><ele>744.0</ele><time>2026-04-25T11:41:10.918Z</time></trkpt><trkpt lat="38.0704467" lon="14.8448333"><ele>738.0</ele><time>2026-04-25T11:41:11.919Z</time></trkpt><trkpt lat="38.0703967" lon="14.8447333"><ele>732.0</ele><time>2026-04-25T11:41:12.918Z</time></trkpt><trkpt lat="38.0703167" lon="14.8446733"><ele>726.0</ele><time>2026-04-25T11:41:13.919Z</time></trkpt><trkpt lat="38.0702183" lon="14.844615"><ele>720.0</ele><time>2026-04-25T11:41:14.918Z</time></trkpt><trkpt lat="38.0701183" lon="14.844555"><ele>720.0</ele><time>2026-04-25T11:41:15.919Z</time></trkpt><trkpt lat="38.0700283" lon="14.8445033"><ele>720.0</ele><time>2026-04-25T11:41:16.918Z</time></trkpt><trkpt lat="38.069955" lon="14.8444483"><ele>720.0</ele><time>2026-04-25T11:41:17.918Z</time></trkpt><trkpt lat="38.0698867" lon="14.8443717"><ele>720.0</ele><time>2026-04-25T11:41:18.919Z</time></trkpt><trkpt lat="38.0698333" lon="14.8442783"><ele>720.0</ele><time>2026-04-25T11:41:19.919Z</time></trkpt><trkpt lat="38.0698" lon="14.8441717"><ele>716.0</ele><time>2026-04-25T11:41:20.918Z</time></trkpt><trkpt lat="38.0697933" lon="14.8440483"><ele>712.0</ele><time>2026-04-25T11:41:21.918Z</time></trkpt><trkpt lat="38.0697983" lon="14.843935"><ele>708.0</ele><time>2026-04-25T11:41:22.919Z</time></trkpt><trkpt lat="38.069815" lon="14.8438417"><ele>704.0</ele><time>2026-04-25T11:41:23.918Z</time></trkpt><trkpt lat="38.0698667" lon="14.843775"><ele>700.0</ele><time>2026-04-25T11:41:24.919Z</time></trkpt><trkpt lat="38.0699417" lon="14.8437233"><ele>696.0</ele><time>2026-04-25T11:41:25.919Z</time></trkpt><trkpt lat="38.0700283" lon="14.8436783"><ele>696.0</ele><time>2026-04-25T11:41:26.919Z</time></trkpt><trkpt lat="38.07012" lon="14.8436167"><ele>696.0</ele><time>2026-04-25T11:41:27.918Z</time></trkpt><trkpt lat="38.0702033" lon="14.84353"><ele>696.0</ele><time>2026-04-25T11:41:28.919Z</time></trkpt><trkpt lat="38.0702883" lon="14.8434333"><ele>696.0</ele><time>2026-04-25T11:41:29.919Z</time></trkpt><trkpt lat="38.0703767" lon="14.8433383"><ele>696.0</ele><time>2026-04-25T11:41:30.919Z</time></trkpt><trkpt lat="38.0704633" lon="14.8432383"><ele>698.8</ele><time>2026-04-25T11:41:31.919Z</time></trkpt><trkpt lat="38.0705483" lon="14.84313"><ele>701.5999999999999</ele><time>2026-04-25T11:41:32.918Z</time></trkpt><trkpt lat="38.0706217" lon="14.8430383"><ele>704.4</ele><time>2026-04-25T11:41:33.919Z</time></trkpt><trkpt lat="38.0707033" lon="14.842985"><ele>707.2</ele><time>2026-04-25T11:41:34.918Z</time></trkpt><trkpt lat="38.0707867" lon="14.8429767"><ele>710.0</ele><time>2026-04-25T11:41:35.919Z</time></trkpt><trkpt lat="38.0708833" lon="14.842985"><ele>702.75</ele><time>2026-04-25T11:41:36.919Z</time></trkpt><trkpt lat="38.070995" lon="14.8430183"><ele>695.5</ele><time>2026-04-25T11:41:37.919Z</time></trkpt><trkpt lat="38.0711233" lon="14.8430717"><ele>688.25</ele><time>2026-04-25T11:41:38.919Z</time></trkpt><trkpt lat="38.0712533" lon="14.84311"><ele>681.0</ele><time>2026-04-25T11:41:39.918Z</time></trkpt><trkpt lat="38.071375" lon="14.84317"><ele>681.0</ele><time>2026-04-25T11:41:40.919Z</time></trkpt><trkpt lat="38.0714817" lon="14.8431967"><ele>681.0</ele><time>2026-04-25T11:41:41.918Z</time></trkpt><trkpt lat="38.07158" lon="14.8432067"><ele>681.0</ele><time>2026-04-25T11:41:42.919Z</time></trkpt><trkpt lat="38.0716583" lon="14.8431833"><ele>681.0</ele><time>2026-04-25T11:41:43.918Z</time></trkpt><trkpt lat="38.0717317" lon="14.8431033"><ele>681.0</ele><time>2026-04-25T11:41:44.919Z</time></trkpt><trkpt lat="38.0717983" lon="14.8429983"><ele>679.0</ele><time>2026-04-25T11:41:45.919Z</time></trkpt><trkpt lat="38.0718767" lon="14.84289"><ele>677.0</ele><time>2026-04-25T11:41:46.919Z</time></trkpt><trkpt lat="38.0719683" lon="14.8427717"><ele>675.0</ele><time>2026-04-25T11:41:47.918Z</time></trkpt><trkpt lat="38.0720683" lon="14.842685"><ele>673.0</ele><time>2026-04-25T11:41:48.919Z</time></trkpt><trkpt lat="38.072165" lon="14.8426083"><ele>673.2</ele><time>2026-04-25T11:41:49.919Z</time></trkpt><trkpt lat="38.07227" lon="14.8425517"><ele>673.4</ele><time>2026-04-25T11:41:50.918Z</time></trkpt><trkpt lat="38.0723633" lon="14.84247"><ele>673.6</ele><time>2026-04-25T11:41:51.919Z</time></trkpt><trkpt lat="38.0724367" lon="14.8423733"><ele>673.8000000000001</ele><time>2026-04-25T11:41:52.918Z</time></trkpt><trkpt lat="38.072475" lon="14.84225"><ele>674.0</ele><time>2026-04-25T11:41:53.918Z</time></trkpt><trkpt lat="38.0724883" lon="14.842095"><ele>674.0</ele><time>2026-04-25T11:41:54.918Z</time></trkpt><trkpt lat="38.0724683" lon="14.8419183"><ele>674.0</ele><time>2026-04-25T11:41:55.919Z</time></trkpt><trkpt lat="38.07242" lon="14.841725"><ele>674.0</ele><time>2026-04-25T11:41:56.919Z</time></trkpt><trkpt lat="38.0723817" lon="14.8415217"><ele>687.6666666666666</ele><time>2026-04-25T11:41:57.919Z</time></trkpt><trkpt lat="38.07234" lon="14.84133"><ele>701.3333333333334</ele><time>2026-04-25T11:41:58.918Z</time></trkpt><trkpt lat="38.0723" lon="14.84114"><ele>715.0</ele><time>2026-04-25T11:41:59.919Z</time></trkpt><trkpt lat="38.0722517" lon="14.8409633"><ele>715.5</ele><time>2026-04-25T11:42:00.919Z</time></trkpt><trkpt lat="38.0721817" lon="14.8407883"><ele>716.0</ele><time>2026-04-25T11:42:01.919Z</time></trkpt><trkpt lat="38.0721067" lon="14.8406283"><ele>716.5</ele><time>2026-04-25T11:42:02.918Z</time></trkpt><trkpt lat="38.072035" lon="14.8404683"><ele>717.0</ele><time>2026-04-25T11:42:03.918Z</time></trkpt><trkpt lat="38.07198" lon="14.84031"><ele>717.0</ele><time>2026-04-25T11:42:04.918Z</time></trkpt><trkpt lat="38.0719433" lon="14.840145"><ele>717.0</ele><time>2026-04-25T11:42:05.919Z</time></trkpt><trkpt lat="38.0719333" lon="14.8399717"><ele>717.0</ele><time>2026-04-25T11:42:06.919Z</time></trkpt><trkpt lat="38.07195" lon="14.8398067"><ele>717.0</ele><time>2026-04-25T11:42:07.918Z</time></trkpt><trkpt lat="38.0719833" lon="14.8396867"><ele>716.2</ele><time>2026-04-25T11:42:08.918Z</time></trkpt><trkpt lat="38.0720467" lon="14.8396017"><ele>715.4000000000001</ele><time>2026-04-25T11:42:09.919Z</time></trkpt><trkpt lat="38.0721283" lon="14.839535"><ele>714.5999999999999</ele><time>2026-04-25T11:42:10.919Z</time></trkpt><trkpt lat="38.0722333" lon="14.8394667"><ele>713.8</ele><time>2026-04-25T11:42:11.918Z</time></trkpt><trkpt lat="38.0723467" lon="14.8393717"><ele>713.0</ele><time>2026-04-25T11:42:12.919Z</time></trkpt><trkpt lat="38.0724683" lon="14.8392767"><ele>704.75</ele><time>2026-04-25T11:42:13.918Z</time></trkpt><trkpt lat="38.0725867" lon="14.8391683"><ele>696.5</ele><time>2026-04-25T11:42:14.918Z</time></trkpt><trkpt lat="38.0727" lon="14.8390567"><ele>688.25</ele><time>2026-04-25T11:42:15.918Z</time></trkpt><trkpt lat="38.0727883" lon="14.83892"><ele>680.0</ele><time>2026-04-25T11:42:16.918Z</time></trkpt><trkpt lat="38.072855" lon="14.8387667"><ele>680.0</ele><time>2026-04-25T11:42:17.919Z</time></trkpt><trkpt lat="38.0729017" lon="14.8386033"><ele>680.0</ele><time>2026-04-25T11:42:18.918Z</time></trkpt><trkpt lat="38.0729267" lon="14.8384283"><ele>680.0</ele><time>2026-04-25T11:42:19.918Z</time></trkpt><trkpt lat="38.0729283" lon="14.8382533"><ele>680.0</ele><time>2026-04-25T11:42:20.919Z</time></trkpt><trkpt lat="38.0729167" lon="14.8380817"><ele>685.5</ele><time>2026-04-25T11:42:21.919Z</time></trkpt><trkpt lat="38.07289" lon="14.837905"><ele>691.0</ele><time>2026-04-25T11:42:22.919Z</time></trkpt><trkpt lat="38.0728617" lon="14.837715"><ele>696.5</ele><time>2026-04-25T11:42:23.919Z</time></trkpt><trkpt lat="38.0728267" lon="14.837525"><ele>702.0</ele><time>2026-04-25T11:42:24.919Z</time></trkpt><trkpt lat="38.0728217" lon="14.8373367"><ele>702.25</ele><time>2026-04-25T11:42:25.918Z</time></trkpt><trkpt lat="38.0728333" lon="14.8371533"><ele>702.5</ele><time>2026-04-25T11:42:26.918Z</time></trkpt><trkpt lat="38.072855" lon="14.8369883"><ele>702.75</ele><time>2026-04-25T11:42:27.919Z</time></trkpt><trkpt lat="38.072885" lon="14.8368283"><ele>703.0</ele><time>2026-04-25T11:42:28.919Z</time></trkpt><trkpt lat="38.0729283" lon="14.83668"><ele>703.8</ele><time>2026-04-25T11:42:29.919Z</time></trkpt><trkpt lat="38.0729833" lon="14.8365483"><ele>704.5999999999999</ele><time>2026-04-25T11:42:30.919Z</time></trkpt><trkpt lat="38.0730483" lon="14.836445"><ele>705.4000000000001</ele><time>2026-04-25T11:42:31.919Z</time></trkpt><trkpt lat="38.073125" lon="14.8363633"><ele>706.2</ele><time>2026-04-25T11:42:32.918Z</time></trkpt><trkpt lat="38.0732283" lon="14.8363067"><ele>707.0</ele><time>2026-04-25T11:42:33.919Z</time></trkpt><trkpt lat="38.073345" lon="14.836265"><ele>698.5</ele><time>2026-04-25T11:42:34.918Z</time></trkpt><trkpt lat="38.073475" lon="14.836235"><ele>690.0</ele><time>2026-04-25T11:42:35.919Z</time></trkpt><trkpt lat="38.0736133" lon="14.8361933"><ele>681.5</ele><time>2026-04-25T11:42:36.918Z</time></trkpt><trkpt lat="38.0737467" lon="14.8361433"><ele>673.0</ele><time>2026-04-25T11:42:37.918Z</time></trkpt><trkpt lat="38.07389" lon="14.8360883"><ele>673.0</ele><time>2026-04-25T11:42:38.918Z</time></trkpt><trkpt lat="38.0740283" lon="14.8360333"><ele>673.0</ele><time>2026-04-25T11:42:39.918Z</time></trkpt><trkpt lat="38.0741567" lon="14.8359817"><ele>673.0</ele><time>2026-04-25T11:42:40.919Z</time></trkpt><trkpt lat="38.0742733" lon="14.835925"><ele>673.0</ele><time>2026-04-25T11:42:41.919Z</time></trkpt><trkpt lat="38.0743717" lon="14.8358633"><ele>675.0</ele><time>2026-04-25T11:42:42.919Z</time></trkpt><trkpt lat="38.074465" lon="14.8357633"><ele>677.0</ele><time>2026-04-25T11:42:43.918Z</time></trkpt><trkpt lat="38.0745433" lon="14.8356383"><ele>679.0</ele><time>2026-04-25T11:42:44.919Z</time></trkpt><trkpt lat="38.074615" lon="14.8354817"><ele>681.0</ele><time>2026-04-25T11:42:45.919Z</time></trkpt><trkpt lat="38.0746833" lon="14.83531"><ele>681.0</ele><time>2026-04-25T11:42:46.919Z</time></trkpt><trkpt lat="38.07472" lon="14.8351383"><ele>681.0</ele><time>2026-04-25T11:42:47.919Z</time></trkpt><trkpt lat="38.0747533" lon="14.834965"><ele>681.0</ele><time>2026-04-25T11:42:48.918Z</time></trkpt><trkpt lat="38.0747933" lon="14.8348"><ele>681.0</ele><time>2026-04-25T11:42:49.918Z</time></trkpt><trkpt lat="38.0748233" lon="14.8346483"><ele>682.5999999999999</ele><time>2026-04-25T11:42:50.918Z</time></trkpt><trkpt lat="38.074855" lon="14.834505"><ele>684.2</ele><time>2026-04-25T11:42:51.918Z</time></trkpt><trkpt lat="38.0749" lon="14.83436"><ele>685.8</ele><time>2026-04-25T11:42:52.919Z</time></trkpt><trkpt lat="38.0749533" lon="14.83424"><ele>687.4000000000001</ele><time>2026-04-25T11:42:53.918Z</time></trkpt><trkpt lat="38.0750117" lon="14.8341683"><ele>689.0</ele><time>2026-04-25T11:42:54.918Z</time></trkpt><trkpt lat="38.0751017" lon="14.834125"><ele>689.0</ele><time>2026-04-25T11:42:55.919Z</time></trkpt><trkpt lat="38.0751933" lon="14.83413"><ele>689.0</ele><time>2026-04-25T11:42:56.918Z</time></trkpt><trkpt lat="38.07529" lon="14.8341617"><ele>689.0</ele><time>2026-04-25T11:42:57.918Z</time></trkpt><trkpt lat="38.0754083" lon="14.8342183"><ele>689.0</ele><time>2026-04-25T11:42:58.919Z</time></trkpt><trkpt lat="38.0755267" lon="14.83426"><ele>689.0</ele><time>2026-04-25T11:42:59.919Z</time></trkpt><trkpt lat="38.0756367" lon="14.8342817"><ele>684.3333333333333</ele><time>2026-04-25T11:43:00.919Z</time></trkpt><trkpt lat="38.0757333" lon="14.8343067"><ele>679.6666666666666</ele><time>2026-04-25T11:43:01.919Z</time></trkpt><trkpt lat="38.0758183" lon="14.8343383"><ele>675.0</ele><time>2026-04-25T11:43:02.919Z</time></trkpt><trkpt lat="38.0758783" lon="14.8344083"><ele>670.3333333333334</ele><time>2026-04-25T11:43:03.918Z</time></trkpt><trkpt lat="38.0759217" lon="14.83449"><ele>665.6666666666667</ele><time>2026-04-25T11:43:04.919Z</time></trkpt><trkpt lat="38.075965" lon="14.834595"><ele>661.0</ele><time>2026-04-25T11:43:05.919Z</time></trkpt><trkpt lat="38.0760133" lon="14.83469"><ele>660.0</ele><time>2026-04-25T11:43:06.918Z</time></trkpt><trkpt lat="38.0760733" lon="14.834765"><ele>659.0</ele><time>2026-04-25T11:43:07.918Z</time></trkpt><trkpt lat="38.076145" lon="14.83481"><ele>658.0</ele><time>2026-04-25T11:43:08.918Z</time></trkpt><trkpt lat="38.0762433" lon="14.83482"><ele>657.0</ele><time>2026-04-25T11:43:09.919Z</time></trkpt><trkpt lat="38.07635" lon="14.83481"><ele>656.0</ele><time>2026-04-25T11:43:10.918Z</time></trkpt><trkpt lat="38.0764733" lon="14.83479"><ele>656.0</ele><time>2026-04-25T11:43:11.918Z</time></trkpt><trkpt lat="38.0765883" lon="14.8347683"><ele>656.0</ele><time>2026-04-25T11:43:12.919Z</time></trkpt><trkpt lat="38.0767" lon="14.83473"><ele>656.0</ele><time>2026-04-25T11:43:13.919Z</time></trkpt><trkpt lat="38.0768067" lon="14.834665"><ele>656.0</ele><time>2026-04-25T11:43:14.919Z</time></trkpt><trkpt lat="38.0769017" lon="14.834585"><ele>657.0</ele><time>2026-04-25T11:43:15.919Z</time></trkpt><trkpt lat="38.0770017" lon="14.8344983"><ele>658.0</ele><time>2026-04-25T11:43:16.918Z</time></trkpt><trkpt lat="38.0770867" lon="14.8343917"><ele>659.0</ele><time>2026-04-25T11:43:17.918Z</time></trkpt><trkpt lat="38.0771667" lon="14.8342767"><ele>660.0</ele><time>2026-04-25T11:43:18.919Z</time></trkpt><trkpt lat="38.0772467" lon="14.8341583"><ele>660.25</ele><time>2026-04-25T11:43:19.919Z</time></trkpt><trkpt lat="38.0773333" lon="14.8340317"><ele>660.5</ele><time>2026-04-25T11:43:20.918Z</time></trkpt><trkpt lat="38.077415" lon="14.8338933"><ele>660.75</ele><time>2026-04-25T11:43:21.919Z</time></trkpt><trkpt lat="38.0774817" lon="14.8337433"><ele>661.0</ele><time>2026-04-25T11:43:22.919Z</time></trkpt><trkpt lat="38.077565" lon="14.8335833"><ele>669.6666666666667</ele><time>2026-04-25T11:43:23.919Z</time></trkpt><trkpt lat="38.0776317" lon="14.833415"><ele>678.3333333333334</ele><time>2026-04-25T11:43:24.919Z</time></trkpt><trkpt lat="38.077705" lon="14.8332367"><ele>687.0</ele><time>2026-04-25T11:43:25.918Z</time></trkpt><trkpt lat="38.07778" lon="14.8330733"><ele>687.0</ele><time>2026-04-25T11:43:26.918Z</time></trkpt><trkpt lat="38.077855" lon="14.8329167"><ele>687.0</ele><time>2026-04-25T11:43:27.919Z</time></trkpt><trkpt lat="38.0779217" lon="14.8327567"><ele>687.0</ele><time>2026-04-25T11:43:28.919Z</time></trkpt><trkpt lat="38.0779917" lon="14.83261"><ele>687.0</ele><time>2026-04-25T11:43:29.918Z</time></trkpt><trkpt lat="38.0780733" lon="14.8324883"><ele>681.0</ele><time>2026-04-25T11:43:30.919Z</time></trkpt><trkpt lat="38.0781733" lon="14.8323917"><ele>675.0</ele><time>2026-04-25T11:43:31.919Z</time></trkpt><trkpt lat="38.0782783" lon="14.8323167"><ele>669.0</ele><time>2026-04-25T11:43:32.918Z</time></trkpt><trkpt lat="38.0783867" lon="14.83223"><ele>663.0</ele><time>2026-04-25T11:43:33.918Z</time></trkpt><trkpt lat="38.078465" lon="14.8321367"><ele>663.0</ele><time>2026-04-25T11:43:34.918Z</time></trkpt><trkpt lat="38.07854" lon="14.8320283"><ele>663.0</ele><time>2026-04-25T11:43:35.918Z</time></trkpt><trkpt lat="38.0785833" lon="14.8318917"><ele>663.0</ele><time>2026-04-25T11:43:36.919Z</time></trkpt><trkpt lat="38.07861" lon="14.8317417"><ele>663.0</ele><time>2026-04-25T11:43:37.919Z</time></trkpt><trkpt lat="38.0786283" lon="14.8315883"><ele>667.75</ele><time>2026-04-25T11:43:38.919Z</time></trkpt><trkpt lat="38.07866" lon="14.8314233"><ele>672.5</ele><time>2026-04-25T11:43:39.918Z</time></trkpt><trkpt lat="38.078685" lon="14.8312483"><ele>677.25</ele><time>2026-04-25T11:43:40.919Z</time></trkpt><trkpt lat="38.078715" lon="14.8310867"><ele>682.0</ele><time>2026-04-25T11:43:41.919Z</time></trkpt><trkpt lat="38.0787417" lon="14.8309383"><ele>686.75</ele><time>2026-04-25T11:43:42.919Z</time></trkpt><trkpt lat="38.078755" lon="14.8307783"><ele>691.5</ele><time>2026-04-25T11:43:43.919Z</time></trkpt><trkpt lat="38.0787933" lon="14.83064"><ele>696.25</ele><time>2026-04-25T11:43:44.918Z</time></trkpt><trkpt lat="38.0788333" lon="14.83051"><ele>701.0</ele><time>2026-04-25T11:43:45.918Z</time></trkpt><trkpt lat="38.0789083" lon="14.8303733"><ele>701.0</ele><time>2026-04-25T11:43:46.919Z</time></trkpt><trkpt lat="38.0790033" lon="14.830255"><ele>701.0</ele><time>2026-04-25T11:43:47.919Z</time></trkpt><trkpt lat="38.0791117" lon="14.83015"><ele>701.0</ele><time>2026-04-25T11:43:48.919Z</time></trkpt><trkpt lat="38.0792117" lon="14.8300467"><ele>701.0</ele><time>2026-04-25T11:43:49.919Z</time></trkpt><trkpt lat="38.079295" lon="14.829935"><ele>695.1999999999999</ele><time>2026-04-25T11:43:50.918Z</time></trkpt><trkpt lat="38.0793533" lon="14.829825"><ele>689.4</ele><time>2026-04-25T11:43:51.918Z</time></trkpt><trkpt lat="38.0794067" lon="14.829705"><ele>683.6</ele><time>2026-04-25T11:43:52.919Z</time></trkpt><trkpt lat="38.0794433" lon="14.82958"><ele>677.8</ele><time>2026-04-25T11:43:53.919Z</time></trkpt><trkpt lat="38.0794883" lon="14.8294717"><ele>672.0</ele><time>2026-04-25T11:43:54.919Z</time></trkpt><trkpt lat="38.0795583" lon="14.8294117"><ele>672.0</ele><time>2026-04-25T11:43:55.919Z</time></trkpt><trkpt lat="38.07963" lon="14.8293617"><ele>672.0</ele><time>2026-04-25T11:43:56.918Z</time></trkpt><trkpt lat="38.0797117" lon="14.8293517"><ele>672.0</ele><time>2026-04-25T11:43:57.918Z</time></trkpt><trkpt lat="38.07981" lon="14.829375"><ele>672.0</ele><time>2026-04-25T11:43:58.919Z</time></trkpt><trkpt lat="38.0799083" lon="14.829415"><ele>672.0</ele><time>2026-04-25T11:43:59.918Z</time></trkpt><trkpt lat="38.080005" lon="14.8294583"><ele>672.1666666666666</ele><time>2026-04-25T11:44:00.919Z</time></trkpt><trkpt lat="38.080095" lon="14.8295017"><ele>672.3333333333334</ele><time>2026-04-25T11:44:01.919Z</time></trkpt><trkpt lat="38.0801817" lon="14.8295283"><ele>672.5</ele><time>2026-04-25T11:44:02.918Z</time></trkpt><trkpt lat="38.0802667" lon="14.8295217"><ele>672.6666666666667</ele><time>2026-04-25T11:44:03.919Z</time></trkpt><trkpt lat="38.080345" lon="14.8294867"><ele>672.8333333333334</ele><time>2026-04-25T11:44:04.918Z</time></trkpt><trkpt lat="38.0804117" lon="14.829405"><ele>673.0</ele><time>2026-04-25T11:44:05.919Z</time></trkpt><trkpt lat="38.08047" lon="14.82929"><ele>673.0</ele><time>2026-04-25T11:44:06.918Z</time></trkpt><trkpt lat="38.0805167" lon="14.8291433"><ele>673.0</ele><time>2026-04-25T11:44:07.918Z</time></trkpt><trkpt lat="38.080565" lon="14.8289717"><ele>673.0</ele><time>2026-04-25T11:44:08.919Z</time></trkpt><trkpt lat="38.0806467" lon="14.828775"><ele>673.0</ele><time>2026-04-25T11:44:09.919Z</time></trkpt><trkpt lat="38.0807433" lon="14.8285867"><ele>670.6666666666667</ele><time>2026-04-25T11:44:10.918Z</time></trkpt><trkpt lat="38.0808567" lon="14.828415"><ele>668.3333333333334</ele><time>2026-04-25T11:44:11.919Z</time></trkpt><trkpt lat="38.0809567" lon="14.8282483"><ele>666.0</ele><time>2026-04-25T11:44:12.918Z</time></trkpt><trkpt lat="38.081045" lon="14.8280867"><ele>666.0</ele><time>2026-04-25T11:44:13.919Z</time></trkpt><trkpt lat="38.0811217" lon="14.8279183"><ele>666.0</ele><time>2026-04-25T11:44:14.918Z</time></trkpt><trkpt lat="38.08117" lon="14.827745"><ele>666.0</ele><time>2026-04-25T11:44:15.919Z</time></trkpt><trkpt lat="38.0812133" lon="14.8275633"><ele>666.0</ele><time>2026-04-25T11:44:16.918Z</time></trkpt><trkpt lat="38.0812633" lon="14.8273817"><ele>671.3333333333334</ele><time>2026-04-25T11:44:17.918Z</time></trkpt><trkpt lat="38.0813017" lon="14.8272067"><ele>676.6666666666667</ele><time>2026-04-25T11:44:18.918Z</time></trkpt><trkpt lat="38.0813383" lon="14.82702"><ele>682.0</ele><time>2026-04-25T11:44:19.919Z</time></trkpt><trkpt lat="38.08137" lon="14.8268267"><ele>684.0</ele><time>2026-04-25T11:44:20.918Z</time></trkpt><trkpt lat="38.0814017" lon="14.82664"><ele>686.0</ele><time>2026-04-25T11:44:21.919Z</time></trkpt><trkpt lat="38.081435" lon="14.8264533"><ele>688.0</ele><time>2026-04-25T11:44:22.918Z</time></trkpt><trkpt lat="38.0814667" lon="14.8262683"><ele>688.0</ele><time>2026-04-25T11:44:23.919Z</time></trkpt><trkpt lat="38.0814917" lon="14.8261017"><ele>688.0</ele><time>2026-04-25T11:44:24.918Z</time></trkpt><trkpt lat="38.081525" lon="14.8259683"><ele>688.0</ele><time>2026-04-25T11:44:25.918Z</time></trkpt><trkpt lat="38.081565" lon="14.8258617"><ele>688.0</ele><time>2026-04-25T11:44:26.918Z</time></trkpt><trkpt lat="38.0816283" lon="14.825785"><ele>688.0</ele><time>2026-04-25T11:44:27.919Z</time></trkpt><trkpt lat="38.0817033" lon="14.8257367"><ele>684.8</ele><time>2026-04-25T11:44:28.919Z</time></trkpt><trkpt lat="38.0817933" lon="14.8257317"><ele>681.5999999999999</ele><time>2026-04-25T11:44:29.918Z</time></trkpt><trkpt lat="38.0818833" lon="14.8257217"><ele>678.4000000000001</ele><time>2026-04-25T11:44:30.918Z</time></trkpt><trkpt lat="38.0819767" lon="14.825715"><ele>675.2</ele><time>2026-04-25T11:44:31.918Z</time></trkpt><trkpt lat="38.0820683" lon="14.82567"><ele>672.0</ele><time>2026-04-25T11:44:32.919Z</time></trkpt><trkpt lat="38.082145" lon="14.8255883"><ele>672.0</ele><time>2026-04-25T11:44:33.919Z</time></trkpt><trkpt lat="38.082195" lon="14.8254917"><ele>672.0</ele><time>2026-04-25T11:44:34.919Z</time></trkpt><trkpt lat="38.08223" lon="14.8253733"><ele>672.0</ele><time>2026-04-25T11:44:35.918Z</time></trkpt><trkpt lat="38.0822433" lon="14.825255"><ele>672.0</ele><time>2026-04-25T11:44:36.918Z</time></trkpt><trkpt lat="38.0822133" lon="14.8251267"><ele>672.0</ele><time>2026-04-25T11:44:37.918Z</time></trkpt><trkpt lat="38.0821917" lon="14.825"><ele>668.4000000000001</ele><time>2026-04-25T11:44:38.918Z</time></trkpt><trkpt lat="38.0821917" lon="14.8248783"><ele>664.8000000000001</ele><time>2026-04-25T11:44:39.919Z</time></trkpt><trkpt lat="38.08222" lon="14.8247483"><ele>661.2</ele><time>2026-04-25T11:44:40.919Z</time></trkpt><trkpt lat="38.0822867" lon="14.82464"><ele>657.6</ele><time>2026-04-25T11:44:41.918Z</time></trkpt><trkpt lat="38.082375" lon="14.8245567"><ele>654.0</ele><time>2026-04-25T11:44:42.918Z</time></trkpt><trkpt lat="38.0824733" lon="14.824485"><ele>654.0</ele><time>2026-04-25T11:44:43.918Z</time></trkpt><trkpt lat="38.0825717" lon="14.8244217"><ele>654.0</ele><time>2026-04-25T11:44:44.918Z</time></trkpt><trkpt lat="38.08266" lon="14.8243517"><ele>654.0</ele><time>2026-04-25T11:44:45.918Z</time></trkpt><trkpt lat="38.0827267" lon="14.8242617"><ele>654.0</ele><time>2026-04-25T11:44:46.918Z</time></trkpt><trkpt lat="38.0827583" lon="14.824145"><ele>654.0</ele><time>2026-04-25T11:44:47.918Z</time></trkpt><trkpt lat="38.0827933" lon="14.82401"><ele>660.5</ele><time>2026-04-25T11:44:48.918Z</time></trkpt><trkpt lat="38.08283" lon="14.823865"><ele>667.0</ele><time>2026-04-25T11:44:49.917Z</time></trkpt><trkpt lat="38.0828783" lon="14.8237267"><ele>673.5</ele><time>2026-04-25T11:44:50.918Z</time></trkpt><trkpt lat="38.082945" lon="14.8235967"><ele>680.0</ele><time>2026-04-25T11:44:51.917Z</time></trkpt><trkpt lat="38.0830067" lon="14.82348"><ele>682.6</ele><time>2026-04-25T11:44:52.917Z</time></trkpt><trkpt lat="38.083055" lon="14.8233617"><ele>685.2</ele><time>2026-04-25T11:44:53.918Z</time></trkpt><trkpt lat="38.083085" lon="14.8232367"><ele>687.8</ele><time>2026-04-25T11:44:54.918Z</time></trkpt><trkpt lat="38.0830917" lon="14.8231067"><ele>690.4</ele><time>2026-04-25T11:44:55.918Z</time></trkpt><trkpt lat="38.083105" lon="14.82296"><ele>693.0</ele><time>2026-04-25T11:44:56.918Z</time></trkpt><trkpt lat="38.0831267" lon="14.8228267"><ele>693.0</ele><time>2026-04-25T11:44:57.917Z</time></trkpt><trkpt lat="38.0831483" lon="14.8226967"><ele>693.0</ele><time>2026-04-25T11:44:58.918Z</time></trkpt><trkpt lat="38.0831733" lon="14.822575"><ele>693.0</ele><time>2026-04-25T11:44:59.917Z</time></trkpt><trkpt lat="38.0832083" lon="14.8224633"><ele>693.0</ele><time>2026-04-25T11:45:00.918Z</time></trkpt><trkpt lat="38.0832417" lon="14.822365"><ele>693.0</ele><time>2026-04-25T11:45:01.918Z</time></trkpt><trkpt lat="38.08326" lon="14.82228"><ele>688.5</ele><time>2026-04-25T11:45:02.917Z</time></trkpt><trkpt lat="38.0833017" lon="14.82217"><ele>684.0</ele><time>2026-04-25T11:45:04.917Z</time></trkpt><trkpt lat="38.0833683" lon="14.822115"><ele>679.5</ele><time>2026-04-25T11:45:06.918Z</time></trkpt><trkpt lat="38.0834133" lon="14.8220583"><ele>675.0</ele><time>2026-04-25T11:45:07.918Z</time></trkpt><trkpt lat="38.08346" lon="14.8219817"><ele>670.5</ele><time>2026-04-25T11:45:08.917Z</time></trkpt><trkpt lat="38.08351" lon="14.8218883"><ele>666.0</ele><time>2026-04-25T11:45:09.917Z</time></trkpt><trkpt lat="38.0835683" lon="14.82178"><ele>666.0</ele><time>2026-04-25T11:45:10.917Z</time></trkpt><trkpt lat="38.0836383" lon="14.8216717"><ele>666.0</ele><time>2026-04-25T11:45:11.917Z</time></trkpt><trkpt lat="38.0836983" lon="14.8215667"><ele>666.0</ele><time>2026-04-25T11:45:12.917Z</time></trkpt><trkpt lat="38.0837533" lon="14.8214783"><ele>666.0</ele><time>2026-04-25T11:45:13.918Z</time></trkpt><trkpt lat="38.08379" lon="14.821405"><ele>666.0</ele><time>2026-04-25T11:45:14.918Z</time></trkpt><trkpt lat="38.0838483" lon="14.8213267"><ele>666.0</ele><time>2026-04-25T11:45:16.917Z</time></trkpt><trkpt lat="38.08391" lon="14.8213633"><ele>666.0</ele><time>2026-04-25T11:45:18.918Z</time></trkpt><trkpt lat="38.08388" lon="14.821515"><ele>666.0</ele><time>2026-04-25T11:45:20.918Z</time></trkpt><trkpt lat="38.0838483" lon="14.8215933"><ele>666.0</ele><time>2026-04-25T11:45:21.918Z</time></trkpt><trkpt lat="38.08382" lon="14.8216733"><ele>666.0</ele><time>2026-04-25T11:45:22.918Z</time></trkpt><trkpt lat="38.0837917" lon="14.8217533"><ele>666.0</ele><time>2026-04-25T11:45:23.918Z</time></trkpt><trkpt lat="38.0837583" lon="14.8218383"><ele>664.6666666666666</ele><time>2026-04-25T11:45:24.917Z</time></trkpt><trkpt lat="38.0837267" lon="14.82192"><ele>663.3333333333334</ele><time>2026-04-25T11:45:25.918Z</time></trkpt><trkpt lat="38.0836917" lon="14.8220017"><ele>662.0</ele><time>2026-04-25T11:45:26.918Z</time></trkpt><trkpt lat="38.0836567" lon="14.822095"><ele>660.6666666666667</ele><time>2026-04-25T11:45:27.917Z</time></trkpt><trkpt lat="38.0836233" lon="14.8222"><ele>659.3333333333334</ele><time>2026-04-25T11:45:28.918Z</time></trkpt><trkpt lat="38.0836033" lon="14.8223167"><ele>658.0</ele><time>2026-04-25T11:45:29.917Z</time></trkpt><trkpt lat="38.0835817" lon="14.8224433"><ele>658.0</ele><time>2026-04-25T11:45:30.917Z</time></trkpt><trkpt lat="38.0835617" lon="14.82258"><ele>658.0</ele><time>2026-04-25T11:45:31.918Z</time></trkpt><trkpt lat="38.0835383" lon="14.822725"><ele>658.0</ele><time>2026-04-25T11:45:32.918Z</time></trkpt><trkpt lat="38.083515" lon="14.8228733"><ele>658.0</ele><time>2026-04-25T11:45:33.918Z</time></trkpt><trkpt lat="38.0834983" lon="14.8230217"><ele>655.5</ele><time>2026-04-25T11:45:34.917Z</time></trkpt><trkpt lat="38.0834817" lon="14.8231717"><ele>653.0</ele><time>2026-04-25T11:45:35.917Z</time></trkpt><trkpt lat="38.08346" lon="14.823325"><ele>650.5</ele><time>2026-04-25T11:45:36.917Z</time></trkpt><trkpt lat="38.08344" lon="14.8234733"><ele>648.0</ele><time>2026-04-25T11:45:37.918Z</time></trkpt><trkpt lat="38.0834233" lon="14.8236183"><ele>644.6</ele><time>2026-04-25T11:45:38.918Z</time></trkpt><trkpt lat="38.0833967" lon="14.823765"><ele>641.1999999999999</ele><time>2026-04-25T11:45:39.918Z</time></trkpt><trkpt lat="38.083375" lon="14.8239067"><ele>637.8</ele><time>2026-04-25T11:45:40.918Z</time></trkpt><trkpt lat="38.08336" lon="14.8240333"><ele>634.4</ele><time>2026-04-25T11:45:41.918Z</time></trkpt><trkpt lat="38.083345" lon="14.8241467"><ele>631.0</ele><time>2026-04-25T11:45:42.917Z</time></trkpt><trkpt lat="38.0833383" lon="14.82425"><ele>627.0</ele><time>2026-04-25T11:45:43.918Z</time></trkpt><trkpt lat="38.08333" lon="14.8243317"><ele>623.0</ele><time>2026-04-25T11:45:44.918Z</time></trkpt><trkpt lat="38.0833367" lon="14.8244167"><ele>619.0</ele><time>2026-04-25T11:45:45.918Z</time></trkpt><trkpt lat="38.0834167" lon="14.8245233"><ele>615.0</ele><time>2026-04-25T11:45:47.918Z</time></trkpt><trkpt lat="38.08352" lon="14.824455"><ele>611.0</ele><time>2026-04-25T11:45:49.918Z</time></trkpt><trkpt lat="38.083565" lon="14.8243483"><ele>614.3333333333333</ele><time>2026-04-25T11:45:50.917Z</time></trkpt><trkpt lat="38.0835933" lon="14.824225"><ele>617.6666666666666</ele><time>2026-04-25T11:45:51.918Z</time></trkpt><trkpt lat="38.0836033" lon="14.8241133"><ele>621.0</ele><time>2026-04-25T11:45:52.918Z</time></trkpt><trkpt lat="38.08361" lon="14.8240333"><ele>624.3333333333334</ele><time>2026-04-25T11:45:53.918Z</time></trkpt><trkpt lat="38.08365" lon="14.8239133"><ele>627.6666666666667</ele><time>2026-04-25T11:45:55.917Z</time></trkpt><trkpt lat="38.08372" lon="14.8238883"><ele>631.0</ele><time>2026-04-25T11:45:57.917Z</time></trkpt><trkpt lat="38.0837967" lon="14.8240233"><ele>631.0</ele><time>2026-04-25T11:45:59.918Z</time></trkpt><trkpt lat="38.0838033" lon="14.824135"><ele>631.0</ele><time>2026-04-25T11:46:00.918Z</time></trkpt><trkpt lat="38.083795" lon="14.824255"><ele>631.0</ele><time>2026-04-25T11:46:01.918Z</time></trkpt><trkpt lat="38.0837817" lon="14.8243733"><ele>631.0</ele><time>2026-04-25T11:46:02.918Z</time></trkpt><trkpt lat="38.08377" lon="14.8244767"><ele>631.0</ele><time>2026-04-25T11:46:03.917Z</time></trkpt><trkpt lat="38.08376" lon="14.8245917"><ele>628.1428571428572</ele><time>2026-04-25T11:46:04.918Z</time></trkpt><trkpt lat="38.083765" lon="14.8246967"><ele>625.2857142857142</ele><time>2026-04-25T11:46:05.917Z</time></trkpt><trkpt lat="38.0837933" lon="14.824795"><ele>622.4285714285714</ele><time>2026-04-25T11:46:06.917Z</time></trkpt><trkpt lat="38.0838367" lon="14.8248733"><ele>619.5714285714287</ele><time>2026-04-25T11:46:07.918Z</time></trkpt><trkpt lat="38.083895" lon="14.82493"><ele>616.7142857142858</ele><time>2026-04-25T11:46:08.918Z</time></trkpt><trkpt lat="38.0839617" lon="14.8249583"><ele>613.8571428571429</ele><time>2026-04-25T11:46:09.918Z</time></trkpt><trkpt lat="38.084025" lon="14.8249567"><ele>611.0</ele><time>2026-04-25T11:46:10.917Z</time></trkpt><trkpt lat="38.0841033" lon="14.82491"><ele>608.5</ele><time>2026-04-25T11:46:11.918Z</time></trkpt><trkpt lat="38.0841533" lon="14.824825"><ele>606.0</ele><time>2026-04-25T11:46:12.917Z</time></trkpt><trkpt lat="38.084195" lon="14.8247167"><ele>603.5</ele><time>2026-04-25T11:46:13.918Z</time></trkpt><trkpt lat="38.084215" lon="14.8246133"><ele>601.0</ele><time>2026-04-25T11:46:14.917Z</time></trkpt><trkpt lat="38.0842117" lon="14.82452"><ele>598.5</ele><time>2026-04-25T11:46:15.917Z</time></trkpt><trkpt lat="38.0842017" lon="14.82444"><ele>596.0</ele><time>2026-04-25T11:46:16.917Z</time></trkpt><trkpt lat="38.08421" lon="14.8243067"><ele>596.0</ele><time>2026-04-25T11:46:18.918Z</time></trkpt><trkpt lat="38.08428" lon="14.824235"><ele>596.0</ele><time>2026-04-25T11:46:20.917Z</time></trkpt><trkpt lat="38.084365" lon="14.8243167"><ele>596.0</ele><time>2026-04-25T11:46:22.918Z</time></trkpt><trkpt lat="38.0844117" lon="14.8244067"><ele>596.0</ele><time>2026-04-25T11:46:23.918Z</time></trkpt><trkpt lat="38.0844567" lon="14.8244983"><ele>596.0</ele><time>2026-04-25T11:46:24.917Z</time></trkpt><trkpt lat="38.08449" lon="14.824585"><ele>596.0</ele><time>2026-04-25T11:46:25.917Z</time></trkpt><trkpt lat="38.084515" lon="14.8246683"><ele>594.6666666666666</ele><time>2026-04-25T11:46:26.918Z</time></trkpt><trkpt lat="38.0845267" lon="14.8247583"><ele>593.3333333333333</ele><time>2026-04-25T11:46:27.918Z</time></trkpt><trkpt lat="38.0845067" lon="14.82484"><ele>592.0</ele><time>2026-04-25T11:46:28.917Z</time></trkpt><trkpt lat="38.0844667" lon="14.8249217"><ele>590.6666666666666</ele><time>2026-04-25T11:46:29.918Z</time></trkpt><trkpt lat="38.0844133" lon="14.8249883"><ele>589.3333333333334</ele><time>2026-04-25T11:46:30.917Z</time></trkpt><trkpt lat="38.0843417" lon="14.8250417"><ele>588.0</ele><time>2026-04-25T11:46:31.918Z</time></trkpt><trkpt lat="38.084265" lon="14.8250883"><ele>588.0</ele><time>2026-04-25T11:46:32.918Z</time></trkpt><trkpt lat="38.084185" lon="14.825125"><ele>588.0</ele><time>2026-04-25T11:46:33.918Z</time></trkpt><trkpt lat="38.0841017" lon="14.8251533"><ele>588.0</ele><time>2026-04-25T11:46:34.918Z</time></trkpt><trkpt lat="38.0840183" lon="14.8251983"><ele>588.0</ele><time>2026-04-25T11:46:35.918Z</time></trkpt><trkpt lat="38.0839433" lon="14.8252533"><ele>588.0</ele><time>2026-04-25T11:46:36.917Z</time></trkpt><trkpt lat="38.0838817" lon="14.82532"><ele>588.0</ele><time>2026-04-25T11:46:37.918Z</time></trkpt><trkpt lat="38.0838383" lon="14.8254083"><ele>589.1999999999999</ele><time>2026-04-25T11:46:38.918Z</time></trkpt><trkpt lat="38.0838183" lon="14.8255033"><ele>590.4</ele><time>2026-04-25T11:46:39.918Z</time></trkpt><trkpt lat="38.0838183" lon="14.82562"><ele>591.5999999999999</ele><time>2026-04-25T11:46:40.918Z</time></trkpt><trkpt lat="38.0838067" lon="14.8257383"><ele>592.8</ele><time>2026-04-25T11:46:41.918Z</time></trkpt><trkpt lat="38.08379" lon="14.8258617"><ele>594.0</ele><time>2026-04-25T11:46:42.918Z</time></trkpt><trkpt lat="38.0837667" lon="14.8259733"><ele>591.2</ele><time>2026-04-25T11:46:43.918Z</time></trkpt><trkpt lat="38.08374" lon="14.826095"><ele>588.4</ele><time>2026-04-25T11:46:44.918Z</time></trkpt><trkpt lat="38.0837167" lon="14.82622"><ele>585.6</ele><time>2026-04-25T11:46:45.918Z</time></trkpt><trkpt lat="38.0836917" lon="14.8263483"><ele>582.8</ele><time>2026-04-25T11:46:46.917Z</time></trkpt><trkpt lat="38.0836633" lon="14.8264567"><ele>580.0</ele><time>2026-04-25T11:46:47.918Z</time></trkpt><trkpt lat="38.0836367" lon="14.826545"><ele>580.0</ele><time>2026-04-25T11:46:48.917Z</time></trkpt><trkpt lat="38.0835933" lon="14.8266567"><ele>580.0</ele><time>2026-04-25T11:46:49.918Z</time></trkpt><trkpt lat="38.0835433" lon="14.8267417"><ele>580.0</ele><time>2026-04-25T11:46:50.917Z</time></trkpt><trkpt lat="38.0834817" lon="14.826825"><ele>580.0</ele><time>2026-04-25T11:46:51.917Z</time></trkpt><trkpt lat="38.0834133" lon="14.8269033"><ele>580.0</ele><time>2026-04-25T11:46:52.918Z</time></trkpt><trkpt lat="38.08335" lon="14.8269867"><ele>578.0</ele><time>2026-04-25T11:46:53.918Z</time></trkpt><trkpt lat="38.0833133" lon="14.8270817"><ele>576.0</ele><time>2026-04-25T11:46:54.917Z</time></trkpt><trkpt lat="38.0832933" lon="14.8271967"><ele>574.0</ele><time>2026-04-25T11:46:55.918Z</time></trkpt><trkpt lat="38.083295" lon="14.8273133"><ele>572.0</ele><time>2026-04-25T11:46:56.918Z</time></trkpt><trkpt lat="38.0833217" lon="14.8274233"><ele>570.0</ele><time>2026-04-25T11:46:57.917Z</time></trkpt><trkpt lat="38.0833683" lon="14.827555"><ele>567.4</ele><time>2026-04-25T11:46:58.918Z</time></trkpt><trkpt lat="38.0834067" lon="14.8276833"><ele>564.8</ele><time>2026-04-25T11:46:59.918Z</time></trkpt><trkpt lat="38.0834367" lon="14.8278067"><ele>562.2</ele><time>2026-04-25T11:47:00.918Z</time></trkpt><trkpt lat="38.0834633" lon="14.82792"><ele>559.6</ele><time>2026-04-25T11:47:01.918Z</time></trkpt><trkpt lat="38.0834717" lon="14.82804"><ele>557.0</ele><time>2026-04-25T11:47:02.918Z</time></trkpt><trkpt lat="38.0834567" lon="14.828165"><ele>557.0</ele><time>2026-04-25T11:47:03.918Z</time></trkpt><trkpt lat="38.08342" lon="14.828285"><ele>557.0</ele><time>2026-04-25T11:47:04.917Z</time></trkpt><trkpt lat="38.0833617" lon="14.8283983"><ele>557.0</ele><time>2026-04-25T11:47:05.918Z</time></trkpt><trkpt lat="38.0832983" lon="14.8285033"><ele>557.0</ele><time>2026-04-25T11:47:06.918Z</time></trkpt><trkpt lat="38.0832317" lon="14.8286167"><ele>557.0</ele><time>2026-04-25T11:47:07.918Z</time></trkpt><trkpt lat="38.08316" lon="14.828725"><ele>559.2</ele><time>2026-04-25T11:47:08.917Z</time></trkpt><trkpt lat="38.0830867" lon="14.828825"><ele>561.4000000000001</ele><time>2026-04-25T11:47:09.917Z</time></trkpt><trkpt lat="38.08301" lon="14.8289117"><ele>563.5999999999999</ele><time>2026-04-25T11:47:10.918Z</time></trkpt><trkpt lat="38.0829317" lon="14.82898"><ele>565.8</ele><time>2026-04-25T11:47:11.918Z</time></trkpt><trkpt lat="38.0828383" lon="14.8290183"><ele>568.0</ele><time>2026-04-25T11:47:12.918Z</time></trkpt><trkpt lat="38.0827517" lon="14.82905"><ele>568.0</ele><time>2026-04-25T11:47:13.918Z</time></trkpt><trkpt lat="38.08268" lon="14.829095"><ele>568.0</ele><time>2026-04-25T11:47:14.918Z</time></trkpt><trkpt lat="38.0826267" lon="14.8291533"><ele>568.0</ele><time>2026-04-25T11:47:15.917Z</time></trkpt><trkpt lat="38.0825967" lon="14.8292767"><ele>568.0</ele><time>2026-04-25T11:47:17.918Z</time></trkpt><trkpt lat="38.0827233" lon="14.8293367"><ele>568.0</ele><time>2026-04-25T11:47:19.918Z</time></trkpt><trkpt lat="38.082815" lon="14.8293117"><ele>568.0</ele><time>2026-04-25T11:47:20.918Z</time></trkpt><trkpt lat="38.0829233" lon="14.8292533"><ele>568.0</ele><time>2026-04-25T11:47:21.918Z</time></trkpt><trkpt lat="38.0830433" lon="14.829175"><ele>568.0</ele><time>2026-04-25T11:47:22.917Z</time></trkpt><trkpt lat="38.0831783" lon="14.8290917"><ele>568.0</ele><time>2026-04-25T11:47:23.917Z</time></trkpt><trkpt lat="38.0833017" lon="14.8290283"><ele>561.75</ele><time>2026-04-25T11:47:24.918Z</time></trkpt><trkpt lat="38.08342" lon="14.828965"><ele>555.5</ele><time>2026-04-25T11:47:25.917Z</time></trkpt><trkpt lat="38.0835317" lon="14.8289033"><ele>549.25</ele><time>2026-04-25T11:47:26.918Z</time></trkpt><trkpt lat="38.0836367" lon="14.8288417"><ele>543.0</ele><time>2026-04-25T11:47:27.917Z</time></trkpt><trkpt lat="38.0837333" lon="14.82879"><ele>543.0</ele><time>2026-04-25T11:47:28.917Z</time></trkpt><trkpt lat="38.0838133" lon="14.8287367"><ele>543.0</ele><time>2026-04-25T11:47:29.918Z</time></trkpt><trkpt lat="38.083885" lon="14.8286733"><ele>543.0</ele><time>2026-04-25T11:47:30.918Z</time></trkpt><trkpt lat="38.0839333" lon="14.8285783"><ele>543.0</ele><time>2026-04-25T11:47:31.918Z</time></trkpt><trkpt lat="38.083965" lon="14.82846"><ele>543.0</ele><time>2026-04-25T11:47:32.917Z</time></trkpt><trkpt lat="38.0839733" lon="14.828315"><ele>545.8</ele><time>2026-04-25T11:47:33.918Z</time></trkpt><trkpt lat="38.08399" lon="14.8281683"><ele>548.5999999999999</ele><time>2026-04-25T11:47:34.918Z</time></trkpt><trkpt lat="38.0840117" lon="14.8280483"><ele>551.4000000000001</ele><time>2026-04-25T11:47:35.918Z</time></trkpt><trkpt lat="38.084035" lon="14.8279583"><ele>554.2</ele><time>2026-04-25T11:47:36.918Z</time></trkpt><trkpt lat="38.0840983" lon="14.8278717"><ele>557.0</ele><time>2026-04-25T11:47:38.918Z</time></trkpt><trkpt lat="38.0841717" lon="14.827945"><ele>557.0</ele><time>2026-04-25T11:47:40.918Z</time></trkpt><trkpt lat="38.0841733" lon="14.8280417"><ele>557.0</ele><time>2026-04-25T11:47:41.918Z</time></trkpt><trkpt lat="38.084145" lon="14.8281483"><ele>557.0</ele><time>2026-04-25T11:47:42.918Z</time></trkpt><trkpt lat="38.084115" lon="14.8282617"><ele>557.0</ele><time>2026-04-25T11:47:43.918Z</time></trkpt><trkpt lat="38.08409" lon="14.828365"><ele>557.0</ele><time>2026-04-25T11:47:44.918Z</time></trkpt><trkpt lat="38.0840833" lon="14.8285117"><ele>554.6666666666666</ele><time>2026-04-25T11:47:46.918Z</time></trkpt><trkpt lat="38.084095" lon="14.8285933"><ele>552.3333333333333</ele><time>2026-04-25T11:47:47.917Z</time></trkpt><trkpt lat="38.0841067" lon="14.8286883"><ele>550.0</ele><time>2026-04-25T11:47:48.918Z</time></trkpt><trkpt lat="38.0841117" lon="14.82879"><ele>547.6666666666666</ele><time>2026-04-25T11:47:49.917Z</time></trkpt><trkpt lat="38.0841083" lon="14.8288933"><ele>545.3333333333334</ele><time>2026-04-25T11:47:50.918Z</time></trkpt><trkpt lat="38.0840867" lon="14.8289817"><ele>543.0</ele><time>2026-04-25T11:47:51.918Z</time></trkpt><trkpt lat="38.0840283" lon="14.8290467"><ele>543.0</ele><time>2026-04-25T11:47:52.918Z</time></trkpt><trkpt lat="38.0839483" lon="14.8291167"><ele>543.0</ele><time>2026-04-25T11:47:53.918Z</time></trkpt><trkpt lat="38.0838633" lon="14.829205"><ele>543.0</ele><time>2026-04-25T11:47:54.917Z</time></trkpt><trkpt lat="38.0837833" lon="14.8293167"><ele>543.0</ele><time>2026-04-25T11:47:55.918Z</time></trkpt><trkpt lat="38.0837033" lon="14.8294283"><ele>543.0</ele><time>2026-04-25T11:47:56.917Z</time></trkpt><trkpt lat="38.0836333" lon="14.8295367"><ele>536.25</ele><time>2026-04-25T11:47:57.917Z</time></trkpt><trkpt lat="38.0835617" lon="14.8296433"><ele>529.5</ele><time>2026-04-25T11:47:58.917Z</time></trkpt><trkpt lat="38.083495" lon="14.829775"><ele>522.75</ele><time>2026-04-25T11:47:59.917Z</time></trkpt><trkpt lat="38.0834367" lon="14.8299067"><ele>516.0</ele><time>2026-04-25T11:48:00.918Z</time></trkpt><trkpt lat="38.0833833" lon="14.83004"><ele>518.0</ele><time>2026-04-25T11:48:01.918Z</time></trkpt><trkpt lat="38.0833367" lon="14.8301767"><ele>520.0</ele><time>2026-04-25T11:48:02.917Z</time></trkpt><trkpt lat="38.0833017" lon="14.8303133"><ele>522.0</ele><time>2026-04-25T11:48:03.918Z</time></trkpt><trkpt lat="38.0832733" lon="14.8304567"><ele>524.0</ele><time>2026-04-25T11:48:04.917Z</time></trkpt><trkpt lat="38.08325" lon="14.8306"><ele>524.0</ele><time>2026-04-25T11:48:05.918Z</time></trkpt><trkpt lat="38.08321" lon="14.8307183"><ele>524.0</ele><time>2026-04-25T11:48:06.918Z</time></trkpt><trkpt lat="38.0831517" lon="14.8308167"><ele>524.0</ele><time>2026-04-25T11:48:07.918Z</time></trkpt><trkpt lat="38.0830717" lon="14.8308967"><ele>524.0</ele><time>2026-04-25T11:48:08.918Z</time></trkpt><trkpt lat="38.082975" lon="14.830975"><ele>524.0</ele><time>2026-04-25T11:48:09.918Z</time></trkpt><trkpt lat="38.0828883" lon="14.8310617"><ele>517.4</ele><time>2026-04-25T11:48:10.918Z</time></trkpt><trkpt lat="38.0827983" lon="14.831145"><ele>510.79999999999995</ele><time>2026-04-25T11:48:11.918Z</time></trkpt><trkpt lat="38.0827083" lon="14.8312233"><ele>504.20000000000005</ele><time>2026-04-25T11:48:12.918Z</time></trkpt><trkpt lat="38.08262" lon="14.8313"><ele>497.6</ele><time>2026-04-25T11:48:13.918Z</time></trkpt><trkpt lat="38.08253" lon="14.831375"><ele>491.0</ele><time>2026-04-25T11:48:14.917Z</time></trkpt><trkpt lat="38.082445" lon="14.831445"><ele>497.20000000000005</ele><time>2026-04-25T11:48:15.918Z</time></trkpt><trkpt lat="38.082355" lon="14.8314967"><ele>503.40000000000003</ele><time>2026-04-25T11:48:16.917Z</time></trkpt><trkpt lat="38.0822683" lon="14.831565"><ele>509.6</ele><time>2026-04-25T11:48:17.918Z</time></trkpt><trkpt lat="38.0821783" lon="14.8316317"><ele>515.8000000000001</ele><time>2026-04-25T11:48:18.917Z</time></trkpt><trkpt lat="38.0820917" lon="14.8316933"><ele>522.0</ele><time>2026-04-25T11:48:19.918Z</time></trkpt><trkpt lat="38.082015" lon="14.831755"><ele>519.2</ele><time>2026-04-25T11:48:20.918Z</time></trkpt><trkpt lat="38.081945" lon="14.8318367"><ele>516.4000000000001</ele><time>2026-04-25T11:48:21.917Z</time></trkpt><trkpt lat="38.0819017" lon="14.8319383"><ele>513.5999999999999</ele><time>2026-04-25T11:48:22.917Z</time></trkpt><trkpt lat="38.0818767" lon="14.8320367"><ele>510.79999999999995</ele><time>2026-04-25T11:48:23.917Z</time></trkpt><trkpt lat="38.0818817" lon="14.8321567"><ele>508.0</ele><time>2026-04-25T11:48:24.918Z</time></trkpt><trkpt lat="38.0819167" lon="14.83228"><ele>508.0</ele><time>2026-04-25T11:48:25.917Z</time></trkpt><trkpt lat="38.0819933" lon="14.8323683"><ele>508.0</ele><time>2026-04-25T11:48:26.918Z</time></trkpt><trkpt lat="38.0820867" lon="14.832455"><ele>508.0</ele><time>2026-04-25T11:48:27.918Z</time></trkpt><trkpt lat="38.0821867" lon="14.8325383"><ele>508.0</ele><time>2026-04-25T11:48:28.918Z</time></trkpt><trkpt lat="38.0822767" lon="14.8326367"><ele>506.2</ele><time>2026-04-25T11:48:29.918Z</time></trkpt><trkpt lat="38.0823467" lon="14.8327467"><ele>504.4</ele><time>2026-04-25T11:48:30.918Z</time></trkpt><trkpt lat="38.08241" lon="14.8328633"><ele>502.59999999999997</ele><time>2026-04-25T11:48:31.917Z</time></trkpt><trkpt lat="38.0824633" lon="14.8329933"><ele>500.79999999999995</ele><time>2026-04-25T11:48:32.917Z</time></trkpt><trkpt lat="38.08249" lon="14.83313"><ele>499.0</ele><time>2026-04-25T11:48:33.918Z</time></trkpt><trkpt lat="38.0825167" lon="14.8332617"><ele>492.5</ele><time>2026-04-25T11:48:34.917Z</time></trkpt><trkpt lat="38.0825633" lon="14.8333917"><ele>486.0</ele><time>2026-04-25T11:48:35.918Z</time></trkpt><trkpt lat="38.0826417" lon="14.8335133"><ele>479.5</ele><time>2026-04-25T11:48:36.918Z</time></trkpt><trkpt lat="38.082735" lon="14.8336133"><ele>473.0</ele><time>2026-04-25T11:48:37.918Z</time></trkpt><trkpt lat="38.0828333" lon="14.8337283"><ele>473.0</ele><time>2026-04-25T11:48:38.917Z</time></trkpt><trkpt lat="38.0829233" lon="14.8338417"><ele>473.0</ele><time>2026-04-25T11:48:39.917Z</time></trkpt><trkpt lat="38.08302" lon="14.8339483"><ele>473.0</ele><time>2026-04-25T11:48:40.918Z</time></trkpt><trkpt lat="38.083105" lon="14.8340733"><ele>473.0</ele><time>2026-04-25T11:48:41.918Z</time></trkpt><trkpt lat="38.08317" lon="14.8341867"><ele>473.0</ele><time>2026-04-25T11:48:42.918Z</time></trkpt><trkpt lat="38.083215" lon="14.83428"><ele>472.99999999999994</ele><time>2026-04-25T11:48:43.917Z</time></trkpt><trkpt lat="38.0832383" lon="14.8343883"><ele>472.99999999999994</ele><time>2026-04-25T11:48:44.917Z</time></trkpt><trkpt lat="38.0832467" lon="14.8345083"><ele>473.0</ele><time>2026-04-25T11:48:45.918Z</time></trkpt><trkpt lat="38.0832317" lon="14.8346317"><ele>473.0</ele><time>2026-04-25T11:48:46.918Z</time></trkpt><trkpt lat="38.0832" lon="14.8347583"><ele>471.25</ele><time>2026-04-25T11:48:47.918Z</time></trkpt><trkpt lat="38.083145" lon="14.8348933"><ele>469.5</ele><time>2026-04-25T11:48:48.918Z</time></trkpt><trkpt lat="38.0830883" lon="14.8350433"><ele>467.75</ele><time>2026-04-25T11:48:49.918Z</time></trkpt><trkpt lat="38.0830233" lon="14.835195"><ele>466.0</ele><time>2026-04-25T11:48:50.917Z</time></trkpt><trkpt lat="38.0829467" lon="14.835345"><ele>462.0</ele><time>2026-04-25T11:48:51.917Z</time></trkpt><trkpt lat="38.08286" lon="14.8354783"><ele>458.0</ele><time>2026-04-25T11:48:52.917Z</time></trkpt><trkpt lat="38.0827683" lon="14.8355983"><ele>454.0</ele><time>2026-04-25T11:48:53.917Z</time></trkpt><trkpt lat="38.0826883" lon="14.8357117"><ele>450.0</ele><time>2026-04-25T11:48:54.918Z</time></trkpt><trkpt lat="38.0826067" lon="14.8358183"><ele>450.0</ele><time>2026-04-25T11:48:55.918Z</time></trkpt><trkpt lat="38.0825183" lon="14.8359117"><ele>450.0</ele><time>2026-04-25T11:48:56.917Z</time></trkpt><trkpt lat="38.08242" lon="14.83599"><ele>450.0</ele><time>2026-04-25T11:48:57.917Z</time></trkpt><trkpt lat="38.0823083" lon="14.836075"><ele>450.0</ele><time>2026-04-25T11:48:58.917Z</time></trkpt><trkpt lat="38.082195" lon="14.8361683"><ele>448.5</ele><time>2026-04-25T11:48:59.917Z</time></trkpt><trkpt lat="38.082075" lon="14.8362633"><ele>447.0</ele><time>2026-04-25T11:49:00.918Z</time></trkpt><trkpt lat="38.0819517" lon="14.83635"><ele>445.5</ele><time>2026-04-25T11:49:01.918Z</time></trkpt><trkpt lat="38.0818333" lon="14.8364367"><ele>444.0</ele><time>2026-04-25T11:49:02.918Z</time></trkpt><trkpt lat="38.08172" lon="14.83653"><ele>444.0</ele><time>2026-04-25T11:49:03.917Z</time></trkpt><trkpt lat="38.081615" lon="14.8366267"><ele>444.0</ele><time>2026-04-25T11:49:04.918Z</time></trkpt><trkpt lat="38.081515" lon="14.83672"><ele>444.0</ele><time>2026-04-25T11:49:05.918Z</time></trkpt><trkpt lat="38.081415" lon="14.836805"><ele>444.0</ele><time>2026-04-25T11:49:06.917Z</time></trkpt><trkpt lat="38.0813217" lon="14.8368833"><ele>445.6</ele><time>2026-04-25T11:49:07.917Z</time></trkpt><trkpt lat="38.0812283" lon="14.8369717"><ele>447.2</ele><time>2026-04-25T11:49:08.918Z</time></trkpt><trkpt lat="38.0811417" lon="14.8370467"><ele>448.80000000000007</ele><time>2026-04-25T11:49:09.918Z</time></trkpt><trkpt lat="38.0810733" lon="14.8371183"><ele>450.40000000000003</ele><time>2026-04-25T11:49:10.918Z</time></trkpt><trkpt lat="38.081035" lon="14.8372033"><ele>452.0</ele><time>2026-04-25T11:49:11.918Z</time></trkpt><trkpt lat="38.081005" lon="14.8372817"><ele>452.0</ele><time>2026-04-25T11:49:12.918Z</time></trkpt><trkpt lat="38.0810183" lon="14.8373633"><ele>452.00000000000006</ele><time>2026-04-25T11:49:13.918Z</time></trkpt><trkpt lat="38.0811367" lon="14.837435"><ele>452.00000000000006</ele><time>2026-04-25T11:49:15.917Z</time></trkpt><trkpt lat="38.081225" lon="14.837415"><ele>452.0</ele><time>2026-04-25T11:49:16.918Z</time></trkpt><trkpt lat="38.081335" lon="14.83735"><ele>452.0</ele><time>2026-04-25T11:49:17.917Z</time></trkpt><trkpt lat="38.0814667" lon="14.837245"><ele>452.0</ele><time>2026-04-25T11:49:18.917Z</time></trkpt><trkpt lat="38.08158" lon="14.8371283"><ele>452.0</ele><time>2026-04-25T11:49:19.917Z</time></trkpt><trkpt lat="38.081685" lon="14.837015"><ele>452.0</ele><time>2026-04-25T11:49:20.918Z</time></trkpt><trkpt lat="38.0818017" lon="14.8369367"><ele>452.0</ele><time>2026-04-25T11:49:21.918Z</time></trkpt><trkpt lat="38.08192" lon="14.8368833"><ele>445.75</ele><time>2026-04-25T11:49:22.918Z</time></trkpt><trkpt lat="38.0820417" lon="14.8368433"><ele>439.5</ele><time>2026-04-25T11:49:23.918Z</time></trkpt><trkpt lat="38.082165" lon="14.8368267"><ele>433.25</ele><time>2026-04-25T11:49:24.917Z</time></trkpt><trkpt lat="38.0822883" lon="14.8368317"><ele>427.0</ele><time>2026-04-25T11:49:25.918Z</time></trkpt><trkpt lat="38.08242" lon="14.8368417"><ele>428.0</ele><time>2026-04-25T11:49:26.917Z</time></trkpt><trkpt lat="38.0825467" lon="14.836845"><ele>429.0</ele><time>2026-04-25T11:49:27.918Z</time></trkpt><trkpt lat="38.08267" lon="14.8368433"><ele>430.0</ele><time>2026-04-25T11:49:28.917Z</time></trkpt><trkpt lat="38.0827917" lon="14.8368183"><ele>431.0</ele><time>2026-04-25T11:49:29.918Z</time></trkpt><trkpt lat="38.0829183" lon="14.8367717"><ele>431.0</ele><time>2026-04-25T11:49:30.918Z</time></trkpt><trkpt lat="38.0830483" lon="14.836725"><ele>431.0</ele><time>2026-04-25T11:49:31.918Z</time></trkpt><trkpt lat="38.0831817" lon="14.836685"><ele>431.0</ele><time>2026-04-25T11:49:32.918Z</time></trkpt><trkpt lat="38.0833167" lon="14.836655"><ele>431.0</ele><time>2026-04-25T11:49:33.917Z</time></trkpt><trkpt lat="38.0834417" lon="14.8366283"><ele>429.0</ele><time>2026-04-25T11:49:34.918Z</time></trkpt><trkpt lat="38.0835633" lon="14.8366117"><ele>427.0</ele><time>2026-04-25T11:49:35.918Z</time></trkpt><trkpt lat="38.0836867" lon="14.836595"><ele>425.0</ele><time>2026-04-25T11:49:36.918Z</time></trkpt><trkpt lat="38.08381" lon="14.8365767"><ele>423.0</ele><time>2026-04-25T11:49:37.918Z</time></trkpt><trkpt lat="38.083935" lon="14.8365583"><ele>423.0</ele><time>2026-04-25T11:49:38.917Z</time></trkpt><trkpt lat="38.0840467" lon="14.8365433"><ele>423.0</ele><time>2026-04-25T11:49:39.917Z</time></trkpt><trkpt lat="38.08415" lon="14.8365017"><ele>423.0</ele><time>2026-04-25T11:49:40.917Z</time></trkpt><trkpt lat="38.08425" lon="14.8364283"><ele>423.0</ele><time>2026-04-25T11:49:41.918Z</time></trkpt><trkpt lat="38.0843517" lon="14.8363483"><ele>418.5</ele><time>2026-04-25T11:49:42.918Z</time></trkpt><trkpt lat="38.0844633" lon="14.8362633"><ele>414.0</ele><time>2026-04-25T11:49:43.917Z</time></trkpt><trkpt lat="38.0845767" lon="14.836185"><ele>409.5</ele><time>2026-04-25T11:49:44.917Z</time></trkpt><trkpt lat="38.0846883" lon="14.8361383"><ele>405.0</ele><time>2026-04-25T11:49:45.918Z</time></trkpt><trkpt lat="38.0848" lon="14.8361133"><ele>405.0</ele><time>2026-04-25T11:49:46.918Z</time></trkpt><trkpt lat="38.0849083" lon="14.8360917"><ele>405.0</ele><time>2026-04-25T11:49:47.917Z</time></trkpt><trkpt lat="38.085" lon="14.8360317"><ele>405.0</ele><time>2026-04-25T11:49:48.917Z</time></trkpt><trkpt lat="38.0850667" lon="14.8359433"><ele>405.0</ele><time>2026-04-25T11:49:49.917Z</time></trkpt><trkpt lat="38.0851117" lon="14.8358367"><ele>405.0</ele><time>2026-04-25T11:49:50.917Z</time></trkpt><trkpt lat="38.08514" lon="14.83575"><ele>404.2</ele><time>2026-04-25T11:49:51.917Z</time></trkpt><trkpt lat="38.085185" lon="14.83569"><ele>403.4</ele><time>2026-04-25T11:49:52.917Z</time></trkpt><trkpt lat="38.0852667" lon="14.8356917"><ele>402.6</ele><time>2026-04-25T11:49:54.917Z</time></trkpt><trkpt lat="38.0852483" lon="14.8358567"><ele>401.8</ele><time>2026-04-25T11:49:56.917Z</time></trkpt><trkpt lat="38.0852" lon="14.835975"><ele>401.0</ele><time>2026-04-25T11:49:57.918Z</time></trkpt><trkpt lat="38.085145" lon="14.83608"><ele>401.66666666666663</ele><time>2026-04-25T11:49:58.918Z</time></trkpt><trkpt lat="38.085075" lon="14.83617"><ele>402.3333333333333</ele><time>2026-04-25T11:49:59.918Z</time></trkpt><trkpt lat="38.08499" lon="14.836235"><ele>403.0</ele><time>2026-04-25T11:50:00.917Z</time></trkpt><trkpt lat="38.0849067" lon="14.8362883"><ele>403.66666666666663</ele><time>2026-04-25T11:50:01.917Z</time></trkpt><trkpt lat="38.0848367" lon="14.8363433"><ele>404.3333333333333</ele><time>2026-04-25T11:50:02.918Z</time></trkpt><trkpt lat="38.0848" lon="14.8364183"><ele>405.0</ele><time>2026-04-25T11:50:03.918Z</time></trkpt><trkpt lat="38.084815" lon="14.8365267"><ele>401.2</ele><time>2026-04-25T11:50:05.918Z</time></trkpt><trkpt lat="38.0849367" lon="14.83657"><ele>397.4</ele><time>2026-04-25T11:50:07.918Z</time></trkpt><trkpt lat="38.085025" lon="14.8365217"><ele>393.6</ele><time>2026-04-25T11:50:08.917Z</time></trkpt><trkpt lat="38.0851083" lon="14.8364367"><ele>389.8</ele><time>2026-04-25T11:50:09.918Z</time></trkpt><trkpt lat="38.0851867" lon="14.836325"><ele>386.0</ele><time>2026-04-25T11:50:10.917Z</time></trkpt><trkpt lat="38.08525" lon="14.836205"><ele>385.99999999999994</ele><time>2026-04-25T11:50:11.917Z</time></trkpt><trkpt lat="38.0853017" lon="14.8360967"><ele>386.0</ele><time>2026-04-25T11:50:12.918Z</time></trkpt><trkpt lat="38.0853467" lon="14.836005"><ele>386.0</ele><time>2026-04-25T11:50:13.917Z</time></trkpt><trkpt lat="38.0853883" lon="14.8359417"><ele>386.0</ele><time>2026-04-25T11:50:14.917Z</time></trkpt><trkpt lat="38.0854717" lon="14.83599"><ele>385.99999999999994</ele><time>2026-04-25T11:50:16.918Z</time></trkpt><trkpt lat="38.08547" lon="14.8360733"><ele>386.0</ele><time>2026-04-25T11:50:17.917Z</time></trkpt><trkpt lat="38.0854383" lon="14.836195"><ele>386.0</ele><time>2026-04-25T11:50:18.917Z</time></trkpt><trkpt lat="38.085395" lon="14.836325"><ele>386.0</ele><time>2026-04-25T11:50:19.917Z</time></trkpt><trkpt lat="38.085355" lon="14.8364433"><ele>386.0</ele><time>2026-04-25T11:50:20.918Z</time></trkpt><trkpt lat="38.0853183" lon="14.836555"><ele>386.0</ele><time>2026-04-25T11:50:21.917Z</time></trkpt><trkpt lat="38.085285" lon="14.8366483"><ele>386.0</ele><time>2026-04-25T11:50:22.918Z</time></trkpt><trkpt lat="38.0852417" lon="14.8367333"><ele>385.99999999999994</ele><time>2026-04-25T11:50:23.917Z</time></trkpt><trkpt lat="38.08518" lon="14.8367967"><ele>386.0</ele><time>2026-04-25T11:50:24.918Z</time></trkpt><trkpt lat="38.0851117" lon="14.836865"><ele>386.0</ele><time>2026-04-25T11:50:25.918Z</time></trkpt><trkpt lat="38.08504" lon="14.836935"><ele>386.0</ele><time>2026-04-25T11:50:26.918Z</time></trkpt><trkpt lat="38.08497" lon="14.8370083"><ele>385.99999999999994</ele><time>2026-04-25T11:50:27.918Z</time></trkpt><trkpt lat="38.084895" lon="14.837095"><ele>386.0</ele><time>2026-04-25T11:50:28.918Z</time></trkpt><trkpt lat="38.0848217" lon="14.8371883"><ele>385.4</ele><time>2026-04-25T11:50:29.917Z</time></trkpt><trkpt lat="38.0847417" lon="14.8372833"><ele>384.8</ele><time>2026-04-25T11:50:30.918Z</time></trkpt><trkpt lat="38.084665" lon="14.83738"><ele>384.2</ele><time>2026-04-25T11:50:31.917Z</time></trkpt><trkpt lat="38.0846033" lon="14.8374867"><ele>383.59999999999997</ele><time>2026-04-25T11:50:32.918Z</time></trkpt><trkpt lat="38.0845433" lon="14.837605"><ele>383.0</ele><time>2026-04-25T11:50:33.917Z</time></trkpt><trkpt lat="38.0844833" lon="14.837725"><ele>379.4</ele><time>2026-04-25T11:50:34.918Z</time></trkpt><trkpt lat="38.0844183" lon="14.8378467"><ele>375.79999999999995</ele><time>2026-04-25T11:50:35.917Z</time></trkpt><trkpt lat="38.0843517" lon="14.8379617"><ele>372.2</ele><time>2026-04-25T11:50:36.918Z</time></trkpt><trkpt lat="38.08428" lon="14.8380683"><ele>368.6</ele><time>2026-04-25T11:50:37.917Z</time></trkpt><trkpt lat="38.0841967" lon="14.8381433"><ele>365.0</ele><time>2026-04-25T11:50:38.918Z</time></trkpt><trkpt lat="38.084115" lon="14.8382017"><ele>366.8</ele><time>2026-04-25T11:50:39.918Z</time></trkpt><trkpt lat="38.0840433" lon="14.8382883"><ele>368.6</ele><time>2026-04-25T11:50:40.918Z</time></trkpt><trkpt lat="38.0839967" lon="14.8383833"><ele>370.4</ele><time>2026-04-25T11:50:41.917Z</time></trkpt><trkpt lat="38.0839783" lon="14.8384983"><ele>372.2</ele><time>2026-04-25T11:50:42.917Z</time></trkpt><trkpt lat="38.0839883" lon="14.838645"><ele>374.0</ele><time>2026-04-25T11:50:43.917Z</time></trkpt><trkpt lat="38.0839917" lon="14.83878"><ele>374.0</ele><time>2026-04-25T11:50:44.917Z</time></trkpt><trkpt lat="38.0839717" lon="14.8389183"><ele>374.0</ele><time>2026-04-25T11:50:45.918Z</time></trkpt><trkpt lat="38.083935" lon="14.8390533"><ele>374.0</ele><time>2026-04-25T11:50:46.917Z</time></trkpt><trkpt lat="38.0838917" lon="14.8391917"><ele>374.0</ele><time>2026-04-25T11:50:47.917Z</time></trkpt><trkpt lat="38.0838467" lon="14.83933"><ele>369.0</ele><time>2026-04-25T11:50:48.918Z</time></trkpt><trkpt lat="38.0837933" lon="14.8394617"><ele>364.0</ele><time>2026-04-25T11:50:49.917Z</time></trkpt><trkpt lat="38.0837217" lon="14.8395633"><ele>359.0</ele><time>2026-04-25T11:50:50.918Z</time></trkpt><trkpt lat="38.0836367" lon="14.8396533"><ele>354.0</ele><time>2026-04-25T11:50:51.918Z</time></trkpt><trkpt lat="38.083545" lon="14.839725"><ele>349.0</ele><time>2026-04-25T11:50:52.918Z</time></trkpt><trkpt lat="38.0834467" lon="14.8397867"><ele>349.0</ele><time>2026-04-25T11:50:53.918Z</time></trkpt><trkpt lat="38.0833433" lon="14.83984"><ele>349.0</ele><time>2026-04-25T11:50:54.917Z</time></trkpt><trkpt lat="38.08323" lon="14.8398667"><ele>349.0</ele><time>2026-04-25T11:50:55.918Z</time></trkpt><trkpt lat="38.0831133" lon="14.8398767"><ele>349.0</ele><time>2026-04-25T11:50:56.917Z</time></trkpt><trkpt lat="38.0829933" lon="14.8398767"><ele>351.4</ele><time>2026-04-25T11:50:57.918Z</time></trkpt><trkpt lat="38.082885" lon="14.83988"><ele>353.79999999999995</ele><time>2026-04-25T11:50:58.918Z</time></trkpt><trkpt lat="38.0827833" lon="14.8399033"><ele>356.20000000000005</ele><time>2026-04-25T11:50:59.918Z</time></trkpt><trkpt lat="38.0827" lon="14.839955"><ele>358.6</ele><time>2026-04-25T11:51:00.918Z</time></trkpt><trkpt lat="38.082635" lon="14.8400517"><ele>361.0</ele><time>2026-04-25T11:51:01.918Z</time></trkpt><trkpt lat="38.0826017" lon="14.84017"><ele>355.8</ele><time>2026-04-25T11:51:02.918Z</time></trkpt><trkpt lat="38.0825983" lon="14.8403017"><ele>350.6</ele><time>2026-04-25T11:51:03.918Z</time></trkpt><trkpt lat="38.0825933" lon="14.8404283"><ele>345.4</ele><time>2026-04-25T11:51:04.918Z</time></trkpt><trkpt lat="38.082575" lon="14.8405333"><ele>340.2</ele><time>2026-04-25T11:51:05.918Z</time></trkpt><trkpt lat="38.0825317" lon="14.8406183"><ele>335.0</ele><time>2026-04-25T11:51:06.918Z</time></trkpt><trkpt lat="38.08244" lon="14.8406767"><ele>338.0</ele><time>2026-04-25T11:51:07.917Z</time></trkpt><trkpt lat="38.08233" lon="14.8407133"><ele>341.0</ele><time>2026-04-25T11:51:08.917Z</time></trkpt><trkpt lat="38.0822117" lon="14.840705"><ele>344.0</ele><time>2026-04-25T11:51:09.918Z</time></trkpt><trkpt lat="38.0820983" lon="14.8406733"><ele>347.0</ele><time>2026-04-25T11:51:10.917Z</time></trkpt><trkpt lat="38.082" lon="14.840625"><ele>347.0</ele><time>2026-04-25T11:51:11.918Z</time></trkpt><trkpt lat="38.0819133" lon="14.8405733"><ele>347.0</ele><time>2026-04-25T11:51:12.918Z</time></trkpt><trkpt lat="38.0818267" lon="14.840555"><ele>347.0</ele><time>2026-04-25T11:51:13.917Z</time></trkpt><trkpt lat="38.0817467" lon="14.84058"><ele>347.0</ele><time>2026-04-25T11:51:14.918Z</time></trkpt><trkpt lat="38.081685" lon="14.840625"><ele>347.0</ele><time>2026-04-25T11:51:15.917Z</time></trkpt><trkpt lat="38.0816433" lon="14.8406967"><ele>347.0</ele><time>2026-04-25T11:51:16.918Z</time></trkpt><trkpt lat="38.0816417" lon="14.8408167"><ele>347.0</ele><time>2026-04-25T11:51:17.918Z</time></trkpt><trkpt lat="38.0816667" lon="14.8409583"><ele>347.0</ele><time>2026-04-25T11:51:18.917Z</time></trkpt><trkpt lat="38.0816617" lon="14.8411033"><ele>347.0</ele><time>2026-04-25T11:51:19.918Z</time></trkpt><trkpt lat="38.0816433" lon="14.8412583"><ele>347.0</ele><time>2026-04-25T11:51:20.917Z</time></trkpt><trkpt lat="38.081615" lon="14.8414017"><ele>345.75</ele><time>2026-04-25T11:51:21.918Z</time></trkpt><trkpt lat="38.0815867" lon="14.84155"><ele>344.5</ele><time>2026-04-25T11:51:22.917Z</time></trkpt><trkpt lat="38.0815567" lon="14.8417067"><ele>343.25</ele><time>2026-04-25T11:51:23.918Z</time></trkpt><trkpt lat="38.08154" lon="14.84188"><ele>342.0</ele><time>2026-04-25T11:51:24.918Z</time></trkpt><trkpt lat="38.0815217" lon="14.84204"><ele>342.0</ele><time>2026-04-25T11:51:25.917Z</time></trkpt><trkpt lat="38.0814983" lon="14.842195"><ele>342.0</ele><time>2026-04-25T11:51:26.917Z</time></trkpt><trkpt lat="38.0814783" lon="14.8423483"><ele>342.0</ele><time>2026-04-25T11:51:27.917Z</time></trkpt><trkpt lat="38.08145" lon="14.8425"><ele>342.0</ele><time>2026-04-25T11:51:28.918Z</time></trkpt><trkpt lat="38.0814017" lon="14.8426383"><ele>337.25</ele><time>2026-04-25T11:51:29.917Z</time></trkpt><trkpt lat="38.0813383" lon="14.8427767"><ele>332.5</ele><time>2026-04-25T11:51:30.918Z</time></trkpt><trkpt lat="38.0812733" lon="14.8429317"><ele>327.75</ele><time>2026-04-25T11:51:31.918Z</time></trkpt><trkpt lat="38.0812083" lon="14.8430783"><ele>323.0</ele><time>2026-04-25T11:51:32.917Z</time></trkpt><trkpt lat="38.08115" lon="14.84323"><ele>323.0</ele><time>2026-04-25T11:51:33.917Z</time></trkpt><trkpt lat="38.0811067" lon="14.843385"><ele>323.0</ele><time>2026-04-25T11:51:34.918Z</time></trkpt><trkpt lat="38.081075" lon="14.84354"><ele>323.0</ele><time>2026-04-25T11:51:35.918Z</time></trkpt><trkpt lat="38.0810567" lon="14.8436983"><ele>323.0</ele><time>2026-04-25T11:51:36.917Z</time></trkpt><trkpt lat="38.0810433" lon="14.84386"><ele>319.0</ele><time>2026-04-25T11:51:37.918Z</time></trkpt><trkpt lat="38.0810417" lon="14.8440217"><ele>315.0</ele><time>2026-04-25T11:51:38.918Z</time></trkpt><trkpt lat="38.0810433" lon="14.8441767"><ele>311.0</ele><time>2026-04-25T11:51:39.918Z</time></trkpt><trkpt lat="38.0810417" lon="14.84432"><ele>307.0</ele><time>2026-04-25T11:51:40.917Z</time></trkpt><trkpt lat="38.0810417" lon="14.8444433"><ele>303.8333333333333</ele><time>2026-04-25T11:51:41.918Z</time></trkpt><trkpt lat="38.08106" lon="14.8445483"><ele>300.66666666666663</ele><time>2026-04-25T11:51:42.918Z</time></trkpt><trkpt lat="38.0811017" lon="14.8446283"><ele>297.5</ele><time>2026-04-25T11:51:43.918Z</time></trkpt><trkpt lat="38.0812133" lon="14.8446617"><ele>294.3333333333333</ele><time>2026-04-25T11:51:45.918Z</time></trkpt><trkpt lat="38.0812633" lon="14.844605"><ele>291.1666666666667</ele><time>2026-04-25T11:51:46.917Z</time></trkpt><trkpt lat="38.0813117" lon="14.8444967"><ele>288.0</ele><time>2026-04-25T11:51:47.918Z</time></trkpt><trkpt lat="38.0813383" lon="14.844345"><ele>291.8</ele><time>2026-04-25T11:51:48.918Z</time></trkpt><trkpt lat="38.081355" lon="14.8441933"><ele>295.6</ele><time>2026-04-25T11:51:49.918Z</time></trkpt><trkpt lat="38.0813983" lon="14.8440633"><ele>299.4</ele><time>2026-04-25T11:51:50.918Z</time></trkpt><trkpt lat="38.081445" lon="14.8439417"><ele>303.2</ele><time>2026-04-25T11:51:51.918Z</time></trkpt><trkpt lat="38.0815033" lon="14.8438417"><ele>307.0</ele><time>2026-04-25T11:51:52.918Z</time></trkpt><trkpt lat="38.0815733" lon="14.8437517"><ele>306.4</ele><time>2026-04-25T11:51:53.918Z</time></trkpt><trkpt lat="38.0816383" lon="14.8436633"><ele>305.79999999999995</ele><time>2026-04-25T11:51:54.918Z</time></trkpt><trkpt lat="38.0817067" lon="14.8435867"><ele>305.2</ele><time>2026-04-25T11:51:55.917Z</time></trkpt><trkpt lat="38.0817767" lon="14.8434933"><ele>304.59999999999997</ele><time>2026-04-25T11:51:56.918Z</time></trkpt><trkpt lat="38.0818517" lon="14.8434067"><ele>304.0</ele><time>2026-04-25T11:51:57.917Z</time></trkpt><trkpt lat="38.081925" lon="14.8433183"><ele>304.0</ele><time>2026-04-25T11:51:58.917Z</time></trkpt><trkpt lat="38.082005" lon="14.8432417"><ele>304.0</ele><time>2026-04-25T11:51:59.918Z</time></trkpt><trkpt lat="38.0820883" lon="14.84317"><ele>304.0</ele><time>2026-04-25T11:52:00.918Z</time></trkpt><trkpt lat="38.0821733" lon="14.843105"><ele>304.0</ele><time>2026-04-25T11:52:01.917Z</time></trkpt><trkpt lat="38.0822533" lon="14.8430333"><ele>304.0</ele><time>2026-04-25T11:52:02.918Z</time></trkpt><trkpt lat="38.082315" lon="14.842945"><ele>304.0</ele><time>2026-04-25T11:52:03.917Z</time></trkpt><trkpt lat="38.0823783" lon="14.8428483"><ele>304.0</ele><time>2026-04-25T11:52:04.917Z</time></trkpt><trkpt lat="38.0824317" lon="14.842775"><ele>304.0</ele><time>2026-04-25T11:52:05.918Z</time></trkpt><trkpt lat="38.0824833" lon="14.8427217"><ele>304.0</ele><time>2026-04-25T11:52:06.917Z</time></trkpt><trkpt lat="38.0825733" lon="14.8427283"><ele>304.0</ele><time>2026-04-25T11:52:08.917Z</time></trkpt><trkpt lat="38.0825533" lon="14.8428667"><ele>304.0</ele><time>2026-04-25T11:52:10.918Z</time></trkpt><trkpt lat="38.0825067" lon="14.84296"><ele>304.0</ele><time>2026-04-25T11:52:11.918Z</time></trkpt><trkpt lat="38.08246" lon="14.84305"><ele>304.0</ele><time>2026-04-25T11:52:12.918Z</time></trkpt><trkpt lat="38.082415" lon="14.8431467"><ele>304.0</ele><time>2026-04-25T11:52:13.917Z</time></trkpt><trkpt lat="38.0823633" lon="14.8432367"><ele>304.0</ele><time>2026-04-25T11:52:14.917Z</time></trkpt><trkpt lat="38.0823167" lon="14.8433283"><ele>304.0</ele><time>2026-04-25T11:52:15.918Z</time></trkpt><trkpt lat="38.082275" lon="14.84344"><ele>304.0</ele><time>2026-04-25T11:52:16.918Z</time></trkpt><trkpt lat="38.0822317" lon="14.8435567"><ele>301.59999999999997</ele><time>2026-04-25T11:52:17.918Z</time></trkpt><trkpt lat="38.082195" lon="14.8436783"><ele>299.2</ele><time>2026-04-25T11:52:18.917Z</time></trkpt><trkpt lat="38.082155" lon="14.843805"><ele>296.79999999999995</ele><time>2026-04-25T11:52:19.918Z</time></trkpt><trkpt lat="38.082115" lon="14.8439233"><ele>294.4</ele><time>2026-04-25T11:52:20.917Z</time></trkpt><trkpt lat="38.0820783" lon="14.8440467"><ele>292.0</ele><time>2026-04-25T11:52:21.918Z</time></trkpt><trkpt lat="38.0820517" lon="14.8441717"><ele>289.8</ele><time>2026-04-25T11:52:22.918Z</time></trkpt><trkpt lat="38.0820467" lon="14.8442983"><ele>287.6</ele><time>2026-04-25T11:52:23.917Z</time></trkpt><trkpt lat="38.082065" lon="14.8444367"><ele>285.40000000000003</ele><time>2026-04-25T11:52:24.917Z</time></trkpt><trkpt lat="38.0820817" lon="14.84456"><ele>283.2</ele><time>2026-04-25T11:52:25.918Z</time></trkpt><trkpt lat="38.0820967" lon="14.8446867"><ele>281.0</ele><time>2026-04-25T11:52:26.918Z</time></trkpt><trkpt lat="38.0821" lon="14.8448183"><ele>281.0</ele><time>2026-04-25T11:52:27.917Z</time></trkpt><trkpt lat="38.0820767" lon="14.8449583"><ele>281.0</ele><time>2026-04-25T11:52:28.917Z</time></trkpt><trkpt lat="38.0820383" lon="14.8450933"><ele>281.0</ele><time>2026-04-25T11:52:29.918Z</time></trkpt><trkpt lat="38.0820033" lon="14.8452283"><ele>281.0</ele><time>2026-04-25T11:52:30.918Z</time></trkpt><trkpt lat="38.0819783" lon="14.8453567"><ele>281.0</ele><time>2026-04-25T11:52:31.917Z</time></trkpt><trkpt lat="38.0819533" lon="14.8454933"><ele>276.5</ele><time>2026-04-25T11:52:32.918Z</time></trkpt><trkpt lat="38.0819417" lon="14.845645"><ele>272.0</ele><time>2026-04-25T11:52:33.918Z</time></trkpt><trkpt lat="38.0819317" lon="14.8458017"><ele>267.5</ele><time>2026-04-25T11:52:34.918Z</time></trkpt><trkpt lat="38.0819217" lon="14.84595"><ele>263.0</ele><time>2026-04-25T11:52:35.917Z</time></trkpt><trkpt lat="38.0819167" lon="14.8460983"><ele>261.8</ele><time>2026-04-25T11:52:36.918Z</time></trkpt><trkpt lat="38.0819133" lon="14.8462367"><ele>260.6</ele><time>2026-04-25T11:52:37.918Z</time></trkpt><trkpt lat="38.0819067" lon="14.846365"><ele>259.4</ele><time>2026-04-25T11:52:38.918Z</time></trkpt><trkpt lat="38.0819017" lon="14.8464917"><ele>258.2</ele><time>2026-04-25T11:52:39.917Z</time></trkpt><trkpt lat="38.0818717" lon="14.8466183"><ele>257.0</ele><time>2026-04-25T11:52:40.917Z</time></trkpt><trkpt lat="38.08182" lon="14.8467317"><ele>255.8</ele><time>2026-04-25T11:52:41.918Z</time></trkpt><trkpt lat="38.0817483" lon="14.8468433"><ele>254.6</ele><time>2026-04-25T11:52:42.917Z</time></trkpt><trkpt lat="38.0816667" lon="14.8469467"><ele>253.40000000000003</ele><time>2026-04-25T11:52:43.917Z</time></trkpt><trkpt lat="38.08159" lon="14.8470333"><ele>252.20000000000002</ele><time>2026-04-25T11:52:44.917Z</time></trkpt><trkpt lat="38.0815167" lon="14.8471183"><ele>251.0</ele><time>2026-04-25T11:52:45.917Z</time></trkpt><trkpt lat="38.081455" lon="14.84721"><ele>253.60000000000002</ele><time>2026-04-25T11:52:46.917Z</time></trkpt><trkpt lat="38.0814067" lon="14.8473183"><ele>256.20000000000005</ele><time>2026-04-25T11:52:47.918Z</time></trkpt><trkpt lat="38.0813767" lon="14.8474333"><ele>258.79999999999995</ele><time>2026-04-25T11:52:48.917Z</time></trkpt><trkpt lat="38.0813683" lon="14.8475467"><ele>261.4</ele><time>2026-04-25T11:52:49.918Z</time></trkpt><trkpt lat="38.081375" lon="14.847655"><ele>264.0</ele><time>2026-04-25T11:52:50.918Z</time></trkpt><trkpt lat="38.0813983" lon="14.8477617"><ele>264.0</ele><time>2026-04-25T11:52:51.918Z</time></trkpt><trkpt lat="38.0814283" lon="14.8478667"><ele>264.0</ele><time>2026-04-25T11:52:52.918Z</time></trkpt><trkpt lat="38.0814667" lon="14.8479767"><ele>264.0</ele><time>2026-04-25T11:52:53.918Z</time></trkpt><trkpt lat="38.0815033" lon="14.8480783"><ele>264.0</ele><time>2026-04-25T11:52:54.918Z</time></trkpt><trkpt lat="38.081525" lon="14.8481817"><ele>264.0</ele><time>2026-04-25T11:52:55.918Z</time></trkpt><trkpt lat="38.0815333" lon="14.848285"><ele>264.0</ele><time>2026-04-25T11:52:56.917Z</time></trkpt><trkpt lat="38.081515" lon="14.8483933"><ele>261.8</ele><time>2026-04-25T11:52:57.917Z</time></trkpt><trkpt lat="38.081465" lon="14.8484983"><ele>259.59999999999997</ele><time>2026-04-25T11:52:58.917Z</time></trkpt><trkpt lat="38.0813967" lon="14.8486033"><ele>257.4</ele><time>2026-04-25T11:52:59.917Z</time></trkpt><trkpt lat="38.0813217" lon="14.8487167"><ele>255.2</ele><time>2026-04-25T11:53:00.917Z</time></trkpt><trkpt lat="38.08125" lon="14.8488267"><ele>253.0</ele><time>2026-04-25T11:53:01.917Z</time></trkpt><trkpt lat="38.0811833" lon="14.8489367"><ele>253.0</ele><time>2026-04-25T11:53:02.918Z</time></trkpt><trkpt lat="38.0811217" lon="14.849045"><ele>253.0</ele><time>2026-04-25T11:53:03.918Z</time></trkpt><trkpt lat="38.081065" lon="14.849145"><ele>253.0</ele><time>2026-04-25T11:53:04.918Z</time></trkpt><trkpt lat="38.0810117" lon="14.849245"><ele>253.0</ele><time>2026-04-25T11:53:05.917Z</time></trkpt><trkpt lat="38.080975" lon="14.8493483"><ele>253.0</ele><time>2026-04-25T11:53:06.918Z</time></trkpt><trkpt lat="38.080955" lon="14.84946"><ele>252.0</ele><time>2026-04-25T11:53:07.918Z</time></trkpt><trkpt lat="38.0809567" lon="14.8495683"><ele>251.0</ele><time>2026-04-25T11:53:08.917Z</time></trkpt><trkpt lat="38.08098" lon="14.8496567"><ele>250.0</ele><time>2026-04-25T11:53:09.918Z</time></trkpt><trkpt lat="38.0810133" lon="14.849735"><ele>249.0</ele><time>2026-04-25T11:53:10.917Z</time></trkpt><trkpt lat="38.081065" lon="14.849865"><ele>248.0</ele><time>2026-04-25T11:53:12.918Z</time></trkpt><trkpt lat="38.0811333" lon="14.8499883"><ele>248.00000000000003</ele><time>2026-04-25T11:53:14.918Z</time></trkpt><trkpt lat="38.0812517" lon="14.8500017"><ele>248.0</ele><time>2026-04-25T11:53:16.917Z</time></trkpt><trkpt lat="38.081315" lon="14.849965"><ele>248.0</ele><time>2026-04-25T11:53:17.918Z</time></trkpt><trkpt lat="38.0813833" lon="14.8499333"><ele>248.0</ele><time>2026-04-25T11:53:18.917Z</time></trkpt><trkpt lat="38.0814583" lon="14.8499183"><ele>248.00000000000003</ele><time>2026-04-25T11:53:19.918Z</time></trkpt><trkpt lat="38.08154" lon="14.8499233"><ele>248.0</ele><time>2026-04-25T11:53:20.918Z</time></trkpt><trkpt lat="38.08162" lon="14.8499317"><ele>245.83333333333334</ele><time>2026-04-25T11:53:21.918Z</time></trkpt><trkpt lat="38.0817067" lon="14.8499533"><ele>243.66666666666669</ele><time>2026-04-25T11:53:22.917Z</time></trkpt><trkpt lat="38.0817933" lon="14.8499833"><ele>241.5</ele><time>2026-04-25T11:53:23.918Z</time></trkpt><trkpt lat="38.0818767" lon="14.8500033"><ele>239.33333333333331</ele><time>2026-04-25T11:53:24.918Z</time></trkpt><trkpt lat="38.08194" lon="14.8500183"><ele>237.16666666666666</ele><time>2026-04-25T11:53:25.918Z</time></trkpt><trkpt lat="38.0820167" lon="14.8500433"><ele>235.0</ele><time>2026-04-25T11:53:27.918Z</time></trkpt><trkpt lat="38.0820733" lon="14.8500967"><ele>235.0</ele><time>2026-04-25T11:53:29.917Z</time></trkpt><trkpt lat="38.0821517" lon="14.8501133"><ele>235.0</ele><time>2026-04-25T11:53:32.918Z</time></trkpt><trkpt lat="38.0821333" lon="14.8500083"><ele>235.0</ele><time>2026-04-25T11:53:35.918Z</time></trkpt><trkpt lat="38.0820117" lon="14.8499567"><ele>235.0</ele><time>2026-04-25T11:53:37.917Z</time></trkpt><trkpt lat="38.0819333" lon="14.8499367"><ele>235.0</ele><time>2026-04-25T11:53:38.918Z</time></trkpt><trkpt lat="38.0818567" lon="14.8499233"><ele>234.99999999999997</ele><time>2026-04-25T11:53:39.917Z</time></trkpt><trkpt lat="38.0817833" lon="14.84991"><ele>235.0</ele><time>2026-04-25T11:53:40.918Z</time></trkpt><trkpt lat="38.0817167" lon="14.8498933"><ele>235.0</ele><time>2026-04-25T11:53:41.917Z</time></trkpt><trkpt lat="38.0816067" lon="14.849845"><ele>235.0</ele><time>2026-04-25T11:53:43.918Z</time></trkpt><trkpt lat="38.08156" lon="14.8497433"><ele>234.99999999999997</ele><time>2026-04-25T11:53:45.917Z</time></trkpt><trkpt lat="38.0815633" lon="14.84966"><ele>235.0</ele><time>2026-04-25T11:53:46.918Z</time></trkpt><trkpt lat="38.0815867" lon="14.849555"><ele>235.0</ele><time>2026-04-25T11:53:47.918Z</time></trkpt><trkpt lat="38.0816117" lon="14.84944"><ele>235.0</ele><time>2026-04-25T11:53:48.918Z</time></trkpt><trkpt lat="38.0816383" lon="14.8493167"><ele>235.0</ele><time>2026-04-25T11:53:49.917Z</time></trkpt><trkpt lat="38.081675" lon="14.8491933"><ele>235.0</ele><time>2026-04-25T11:53:50.917Z</time></trkpt><trkpt lat="38.0817233" lon="14.8490783"><ele>235.0</ele><time>2026-04-25T11:53:51.917Z</time></trkpt><trkpt lat="38.0817883" lon="14.8489717"><ele>235.75</ele><time>2026-04-25T11:53:52.918Z</time></trkpt><trkpt lat="38.0818617" lon="14.8488617"><ele>236.5</ele><time>2026-04-25T11:53:53.918Z</time></trkpt><trkpt lat="38.0819417" lon="14.8487667"><ele>237.25</ele><time>2026-04-25T11:53:54.917Z</time></trkpt><trkpt lat="38.082035" lon="14.84867"><ele>238.0</ele><time>2026-04-25T11:53:55.918Z</time></trkpt><trkpt lat="38.0821333" lon="14.8485667"><ele>238.0</ele><time>2026-04-25T11:53:56.917Z</time></trkpt><trkpt lat="38.0822383" lon="14.848465"><ele>238.0</ele><time>2026-04-25T11:53:57.917Z</time></trkpt><trkpt lat="38.0823433" lon="14.8483633"><ele>238.0</ele><time>2026-04-25T11:53:58.918Z</time></trkpt><trkpt lat="38.0824567" lon="14.8482567"><ele>238.0</ele><time>2026-04-25T11:53:59.917Z</time></trkpt><trkpt lat="38.0825667" lon="14.848145"><ele>236.5</ele><time>2026-04-25T11:54:00.918Z</time></trkpt><trkpt lat="38.0826783" lon="14.8480433"><ele>235.0</ele><time>2026-04-25T11:54:01.918Z</time></trkpt><trkpt lat="38.0827833" lon="14.847945"><ele>233.5</ele><time>2026-04-25T11:54:02.918Z</time></trkpt><trkpt lat="38.0828833" lon="14.8478467"><ele>232.0</ele><time>2026-04-25T11:54:03.917Z</time></trkpt><trkpt lat="38.0829817" lon="14.84775"><ele>232.0</ele><time>2026-04-25T11:54:04.918Z</time></trkpt><trkpt lat="38.0830733" lon="14.847665"><ele>232.0</ele><time>2026-04-25T11:54:05.918Z</time></trkpt><trkpt lat="38.08316" lon="14.8475717"><ele>232.0</ele><time>2026-04-25T11:54:06.917Z</time></trkpt><trkpt lat="38.0832433" lon="14.84747"><ele>232.0</ele><time>2026-04-25T11:54:07.918Z</time></trkpt><trkpt lat="38.0833233" lon="14.8473483"><ele>230.25</ele><time>2026-04-25T11:54:08.917Z</time></trkpt><trkpt lat="38.0833983" lon="14.84721"><ele>228.5</ele><time>2026-04-25T11:54:09.918Z</time></trkpt><trkpt lat="38.0834617" lon="14.847055"><ele>226.75</ele><time>2026-04-25T11:54:10.917Z</time></trkpt><trkpt lat="38.0835133" lon="14.846885"><ele>225.0</ele><time>2026-04-25T11:54:11.918Z</time></trkpt><trkpt lat="38.0835467" lon="14.8467117"><ele>224.75</ele><time>2026-04-25T11:54:12.918Z</time></trkpt><trkpt lat="38.0835683" lon="14.84654"><ele>224.5</ele><time>2026-04-25T11:54:13.917Z</time></trkpt><trkpt lat="38.083585" lon="14.8463667"><ele>224.25</ele><time>2026-04-25T11:54:14.918Z</time></trkpt><trkpt lat="38.083595" lon="14.8461983"><ele>224.0</ele><time>2026-04-25T11:54:15.917Z</time></trkpt><trkpt lat="38.0835983" lon="14.8460167"><ele>222.5</ele><time>2026-04-25T11:54:16.917Z</time></trkpt><trkpt lat="38.083605" lon="14.8458333"><ele>221.0</ele><time>2026-04-25T11:54:17.916Z</time></trkpt><trkpt lat="38.0836117" lon="14.8456433"><ele>219.5</ele><time>2026-04-25T11:54:18.917Z</time></trkpt><trkpt lat="38.0836167" lon="14.8454533"><ele>218.0</ele><time>2026-04-25T11:54:19.916Z</time></trkpt><trkpt lat="38.0836217" lon="14.8452783"><ele>217.75</ele><time>2026-04-25T11:54:20.917Z</time></trkpt><trkpt lat="38.0836317" lon="14.8451083"><ele>217.5</ele><time>2026-04-25T11:54:21.917Z</time></trkpt><trkpt lat="38.0836417" lon="14.844945"><ele>217.25</ele><time>2026-04-25T11:54:22.916Z</time></trkpt><trkpt lat="38.083665" lon="14.844785"><ele>217.0</ele><time>2026-04-25T11:54:23.916Z</time></trkpt><trkpt lat="38.0836983" lon="14.8446283"><ele>217.0</ele><time>2026-04-25T11:54:24.916Z</time></trkpt><trkpt lat="38.08374" lon="14.8444783"><ele>217.0</ele><time>2026-04-25T11:54:25.917Z</time></trkpt><trkpt lat="38.0838" lon="14.8443317"><ele>217.0</ele><time>2026-04-25T11:54:26.917Z</time></trkpt><trkpt lat="38.083865" lon="14.8442"><ele>217.0</ele><time>2026-04-25T11:54:27.917Z</time></trkpt><trkpt lat="38.0839367" lon="14.8440717"><ele>215.75</ele><time>2026-04-25T11:54:28.916Z</time></trkpt><trkpt lat="38.0840183" lon="14.8439583"><ele>214.5</ele><time>2026-04-25T11:54:29.917Z</time></trkpt><trkpt lat="38.0841233" lon="14.84386"><ele>213.25</ele><time>2026-04-25T11:54:30.917Z</time></trkpt><trkpt lat="38.0842317" lon="14.8437767"><ele>212.0</ele><time>2026-04-25T11:54:31.917Z</time></trkpt><trkpt lat="38.0843533" lon="14.84371"><ele>212.0</ele><time>2026-04-25T11:54:32.917Z</time></trkpt><trkpt lat="38.084485" lon="14.8436467"><ele>212.0</ele><time>2026-04-25T11:54:33.916Z</time></trkpt><trkpt lat="38.0846267" lon="14.8435867"><ele>212.0</ele><time>2026-04-25T11:54:34.916Z</time></trkpt><trkpt lat="38.0847733" lon="14.8435217"><ele>212.0</ele><time>2026-04-25T11:54:35.917Z</time></trkpt><trkpt lat="38.0849233" lon="14.84346"><ele>214.33333333333334</ele><time>2026-04-25T11:54:36.917Z</time></trkpt><trkpt lat="38.0850833" lon="14.84341"><ele>216.66666666666669</ele><time>2026-04-25T11:54:37.916Z</time></trkpt><trkpt lat="38.085245" lon="14.8433583"><ele>219.0</ele><time>2026-04-25T11:54:38.916Z</time></trkpt><trkpt lat="38.0854017" lon="14.8433067"><ele>219.0</ele><time>2026-04-25T11:54:39.916Z</time></trkpt><trkpt lat="38.085555" lon="14.84325"><ele>219.0</ele><time>2026-04-25T11:54:40.916Z</time></trkpt><trkpt lat="38.08571" lon="14.8432017"><ele>219.0</ele><time>2026-04-25T11:54:41.917Z</time></trkpt><trkpt lat="38.0858567" lon="14.8431633"><ele>217.0</ele><time>2026-04-25T11:54:42.916Z</time></trkpt><trkpt lat="38.0859983" lon="14.8431433"><ele>215.0</ele><time>2026-04-25T11:54:43.917Z</time></trkpt><trkpt lat="38.08613" lon="14.8431333"><ele>213.0</ele><time>2026-04-25T11:54:44.916Z</time></trkpt><trkpt lat="38.0862567" lon="14.843115"><ele>211.0</ele><time>2026-04-25T11:54:45.917Z</time></trkpt><trkpt lat="38.08639" lon="14.8430983"><ele>211.0</ele><time>2026-04-25T11:54:46.917Z</time></trkpt><trkpt lat="38.0865233" lon="14.8430717"><ele>211.0</ele><time>2026-04-25T11:54:47.917Z</time></trkpt><trkpt lat="38.0866617" lon="14.843035"><ele>211.0</ele><time>2026-04-25T11:54:48.916Z</time></trkpt><trkpt lat="38.0868" lon="14.8429883"><ele>211.0</ele><time>2026-04-25T11:54:49.916Z</time></trkpt><trkpt lat="38.0869333" lon="14.84293"><ele>209.0</ele><time>2026-04-25T11:54:50.916Z</time></trkpt><trkpt lat="38.08707" lon="14.8428483"><ele>207.0</ele><time>2026-04-25T11:54:51.916Z</time></trkpt><trkpt lat="38.0872" lon="14.842745"><ele>205.0</ele><time>2026-04-25T11:54:52.916Z</time></trkpt><trkpt lat="38.0873367" lon="14.8426383"><ele>203.0</ele><time>2026-04-25T11:54:53.917Z</time></trkpt><trkpt lat="38.0874733" lon="14.84253"><ele>201.0</ele><time>2026-04-25T11:54:54.916Z</time></trkpt><trkpt lat="38.0876017" lon="14.8424"><ele>199.0</ele><time>2026-04-25T11:54:55.917Z</time></trkpt><trkpt lat="38.0877283" lon="14.8422667"><ele>199.0</ele><time>2026-04-25T11:54:56.916Z</time></trkpt><trkpt lat="38.0878517" lon="14.8421167"><ele>199.0</ele><time>2026-04-25T11:54:57.916Z</time></trkpt><trkpt lat="38.08796" lon="14.8419733"><ele>199.0</ele><time>2026-04-25T11:54:58.917Z</time></trkpt><trkpt lat="38.0880567" lon="14.8418183"><ele>200.33333333333331</ele><time>2026-04-25T11:54:59.917Z</time></trkpt><trkpt lat="38.0881383" lon="14.84164"><ele>201.66666666666669</ele><time>2026-04-25T11:55:00.916Z</time></trkpt><trkpt lat="38.0882117" lon="14.8414433"><ele>203.0</ele><time>2026-04-25T11:55:01.916Z</time></trkpt><trkpt lat="38.0882667" lon="14.8412367"><ele>199.0</ele><time>2026-04-25T11:55:02.917Z</time></trkpt><trkpt lat="38.08831" lon="14.84103"><ele>195.0</ele><time>2026-04-25T11:55:03.916Z</time></trkpt><trkpt lat="38.0883433" lon="14.8408133"><ele>191.0</ele><time>2026-04-25T11:55:04.916Z</time></trkpt><trkpt lat="38.0883767" lon="14.8406017"><ele>191.0</ele><time>2026-04-25T11:55:05.917Z</time></trkpt><trkpt lat="38.088415" lon="14.84039"><ele>191.0</ele><time>2026-04-25T11:55:06.917Z</time></trkpt><trkpt lat="38.0884533" lon="14.8401767"><ele>191.0</ele><time>2026-04-25T11:55:07.917Z</time></trkpt><trkpt lat="38.0884917" lon="14.8399683"><ele>191.0</ele><time>2026-04-25T11:55:08.917Z</time></trkpt><trkpt lat="38.088535" lon="14.83976"><ele>191.0</ele><time>2026-04-25T11:55:09.917Z</time></trkpt><trkpt lat="38.0885717" lon="14.8395583"><ele>191.0</ele><time>2026-04-25T11:55:10.917Z</time></trkpt><trkpt lat="38.0886133" lon="14.8393617"><ele>193.0</ele><time>2026-04-25T11:55:11.916Z</time></trkpt><trkpt lat="38.0886683" lon="14.8391633"><ele>195.0</ele><time>2026-04-25T11:55:12.916Z</time></trkpt><trkpt lat="38.0887233" lon="14.8389617"><ele>197.0</ele><time>2026-04-25T11:55:13.917Z</time></trkpt><trkpt lat="38.0887883" lon="14.838765"><ele>197.0</ele><time>2026-04-25T11:55:14.917Z</time></trkpt><trkpt lat="38.08886" lon="14.83856"><ele>197.0</ele><time>2026-04-25T11:55:15.917Z</time></trkpt><trkpt lat="38.0889283" lon="14.8383567"><ele>197.0</ele><time>2026-04-25T11:55:16.916Z</time></trkpt><trkpt lat="38.0890017" lon="14.8381567"><ele>193.0</ele><time>2026-04-25T11:55:17.917Z</time></trkpt><trkpt lat="38.089075" lon="14.837955"><ele>189.0</ele><time>2026-04-25T11:55:18.917Z</time></trkpt><trkpt lat="38.089145" lon="14.837745"><ele>185.0</ele><time>2026-04-25T11:55:19.916Z</time></trkpt><trkpt lat="38.0892133" lon="14.8375383"><ele>185.0</ele><time>2026-04-25T11:55:20.917Z</time></trkpt><trkpt lat="38.0892783" lon="14.8373267"><ele>185.0</ele><time>2026-04-25T11:55:21.917Z</time></trkpt><trkpt lat="38.089345" lon="14.8371133"><ele>185.0</ele><time>2026-04-25T11:55:22.917Z</time></trkpt><trkpt lat="38.0894117" lon="14.8369017"><ele>187.66666666666666</ele><time>2026-04-25T11:55:23.917Z</time></trkpt><trkpt lat="38.08948" lon="14.8366883"><ele>190.33333333333331</ele><time>2026-04-25T11:55:24.916Z</time></trkpt><trkpt lat="38.0895533" lon="14.8364783"><ele>193.0</ele><time>2026-04-25T11:55:25.917Z</time></trkpt><trkpt lat="38.0896183" lon="14.8362683"><ele>193.0</ele><time>2026-04-25T11:55:26.917Z</time></trkpt><trkpt lat="38.089685" lon="14.83607"><ele>193.0</ele><time>2026-04-25T11:55:27.916Z</time></trkpt><trkpt lat="38.089755" lon="14.8358517"><ele>193.0</ele><time>2026-04-25T11:55:28.917Z</time></trkpt><trkpt lat="38.0898383" lon="14.835645"><ele>192.33333333333331</ele><time>2026-04-25T11:55:29.916Z</time></trkpt><trkpt lat="38.08993" lon="14.83543"><ele>191.66666666666666</ele><time>2026-04-25T11:55:30.916Z</time></trkpt><trkpt lat="38.09003" lon="14.8352483"><ele>191.0</ele><time>2026-04-25T11:55:31.916Z</time></trkpt><trkpt lat="38.0901483" lon="14.83507"><ele>191.0</ele><time>2026-04-25T11:55:32.916Z</time></trkpt><trkpt lat="38.090275" lon="14.8348883"><ele>191.0</ele><time>2026-04-25T11:55:33.916Z</time></trkpt><trkpt lat="38.0903933" lon="14.8347167"><ele>191.0</ele><time>2026-04-25T11:55:34.917Z</time></trkpt><trkpt lat="38.0905167" lon="14.8345367"><ele>191.0</ele><time>2026-04-25T11:55:35.916Z</time></trkpt><trkpt lat="38.09063" lon="14.8343567"><ele>191.0</ele><time>2026-04-25T11:55:36.917Z</time></trkpt><trkpt lat="38.0907433" lon="14.834175"><ele>191.0</ele><time>2026-04-25T11:55:37.917Z</time></trkpt><trkpt lat="38.0908617" lon="14.8339867"><ele>187.0</ele><time>2026-04-25T11:55:38.917Z</time></trkpt><trkpt lat="38.090975" lon="14.8337983"><ele>183.0</ele><time>2026-04-25T11:55:39.917Z</time></trkpt><trkpt lat="38.0910967" lon="14.8336217"><ele>179.0</ele><time>2026-04-25T11:55:40.917Z</time></trkpt><trkpt lat="38.0912117" lon="14.8334467"><ele>179.0</ele><time>2026-04-25T11:55:41.916Z</time></trkpt><trkpt lat="38.09132" lon="14.8332717"><ele>179.0</ele><time>2026-04-25T11:55:42.917Z</time></trkpt><trkpt lat="38.0914283" lon="14.833095"><ele>179.0</ele><time>2026-04-25T11:55:43.917Z</time></trkpt><trkpt lat="38.09154" lon="14.8329233"><ele>175.0</ele><time>2026-04-25T11:55:44.917Z</time></trkpt><trkpt lat="38.0916517" lon="14.8327617"><ele>171.0</ele><time>2026-04-25T11:55:45.917Z</time></trkpt><trkpt lat="38.0917517" lon="14.832605"><ele>167.0</ele><time>2026-04-25T11:55:46.917Z</time></trkpt><trkpt lat="38.0918617" lon="14.83245"><ele>165.66666666666666</ele><time>2026-04-25T11:55:47.916Z</time></trkpt><trkpt lat="38.0919667" lon="14.8322983"><ele>164.33333333333334</ele><time>2026-04-25T11:55:48.917Z</time></trkpt><trkpt lat="38.0920733" lon="14.8321533"><ele>163.0</ele><time>2026-04-25T11:55:49.916Z</time></trkpt><trkpt lat="38.0921917" lon="14.832005"><ele>163.0</ele><time>2026-04-25T11:55:50.917Z</time></trkpt><trkpt lat="38.092305" lon="14.8318517"><ele>163.0</ele><time>2026-04-25T11:55:51.917Z</time></trkpt><trkpt lat="38.0924183" lon="14.831695"><ele>163.0</ele><time>2026-04-25T11:55:52.917Z</time></trkpt><trkpt lat="38.0925317" lon="14.83154"><ele>163.0</ele><time>2026-04-25T11:55:53.917Z</time></trkpt><trkpt lat="38.092645" lon="14.8313833"><ele>163.0</ele><time>2026-04-25T11:55:54.916Z</time></trkpt><trkpt lat="38.0927733" lon="14.831235"><ele>163.0</ele><time>2026-04-25T11:55:55.916Z</time></trkpt><trkpt lat="38.0928933" lon="14.8310767"><ele>163.66666666666669</ele><time>2026-04-25T11:55:56.917Z</time></trkpt><trkpt lat="38.0930167" lon="14.83092"><ele>164.33333333333334</ele><time>2026-04-25T11:55:57.917Z</time></trkpt><trkpt lat="38.0931383" lon="14.8307633"><ele>165.0</ele><time>2026-04-25T11:55:58.916Z</time></trkpt><trkpt lat="38.09326" lon="14.8306067"><ele>162.0</ele><time>2026-04-25T11:55:59.917Z</time></trkpt><trkpt lat="38.0933733" lon="14.83045"><ele>159.0</ele><time>2026-04-25T11:56:00.917Z</time></trkpt><trkpt lat="38.093495" lon="14.8303"><ele>156.0</ele><time>2026-04-25T11:56:01.916Z</time></trkpt><trkpt lat="38.0936183" lon="14.83015"><ele>156.66666666666666</ele><time>2026-04-25T11:56:02.916Z</time></trkpt><trkpt lat="38.0937567" lon="14.8300183"><ele>157.33333333333331</ele><time>2026-04-25T11:56:03.917Z</time></trkpt><trkpt lat="38.0938983" lon="14.829905"><ele>158.0</ele><time>2026-04-25T11:56:04.916Z</time></trkpt><trkpt lat="38.0940483" lon="14.8298017"><ele>156.0</ele><time>2026-04-25T11:56:05.916Z</time></trkpt><trkpt lat="38.0942017" lon="14.8297133"><ele>154.0</ele><time>2026-04-25T11:56:06.917Z</time></trkpt><trkpt lat="38.094355" lon="14.82964"><ele>152.0</ele><time>2026-04-25T11:56:07.917Z</time></trkpt><trkpt lat="38.0945167" lon="14.8295733"><ele>152.0</ele><time>2026-04-25T11:56:08.917Z</time></trkpt><trkpt lat="38.0946817" lon="14.82953"><ele>152.0</ele><time>2026-04-25T11:56:09.916Z</time></trkpt><trkpt lat="38.0948583" lon="14.829485"><ele>152.0</ele><time>2026-04-25T11:56:10.917Z</time></trkpt><trkpt lat="38.0950317" lon="14.8294367"><ele>151.0</ele><time>2026-04-25T11:56:11.916Z</time></trkpt><trkpt lat="38.0951983" lon="14.82938"><ele>150.0</ele><time>2026-04-25T11:56:12.917Z</time></trkpt><trkpt lat="38.0953633" lon="14.8293333"><ele>149.0</ele><time>2026-04-25T11:56:13.917Z</time></trkpt><trkpt lat="38.0955217" lon="14.8292817"><ele>148.33333333333331</ele><time>2026-04-25T11:56:14.917Z</time></trkpt><trkpt lat="38.09567" lon="14.8292233"><ele>147.66666666666666</ele><time>2026-04-25T11:56:15.916Z</time></trkpt><trkpt lat="38.0958233" lon="14.82915"><ele>147.0</ele><time>2026-04-25T11:56:16.916Z</time></trkpt><trkpt lat="38.0959667" lon="14.8290617"><ele>147.0</ele><time>2026-04-25T11:56:17.917Z</time></trkpt><trkpt lat="38.0960983" lon="14.8289533"><ele>147.0</ele><time>2026-04-25T11:56:18.917Z</time></trkpt><trkpt lat="38.0962217" lon="14.8288233"><ele>147.0</ele><time>2026-04-25T11:56:19.917Z</time></trkpt><trkpt lat="38.0963367" lon="14.8286717"><ele>147.0</ele><time>2026-04-25T11:56:20.917Z</time></trkpt><trkpt lat="38.0964383" lon="14.8285"><ele>147.0</ele><time>2026-04-25T11:56:21.916Z</time></trkpt><trkpt lat="38.0965267" lon="14.8283167"><ele>147.0</ele><time>2026-04-25T11:56:22.917Z</time></trkpt><trkpt lat="38.0965983" lon="14.82812"><ele>146.66666666666666</ele><time>2026-04-25T11:56:23.917Z</time></trkpt><trkpt lat="38.0966533" lon="14.8279083"><ele>146.33333333333331</ele><time>2026-04-25T11:56:24.917Z</time></trkpt><trkpt lat="38.0966833" lon="14.8276883"><ele>146.0</ele><time>2026-04-25T11:56:25.917Z</time></trkpt><trkpt lat="38.0967083" lon="14.827465"><ele>144.33333333333331</ele><time>2026-04-25T11:56:26.916Z</time></trkpt><trkpt lat="38.096725" lon="14.8272417"><ele>142.66666666666666</ele><time>2026-04-25T11:56:27.916Z</time></trkpt><trkpt lat="38.09674" lon="14.8270183"><ele>141.0</ele><time>2026-04-25T11:56:28.917Z</time></trkpt><trkpt lat="38.0967567" lon="14.826795"><ele>140.33333333333334</ele><time>2026-04-25T11:56:29.917Z</time></trkpt><trkpt lat="38.096775" lon="14.82657"><ele>139.66666666666669</ele><time>2026-04-25T11:56:30.917Z</time></trkpt><trkpt lat="38.0967917" lon="14.8263517"><ele>139.0</ele><time>2026-04-25T11:56:31.916Z</time></trkpt><trkpt lat="38.0968083" lon="14.82613"><ele>138.66666666666669</ele><time>2026-04-25T11:56:32.917Z</time></trkpt><trkpt lat="38.0968433" lon="14.8259167"><ele>138.33333333333334</ele><time>2026-04-25T11:56:33.917Z</time></trkpt><trkpt lat="38.09688" lon="14.825695"><ele>138.0</ele><time>2026-04-25T11:56:34.917Z</time></trkpt><trkpt lat="38.09693" lon="14.8254717"><ele>138.0</ele><time>2026-04-25T11:56:35.916Z</time></trkpt><trkpt lat="38.0969883" lon="14.82525"><ele>138.0</ele><time>2026-04-25T11:56:36.917Z</time></trkpt><trkpt lat="38.09706" lon="14.825025"><ele>138.0</ele><time>2026-04-25T11:56:37.916Z</time></trkpt><trkpt lat="38.0971417" lon="14.8248117"><ele>137.66666666666666</ele><time>2026-04-25T11:56:38.917Z</time></trkpt><trkpt lat="38.0972267" lon="14.8246"><ele>137.33333333333331</ele><time>2026-04-25T11:56:39.916Z</time></trkpt><trkpt lat="38.0973183" lon="14.8244017"><ele>137.0</ele><time>2026-04-25T11:56:40.917Z</time></trkpt><trkpt lat="38.0974083" lon="14.8242083"><ele>135.0</ele><time>2026-04-25T11:56:41.916Z</time></trkpt><trkpt lat="38.0975017" lon="14.8240167"><ele>133.0</ele><time>2026-04-25T11:56:42.916Z</time></trkpt><trkpt lat="38.09759" lon="14.8238183"><ele>131.0</ele><time>2026-04-25T11:56:43.916Z</time></trkpt><trkpt lat="38.097685" lon="14.8236283"><ele>130.66666666666666</ele><time>2026-04-25T11:56:44.917Z</time></trkpt><trkpt lat="38.0977783" lon="14.82345"><ele>130.33333333333334</ele><time>2026-04-25T11:56:45.917Z</time></trkpt><trkpt lat="38.0978817" lon="14.82328"><ele>130.0</ele><time>2026-04-25T11:56:46.917Z</time></trkpt><trkpt lat="38.0979967" lon="14.823125"><ele>130.0</ele><time>2026-04-25T11:56:47.916Z</time></trkpt><trkpt lat="38.0981233" lon="14.822985"><ele>130.0</ele><time>2026-04-25T11:56:48.916Z</time></trkpt><trkpt lat="38.09826" lon="14.8228667"><ele>130.0</ele><time>2026-04-25T11:56:49.917Z</time></trkpt><trkpt lat="38.098395" lon="14.82276"><ele>130.0</ele><time>2026-04-25T11:56:50.917Z</time></trkpt><trkpt lat="38.0985433" lon="14.8226817"><ele>130.0</ele><time>2026-04-25T11:56:51.916Z</time></trkpt><trkpt lat="38.0987033" lon="14.8226083"><ele>130.0</ele><time>2026-04-25T11:56:52.916Z</time></trkpt><trkpt lat="38.0988617" lon="14.8225467"><ele>130.0</ele><time>2026-04-25T11:56:53.917Z</time></trkpt><trkpt lat="38.0990333" lon="14.822505"><ele>130.0</ele><time>2026-04-25T11:56:54.917Z</time></trkpt><trkpt lat="38.0992" lon="14.8224533"><ele>130.0</ele><time>2026-04-25T11:56:55.917Z</time></trkpt><trkpt lat="38.0993717" lon="14.8223967"><ele>129.0</ele><time>2026-04-25T11:56:56.917Z</time></trkpt><trkpt lat="38.0995417" lon="14.8223383"><ele>128.0</ele><time>2026-04-25T11:56:57.917Z</time></trkpt><trkpt lat="38.0997183" lon="14.8222817"><ele>127.0</ele><time>2026-04-25T11:56:58.916Z</time></trkpt><trkpt lat="38.0998967" lon="14.822225"><ele>125.0</ele><time>2026-04-25T11:56:59.917Z</time></trkpt><trkpt lat="38.1000717" lon="14.8221567"><ele>123.0</ele><time>2026-04-25T11:57:00.917Z</time></trkpt><trkpt lat="38.1002383" lon="14.8220767"><ele>121.0</ele><time>2026-04-25T11:57:01.917Z</time></trkpt><trkpt lat="38.1004" lon="14.8219733"><ele>121.0</ele><time>2026-04-25T11:57:02.917Z</time></trkpt><trkpt lat="38.1005383" lon="14.8218383"><ele>121.0</ele><time>2026-04-25T11:57:03.916Z</time></trkpt><trkpt lat="38.100665" lon="14.8216867"><ele>121.0</ele><time>2026-04-25T11:57:04.917Z</time></trkpt><trkpt lat="38.1007767" lon="14.82152"><ele>121.0</ele><time>2026-04-25T11:57:05.916Z</time></trkpt><trkpt lat="38.1008767" lon="14.8213367"><ele>121.0</ele><time>2026-04-25T11:57:06.917Z</time></trkpt><trkpt lat="38.10097" lon="14.8211383"><ele>121.0</ele><time>2026-04-25T11:57:07.916Z</time></trkpt><trkpt lat="38.1010567" lon="14.820935"><ele>120.33333333333334</ele><time>2026-04-25T11:57:08.917Z</time></trkpt><trkpt lat="38.1011533" lon="14.8207417"><ele>119.66666666666666</ele><time>2026-04-25T11:57:09.917Z</time></trkpt><trkpt lat="38.1012517" lon="14.82054"><ele>119.0</ele><time>2026-04-25T11:57:10.917Z</time></trkpt><trkpt lat="38.1013483" lon="14.820335"><ele>119.0</ele><time>2026-04-25T11:57:11.917Z</time></trkpt><trkpt lat="38.1014483" lon="14.8201283"><ele>119.0</ele><time>2026-04-25T11:57:12.917Z</time></trkpt><trkpt lat="38.1015417" lon="14.81992"><ele>119.0</ele><time>2026-04-25T11:57:13.916Z</time></trkpt><trkpt lat="38.101635" lon="14.8197167"><ele>117.66666666666666</ele><time>2026-04-25T11:57:14.917Z</time></trkpt><trkpt lat="38.1017333" lon="14.819515"><ele>116.33333333333334</ele><time>2026-04-25T11:57:15.917Z</time></trkpt><trkpt lat="38.10183" lon="14.8193133"><ele>115.0</ele><time>2026-04-25T11:57:16.916Z</time></trkpt><trkpt lat="38.1019333" lon="14.8191083"><ele>118.0</ele><time>2026-04-25T11:57:17.916Z</time></trkpt><trkpt lat="38.102035" lon="14.8189167"><ele>121.0</ele><time>2026-04-25T11:57:18.917Z</time></trkpt><trkpt lat="38.102135" lon="14.8187133"><ele>124.0</ele><time>2026-04-25T11:57:19.916Z</time></trkpt><trkpt lat="38.1022383" lon="14.8185083"><ele>127.66666666666667</ele><time>2026-04-25T11:57:20.916Z</time></trkpt><trkpt lat="38.10234" lon="14.8183033"><ele>131.33333333333334</ele><time>2026-04-25T11:57:21.916Z</time></trkpt><trkpt lat="38.1024467" lon="14.8181033"><ele>135.0</ele><time>2026-04-25T11:57:22.917Z</time></trkpt><trkpt lat="38.10255" lon="14.817905"><ele>127.66666666666666</ele><time>2026-04-25T11:57:23.917Z</time></trkpt><trkpt lat="38.1026567" lon="14.8177133"><ele>120.33333333333333</ele><time>2026-04-25T11:57:24.916Z</time></trkpt><trkpt lat="38.1027633" lon="14.8175167"><ele>113.0</ele><time>2026-04-25T11:57:25.917Z</time></trkpt><trkpt lat="38.1028767" lon="14.8173217"><ele>112.66666666666666</ele><time>2026-04-25T11:57:26.917Z</time></trkpt><trkpt lat="38.1029783" lon="14.817115"><ele>112.33333333333334</ele><time>2026-04-25T11:57:27.917Z</time></trkpt><trkpt lat="38.10308" lon="14.816925"><ele>112.0</ele><time>2026-04-25T11:57:28.917Z</time></trkpt><trkpt lat="38.1031733" lon="14.8167233"><ele>110.66666666666667</ele><time>2026-04-25T11:57:29.916Z</time></trkpt><trkpt lat="38.1032733" lon="14.8165267"><ele>109.33333333333334</ele><time>2026-04-25T11:57:30.916Z</time></trkpt><trkpt lat="38.103375" lon="14.8163183"><ele>108.0</ele><time>2026-04-25T11:57:31.916Z</time></trkpt><trkpt lat="38.10347" lon="14.8161183"><ele>108.33333333333334</ele><time>2026-04-25T11:57:32.916Z</time></trkpt><trkpt lat="38.1035633" lon="14.8159117"><ele>108.66666666666667</ele><time>2026-04-25T11:57:33.916Z</time></trkpt><trkpt lat="38.1036533" lon="14.815705"><ele>109.0</ele><time>2026-04-25T11:57:34.917Z</time></trkpt><trkpt lat="38.10374" lon="14.8154933"><ele>109.0</ele><time>2026-04-25T11:57:35.917Z</time></trkpt><trkpt lat="38.103835" lon="14.81529"><ele>109.0</ele><time>2026-04-25T11:57:36.917Z</time></trkpt><trkpt lat="38.1039267" lon="14.8150833"><ele>109.0</ele><time>2026-04-25T11:57:37.917Z</time></trkpt><trkpt lat="38.1040167" lon="14.814885"><ele>109.33333333333334</ele><time>2026-04-25T11:57:38.916Z</time></trkpt><trkpt lat="38.10411" lon="14.8146767"><ele>109.66666666666666</ele><time>2026-04-25T11:57:39.916Z</time></trkpt><trkpt lat="38.1041933" lon="14.8144717"><ele>110.0</ele><time>2026-04-25T11:57:40.917Z</time></trkpt><trkpt lat="38.1042933" lon="14.81427"><ele>110.0</ele><time>2026-04-25T11:57:41.916Z</time></trkpt><trkpt lat="38.1043917" lon="14.8140717"><ele>110.0</ele><time>2026-04-25T11:57:42.917Z</time></trkpt><trkpt lat="38.104495" lon="14.8138733"><ele>110.0</ele><time>2026-04-25T11:57:43.917Z</time></trkpt><trkpt lat="38.1046017" lon="14.81368"><ele>110.0</ele><time>2026-04-25T11:57:44.917Z</time></trkpt><trkpt lat="38.1046967" lon="14.8134967"><ele>110.0</ele><time>2026-04-25T11:57:45.916Z</time></trkpt><trkpt lat="38.1047967" lon="14.813325"><ele>110.0</ele><time>2026-04-25T11:57:46.917Z</time></trkpt><trkpt lat="38.1048983" lon="14.8131733"><ele>107.66666666666666</ele><time>2026-04-25T11:57:47.917Z</time></trkpt><trkpt lat="38.105005" lon="14.8130233"><ele>105.33333333333334</ele><time>2026-04-25T11:57:48.916Z</time></trkpt><trkpt lat="38.1051217" lon="14.8128883"><ele>103.0</ele><time>2026-04-25T11:57:49.917Z</time></trkpt><trkpt lat="38.1052567" lon="14.8127833"><ele>103.0</ele><time>2026-04-25T11:57:50.917Z</time></trkpt><trkpt lat="38.1054083" lon="14.8126833"><ele>103.0</ele><time>2026-04-25T11:57:51.916Z</time></trkpt><trkpt lat="38.1055533" lon="14.81258"><ele>103.0</ele><time>2026-04-25T11:57:52.917Z</time></trkpt><trkpt lat="38.1057017" lon="14.81247"><ele>102.0</ele><time>2026-04-25T11:57:53.916Z</time></trkpt><trkpt lat="38.10585" lon="14.812365"><ele>101.0</ele><time>2026-04-25T11:57:54.917Z</time></trkpt><trkpt lat="38.106" lon="14.8122483"><ele>100.0</ele><time>2026-04-25T11:57:55.916Z</time></trkpt><trkpt lat="38.1061333" lon="14.8121183"><ele>100.0</ele><time>2026-04-25T11:57:56.916Z</time></trkpt><trkpt lat="38.106265" lon="14.8119583"><ele>100.0</ele><time>2026-04-25T11:57:57.917Z</time></trkpt><trkpt lat="38.1063817" lon="14.8117917"><ele>100.0</ele><time>2026-04-25T11:57:58.916Z</time></trkpt><trkpt lat="38.1065133" lon="14.8116217"><ele>98.0</ele><time>2026-04-25T11:57:59.916Z</time></trkpt><trkpt lat="38.1066133" lon="14.8114433"><ele>96.0</ele><time>2026-04-25T11:58:00.917Z</time></trkpt><trkpt lat="38.1067217" lon="14.811255"><ele>94.0</ele><time>2026-04-25T11:58:01.916Z</time></trkpt><trkpt lat="38.1068067" lon="14.8110417"><ele>94.33333333333333</ele><time>2026-04-25T11:58:02.917Z</time></trkpt><trkpt lat="38.10689" lon="14.8108217"><ele>94.66666666666667</ele><time>2026-04-25T11:58:03.916Z</time></trkpt><trkpt lat="38.1069683" lon="14.8106"><ele>95.0</ele><time>2026-04-25T11:58:04.916Z</time></trkpt><trkpt lat="38.1070467" lon="14.81037"><ele>94.66666666666667</ele><time>2026-04-25T11:58:05.916Z</time></trkpt><trkpt lat="38.1071267" lon="14.8101483"><ele>94.33333333333333</ele><time>2026-04-25T11:58:06.917Z</time></trkpt><trkpt lat="38.1072" lon="14.809935"><ele>94.0</ele><time>2026-04-25T11:58:07.917Z</time></trkpt><trkpt lat="38.1072717" lon="14.8097183"><ele>94.0</ele><time>2026-04-25T11:58:08.916Z</time></trkpt><trkpt lat="38.1073433" lon="14.80951"><ele>94.0</ele><time>2026-04-25T11:58:09.916Z</time></trkpt><trkpt lat="38.1074233" lon="14.80929"><ele>94.0</ele><time>2026-04-25T11:58:10.917Z</time></trkpt><trkpt lat="38.1074983" lon="14.8090833"><ele>92.0</ele><time>2026-04-25T11:58:11.916Z</time></trkpt><trkpt lat="38.1075767" lon="14.8088767"><ele>90.0</ele><time>2026-04-25T11:58:12.916Z</time></trkpt><trkpt lat="38.10766" lon="14.8086817"><ele>88.0</ele><time>2026-04-25T11:58:13.916Z</time></trkpt><trkpt lat="38.1077417" lon="14.8084733"><ele>88.0</ele><time>2026-04-25T11:58:14.916Z</time></trkpt><trkpt lat="38.107825" lon="14.80827"><ele>88.0</ele><time>2026-04-25T11:58:15.916Z</time></trkpt><trkpt lat="38.1079067" lon="14.8080583"><ele>88.0</ele><time>2026-04-25T11:58:16.917Z</time></trkpt><trkpt lat="38.1079967" lon="14.8078467"><ele>88.33333333333333</ele><time>2026-04-25T11:58:17.917Z</time></trkpt><trkpt lat="38.10808" lon="14.8076417"><ele>88.66666666666667</ele><time>2026-04-25T11:58:18.917Z</time></trkpt><trkpt lat="38.1081633" lon="14.80743"><ele>89.0</ele><time>2026-04-25T11:58:19.916Z</time></trkpt><trkpt lat="38.1082517" lon="14.8072267"><ele>89.0</ele><time>2026-04-25T11:58:20.916Z</time></trkpt><trkpt lat="38.1083367" lon="14.8070167"><ele>89.0</ele><time>2026-04-25T11:58:21.916Z</time></trkpt><trkpt lat="38.1084217" lon="14.8068067"><ele>89.0</ele><time>2026-04-25T11:58:22.917Z</time></trkpt><trkpt lat="38.108505" lon="14.8066"><ele>89.0</ele><time>2026-04-25T11:58:23.916Z</time></trkpt><trkpt lat="38.1085883" lon="14.8063917"><ele>89.0</ele><time>2026-04-25T11:58:24.917Z</time></trkpt><trkpt lat="38.1086783" lon="14.8061833"><ele>89.0</ele><time>2026-04-25T11:58:25.916Z</time></trkpt><trkpt lat="38.1087617" lon="14.8059833"><ele>90.0</ele><time>2026-04-25T11:58:26.917Z</time></trkpt><trkpt lat="38.10884" lon="14.8057983"><ele>91.0</ele><time>2026-04-25T11:58:27.916Z</time></trkpt><trkpt lat="38.108915" lon="14.8056117"><ele>92.0</ele><time>2026-04-25T11:58:28.917Z</time></trkpt><trkpt lat="38.1089917" lon="14.805435"><ele>89.66666666666667</ele><time>2026-04-25T11:58:29.917Z</time></trkpt><trkpt lat="38.10908" lon="14.8052617"><ele>87.33333333333333</ele><time>2026-04-25T11:58:30.916Z</time></trkpt><trkpt lat="38.1091833" lon="14.8050883"><ele>85.0</ele><time>2026-04-25T11:58:31.916Z</time></trkpt><trkpt lat="38.1092933" lon="14.804945"><ele>85.0</ele><time>2026-04-25T11:58:32.917Z</time></trkpt><trkpt lat="38.1094217" lon="14.8048083"><ele>85.0</ele><time>2026-04-25T11:58:33.917Z</time></trkpt><trkpt lat="38.1095733" lon="14.8046983"><ele>85.0</ele><time>2026-04-25T11:58:34.917Z</time></trkpt><trkpt lat="38.109735" lon="14.804595"><ele>85.0</ele><time>2026-04-25T11:58:35.917Z</time></trkpt><trkpt lat="38.1098983" lon="14.8044817"><ele>85.0</ele><time>2026-04-25T11:58:36.917Z</time></trkpt><trkpt lat="38.110055" lon="14.80436"><ele>85.0</ele><time>2026-04-25T11:58:37.917Z</time></trkpt><trkpt lat="38.11022" lon="14.8042367"><ele>83.66666666666666</ele><time>2026-04-25T11:58:38.916Z</time></trkpt><trkpt lat="38.110385" lon="14.8041167"><ele>82.33333333333333</ele><time>2026-04-25T11:58:39.917Z</time></trkpt><trkpt lat="38.1105467" lon="14.8039983"><ele>81.0</ele><time>2026-04-25T11:58:40.916Z</time></trkpt><trkpt lat="38.1107117" lon="14.803885"><ele>80.0</ele><time>2026-04-25T11:58:41.917Z</time></trkpt><trkpt lat="38.1108717" lon="14.8037967"><ele>79.0</ele><time>2026-04-25T11:58:42.916Z</time></trkpt><trkpt lat="38.11104" lon="14.803725"><ele>78.0</ele><time>2026-04-25T11:58:43.916Z</time></trkpt><trkpt lat="38.1112083" lon="14.8036667"><ele>78.0</ele><time>2026-04-25T11:58:44.916Z</time></trkpt><trkpt lat="38.1113833" lon="14.8036417"><ele>78.0</ele><time>2026-04-25T11:58:45.917Z</time></trkpt><trkpt lat="38.1115617" lon="14.8036333"><ele>78.0</ele><time>2026-04-25T11:58:46.916Z</time></trkpt><trkpt lat="38.1117483" lon="14.8036483"><ele>77.33333333333333</ele><time>2026-04-25T11:58:47.917Z</time></trkpt><trkpt lat="38.1119417" lon="14.803665"><ele>76.66666666666666</ele><time>2026-04-25T11:58:48.917Z</time></trkpt><trkpt lat="38.1121417" lon="14.8036867"><ele>76.0</ele><time>2026-04-25T11:58:49.917Z</time></trkpt><trkpt lat="38.1123267" lon="14.80371"><ele>75.0</ele><time>2026-04-25T11:58:50.917Z</time></trkpt><trkpt lat="38.1125083" lon="14.8037317"><ele>74.0</ele><time>2026-04-25T11:58:51.916Z</time></trkpt><trkpt lat="38.112695" lon="14.8037517"><ele>73.0</ele><time>2026-04-25T11:58:52.916Z</time></trkpt><trkpt lat="38.1128767" lon="14.8037617"><ele>73.0</ele><time>2026-04-25T11:58:53.917Z</time></trkpt><trkpt lat="38.113045" lon="14.80377"><ele>73.0</ele><time>2026-04-25T11:58:54.916Z</time></trkpt><trkpt lat="38.1132083" lon="14.8037917"><ele>73.0</ele><time>2026-04-25T11:58:55.916Z</time></trkpt><trkpt lat="38.1133667" lon="14.8038117"><ele>73.0</ele><time>2026-04-25T11:58:56.917Z</time></trkpt><trkpt lat="38.1135117" lon="14.8038433"><ele>73.0</ele><time>2026-04-25T11:58:57.917Z</time></trkpt><trkpt lat="38.1136533" lon="14.803905"><ele>73.0</ele><time>2026-04-25T11:58:58.916Z</time></trkpt><trkpt lat="38.1138017" lon="14.804015"><ele>73.0</ele><time>2026-04-25T11:58:59.917Z</time></trkpt><trkpt lat="38.11394" lon="14.8041567"><ele>73.0</ele><time>2026-04-25T11:59:00.917Z</time></trkpt><trkpt lat="38.1140817" lon="14.8043067"><ele>73.0</ele><time>2026-04-25T11:59:01.916Z</time></trkpt><trkpt lat="38.114215" lon="14.804455"><ele>73.0</ele><time>2026-04-25T11:59:02.916Z</time></trkpt><trkpt lat="38.1143533" lon="14.80461"><ele>73.0</ele><time>2026-04-25T11:59:03.917Z</time></trkpt><trkpt lat="38.1144817" lon="14.8047583"><ele>73.0</ele><time>2026-04-25T11:59:04.917Z</time></trkpt><trkpt lat="38.1146083" lon="14.8049083"><ele>73.0</ele><time>2026-04-25T11:59:05.917Z</time></trkpt><trkpt lat="38.1147517" lon="14.8050633"><ele>73.0</ele><time>2026-04-25T11:59:06.917Z</time></trkpt><trkpt lat="38.1148867" lon="14.8052183"><ele>73.0</ele><time>2026-04-25T11:59:07.916Z</time></trkpt><trkpt lat="38.1150267" lon="14.8053783"><ele>72.0</ele><time>2026-04-25T11:59:08.917Z</time></trkpt><trkpt lat="38.11517" lon="14.80554"><ele>71.0</ele><time>2026-04-25T11:59:09.916Z</time></trkpt><trkpt lat="38.11532" lon="14.805685"><ele>70.0</ele><time>2026-04-25T11:59:10.916Z</time></trkpt><trkpt lat="38.1154683" lon="14.8058317"><ele>70.0</ele><time>2026-04-25T11:59:11.916Z</time></trkpt><trkpt lat="38.1156317" lon="14.805965"><ele>70.0</ele><time>2026-04-25T11:59:12.916Z</time></trkpt><trkpt lat="38.1158" lon="14.8060817"><ele>70.0</ele><time>2026-04-25T11:59:13.916Z</time></trkpt><trkpt lat="38.1159783" lon="14.80619"><ele>68.33333333333333</ele><time>2026-04-25T11:59:14.917Z</time></trkpt><trkpt lat="38.1161617" lon="14.8062767"><ele>66.66666666666667</ele><time>2026-04-25T11:59:15.916Z</time></trkpt><trkpt lat="38.1163467" lon="14.80636"><ele>65.0</ele><time>2026-04-25T11:59:16.917Z</time></trkpt><trkpt lat="38.1165383" lon="14.8064383"><ele>65.33333333333334</ele><time>2026-04-25T11:59:17.917Z</time></trkpt><trkpt lat="38.1167267" lon="14.806505"><ele>65.66666666666667</ele><time>2026-04-25T11:59:18.917Z</time></trkpt><trkpt lat="38.1169167" lon="14.8065767"><ele>66.0</ele><time>2026-04-25T11:59:19.917Z</time></trkpt><trkpt lat="38.1171033" lon="14.8066433"><ele>66.0</ele><time>2026-04-25T11:59:20.917Z</time></trkpt><trkpt lat="38.1172883" lon="14.8067133"><ele>66.0</ele><time>2026-04-25T11:59:21.916Z</time></trkpt><trkpt lat="38.1174667" lon="14.8067867"><ele>66.0</ele><time>2026-04-25T11:59:22.917Z</time></trkpt><trkpt lat="38.11765" lon="14.8068533"><ele>68.0</ele><time>2026-04-25T11:59:23.916Z</time></trkpt><trkpt lat="38.1178283" lon="14.8069233"><ele>70.0</ele><time>2026-04-25T11:59:24.916Z</time></trkpt><trkpt lat="38.1180167" lon="14.8070067"><ele>72.0</ele><time>2026-04-25T11:59:25.916Z</time></trkpt><trkpt lat="38.1182033" lon="14.8070783"><ele>69.33333333333333</ele><time>2026-04-25T11:59:26.916Z</time></trkpt><trkpt lat="38.1183867" lon="14.8071467"><ele>66.66666666666666</ele><time>2026-04-25T11:59:27.917Z</time></trkpt><trkpt lat="38.118565" lon="14.8072067"><ele>64.0</ele><time>2026-04-25T11:59:28.917Z</time></trkpt><trkpt lat="38.1187583" lon="14.80727"><ele>64.0</ele><time>2026-04-25T11:59:29.917Z</time></trkpt><trkpt lat="38.11895" lon="14.8073317"><ele>64.0</ele><time>2026-04-25T11:59:30.916Z</time></trkpt><trkpt lat="38.1191283" lon="14.80739"><ele>64.0</ele><time>2026-04-25T11:59:31.917Z</time></trkpt><trkpt lat="38.1193067" lon="14.80744"><ele>62.666666666666664</ele><time>2026-04-25T11:59:32.916Z</time></trkpt><trkpt lat="38.119485" lon="14.8074817"><ele>61.33333333333333</ele><time>2026-04-25T11:59:33.916Z</time></trkpt><trkpt lat="38.119665" lon="14.80751"><ele>60.0</ele><time>2026-04-25T11:59:34.917Z</time></trkpt><trkpt lat="38.1198483" lon="14.8075217"><ele>60.0</ele><time>2026-04-25T11:59:35.916Z</time></trkpt><trkpt lat="38.1200317" lon="14.8075167"><ele>60.0</ele><time>2026-04-25T11:59:36.916Z</time></trkpt><trkpt lat="38.1202267" lon="14.807495"><ele>60.0</ele><time>2026-04-25T11:59:37.917Z</time></trkpt><trkpt lat="38.1204117" lon="14.80747"><ele>60.0</ele><time>2026-04-25T11:59:38.917Z</time></trkpt><trkpt lat="38.1205933" lon="14.8074383"><ele>60.0</ele><time>2026-04-25T11:59:39.917Z</time></trkpt><trkpt lat="38.1207583" lon="14.8073817"><ele>60.0</ele><time>2026-04-25T11:59:40.917Z</time></trkpt><trkpt lat="38.120925" lon="14.8072967"><ele>60.0</ele><time>2026-04-25T11:59:41.917Z</time></trkpt><trkpt lat="38.1210967" lon="14.807195"><ele>60.0</ele><time>2026-04-25T11:59:42.917Z</time></trkpt><trkpt lat="38.1212667" lon="14.80708"><ele>60.0</ele><time>2026-04-25T11:59:43.916Z</time></trkpt><trkpt lat="38.1214383" lon="14.8069567"><ele>60.66666666666667</ele><time>2026-04-25T11:59:44.917Z</time></trkpt><trkpt lat="38.12161" lon="14.80684"><ele>61.333333333333336</ele><time>2026-04-25T11:59:45.916Z</time></trkpt><trkpt lat="38.12179" lon="14.80672"><ele>62.0</ele><time>2026-04-25T11:59:46.917Z</time></trkpt><trkpt lat="38.1219667" lon="14.8066033"><ele>60.66666666666667</ele><time>2026-04-25T11:59:47.916Z</time></trkpt><trkpt lat="38.1221417" lon="14.80648"><ele>59.33333333333333</ele><time>2026-04-25T11:59:48.917Z</time></trkpt><trkpt lat="38.12231" lon="14.8063517"><ele>58.0</ele><time>2026-04-25T11:59:49.916Z</time></trkpt><trkpt lat="38.1224817" lon="14.80623"><ele>57.33333333333333</ele><time>2026-04-25T11:59:50.916Z</time></trkpt><trkpt lat="38.1226667" lon="14.806115"><ele>56.66666666666667</ele><time>2026-04-25T11:59:51.916Z</time></trkpt><trkpt lat="38.1228433" lon="14.805995"><ele>56.0</ele><time>2026-04-25T11:59:52.917Z</time></trkpt><trkpt lat="38.1230167" lon="14.8058717"><ele>56.0</ele><time>2026-04-25T11:59:53.917Z</time></trkpt><trkpt lat="38.1231917" lon="14.8057533"><ele>56.0</ele><time>2026-04-25T11:59:54.917Z</time></trkpt><trkpt lat="38.1233667" lon="14.8056367"><ele>56.0</ele><time>2026-04-25T11:59:55.917Z</time></trkpt><trkpt lat="38.123535" lon="14.8055233"><ele>54.333333333333336</ele><time>2026-04-25T11:59:56.917Z</time></trkpt><trkpt lat="38.123705" lon="14.80541"><ele>52.66666666666667</ele><time>2026-04-25T11:59:57.917Z</time></trkpt><trkpt lat="38.123875" lon="14.8052967"><ele>51.0</ele><time>2026-04-25T11:59:58.917Z</time></trkpt><trkpt lat="38.1240433" lon="14.8051733"><ele>51.33333333333333</ele><time>2026-04-25T11:59:59.917Z</time></trkpt><trkpt lat="38.1242067" lon="14.8050517"><ele>51.666666666666664</ele><time>2026-04-25T12:00:00.917Z</time></trkpt><trkpt lat="38.1243717" lon="14.80494"><ele>52.0</ele><time>2026-04-25T12:00:01.916Z</time></trkpt><trkpt lat="38.1245383" lon="14.8048267"><ele>52.0</ele><time>2026-04-25T12:00:02.916Z</time></trkpt><trkpt lat="38.124705" lon="14.804715"><ele>52.0</ele><time>2026-04-25T12:00:03.916Z</time></trkpt><trkpt lat="38.1248683" lon="14.8046067"><ele>52.0</ele><time>2026-04-25T12:00:04.917Z</time></trkpt><trkpt lat="38.1250333" lon="14.8045"><ele>52.0</ele><time>2026-04-25T12:00:05.916Z</time></trkpt><trkpt lat="38.1251967" lon="14.8043833"><ele>52.0</ele><time>2026-04-25T12:00:06.917Z</time></trkpt><trkpt lat="38.1253667" lon="14.80427"><ele>52.0</ele><time>2026-04-25T12:00:07.916Z</time></trkpt><trkpt lat="38.125535" lon="14.804155"><ele>52.0</ele><time>2026-04-25T12:00:08.917Z</time></trkpt><trkpt lat="38.1257" lon="14.8040417"><ele>52.0</ele><time>2026-04-25T12:00:09.917Z</time></trkpt><trkpt lat="38.1258617" lon="14.8039267"><ele>52.0</ele><time>2026-04-25T12:00:10.917Z</time></trkpt><trkpt lat="38.1260233" lon="14.8038233"><ele>50.33333333333333</ele><time>2026-04-25T12:00:11.917Z</time></trkpt><trkpt lat="38.1261817" lon="14.8037133"><ele>48.666666666666664</ele><time>2026-04-25T12:00:12.917Z</time></trkpt><trkpt lat="38.12634" lon="14.8036017"><ele>47.0</ele><time>2026-04-25T12:00:13.917Z</time></trkpt><trkpt lat="38.1265067" lon="14.8034967"><ele>47.666666666666664</ele><time>2026-04-25T12:00:14.917Z</time></trkpt><trkpt lat="38.12666" lon="14.8034167"><ele>48.33333333333333</ele><time>2026-04-25T12:00:15.916Z</time></trkpt><trkpt lat="38.12681" lon="14.8033517"><ele>49.0</ele><time>2026-04-25T12:00:16.917Z</time></trkpt><trkpt lat="38.1269617" lon="14.8033183"><ele>49.0</ele><time>2026-04-25T12:00:17.916Z</time></trkpt><trkpt lat="38.1271233" lon="14.8033167"><ele>49.0</ele><time>2026-04-25T12:00:18.916Z</time></trkpt><trkpt lat="38.12729" lon="14.8033567"><ele>49.0</ele><time>2026-04-25T12:00:19.916Z</time></trkpt><trkpt lat="38.1274617" lon="14.8034117"><ele>48.666666666666664</ele><time>2026-04-25T12:00:20.917Z</time></trkpt><trkpt lat="38.1276317" lon="14.8034717"><ele>48.33333333333333</ele><time>2026-04-25T12:00:21.917Z</time></trkpt><trkpt lat="38.12781" lon="14.8035467"><ele>48.0</ele><time>2026-04-25T12:00:22.916Z</time></trkpt><trkpt lat="38.127985" lon="14.803635"><ele>47.666666666666664</ele><time>2026-04-25T12:00:23.917Z</time></trkpt><trkpt lat="38.1281583" lon="14.8037383"><ele>47.33333333333333</ele><time>2026-04-25T12:00:24.916Z</time></trkpt><trkpt lat="38.1283317" lon="14.803845"><ele>47.0</ele><time>2026-04-25T12:00:25.917Z</time></trkpt><trkpt lat="38.1285017" lon="14.8039533"><ele>45.33333333333333</ele><time>2026-04-25T12:00:26.917Z</time></trkpt><trkpt lat="38.1286683" lon="14.80406"><ele>43.666666666666664</ele><time>2026-04-25T12:00:27.916Z</time></trkpt><trkpt lat="38.1288367" lon="14.8041767"><ele>42.0</ele><time>2026-04-25T12:00:28.917Z</time></trkpt><trkpt lat="38.1290017" lon="14.8042917"><ele>42.0</ele><time>2026-04-25T12:00:29.917Z</time></trkpt><trkpt lat="38.1291717" lon="14.8044033"><ele>42.0</ele><time>2026-04-25T12:00:30.917Z</time></trkpt><trkpt lat="38.129345" lon="14.8045017"><ele>42.0</ele><time>2026-04-25T12:00:31.916Z</time></trkpt><trkpt lat="38.12952" lon="14.8046033"><ele>42.0</ele><time>2026-04-25T12:00:32.917Z</time></trkpt><trkpt lat="38.1297" lon="14.8047"><ele>42.0</ele><time>2026-04-25T12:00:33.917Z</time></trkpt><trkpt lat="38.1298833" lon="14.8047967"><ele>42.0</ele><time>2026-04-25T12:00:34.917Z</time></trkpt><trkpt lat="38.130075" lon="14.8048817"><ele>41.333333333333336</ele><time>2026-04-25T12:00:35.917Z</time></trkpt><trkpt lat="38.130265" lon="14.8049533"><ele>40.66666666666667</ele><time>2026-04-25T12:00:36.916Z</time></trkpt><trkpt lat="38.1304567" lon="14.805005"><ele>40.0</ele><time>2026-04-25T12:00:37.917Z</time></trkpt><trkpt lat="38.1306467" lon="14.8050433"><ele>39.66666666666667</ele><time>2026-04-25T12:00:38.917Z</time></trkpt><trkpt lat="38.13084" lon="14.805075"><ele>39.333333333333336</ele><time>2026-04-25T12:00:39.917Z</time></trkpt><trkpt lat="38.1310317" lon="14.8050967"><ele>39.0</ele><time>2026-04-25T12:00:40.917Z</time></trkpt><trkpt lat="38.1312233" lon="14.8051033"><ele>39.0</ele><time>2026-04-25T12:00:41.916Z</time></trkpt><trkpt lat="38.1314067" lon="14.8051"><ele>39.0</ele><time>2026-04-25T12:00:42.916Z</time></trkpt><trkpt lat="38.1315933" lon="14.8050933"><ele>39.0</ele><time>2026-04-25T12:00:43.916Z</time></trkpt><trkpt lat="38.1317733" lon="14.8050833"><ele>39.333333333333336</ele><time>2026-04-25T12:00:44.916Z</time></trkpt><trkpt lat="38.1319617" lon="14.8050733"><ele>39.66666666666667</ele><time>2026-04-25T12:00:45.917Z</time></trkpt><trkpt lat="38.1321433" lon="14.8050533"><ele>40.0</ele><time>2026-04-25T12:00:46.917Z</time></trkpt><trkpt lat="38.1323367" lon="14.805025"><ele>39.333333333333336</ele><time>2026-04-25T12:00:47.916Z</time></trkpt><trkpt lat="38.132525" lon="14.8049933"><ele>38.666666666666664</ele><time>2026-04-25T12:00:48.917Z</time></trkpt><trkpt lat="38.13272" lon="14.8049633"><ele>38.0</ele><time>2026-04-25T12:00:49.916Z</time></trkpt><trkpt lat="38.1329067" lon="14.8049283"><ele>38.0</ele><time>2026-04-25T12:00:50.917Z</time></trkpt><trkpt lat="38.133095" lon="14.8048933"><ele>38.0</ele><time>2026-04-25T12:00:51.916Z</time></trkpt><trkpt lat="38.1332883" lon="14.8048633"><ele>38.0</ele><time>2026-04-25T12:00:52.917Z</time></trkpt><trkpt lat="38.1334833" lon="14.8048283"><ele>37.33333333333333</ele><time>2026-04-25T12:00:53.916Z</time></trkpt><trkpt lat="38.1336717" lon="14.8047883"><ele>36.666666666666664</ele><time>2026-04-25T12:00:54.917Z</time></trkpt><trkpt lat="38.1338583" lon="14.8047483"><ele>36.0</ele><time>2026-04-25T12:00:55.916Z</time></trkpt><trkpt lat="38.13405" lon="14.8047117"><ele>35.666666666666664</ele><time>2026-04-25T12:00:56.917Z</time></trkpt><trkpt lat="38.1342483" lon="14.8046783"><ele>35.33333333333333</ele><time>2026-04-25T12:00:57.916Z</time></trkpt><trkpt lat="38.134445" lon="14.8046433"><ele>35.0</ele><time>2026-04-25T12:00:58.917Z</time></trkpt><trkpt lat="38.1346367" lon="14.804615"><ele>35.0</ele><time>2026-04-25T12:00:59.917Z</time></trkpt><trkpt lat="38.1348283" lon="14.8045783"><ele>35.0</ele><time>2026-04-25T12:01:00.917Z</time></trkpt><trkpt lat="38.1350167" lon="14.8045333"><ele>35.0</ele><time>2026-04-25T12:01:01.916Z</time></trkpt><trkpt lat="38.1352083" lon="14.8044967"><ele>35.0</ele><time>2026-04-25T12:01:02.917Z</time></trkpt><trkpt lat="38.1354067" lon="14.8044667"><ele>35.0</ele><time>2026-04-25T12:01:03.916Z</time></trkpt><trkpt lat="38.1355983" lon="14.8044383"><ele>35.0</ele><time>2026-04-25T12:01:04.917Z</time></trkpt><trkpt lat="38.1357917" lon="14.8044083"><ele>34.0</ele><time>2026-04-25T12:01:05.916Z</time></trkpt><trkpt lat="38.1359833" lon="14.80438"><ele>33.0</ele><time>2026-04-25T12:01:06.917Z</time></trkpt><trkpt lat="38.1361733" lon="14.8043533"><ele>32.0</ele><time>2026-04-25T12:01:07.917Z</time></trkpt><trkpt lat="38.1363767" lon="14.80433"><ele>32.33333333333333</ele><time>2026-04-25T12:01:08.916Z</time></trkpt><trkpt lat="38.13658" lon="14.8043017"><ele>32.666666666666664</ele><time>2026-04-25T12:01:09.916Z</time></trkpt><trkpt lat="38.1367767" lon="14.8042783"><ele>33.0</ele><time>2026-04-25T12:01:10.916Z</time></trkpt><trkpt lat="38.1369683" lon="14.80425"><ele>33.0</ele><time>2026-04-25T12:01:11.917Z</time></trkpt><trkpt lat="38.1371567" lon="14.8042217"><ele>33.0</ele><time>2026-04-25T12:01:12.917Z</time></trkpt><trkpt lat="38.1373467" lon="14.80419"><ele>33.0</ele><time>2026-04-25T12:01:13.917Z</time></trkpt><trkpt lat="38.137545" lon="14.8041683"><ele>31.666666666666664</ele><time>2026-04-25T12:01:14.916Z</time></trkpt><trkpt lat="38.137745" lon="14.8041433"><ele>30.333333333333332</ele><time>2026-04-25T12:01:15.916Z</time></trkpt><trkpt lat="38.13795" lon="14.80412"><ele>29.0</ele><time>2026-04-25T12:01:16.916Z</time></trkpt><trkpt lat="38.138145" lon="14.80409"><ele>28.0</ele><time>2026-04-25T12:01:17.916Z</time></trkpt><trkpt lat="38.13834" lon="14.8040617"><ele>27.0</ele><time>2026-04-25T12:01:18.916Z</time></trkpt><trkpt lat="38.1385283" lon="14.8040333"><ele>26.0</ele><time>2026-04-25T12:01:19.917Z</time></trkpt><trkpt lat="38.1387217" lon="14.8040117"><ele>26.0</ele><time>2026-04-25T12:01:20.917Z</time></trkpt><trkpt lat="38.138925" lon="14.803985"><ele>26.0</ele><time>2026-04-25T12:01:21.917Z</time></trkpt><trkpt lat="38.1391267" lon="14.8039633"><ele>26.0</ele><time>2026-04-25T12:01:22.916Z</time></trkpt><trkpt lat="38.139325" lon="14.8039367"><ele>26.666666666666664</ele><time>2026-04-25T12:01:23.917Z</time></trkpt><trkpt lat="38.139515" lon="14.8039067"><ele>27.333333333333336</ele><time>2026-04-25T12:01:24.917Z</time></trkpt><trkpt lat="38.1397117" lon="14.8038783"><ele>28.0</ele><time>2026-04-25T12:01:25.917Z</time></trkpt><trkpt lat="38.139905" lon="14.80385"><ele>28.0</ele><time>2026-04-25T12:01:26.917Z</time></trkpt><trkpt lat="38.1400883" lon="14.803815"><ele>28.0</ele><time>2026-04-25T12:01:27.916Z</time></trkpt><trkpt lat="38.1402717" lon="14.803785"><ele>28.0</ele><time>2026-04-25T12:01:28.917Z</time></trkpt><trkpt lat="38.1404617" lon="14.8037617"><ele>28.0</ele><time>2026-04-25T12:01:29.917Z</time></trkpt><trkpt lat="38.1406567" lon="14.803735"><ele>28.0</ele><time>2026-04-25T12:01:30.917Z</time></trkpt><trkpt lat="38.14085" lon="14.8037067"><ele>28.0</ele><time>2026-04-25T12:01:31.917Z</time></trkpt><trkpt lat="38.141045" lon="14.803665"><ele>27.666666666666668</ele><time>2026-04-25T12:01:32.917Z</time></trkpt><trkpt lat="38.141235" lon="14.8036233"><ele>27.333333333333336</ele><time>2026-04-25T12:01:33.917Z</time></trkpt><trkpt lat="38.1414217" lon="14.8035717"><ele>27.0</ele><time>2026-04-25T12:01:34.916Z</time></trkpt><trkpt lat="38.14162" lon="14.8035233"><ele>27.333333333333336</ele><time>2026-04-25T12:01:35.916Z</time></trkpt><trkpt lat="38.1418067" lon="14.8034883"><ele>27.666666666666668</ele><time>2026-04-25T12:01:36.916Z</time></trkpt><trkpt lat="38.1419967" lon="14.803445"><ele>28.0</ele><time>2026-04-25T12:01:37.916Z</time></trkpt><trkpt lat="38.14219" lon="14.8034033"><ele>26.333333333333336</ele><time>2026-04-25T12:01:38.917Z</time></trkpt><trkpt lat="38.14239" lon="14.8033533"><ele>24.666666666666668</ele><time>2026-04-25T12:01:39.917Z</time></trkpt><trkpt lat="38.1425883" lon="14.803305"><ele>23.0</ele><time>2026-04-25T12:01:40.917Z</time></trkpt><trkpt lat="38.1427817" lon="14.8032483"><ele>23.0</ele><time>2026-04-25T12:01:41.916Z</time></trkpt><trkpt lat="38.1429667" lon="14.8032017"><ele>23.0</ele><time>2026-04-25T12:01:42.917Z</time></trkpt><trkpt lat="38.143155" lon="14.803155"><ele>23.0</ele><time>2026-04-25T12:01:43.916Z</time></trkpt><trkpt lat="38.1433517" lon="14.8031083"><ele>23.0</ele><time>2026-04-25T12:01:44.917Z</time></trkpt><trkpt lat="38.14354" lon="14.80306"><ele>23.0</ele><time>2026-04-25T12:01:45.916Z</time></trkpt><trkpt lat="38.1437317" lon="14.8030217"><ele>23.0</ele><time>2026-04-25T12:01:46.917Z</time></trkpt><trkpt lat="38.143925" lon="14.8029767"><ele>22.0</ele><time>2026-04-25T12:01:47.916Z</time></trkpt><trkpt lat="38.1441083" lon="14.8029333"><ele>21.0</ele><time>2026-04-25T12:01:48.916Z</time></trkpt><trkpt lat="38.14429" lon="14.80289"><ele>20.0</ele><time>2026-04-25T12:01:49.917Z</time></trkpt><trkpt lat="38.1444683" lon="14.802835"><ele>20.0</ele><time>2026-04-25T12:01:50.916Z</time></trkpt><trkpt lat="38.1446467" lon="14.8027933"><ele>20.0</ele><time>2026-04-25T12:01:51.917Z</time></trkpt><trkpt lat="38.1448283" lon="14.8027383"><ele>20.0</ele><time>2026-04-25T12:01:52.917Z</time></trkpt><trkpt lat="38.145" lon="14.8026783"><ele>19.666666666666668</ele><time>2026-04-25T12:01:53.916Z</time></trkpt><trkpt lat="38.1451767" lon="14.8026033"><ele>19.333333333333332</ele><time>2026-04-25T12:01:54.916Z</time></trkpt><trkpt lat="38.1453633" lon="14.80254"><ele>19.0</ele><time>2026-04-25T12:01:55.917Z</time></trkpt><trkpt lat="38.1455467" lon="14.8025033"><ele>18.333333333333332</ele><time>2026-04-25T12:01:56.916Z</time></trkpt><trkpt lat="38.1457217" lon="14.80245"><ele>17.666666666666668</ele><time>2026-04-25T12:01:57.917Z</time></trkpt><trkpt lat="38.1458983" lon="14.8023867"><ele>17.0</ele><time>2026-04-25T12:01:58.917Z</time></trkpt><trkpt lat="38.1460933" lon="14.8023267"><ele>17.0</ele><time>2026-04-25T12:01:59.916Z</time></trkpt><trkpt lat="38.14628" lon="14.8022717"><ele>17.0</ele><time>2026-04-25T12:02:00.917Z</time></trkpt><trkpt lat="38.1464617" lon="14.802205"><ele>17.0</ele><time>2026-04-25T12:02:01.916Z</time></trkpt><trkpt lat="38.1466567" lon="14.80215"><ele>17.0</ele><time>2026-04-25T12:02:02.917Z</time></trkpt><trkpt lat="38.1468467" lon="14.8020933"><ele>17.0</ele><time>2026-04-25T12:02:03.917Z</time></trkpt><trkpt lat="38.1470267" lon="14.802035"><ele>17.0</ele><time>2026-04-25T12:02:04.917Z</time></trkpt><trkpt lat="38.1471917" lon="14.8019817"><ele>17.0</ele><time>2026-04-25T12:02:05.916Z</time></trkpt><trkpt lat="38.1473567" lon="14.8019333"><ele>17.0</ele><time>2026-04-25T12:02:06.917Z</time></trkpt><trkpt lat="38.147525" lon="14.8018833"><ele>17.0</ele><time>2026-04-25T12:02:07.916Z</time></trkpt><trkpt lat="38.1476817" lon="14.8018367"><ele>17.25</ele><time>2026-04-25T12:02:08.917Z</time></trkpt><trkpt lat="38.1478283" lon="14.8017933"><ele>17.5</ele><time>2026-04-25T12:02:09.917Z</time></trkpt><trkpt lat="38.1479717" lon="14.8017517"><ele>17.75</ele><time>2026-04-25T12:02:10.917Z</time></trkpt><trkpt lat="38.148105" lon="14.8017117"><ele>18.0</ele><time>2026-04-25T12:02:11.917Z</time></trkpt><trkpt lat="38.1482233" lon="14.8016667"><ele>17.6</ele><time>2026-04-25T12:02:12.917Z</time></trkpt><trkpt lat="38.148335" lon="14.8016233"><ele>17.200000000000003</ele><time>2026-04-25T12:02:13.916Z</time></trkpt><trkpt lat="38.148435" lon="14.8015833"><ele>16.8</ele><time>2026-04-25T12:02:14.917Z</time></trkpt><trkpt lat="38.1485217" lon="14.801545"><ele>16.400000000000002</ele><time>2026-04-25T12:02:15.916Z</time></trkpt><trkpt lat="38.14859" lon="14.80151"><ele>16.0</ele><time>2026-04-25T12:02:16.917Z</time></trkpt><trkpt lat="38.1487117" lon="14.8015133"><ele>16.0</ele><time>2026-04-25T12:02:18.916Z</time></trkpt><trkpt lat="38.1487617" lon="14.8015717"><ele>16.0</ele><time>2026-04-25T12:02:19.916Z</time></trkpt><trkpt lat="38.1487983" lon="14.8016617"><ele>16.0</ele><time>2026-04-25T12:02:20.916Z</time></trkpt><trkpt lat="38.148825" lon="14.801775"><ele>16.0</ele><time>2026-04-25T12:02:21.916Z</time></trkpt><trkpt lat="38.1488467" lon="14.80191"><ele>16.0</ele><time>2026-04-25T12:02:22.916Z</time></trkpt><trkpt lat="38.14887" lon="14.8020567"><ele>15.0</ele><time>2026-04-25T12:02:23.915Z</time></trkpt><trkpt lat="38.1489" lon="14.8022083"><ele>14.0</ele><time>2026-04-25T12:02:24.915Z</time></trkpt><trkpt lat="38.14893" lon="14.8023633"><ele>13.0</ele><time>2026-04-25T12:02:25.916Z</time></trkpt><trkpt lat="38.1489583" lon="14.8025183"><ele>12.0</ele><time>2026-04-25T12:02:26.916Z</time></trkpt><trkpt lat="38.1489883" lon="14.80267"><ele>12.0</ele><time>2026-04-25T12:02:27.915Z</time></trkpt><trkpt lat="38.14902" lon="14.8028267"><ele>12.0</ele><time>2026-04-25T12:02:28.915Z</time></trkpt><trkpt lat="38.1490517" lon="14.802985"><ele>12.0</ele><time>2026-04-25T12:02:29.916Z</time></trkpt><trkpt lat="38.149085" lon="14.803145"><ele>12.0</ele><time>2026-04-25T12:02:30.916Z</time></trkpt><trkpt lat="38.1491267" lon="14.8033117"><ele>12.25</ele><time>2026-04-25T12:02:31.916Z</time></trkpt><trkpt lat="38.1491617" lon="14.8034767"><ele>12.5</ele><time>2026-04-25T12:02:32.915Z</time></trkpt><trkpt lat="38.1491983" lon="14.8036417"><ele>12.75</ele><time>2026-04-25T12:02:33.916Z</time></trkpt><trkpt lat="38.1492333" lon="14.8038217"><ele>13.0</ele><time>2026-04-25T12:02:34.915Z</time></trkpt><trkpt lat="38.1492683" lon="14.8040017"><ele>13.0</ele><time>2026-04-25T12:02:35.916Z</time></trkpt><trkpt lat="38.1493083" lon="14.80418"><ele>13.0</ele><time>2026-04-25T12:02:36.915Z</time></trkpt><trkpt lat="38.1493483" lon="14.8043533"><ele>13.0</ele><time>2026-04-25T12:02:37.915Z</time></trkpt><trkpt lat="38.14939" lon="14.80453"><ele>13.0</ele><time>2026-04-25T12:02:38.916Z</time></trkpt><trkpt lat="38.149425" lon="14.80471"><ele>13.75</ele><time>2026-04-25T12:02:39.916Z</time></trkpt><trkpt lat="38.1494633" lon="14.8048783"><ele>14.5</ele><time>2026-04-25T12:02:40.916Z</time></trkpt><trkpt lat="38.1494983" lon="14.805055"><ele>15.25</ele><time>2026-04-25T12:02:41.916Z</time></trkpt><trkpt lat="38.14953" lon="14.8052217"><ele>16.0</ele><time>2026-04-25T12:02:42.916Z</time></trkpt><trkpt lat="38.1495567" lon="14.8053817"><ele>18.4</ele><time>2026-04-25T12:02:43.915Z</time></trkpt><trkpt lat="38.1495833" lon="14.8055217"><ele>20.8</ele><time>2026-04-25T12:02:44.915Z</time></trkpt><trkpt lat="38.1496233" lon="14.8056567"><ele>23.199999999999996</ele><time>2026-04-25T12:02:45.915Z</time></trkpt><trkpt lat="38.1496817" lon="14.805755"><ele>25.599999999999998</ele><time>2026-04-25T12:02:46.916Z</time></trkpt><trkpt lat="38.14977" lon="14.8058383"><ele>28.0</ele><time>2026-04-25T12:02:47.916Z</time></trkpt><trkpt lat="38.1498733" lon="14.8059183"><ele>25.0</ele><time>2026-04-25T12:02:48.916Z</time></trkpt><trkpt lat="38.1499933" lon="14.8059767"><ele>22.0</ele><time>2026-04-25T12:02:49.915Z</time></trkpt><trkpt lat="38.150125" lon="14.8060467"><ele>19.0</ele><time>2026-04-25T12:02:50.916Z</time></trkpt><trkpt lat="38.150255" lon="14.8061067"><ele>16.0</ele><time>2026-04-25T12:02:51.916Z</time></trkpt><trkpt lat="38.1503733" lon="14.8061733"><ele>17.5</ele><time>2026-04-25T12:02:52.915Z</time></trkpt><trkpt lat="38.15049" lon="14.8062633"><ele>19.0</ele><time>2026-04-25T12:02:53.915Z</time></trkpt><trkpt lat="38.15061" lon="14.8063683"><ele>20.5</ele><time>2026-04-25T12:02:54.915Z</time></trkpt><trkpt lat="38.1507217" lon="14.8064933"><ele>22.0</ele><time>2026-04-25T12:02:55.916Z</time></trkpt><trkpt lat="38.1508183" lon="14.806625"><ele>22.0</ele><time>2026-04-25T12:02:56.915Z</time></trkpt><trkpt lat="38.150915" lon="14.8067583"><ele>22.0</ele><time>2026-04-25T12:02:57.916Z</time></trkpt><trkpt lat="38.151025" lon="14.8068867"><ele>22.0</ele><time>2026-04-25T12:02:58.915Z</time></trkpt><trkpt lat="38.1511267" lon="14.8070167"><ele>22.0</ele><time>2026-04-25T12:02:59.916Z</time></trkpt><trkpt lat="38.15122" lon="14.8071667"><ele>29.333333333333332</ele><time>2026-04-25T12:03:00.916Z</time></trkpt><trkpt lat="38.1512967" lon="14.8073267"><ele>36.666666666666664</ele><time>2026-04-25T12:03:01.915Z</time></trkpt><trkpt lat="38.1513667" lon="14.807505"><ele>44.0</ele><time>2026-04-25T12:03:02.915Z</time></trkpt><trkpt lat="38.1514333" lon="14.8076883"><ele>37.666666666666664</ele><time>2026-04-25T12:03:03.916Z</time></trkpt><trkpt lat="38.1514967" lon="14.8078617"><ele>31.333333333333336</ele><time>2026-04-25T12:03:04.916Z</time></trkpt><trkpt lat="38.151565" lon="14.8080367"><ele>25.0</ele><time>2026-04-25T12:03:05.916Z</time></trkpt><trkpt lat="38.15163" lon="14.8082183"><ele>25.0</ele><time>2026-04-25T12:03:06.916Z</time></trkpt><trkpt lat="38.1517017" lon="14.8083933"><ele>25.0</ele><time>2026-04-25T12:03:07.916Z</time></trkpt><trkpt lat="38.1517783" lon="14.8085783"><ele>25.0</ele><time>2026-04-25T12:03:08.915Z</time></trkpt><trkpt lat="38.151855" lon="14.8087633"><ele>31.333333333333336</ele><time>2026-04-25T12:03:09.916Z</time></trkpt><trkpt lat="38.151925" lon="14.808955"><ele>37.666666666666664</ele><time>2026-04-25T12:03:10.916Z</time></trkpt><trkpt lat="38.1519933" lon="14.8091483"><ele>44.0</ele><time>2026-04-25T12:03:11.915Z</time></trkpt><trkpt lat="38.152085" lon="14.80934"><ele>51.666666666666664</ele><time>2026-04-25T12:03:12.916Z</time></trkpt><trkpt lat="38.15217" lon="14.8095317"><ele>59.33333333333333</ele><time>2026-04-25T12:03:13.916Z</time></trkpt><trkpt lat="38.152255" lon="14.8097267"><ele>67.0</ele><time>2026-04-25T12:03:14.915Z</time></trkpt><trkpt lat="38.1523383" lon="14.8099167"><ele>58.0</ele><time>2026-04-25T12:03:15.916Z</time></trkpt><trkpt lat="38.15242" lon="14.8100933"><ele>49.0</ele><time>2026-04-25T12:03:16.915Z</time></trkpt><trkpt lat="38.1525117" lon="14.81026"><ele>40.0</ele><time>2026-04-25T12:03:17.916Z</time></trkpt><trkpt lat="38.1526033" lon="14.8104317"><ele>40.0</ele><time>2026-04-25T12:03:18.915Z</time></trkpt><trkpt lat="38.1526967" lon="14.8106033"><ele>40.0</ele><time>2026-04-25T12:03:19.916Z</time></trkpt><trkpt lat="38.1527933" lon="14.8107617"><ele>40.0</ele><time>2026-04-25T12:03:20.916Z</time></trkpt><trkpt lat="38.1528867" lon="14.8109317"><ele>32.66666666666667</ele><time>2026-04-25T12:03:21.915Z</time></trkpt><trkpt lat="38.152995" lon="14.8110883"><ele>25.333333333333336</ele><time>2026-04-25T12:03:22.915Z</time></trkpt><trkpt lat="38.1531167" lon="14.8112417"><ele>18.0</ele><time>2026-04-25T12:03:23.916Z</time></trkpt><trkpt lat="38.1532417" lon="14.8113783"><ele>18.0</ele><time>2026-04-25T12:03:24.916Z</time></trkpt><trkpt lat="38.1533833" lon="14.8115083"><ele>18.0</ele><time>2026-04-25T12:03:25.916Z</time></trkpt><trkpt lat="38.15351" lon="14.81164"><ele>18.0</ele><time>2026-04-25T12:03:26.916Z</time></trkpt><trkpt lat="38.153625" lon="14.8117883"><ele>25.333333333333336</ele><time>2026-04-25T12:03:27.915Z</time></trkpt><trkpt lat="38.153735" lon="14.8119433"><ele>32.66666666666667</ele><time>2026-04-25T12:03:28.915Z</time></trkpt><trkpt lat="38.15384" lon="14.8121017"><ele>40.0</ele><time>2026-04-25T12:03:29.915Z</time></trkpt><trkpt lat="38.153925" lon="14.8122683"><ele>40.0</ele><time>2026-04-25T12:03:30.916Z</time></trkpt><trkpt lat="38.1540017" lon="14.8124483"><ele>40.0</ele><time>2026-04-25T12:03:31.916Z</time></trkpt><trkpt lat="38.1540633" lon="14.81264"><ele>40.0</ele><time>2026-04-25T12:03:32.915Z</time></trkpt><trkpt lat="38.154115" lon="14.8128333"><ele>30.333333333333336</ele><time>2026-04-25T12:03:33.915Z</time></trkpt><trkpt lat="38.1541583" lon="14.8130417"><ele>20.666666666666668</ele><time>2026-04-25T12:03:34.916Z</time></trkpt><trkpt lat="38.1542017" lon="14.8132467"><ele>11.0</ele><time>2026-04-25T12:03:35.915Z</time></trkpt><trkpt lat="38.154245" lon="14.813455"><ele>12.0</ele><time>2026-04-25T12:03:36.916Z</time></trkpt><trkpt lat="38.1542833" lon="14.8136717"><ele>13.0</ele><time>2026-04-25T12:03:37.916Z</time></trkpt><trkpt lat="38.15432" lon="14.8138933"><ele>14.0</ele><time>2026-04-25T12:03:38.915Z</time></trkpt><trkpt lat="38.154365" lon="14.8141033"><ele>15.333333333333334</ele><time>2026-04-25T12:03:39.916Z</time></trkpt><trkpt lat="38.154405" lon="14.814325"><ele>16.666666666666668</ele><time>2026-04-25T12:03:40.915Z</time></trkpt><trkpt lat="38.154445" lon="14.8145533"><ele>18.0</ele><time>2026-04-25T12:03:41.916Z</time></trkpt><trkpt lat="38.154465" lon="14.8147867"><ele>18.0</ele><time>2026-04-25T12:03:42.916Z</time></trkpt><trkpt lat="38.1544667" lon="14.8150117"><ele>18.0</ele><time>2026-04-25T12:03:43.916Z</time></trkpt><trkpt lat="38.1544733" lon="14.815235"><ele>18.0</ele><time>2026-04-25T12:03:44.916Z</time></trkpt><trkpt lat="38.1544783" lon="14.8154517"><ele>24.666666666666664</ele><time>2026-04-25T12:03:45.916Z</time></trkpt><trkpt lat="38.1544883" lon="14.8156633"><ele>31.333333333333332</ele><time>2026-04-25T12:03:46.915Z</time></trkpt><trkpt lat="38.1545" lon="14.8158733"><ele>38.0</ele><time>2026-04-25T12:03:47.916Z</time></trkpt><trkpt lat="38.1545083" lon="14.8160733"><ele>40.0</ele><time>2026-04-25T12:03:48.916Z</time></trkpt><trkpt lat="38.154525" lon="14.8162667"><ele>42.0</ele><time>2026-04-25T12:03:49.916Z</time></trkpt><trkpt lat="38.1545633" lon="14.8164533"><ele>44.0</ele><time>2026-04-25T12:03:50.916Z</time></trkpt><trkpt lat="38.1546" lon="14.8166367"><ele>44.0</ele><time>2026-04-25T12:03:51.916Z</time></trkpt><trkpt lat="38.15464" lon="14.8168083"><ele>44.0</ele><time>2026-04-25T12:03:52.915Z</time></trkpt><trkpt lat="38.1546917" lon="14.816985"><ele>44.0</ele><time>2026-04-25T12:03:53.916Z</time></trkpt><trkpt lat="38.1547467" lon="14.81716"><ele>44.0</ele><time>2026-04-25T12:03:54.915Z</time></trkpt><trkpt lat="38.1548083" lon="14.81733"><ele>37.75</ele><time>2026-04-25T12:03:55.915Z</time></trkpt><trkpt lat="38.1548717" lon="14.8174933"><ele>31.5</ele><time>2026-04-25T12:03:56.915Z</time></trkpt><trkpt lat="38.1549367" lon="14.817665"><ele>25.25</ele><time>2026-04-25T12:03:57.916Z</time></trkpt><trkpt lat="38.1549983" lon="14.8178317"><ele>19.0</ele><time>2026-04-25T12:03:58.916Z</time></trkpt><trkpt lat="38.155055" lon="14.8179967"><ele>19.0</ele><time>2026-04-25T12:03:59.916Z</time></trkpt><trkpt lat="38.1551083" lon="14.81816"><ele>19.0</ele><time>2026-04-25T12:04:00.915Z</time></trkpt><trkpt lat="38.1551617" lon="14.8183283"><ele>19.0</ele><time>2026-04-25T12:04:01.915Z</time></trkpt><trkpt lat="38.1552083" lon="14.8184817"><ele>19.0</ele><time>2026-04-25T12:04:02.916Z</time></trkpt><trkpt lat="38.1552517" lon="14.8186433"><ele>21.4</ele><time>2026-04-25T12:04:03.915Z</time></trkpt><trkpt lat="38.15527" lon="14.8187917"><ele>23.799999999999997</ele><time>2026-04-25T12:04:04.916Z</time></trkpt><trkpt lat="38.1552783" lon="14.81894"><ele>26.200000000000003</ele><time>2026-04-25T12:04:05.916Z</time></trkpt><trkpt lat="38.155285" lon="14.8190733"><ele>28.6</ele><time>2026-04-25T12:04:06.915Z</time></trkpt><trkpt lat="38.155325" lon="14.819195"><ele>31.0</ele><time>2026-04-25T12:04:07.915Z</time></trkpt><trkpt lat="38.15539" lon="14.819305"><ele>37.75</ele><time>2026-04-25T12:04:08.916Z</time></trkpt><trkpt lat="38.1554883" lon="14.81943"><ele>44.5</ele><time>2026-04-25T12:04:09.916Z</time></trkpt><trkpt lat="38.1555633" lon="14.8195667"><ele>51.25</ele><time>2026-04-25T12:04:10.915Z</time></trkpt><trkpt lat="38.1556183" lon="14.819705"><ele>58.0</ele><time>2026-04-25T12:04:11.915Z</time></trkpt><trkpt lat="38.155665" lon="14.8198617"><ele>58.0</ele><time>2026-04-25T12:04:12.915Z</time></trkpt><trkpt lat="38.1557" lon="14.8200133"><ele>58.0</ele><time>2026-04-25T12:04:13.916Z</time></trkpt><trkpt lat="38.1557417" lon="14.820185"><ele>58.0</ele><time>2026-04-25T12:04:14.915Z</time></trkpt><trkpt lat="38.155765" lon="14.8203583"><ele>58.0</ele><time>2026-04-25T12:04:15.915Z</time></trkpt><trkpt lat="38.155785" lon="14.8205367"><ele>49.5</ele><time>2026-04-25T12:04:16.916Z</time></trkpt><trkpt lat="38.1558133" lon="14.8207083"><ele>41.0</ele><time>2026-04-25T12:04:17.916Z</time></trkpt><trkpt lat="38.15583" lon="14.8208917"><ele>32.5</ele><time>2026-04-25T12:04:18.916Z</time></trkpt><trkpt lat="38.155855" lon="14.8210667"><ele>24.0</ele><time>2026-04-25T12:04:19.915Z</time></trkpt><trkpt lat="38.1558817" lon="14.8212433"><ele>24.0</ele><time>2026-04-25T12:04:20.916Z</time></trkpt><trkpt lat="38.1559133" lon="14.8214133"><ele>24.0</ele><time>2026-04-25T12:04:21.916Z</time></trkpt><trkpt lat="38.1559717" lon="14.821585"><ele>24.0</ele><time>2026-04-25T12:04:22.916Z</time></trkpt><trkpt lat="38.1560583" lon="14.8217383"><ele>24.0</ele><time>2026-04-25T12:04:23.915Z</time></trkpt><trkpt lat="38.15616" lon="14.8218917"><ele>23.25</ele><time>2026-04-25T12:04:24.915Z</time></trkpt><trkpt lat="38.156255" lon="14.8220417"><ele>22.5</ele><time>2026-04-25T12:04:25.916Z</time></trkpt><trkpt lat="38.1563333" lon="14.8221817"><ele>21.75</ele><time>2026-04-25T12:04:26.916Z</time></trkpt><trkpt lat="38.1564017" lon="14.8223233"><ele>21.0</ele><time>2026-04-25T12:04:27.916Z</time></trkpt><trkpt lat="38.1564717" lon="14.822455"><ele>21.0</ele><time>2026-04-25T12:04:28.916Z</time></trkpt><trkpt lat="38.1565133" lon="14.8225733"><ele>21.0</ele><time>2026-04-25T12:04:29.915Z</time></trkpt><trkpt lat="38.1565433" lon="14.8227033"><ele>21.0</ele><time>2026-04-25T12:04:30.916Z</time></trkpt><trkpt lat="38.156565" lon="14.8228433"><ele>21.0</ele><time>2026-04-25T12:04:31.915Z</time></trkpt><trkpt lat="38.1565667" lon="14.8229817"><ele>21.0</ele><time>2026-04-25T12:04:32.916Z</time></trkpt><trkpt lat="38.156565" lon="14.8231083"><ele>20.5</ele><time>2026-04-25T12:04:33.915Z</time></trkpt><trkpt lat="38.15657" lon="14.82322"><ele>20.0</ele><time>2026-04-25T12:04:34.915Z</time></trkpt><trkpt lat="38.1565683" lon="14.823315"><ele>19.5</ele><time>2026-04-25T12:04:35.916Z</time></trkpt><trkpt lat="38.1565667" lon="14.8234"><ele>19.0</ele><time>2026-04-25T12:04:36.916Z</time></trkpt><trkpt lat="38.15653" lon="14.8235333"><ele>18.5</ele><time>2026-04-25T12:04:38.915Z</time></trkpt><trkpt lat="38.1565117" lon="14.8236517"><ele>18.0</ele><time>2026-04-25T12:04:40.916Z</time></trkpt><trkpt lat="38.15655" lon="14.8237883"><ele>18.0</ele><time>2026-04-25T12:04:42.916Z</time></trkpt><trkpt lat="38.1565683" lon="14.8238917"><ele>18.0</ele><time>2026-04-25T12:04:43.915Z</time></trkpt><trkpt lat="38.15657" lon="14.82401"><ele>18.0</ele><time>2026-04-25T12:04:44.916Z</time></trkpt><trkpt lat="38.1565633" lon="14.8241367"><ele>18.0</ele><time>2026-04-25T12:04:45.916Z</time></trkpt><trkpt lat="38.1565533" lon="14.82426"><ele>18.0</ele><time>2026-04-25T12:04:46.916Z</time></trkpt><trkpt lat="38.1565467" lon="14.8243833"><ele>18.0</ele><time>2026-04-25T12:04:47.916Z</time></trkpt><trkpt lat="38.1565383" lon="14.8245033"><ele>18.0</ele><time>2026-04-25T12:04:48.915Z</time></trkpt><trkpt lat="38.156545" lon="14.8246167"><ele>18.0</ele><time>2026-04-25T12:04:49.916Z</time></trkpt><trkpt lat="38.1565517" lon="14.8247267"><ele>18.0</ele><time>2026-04-25T12:04:50.915Z</time></trkpt><trkpt lat="38.156555" lon="14.8248317"><ele>18.0</ele><time>2026-04-25T12:04:51.916Z</time></trkpt><trkpt lat="38.1565467" lon="14.8249433"><ele>18.0</ele><time>2026-04-25T12:04:52.916Z</time></trkpt><trkpt lat="38.15654" lon="14.82506"><ele>17.6</ele><time>2026-04-25T12:04:53.916Z</time></trkpt><trkpt lat="38.15653" lon="14.8251817"><ele>17.200000000000003</ele><time>2026-04-25T12:04:54.916Z</time></trkpt><trkpt lat="38.1565217" lon="14.8253067"><ele>16.8</ele><time>2026-04-25T12:04:55.916Z</time></trkpt><trkpt lat="38.1565133" lon="14.82544"><ele>16.400000000000002</ele><time>2026-04-25T12:04:56.916Z</time></trkpt><trkpt lat="38.1565117" lon="14.8255883"><ele>16.0</ele><time>2026-04-25T12:04:57.915Z</time></trkpt><trkpt lat="38.1565133" lon="14.8257317"><ele>16.0</ele><time>2026-04-25T12:04:58.916Z</time></trkpt><trkpt lat="38.1565183" lon="14.8258767"><ele>16.0</ele><time>2026-04-25T12:04:59.915Z</time></trkpt><trkpt lat="38.1565067" lon="14.8260233"><ele>16.0</ele><time>2026-04-25T12:05:00.916Z</time></trkpt><trkpt lat="38.1564983" lon="14.82618"><ele>16.0</ele><time>2026-04-25T12:05:01.915Z</time></trkpt><trkpt lat="38.1564933" lon="14.8263383"><ele>16.0</ele><time>2026-04-25T12:05:02.915Z</time></trkpt><trkpt lat="38.1565" lon="14.82649"><ele>16.0</ele><time>2026-04-25T12:05:03.915Z</time></trkpt><trkpt lat="38.15648" lon="14.8266383"><ele>16.0</ele><time>2026-04-25T12:05:04.915Z</time></trkpt><trkpt lat="38.1564683" lon="14.8267783"><ele>16.0</ele><time>2026-04-25T12:05:05.915Z</time></trkpt><trkpt lat="38.1564633" lon="14.8269267"><ele>15.75</ele><time>2026-04-25T12:05:06.916Z</time></trkpt><trkpt lat="38.1564517" lon="14.827075"><ele>15.5</ele><time>2026-04-25T12:05:07.916Z</time></trkpt><trkpt lat="38.1564383" lon="14.8272167"><ele>15.25</ele><time>2026-04-25T12:05:08.916Z</time></trkpt><trkpt lat="38.1564167" lon="14.8273733"><ele>15.0</ele><time>2026-04-25T12:05:09.916Z</time></trkpt><trkpt lat="38.1563917" lon="14.8275233"><ele>15.5</ele><time>2026-04-25T12:05:10.916Z</time></trkpt><trkpt lat="38.1563783" lon="14.8276717"><ele>16.0</ele><time>2026-04-25T12:05:11.915Z</time></trkpt><trkpt lat="38.15637" lon="14.8278217"><ele>16.5</ele><time>2026-04-25T12:05:12.915Z</time></trkpt><trkpt lat="38.1563633" lon="14.827975"><ele>17.0</ele><time>2026-04-25T12:05:13.915Z</time></trkpt><trkpt lat="38.1563483" lon="14.82813"><ele>17.0</ele><time>2026-04-25T12:05:14.916Z</time></trkpt><trkpt lat="38.1563417" lon="14.828285"><ele>17.0</ele><time>2026-04-25T12:05:15.915Z</time></trkpt><trkpt lat="38.1563417" lon="14.8284317"><ele>17.0</ele><time>2026-04-25T12:05:16.916Z</time></trkpt><trkpt lat="38.1563367" lon="14.828575"><ele>17.0</ele><time>2026-04-25T12:05:17.915Z</time></trkpt><trkpt lat="38.156335" lon="14.8287233"><ele>17.0</ele><time>2026-04-25T12:05:18.916Z</time></trkpt><trkpt lat="38.156325" lon="14.828875"><ele>17.0</ele><time>2026-04-25T12:05:19.916Z</time></trkpt><trkpt lat="38.15632" lon="14.829035"><ele>17.0</ele><time>2026-04-25T12:05:20.916Z</time></trkpt><trkpt lat="38.156325" lon="14.8291983"><ele>17.0</ele><time>2026-04-25T12:05:21.915Z</time></trkpt><trkpt lat="38.1563217" lon="14.8293567"><ele>18.0</ele><time>2026-04-25T12:05:22.915Z</time></trkpt><trkpt lat="38.156315" lon="14.82952"><ele>19.0</ele><time>2026-04-25T12:05:23.916Z</time></trkpt><trkpt lat="38.1562883" lon="14.8296733"><ele>20.0</ele><time>2026-04-25T12:05:24.916Z</time></trkpt><trkpt lat="38.1562667" lon="14.8298317"><ele>21.0</ele><time>2026-04-25T12:05:25.915Z</time></trkpt><trkpt lat="38.156255" lon="14.82999"><ele>20.5</ele><time>2026-04-25T12:05:26.915Z</time></trkpt><trkpt lat="38.1562517" lon="14.8301533"><ele>20.0</ele><time>2026-04-25T12:05:27.915Z</time></trkpt><trkpt lat="38.1562433" lon="14.8303167"><ele>19.5</ele><time>2026-04-25T12:05:28.916Z</time></trkpt><trkpt lat="38.156235" lon="14.8304883"><ele>19.0</ele><time>2026-04-25T12:05:29.916Z</time></trkpt><trkpt lat="38.15623" lon="14.8306533"><ele>19.0</ele><time>2026-04-25T12:05:30.916Z</time></trkpt><trkpt lat="38.1562133" lon="14.8308333"><ele>19.0</ele><time>2026-04-25T12:05:31.916Z</time></trkpt><trkpt lat="38.15621" lon="14.8310083"><ele>19.0</ele><time>2026-04-25T12:05:32.915Z</time></trkpt><trkpt lat="38.156205" lon="14.8311767"><ele>19.0</ele><time>2026-04-25T12:05:33.916Z</time></trkpt><trkpt lat="38.156215" lon="14.8313517"><ele>19.0</ele><time>2026-04-25T12:05:34.915Z</time></trkpt><trkpt lat="38.1562083" lon="14.8315183"><ele>19.0</ele><time>2026-04-25T12:05:35.915Z</time></trkpt><trkpt lat="38.1561967" lon="14.831695"><ele>19.0</ele><time>2026-04-25T12:05:36.916Z</time></trkpt><trkpt lat="38.1561917" lon="14.83188"><ele>19.0</ele><time>2026-04-25T12:05:37.916Z</time></trkpt><trkpt lat="38.15617" lon="14.8320383"><ele>20.25</ele><time>2026-04-25T12:05:38.916Z</time></trkpt><trkpt lat="38.15616" lon="14.8322133"><ele>21.5</ele><time>2026-04-25T12:05:39.915Z</time></trkpt><trkpt lat="38.1561517" lon="14.8323867"><ele>22.75</ele><time>2026-04-25T12:05:40.916Z</time></trkpt><trkpt lat="38.15615" lon="14.8325483"><ele>24.0</ele><time>2026-04-25T12:05:41.916Z</time></trkpt><trkpt lat="38.1561483" lon="14.8327117"><ele>25.0</ele><time>2026-04-25T12:05:42.916Z</time></trkpt><trkpt lat="38.1561583" lon="14.8328767"><ele>26.0</ele><time>2026-04-25T12:05:43.915Z</time></trkpt><trkpt lat="38.156175" lon="14.83304"><ele>27.0</ele><time>2026-04-25T12:05:44.916Z</time></trkpt><trkpt lat="38.1562133" lon="14.8331933"><ele>28.0</ele><time>2026-04-25T12:05:45.916Z</time></trkpt><trkpt lat="38.1562567" lon="14.8333233"><ele>28.0</ele><time>2026-04-25T12:05:46.915Z</time></trkpt><trkpt lat="38.1562933" lon="14.8334567"><ele>28.0</ele><time>2026-04-25T12:05:47.916Z</time></trkpt><trkpt lat="38.156345" lon="14.833595"><ele>28.0</ele><time>2026-04-25T12:05:48.916Z</time></trkpt><trkpt lat="38.1564" lon="14.8337417"><ele>28.0</ele><time>2026-04-25T12:05:49.915Z</time></trkpt><trkpt lat="38.1564533" lon="14.8338817"><ele>27.5</ele><time>2026-04-25T12:05:50.916Z</time></trkpt><trkpt lat="38.1565017" lon="14.8340333"><ele>27.0</ele><time>2026-04-25T12:05:51.916Z</time></trkpt><trkpt lat="38.156555" lon="14.8341933"><ele>26.5</ele><time>2026-04-25T12:05:52.916Z</time></trkpt><trkpt lat="38.1565833" lon="14.8343717"><ele>26.0</ele><time>2026-04-25T12:05:53.915Z</time></trkpt><trkpt lat="38.1565967" lon="14.8345583"><ele>26.0</ele><time>2026-04-25T12:05:54.915Z</time></trkpt><trkpt lat="38.1565917" lon="14.834735"><ele>26.0</ele><time>2026-04-25T12:05:55.916Z</time></trkpt><trkpt lat="38.1565733" lon="14.83491"><ele>26.0</ele><time>2026-04-25T12:05:56.916Z</time></trkpt><trkpt lat="38.1565467" lon="14.835085"><ele>26.0</ele><time>2026-04-25T12:05:57.915Z</time></trkpt><trkpt lat="38.15652" lon="14.83526"><ele>27.75</ele><time>2026-04-25T12:05:58.916Z</time></trkpt><trkpt lat="38.1564983" lon="14.835425"><ele>29.5</ele><time>2026-04-25T12:05:59.916Z</time></trkpt><trkpt lat="38.1564767" lon="14.8355783"><ele>31.25</ele><time>2026-04-25T12:06:00.916Z</time></trkpt><trkpt lat="38.156455" lon="14.8357317"><ele>33.0</ele><time>2026-04-25T12:06:01.915Z</time></trkpt><trkpt lat="38.1564333" lon="14.83588"><ele>35.25</ele><time>2026-04-25T12:06:02.916Z</time></trkpt><trkpt lat="38.156415" lon="14.8360333"><ele>37.5</ele><time>2026-04-25T12:06:03.916Z</time></trkpt><trkpt lat="38.1563983" lon="14.8361883"><ele>39.75</ele><time>2026-04-25T12:06:04.915Z</time></trkpt><trkpt lat="38.1563817" lon="14.8363333"><ele>42.0</ele><time>2026-04-25T12:06:05.915Z</time></trkpt><trkpt lat="38.1563533" lon="14.8364833"><ele>42.0</ele><time>2026-04-25T12:06:06.916Z</time></trkpt><trkpt lat="38.1563333" lon="14.836625"><ele>42.0</ele><time>2026-04-25T12:06:07.915Z</time></trkpt><trkpt lat="38.1563317" lon="14.8367633"><ele>42.0</ele><time>2026-04-25T12:06:08.915Z</time></trkpt><trkpt lat="38.15636" lon="14.8368983"><ele>42.0</ele><time>2026-04-25T12:06:09.915Z</time></trkpt><trkpt lat="38.1564233" lon="14.8370067"><ele>42.0</ele><time>2026-04-25T12:06:10.916Z</time></trkpt><trkpt lat="38.1565183" lon="14.8370967"><ele>42.0</ele><time>2026-04-25T12:06:11.915Z</time></trkpt><trkpt lat="38.156625" lon="14.837175"><ele>42.0</ele><time>2026-04-25T12:06:12.916Z</time></trkpt><trkpt lat="38.1567333" lon="14.8372483"><ele>42.0</ele><time>2026-04-25T12:06:13.915Z</time></trkpt><trkpt lat="38.1568333" lon="14.83733"><ele>42.0</ele><time>2026-04-25T12:06:14.915Z</time></trkpt><trkpt lat="38.15693" lon="14.837425"><ele>42.0</ele><time>2026-04-25T12:06:15.916Z</time></trkpt><trkpt lat="38.15701" lon="14.8375383"><ele>42.0</ele><time>2026-04-25T12:06:16.916Z</time></trkpt><trkpt lat="38.15709" lon="14.83766"><ele>42.0</ele><time>2026-04-25T12:06:17.915Z</time></trkpt><trkpt lat="38.157155" lon="14.837775"><ele>42.0</ele><time>2026-04-25T12:06:18.916Z</time></trkpt><trkpt lat="38.1572033" lon="14.8378883"><ele>45.6</ele><time>2026-04-25T12:06:19.915Z</time></trkpt><trkpt lat="38.1572383" lon="14.8380033"><ele>49.2</ele><time>2026-04-25T12:06:20.915Z</time></trkpt><trkpt lat="38.1572533" lon="14.8381283"><ele>52.8</ele><time>2026-04-25T12:06:21.915Z</time></trkpt><trkpt lat="38.1572383" lon="14.83825"><ele>56.4</ele><time>2026-04-25T12:06:22.915Z</time></trkpt><trkpt lat="38.1572" lon="14.8383733"><ele>60.0</ele><time>2026-04-25T12:06:23.916Z</time></trkpt><trkpt lat="38.15716" lon="14.8384933"><ele>60.0</ele><time>2026-04-25T12:06:24.915Z</time></trkpt><trkpt lat="38.1571083" lon="14.8386183"><ele>60.0</ele><time>2026-04-25T12:06:25.916Z</time></trkpt><trkpt lat="38.1570667" lon="14.8387467"><ele>60.0</ele><time>2026-04-25T12:06:26.915Z</time></trkpt><trkpt lat="38.1570383" lon="14.838875"><ele>60.0</ele><time>2026-04-25T12:06:27.915Z</time></trkpt><trkpt lat="38.1570167" lon="14.8389983"><ele>60.0</ele><time>2026-04-25T12:06:28.916Z</time></trkpt><trkpt lat="38.156995" lon="14.839135"><ele>60.0</ele><time>2026-04-25T12:06:29.916Z</time></trkpt><trkpt lat="38.1569683" lon="14.839285"><ele>60.0</ele><time>2026-04-25T12:06:30.916Z</time></trkpt><trkpt lat="38.1569533" lon="14.8394283"><ele>60.0</ele><time>2026-04-25T12:06:31.916Z</time></trkpt><trkpt lat="38.156945" lon="14.8395983"><ele>60.0</ele><time>2026-04-25T12:06:32.915Z</time></trkpt><trkpt lat="38.156955" lon="14.83974"><ele>59.4</ele><time>2026-04-25T12:06:33.916Z</time></trkpt><trkpt lat="38.1569767" lon="14.839875"><ele>58.8</ele><time>2026-04-25T12:06:34.915Z</time></trkpt><trkpt lat="38.1570033" lon="14.839995"><ele>58.2</ele><time>2026-04-25T12:06:35.916Z</time></trkpt><trkpt lat="38.1570433" lon="14.8401183"><ele>57.6</ele><time>2026-04-25T12:06:36.915Z</time></trkpt><trkpt lat="38.1570667" lon="14.8402367"><ele>57.0</ele><time>2026-04-25T12:06:37.916Z</time></trkpt><trkpt lat="38.15709" lon="14.8403517"><ele>54.666666666666664</ele><time>2026-04-25T12:06:38.916Z</time></trkpt><trkpt lat="38.1570917" lon="14.8404617"><ele>52.333333333333336</ele><time>2026-04-25T12:06:39.915Z</time></trkpt><trkpt lat="38.1570767" lon="14.8405633"><ele>50.0</ele><time>2026-04-25T12:06:40.915Z</time></trkpt><trkpt lat="38.1570567" lon="14.8406483"><ele>47.66666666666667</ele><time>2026-04-25T12:06:41.916Z</time></trkpt><trkpt lat="38.1570383" lon="14.840755"><ele>45.333333333333336</ele><time>2026-04-25T12:06:43.915Z</time></trkpt><trkpt lat="38.157115" lon="14.8408"><ele>43.0</ele><time>2026-04-25T12:06:46.916Z</time></trkpt><trkpt lat="38.15719" lon="14.8407833"><ele>43.0</ele><time>2026-04-25T12:06:48.915Z</time></trkpt><trkpt lat="38.1572667" lon="14.8406817"><ele>43.0</ele><time>2026-04-25T12:06:50.915Z</time></trkpt><trkpt lat="38.1572733" lon="14.84054"><ele>43.0</ele><time>2026-04-25T12:06:52.915Z</time></trkpt><trkpt lat="38.1572067" lon="14.8404717"><ele>43.0</ele><time>2026-04-25T12:06:54.916Z</time></trkpt><trkpt lat="38.1571417" lon="14.8404767"><ele>43.0</ele><time>2026-04-25T12:06:55.916Z</time></trkpt><trkpt lat="38.1570617" lon="14.84053"><ele>43.0</ele><time>2026-04-25T12:06:57.916Z</time></trkpt><trkpt lat="38.1570217" lon="14.8406117"><ele>43.0</ele><time>2026-04-25T12:06:59.915Z</time></trkpt><trkpt lat="38.1569667" lon="14.8407217"><ele>43.0</ele><time>2026-04-25T12:07:01.916Z</time></trkpt><trkpt lat="38.15692" lon="14.8407767"><ele>43.0</ele><time>2026-04-25T12:07:02.916Z</time></trkpt><trkpt lat="38.1568417" lon="14.840855"><ele>43.0</ele><time>2026-04-25T12:07:04.916Z</time></trkpt><trkpt lat="38.1567933" lon="14.8409117"><ele>43.0</ele><time>2026-04-25T12:07:07.916Z</time></trkpt><trkpt lat="38.1567383" lon="14.8409867"><ele>40.8</ele><time>2026-04-25T12:07:10.916Z</time></trkpt><trkpt lat="38.1566767" lon="14.8410783"><ele>38.599999999999994</ele><time>2026-04-25T12:09:15.916Z</time></trkpt><trkpt lat="38.1566467" lon="14.8411733"><ele>36.400000000000006</ele><time>2026-04-25T12:09:16.916Z</time></trkpt><trkpt lat="38.15661" lon="14.8412967"><ele>34.2</ele><time>2026-04-25T12:09:17.916Z</time></trkpt><trkpt lat="38.1565867" lon="14.8414333"><ele>32.0</ele><time>2026-04-25T12:09:18.915Z</time></trkpt><trkpt lat="38.156555" lon="14.8415933"><ele>32.0</ele><time>2026-04-25T12:09:19.916Z</time></trkpt><trkpt lat="38.15654" lon="14.84175"><ele>32.0</ele><time>2026-04-25T12:09:20.916Z</time></trkpt><trkpt lat="38.1565167" lon="14.84191"><ele>32.0</ele><time>2026-04-25T12:09:21.914Z</time></trkpt><trkpt lat="38.1564917" lon="14.8420767"><ele>32.0</ele><time>2026-04-25T12:09:22.914Z</time></trkpt><trkpt lat="38.1564583" lon="14.84225"><ele>35.25</ele><time>2026-04-25T12:09:23.914Z</time></trkpt><trkpt lat="38.15643" lon="14.8424283"><ele>38.5</ele><time>2026-04-25T12:09:24.914Z</time></trkpt><trkpt lat="38.1563717" lon="14.8425883"><ele>41.75</ele><time>2026-04-25T12:09:25.914Z</time></trkpt><trkpt lat="38.1563" lon="14.842745"><ele>45.0</ele><time>2026-04-25T12:09:26.914Z</time></trkpt><trkpt lat="38.1562117" lon="14.842905"><ele>45.0</ele><time>2026-04-25T12:09:27.914Z</time></trkpt><trkpt lat="38.1561067" lon="14.843065"><ele>45.0</ele><time>2026-04-25T12:09:28.915Z</time></trkpt><trkpt lat="38.1559833" lon="14.8432283"><ele>45.0</ele><time>2026-04-25T12:09:29.915Z</time></trkpt><trkpt lat="38.155855" lon="14.8433933"><ele>45.666666666666664</ele><time>2026-04-25T12:09:30.915Z</time></trkpt><trkpt lat="38.1557333" lon="14.8435567"><ele>46.33333333333333</ele><time>2026-04-25T12:09:31.915Z</time></trkpt><trkpt lat="38.1556083" lon="14.8437267"><ele>47.0</ele><time>2026-04-25T12:09:32.914Z</time></trkpt><trkpt lat="38.1554867" lon="14.8439"><ele>47.0</ele><time>2026-04-25T12:09:33.914Z</time></trkpt><trkpt lat="38.1553583" lon="14.84407"><ele>47.0</ele><time>2026-04-25T12:09:34.914Z</time></trkpt><trkpt lat="38.15524" lon="14.8442417"><ele>47.0</ele><time>2026-04-25T12:09:35.914Z</time></trkpt><trkpt lat="38.1551183" lon="14.8444133"><ele>45.0</ele><time>2026-04-25T12:09:36.915Z</time></trkpt><trkpt lat="38.154995" lon="14.8445917"><ele>43.0</ele><time>2026-04-25T12:09:37.914Z</time></trkpt><trkpt lat="38.15487" lon="14.8447883"><ele>41.0</ele><time>2026-04-25T12:09:38.914Z</time></trkpt><trkpt lat="38.1547483" lon="14.8449967"><ele>39.0</ele><time>2026-04-25T12:09:39.914Z</time></trkpt><trkpt lat="38.1546283" lon="14.8452017"><ele>37.0</ele><time>2026-04-25T12:09:40.915Z</time></trkpt><trkpt lat="38.1545167" lon="14.8454017"><ele>35.0</ele><time>2026-04-25T12:09:41.914Z</time></trkpt><trkpt lat="38.1544017" lon="14.845595"><ele>35.0</ele><time>2026-04-25T12:09:42.915Z</time></trkpt><trkpt lat="38.1542833" lon="14.8457733"><ele>35.0</ele><time>2026-04-25T12:09:43.915Z</time></trkpt><trkpt lat="38.15416" lon="14.8459517"><ele>35.0</ele><time>2026-04-25T12:09:44.914Z</time></trkpt><trkpt lat="38.15403" lon="14.84613"><ele>36.666666666666664</ele><time>2026-04-25T12:09:45.914Z</time></trkpt><trkpt lat="38.1539" lon="14.8463117"><ele>38.333333333333336</ele><time>2026-04-25T12:09:46.915Z</time></trkpt><trkpt lat="38.1537717" lon="14.8464933"><ele>40.0</ele><time>2026-04-25T12:09:47.914Z</time></trkpt><trkpt lat="38.15364" lon="14.8466833"><ele>39.66666666666667</ele><time>2026-04-25T12:09:48.914Z</time></trkpt><trkpt lat="38.1535067" lon="14.8468683"><ele>39.333333333333336</ele><time>2026-04-25T12:09:49.915Z</time></trkpt><trkpt lat="38.1533767" lon="14.8470517"><ele>39.0</ele><time>2026-04-25T12:09:50.914Z</time></trkpt><trkpt lat="38.153245" lon="14.8472417"><ele>41.5</ele><time>2026-04-25T12:09:51.914Z</time></trkpt><trkpt lat="38.1531133" lon="14.8474317"><ele>44.0</ele><time>2026-04-25T12:09:52.915Z</time></trkpt><trkpt lat="38.1528483" lon="14.8478133"><ele>44.0</ele><time>2026-04-25T12:09:54.914Z</time></trkpt><trkpt lat="38.152715" lon="14.848005"><ele>44.0</ele><time>2026-04-25T12:09:55.914Z</time></trkpt><trkpt lat="38.1525833" lon="14.8481917"><ele>44.0</ele><time>2026-04-25T12:09:56.915Z</time></trkpt><trkpt lat="38.152455" lon="14.8483733"><ele>45.33333333333333</ele><time>2026-04-25T12:09:57.915Z</time></trkpt><trkpt lat="38.1523283" lon="14.848555"><ele>46.666666666666664</ele><time>2026-04-25T12:09:58.914Z</time></trkpt><trkpt lat="38.1521983" lon="14.8487383"><ele>48.0</ele><time>2026-04-25T12:09:59.914Z</time></trkpt><trkpt lat="38.152065" lon="14.848925"><ele>48.0</ele><time>2026-04-25T12:10:00.915Z</time></trkpt><trkpt lat="38.1519267" lon="14.849105"><ele>48.0</ele><time>2026-04-25T12:10:01.915Z</time></trkpt><trkpt lat="38.1517967" lon="14.849295"><ele>48.0</ele><time>2026-04-25T12:10:02.914Z</time></trkpt><trkpt lat="38.1516783" lon="14.8495"><ele>50.0</ele><time>2026-04-25T12:10:03.914Z</time></trkpt><trkpt lat="38.1514667" lon="14.8499667"><ele>52.0</ele><time>2026-04-25T12:10:05.914Z</time></trkpt><trkpt lat="38.15137" lon="14.8502133"><ele>52.33333333333333</ele><time>2026-04-25T12:10:06.914Z</time></trkpt><trkpt lat="38.1512667" lon="14.8504633"><ele>52.66666666666667</ele><time>2026-04-25T12:10:07.914Z</time></trkpt><trkpt lat="38.151155" lon="14.850715"><ele>53.0</ele><time>2026-04-25T12:10:08.914Z</time></trkpt><trkpt lat="38.1510417" lon="14.8509633"><ele>53.333333333333336</ele><time>2026-04-25T12:10:09.914Z</time></trkpt><trkpt lat="38.1509367" lon="14.8512083"><ele>53.66666666666667</ele><time>2026-04-25T12:10:10.915Z</time></trkpt><trkpt lat="38.15083" lon="14.8514667"><ele>54.0</ele><time>2026-04-25T12:10:11.914Z</time></trkpt><trkpt lat="38.1507333" lon="14.8517067"><ele>56.66666666666667</ele><time>2026-04-25T12:10:12.914Z</time></trkpt><trkpt lat="38.1506217" lon="14.8519517"><ele>59.333333333333336</ele><time>2026-04-25T12:10:13.915Z</time></trkpt><trkpt lat="38.1505067" lon="14.8521833"><ele>62.0</ele><time>2026-04-25T12:10:14.915Z</time></trkpt><trkpt lat="38.1503917" lon="14.8524167"><ele>59.0</ele><time>2026-04-25T12:10:15.914Z</time></trkpt><trkpt lat="38.150275" lon="14.8526633"><ele>56.0</ele><time>2026-04-25T12:10:16.914Z</time></trkpt><trkpt lat="38.1501483" lon="14.8528983"><ele>56.0</ele><time>2026-04-25T12:10:17.915Z</time></trkpt><trkpt lat="38.15002" lon="14.8531317"><ele>56.0</ele><time>2026-04-25T12:10:18.915Z</time></trkpt><trkpt lat="38.149885" lon="14.85336"><ele>56.0</ele><time>2026-04-25T12:10:19.915Z</time></trkpt><trkpt lat="38.149755" lon="14.8535733"><ele>58.66666666666667</ele><time>2026-04-25T12:10:20.915Z</time></trkpt><trkpt lat="38.1496317" lon="14.853775"><ele>61.33333333333333</ele><time>2026-04-25T12:10:21.915Z</time></trkpt><trkpt lat="38.149515" lon="14.85396"><ele>64.0</ele><time>2026-04-25T12:10:22.914Z</time></trkpt><trkpt lat="38.1493917" lon="14.8541533"><ele>64.0</ele><time>2026-04-25T12:10:23.915Z</time></trkpt><trkpt lat="38.1492633" lon="14.8543467"><ele>64.0</ele><time>2026-04-25T12:10:24.915Z</time></trkpt><trkpt lat="38.1491317" lon="14.8545333"><ele>64.0</ele><time>2026-04-25T12:10:25.915Z</time></trkpt><trkpt lat="38.1489883" lon="14.8547183"><ele>65.0</ele><time>2026-04-25T12:10:26.915Z</time></trkpt><trkpt lat="38.148705" lon="14.8550783"><ele>66.0</ele><time>2026-04-25T12:10:28.915Z</time></trkpt><trkpt lat="38.14857" lon="14.8552383"><ele>66.0</ele><time>2026-04-25T12:10:29.914Z</time></trkpt><trkpt lat="38.148445" lon="14.8553783"><ele>66.0</ele><time>2026-04-25T12:10:30.915Z</time></trkpt><trkpt lat="38.148325" lon="14.8554983"><ele>66.0</ele><time>2026-04-25T12:10:31.915Z</time></trkpt><trkpt lat="38.1481883" lon="14.8556083"><ele>68.33333333333333</ele><time>2026-04-25T12:10:32.914Z</time></trkpt><trkpt lat="38.1480467" lon="14.8557017"><ele>70.66666666666666</ele><time>2026-04-25T12:10:33.914Z</time></trkpt><trkpt lat="38.1478983" lon="14.8557867"><ele>73.0</ele><time>2026-04-25T12:10:34.915Z</time></trkpt><trkpt lat="38.1477583" lon="14.8558683"><ele>73.0</ele><time>2026-04-25T12:10:35.914Z</time></trkpt><trkpt lat="38.1476283" lon="14.8559467"><ele>73.0</ele><time>2026-04-25T12:10:36.915Z</time></trkpt><trkpt lat="38.1475083" lon="14.8560217"><ele>73.0</ele><time>2026-04-25T12:10:37.915Z</time></trkpt><trkpt lat="38.147405" lon="14.8560917"><ele>73.0</ele><time>2026-04-25T12:10:38.915Z</time></trkpt><trkpt lat="38.1473167" lon="14.85616"><ele>73.83333333333333</ele><time>2026-04-25T12:10:39.914Z</time></trkpt><trkpt lat="38.1472483" lon="14.856225"><ele>74.66666666666666</ele><time>2026-04-25T12:10:40.915Z</time></trkpt><trkpt lat="38.147195" lon="14.856295"><ele>75.5</ele><time>2026-04-25T12:10:41.915Z</time></trkpt><trkpt lat="38.1471467" lon="14.8563483"><ele>76.33333333333333</ele><time>2026-04-25T12:10:42.914Z</time></trkpt><trkpt lat="38.1471083" lon="14.856455"><ele>77.16666666666667</ele><time>2026-04-25T12:10:44.915Z</time></trkpt><trkpt lat="38.1471417" lon="14.8565983"><ele>78.0</ele><time>2026-04-25T12:10:46.915Z</time></trkpt><trkpt lat="38.1471667" lon="14.8566833"><ele>78.0</ele><time>2026-04-25T12:10:47.914Z</time></trkpt><trkpt lat="38.147185" lon="14.8567833"><ele>78.0</ele><time>2026-04-25T12:10:48.915Z</time></trkpt><trkpt lat="38.1471833" lon="14.8568967"><ele>78.0</ele><time>2026-04-25T12:10:49.914Z</time></trkpt><trkpt lat="38.1471817" lon="14.857025"><ele>78.0</ele><time>2026-04-25T12:10:50.914Z</time></trkpt><trkpt lat="38.1471783" lon="14.8571783"><ele>78.0</ele><time>2026-04-25T12:10:51.915Z</time></trkpt><trkpt lat="38.147175" lon="14.857345"><ele>77.0</ele><time>2026-04-25T12:10:52.915Z</time></trkpt><trkpt lat="38.1471733" lon="14.8575317"><ele>76.0</ele><time>2026-04-25T12:10:53.915Z</time></trkpt><trkpt lat="38.1471767" lon="14.8577167"><ele>75.0</ele><time>2026-04-25T12:10:54.915Z</time></trkpt><trkpt lat="38.1471767" lon="14.8578917"><ele>74.0</ele><time>2026-04-25T12:10:55.914Z</time></trkpt><trkpt lat="38.1471733" lon="14.8580517"><ele>74.0</ele><time>2026-04-25T12:10:56.915Z</time></trkpt><trkpt lat="38.1471667" lon="14.8581967"><ele>74.0</ele><time>2026-04-25T12:10:57.914Z</time></trkpt><trkpt lat="38.1471617" lon="14.8583083"><ele>74.0</ele><time>2026-04-25T12:10:58.914Z</time></trkpt><trkpt lat="38.1471667" lon="14.8584067"><ele>74.0</ele><time>2026-04-25T12:10:59.915Z</time></trkpt><trkpt lat="38.14719" lon="14.8584933"><ele>74.0</ele><time>2026-04-25T12:11:00.914Z</time></trkpt><trkpt lat="38.147235" lon="14.8585567"><ele>74.0</ele><time>2026-04-25T12:11:01.915Z</time></trkpt><trkpt lat="38.1473017" lon="14.8586133"><ele>76.80000000000001</ele><time>2026-04-25T12:11:02.915Z</time></trkpt><trkpt lat="38.1473883" lon="14.8586533"><ele>79.60000000000001</ele><time>2026-04-25T12:11:03.915Z</time></trkpt><trkpt lat="38.14748" lon="14.8586817"><ele>82.4</ele><time>2026-04-25T12:11:04.915Z</time></trkpt><trkpt lat="38.147585" lon="14.8586983"><ele>85.2</ele><time>2026-04-25T12:11:05.914Z</time></trkpt><trkpt lat="38.1477" lon="14.8587083"><ele>88.0</ele><time>2026-04-25T12:11:06.914Z</time></trkpt><trkpt lat="38.1478233" lon="14.85872"><ele>88.0</ele><time>2026-04-25T12:11:07.915Z</time></trkpt><trkpt lat="38.1479533" lon="14.858735"><ele>88.0</ele><time>2026-04-25T12:11:08.915Z</time></trkpt><trkpt lat="38.14807" lon="14.8587517"><ele>88.0</ele><time>2026-04-25T12:11:09.915Z</time></trkpt><trkpt lat="38.148205" lon="14.858765"><ele>88.0</ele><time>2026-04-25T12:11:10.915Z</time></trkpt><trkpt lat="38.14835" lon="14.8587367"><ele>92.25</ele><time>2026-04-25T12:11:11.914Z</time></trkpt><trkpt lat="38.14849" lon="14.8586983"><ele>96.5</ele><time>2026-04-25T12:11:12.914Z</time></trkpt><trkpt lat="38.1486217" lon="14.8586517"><ele>100.75</ele><time>2026-04-25T12:11:13.915Z</time></trkpt><trkpt lat="38.1487567" lon="14.8586"><ele>105.0</ele><time>2026-04-25T12:11:14.915Z</time></trkpt><trkpt lat="38.1488583" lon="14.858545"><ele>105.0</ele><time>2026-04-25T12:11:15.915Z</time></trkpt><trkpt lat="38.1489533" lon="14.858485"><ele>105.0</ele><time>2026-04-25T12:11:16.915Z</time></trkpt><trkpt lat="38.1490467" lon="14.8584217"><ele>105.0</ele><time>2026-04-25T12:11:17.915Z</time></trkpt><trkpt lat="38.149135" lon="14.8583567"><ele>105.0</ele><time>2026-04-25T12:11:18.915Z</time></trkpt><trkpt lat="38.1492083" lon="14.85831"><ele>105.0</ele><time>2026-04-25T12:11:19.914Z</time></trkpt><trkpt lat="38.1492633" lon="14.8582633"><ele>106.6</ele><time>2026-04-25T12:11:20.915Z</time></trkpt><trkpt lat="38.1493533" lon="14.858195"><ele>108.2</ele><time>2026-04-25T12:11:22.915Z</time></trkpt><trkpt lat="38.1494367" lon="14.85822"><ele>109.80000000000001</ele><time>2026-04-25T12:11:24.915Z</time></trkpt><trkpt lat="38.1494617" lon="14.8583083"><ele>111.4</ele><time>2026-04-25T12:11:35.915Z</time></trkpt><trkpt lat="38.149445" lon="14.858435"><ele>113.0</ele><time>2026-04-25T12:11:37.915Z</time></trkpt><trkpt lat="38.14948" lon="14.8585733"><ele>113.0</ele><time>2026-04-25T12:11:39.915Z</time></trkpt><trkpt lat="38.1495067" lon="14.858655"><ele>113.00000000000001</ele><time>2026-04-25T12:11:40.914Z</time></trkpt><trkpt lat="38.1495483" lon="14.8587483"><ele>113.00000000000001</ele><time>2026-04-25T12:11:41.915Z</time></trkpt><trkpt lat="38.149595" lon="14.8588617"><ele>113.0</ele><time>2026-04-25T12:11:42.914Z</time></trkpt><trkpt lat="38.1496433" lon="14.85898"><ele>113.0</ele><time>2026-04-25T12:11:43.915Z</time></trkpt><trkpt lat="38.1497383" lon="14.8592317"><ele>112.5</ele><time>2026-04-25T12:11:45.914Z</time></trkpt><trkpt lat="38.1497817" lon="14.8593567"><ele>112.0</ele><time>2026-04-25T12:11:46.914Z</time></trkpt><trkpt lat="38.1498417" lon="14.8594883"><ele>111.5</ele><time>2026-04-25T12:11:47.914Z</time></trkpt><trkpt lat="38.1499017" lon="14.8596183"><ele>111.0</ele><time>2026-04-25T12:11:48.914Z</time></trkpt><trkpt lat="38.1499517" lon="14.859745"><ele>111.0</ele><time>2026-04-25T12:11:49.914Z</time></trkpt><trkpt lat="38.15" lon="14.8598567"><ele>111.0</ele><time>2026-04-25T12:11:50.915Z</time></trkpt><trkpt lat="38.1500483" lon="14.8599567"><ele>111.0</ele><time>2026-04-25T12:11:51.915Z</time></trkpt><trkpt lat="38.1501033" lon="14.86004"><ele>111.0</ele><time>2026-04-25T12:11:52.915Z</time></trkpt><trkpt lat="38.150165" lon="14.8601067"><ele>111.0</ele><time>2026-04-25T12:11:53.915Z</time></trkpt><trkpt lat="38.1502317" lon="14.86015"><ele>111.0</ele><time>2026-04-25T12:11:54.915Z</time></trkpt><trkpt lat="38.150305" lon="14.860165"><ele>111.0</ele><time>2026-04-25T12:11:55.915Z</time></trkpt><trkpt lat="38.150375" lon="14.8601333"><ele>111.0</ele><time>2026-04-25T12:11:56.915Z</time></trkpt><trkpt lat="38.1504967" lon="14.8599583"><ele>111.0</ele><time>2026-04-25T12:11:58.915Z</time></trkpt><trkpt lat="38.1505167" lon="14.8598633"><ele>111.0</ele><time>2026-04-25T12:11:59.915Z</time></trkpt><trkpt lat="38.15052" lon="14.8597583"><ele>111.0</ele><time>2026-04-25T12:12:00.915Z</time></trkpt><trkpt lat="38.1504917" lon="14.8596383"><ele>111.0</ele><time>2026-04-25T12:12:01.915Z</time></trkpt><trkpt lat="38.15047" lon="14.85951"><ele>111.0</ele><time>2026-04-25T12:12:02.915Z</time></trkpt><trkpt lat="38.1504717" lon="14.8593733"><ele>111.0</ele><time>2026-04-25T12:12:03.915Z</time></trkpt><trkpt lat="38.1505033" lon="14.859235"><ele>111.0</ele><time>2026-04-25T12:12:04.915Z</time></trkpt><trkpt lat="38.150545" lon="14.8590917"><ele>111.0</ele><time>2026-04-25T12:12:05.915Z</time></trkpt><trkpt lat="38.1505983" lon="14.858935"><ele>111.25</ele><time>2026-04-25T12:12:06.914Z</time></trkpt><trkpt lat="38.1506367" lon="14.85877"><ele>111.5</ele><time>2026-04-25T12:12:07.915Z</time></trkpt><trkpt lat="38.1506683" lon="14.858605"><ele>111.75</ele><time>2026-04-25T12:12:08.915Z</time></trkpt><trkpt lat="38.1507067" lon="14.858455"><ele>112.0</ele><time>2026-04-25T12:12:09.915Z</time></trkpt><trkpt lat="38.150765" lon="14.8583083"><ele>112.0</ele><time>2026-04-25T12:12:10.915Z</time></trkpt><trkpt lat="38.1508483" lon="14.858175"><ele>112.0</ele><time>2026-04-25T12:12:11.915Z</time></trkpt><trkpt lat="38.1509483" lon="14.8580433"><ele>112.0</ele><time>2026-04-25T12:12:12.914Z</time></trkpt><trkpt lat="38.1510333" lon="14.85789"><ele>112.0</ele><time>2026-04-25T12:12:13.915Z</time></trkpt><trkpt lat="38.1511167" lon="14.85775"><ele>108.75</ele><time>2026-04-25T12:12:14.915Z</time></trkpt><trkpt lat="38.1511683" lon="14.8576"><ele>105.5</ele><time>2026-04-25T12:12:15.914Z</time></trkpt><trkpt lat="38.1512317" lon="14.8574483"><ele>102.25</ele><time>2026-04-25T12:12:16.914Z</time></trkpt><trkpt lat="38.151305" lon="14.8573117"><ele>99.0</ele><time>2026-04-25T12:12:17.914Z</time></trkpt><trkpt lat="38.1513817" lon="14.857195"><ele>99.0</ele><time>2026-04-25T12:12:18.915Z</time></trkpt><trkpt lat="38.1514517" lon="14.8571083"><ele>99.0</ele><time>2026-04-25T12:12:19.915Z</time></trkpt><trkpt lat="38.151515" lon="14.8570383"><ele>99.0</ele><time>2026-04-25T12:12:20.914Z</time></trkpt><trkpt lat="38.151595" lon="14.857"><ele>99.0</ele><time>2026-04-25T12:12:21.915Z</time></trkpt><trkpt lat="38.15168" lon="14.8569917"><ele>99.0</ele><time>2026-04-25T12:12:22.914Z</time></trkpt><trkpt lat="38.15179" lon="14.8570083"><ele>106.5</ele><time>2026-04-25T12:12:23.915Z</time></trkpt><trkpt lat="38.151905" lon="14.8570133"><ele>114.0</ele><time>2026-04-25T12:12:24.915Z</time></trkpt><trkpt lat="38.1520317" lon="14.85702"><ele>121.5</ele><time>2026-04-25T12:12:25.915Z</time></trkpt><trkpt lat="38.1521583" lon="14.8570233"><ele>129.0</ele><time>2026-04-25T12:12:26.915Z</time></trkpt><trkpt lat="38.1522633" lon="14.8570267"><ele>129.0</ele><time>2026-04-25T12:12:27.914Z</time></trkpt><trkpt lat="38.15234" lon="14.857035"><ele>129.0</ele><time>2026-04-25T12:12:28.914Z</time></trkpt><trkpt lat="38.1524267" lon="14.85706"><ele>129.0</ele><time>2026-04-25T12:12:30.915Z</time></trkpt><trkpt lat="38.15246" lon="14.8571567"><ele>129.0</ele><time>2026-04-25T12:12:32.915Z</time></trkpt><trkpt lat="38.1523867" lon="14.857255"><ele>129.0</ele><time>2026-04-25T12:12:34.914Z</time></trkpt><trkpt lat="38.1523" lon="14.85728"><ele>129.0</ele><time>2026-04-25T12:12:35.915Z</time></trkpt><trkpt lat="38.1521917" lon="14.857295"><ele>129.0</ele><time>2026-04-25T12:12:36.915Z</time></trkpt><trkpt lat="38.152075" lon="14.8572983"><ele>129.0</ele><time>2026-04-25T12:12:37.915Z</time></trkpt><trkpt lat="38.151965" lon="14.857275"><ele>129.0</ele><time>2026-04-25T12:12:38.915Z</time></trkpt><trkpt lat="38.15186" lon="14.8572583"><ele>129.0</ele><time>2026-04-25T12:12:39.915Z</time></trkpt><trkpt lat="38.151755" lon="14.8572717"><ele>129.0</ele><time>2026-04-25T12:12:40.914Z</time></trkpt><trkpt lat="38.15165" lon="14.8573217"><ele>129.0</ele><time>2026-04-25T12:12:41.914Z</time></trkpt><trkpt lat="38.1515683" lon="14.8574117"><ele>129.0</ele><time>2026-04-25T12:12:42.915Z</time></trkpt><trkpt lat="38.151505" lon="14.8575383"><ele>129.0</ele><time>2026-04-25T12:12:43.915Z</time></trkpt><trkpt lat="38.1514483" lon="14.85767"><ele>129.0</ele><time>2026-04-25T12:12:44.915Z</time></trkpt><trkpt lat="38.1514033" lon="14.857805"><ele>124.75</ele><time>2026-04-25T12:12:45.914Z</time></trkpt><trkpt lat="38.15138" lon="14.8579433"><ele>120.5</ele><time>2026-04-25T12:12:46.914Z</time></trkpt><trkpt lat="38.1513717" lon="14.8580867"><ele>116.25</ele><time>2026-04-25T12:12:47.914Z</time></trkpt><trkpt lat="38.1513717" lon="14.8582383"><ele>112.0</ele><time>2026-04-25T12:12:48.915Z</time></trkpt><trkpt lat="38.1513567" lon="14.8583767"><ele>115.25</ele><time>2026-04-25T12:12:49.915Z</time></trkpt><trkpt lat="38.1513167" lon="14.8585067"><ele>118.5</ele><time>2026-04-25T12:12:50.914Z</time></trkpt><trkpt lat="38.15126" lon="14.8586283"><ele>121.75</ele><time>2026-04-25T12:12:51.915Z</time></trkpt><trkpt lat="38.1511767" lon="14.8588883"><ele>125.0</ele><time>2026-04-25T12:12:53.914Z</time></trkpt><trkpt lat="38.15115" lon="14.8590367"><ele>125.0</ele><time>2026-04-25T12:12:54.915Z</time></trkpt><trkpt lat="38.1511333" lon="14.8591867"><ele>125.0</ele><time>2026-04-25T12:12:55.915Z</time></trkpt><trkpt lat="38.1511117" lon="14.85933"><ele>125.0</ele><time>2026-04-25T12:12:56.915Z</time></trkpt><trkpt lat="38.1510983" lon="14.8594433"><ele>125.0</ele><time>2026-04-25T12:12:57.915Z</time></trkpt><trkpt lat="38.1510933" lon="14.85958"><ele>125.0</ele><time>2026-04-25T12:12:59.914Z</time></trkpt><trkpt lat="38.15117" lon="14.8596517"><ele>125.0</ele><time>2026-04-25T12:13:01.914Z</time></trkpt><trkpt lat="38.1513333" lon="14.85954"><ele>125.0</ele><time>2026-04-25T12:13:04.915Z</time></trkpt><trkpt lat="38.1513667" lon="14.859435"><ele>125.0</ele><time>2026-04-25T12:13:05.914Z</time></trkpt><trkpt lat="38.1513917" lon="14.8593033"><ele>125.0</ele><time>2026-04-25T12:13:06.914Z</time></trkpt><trkpt lat="38.1514083" lon="14.85915"><ele>125.0</ele><time>2026-04-25T12:13:07.914Z</time></trkpt><trkpt lat="38.151435" lon="14.8590067"><ele>125.0</ele><time>2026-04-25T12:13:08.914Z</time></trkpt><trkpt lat="38.1514833" lon="14.8588767"><ele>125.0</ele><time>2026-04-25T12:13:09.915Z</time></trkpt><trkpt lat="38.15155" lon="14.8587617"><ele>125.0</ele><time>2026-04-25T12:13:10.914Z</time></trkpt><trkpt lat="38.1516233" lon="14.8586583"><ele>129.4</ele><time>2026-04-25T12:13:11.915Z</time></trkpt><trkpt lat="38.15169" lon="14.8585533"><ele>133.8</ele><time>2026-04-25T12:13:12.915Z</time></trkpt><trkpt lat="38.1517483" lon="14.8584383"><ele>138.2</ele><time>2026-04-25T12:13:13.914Z</time></trkpt><trkpt lat="38.15179" lon="14.8583217"><ele>142.6</ele><time>2026-04-25T12:13:14.914Z</time></trkpt><trkpt lat="38.1518167" lon="14.85823"><ele>147.0</ele><time>2026-04-25T12:13:15.915Z</time></trkpt><trkpt lat="38.151875" lon="14.8581133"><ele>147.0</ele><time>2026-04-25T12:13:17.914Z</time></trkpt><trkpt lat="38.15195" lon="14.85811"><ele>147.0</ele><time>2026-04-25T12:13:19.915Z</time></trkpt><trkpt lat="38.1519933" lon="14.8582183"><ele>147.0</ele><time>2026-04-25T12:13:21.915Z</time></trkpt><trkpt lat="38.151975" lon="14.8583233"><ele>147.0</ele><time>2026-04-25T12:13:22.914Z</time></trkpt><trkpt lat="38.1519433" lon="14.8584533"><ele>147.0</ele><time>2026-04-25T12:13:23.915Z</time></trkpt><trkpt lat="38.1518917" lon="14.858605"><ele>150.25</ele><time>2026-04-25T12:13:24.915Z</time></trkpt><trkpt lat="38.1518317" lon="14.8587567"><ele>153.5</ele><time>2026-04-25T12:13:25.914Z</time></trkpt><trkpt lat="38.1517517" lon="14.8588917"><ele>156.75</ele><time>2026-04-25T12:13:26.915Z</time></trkpt><trkpt lat="38.1516733" lon="14.859"><ele>160.0</ele><time>2026-04-25T12:13:27.915Z</time></trkpt><trkpt lat="38.1516183" lon="14.8591067"><ele>160.0</ele><time>2026-04-25T12:13:28.914Z</time></trkpt><trkpt lat="38.1515867" lon="14.859245"><ele>160.0</ele><time>2026-04-25T12:13:29.915Z</time></trkpt><trkpt lat="38.15159" lon="14.8593883"><ele>160.0</ele><time>2026-04-25T12:13:30.915Z</time></trkpt><trkpt lat="38.1516167" lon="14.8595617"><ele>160.0</ele><time>2026-04-25T12:13:31.915Z</time></trkpt><trkpt lat="38.151645" lon="14.859745"><ele>160.2</ele><time>2026-04-25T12:13:32.915Z</time></trkpt><trkpt lat="38.1516717" lon="14.859915"><ele>160.4</ele><time>2026-04-25T12:13:33.914Z</time></trkpt><trkpt lat="38.1516833" lon="14.8600583"><ele>160.60000000000002</ele><time>2026-04-25T12:13:34.914Z</time></trkpt><trkpt lat="38.1516917" lon="14.8601683"><ele>160.8</ele><time>2026-04-25T12:13:35.914Z</time></trkpt><trkpt lat="38.1516967" lon="14.8602533"><ele>161.0</ele><time>2026-04-25T12:13:36.915Z</time></trkpt><trkpt lat="38.151735" lon="14.8603767"><ele>161.0</ele><time>2026-04-25T12:13:38.914Z</time></trkpt><trkpt lat="38.15183" lon="14.8604017"><ele>161.0</ele><time>2026-04-25T12:13:40.915Z</time></trkpt><trkpt lat="38.1518883" lon="14.8603633"><ele>161.0</ele><time>2026-04-25T12:13:41.915Z</time></trkpt><trkpt lat="38.1519317" lon="14.860285"><ele>161.0</ele><time>2026-04-25T12:13:42.915Z</time></trkpt><trkpt lat="38.1519583" lon="14.8601867"><ele>161.0</ele><time>2026-04-25T12:13:43.915Z</time></trkpt><trkpt lat="38.1519517" lon="14.860075"><ele>161.0</ele><time>2026-04-25T12:13:44.915Z</time></trkpt><trkpt lat="38.1519433" lon="14.8599467"><ele>161.0</ele><time>2026-04-25T12:13:45.915Z</time></trkpt><trkpt lat="38.1519533" lon="14.859805"><ele>161.0</ele><time>2026-04-25T12:13:46.915Z</time></trkpt><trkpt lat="38.15199" lon="14.8596717"><ele>161.0</ele><time>2026-04-25T12:13:47.914Z</time></trkpt><trkpt lat="38.1520433" lon="14.8595383"><ele>161.0</ele><time>2026-04-25T12:13:48.915Z</time></trkpt><trkpt lat="38.152095" lon="14.8594183"><ele>161.0</ele><time>2026-04-25T12:13:49.914Z</time></trkpt><trkpt lat="38.1521417" lon="14.8592767"><ele>160.8</ele><time>2026-04-25T12:13:50.915Z</time></trkpt><trkpt lat="38.1521667" lon="14.85914"><ele>160.60000000000002</ele><time>2026-04-25T12:13:51.915Z</time></trkpt><trkpt lat="38.15219" lon="14.8590267"><ele>160.4</ele><time>2026-04-25T12:13:52.915Z</time></trkpt><trkpt lat="38.1522233" lon="14.8589367"><ele>160.2</ele><time>2026-04-25T12:13:53.915Z</time></trkpt><trkpt lat="38.1522683" lon="14.8588783"><ele>160.0</ele><time>2026-04-25T12:13:54.915Z</time></trkpt><trkpt lat="38.152375" lon="14.8588567"><ele>164.6</ele><time>2026-04-25T12:13:56.915Z</time></trkpt><trkpt lat="38.1524533" lon="14.8589083"><ele>169.2</ele><time>2026-04-25T12:13:57.914Z</time></trkpt><trkpt lat="38.15254" lon="14.858985"><ele>173.8</ele><time>2026-04-25T12:13:58.915Z</time></trkpt><trkpt lat="38.1526283" lon="14.8590433"><ele>178.4</ele><time>2026-04-25T12:13:59.915Z</time></trkpt><trkpt lat="38.1527333" lon="14.8590583"><ele>183.0</ele><time>2026-04-25T12:14:00.915Z</time></trkpt><trkpt lat="38.1528333" lon="14.8590433"><ele>183.0</ele><time>2026-04-25T12:14:01.914Z</time></trkpt><trkpt lat="38.1529333" lon="14.85898"><ele>183.0</ele><time>2026-04-25T12:14:02.914Z</time></trkpt><trkpt lat="38.15303" lon="14.8589133"><ele>183.0</ele><time>2026-04-25T12:14:03.914Z</time></trkpt><trkpt lat="38.153125" lon="14.8588883"><ele>183.0</ele><time>2026-04-25T12:14:04.914Z</time></trkpt><trkpt lat="38.1532133" lon="14.8588983"><ele>183.0</ele><time>2026-04-25T12:14:05.915Z</time></trkpt><trkpt lat="38.1533117" lon="14.8589733"><ele>184.2</ele><time>2026-04-25T12:14:06.914Z</time></trkpt><trkpt lat="38.15341" lon="14.8590617"><ele>185.4</ele><time>2026-04-25T12:14:07.914Z</time></trkpt><trkpt lat="38.153505" lon="14.8591367"><ele>186.6</ele><time>2026-04-25T12:14:08.915Z</time></trkpt><trkpt lat="38.1535917" lon="14.859185"><ele>187.79999999999998</ele><time>2026-04-25T12:14:09.915Z</time></trkpt><trkpt lat="38.1536667" lon="14.859215"><ele>189.0</ele><time>2026-04-25T12:14:10.915Z</time></trkpt><trkpt lat="38.15378" lon="14.8592267"><ele>189.0</ele><time>2026-04-25T12:14:12.914Z</time></trkpt><trkpt lat="38.1538517" lon="14.8592433"><ele>189.0</ele><time>2026-04-25T12:14:14.915Z</time></trkpt><trkpt lat="38.1538883" lon="14.8593217"><ele>189.0</ele><time>2026-04-25T12:14:16.914Z</time></trkpt><trkpt lat="38.153815" lon="14.8593767"><ele>189.0</ele><time>2026-04-25T12:14:19.915Z</time></trkpt><trkpt lat="38.153745" lon="14.8593533"><ele>189.0</ele><time>2026-04-25T12:14:20.915Z</time></trkpt><trkpt lat="38.15366" lon="14.85932"><ele>189.0</ele><time>2026-04-25T12:14:21.914Z</time></trkpt><trkpt lat="38.1535533" lon="14.85928"><ele>189.0</ele><time>2026-04-25T12:14:22.914Z</time></trkpt><trkpt lat="38.1534417" lon="14.8592283"><ele>189.0</ele><time>2026-04-25T12:14:23.914Z</time></trkpt><trkpt lat="38.1533217" lon="14.8591833"><ele>189.0</ele><time>2026-04-25T12:14:24.915Z</time></trkpt><trkpt lat="38.1532183" lon="14.8591533"><ele>189.0</ele><time>2026-04-25T12:14:25.915Z</time></trkpt><trkpt lat="38.1531117" lon="14.8591533"><ele>189.75</ele><time>2026-04-25T12:14:26.914Z</time></trkpt><trkpt lat="38.15301" lon="14.8592033"><ele>190.5</ele><time>2026-04-25T12:14:27.914Z</time></trkpt><trkpt lat="38.1529167" lon="14.85928"><ele>191.25</ele><time>2026-04-25T12:14:28.914Z</time></trkpt><trkpt lat="38.15282" lon="14.85937"><ele>192.0</ele><time>2026-04-25T12:14:29.915Z</time></trkpt><trkpt lat="38.152725" lon="14.8594567"><ele>192.0</ele><time>2026-04-25T12:14:30.914Z</time></trkpt><trkpt lat="38.1526383" lon="14.8595283"><ele>192.0</ele><time>2026-04-25T12:14:31.915Z</time></trkpt><trkpt lat="38.1525567" lon="14.859595"><ele>192.0</ele><time>2026-04-25T12:14:32.915Z</time></trkpt><trkpt lat="38.1524967" lon="14.8596733"><ele>192.0</ele><time>2026-04-25T12:14:33.914Z</time></trkpt><trkpt lat="38.1524583" lon="14.8597817"><ele>192.0</ele><time>2026-04-25T12:14:34.914Z</time></trkpt><trkpt lat="38.1524567" lon="14.8599083"><ele>192.0</ele><time>2026-04-25T12:14:35.914Z</time></trkpt><trkpt lat="38.1524817" lon="14.8600483"><ele>192.0</ele><time>2026-04-25T12:14:36.914Z</time></trkpt><trkpt lat="38.1525267" lon="14.860205"><ele>192.0</ele><time>2026-04-25T12:14:37.915Z</time></trkpt><trkpt lat="38.1525667" lon="14.8603633"><ele>192.0</ele><time>2026-04-25T12:14:38.915Z</time></trkpt><trkpt lat="38.1526067" lon="14.860535"><ele>192.0</ele><time>2026-04-25T12:14:39.915Z</time></trkpt><trkpt lat="38.15265" lon="14.8606983"><ele>192.0</ele><time>2026-04-25T12:14:40.914Z</time></trkpt><trkpt lat="38.15268" lon="14.8608317"><ele>192.0</ele><time>2026-04-25T12:14:41.915Z</time></trkpt><trkpt lat="38.1526917" lon="14.860945"><ele>192.0</ele><time>2026-04-25T12:14:42.914Z</time></trkpt><trkpt lat="38.1526783" lon="14.8610417"><ele>192.0</ele><time>2026-04-25T12:14:43.914Z</time></trkpt><trkpt lat="38.1526467" lon="14.8611167"><ele>193.0</ele><time>2026-04-25T12:14:44.915Z</time></trkpt><trkpt lat="38.1526217" lon="14.8612467"><ele>194.0</ele><time>2026-04-25T12:14:46.915Z</time></trkpt><trkpt lat="38.1526433" lon="14.86135"><ele>195.0</ele><time>2026-04-25T12:14:48.914Z</time></trkpt><trkpt lat="38.1527083" lon="14.8613767"><ele>196.0</ele><time>2026-04-25T12:14:50.915Z</time></trkpt><trkpt lat="38.1528183" lon="14.8612417"><ele>197.0</ele><time>2026-04-25T12:14:52.914Z</time></trkpt><trkpt lat="38.1528567" lon="14.8611233"><ele>197.0</ele><time>2026-04-25T12:14:53.915Z</time></trkpt><trkpt lat="38.1528583" lon="14.8609783"><ele>197.0</ele><time>2026-04-25T12:14:54.914Z</time></trkpt><trkpt lat="38.152845" lon="14.86083"><ele>197.0</ele><time>2026-04-25T12:14:55.914Z</time></trkpt><trkpt lat="38.1528283" lon="14.8606717"><ele>197.0</ele><time>2026-04-25T12:14:56.915Z</time></trkpt><trkpt lat="38.1528217" lon="14.8605283"><ele>196.0</ele><time>2026-04-25T12:14:57.915Z</time></trkpt><trkpt lat="38.1528333" lon="14.8603867"><ele>195.0</ele><time>2026-04-25T12:14:58.915Z</time></trkpt><trkpt lat="38.1528767" lon="14.8602783"><ele>194.0</ele><time>2026-04-25T12:14:59.914Z</time></trkpt><trkpt lat="38.1529533" lon="14.8601867"><ele>193.0</ele><time>2026-04-25T12:15:00.915Z</time></trkpt><trkpt lat="38.1530533" lon="14.860115"><ele>192.0</ele><time>2026-04-25T12:15:01.914Z</time></trkpt><trkpt lat="38.1531683" lon="14.86006"><ele>197.75</ele><time>2026-04-25T12:15:02.914Z</time></trkpt><trkpt lat="38.1533033" lon="14.8600167"><ele>203.5</ele><time>2026-04-25T12:15:03.915Z</time></trkpt><trkpt lat="38.1534267" lon="14.85998"><ele>209.25</ele><time>2026-04-25T12:15:04.914Z</time></trkpt><trkpt lat="38.1535367" lon="14.8599483"><ele>215.0</ele><time>2026-04-25T12:15:05.915Z</time></trkpt><trkpt lat="38.1536283" lon="14.8599383"><ele>215.00000000000003</ele><time>2026-04-25T12:15:06.915Z</time></trkpt><trkpt lat="38.1536967" lon="14.8599417"><ele>215.0</ele><time>2026-04-25T12:15:07.914Z</time></trkpt><trkpt lat="38.1537617" lon="14.8600033"><ele>215.0</ele><time>2026-04-25T12:15:09.915Z</time></trkpt><trkpt lat="38.1537083" lon="14.8600667"><ele>215.0</ele><time>2026-04-25T12:15:11.915Z</time></trkpt><trkpt lat="38.1535983" lon="14.8601083"><ele>215.00000000000003</ele><time>2026-04-25T12:15:13.914Z</time></trkpt><trkpt lat="38.1535267" lon="14.860145"><ele>215.0</ele><time>2026-04-25T12:15:14.915Z</time></trkpt><trkpt lat="38.153445" lon="14.8601933"><ele>218.6</ele><time>2026-04-25T12:15:15.915Z</time></trkpt><trkpt lat="38.153355" lon="14.8602567"><ele>222.2</ele><time>2026-04-25T12:15:16.915Z</time></trkpt><trkpt lat="38.1532733" lon="14.86034"><ele>225.8</ele><time>2026-04-25T12:15:17.915Z</time></trkpt><trkpt lat="38.1532067" lon="14.860445"><ele>229.4</ele><time>2026-04-25T12:15:18.915Z</time></trkpt><trkpt lat="38.153155" lon="14.8605667"><ele>233.0</ele><time>2026-04-25T12:15:19.914Z</time></trkpt><trkpt lat="38.1531183" lon="14.8607167"><ele>224.0</ele><time>2026-04-25T12:15:20.915Z</time></trkpt><trkpt lat="38.1530917" lon="14.8608783"><ele>215.0</ele><time>2026-04-25T12:15:21.915Z</time></trkpt><trkpt lat="38.1530867" lon="14.8610317"><ele>206.0</ele><time>2026-04-25T12:15:22.915Z</time></trkpt><trkpt lat="38.1531017" lon="14.8611867"><ele>197.0</ele><time>2026-04-25T12:15:23.915Z</time></trkpt><trkpt lat="38.153115" lon="14.8613317"><ele>197.00000000000003</ele><time>2026-04-25T12:15:24.914Z</time></trkpt><trkpt lat="38.1531183" lon="14.8614583"><ele>197.0</ele><time>2026-04-25T12:15:25.915Z</time></trkpt><trkpt lat="38.1530933" lon="14.8615633"><ele>197.0</ele><time>2026-04-25T12:15:26.914Z</time></trkpt><trkpt lat="38.1530617" lon="14.86165"><ele>197.0</ele><time>2026-04-25T12:15:27.915Z</time></trkpt><trkpt lat="38.15303" lon="14.861725"><ele>197.00000000000003</ele><time>2026-04-25T12:15:28.915Z</time></trkpt><trkpt lat="38.153005" lon="14.8618483"><ele>197.0</ele><time>2026-04-25T12:15:30.914Z</time></trkpt><trkpt lat="38.15304" lon="14.8619217"><ele>201.0</ele><time>2026-04-25T12:15:32.915Z</time></trkpt><trkpt lat="38.1531183" lon="14.8619"><ele>205.0</ele><time>2026-04-25T12:15:34.914Z</time></trkpt><trkpt lat="38.1531883" lon="14.8618267"><ele>209.0</ele><time>2026-04-25T12:15:35.915Z</time></trkpt><trkpt lat="38.1532233" lon="14.8617233"><ele>213.0</ele><time>2026-04-25T12:15:36.914Z</time></trkpt><trkpt lat="38.15324" lon="14.8615917"><ele>217.0</ele><time>2026-04-25T12:15:37.914Z</time></trkpt><trkpt lat="38.153245" lon="14.8614267"><ele>221.0</ele><time>2026-04-25T12:15:38.914Z</time></trkpt><trkpt lat="38.153255" lon="14.8612733"><ele>225.0</ele><time>2026-04-25T12:15:39.915Z</time></trkpt><trkpt lat="38.1532783" lon="14.861125"><ele>229.0</ele><time>2026-04-25T12:15:40.913Z</time></trkpt><trkpt lat="38.153325" lon="14.8609983"><ele>233.0</ele><time>2026-04-25T12:15:41.913Z</time></trkpt><trkpt lat="38.1533933" lon="14.8609017"><ele>233.00000000000003</ele><time>2026-04-25T12:15:42.913Z</time></trkpt><trkpt lat="38.1534683" lon="14.86082"><ele>233.0</ele><time>2026-04-25T12:15:43.913Z</time></trkpt><trkpt lat="38.1535367" lon="14.860755"><ele>233.0</ele><time>2026-04-25T12:15:44.914Z</time></trkpt><trkpt lat="38.1536067" lon="14.860695"><ele>233.0</ele><time>2026-04-25T12:15:45.914Z</time></trkpt><trkpt lat="38.153675" lon="14.8606583"><ele>233.00000000000003</ele><time>2026-04-25T12:15:46.913Z</time></trkpt><trkpt lat="38.15374" lon="14.86064"><ele>233.0</ele><time>2026-04-25T12:15:47.914Z</time></trkpt><trkpt lat="38.1538517" lon="14.8606783"><ele>233.00000000000003</ele><time>2026-04-25T12:15:49.914Z</time></trkpt><trkpt lat="38.1539017" lon="14.8607367"><ele>233.0</ele><time>2026-04-25T12:15:50.913Z</time></trkpt><trkpt lat="38.1539433" lon="14.860805"><ele>233.0</ele><time>2026-04-25T12:15:51.913Z</time></trkpt><trkpt lat="38.1539817" lon="14.8609133"><ele>233.0</ele><time>2026-04-25T12:15:52.914Z</time></trkpt><trkpt lat="38.1540267" lon="14.8610367"><ele>233.00000000000003</ele><time>2026-04-25T12:15:53.913Z</time></trkpt><trkpt lat="38.1540717" lon="14.8611433"><ele>233.0</ele><time>2026-04-25T12:15:54.914Z</time></trkpt><trkpt lat="38.15412" lon="14.8612267"><ele>240.0</ele><time>2026-04-25T12:15:55.913Z</time></trkpt><trkpt lat="38.15418" lon="14.86127"><ele>247.0</ele><time>2026-04-25T12:15:56.913Z</time></trkpt><trkpt lat="38.1542583" lon="14.8612817"><ele>254.0</ele><time>2026-04-25T12:15:57.914Z</time></trkpt><trkpt lat="38.1543317" lon="14.8612383"><ele>261.0</ele><time>2026-04-25T12:15:58.913Z</time></trkpt><trkpt lat="38.1544233" lon="14.8611417"><ele>268.0</ele><time>2026-04-25T12:15:59.914Z</time></trkpt><trkpt lat="38.15452" lon="14.8610167"><ele>266.0</ele><time>2026-04-25T12:16:00.913Z</time></trkpt><trkpt lat="38.1546183" lon="14.860935"><ele>264.0</ele><time>2026-04-25T12:16:01.914Z</time></trkpt><trkpt lat="38.154725" lon="14.8608633"><ele>262.0</ele><time>2026-04-25T12:16:02.914Z</time></trkpt><trkpt lat="38.154845" lon="14.8607967"><ele>260.0</ele><time>2026-04-25T12:16:03.914Z</time></trkpt><trkpt lat="38.15496" lon="14.8607433"><ele>260.0</ele><time>2026-04-25T12:16:04.913Z</time></trkpt><trkpt lat="38.1550733" lon="14.8606783"><ele>260.0</ele><time>2026-04-25T12:16:05.913Z</time></trkpt><trkpt lat="38.155185" lon="14.86061"><ele>260.0</ele><time>2026-04-25T12:16:06.914Z</time></trkpt><trkpt lat="38.1552867" lon="14.8605333"><ele>260.0</ele><time>2026-04-25T12:16:07.914Z</time></trkpt><trkpt lat="38.1553833" lon="14.8604417"><ele>260.0</ele><time>2026-04-25T12:16:08.913Z</time></trkpt><trkpt lat="38.15548" lon="14.860355"><ele>260.0</ele><time>2026-04-25T12:16:09.914Z</time></trkpt><trkpt lat="38.15558" lon="14.8602967"><ele>260.0</ele><time>2026-04-25T12:16:10.914Z</time></trkpt><trkpt lat="38.1556967" lon="14.86027"><ele>260.0</ele><time>2026-04-25T12:16:11.913Z</time></trkpt><trkpt lat="38.1558167" lon="14.860285"><ele>264.0</ele><time>2026-04-25T12:16:12.914Z</time></trkpt><trkpt lat="38.15594" lon="14.860315"><ele>268.0</ele><time>2026-04-25T12:16:13.914Z</time></trkpt><trkpt lat="38.15606" lon="14.8603733"><ele>272.0</ele><time>2026-04-25T12:16:14.913Z</time></trkpt><trkpt lat="38.1561683" lon="14.86045"><ele>276.0</ele><time>2026-04-25T12:16:15.914Z</time></trkpt><trkpt lat="38.1562667" lon="14.8605483"><ele>276.0</ele><time>2026-04-25T12:16:16.913Z</time></trkpt><trkpt lat="38.15636" lon="14.8606517"><ele>276.0</ele><time>2026-04-25T12:16:17.914Z</time></trkpt><trkpt lat="38.1564617" lon="14.8607567"><ele>276.0</ele><time>2026-04-25T12:16:18.913Z</time></trkpt><trkpt lat="38.156575" lon="14.860855"><ele>276.0</ele><time>2026-04-25T12:16:19.913Z</time></trkpt><trkpt lat="38.1566867" lon="14.8609633"><ele>282.5</ele><time>2026-04-25T12:16:20.914Z</time></trkpt><trkpt lat="38.1567917" lon="14.8610767"><ele>289.0</ele><time>2026-04-25T12:16:21.914Z</time></trkpt><trkpt lat="38.1568833" lon="14.8611867"><ele>295.5</ele><time>2026-04-25T12:16:22.914Z</time></trkpt><trkpt lat="38.156965" lon="14.861285"><ele>302.0</ele><time>2026-04-25T12:16:23.913Z</time></trkpt><trkpt lat="38.1570383" lon="14.8613583"><ele>302.0</ele><time>2026-04-25T12:16:24.913Z</time></trkpt><trkpt lat="38.157105" lon="14.8614033"><ele>302.0</ele><time>2026-04-25T12:16:25.914Z</time></trkpt><trkpt lat="38.1571683" lon="14.8614233"><ele>302.0</ele><time>2026-04-25T12:16:26.914Z</time></trkpt><trkpt lat="38.1572783" lon="14.8613583"><ele>302.0</ele><time>2026-04-25T12:16:28.913Z</time></trkpt><trkpt lat="38.15733" lon="14.8612833"><ele>302.0</ele><time>2026-04-25T12:16:29.914Z</time></trkpt><trkpt lat="38.1573967" lon="14.8611883"><ele>302.0</ele><time>2026-04-25T12:16:30.914Z</time></trkpt><trkpt lat="38.157485" lon="14.8610917"><ele>302.75</ele><time>2026-04-25T12:16:31.913Z</time></trkpt><trkpt lat="38.1575733" lon="14.8610067"><ele>303.5</ele><time>2026-04-25T12:16:32.913Z</time></trkpt><trkpt lat="38.1576767" lon="14.8609317"><ele>304.25</ele><time>2026-04-25T12:16:33.914Z</time></trkpt><trkpt lat="38.157785" lon="14.8608517"><ele>305.0</ele><time>2026-04-25T12:16:34.914Z</time></trkpt><trkpt lat="38.1578783" lon="14.8607717"><ele>302.1666666666667</ele><time>2026-04-25T12:16:35.913Z</time></trkpt><trkpt lat="38.1579617" lon="14.860695"><ele>299.33333333333337</ele><time>2026-04-25T12:16:36.913Z</time></trkpt><trkpt lat="38.15804" lon="14.86063"><ele>296.5</ele><time>2026-04-25T12:16:37.913Z</time></trkpt><trkpt lat="38.1581033" lon="14.8605783"><ele>293.6666666666667</ele><time>2026-04-25T12:16:38.913Z</time></trkpt><trkpt lat="38.1581817" lon="14.860515"><ele>290.8333333333333</ele><time>2026-04-25T12:16:40.913Z</time></trkpt><trkpt lat="38.1582483" lon="14.8605083"><ele>288.0</ele><time>2026-04-25T12:16:42.913Z</time></trkpt><trkpt lat="38.1582783" lon="14.8606"><ele>284.0</ele><time>2026-04-25T12:16:44.914Z</time></trkpt><trkpt lat="38.15817" lon="14.8607167"><ele>280.0</ele><time>2026-04-25T12:16:46.914Z</time></trkpt><trkpt lat="38.1580733" lon="14.860785"><ele>276.0</ele><time>2026-04-25T12:16:47.914Z</time></trkpt><trkpt lat="38.1579667" lon="14.8608617"><ele>272.0</ele><time>2026-04-25T12:16:48.913Z</time></trkpt><trkpt lat="38.1578567" lon="14.8609433"><ele>280.25</ele><time>2026-04-25T12:16:49.914Z</time></trkpt><trkpt lat="38.1577433" lon="14.8610267"><ele>288.5</ele><time>2026-04-25T12:16:50.913Z</time></trkpt><trkpt lat="38.1576383" lon="14.8611083"><ele>296.75</ele><time>2026-04-25T12:16:51.914Z</time></trkpt><trkpt lat="38.1575383" lon="14.8611833"><ele>305.0</ele><time>2026-04-25T12:16:52.914Z</time></trkpt><trkpt lat="38.1574567" lon="14.8612733"><ele>305.0</ele><time>2026-04-25T12:16:53.914Z</time></trkpt><trkpt lat="38.15739" lon="14.8613783"><ele>305.0</ele><time>2026-04-25T12:16:54.914Z</time></trkpt><trkpt lat="38.157335" lon="14.8614917"><ele>305.0</ele><time>2026-04-25T12:16:55.914Z</time></trkpt><trkpt lat="38.1572917" lon="14.8616083"><ele>305.0</ele><time>2026-04-25T12:16:56.914Z</time></trkpt><trkpt lat="38.1572583" lon="14.8617133"><ele>305.0</ele><time>2026-04-25T12:16:57.913Z</time></trkpt><trkpt lat="38.1572167" lon="14.8618"><ele>304.25</ele><time>2026-04-25T12:16:58.913Z</time></trkpt><trkpt lat="38.15711" lon="14.8618417"><ele>303.5</ele><time>2026-04-25T12:17:00.913Z</time></trkpt><trkpt lat="38.1569883" lon="14.8617533"><ele>302.75</ele><time>2026-04-25T12:17:02.914Z</time></trkpt><trkpt lat="38.156905" lon="14.86166"><ele>302.0</ele><time>2026-04-25T12:17:03.914Z</time></trkpt><trkpt lat="38.1568033" lon="14.8615867"><ele>302.0</ele><time>2026-04-25T12:17:04.913Z</time></trkpt><trkpt lat="38.156675" lon="14.8615567"><ele>302.0</ele><time>2026-04-25T12:17:05.914Z</time></trkpt><trkpt lat="38.156545" lon="14.86153"><ele>302.0</ele><time>2026-04-25T12:17:06.914Z</time></trkpt><trkpt lat="38.15641" lon="14.8615017"><ele>302.0</ele><time>2026-04-25T12:17:07.913Z</time></trkpt><trkpt lat="38.1562867" lon="14.8614517"><ele>303.0</ele><time>2026-04-25T12:17:08.914Z</time></trkpt><trkpt lat="38.1561667" lon="14.8613967"><ele>304.0</ele><time>2026-04-25T12:17:09.914Z</time></trkpt><trkpt lat="38.15605" lon="14.86135"><ele>305.0</ele><time>2026-04-25T12:17:10.914Z</time></trkpt><trkpt lat="38.15594" lon="14.8613133"><ele>306.0</ele><time>2026-04-25T12:17:11.914Z</time></trkpt><trkpt lat="38.1558383" lon="14.8612867"><ele>306.0</ele><time>2026-04-25T12:17:12.913Z</time></trkpt><trkpt lat="38.1557583" lon="14.861255"><ele>306.0</ele><time>2026-04-25T12:17:13.914Z</time></trkpt><trkpt lat="38.155685" lon="14.8612317"><ele>306.0</ele><time>2026-04-25T12:17:14.914Z</time></trkpt><trkpt lat="38.1555267" lon="14.8612933"><ele>306.0</ele><time>2026-04-25T12:17:16.914Z</time></trkpt><trkpt lat="38.155455" lon="14.86139"><ele>306.0</ele><time>2026-04-25T12:17:17.913Z</time></trkpt><trkpt lat="38.1553733" lon="14.86149"><ele>307.0</ele><time>2026-04-25T12:17:18.913Z</time></trkpt><trkpt lat="38.155305" lon="14.8615883"><ele>308.0</ele><time>2026-04-25T12:17:19.913Z</time></trkpt><trkpt lat="38.1552567" lon="14.86169"><ele>309.0</ele><time>2026-04-25T12:17:20.914Z</time></trkpt><trkpt lat="38.1552517" lon="14.8618"><ele>310.0</ele><time>2026-04-25T12:17:21.914Z</time></trkpt><trkpt lat="38.15526" lon="14.8619217"><ele>311.0</ele><time>2026-04-25T12:17:22.914Z</time></trkpt><trkpt lat="38.15527" lon="14.8620483"><ele>311.0</ele><time>2026-04-25T12:17:23.914Z</time></trkpt><trkpt lat="38.1552717" lon="14.8621733"><ele>311.0</ele><time>2026-04-25T12:17:24.914Z</time></trkpt><trkpt lat="38.1552483" lon="14.86229"><ele>311.0</ele><time>2026-04-25T12:17:25.914Z</time></trkpt><trkpt lat="38.1552" lon="14.8624067"><ele>311.0</ele><time>2026-04-25T12:17:26.914Z</time></trkpt><trkpt lat="38.1551217" lon="14.8625083"><ele>311.0</ele><time>2026-04-25T12:17:27.914Z</time></trkpt><trkpt lat="38.1550233" lon="14.86258"><ele>315.5</ele><time>2026-04-25T12:17:28.913Z</time></trkpt><trkpt lat="38.15492" lon="14.8626183"><ele>320.0</ele><time>2026-04-25T12:17:29.914Z</time></trkpt><trkpt lat="38.1548033" lon="14.8626417"><ele>324.5</ele><time>2026-04-25T12:17:30.914Z</time></trkpt><trkpt lat="38.1546883" lon="14.8626517"><ele>329.0</ele><time>2026-04-25T12:17:31.913Z</time></trkpt><trkpt lat="38.1545733" lon="14.86265"><ele>329.0</ele><time>2026-04-25T12:17:32.913Z</time></trkpt><trkpt lat="38.1544717" lon="14.8626517"><ele>329.0</ele><time>2026-04-25T12:17:33.914Z</time></trkpt><trkpt lat="38.1543767" lon="14.8626517"><ele>329.0</ele><time>2026-04-25T12:17:34.914Z</time></trkpt><trkpt lat="38.1543" lon="14.8626533"><ele>329.0</ele><time>2026-04-25T12:17:35.913Z</time></trkpt><trkpt lat="38.15423" lon="14.862655"><ele>329.0</ele><time>2026-04-25T12:17:36.913Z</time></trkpt><trkpt lat="38.1541283" lon="14.8626983"><ele>329.0</ele><time>2026-04-25T12:17:38.913Z</time></trkpt><trkpt lat="38.154085" lon="14.862815"><ele>329.0</ele><time>2026-04-25T12:17:40.914Z</time></trkpt><trkpt lat="38.1541183" lon="14.8628933"><ele>329.0</ele><time>2026-04-25T12:17:42.914Z</time></trkpt><trkpt lat="38.154275" lon="14.86289"><ele>329.0</ele><time>2026-04-25T12:17:44.914Z</time></trkpt><trkpt lat="38.1543833" lon="14.8628533"><ele>329.0</ele><time>2026-04-25T12:17:45.914Z</time></trkpt><trkpt lat="38.15453" lon="14.8628367"><ele>329.0</ele><time>2026-04-25T12:17:46.913Z</time></trkpt><trkpt lat="38.15467" lon="14.8628333"><ele>329.0</ele><time>2026-04-25T12:17:47.914Z</time></trkpt><trkpt lat="38.15481" lon="14.8628333"><ele>329.0</ele><time>2026-04-25T12:17:48.914Z</time></trkpt><trkpt lat="38.1549483" lon="14.8628017"><ele>329.0</ele><time>2026-04-25T12:17:49.913Z</time></trkpt><trkpt lat="38.155085" lon="14.8627767"><ele>325.4</ele><time>2026-04-25T12:17:50.914Z</time></trkpt><trkpt lat="38.1552083" lon="14.8627583"><ele>321.79999999999995</ele><time>2026-04-25T12:17:51.914Z</time></trkpt><trkpt lat="38.15531" lon="14.862735"><ele>318.20000000000005</ele><time>2026-04-25T12:17:52.914Z</time></trkpt><trkpt lat="38.1554117" lon="14.8626983"><ele>314.6</ele><time>2026-04-25T12:17:53.914Z</time></trkpt><trkpt lat="38.155505" lon="14.8626283"><ele>311.0</ele><time>2026-04-25T12:17:54.914Z</time></trkpt><trkpt lat="38.1555983" lon="14.8625167"><ele>311.0</ele><time>2026-04-25T12:17:55.914Z</time></trkpt><trkpt lat="38.155685" lon="14.8623867"><ele>311.0</ele><time>2026-04-25T12:17:56.913Z</time></trkpt><trkpt lat="38.15577" lon="14.8622883"><ele>311.0</ele><time>2026-04-25T12:17:57.913Z</time></trkpt><trkpt lat="38.1558567" lon="14.8622033"><ele>311.0</ele><time>2026-04-25T12:17:58.914Z</time></trkpt><trkpt lat="38.1559517" lon="14.862135"><ele>316.75</ele><time>2026-04-25T12:17:59.913Z</time></trkpt><trkpt lat="38.15605" lon="14.8621183"><ele>322.5</ele><time>2026-04-25T12:18:00.914Z</time></trkpt><trkpt lat="38.1561533" lon="14.8621333"><ele>328.25</ele><time>2026-04-25T12:18:01.914Z</time></trkpt><trkpt lat="38.156275" lon="14.8621683"><ele>334.0</ele><time>2026-04-25T12:18:02.914Z</time></trkpt><trkpt lat="38.156405" lon="14.862215"><ele>336.0</ele><time>2026-04-25T12:18:03.914Z</time></trkpt><trkpt lat="38.1565367" lon="14.86223"><ele>338.0</ele><time>2026-04-25T12:18:04.913Z</time></trkpt><trkpt lat="38.1566617" lon="14.8622467"><ele>340.0</ele><time>2026-04-25T12:18:05.913Z</time></trkpt><trkpt lat="38.1567717" lon="14.86226"><ele>342.0</ele><time>2026-04-25T12:18:06.913Z</time></trkpt><trkpt lat="38.1568583" lon="14.8622883"><ele>342.0</ele><time>2026-04-25T12:18:07.914Z</time></trkpt><trkpt lat="38.1569383" lon="14.86233"><ele>342.0</ele><time>2026-04-25T12:18:08.914Z</time></trkpt><trkpt lat="38.1570117" lon="14.8623983"><ele>342.0</ele><time>2026-04-25T12:18:09.914Z</time></trkpt><trkpt lat="38.1570967" lon="14.8624867"><ele>342.0</ele><time>2026-04-25T12:18:10.914Z</time></trkpt><trkpt lat="38.1571767" lon="14.8625667"><ele>342.0</ele><time>2026-04-25T12:18:11.914Z</time></trkpt><trkpt lat="38.1572583" lon="14.8626383"><ele>341.20000000000005</ele><time>2026-04-25T12:18:12.913Z</time></trkpt><trkpt lat="38.1573367" lon="14.8626817"><ele>340.4</ele><time>2026-04-25T12:18:13.914Z</time></trkpt><trkpt lat="38.1574533" lon="14.8626767"><ele>339.6</ele><time>2026-04-25T12:18:15.914Z</time></trkpt><trkpt lat="38.157535" lon="14.8626217"><ele>338.79999999999995</ele><time>2026-04-25T12:18:16.914Z</time></trkpt><trkpt lat="38.1576117" lon="14.8625183"><ele>338.0</ele><time>2026-04-25T12:18:17.913Z</time></trkpt><trkpt lat="38.157685" lon="14.862385"><ele>338.0</ele><time>2026-04-25T12:18:18.914Z</time></trkpt><trkpt lat="38.15778" lon="14.86225"><ele>338.0</ele><time>2026-04-25T12:18:19.914Z</time></trkpt><trkpt lat="38.15788" lon="14.862125"><ele>338.0</ele><time>2026-04-25T12:18:20.913Z</time></trkpt><trkpt lat="38.15799" lon="14.862035"><ele>338.0</ele><time>2026-04-25T12:18:21.914Z</time></trkpt><trkpt lat="38.1581017" lon="14.8619533"><ele>338.0</ele><time>2026-04-25T12:18:22.913Z</time></trkpt><trkpt lat="38.1581933" lon="14.8618883"><ele>338.0</ele><time>2026-04-25T12:18:23.914Z</time></trkpt><trkpt lat="38.1582817" lon="14.8618217"><ele>338.0</ele><time>2026-04-25T12:18:24.914Z</time></trkpt><trkpt lat="38.1583733" lon="14.8617683"><ele>338.0</ele><time>2026-04-25T12:18:25.914Z</time></trkpt><trkpt lat="38.1584617" lon="14.8617467"><ele>338.0</ele><time>2026-04-25T12:18:26.913Z</time></trkpt><trkpt lat="38.158555" lon="14.86175"><ele>335.75</ele><time>2026-04-25T12:18:27.913Z</time></trkpt><trkpt lat="38.1586633" lon="14.8617733"><ele>333.5</ele><time>2026-04-25T12:18:28.913Z</time></trkpt><trkpt lat="38.1587817" lon="14.8618117"><ele>331.25</ele><time>2026-04-25T12:18:29.913Z</time></trkpt><trkpt lat="38.1589083" lon="14.8618567"><ele>329.0</ele><time>2026-04-25T12:18:30.914Z</time></trkpt><trkpt lat="38.1590233" lon="14.861895"><ele>337.5</ele><time>2026-04-25T12:18:31.913Z</time></trkpt><trkpt lat="38.1591233" lon="14.8619583"><ele>346.0</ele><time>2026-04-25T12:18:32.913Z</time></trkpt><trkpt lat="38.1592233" lon="14.8620433"><ele>354.5</ele><time>2026-04-25T12:18:33.913Z</time></trkpt><trkpt lat="38.1593217" lon="14.862135"><ele>363.0</ele><time>2026-04-25T12:18:34.914Z</time></trkpt><trkpt lat="38.1594233" lon="14.8622083"><ele>363.0</ele><time>2026-04-25T12:18:35.914Z</time></trkpt><trkpt lat="38.1595333" lon="14.8622717"><ele>363.0</ele><time>2026-04-25T12:18:36.913Z</time></trkpt><trkpt lat="38.1596383" lon="14.8623367"><ele>363.0</ele><time>2026-04-25T12:18:37.914Z</time></trkpt><trkpt lat="38.1597183" lon="14.8624217"><ele>363.0</ele><time>2026-04-25T12:18:38.913Z</time></trkpt><trkpt lat="38.1597783" lon="14.8625233"><ele>363.0</ele><time>2026-04-25T12:18:39.914Z</time></trkpt><trkpt lat="38.1598467" lon="14.86263"><ele>364.79999999999995</ele><time>2026-04-25T12:18:40.913Z</time></trkpt><trkpt lat="38.1599217" lon="14.8627383"><ele>366.6</ele><time>2026-04-25T12:18:41.913Z</time></trkpt><trkpt lat="38.160015" lon="14.8628183"><ele>368.4</ele><time>2026-04-25T12:18:42.913Z</time></trkpt><trkpt lat="38.1601183" lon="14.86287"><ele>370.20000000000005</ele><time>2026-04-25T12:18:43.913Z</time></trkpt><trkpt lat="38.1602233" lon="14.8628967"><ele>372.0</ele><time>2026-04-25T12:18:44.914Z</time></trkpt><trkpt lat="38.160325" lon="14.8628967"><ele>372.0</ele><time>2026-04-25T12:18:45.914Z</time></trkpt><trkpt lat="38.16041" lon="14.862865"><ele>372.0</ele><time>2026-04-25T12:18:46.914Z</time></trkpt><trkpt lat="38.16047" lon="14.86281"><ele>372.0</ele><time>2026-04-25T12:18:47.914Z</time></trkpt><trkpt lat="38.1605633" lon="14.8627517"><ele>372.0</ele><time>2026-04-25T12:18:49.914Z</time></trkpt><trkpt lat="38.1606233" lon="14.8627867"><ele>372.0</ele><time>2026-04-25T12:18:51.913Z</time></trkpt><trkpt lat="38.1606033" lon="14.8628917"><ele>372.0</ele><time>2026-04-25T12:18:53.913Z</time></trkpt><trkpt lat="38.160555" lon="14.8629433"><ele>372.0</ele><time>2026-04-25T12:18:54.913Z</time></trkpt><trkpt lat="38.16046" lon="14.8629967"><ele>372.0</ele><time>2026-04-25T12:18:55.914Z</time></trkpt><trkpt lat="38.1603433" lon="14.86305"><ele>372.0</ele><time>2026-04-25T12:18:56.913Z</time></trkpt><trkpt lat="38.1602167" lon="14.8630867"><ele>372.0</ele><time>2026-04-25T12:18:57.914Z</time></trkpt><trkpt lat="38.1600883" lon="14.8630867"><ele>372.0</ele><time>2026-04-25T12:18:58.914Z</time></trkpt><trkpt lat="38.1599733" lon="14.8630633"><ele>372.0</ele><time>2026-04-25T12:18:59.913Z</time></trkpt><trkpt lat="38.159855" lon="14.8630117"><ele>372.0</ele><time>2026-04-25T12:19:00.914Z</time></trkpt><trkpt lat="38.1597517" lon="14.862955"><ele>372.0</ele><time>2026-04-25T12:19:01.913Z</time></trkpt><trkpt lat="38.15968" lon="14.8628917"><ele>372.0</ele><time>2026-04-25T12:19:02.914Z</time></trkpt><trkpt lat="38.1596167" lon="14.8628033"><ele>372.20000000000005</ele><time>2026-04-25T12:19:03.913Z</time></trkpt><trkpt lat="38.159545" lon="14.8627167"><ele>372.4</ele><time>2026-04-25T12:19:04.914Z</time></trkpt><trkpt lat="38.1594567" lon="14.86266"><ele>372.6</ele><time>2026-04-25T12:19:05.914Z</time></trkpt><trkpt lat="38.15935" lon="14.862605"><ele>372.79999999999995</ele><time>2026-04-25T12:19:06.914Z</time></trkpt><trkpt lat="38.15924" lon="14.8625567"><ele>373.0</ele><time>2026-04-25T12:19:07.914Z</time></trkpt><trkpt lat="38.1591383" lon="14.8625133"><ele>371.3333333333333</ele><time>2026-04-25T12:19:08.914Z</time></trkpt><trkpt lat="38.1590417" lon="14.86247"><ele>369.66666666666663</ele><time>2026-04-25T12:19:09.914Z</time></trkpt><trkpt lat="38.1589633" lon="14.8624367"><ele>368.0</ele><time>2026-04-25T12:19:10.913Z</time></trkpt><trkpt lat="38.1588933" lon="14.8624183"><ele>366.3333333333333</ele><time>2026-04-25T12:19:11.914Z</time></trkpt><trkpt lat="38.1588167" lon="14.862425"><ele>364.6666666666667</ele><time>2026-04-25T12:19:12.914Z</time></trkpt><trkpt lat="38.1587433" lon="14.8624617"><ele>363.0</ele><time>2026-04-25T12:19:13.913Z</time></trkpt><trkpt lat="38.1586833" lon="14.86252"><ele>362.79999999999995</ele><time>2026-04-25T12:19:14.913Z</time></trkpt><trkpt lat="38.1586367" lon="14.8626083"><ele>362.6</ele><time>2026-04-25T12:19:15.913Z</time></trkpt><trkpt lat="38.1585967" lon="14.8627167"><ele>362.4</ele><time>2026-04-25T12:19:16.914Z</time></trkpt><trkpt lat="38.1585517" lon="14.862835"><ele>362.20000000000005</ele><time>2026-04-25T12:19:17.914Z</time></trkpt><trkpt lat="38.1585017" lon="14.8629483"><ele>362.0</ele><time>2026-04-25T12:19:18.914Z</time></trkpt><trkpt lat="38.1584667" lon="14.8630633"><ele>363.83333333333337</ele><time>2026-04-25T12:19:19.914Z</time></trkpt><trkpt lat="38.1584333" lon="14.863165"><ele>365.6666666666667</ele><time>2026-04-25T12:19:20.914Z</time></trkpt><trkpt lat="38.1584067" lon="14.8632433"><ele>367.5</ele><time>2026-04-25T12:19:21.913Z</time></trkpt><trkpt lat="38.1583817" lon="14.8633433"><ele>369.3333333333333</ele><time>2026-04-25T12:19:23.913Z</time></trkpt><trkpt lat="38.1583917" lon="14.863445"><ele>371.16666666666663</ele><time>2026-04-25T12:19:25.913Z</time></trkpt><trkpt lat="38.158465" lon="14.8635617"><ele>373.0</ele><time>2026-04-25T12:19:27.914Z</time></trkpt><trkpt lat="38.1585217" lon="14.8636067"><ele>374.16666666666663</ele><time>2026-04-25T12:19:28.913Z</time></trkpt><trkpt lat="38.158595" lon="14.86365"><ele>375.3333333333333</ele><time>2026-04-25T12:19:29.914Z</time></trkpt><trkpt lat="38.1586567" lon="14.8636933"><ele>376.5</ele><time>2026-04-25T12:19:30.914Z</time></trkpt><trkpt lat="38.1587533" lon="14.8637633"><ele>377.6666666666667</ele><time>2026-04-25T12:19:32.913Z</time></trkpt><trkpt lat="38.15883" lon="14.8637983"><ele>378.83333333333337</ele><time>2026-04-25T12:19:34.914Z</time></trkpt><trkpt lat="38.1589067" lon="14.86384"><ele>380.0</ele><time>2026-04-25T12:19:37.913Z</time></trkpt><trkpt lat="38.1589717" lon="14.8638683"><ele>379.0</ele><time>2026-04-25T12:19:39.914Z</time></trkpt><trkpt lat="38.1590817" lon="14.8639117"><ele>378.0</ele><time>2026-04-25T12:19:41.913Z</time></trkpt><trkpt lat="38.15916" lon="14.8639367"><ele>377.0</ele><time>2026-04-25T12:19:42.914Z</time></trkpt><trkpt lat="38.1592333" lon="14.8639683"><ele>376.0</ele><time>2026-04-25T12:19:43.913Z</time></trkpt><trkpt lat="38.1593" lon="14.8639967"><ele>375.0</ele><time>2026-04-25T12:19:44.913Z</time></trkpt><trkpt lat="38.1593617" lon="14.8640133"><ele>374.0</ele><time>2026-04-25T12:19:45.913Z</time></trkpt><trkpt lat="38.159425" lon="14.8640217"><ele>374.0</ele><time>2026-04-25T12:19:46.914Z</time></trkpt><trkpt lat="38.1594983" lon="14.8640117"><ele>374.0</ele><time>2026-04-25T12:19:47.913Z</time></trkpt><trkpt lat="38.159675" lon="14.8639283"><ele>374.0</ele><time>2026-04-25T12:19:49.913Z</time></trkpt><trkpt lat="38.1597783" lon="14.8638567"><ele>374.0</ele><time>2026-04-25T12:19:50.913Z</time></trkpt><trkpt lat="38.1598917" lon="14.863795"><ele>375.4</ele><time>2026-04-25T12:19:51.913Z</time></trkpt><trkpt lat="38.1599967" lon="14.8637383"><ele>376.79999999999995</ele><time>2026-04-25T12:19:52.914Z</time></trkpt><trkpt lat="38.1601" lon="14.863685"><ele>378.20000000000005</ele><time>2026-04-25T12:19:53.914Z</time></trkpt><trkpt lat="38.1601983" lon="14.8636283"><ele>379.6</ele><time>2026-04-25T12:19:54.913Z</time></trkpt><trkpt lat="38.1603017" lon="14.8635817"><ele>381.0</ele><time>2026-04-25T12:19:55.914Z</time></trkpt><trkpt lat="38.1603933" lon="14.8635333"><ele>381.0</ele><time>2026-04-25T12:19:56.914Z</time></trkpt><trkpt lat="38.1604833" lon="14.8634917"><ele>381.0</ele><time>2026-04-25T12:19:57.914Z</time></trkpt><trkpt lat="38.1605733" lon="14.8634483"><ele>381.0</ele><time>2026-04-25T12:19:58.914Z</time></trkpt><trkpt lat="38.16066" lon="14.8634067"><ele>381.0</ele><time>2026-04-25T12:19:59.913Z</time></trkpt><trkpt lat="38.1607467" lon="14.8633517"><ele>381.0</ele><time>2026-04-25T12:20:00.913Z</time></trkpt><trkpt lat="38.1608367" lon="14.8632933"><ele>381.8333333333333</ele><time>2026-04-25T12:20:01.913Z</time></trkpt><trkpt lat="38.1609183" lon="14.863235"><ele>382.66666666666663</ele><time>2026-04-25T12:20:02.914Z</time></trkpt><trkpt lat="38.1610033" lon="14.8631783"><ele>383.5</ele><time>2026-04-25T12:20:03.914Z</time></trkpt><trkpt lat="38.161085" lon="14.86314"><ele>384.3333333333333</ele><time>2026-04-25T12:20:04.914Z</time></trkpt><trkpt lat="38.161155" lon="14.8631167"><ele>385.16666666666663</ele><time>2026-04-25T12:20:05.914Z</time></trkpt><trkpt lat="38.1612233" lon="14.8631067"><ele>386.0</ele><time>2026-04-25T12:20:06.913Z</time></trkpt><trkpt lat="38.16135" lon="14.863105"><ele>385.99999999999994</ele><time>2026-04-25T12:20:08.913Z</time></trkpt><trkpt lat="38.1614133" lon="14.863105"><ele>386.0</ele><time>2026-04-25T12:20:09.914Z</time></trkpt><trkpt lat="38.16148" lon="14.8631017"><ele>386.0</ele><time>2026-04-25T12:20:10.914Z</time></trkpt><trkpt lat="38.1615467" lon="14.86307"><ele>386.0</ele><time>2026-04-25T12:20:11.914Z</time></trkpt><trkpt lat="38.1616183" lon="14.86295"><ele>385.99999999999994</ele><time>2026-04-25T12:20:13.914Z</time></trkpt><trkpt lat="38.16164" lon="14.8627883"><ele>386.0</ele><time>2026-04-25T12:20:15.913Z</time></trkpt><trkpt lat="38.1616217" lon="14.862695"><ele>387.8333333333333</ele><time>2026-04-25T12:20:16.914Z</time></trkpt><trkpt lat="38.1615783" lon="14.862615"><ele>389.66666666666663</ele><time>2026-04-25T12:20:17.914Z</time></trkpt><trkpt lat="38.1615267" lon="14.862555"><ele>391.5</ele><time>2026-04-25T12:20:18.913Z</time></trkpt><trkpt lat="38.161465" lon="14.86249"><ele>393.33333333333337</ele><time>2026-04-25T12:20:19.913Z</time></trkpt><trkpt lat="38.161415" lon="14.8624367"><ele>395.1666666666667</ele><time>2026-04-25T12:20:20.914Z</time></trkpt><trkpt lat="38.1613267" lon="14.862365"><ele>397.0</ele><time>2026-04-25T12:20:22.913Z</time></trkpt><trkpt lat="38.161275" lon="14.8622983"><ele>392.0</ele><time>2026-04-25T12:20:24.913Z</time></trkpt><trkpt lat="38.16127" lon="14.86219"><ele>387.0</ele><time>2026-04-25T12:20:26.914Z</time></trkpt><trkpt lat="38.1613033" lon="14.86206"><ele>382.0</ele><time>2026-04-25T12:20:28.914Z</time></trkpt><trkpt lat="38.1613583" lon="14.8619617"><ele>377.0</ele><time>2026-04-25T12:20:30.914Z</time></trkpt><trkpt lat="38.1614083" lon="14.8618483"><ele>372.0</ele><time>2026-04-25T12:20:32.913Z</time></trkpt><trkpt lat="38.1614783" lon="14.8617417"><ele>372.0</ele><time>2026-04-25T12:20:34.913Z</time></trkpt><trkpt lat="38.161525" lon="14.8616233"><ele>372.0</ele><time>2026-04-25T12:20:36.914Z</time></trkpt><trkpt lat="38.1615517" lon="14.86148"><ele>372.0</ele><time>2026-04-25T12:20:38.913Z</time></trkpt><trkpt lat="38.161545" lon="14.8613983"><ele>372.0</ele><time>2026-04-25T12:20:39.914Z</time></trkpt><trkpt lat="38.1615233" lon="14.8613133"><ele>372.0</ele><time>2026-04-25T12:20:40.914Z</time></trkpt><trkpt lat="38.16151" lon="14.8612267"><ele>372.0</ele><time>2026-04-25T12:20:41.913Z</time></trkpt><trkpt lat="38.1615" lon="14.8611383"><ele>372.0</ele><time>2026-04-25T12:20:42.914Z</time></trkpt><trkpt lat="38.1614883" lon="14.8610467"><ele>372.0</ele><time>2026-04-25T12:20:43.913Z</time></trkpt><trkpt lat="38.161485" lon="14.860965"><ele>372.0</ele><time>2026-04-25T12:20:44.914Z</time></trkpt><trkpt lat="38.161475" lon="14.8608383"><ele>372.0</ele><time>2026-04-25T12:20:46.913Z</time></trkpt><trkpt lat="38.16146" lon="14.8607083"><ele>372.0</ele><time>2026-04-25T12:20:48.913Z</time></trkpt><trkpt lat="38.1614383" lon="14.860605"><ele>372.0</ele><time>2026-04-25T12:20:50.913Z</time></trkpt><trkpt lat="38.1614217" lon="14.8605233"><ele>372.1666666666667</ele><time>2026-04-25T12:20:53.913Z</time></trkpt><trkpt lat="38.16147" lon="14.860455"><ele>372.3333333333333</ele><time>2026-04-25T12:20:56.914Z</time></trkpt><trkpt lat="38.1615433" lon="14.860485"><ele>372.5</ele><time>2026-04-25T12:20:58.914Z</time></trkpt><trkpt lat="38.1616417" lon="14.8605567"><ele>372.66666666666663</ele><time>2026-04-25T12:21:00.914Z</time></trkpt><trkpt lat="38.1617167" lon="14.860655"><ele>372.8333333333333</ele><time>2026-04-25T12:21:02.914Z</time></trkpt><trkpt lat="38.1617667" lon="14.8607267"><ele>373.0</ele><time>2026-04-25T12:21:04.914Z</time></trkpt><trkpt lat="38.16181" lon="14.8608217"><ele>377.16666666666663</ele><time>2026-04-25T12:21:07.914Z</time></trkpt><trkpt lat="38.1618633" lon="14.8608817"><ele>381.3333333333333</ele><time>2026-04-25T12:21:09.914Z</time></trkpt><trkpt lat="38.1618867" lon="14.8609567"><ele>385.5</ele><time>2026-04-25T12:21:11.913Z</time></trkpt><trkpt lat="38.1619067" lon="14.861045"><ele>389.66666666666663</ele><time>2026-04-25T12:21:15.913Z</time></trkpt><trkpt lat="38.16191" lon="14.8611667"><ele>393.8333333333333</ele><time>2026-04-25T12:21:18.914Z</time></trkpt><trkpt lat="38.16193" lon="14.8612683"><ele>398.0</ele><time>2026-04-25T12:21:20.913Z</time></trkpt><trkpt lat="38.1619583" lon="14.8613717"><ele>397.99999999999994</ele><time>2026-04-25T12:21:22.913Z</time></trkpt><trkpt lat="38.16198" lon="14.86148"><ele>398.0</ele><time>2026-04-25T12:21:24.913Z</time></trkpt><trkpt lat="38.1619817" lon="14.861595"><ele>398.0</ele><time>2026-04-25T12:21:26.912Z</time></trkpt><trkpt lat="38.1619917" lon="14.861685"><ele>398.0</ele><time>2026-04-25T12:21:28.913Z</time></trkpt><trkpt lat="38.1620317" lon="14.86175"><ele>397.99999999999994</ele><time>2026-04-25T12:21:32.912Z</time></trkpt><trkpt lat="38.1620983" lon="14.8618683"><ele>398.0</ele><time>2026-04-25T12:21:34.912Z</time></trkpt><trkpt lat="38.1621467" lon="14.8619383"><ele>397.71428571428567</ele><time>2026-04-25T12:21:35.912Z</time></trkpt><trkpt lat="38.1622033" lon="14.8619983"><ele>397.42857142857144</ele><time>2026-04-25T12:21:36.913Z</time></trkpt><trkpt lat="38.1622617" lon="14.862045"><ele>397.1428571428571</ele><time>2026-04-25T12:21:37.913Z</time></trkpt><trkpt lat="38.1623167" lon="14.8620867"><ele>396.85714285714283</ele><time>2026-04-25T12:21:38.913Z</time></trkpt><trkpt lat="38.1623783" lon="14.8621133"><ele>396.57142857142856</ele><time>2026-04-25T12:21:39.913Z</time></trkpt><trkpt lat="38.16245" lon="14.8621367"><ele>396.2857142857143</ele><time>2026-04-25T12:21:40.913Z</time></trkpt><trkpt lat="38.1625283" lon="14.8621417"><ele>396.0</ele><time>2026-04-25T12:21:41.912Z</time></trkpt><trkpt lat="38.1626083" lon="14.8621433"><ele>397.8</ele><time>2026-04-25T12:21:42.912Z</time></trkpt><trkpt lat="38.16269" lon="14.86215"><ele>399.6</ele><time>2026-04-25T12:21:43.913Z</time></trkpt><trkpt lat="38.162765" lon="14.86215"><ele>401.4</ele><time>2026-04-25T12:21:44.912Z</time></trkpt><trkpt lat="38.1628283" lon="14.862145"><ele>403.2</ele><time>2026-04-25T12:21:45.912Z</time></trkpt><trkpt lat="38.1629417" lon="14.8621217"><ele>405.0</ele><time>2026-04-25T12:21:47.913Z</time></trkpt><trkpt lat="38.16305" lon="14.8620483"><ele>404.99999999999994</ele><time>2026-04-25T12:21:49.913Z</time></trkpt><trkpt lat="38.1631017" lon="14.8619933"><ele>405.0</ele><time>2026-04-25T12:21:50.913Z</time></trkpt><trkpt lat="38.1631567" lon="14.861935"><ele>405.0</ele><time>2026-04-25T12:21:51.913Z</time></trkpt><trkpt lat="38.1632083" lon="14.86187"><ele>405.0</ele><time>2026-04-25T12:21:52.912Z</time></trkpt><trkpt lat="38.1632617" lon="14.8618167"><ele>405.0</ele><time>2026-04-25T12:21:53.912Z</time></trkpt><trkpt lat="38.1633083" lon="14.8617467"><ele>404.99999999999994</ele><time>2026-04-25T12:21:54.913Z</time></trkpt><trkpt lat="38.1633583" lon="14.8616717"><ele>405.0</ele><time>2026-04-25T12:21:55.912Z</time></trkpt><trkpt lat="38.163405" lon="14.8615967"><ele>400.0</ele><time>2026-04-25T12:21:56.913Z</time></trkpt><trkpt lat="38.1634517" lon="14.861525"><ele>395.0</ele><time>2026-04-25T12:21:57.913Z</time></trkpt><trkpt lat="38.1635483" lon="14.8614183"><ele>390.0</ele><time>2026-04-25T12:21:59.912Z</time></trkpt><trkpt lat="38.1636467" lon="14.86134"><ele>385.0</ele><time>2026-04-25T12:22:01.912Z</time></trkpt><trkpt lat="38.163745" lon="14.861265"><ele>380.0</ele><time>2026-04-25T12:22:03.913Z</time></trkpt><trkpt lat="38.1638067" lon="14.8612117"><ele>380.0</ele><time>2026-04-25T12:22:05.913Z</time></trkpt><trkpt lat="38.1638767" lon="14.86117"><ele>380.0</ele><time>2026-04-25T12:22:08.913Z</time></trkpt></trkseg></trk></gpx>